<?xml version="1.0" encoding="UTF-8"?>
<gpx creator="Garmin Connect" version="1.1"
  xsi:schemaLocation="http://www.topografix.com/GPX/1/1 http://www.topografix.com/GPX/11.xsd"
  xmlns:ns3="http://www.garmin.com/xmlschemas/TrackPointExtension/v1"
  xmlns="http://www.topografix.com/GPX/1/1"
  xmlns:xsi="http://www.w3.org/2001/XMLSchema-instance" xmlns:ns2="http://www.garmin.com/xmlschemas/GpxExtensions/v3">
  <metadata>
    <link href="connect.garmin.com">
      <text>Garmin Connect</text>
    </link>
    <time>2018-08-18T07:49:22.000Z</time>
  </metadata>
  <trk>
    <name>Norberg Okategoriserad</name>
    <type>uncategorized</type>
    <trkseg>
      <trkpt lat="60.06767115555703639984130859375" lon="15.92272502370178699493408203125">
        <ele>129.399993896484375</ele>
        <time>2018-08-18T07:49:22.000Z</time>
        <extensions>
          <ns3:TrackPointExtension>
            <ns3:atemp>15.0</ns3:atemp>
          </ns3:TrackPointExtension>
        </extensions>
      </trkpt>
      <trkpt lat="60.0677637755870819091796875" lon="15.92267154715955257415771484375">
        <ele>129.399993896484375</ele>
        <time>2018-08-18T07:49:24.000Z</time>
        <extensions>
          <ns3:TrackPointExtension>
            <ns3:atemp>15.0</ns3:atemp>
          </ns3:TrackPointExtension>
        </extensions>
      </trkpt>
      <trkpt lat="60.06796183995902538299560546875" lon="15.9226828627288341522216796875">
        <ele>129.600006103515625</ele>
        <time>2018-08-18T07:49:28.000Z</time>
        <extensions>
          <ns3:TrackPointExtension>
            <ns3:atemp>15.0</ns3:atemp>
          </ns3:TrackPointExtension>
        </extensions>
      </trkpt>
      <trkpt lat="60.06805605255067348480224609375" lon="15.92272485606372356414794921875">
        <ele>129.8000030517578125</ele>
        <time>2018-08-18T07:49:30.000Z</time>
        <extensions>
          <ns3:TrackPointExtension>
            <ns3:atemp>15.0</ns3:atemp>
          </ns3:TrackPointExtension>
        </extensions>
      </trkpt>
      <trkpt lat="60.068335421383380889892578125" lon="15.923034735023975372314453125">
        <ele>130.1999969482421875</ele>
        <time>2018-08-18T07:49:36.000Z</time>
        <extensions>
          <ns3:TrackPointExtension>
            <ns3:atemp>15.0</ns3:atemp>
          </ns3:TrackPointExtension>
        </extensions>
      </trkpt>
      <trkpt lat="60.06866206414997577667236328125" lon="15.92388709075748920440673828125">
        <ele>130.8000030517578125</ele>
        <time>2018-08-18T07:49:46.000Z</time>
        <extensions>
          <ns3:TrackPointExtension>
            <ns3:atemp>15.0</ns3:atemp>
          </ns3:TrackPointExtension>
        </extensions>
      </trkpt>
      <trkpt lat="60.0687523372471332550048828125" lon="15.9241490252315998077392578125">
        <ele>131</ele>
        <time>2018-08-18T07:49:49.000Z</time>
        <extensions>
          <ns3:TrackPointExtension>
            <ns3:atemp>15.0</ns3:atemp>
          </ns3:TrackPointExtension>
        </extensions>
      </trkpt>
      <trkpt lat="60.06896498613059520721435546875" lon="15.92444046400487422943115234375">
        <ele>131.600006103515625</ele>
        <time>2018-08-18T07:49:55.000Z</time>
        <extensions>
          <ns3:TrackPointExtension>
            <ns3:atemp>15.0</ns3:atemp>
          </ns3:TrackPointExtension>
        </extensions>
      </trkpt>
      <trkpt lat="60.06904377602040767669677734375" lon="15.92453165911138057708740234375">
        <ele>131.8000030517578125</ele>
        <time>2018-08-18T07:49:57.000Z</time>
        <extensions>
          <ns3:TrackPointExtension>
            <ns3:atemp>15.0</ns3:atemp>
          </ns3:TrackPointExtension>
        </extensions>
      </trkpt>
      <trkpt lat="60.06939866580069065093994140625" lon="15.92487699352204799652099609375">
        <ele>132.600006103515625</ele>
        <time>2018-08-18T07:50:03.000Z</time>
        <extensions>
          <ns3:TrackPointExtension>
            <ns3:atemp>15.0</ns3:atemp>
          </ns3:TrackPointExtension>
        </extensions>
      </trkpt>
      <trkpt lat="60.06974500603973865509033203125" lon="15.92482351697981357574462890625">
        <ele>132.8000030517578125</ele>
        <time>2018-08-18T07:50:08.000Z</time>
        <extensions>
          <ns3:TrackPointExtension>
            <ns3:atemp>15.0</ns3:atemp>
          </ns3:TrackPointExtension>
        </extensions>
      </trkpt>
      <trkpt lat="60.06980602629482746124267578125" lon="15.92478948645293712615966796875">
        <ele>132.8000030517578125</ele>
        <time>2018-08-18T07:50:09.000Z</time>
        <extensions>
          <ns3:TrackPointExtension>
            <ns3:atemp>15.0</ns3:atemp>
          </ns3:TrackPointExtension>
        </extensions>
      </trkpt>
      <trkpt lat="60.06992471404373645782470703125" lon="15.92471036128699779510498046875">
        <ele>132.8000030517578125</ele>
        <time>2018-08-18T07:50:11.000Z</time>
        <extensions>
          <ns3:TrackPointExtension>
            <ns3:atemp>15.0</ns3:atemp>
          </ns3:TrackPointExtension>
        </extensions>
      </trkpt>
      <trkpt lat="60.070463083684444427490234375" lon="15.924229323863983154296875">
        <ele>132.600006103515625</ele>
        <time>2018-08-18T07:50:21.000Z</time>
        <extensions>
          <ns3:TrackPointExtension>
            <ns3:atemp>15.0</ns3:atemp>
          </ns3:TrackPointExtension>
        </extensions>
      </trkpt>
      <trkpt lat="60.070940516889095306396484375" lon="15.9236554987728595733642578125">
        <ele>132.600006103515625</ele>
        <time>2018-08-18T07:50:31.000Z</time>
        <extensions>
          <ns3:TrackPointExtension>
            <ns3:atemp>15.0</ns3:atemp>
          </ns3:TrackPointExtension>
        </extensions>
      </trkpt>
      <trkpt lat="60.071432031691074371337890625" lon="15.9229956753551959991455078125">
        <ele>132.600006103515625</ele>
        <time>2018-08-18T07:50:41.000Z</time>
        <extensions>
          <ns3:TrackPointExtension>
            <ns3:atemp>15.0</ns3:atemp>
          </ns3:TrackPointExtension>
        </extensions>
      </trkpt>
      <trkpt lat="60.0716333650052547454833984375" lon="15.9226991236209869384765625">
        <ele>132.600006103515625</ele>
        <time>2018-08-18T07:50:45.000Z</time>
        <extensions>
          <ns3:TrackPointExtension>
            <ns3:atemp>15.0</ns3:atemp>
          </ns3:TrackPointExtension>
        </extensions>
      </trkpt>
      <trkpt lat="60.072090514004230499267578125" lon="15.922029912471771240234375">
        <ele>132.399993896484375</ele>
        <time>2018-08-18T07:50:54.000Z</time>
        <extensions>
          <ns3:TrackPointExtension>
            <ns3:atemp>15.0</ns3:atemp>
          </ns3:TrackPointExtension>
        </extensions>
      </trkpt>
      <trkpt lat="60.0721449963748455047607421875" lon="15.92197584919631481170654296875">
        <ele>132.399993896484375</ele>
        <time>2018-08-18T07:50:55.000Z</time>
        <extensions>
          <ns3:TrackPointExtension>
            <ns3:atemp>15.0</ns3:atemp>
          </ns3:TrackPointExtension>
        </extensions>
      </trkpt>
      <trkpt lat="60.07230802439153194427490234375" lon="15.9218124859035015106201171875">
        <ele>132.600006103515625</ele>
        <time>2018-08-18T07:50:58.000Z</time>
        <extensions>
          <ns3:TrackPointExtension>
            <ns3:atemp>15.0</ns3:atemp>
          </ns3:TrackPointExtension>
        </extensions>
      </trkpt>
      <trkpt lat="60.07284144870936870574951171875" lon="15.9214487113058567047119140625">
        <ele>132.8000030517578125</ele>
        <time>2018-08-18T07:51:07.000Z</time>
        <extensions>
          <ns3:TrackPointExtension>
            <ns3:atemp>15.0</ns3:atemp>
          </ns3:TrackPointExtension>
        </extensions>
      </trkpt>
      <trkpt lat="60.07339666597545146942138671875" lon="15.921309404075145721435546875">
        <ele>133.399993896484375</ele>
        <time>2018-08-18T07:51:16.000Z</time>
        <extensions>
          <ns3:TrackPointExtension>
            <ns3:atemp>14.0</ns3:atemp>
          </ns3:TrackPointExtension>
        </extensions>
      </trkpt>
      <trkpt lat="60.073989517986774444580078125" lon="15.92130999080836772918701171875">
        <ele>134</ele>
        <time>2018-08-18T07:51:25.000Z</time>
        <extensions>
          <ns3:TrackPointExtension>
            <ns3:atemp>14.0</ns3:atemp>
          </ns3:TrackPointExtension>
        </extensions>
      </trkpt>
      <trkpt lat="60.07444038055837154388427734375" lon="15.9213070571422576904296875">
        <ele>134.600006103515625</ele>
        <time>2018-08-18T07:51:32.000Z</time>
        <extensions>
          <ns3:TrackPointExtension>
            <ns3:atemp>14.0</ns3:atemp>
          </ns3:TrackPointExtension>
        </extensions>
      </trkpt>
      <trkpt lat="60.0750149600207805633544921875" lon="15.92132541351020336151123046875">
        <ele>135.1999969482421875</ele>
        <time>2018-08-18T07:51:41.000Z</time>
        <extensions>
          <ns3:TrackPointExtension>
            <ns3:atemp>14.0</ns3:atemp>
          </ns3:TrackPointExtension>
        </extensions>
      </trkpt>
      <trkpt lat="60.07559624500572681427001953125" lon="15.92131284065544605255126953125">
        <ele>135.8000030517578125</ele>
        <time>2018-08-18T07:51:50.000Z</time>
        <extensions>
          <ns3:TrackPointExtension>
            <ns3:atemp>14.0</ns3:atemp>
          </ns3:TrackPointExtension>
        </extensions>
      </trkpt>
      <trkpt lat="60.0761894322931766510009765625" lon="15.9212897904217243194580078125">
        <ele>135.8000030517578125</ele>
        <time>2018-08-18T07:51:59.000Z</time>
        <extensions>
          <ns3:TrackPointExtension>
            <ns3:atemp>14.0</ns3:atemp>
          </ns3:TrackPointExtension>
        </extensions>
      </trkpt>
      <trkpt lat="60.07657759822905063629150390625" lon="15.9212770499289035797119140625">
        <ele>135.600006103515625</ele>
        <time>2018-08-18T07:52:05.000Z</time>
        <extensions>
          <ns3:TrackPointExtension>
            <ns3:atemp>14.0</ns3:atemp>
          </ns3:TrackPointExtension>
        </extensions>
      </trkpt>
      <trkpt lat="60.07715745829045772552490234375" lon="15.921282581984996795654296875">
        <ele>135.600006103515625</ele>
        <time>2018-08-18T07:52:14.000Z</time>
        <extensions>
          <ns3:TrackPointExtension>
            <ns3:atemp>14.0</ns3:atemp>
          </ns3:TrackPointExtension>
        </extensions>
      </trkpt>
      <trkpt lat="60.0777161121368408203125" lon="15.921241678297519683837890625">
        <ele>135.399993896484375</ele>
        <time>2018-08-18T07:52:23.000Z</time>
        <extensions>
          <ns3:TrackPointExtension>
            <ns3:atemp>14.0</ns3:atemp>
          </ns3:TrackPointExtension>
        </extensions>
      </trkpt>
      <trkpt lat="60.07826504297554492950439453125" lon="15.92109809629619121551513671875">
        <ele>135</ele>
        <time>2018-08-18T07:52:32.000Z</time>
        <extensions>
          <ns3:TrackPointExtension>
            <ns3:atemp>14.0</ns3:atemp>
          </ns3:TrackPointExtension>
        </extensions>
      </trkpt>
      <trkpt lat="60.07878891192376613616943359375" lon="15.920809172093868255615234375">
        <ele>134.8000030517578125</ele>
        <time>2018-08-18T07:52:41.000Z</time>
        <extensions>
          <ns3:TrackPointExtension>
            <ns3:atemp>14.0</ns3:atemp>
          </ns3:TrackPointExtension>
        </extensions>
      </trkpt>
      <trkpt lat="60.0793121941387653350830078125" lon="15.920424945652484893798828125">
        <ele>134.600006103515625</ele>
        <time>2018-08-18T07:52:50.000Z</time>
        <extensions>
          <ns3:TrackPointExtension>
            <ns3:atemp>14.0</ns3:atemp>
          </ns3:TrackPointExtension>
        </extensions>
      </trkpt>
      <trkpt lat="60.079820640385150909423828125" lon="15.91997073031961917877197265625">
        <ele>134</ele>
        <time>2018-08-18T07:52:59.000Z</time>
        <extensions>
          <ns3:TrackPointExtension>
            <ns3:atemp>14.0</ns3:atemp>
          </ns3:TrackPointExtension>
        </extensions>
      </trkpt>
      <trkpt lat="60.0803461857140064239501953125" lon="15.91942213475704193115234375">
        <ele>133.399993896484375</ele>
        <time>2018-08-18T07:53:09.000Z</time>
        <extensions>
          <ns3:TrackPointExtension>
            <ns3:atemp>14.0</ns3:atemp>
          </ns3:TrackPointExtension>
        </extensions>
      </trkpt>
      <trkpt lat="60.0808377005159854888916015625" lon="15.91894998215138912200927734375">
        <ele>132.8000030517578125</ele>
        <time>2018-08-18T07:53:18.000Z</time>
        <extensions>
          <ns3:TrackPointExtension>
            <ns3:atemp>14.0</ns3:atemp>
          </ns3:TrackPointExtension>
        </extensions>
      </trkpt>
      <trkpt lat="60.0813758186995983123779296875" lon="15.9184191562235355377197265625">
        <ele>132</ele>
        <time>2018-08-18T07:53:28.000Z</time>
        <extensions>
          <ns3:TrackPointExtension>
            <ns3:atemp>14.0</ns3:atemp>
          </ns3:TrackPointExtension>
        </extensions>
      </trkpt>
      <trkpt lat="60.0818596221506595611572265625" lon="15.91794415377080440521240234375">
        <ele>131</ele>
        <time>2018-08-18T07:53:37.000Z</time>
        <extensions>
          <ns3:TrackPointExtension>
            <ns3:atemp>14.0</ns3:atemp>
          </ns3:TrackPointExtension>
        </extensions>
      </trkpt>
      <trkpt lat="60.08239262737333774566650390625" lon="15.91744241304695606231689453125">
        <ele>130</ele>
        <time>2018-08-18T07:53:47.000Z</time>
        <extensions>
          <ns3:TrackPointExtension>
            <ns3:atemp>14.0</ns3:atemp>
          </ns3:TrackPointExtension>
        </extensions>
      </trkpt>
      <trkpt lat="60.0829150713980197906494140625" lon="15.916969589889049530029296875">
        <ele>129</ele>
        <time>2018-08-18T07:53:57.000Z</time>
        <extensions>
          <ns3:TrackPointExtension>
            <ns3:atemp>14.0</ns3:atemp>
          </ns3:TrackPointExtension>
        </extensions>
      </trkpt>
      <trkpt lat="60.08296997286379337310791015625" lon="15.91691829264163970947265625">
        <ele>128.8000030517578125</ele>
        <time>2018-08-18T07:53:58.000Z</time>
        <extensions>
          <ns3:TrackPointExtension>
            <ns3:atemp>14.0</ns3:atemp>
          </ns3:TrackPointExtension>
        </extensions>
      </trkpt>
      <trkpt lat="60.0834642536938190460205078125" lon="15.91646826826035976409912109375">
        <ele>127.8000030517578125</ele>
        <time>2018-08-18T07:54:07.000Z</time>
        <extensions>
          <ns3:TrackPointExtension>
            <ns3:atemp>14.0</ns3:atemp>
          </ns3:TrackPointExtension>
        </extensions>
      </trkpt>
      <trkpt lat="60.08395132608711719512939453125" lon="15.915997959673404693603515625">
        <ele>126.8000030517578125</ele>
        <time>2018-08-18T07:54:16.000Z</time>
        <extensions>
          <ns3:TrackPointExtension>
            <ns3:atemp>14.0</ns3:atemp>
          </ns3:TrackPointExtension>
        </extensions>
      </trkpt>
      <trkpt lat="60.08431996218860149383544921875" lon="15.91562722809612751007080078125">
        <ele>126.1999969482421875</ele>
        <time>2018-08-18T07:54:23.000Z</time>
        <extensions>
          <ns3:TrackPointExtension>
            <ns3:atemp>14.0</ns3:atemp>
          </ns3:TrackPointExtension>
        </extensions>
      </trkpt>
      <trkpt lat="60.08479370735585689544677734375" lon="15.9149567596614360809326171875">
        <ele>125.1999969482421875</ele>
        <time>2018-08-18T07:54:33.000Z</time>
        <extensions>
          <ns3:TrackPointExtension>
            <ns3:atemp>14.0</ns3:atemp>
          </ns3:TrackPointExtension>
        </extensions>
      </trkpt>
      <trkpt lat="60.085012055933475494384765625" lon="15.91455384157598018646240234375">
        <ele>124.40000152587890625</ele>
        <time>2018-08-18T07:54:38.000Z</time>
        <extensions>
          <ns3:TrackPointExtension>
            <ns3:atemp>14.0</ns3:atemp>
          </ns3:TrackPointExtension>
        </extensions>
      </trkpt>
      <trkpt lat="60.08537474088370800018310546875" lon="15.91373124159872531890869140625">
        <ele>123.8000030517578125</ele>
        <time>2018-08-18T07:54:47.000Z</time>
        <extensions>
          <ns3:TrackPointExtension>
            <ns3:atemp>14.0</ns3:atemp>
          </ns3:TrackPointExtension>
        </extensions>
      </trkpt>
      <trkpt lat="60.085659138858318328857421875" lon="15.9127704240381717681884765625">
        <ele>123.40000152587890625</ele>
        <time>2018-08-18T07:54:56.000Z</time>
        <extensions>
          <ns3:TrackPointExtension>
            <ns3:atemp>14.0</ns3:atemp>
          </ns3:TrackPointExtension>
        </extensions>
      </trkpt>
      <trkpt lat="60.08587430231273174285888671875" lon="15.911746323108673095703125">
        <ele>122.8000030517578125</ele>
        <time>2018-08-18T07:55:05.000Z</time>
        <extensions>
          <ns3:TrackPointExtension>
            <ns3:atemp>14.0</ns3:atemp>
          </ns3:TrackPointExtension>
        </extensions>
      </trkpt>
      <trkpt lat="60.08599064312875270843505859375" lon="15.91066044755280017852783203125">
        <ele>121.8000030517578125</ele>
        <time>2018-08-18T07:55:14.000Z</time>
        <extensions>
          <ns3:TrackPointExtension>
            <ns3:atemp>14.0</ns3:atemp>
          </ns3:TrackPointExtension>
        </extensions>
      </trkpt>
      <trkpt lat="60.0860100053250789642333984375" lon="15.9101623110473155975341796875">
        <ele>121.40000152587890625</ele>
        <time>2018-08-18T07:55:18.000Z</time>
        <extensions>
          <ns3:TrackPointExtension>
            <ns3:atemp>14.0</ns3:atemp>
          </ns3:TrackPointExtension>
        </extensions>
      </trkpt>
      <trkpt lat="60.086017549037933349609375" lon="15.9097911603748798370361328125">
        <ele>121.1999969482421875</ele>
        <time>2018-08-18T07:55:21.000Z</time>
        <extensions>
          <ns3:TrackPointExtension>
            <ns3:atemp>14.0</ns3:atemp>
          </ns3:TrackPointExtension>
        </extensions>
      </trkpt>
      <trkpt lat="60.0859660841524600982666015625" lon="15.9086783789098262786865234375">
        <ele>120</ele>
        <time>2018-08-18T07:55:30.000Z</time>
        <extensions>
          <ns3:TrackPointExtension>
            <ns3:atemp>13.0</ns3:atemp>
          </ns3:TrackPointExtension>
        </extensions>
      </trkpt>
      <trkpt lat="60.08583339862525463104248046875" lon="15.90751044452190399169921875">
        <ele>118.59999847412109375</ele>
        <time>2018-08-18T07:55:40.000Z</time>
        <extensions>
          <ns3:TrackPointExtension>
            <ns3:atemp>13.0</ns3:atemp>
          </ns3:TrackPointExtension>
        </extensions>
      </trkpt>
      <trkpt lat="60.08573063649237155914306640625" lon="15.90665641240775585174560546875">
        <ele>117.8000030517578125</ele>
        <time>2018-08-18T07:55:47.000Z</time>
        <extensions>
          <ns3:TrackPointExtension>
            <ns3:atemp>13.0</ns3:atemp>
          </ns3:TrackPointExtension>
        </extensions>
      </trkpt>
      <trkpt lat="60.0855945982038974761962890625" lon="15.90550423599779605865478515625">
        <ele>117</ele>
        <time>2018-08-18T07:55:57.000Z</time>
        <extensions>
          <ns3:TrackPointExtension>
            <ns3:atemp>13.0</ns3:atemp>
          </ns3:TrackPointExtension>
        </extensions>
      </trkpt>
      <trkpt lat="60.0854534469544887542724609375" lon="15.90438189916312694549560546875">
        <ele>116.1999969482421875</ele>
        <time>2018-08-18T07:56:07.000Z</time>
        <extensions>
          <ns3:TrackPointExtension>
            <ns3:atemp>13.0</ns3:atemp>
          </ns3:TrackPointExtension>
        </extensions>
      </trkpt>
      <trkpt lat="60.0854018144309520721435546875" lon="15.90400672517716884613037109375">
        <ele>116</ele>
        <time>2018-08-18T07:56:11.000Z</time>
        <extensions>
          <ns3:TrackPointExtension>
            <ns3:atemp>13.0</ns3:atemp>
          </ns3:TrackPointExtension>
        </extensions>
      </trkpt>
      <trkpt lat="60.085321851074695587158203125" lon="15.9033940918743610382080078125">
        <ele>115.59999847412109375</ele>
        <time>2018-08-18T07:56:17.000Z</time>
        <extensions>
          <ns3:TrackPointExtension>
            <ns3:atemp>13.0</ns3:atemp>
          </ns3:TrackPointExtension>
        </extensions>
      </trkpt>
      <trkpt lat="60.0851015746593475341796875" lon="15.90232799760997295379638671875">
        <ele>114.8000030517578125</ele>
        <time>2018-08-18T07:56:27.000Z</time>
        <extensions>
          <ns3:TrackPointExtension>
            <ns3:atemp>13.0</ns3:atemp>
          </ns3:TrackPointExtension>
        </extensions>
      </trkpt>
      <trkpt lat="60.08504767902195453643798828125" lon="15.9021217189729213714599609375">
        <ele>114.59999847412109375</ele>
        <time>2018-08-18T07:56:29.000Z</time>
        <extensions>
          <ns3:TrackPointExtension>
            <ns3:atemp>13.0</ns3:atemp>
          </ns3:TrackPointExtension>
        </extensions>
      </trkpt>
      <trkpt lat="60.084778033196926116943359375" lon="15.90125159360468387603759765625">
        <ele>113.59999847412109375</ele>
        <time>2018-08-18T07:56:38.000Z</time>
        <extensions>
          <ns3:TrackPointExtension>
            <ns3:atemp>13.0</ns3:atemp>
          </ns3:TrackPointExtension>
        </extensions>
      </trkpt>
      <trkpt lat="60.0844295136630535125732421875" lon="15.90043209493160247802734375">
        <ele>112.59999847412109375</ele>
        <time>2018-08-18T07:56:49.000Z</time>
        <extensions>
          <ns3:TrackPointExtension>
            <ns3:atemp>13.0</ns3:atemp>
          </ns3:TrackPointExtension>
        </extensions>
      </trkpt>
      <trkpt lat="60.08431359194219112396240234375" lon="15.90019606053829193115234375">
        <ele>112.1999969482421875</ele>
        <time>2018-08-18T07:56:54.000Z</time>
        <extensions>
          <ns3:TrackPointExtension>
            <ns3:atemp>13.0</ns3:atemp>
          </ns3:TrackPointExtension>
        </extensions>
      </trkpt>
      <trkpt lat="60.08387186564505100250244140625" lon="15.899451076984405517578125">
        <ele>111</ele>
        <time>2018-08-18T07:57:17.000Z</time>
        <extensions>
          <ns3:TrackPointExtension>
            <ns3:atemp>13.0</ns3:atemp>
          </ns3:TrackPointExtension>
        </extensions>
      </trkpt>
      <trkpt lat="60.08371864445507526397705078125" lon="15.89924546889960765838623046875">
        <ele>110.59999847412109375</ele>
        <time>2018-08-18T07:57:21.000Z</time>
        <extensions>
          <ns3:TrackPointExtension>
            <ns3:atemp>13.0</ns3:atemp>
          </ns3:TrackPointExtension>
        </extensions>
      </trkpt>
      <trkpt lat="60.08339828811585903167724609375" lon="15.89887012727558612823486328125">
        <ele>110.59999847412109375</ele>
        <time>2018-08-18T07:57:29.000Z</time>
        <extensions>
          <ns3:TrackPointExtension>
            <ns3:atemp>13.0</ns3:atemp>
          </ns3:TrackPointExtension>
        </extensions>
      </trkpt>
      <trkpt lat="60.08295622654259204864501953125" lon="15.89844524860382080078125">
        <ele>110.8000030517578125</ele>
        <time>2018-08-18T07:57:39.000Z</time>
        <extensions>
          <ns3:TrackPointExtension>
            <ns3:atemp>13.0</ns3:atemp>
          </ns3:TrackPointExtension>
        </extensions>
      </trkpt>
      <trkpt lat="60.082425735890865325927734375" lon="15.898121036589145660400390625">
        <ele>110.40000152587890625</ele>
        <time>2018-08-18T07:57:50.000Z</time>
        <extensions>
          <ns3:TrackPointExtension>
            <ns3:atemp>13.0</ns3:atemp>
          </ns3:TrackPointExtension>
        </extensions>
      </trkpt>
      <trkpt lat="60.082223229110240936279296875" lon="15.898007713258266448974609375">
        <ele>110.1999969482421875</ele>
        <time>2018-08-18T07:57:54.000Z</time>
        <extensions>
          <ns3:TrackPointExtension>
            <ns3:atemp>13.0</ns3:atemp>
          </ns3:TrackPointExtension>
        </extensions>
      </trkpt>
      <trkpt lat="60.0816924870014190673828125" lon="15.8977607823908329010009765625">
        <ele>109.8000030517578125</ele>
        <time>2018-08-18T07:58:04.000Z</time>
        <extensions>
          <ns3:TrackPointExtension>
            <ns3:atemp>13.0</ns3:atemp>
          </ns3:TrackPointExtension>
        </extensions>
      </trkpt>
      <trkpt lat="60.08115646429359912872314453125" lon="15.8975066430866718292236328125">
        <ele>109.1999969482421875</ele>
        <time>2018-08-18T07:58:14.000Z</time>
        <extensions>
          <ns3:TrackPointExtension>
            <ns3:atemp>13.0</ns3:atemp>
          </ns3:TrackPointExtension>
        </extensions>
      </trkpt>
      <trkpt lat="60.08059881627559661865234375" lon="15.89724202640354633331298828125">
        <ele>108.59999847412109375</ele>
        <time>2018-08-18T07:58:24.000Z</time>
        <extensions>
          <ns3:TrackPointExtension>
            <ns3:atemp>13.0</ns3:atemp>
          </ns3:TrackPointExtension>
        </extensions>
      </trkpt>
      <trkpt lat="60.08044400252401828765869140625" lon="15.897164829075336456298828125">
        <ele>108.59999847412109375</ele>
        <time>2018-08-18T07:58:27.000Z</time>
        <extensions>
          <ns3:TrackPointExtension>
            <ns3:atemp>13.0</ns3:atemp>
          </ns3:TrackPointExtension>
        </extensions>
      </trkpt>
      <trkpt lat="60.07990144193172454833984375" lon="15.89690876193344593048095703125">
        <ele>108</ele>
        <time>2018-08-18T07:58:37.000Z</time>
        <extensions>
          <ns3:TrackPointExtension>
            <ns3:atemp>13.0</ns3:atemp>
          </ns3:TrackPointExtension>
        </extensions>
      </trkpt>
      <trkpt lat="60.079510509967803955078125" lon="15.8967499248683452606201171875">
        <ele>107.59999847412109375</ele>
        <time>2018-08-18T07:58:44.000Z</time>
        <extensions>
          <ns3:TrackPointExtension>
            <ns3:atemp>13.0</ns3:atemp>
          </ns3:TrackPointExtension>
        </extensions>
      </trkpt>
      <trkpt lat="60.07896811701357364654541015625" lon="15.89650399982929229736328125">
        <ele>107</ele>
        <time>2018-08-18T07:58:54.000Z</time>
        <extensions>
          <ns3:TrackPointExtension>
            <ns3:atemp>13.0</ns3:atemp>
          </ns3:TrackPointExtension>
        </extensions>
      </trkpt>
      <trkpt lat="60.078698135912418365478515625" lon="15.896381624042987823486328125">
        <ele>106.8000030517578125</ele>
        <time>2018-08-18T07:58:59.000Z</time>
        <extensions>
          <ns3:TrackPointExtension>
            <ns3:atemp>13.0</ns3:atemp>
          </ns3:TrackPointExtension>
        </extensions>
      </trkpt>
      <trkpt lat="60.0781571678817272186279296875" lon="15.89611181057989597320556640625">
        <ele>106.8000030517578125</ele>
        <time>2018-08-18T07:59:09.000Z</time>
        <extensions>
          <ns3:TrackPointExtension>
            <ns3:atemp>13.0</ns3:atemp>
          </ns3:TrackPointExtension>
        </extensions>
      </trkpt>
      <trkpt lat="60.07759742438793182373046875" lon="15.89586337096989154815673828125">
        <ele>108.1999969482421875</ele>
        <time>2018-08-18T07:59:19.000Z</time>
        <extensions>
          <ns3:TrackPointExtension>
            <ns3:atemp>13.0</ns3:atemp>
          </ns3:TrackPointExtension>
        </extensions>
      </trkpt>
      <trkpt lat="60.0770584680140018463134765625" lon="15.8956275880336761474609375">
        <ele>109.40000152587890625</ele>
        <time>2018-08-18T07:59:29.000Z</time>
        <extensions>
          <ns3:TrackPointExtension>
            <ns3:atemp>13.0</ns3:atemp>
          </ns3:TrackPointExtension>
        </extensions>
      </trkpt>
      <trkpt lat="60.0768801011145114898681640625" lon="15.8955268375575542449951171875">
        <ele>109.8000030517578125</ele>
        <time>2018-08-18T07:59:33.000Z</time>
        <extensions>
          <ns3:TrackPointExtension>
            <ns3:atemp>13.0</ns3:atemp>
          </ns3:TrackPointExtension>
        </extensions>
      </trkpt>
      <trkpt lat="60.07684045471251010894775390625" lon="15.89537210762500762939453125">
        <ele>110.40000152587890625</ele>
        <time>2018-08-18T07:59:36.000Z</time>
        <extensions>
          <ns3:TrackPointExtension>
            <ns3:atemp>13.0</ns3:atemp>
          </ns3:TrackPointExtension>
        </extensions>
      </trkpt>
      <trkpt lat="60.0768512673676013946533203125" lon="15.89528367854654788970947265625">
        <ele>110.59999847412109375</ele>
        <time>2018-08-18T07:59:38.000Z</time>
        <extensions>
          <ns3:TrackPointExtension>
            <ns3:atemp>13.0</ns3:atemp>
          </ns3:TrackPointExtension>
        </extensions>
      </trkpt>
      <trkpt lat="60.07685369811952114105224609375" lon="15.89501000940799713134765625">
        <ele>111.1999969482421875</ele>
        <time>2018-08-18T07:59:48.000Z</time>
        <extensions>
          <ns3:TrackPointExtension>
            <ns3:atemp>13.0</ns3:atemp>
          </ns3:TrackPointExtension>
        </extensions>
      </trkpt>
      <trkpt lat="60.07687146775424480438232421875" lon="15.89484371244907379150390625">
        <ele>111.59999847412109375</ele>
        <time>2018-08-18T07:59:55.000Z</time>
        <extensions>
          <ns3:TrackPointExtension>
            <ns3:atemp>13.0</ns3:atemp>
          </ns3:TrackPointExtension>
        </extensions>
      </trkpt>
      <trkpt lat="60.0768619962036609649658203125" lon="15.89469082653522491455078125">
        <ele>112</ele>
        <time>2018-08-18T08:00:02.000Z</time>
        <extensions>
          <ns3:TrackPointExtension>
            <ns3:atemp>13.0</ns3:atemp>
          </ns3:TrackPointExtension>
        </extensions>
      </trkpt>
      <trkpt lat="60.0767265446484088897705078125" lon="15.894068889319896697998046875">
        <ele>113.8000030517578125</ele>
        <time>2018-08-18T08:00:21.000Z</time>
        <extensions>
          <ns3:TrackPointExtension>
            <ns3:atemp>13.0</ns3:atemp>
          </ns3:TrackPointExtension>
        </extensions>
      </trkpt>
      <trkpt lat="60.07665337063372135162353515625" lon="15.8938709087669849395751953125">
        <ele>114.40000152587890625</ele>
        <time>2018-08-18T08:00:27.000Z</time>
        <extensions>
          <ns3:TrackPointExtension>
            <ns3:atemp>13.0</ns3:atemp>
          </ns3:TrackPointExtension>
        </extensions>
      </trkpt>
      <trkpt lat="60.0766016542911529541015625" lon="15.89375532232224941253662109375">
        <ele>114.59999847412109375</ele>
        <time>2018-08-18T08:00:31.000Z</time>
        <extensions>
          <ns3:TrackPointExtension>
            <ns3:atemp>13.0</ns3:atemp>
          </ns3:TrackPointExtension>
        </extensions>
      </trkpt>
      <trkpt lat="60.076553709805011749267578125" lon="15.893641412258148193359375">
        <ele>115</ele>
        <time>2018-08-18T08:00:35.000Z</time>
        <extensions>
          <ns3:TrackPointExtension>
            <ns3:atemp>13.0</ns3:atemp>
          </ns3:TrackPointExtension>
        </extensions>
      </trkpt>
      <trkpt lat="60.0764925219118595123291015625" lon="15.893508978188037872314453125">
        <ele>115.40000152587890625</ele>
        <time>2018-08-18T08:00:40.000Z</time>
        <extensions>
          <ns3:TrackPointExtension>
            <ns3:atemp>13.0</ns3:atemp>
          </ns3:TrackPointExtension>
        </extensions>
      </trkpt>
      <trkpt lat="60.07637928240001201629638671875" lon="15.893294401466846466064453125">
        <ele>116.1999969482421875</ele>
        <time>2018-08-18T08:00:47.000Z</time>
        <extensions>
          <ns3:TrackPointExtension>
            <ns3:atemp>13.0</ns3:atemp>
          </ns3:TrackPointExtension>
        </extensions>
      </trkpt>
      <trkpt lat="60.07630216889083385467529296875" lon="15.8931158669292926788330078125">
        <ele>116.59999847412109375</ele>
        <time>2018-08-18T08:00:52.000Z</time>
        <extensions>
          <ns3:TrackPointExtension>
            <ns3:atemp>13.0</ns3:atemp>
          </ns3:TrackPointExtension>
        </extensions>
      </trkpt>
      <trkpt lat="60.07620996795594692230224609375" lon="15.89279274456202983856201171875">
        <ele>117.59999847412109375</ele>
        <time>2018-08-18T08:01:01.000Z</time>
        <extensions>
          <ns3:TrackPointExtension>
            <ns3:atemp>13.0</ns3:atemp>
          </ns3:TrackPointExtension>
        </extensions>
      </trkpt>
      <trkpt lat="60.0761832296848297119140625" lon="15.892584621906280517578125">
        <ele>118.1999969482421875</ele>
        <time>2018-08-18T08:01:06.000Z</time>
        <extensions>
          <ns3:TrackPointExtension>
            <ns3:atemp>13.0</ns3:atemp>
          </ns3:TrackPointExtension>
        </extensions>
      </trkpt>
      <trkpt lat="60.0761411525309085845947265625" lon="15.8923470787703990936279296875">
        <ele>118.8000030517578125</ele>
        <time>2018-08-18T08:01:12.000Z</time>
        <extensions>
          <ns3:TrackPointExtension>
            <ns3:atemp>14.0</ns3:atemp>
          </ns3:TrackPointExtension>
        </extensions>
      </trkpt>
      <trkpt lat="60.07607015781104564666748046875" lon="15.89222311042249202728271484375">
        <ele>119.1999969482421875</ele>
        <time>2018-08-18T08:01:17.000Z</time>
        <extensions>
          <ns3:TrackPointExtension>
            <ns3:atemp>14.0</ns3:atemp>
          </ns3:TrackPointExtension>
        </extensions>
      </trkpt>
      <trkpt lat="60.075991116464138031005859375" lon="15.8921573124825954437255859375">
        <ele>119.40000152587890625</ele>
        <time>2018-08-18T08:01:21.000Z</time>
        <extensions>
          <ns3:TrackPointExtension>
            <ns3:atemp>14.0</ns3:atemp>
          </ns3:TrackPointExtension>
        </extensions>
      </trkpt>
      <trkpt lat="60.075916014611721038818359375" lon="15.8920721523463726043701171875">
        <ele>119.8000030517578125</ele>
        <time>2018-08-18T08:01:25.000Z</time>
        <extensions>
          <ns3:TrackPointExtension>
            <ns3:atemp>14.0</ns3:atemp>
          </ns3:TrackPointExtension>
        </extensions>
      </trkpt>
      <trkpt lat="60.0758206285536289215087890625" lon="15.89196293614804744720458984375">
        <ele>120.1999969482421875</ele>
        <time>2018-08-18T08:01:30.000Z</time>
        <extensions>
          <ns3:TrackPointExtension>
            <ns3:atemp>14.0</ns3:atemp>
          </ns3:TrackPointExtension>
        </extensions>
      </trkpt>
      <trkpt lat="60.0757562555372714996337890625" lon="15.8918800391256809234619140625">
        <ele>120.40000152587890625</ele>
        <time>2018-08-18T08:01:34.000Z</time>
        <extensions>
          <ns3:TrackPointExtension>
            <ns3:atemp>14.0</ns3:atemp>
          </ns3:TrackPointExtension>
        </extensions>
      </trkpt>
      <trkpt lat="60.07565206848084926605224609375" lon="15.89174919761717319488525390625">
        <ele>120.8000030517578125</ele>
        <time>2018-08-18T08:01:40.000Z</time>
        <extensions>
          <ns3:TrackPointExtension>
            <ns3:atemp>14.0</ns3:atemp>
          </ns3:TrackPointExtension>
        </extensions>
      </trkpt>
      <trkpt lat="60.075599513947963714599609375" lon="15.89167141355574131011962890625">
        <ele>121.1999969482421875</ele>
        <time>2018-08-18T08:01:43.000Z</time>
        <extensions>
          <ns3:TrackPointExtension>
            <ns3:atemp>14.0</ns3:atemp>
          </ns3:TrackPointExtension>
        </extensions>
      </trkpt>
      <trkpt lat="60.07551074959337711334228515625" lon="15.89154652319848537445068359375">
        <ele>121.59999847412109375</ele>
        <time>2018-08-18T08:01:47.000Z</time>
        <extensions>
          <ns3:TrackPointExtension>
            <ns3:atemp>14.0</ns3:atemp>
          </ns3:TrackPointExtension>
        </extensions>
      </trkpt>
      <trkpt lat="60.0754032097756862640380859375" lon="15.89135306887328624725341796875">
        <ele>122.1999969482421875</ele>
        <time>2018-08-18T08:01:52.000Z</time>
        <extensions>
          <ns3:TrackPointExtension>
            <ns3:atemp>14.0</ns3:atemp>
          </ns3:TrackPointExtension>
        </extensions>
      </trkpt>
      <trkpt lat="60.075232721865177154541015625" lon="15.890834815800189971923828125">
        <ele>123.59999847412109375</ele>
        <time>2018-08-18T08:02:01.000Z</time>
        <extensions>
          <ns3:TrackPointExtension>
            <ns3:atemp>14.0</ns3:atemp>
          </ns3:TrackPointExtension>
        </extensions>
      </trkpt>
      <trkpt lat="60.075122751295566558837890625" lon="15.89027448557317256927490234375">
        <ele>125.59999847412109375</ele>
        <time>2018-08-18T08:02:12.000Z</time>
        <extensions>
          <ns3:TrackPointExtension>
            <ns3:atemp>14.0</ns3:atemp>
          </ns3:TrackPointExtension>
        </extensions>
      </trkpt>
      <trkpt lat="60.07509626448154449462890625" lon="15.89009125716984272003173828125">
        <ele>126.40000152587890625</ele>
        <time>2018-08-18T08:02:16.000Z</time>
        <extensions>
          <ns3:TrackPointExtension>
            <ns3:atemp>14.0</ns3:atemp>
          </ns3:TrackPointExtension>
        </extensions>
      </trkpt>
      <trkpt lat="60.0750880502164363861083984375" lon="15.88984633795917034149169921875">
        <ele>127.1999969482421875</ele>
        <time>2018-08-18T08:02:21.000Z</time>
        <extensions>
          <ns3:TrackPointExtension>
            <ns3:atemp>14.0</ns3:atemp>
          </ns3:TrackPointExtension>
        </extensions>
      </trkpt>
      <trkpt lat="60.07511830888688564300537109375" lon="15.88963947258889675140380859375">
        <ele>127.8000030517578125</ele>
        <time>2018-08-18T08:02:25.000Z</time>
        <extensions>
          <ns3:TrackPointExtension>
            <ns3:atemp>14.0</ns3:atemp>
          </ns3:TrackPointExtension>
        </extensions>
      </trkpt>
      <trkpt lat="60.0751544348895549774169921875" lon="15.8894687332212924957275390625">
        <ele>128.399993896484375</ele>
        <time>2018-08-18T08:02:29.000Z</time>
        <extensions>
          <ns3:TrackPointExtension>
            <ns3:atemp>14.0</ns3:atemp>
          </ns3:TrackPointExtension>
        </extensions>
      </trkpt>
      <trkpt lat="60.0752149522304534912109375" lon="15.8892746083438396453857421875">
        <ele>129</ele>
        <time>2018-08-18T08:02:34.000Z</time>
        <extensions>
          <ns3:TrackPointExtension>
            <ns3:atemp>14.0</ns3:atemp>
          </ns3:TrackPointExtension>
        </extensions>
      </trkpt>
      <trkpt lat="60.0752898864448070526123046875" lon="15.88908626697957515716552734375">
        <ele>129.399993896484375</ele>
        <time>2018-08-18T08:02:39.000Z</time>
        <extensions>
          <ns3:TrackPointExtension>
            <ns3:atemp>14.0</ns3:atemp>
          </ns3:TrackPointExtension>
        </extensions>
      </trkpt>
      <trkpt lat="60.07533925585448741912841796875" lon="15.88889457285404205322265625">
        <ele>130</ele>
        <time>2018-08-18T08:02:43.000Z</time>
        <extensions>
          <ns3:TrackPointExtension>
            <ns3:atemp>14.0</ns3:atemp>
          </ns3:TrackPointExtension>
        </extensions>
      </trkpt>
      <trkpt lat="60.07530539296567440032958984375" lon="15.88858938775956630706787109375">
        <ele>131.1999969482421875</ele>
        <time>2018-08-18T08:02:49.000Z</time>
        <extensions>
          <ns3:TrackPointExtension>
            <ns3:atemp>14.0</ns3:atemp>
          </ns3:TrackPointExtension>
        </extensions>
      </trkpt>
      <trkpt lat="60.0751846097409725189208984375" lon="15.88828168809413909912109375">
        <ele>132.1999969482421875</ele>
        <time>2018-08-18T08:02:56.000Z</time>
        <extensions>
          <ns3:TrackPointExtension>
            <ns3:atemp>14.0</ns3:atemp>
          </ns3:TrackPointExtension>
        </extensions>
      </trkpt>
      <trkpt lat="60.0750608928501605987548828125" lon="15.88801614940166473388671875">
        <ele>133.399993896484375</ele>
        <time>2018-08-18T08:03:02.000Z</time>
        <extensions>
          <ns3:TrackPointExtension>
            <ns3:atemp>14.0</ns3:atemp>
          </ns3:TrackPointExtension>
        </extensions>
      </trkpt>
      <trkpt lat="60.07490557618439197540283203125" lon="15.88768313638865947723388671875">
        <ele>134.600006103515625</ele>
        <time>2018-08-18T08:03:08.000Z</time>
        <extensions>
          <ns3:TrackPointExtension>
            <ns3:atemp>14.0</ns3:atemp>
          </ns3:TrackPointExtension>
        </extensions>
      </trkpt>
      <trkpt lat="60.07487892173230648040771484375" lon="15.8876136504113674163818359375">
        <ele>134.8000030517578125</ele>
        <time>2018-08-18T08:03:09.000Z</time>
        <extensions>
          <ns3:TrackPointExtension>
            <ns3:atemp>14.0</ns3:atemp>
          </ns3:TrackPointExtension>
        </extensions>
      </trkpt>
      <trkpt lat="60.0747913308441638946533203125" lon="15.8865390904247760772705078125">
        <ele>138.8000030517578125</ele>
        <time>2018-08-18T08:03:26.000Z</time>
        <extensions>
          <ns3:TrackPointExtension>
            <ns3:atemp>14.0</ns3:atemp>
          </ns3:TrackPointExtension>
        </extensions>
      </trkpt>
      <trkpt lat="60.0747857987880706787109375" lon="15.8864951692521572113037109375">
        <ele>139</ele>
        <time>2018-08-18T08:03:27.000Z</time>
        <extensions>
          <ns3:TrackPointExtension>
            <ns3:atemp>14.0</ns3:atemp>
          </ns3:TrackPointExtension>
        </extensions>
      </trkpt>
      <trkpt lat="60.07473684847354888916015625" lon="15.8862479031085968017578125">
        <ele>140</ele>
        <time>2018-08-18T08:03:32.000Z</time>
        <extensions>
          <ns3:TrackPointExtension>
            <ns3:atemp>14.0</ns3:atemp>
          </ns3:TrackPointExtension>
        </extensions>
      </trkpt>
      <trkpt lat="60.0746572203934192657470703125" lon="15.88598965667188167572021484375">
        <ele>141</ele>
        <time>2018-08-18T08:03:37.000Z</time>
        <extensions>
          <ns3:TrackPointExtension>
            <ns3:atemp>14.0</ns3:atemp>
          </ns3:TrackPointExtension>
        </extensions>
      </trkpt>
      <trkpt lat="60.07453073747456073760986328125" lon="15.8856871537864208221435546875">
        <ele>142.1999969482421875</ele>
        <time>2018-08-18T08:03:43.000Z</time>
        <extensions>
          <ns3:TrackPointExtension>
            <ns3:atemp>14.0</ns3:atemp>
          </ns3:TrackPointExtension>
        </extensions>
      </trkpt>
      <trkpt lat="60.07433988153934478759765625" lon="15.88525456376373767852783203125">
        <ele>144</ele>
        <time>2018-08-18T08:03:51.000Z</time>
        <extensions>
          <ns3:TrackPointExtension>
            <ns3:atemp>14.0</ns3:atemp>
          </ns3:TrackPointExtension>
        </extensions>
      </trkpt>
      <trkpt lat="60.07424063980579376220703125" lon="15.884962789714336395263671875">
        <ele>145.1999969482421875</ele>
        <time>2018-08-18T08:03:57.000Z</time>
        <extensions>
          <ns3:TrackPointExtension>
            <ns3:atemp>14.0</ns3:atemp>
          </ns3:TrackPointExtension>
        </extensions>
      </trkpt>
      <trkpt lat="60.0741777755320072174072265625" lon="15.88474678806960582733154296875">
        <ele>146</ele>
        <time>2018-08-18T08:04:03.000Z</time>
        <extensions>
          <ns3:TrackPointExtension>
            <ns3:atemp>14.0</ns3:atemp>
          </ns3:TrackPointExtension>
        </extensions>
      </trkpt>
      <trkpt lat="60.0742656178772449493408203125" lon="15.8845232427120208740234375">
        <ele>146.8000030517578125</ele>
        <time>2018-08-18T08:04:10.000Z</time>
        <extensions>
          <ns3:TrackPointExtension>
            <ns3:atemp>14.0</ns3:atemp>
          </ns3:TrackPointExtension>
        </extensions>
      </trkpt>
      <trkpt lat="60.07434918545186519622802734375" lon="15.8845036290585994720458984375">
        <ele>146.8000030517578125</ele>
        <time>2018-08-18T08:04:13.000Z</time>
        <extensions>
          <ns3:TrackPointExtension>
            <ns3:atemp>14.0</ns3:atemp>
          </ns3:TrackPointExtension>
        </extensions>
      </trkpt>
      <trkpt lat="60.074403248727321624755859375" lon="15.88444235734641551971435546875">
        <ele>147</ele>
        <time>2018-08-18T08:04:16.000Z</time>
        <extensions>
          <ns3:TrackPointExtension>
            <ns3:atemp>14.0</ns3:atemp>
          </ns3:TrackPointExtension>
        </extensions>
      </trkpt>
      <trkpt lat="60.07437718100845813751220703125" lon="15.88423767127096652984619140625">
        <ele>147.8000030517578125</ele>
        <time>2018-08-18T08:04:20.000Z</time>
        <extensions>
          <ns3:TrackPointExtension>
            <ns3:atemp>14.0</ns3:atemp>
          </ns3:TrackPointExtension>
        </extensions>
      </trkpt>
      <trkpt lat="60.07432512938976287841796875" lon="15.88404136709868907928466796875">
        <ele>148.600006103515625</ele>
        <time>2018-08-18T08:04:23.000Z</time>
        <extensions>
          <ns3:TrackPointExtension>
            <ns3:atemp>14.0</ns3:atemp>
          </ns3:TrackPointExtension>
        </extensions>
      </trkpt>
      <trkpt lat="60.07414785213768482208251953125" lon="15.8835185877978801727294921875">
        <ele>150.600006103515625</ele>
        <time>2018-08-18T08:04:30.000Z</time>
        <extensions>
          <ns3:TrackPointExtension>
            <ns3:atemp>14.0</ns3:atemp>
          </ns3:TrackPointExtension>
        </extensions>
      </trkpt>
      <trkpt lat="60.07379363290965557098388671875" lon="15.88271283544600009918212890625">
        <ele>154</ele>
        <time>2018-08-18T08:04:42.000Z</time>
        <extensions>
          <ns3:TrackPointExtension>
            <ns3:atemp>14.0</ns3:atemp>
          </ns3:TrackPointExtension>
        </extensions>
      </trkpt>
      <trkpt lat="60.07343086414039134979248046875" lon="15.88192158378660678863525390625">
        <ele>156.1999969482421875</ele>
        <time>2018-08-18T08:04:54.000Z</time>
        <extensions>
          <ns3:TrackPointExtension>
            <ns3:atemp>14.0</ns3:atemp>
          </ns3:TrackPointExtension>
        </extensions>
      </trkpt>
      <trkpt lat="60.07335542701184749603271484375" lon="15.88180943392217159271240234375">
        <ele>156.600006103515625</ele>
        <time>2018-08-18T08:04:56.000Z</time>
        <extensions>
          <ns3:TrackPointExtension>
            <ns3:atemp>14.0</ns3:atemp>
          </ns3:TrackPointExtension>
        </extensions>
      </trkpt>
      <trkpt lat="60.0730629824101924896240234375" lon="15.88151724077761173248291015625">
        <ele>157.399993896484375</ele>
        <time>2018-08-18T08:05:03.000Z</time>
        <extensions>
          <ns3:TrackPointExtension>
            <ns3:atemp>14.0</ns3:atemp>
          </ns3:TrackPointExtension>
        </extensions>
      </trkpt>
      <trkpt lat="60.07281864993274211883544921875" lon="15.8812843076884746551513671875">
        <ele>158</ele>
        <time>2018-08-18T08:05:09.000Z</time>
        <extensions>
          <ns3:TrackPointExtension>
            <ns3:atemp>14.0</ns3:atemp>
          </ns3:TrackPointExtension>
        </extensions>
      </trkpt>
      <trkpt lat="60.0726113654673099517822265625" lon="15.88105623610317707061767578125">
        <ele>158.8000030517578125</ele>
        <time>2018-08-18T08:05:14.000Z</time>
        <extensions>
          <ns3:TrackPointExtension>
            <ns3:atemp>14.0</ns3:atemp>
          </ns3:TrackPointExtension>
        </extensions>
      </trkpt>
      <trkpt lat="60.07236443459987640380859375" lon="15.88052809238433837890625">
        <ele>160</ele>
        <time>2018-08-18T08:05:22.000Z</time>
        <extensions>
          <ns3:TrackPointExtension>
            <ns3:atemp>14.0</ns3:atemp>
          </ns3:TrackPointExtension>
        </extensions>
      </trkpt>
      <trkpt lat="60.07228388451039791107177734375" lon="15.88030236773192882537841796875">
        <ele>160.600006103515625</ele>
        <time>2018-08-18T08:05:25.000Z</time>
        <extensions>
          <ns3:TrackPointExtension>
            <ns3:atemp>14.0</ns3:atemp>
          </ns3:TrackPointExtension>
        </extensions>
      </trkpt>
      <trkpt lat="60.07223040796816349029541015625" lon="15.88015266694128513336181640625">
        <ele>160.8000030517578125</ele>
        <time>2018-08-18T08:05:27.000Z</time>
        <extensions>
          <ns3:TrackPointExtension>
            <ns3:atemp>14.0</ns3:atemp>
          </ns3:TrackPointExtension>
        </extensions>
      </trkpt>
      <trkpt lat="60.07204516790807247161865234375" lon="15.8796904049813747406005859375">
        <ele>162</ele>
        <time>2018-08-18T08:05:33.000Z</time>
        <extensions>
          <ns3:TrackPointExtension>
            <ns3:atemp>14.0</ns3:atemp>
          </ns3:TrackPointExtension>
        </extensions>
      </trkpt>
      <trkpt lat="60.07195514626801013946533203125" lon="15.87946786545217037200927734375">
        <ele>162.600006103515625</ele>
        <time>2018-08-18T08:05:36.000Z</time>
        <extensions>
          <ns3:TrackPointExtension>
            <ns3:atemp>14.0</ns3:atemp>
          </ns3:TrackPointExtension>
        </extensions>
      </trkpt>
      <trkpt lat="60.07166764698922634124755859375" lon="15.87855088524520397186279296875">
        <ele>164.600006103515625</ele>
        <time>2018-08-18T08:05:46.000Z</time>
        <extensions>
          <ns3:TrackPointExtension>
            <ns3:atemp>14.0</ns3:atemp>
          </ns3:TrackPointExtension>
        </extensions>
      </trkpt>
      <trkpt lat="60.0715720094740390777587890625" lon="15.87824963964521884918212890625">
        <ele>165.399993896484375</ele>
        <time>2018-08-18T08:05:49.000Z</time>
        <extensions>
          <ns3:TrackPointExtension>
            <ns3:atemp>14.0</ns3:atemp>
          </ns3:TrackPointExtension>
        </extensions>
      </trkpt>
      <trkpt lat="60.07123530842363834381103515625" lon="15.87727968581020832061767578125">
        <ele>167.600006103515625</ele>
        <time>2018-08-18T08:05:59.000Z</time>
        <extensions>
          <ns3:TrackPointExtension>
            <ns3:atemp>14.0</ns3:atemp>
          </ns3:TrackPointExtension>
        </extensions>
      </trkpt>
      <trkpt lat="60.07100631482899188995361328125" lon="15.87682840414345264434814453125">
        <ele>168.600006103515625</ele>
        <time>2018-08-18T08:06:04.000Z</time>
        <extensions>
          <ns3:TrackPointExtension>
            <ns3:atemp>14.0</ns3:atemp>
          </ns3:TrackPointExtension>
        </extensions>
      </trkpt>
      <trkpt lat="60.07048462517559528350830078125" lon="15.8763349615037441253662109375">
        <ele>170.1999969482421875</ele>
        <time>2018-08-18T08:06:13.000Z</time>
        <extensions>
          <ns3:TrackPointExtension>
            <ns3:atemp>14.0</ns3:atemp>
          </ns3:TrackPointExtension>
        </extensions>
      </trkpt>
      <trkpt lat="60.06995203904807567596435546875" lon="15.8758615516126155853271484375">
        <ele>171.399993896484375</ele>
        <time>2018-08-18T08:06:22.000Z</time>
        <extensions>
          <ns3:TrackPointExtension>
            <ns3:atemp>14.0</ns3:atemp>
          </ns3:TrackPointExtension>
        </extensions>
      </trkpt>
      <trkpt lat="60.0695125758647918701171875" lon="15.87508513592183589935302734375">
        <ele>172.8000030517578125</ele>
        <time>2018-08-18T08:06:31.000Z</time>
        <extensions>
          <ns3:TrackPointExtension>
            <ns3:atemp>14.0</ns3:atemp>
          </ns3:TrackPointExtension>
        </extensions>
      </trkpt>
      <trkpt lat="60.0692304410040378570556640625" lon="15.8741157688200473785400390625">
        <ele>174.600006103515625</ele>
        <time>2018-08-18T08:06:40.000Z</time>
        <extensions>
          <ns3:TrackPointExtension>
            <ns3:atemp>14.0</ns3:atemp>
          </ns3:TrackPointExtension>
        </extensions>
      </trkpt>
      <trkpt lat="60.069197751581668853759765625" lon="15.8729496784508228302001953125">
        <ele>176.1999969482421875</ele>
        <time>2018-08-18T08:06:50.000Z</time>
        <extensions>
          <ns3:TrackPointExtension>
            <ns3:atemp>14.0</ns3:atemp>
          </ns3:TrackPointExtension>
        </extensions>
      </trkpt>
      <trkpt lat="60.069280229508876800537109375" lon="15.87184318341314792633056640625">
        <ele>177.8000030517578125</ele>
        <time>2018-08-18T08:06:59.000Z</time>
        <extensions>
          <ns3:TrackPointExtension>
            <ns3:atemp>14.0</ns3:atemp>
          </ns3:TrackPointExtension>
        </extensions>
      </trkpt>
      <trkpt lat="60.0693246535956859588623046875" lon="15.87110356427729129791259765625">
        <ele>178.8000030517578125</ele>
        <time>2018-08-18T08:07:05.000Z</time>
        <extensions>
          <ns3:TrackPointExtension>
            <ns3:atemp>14.0</ns3:atemp>
          </ns3:TrackPointExtension>
        </extensions>
      </trkpt>
      <trkpt lat="60.06934233941137790679931640625" lon="15.87002330459654331207275390625">
        <ele>180.399993896484375</ele>
        <time>2018-08-18T08:07:14.000Z</time>
        <extensions>
          <ns3:TrackPointExtension>
            <ns3:atemp>14.0</ns3:atemp>
          </ns3:TrackPointExtension>
        </extensions>
      </trkpt>
      <trkpt lat="60.0693360529839992523193359375" lon="15.86948015727102756500244140625">
        <ele>181.1999969482421875</ele>
        <time>2018-08-18T08:07:19.000Z</time>
        <extensions>
          <ns3:TrackPointExtension>
            <ns3:atemp>14.0</ns3:atemp>
          </ns3:TrackPointExtension>
        </extensions>
      </trkpt>
      <trkpt lat="60.06931853480637073516845703125" lon="15.8692800812423229217529296875">
        <ele>181.399993896484375</ele>
        <time>2018-08-18T08:07:21.000Z</time>
        <extensions>
          <ns3:TrackPointExtension>
            <ns3:atemp>14.0</ns3:atemp>
          </ns3:TrackPointExtension>
        </extensions>
      </trkpt>
      <trkpt lat="60.068996250629425048828125" lon="15.8684194274246692657470703125">
        <ele>182.600006103515625</ele>
        <time>2018-08-18T08:07:30.000Z</time>
        <extensions>
          <ns3:TrackPointExtension>
            <ns3:atemp>14.0</ns3:atemp>
          </ns3:TrackPointExtension>
        </extensions>
      </trkpt>
      <trkpt lat="60.06855226121842861175537109375" lon="15.86774661205708980560302734375">
        <ele>183.1999969482421875</ele>
        <time>2018-08-18T08:07:40.000Z</time>
        <extensions>
          <ns3:TrackPointExtension>
            <ns3:atemp>14.0</ns3:atemp>
          </ns3:TrackPointExtension>
        </extensions>
      </trkpt>
      <trkpt lat="60.0681572221219539642333984375" lon="15.867266245186328887939453125">
        <ele>183.600006103515625</ele>
        <time>2018-08-18T08:07:49.000Z</time>
        <extensions>
          <ns3:TrackPointExtension>
            <ns3:atemp>14.0</ns3:atemp>
          </ns3:TrackPointExtension>
        </extensions>
      </trkpt>
      <trkpt lat="60.06787776947021484375" lon="15.86701788939535617828369140625">
        <ele>183.8000030517578125</ele>
        <time>2018-08-18T08:07:55.000Z</time>
        <extensions>
          <ns3:TrackPointExtension>
            <ns3:atemp>14.0</ns3:atemp>
          </ns3:TrackPointExtension>
        </extensions>
      </trkpt>
      <trkpt lat="60.0677002407610416412353515625" lon="15.86685963906347751617431640625">
        <ele>183.8000030517578125</ele>
        <time>2018-08-18T08:07:59.000Z</time>
        <extensions>
          <ns3:TrackPointExtension>
            <ns3:atemp>14.0</ns3:atemp>
          </ns3:TrackPointExtension>
        </extensions>
      </trkpt>
      <trkpt lat="60.06738281808793544769287109375" lon="15.86656291969120502471923828125">
        <ele>184</ele>
        <time>2018-08-18T08:08:06.000Z</time>
        <extensions>
          <ns3:TrackPointExtension>
            <ns3:atemp>14.0</ns3:atemp>
          </ns3:TrackPointExtension>
        </extensions>
      </trkpt>
      <trkpt lat="60.0671041198074817657470703125" lon="15.86629536934196949005126953125">
        <ele>184.1999969482421875</ele>
        <time>2018-08-18T08:08:12.000Z</time>
        <extensions>
          <ns3:TrackPointExtension>
            <ns3:atemp>15.0</ns3:atemp>
          </ns3:TrackPointExtension>
        </extensions>
      </trkpt>
      <trkpt lat="60.066587962210178375244140625" lon="15.86576077155768871307373046875">
        <ele>184.600006103515625</ele>
        <time>2018-08-18T08:08:22.000Z</time>
        <extensions>
          <ns3:TrackPointExtension>
            <ns3:atemp>15.0</ns3:atemp>
          </ns3:TrackPointExtension>
        </extensions>
      </trkpt>
      <trkpt lat="60.06623868830502033233642578125" lon="15.8648986928164958953857421875">
        <ele>186</ele>
        <time>2018-08-18T08:08:32.000Z</time>
        <extensions>
          <ns3:TrackPointExtension>
            <ns3:atemp>15.0</ns3:atemp>
          </ns3:TrackPointExtension>
        </extensions>
      </trkpt>
      <trkpt lat="60.06615017540752887725830078125" lon="15.86462083272635936737060546875">
        <ele>186.399993896484375</ele>
        <time>2018-08-18T08:08:35.000Z</time>
        <extensions>
          <ns3:TrackPointExtension>
            <ns3:atemp>15.0</ns3:atemp>
          </ns3:TrackPointExtension>
        </extensions>
      </trkpt>
      <trkpt lat="60.06584473885595798492431640625" lon="15.86366579867899417877197265625">
        <ele>188.1999969482421875</ele>
        <time>2018-08-18T08:08:45.000Z</time>
        <extensions>
          <ns3:TrackPointExtension>
            <ns3:atemp>15.0</ns3:atemp>
          </ns3:TrackPointExtension>
        </extensions>
      </trkpt>
      <trkpt lat="60.06555371917784214019775390625" lon="15.86275418289005756378173828125">
        <ele>189.600006103515625</ele>
        <time>2018-08-18T08:08:55.000Z</time>
        <extensions>
          <ns3:TrackPointExtension>
            <ns3:atemp>15.0</ns3:atemp>
          </ns3:TrackPointExtension>
        </extensions>
      </trkpt>
      <trkpt lat="60.0652403198182582855224609375" lon="15.86180820129811763763427734375">
        <ele>191.1999969482421875</ele>
        <time>2018-08-18T08:09:06.000Z</time>
        <extensions>
          <ns3:TrackPointExtension>
            <ns3:atemp>15.0</ns3:atemp>
          </ns3:TrackPointExtension>
        </extensions>
      </trkpt>
      <trkpt lat="60.0651320256292819976806640625" lon="15.86147460155189037322998046875">
        <ele>191.8000030517578125</ele>
        <time>2018-08-18T08:09:10.000Z</time>
        <extensions>
          <ns3:TrackPointExtension>
            <ns3:atemp>15.0</ns3:atemp>
          </ns3:TrackPointExtension>
        </extensions>
      </trkpt>
      <trkpt lat="60.0648996792733669281005859375" lon="15.8607496507465839385986328125">
        <ele>193</ele>
        <time>2018-08-18T08:09:19.000Z</time>
        <extensions>
          <ns3:TrackPointExtension>
            <ns3:atemp>15.0</ns3:atemp>
          </ns3:TrackPointExtension>
        </extensions>
      </trkpt>
      <trkpt lat="60.0646014511585235595703125" lon="15.85983895696699619293212890625">
        <ele>193.8000030517578125</ele>
        <time>2018-08-18T08:09:29.000Z</time>
        <extensions>
          <ns3:TrackPointExtension>
            <ns3:atemp>15.0</ns3:atemp>
          </ns3:TrackPointExtension>
        </extensions>
      </trkpt>
      <trkpt lat="60.06430531851947307586669921875" lon="15.858926586806774139404296875">
        <ele>194.600006103515625</ele>
        <time>2018-08-18T08:09:38.000Z</time>
        <extensions>
          <ns3:TrackPointExtension>
            <ns3:atemp>15.0</ns3:atemp>
          </ns3:TrackPointExtension>
        </extensions>
      </trkpt>
      <trkpt lat="60.0640041567385196685791015625" lon="15.85802444256842136383056640625">
        <ele>195.399993896484375</ele>
        <time>2018-08-18T08:09:47.000Z</time>
        <extensions>
          <ns3:TrackPointExtension>
            <ns3:atemp>15.0</ns3:atemp>
          </ns3:TrackPointExtension>
        </extensions>
      </trkpt>
      <trkpt lat="60.063699223101139068603515625" lon="15.8570649661123752593994140625">
        <ele>196.399993896484375</ele>
        <time>2018-08-18T08:09:57.000Z</time>
        <extensions>
          <ns3:TrackPointExtension>
            <ns3:atemp>15.0</ns3:atemp>
          </ns3:TrackPointExtension>
        </extensions>
      </trkpt>
      <trkpt lat="60.06340443156659603118896484375" lon="15.85613851435482501983642578125">
        <ele>197.1999969482421875</ele>
        <time>2018-08-18T08:10:07.000Z</time>
        <extensions>
          <ns3:TrackPointExtension>
            <ns3:atemp>16.0</ns3:atemp>
          </ns3:TrackPointExtension>
        </extensions>
      </trkpt>
      <trkpt lat="60.06318029947578907012939453125" lon="15.855441391468048095703125">
        <ele>198</ele>
        <time>2018-08-18T08:10:15.000Z</time>
        <extensions>
          <ns3:TrackPointExtension>
            <ns3:atemp>16.0</ns3:atemp>
          </ns3:TrackPointExtension>
        </extensions>
      </trkpt>
      <trkpt lat="60.06294828839600086212158203125" lon="15.85478492081165313720703125">
        <ele>198.600006103515625</ele>
        <time>2018-08-18T08:10:23.000Z</time>
        <extensions>
          <ns3:TrackPointExtension>
            <ns3:atemp>16.0</ns3:atemp>
          </ns3:TrackPointExtension>
        </extensions>
      </trkpt>
      <trkpt lat="60.06278517656028270721435546875" lon="15.8542630635201930999755859375">
        <ele>199.1999969482421875</ele>
        <time>2018-08-18T08:10:29.000Z</time>
        <extensions>
          <ns3:TrackPointExtension>
            <ns3:atemp>16.0</ns3:atemp>
          </ns3:TrackPointExtension>
        </extensions>
      </trkpt>
      <trkpt lat="60.0627649761736392974853515625" lon="15.85416256450116634368896484375">
        <ele>199.1999969482421875</ele>
        <time>2018-08-18T08:10:30.000Z</time>
        <extensions>
          <ns3:TrackPointExtension>
            <ns3:atemp>16.0</ns3:atemp>
          </ns3:TrackPointExtension>
        </extensions>
      </trkpt>
      <trkpt lat="60.0626167841255664825439453125" lon="15.8530057780444622039794921875">
        <ele>200.1999969482421875</ele>
        <time>2018-08-18T08:10:40.000Z</time>
        <extensions>
          <ns3:TrackPointExtension>
            <ns3:atemp>16.0</ns3:atemp>
          </ns3:TrackPointExtension>
        </extensions>
      </trkpt>
      <trkpt lat="60.0625963322818279266357421875" lon="15.8528946340084075927734375">
        <ele>200.399993896484375</ele>
        <time>2018-08-18T08:10:41.000Z</time>
        <extensions>
          <ns3:TrackPointExtension>
            <ns3:atemp>16.0</ns3:atemp>
          </ns3:TrackPointExtension>
        </extensions>
      </trkpt>
      <trkpt lat="60.0625500641763210296630859375" lon="15.85268081165850162506103515625">
        <ele>200.600006103515625</ele>
        <time>2018-08-18T08:10:43.000Z</time>
        <extensions>
          <ns3:TrackPointExtension>
            <ns3:atemp>16.0</ns3:atemp>
          </ns3:TrackPointExtension>
        </extensions>
      </trkpt>
      <trkpt lat="60.06224286742508411407470703125" lon="15.85179400630295276641845703125">
        <ele>201.399993896484375</ele>
        <time>2018-08-18T08:10:52.000Z</time>
        <extensions>
          <ns3:TrackPointExtension>
            <ns3:atemp>16.0</ns3:atemp>
          </ns3:TrackPointExtension>
        </extensions>
      </trkpt>
      <trkpt lat="60.06216994486749172210693359375" lon="15.85160315036773681640625">
        <ele>201.600006103515625</ele>
        <time>2018-08-18T08:10:54.000Z</time>
        <extensions>
          <ns3:TrackPointExtension>
            <ns3:atemp>16.0</ns3:atemp>
          </ns3:TrackPointExtension>
        </extensions>
      </trkpt>
      <trkpt lat="60.06181807257235050201416015625" lon="15.850638560950756072998046875">
        <ele>202.600006103515625</ele>
        <time>2018-08-18T08:11:03.000Z</time>
        <extensions>
          <ns3:TrackPointExtension>
            <ns3:atemp>15.0</ns3:atemp>
          </ns3:TrackPointExtension>
        </extensions>
      </trkpt>
      <trkpt lat="60.06177616305649280548095703125" lon="15.85052423179149627685546875">
        <ele>202.8000030517578125</ele>
        <time>2018-08-18T08:11:04.000Z</time>
        <extensions>
          <ns3:TrackPointExtension>
            <ns3:atemp>15.0</ns3:atemp>
          </ns3:TrackPointExtension>
        </extensions>
      </trkpt>
      <trkpt lat="60.06164859049022197723388671875" lon="15.8501750417053699493408203125">
        <ele>203</ele>
        <time>2018-08-18T08:11:07.000Z</time>
        <extensions>
          <ns3:TrackPointExtension>
            <ns3:atemp>15.0</ns3:atemp>
          </ns3:TrackPointExtension>
        </extensions>
      </trkpt>
      <trkpt lat="60.0615224428474903106689453125" lon="15.84982694126665592193603515625">
        <ele>203.1999969482421875</ele>
        <time>2018-08-18T08:11:10.000Z</time>
        <extensions>
          <ns3:TrackPointExtension>
            <ns3:atemp>15.0</ns3:atemp>
          </ns3:TrackPointExtension>
        </extensions>
      </trkpt>
      <trkpt lat="60.061367712914943695068359375" lon="15.84939007647335529327392578125">
        <ele>203.399993896484375</ele>
        <time>2018-08-18T08:11:14.000Z</time>
        <extensions>
          <ns3:TrackPointExtension>
            <ns3:atemp>15.0</ns3:atemp>
          </ns3:TrackPointExtension>
        </extensions>
      </trkpt>
      <trkpt lat="60.06108398549258708953857421875" lon="15.8486015908420085906982421875">
        <ele>203.399993896484375</ele>
        <time>2018-08-18T08:11:23.000Z</time>
        <extensions>
          <ns3:TrackPointExtension>
            <ns3:atemp>15.0</ns3:atemp>
          </ns3:TrackPointExtension>
        </extensions>
      </trkpt>
      <trkpt lat="60.06095121614634990692138671875" lon="15.848178304731845855712890625">
        <ele>203.1999969482421875</ele>
        <time>2018-08-18T08:11:30.000Z</time>
        <extensions>
          <ns3:TrackPointExtension>
            <ns3:atemp>15.0</ns3:atemp>
          </ns3:TrackPointExtension>
        </extensions>
      </trkpt>
      <trkpt lat="60.0606735236942768096923828125" lon="15.847530551254749298095703125">
        <ele>202.600006103515625</ele>
        <time>2018-08-18T08:11:39.000Z</time>
        <extensions>
          <ns3:TrackPointExtension>
            <ns3:atemp>15.0</ns3:atemp>
          </ns3:TrackPointExtension>
        </extensions>
      </trkpt>
      <trkpt lat="60.060420893132686614990234375" lon="15.84735880605876445770263671875">
        <ele>202.600006103515625</ele>
        <time>2018-08-18T08:11:44.000Z</time>
        <extensions>
          <ns3:TrackPointExtension>
            <ns3:atemp>15.0</ns3:atemp>
          </ns3:TrackPointExtension>
        </extensions>
      </trkpt>
      <trkpt lat="60.06023573689162731170654296875" lon="15.847295857965946197509765625">
        <ele>202.399993896484375</ele>
        <time>2018-08-18T08:11:47.000Z</time>
        <extensions>
          <ns3:TrackPointExtension>
            <ns3:atemp>15.0</ns3:atemp>
          </ns3:TrackPointExtension>
        </extensions>
      </trkpt>
      <trkpt lat="60.05975126288831233978271484375" lon="15.84678783081471920013427734375">
        <ele>202</ele>
        <time>2018-08-18T08:11:56.000Z</time>
        <extensions>
          <ns3:TrackPointExtension>
            <ns3:atemp>15.0</ns3:atemp>
          </ns3:TrackPointExtension>
        </extensions>
      </trkpt>
      <trkpt lat="60.059283636510372161865234375" lon="15.846249125897884368896484375">
        <ele>201.600006103515625</ele>
        <time>2018-08-18T08:12:06.000Z</time>
        <extensions>
          <ns3:TrackPointExtension>
            <ns3:atemp>15.0</ns3:atemp>
          </ns3:TrackPointExtension>
        </extensions>
      </trkpt>
      <trkpt lat="60.05923912860453128814697265625" lon="15.846209228038787841796875">
        <ele>201.600006103515625</ele>
        <time>2018-08-18T08:12:07.000Z</time>
        <extensions>
          <ns3:TrackPointExtension>
            <ns3:atemp>15.0</ns3:atemp>
          </ns3:TrackPointExtension>
        </extensions>
      </trkpt>
      <trkpt lat="60.059195458889007568359375" lon="15.845730789005756378173828125">
        <ele>201.1999969482421875</ele>
        <time>2018-08-18T08:12:14.000Z</time>
        <extensions>
          <ns3:TrackPointExtension>
            <ns3:atemp>15.0</ns3:atemp>
          </ns3:TrackPointExtension>
        </extensions>
      </trkpt>
      <trkpt lat="60.05922236479818820953369140625" lon="15.845655687153339385986328125">
        <ele>201</ele>
        <time>2018-08-18T08:12:15.000Z</time>
        <extensions>
          <ns3:TrackPointExtension>
            <ns3:atemp>15.0</ns3:atemp>
          </ns3:TrackPointExtension>
        </extensions>
      </trkpt>
      <trkpt lat="60.05965881049633026123046875" lon="15.844885222613811492919921875">
        <ele>200.399993896484375</ele>
        <time>2018-08-18T08:12:24.000Z</time>
        <extensions>
          <ns3:TrackPointExtension>
            <ns3:atemp>15.0</ns3:atemp>
          </ns3:TrackPointExtension>
        </extensions>
      </trkpt>
      <trkpt lat="60.059511959552764892578125" lon="15.8441855013370513916015625">
        <ele>199.8000030517578125</ele>
        <time>2018-08-18T08:12:31.000Z</time>
        <extensions>
          <ns3:TrackPointExtension>
            <ns3:atemp>15.0</ns3:atemp>
          </ns3:TrackPointExtension>
        </extensions>
      </trkpt>
      <trkpt lat="60.05930601619184017181396484375" lon="15.84386187605559825897216796875">
        <ele>199.600006103515625</ele>
        <time>2018-08-18T08:12:35.000Z</time>
        <extensions>
          <ns3:TrackPointExtension>
            <ns3:atemp>15.0</ns3:atemp>
          </ns3:TrackPointExtension>
        </extensions>
      </trkpt>
      <trkpt lat="60.0589089654386043548583984375" lon="15.8430883102118968963623046875">
        <ele>199</ele>
        <time>2018-08-18T08:12:44.000Z</time>
        <extensions>
          <ns3:TrackPointExtension>
            <ns3:atemp>15.0</ns3:atemp>
          </ns3:TrackPointExtension>
        </extensions>
      </trkpt>
      <trkpt lat="60.058534629642963409423828125" lon="15.84223888814449310302734375">
        <ele>198.1999969482421875</ele>
        <time>2018-08-18T08:12:53.000Z</time>
        <extensions>
          <ns3:TrackPointExtension>
            <ns3:atemp>15.0</ns3:atemp>
          </ns3:TrackPointExtension>
        </extensions>
      </trkpt>
      <trkpt lat="60.05815501324832439422607421875" lon="15.84137211553752422332763671875">
        <ele>197.399993896484375</ele>
        <time>2018-08-18T08:13:02.000Z</time>
        <extensions>
          <ns3:TrackPointExtension>
            <ns3:atemp>15.0</ns3:atemp>
          </ns3:TrackPointExtension>
        </extensions>
      </trkpt>
      <trkpt lat="60.0577854551374912261962890625" lon="15.84051112644374370574951171875">
        <ele>196.8000030517578125</ele>
        <time>2018-08-18T08:13:11.000Z</time>
        <extensions>
          <ns3:TrackPointExtension>
            <ns3:atemp>15.0</ns3:atemp>
          </ns3:TrackPointExtension>
        </extensions>
      </trkpt>
      <trkpt lat="60.0575552880764007568359375" lon="15.840114913880825042724609375">
        <ele>196.399993896484375</ele>
        <time>2018-08-18T08:13:16.000Z</time>
        <extensions>
          <ns3:TrackPointExtension>
            <ns3:atemp>15.0</ns3:atemp>
          </ns3:TrackPointExtension>
        </extensions>
      </trkpt>
      <trkpt lat="60.05720634944736957550048828125" lon="15.83987510763108730316162109375">
        <ele>196.1999969482421875</ele>
        <time>2018-08-18T08:13:22.000Z</time>
        <extensions>
          <ns3:TrackPointExtension>
            <ns3:atemp>15.0</ns3:atemp>
          </ns3:TrackPointExtension>
        </extensions>
      </trkpt>
      <trkpt lat="60.05665750242769718170166015625" lon="15.83990746177732944488525390625">
        <ele>196.1999969482421875</ele>
        <time>2018-08-18T08:13:31.000Z</time>
        <extensions>
          <ns3:TrackPointExtension>
            <ns3:atemp>15.0</ns3:atemp>
          </ns3:TrackPointExtension>
        </extensions>
      </trkpt>
      <trkpt lat="60.05607982166111469268798828125" lon="15.83997719921171665191650390625">
        <ele>196.399993896484375</ele>
        <time>2018-08-18T08:13:40.000Z</time>
        <extensions>
          <ns3:TrackPointExtension>
            <ns3:atemp>15.0</ns3:atemp>
          </ns3:TrackPointExtension>
        </extensions>
      </trkpt>
      <trkpt lat="60.0555407814681529998779296875" lon="15.8400181867182254791259765625">
        <ele>196.399993896484375</ele>
        <time>2018-08-18T08:13:49.000Z</time>
        <extensions>
          <ns3:TrackPointExtension>
            <ns3:atemp>15.0</ns3:atemp>
          </ns3:TrackPointExtension>
        </extensions>
      </trkpt>
      <trkpt lat="60.0552326627075672149658203125" lon="15.84005892276763916015625">
        <ele>196.399993896484375</ele>
        <time>2018-08-18T08:13:54.000Z</time>
        <extensions>
          <ns3:TrackPointExtension>
            <ns3:atemp>15.0</ns3:atemp>
          </ns3:TrackPointExtension>
        </extensions>
      </trkpt>
      <trkpt lat="60.05468255840241909027099609375" lon="15.84008364938199520111083984375">
        <ele>196.399993896484375</ele>
        <time>2018-08-18T08:14:03.000Z</time>
        <extensions>
          <ns3:TrackPointExtension>
            <ns3:atemp>15.0</ns3:atemp>
          </ns3:TrackPointExtension>
        </extensions>
      </trkpt>
      <trkpt lat="60.0540900416672229766845703125" lon="15.8401465974748134613037109375">
        <ele>196.399993896484375</ele>
        <time>2018-08-18T08:14:12.000Z</time>
        <extensions>
          <ns3:TrackPointExtension>
            <ns3:atemp>15.0</ns3:atemp>
          </ns3:TrackPointExtension>
        </extensions>
      </trkpt>
      <trkpt lat="60.05351747386157512664794921875" lon="15.84018993191421031951904296875">
        <ele>196.399993896484375</ele>
        <time>2018-08-18T08:14:21.000Z</time>
        <extensions>
          <ns3:TrackPointExtension>
            <ns3:atemp>15.0</ns3:atemp>
          </ns3:TrackPointExtension>
        </extensions>
      </trkpt>
      <trkpt lat="60.05338973365724086761474609375" lon="15.84015623666346073150634765625">
        <ele>196.399993896484375</ele>
        <time>2018-08-18T08:14:23.000Z</time>
        <extensions>
          <ns3:TrackPointExtension>
            <ns3:atemp>15.0</ns3:atemp>
          </ns3:TrackPointExtension>
        </extensions>
      </trkpt>
      <trkpt lat="60.053083039820194244384765625" lon="15.8399082161486148834228515625">
        <ele>196</ele>
        <time>2018-08-18T08:14:28.000Z</time>
        <extensions>
          <ns3:TrackPointExtension>
            <ns3:atemp>15.0</ns3:atemp>
          </ns3:TrackPointExtension>
        </extensions>
      </trkpt>
      <trkpt lat="60.05256579257547855377197265625" lon="15.8393100835382938385009765625">
        <ele>195</ele>
        <time>2018-08-18T08:14:37.000Z</time>
        <extensions>
          <ns3:TrackPointExtension>
            <ns3:atemp>15.0</ns3:atemp>
          </ns3:TrackPointExtension>
        </extensions>
      </trkpt>
      <trkpt lat="60.052055753767490386962890625" lon="15.8386831171810626983642578125">
        <ele>193.8000030517578125</ele>
        <time>2018-08-18T08:14:46.000Z</time>
        <extensions>
          <ns3:TrackPointExtension>
            <ns3:atemp>15.0</ns3:atemp>
          </ns3:TrackPointExtension>
        </extensions>
      </trkpt>
      <trkpt lat="60.05155912600457668304443359375" lon="15.83809177391231060028076171875">
        <ele>192.8000030517578125</ele>
        <time>2018-08-18T08:14:55.000Z</time>
        <extensions>
          <ns3:TrackPointExtension>
            <ns3:atemp>15.0</ns3:atemp>
          </ns3:TrackPointExtension>
        </extensions>
      </trkpt>
      <trkpt lat="60.0510879792273044586181640625" lon="15.83752180449664592742919921875">
        <ele>191.8000030517578125</ele>
        <time>2018-08-18T08:15:04.000Z</time>
        <extensions>
          <ns3:TrackPointExtension>
            <ns3:atemp>14.0</ns3:atemp>
          </ns3:TrackPointExtension>
        </extensions>
      </trkpt>
      <trkpt lat="60.0505629368126392364501953125" lon="15.836987458169460296630859375">
        <ele>190.8000030517578125</ele>
        <time>2018-08-18T08:15:13.000Z</time>
        <extensions>
          <ns3:TrackPointExtension>
            <ns3:atemp>14.0</ns3:atemp>
          </ns3:TrackPointExtension>
        </extensions>
      </trkpt>
      <trkpt lat="60.05003102123737335205078125" lon="15.8366567082703113555908203125">
        <ele>190</ele>
        <time>2018-08-18T08:15:21.000Z</time>
        <extensions>
          <ns3:TrackPointExtension>
            <ns3:atemp>14.0</ns3:atemp>
          </ns3:TrackPointExtension>
        </extensions>
      </trkpt>
      <trkpt lat="60.04989431239664554595947265625" lon="15.83656593225896358489990234375">
        <ele>189.8000030517578125</ele>
        <time>2018-08-18T08:15:23.000Z</time>
        <extensions>
          <ns3:TrackPointExtension>
            <ns3:atemp>14.0</ns3:atemp>
          </ns3:TrackPointExtension>
        </extensions>
      </trkpt>
      <trkpt lat="60.0493348203599452972412109375" lon="15.8362087793648242950439453125">
        <ele>188.8000030517578125</ele>
        <time>2018-08-18T08:15:32.000Z</time>
        <extensions>
          <ns3:TrackPointExtension>
            <ns3:atemp>14.0</ns3:atemp>
          </ns3:TrackPointExtension>
        </extensions>
      </trkpt>
      <trkpt lat="60.0492855347692966461181640625" lon="15.83617382682859897613525390625">
        <ele>188.8000030517578125</ele>
        <time>2018-08-18T08:15:33.000Z</time>
        <extensions>
          <ns3:TrackPointExtension>
            <ns3:atemp>14.0</ns3:atemp>
          </ns3:TrackPointExtension>
        </extensions>
      </trkpt>
      <trkpt lat="60.0492429547011852264404296875" lon="15.83613946102559566497802734375">
        <ele>188.600006103515625</ele>
        <time>2018-08-18T08:15:34.000Z</time>
        <extensions>
          <ns3:TrackPointExtension>
            <ns3:atemp>14.0</ns3:atemp>
          </ns3:TrackPointExtension>
        </extensions>
      </trkpt>
      <trkpt lat="60.0492419488728046417236328125" lon="15.83580292761325836181640625">
        <ele>188.399993896484375</ele>
        <time>2018-08-18T08:15:39.000Z</time>
        <extensions>
          <ns3:TrackPointExtension>
            <ns3:atemp>14.0</ns3:atemp>
          </ns3:TrackPointExtension>
        </extensions>
      </trkpt>
      <trkpt lat="60.04953791387379169464111328125" lon="15.834895670413970947265625">
        <ele>188</ele>
        <time>2018-08-18T08:15:49.000Z</time>
        <extensions>
          <ns3:TrackPointExtension>
            <ns3:atemp>14.0</ns3:atemp>
          </ns3:TrackPointExtension>
        </extensions>
      </trkpt>
      <trkpt lat="60.04970085807144641876220703125" lon="15.8344096876680850982666015625">
        <ele>187.8000030517578125</ele>
        <time>2018-08-18T08:15:54.000Z</time>
        <extensions>
          <ns3:TrackPointExtension>
            <ns3:atemp>14.0</ns3:atemp>
          </ns3:TrackPointExtension>
        </extensions>
      </trkpt>
      <trkpt lat="60.04992666654288768768310546875" lon="15.8334165997803211212158203125">
        <ele>187.1999969482421875</ele>
        <time>2018-08-18T08:16:03.000Z</time>
        <extensions>
          <ns3:TrackPointExtension>
            <ns3:atemp>14.0</ns3:atemp>
          </ns3:TrackPointExtension>
        </extensions>
      </trkpt>
      <trkpt lat="60.0500747747719287872314453125" lon="15.832254029810428619384765625">
        <ele>186.1999969482421875</ele>
        <time>2018-08-18T08:16:13.000Z</time>
        <extensions>
          <ns3:TrackPointExtension>
            <ns3:atemp>14.0</ns3:atemp>
          </ns3:TrackPointExtension>
        </extensions>
      </trkpt>
      <trkpt lat="60.05020947195589542388916015625" lon="15.83108550868928432464599609375">
        <ele>185.399993896484375</ele>
        <time>2018-08-18T08:16:22.000Z</time>
        <extensions>
          <ns3:TrackPointExtension>
            <ns3:atemp>14.0</ns3:atemp>
          </ns3:TrackPointExtension>
        </extensions>
      </trkpt>
      <trkpt lat="60.05031357519328594207763671875" lon="15.829974152147769927978515625">
        <ele>184.600006103515625</ele>
        <time>2018-08-18T08:16:30.000Z</time>
        <extensions>
          <ns3:TrackPointExtension>
            <ns3:atemp>14.0</ns3:atemp>
          </ns3:TrackPointExtension>
        </extensions>
      </trkpt>
      <trkpt lat="60.05043561570346355438232421875" lon="15.82885709591209888458251953125">
        <ele>184.600006103515625</ele>
        <time>2018-08-18T08:16:38.000Z</time>
        <extensions>
          <ns3:TrackPointExtension>
            <ns3:atemp>14.0</ns3:atemp>
          </ns3:TrackPointExtension>
        </extensions>
      </trkpt>
      <trkpt lat="60.05052387714385986328125" lon="15.82805712707340717315673828125">
        <ele>185</ele>
        <time>2018-08-18T08:16:45.000Z</time>
        <extensions>
          <ns3:TrackPointExtension>
            <ns3:atemp>14.0</ns3:atemp>
          </ns3:TrackPointExtension>
        </extensions>
      </trkpt>
      <trkpt lat="60.050573833286762237548828125" lon="15.8276803605258464813232421875">
        <ele>185.1999969482421875</ele>
        <time>2018-08-18T08:16:49.000Z</time>
        <extensions>
          <ns3:TrackPointExtension>
            <ns3:atemp>14.0</ns3:atemp>
          </ns3:TrackPointExtension>
        </extensions>
      </trkpt>
      <trkpt lat="60.05064818076789379119873046875" lon="15.82723972387611865997314453125">
        <ele>185.399993896484375</ele>
        <time>2018-08-18T08:16:54.000Z</time>
        <extensions>
          <ns3:TrackPointExtension>
            <ns3:atemp>14.0</ns3:atemp>
          </ns3:TrackPointExtension>
        </extensions>
      </trkpt>
      <trkpt lat="60.05073937587440013885498046875" lon="15.8268807269632816314697265625">
        <ele>185.8000030517578125</ele>
        <time>2018-08-18T08:16:58.000Z</time>
        <extensions>
          <ns3:TrackPointExtension>
            <ns3:atemp>14.0</ns3:atemp>
          </ns3:TrackPointExtension>
        </extensions>
      </trkpt>
      <trkpt lat="60.0508931837975978851318359375" lon="15.82646749913692474365234375">
        <ele>186.1999969482421875</ele>
        <time>2018-08-18T08:17:03.000Z</time>
        <extensions>
          <ns3:TrackPointExtension>
            <ns3:atemp>14.0</ns3:atemp>
          </ns3:TrackPointExtension>
        </extensions>
      </trkpt>
      <trkpt lat="60.05120390094816684722900390625" lon="15.8259322308003902435302734375">
        <ele>187</ele>
        <time>2018-08-18T08:17:11.000Z</time>
        <extensions>
          <ns3:TrackPointExtension>
            <ns3:atemp>14.0</ns3:atemp>
          </ns3:TrackPointExtension>
        </extensions>
      </trkpt>
      <trkpt lat="60.05163841880857944488525390625" lon="15.82547667436301708221435546875">
        <ele>188</ele>
        <time>2018-08-18T08:17:21.000Z</time>
        <extensions>
          <ns3:TrackPointExtension>
            <ns3:atemp>14.0</ns3:atemp>
          </ns3:TrackPointExtension>
        </extensions>
      </trkpt>
      <trkpt lat="60.05204728804528713226318359375" lon="15.825091861188411712646484375">
        <ele>189</ele>
        <time>2018-08-18T08:17:29.000Z</time>
        <extensions>
          <ns3:TrackPointExtension>
            <ns3:atemp>14.0</ns3:atemp>
          </ns3:TrackPointExtension>
        </extensions>
      </trkpt>
      <trkpt lat="60.052570067346096038818359375" lon="15.824578888714313507080078125">
        <ele>190.1999969482421875</ele>
        <time>2018-08-18T08:17:37.000Z</time>
        <extensions>
          <ns3:TrackPointExtension>
            <ns3:atemp>14.0</ns3:atemp>
          </ns3:TrackPointExtension>
        </extensions>
      </trkpt>
      <trkpt lat="60.052639804780483245849609375" lon="15.8245163597166538238525390625">
        <ele>190.399993896484375</ele>
        <time>2018-08-18T08:17:38.000Z</time>
        <extensions>
          <ns3:TrackPointExtension>
            <ns3:atemp>14.0</ns3:atemp>
          </ns3:TrackPointExtension>
        </extensions>
      </trkpt>
      <trkpt lat="60.05307423882186412811279296875" lon="15.82408930175006389617919921875">
        <ele>191.399993896484375</ele>
        <time>2018-08-18T08:17:44.000Z</time>
        <extensions>
          <ns3:TrackPointExtension>
            <ns3:atemp>14.0</ns3:atemp>
          </ns3:TrackPointExtension>
        </extensions>
      </trkpt>
      <trkpt lat="60.05326174199581146240234375" lon="15.82360750995576381683349609375">
        <ele>192.1999969482421875</ele>
        <time>2018-08-18T08:17:48.000Z</time>
        <extensions>
          <ns3:TrackPointExtension>
            <ns3:atemp>14.0</ns3:atemp>
          </ns3:TrackPointExtension>
        </extensions>
      </trkpt>
      <trkpt lat="60.05333483219146728515625" lon="15.8231811225414276123046875">
        <ele>192.600006103515625</ele>
        <time>2018-08-18T08:17:51.000Z</time>
        <extensions>
          <ns3:TrackPointExtension>
            <ns3:atemp>14.0</ns3:atemp>
          </ns3:TrackPointExtension>
        </extensions>
      </trkpt>
      <trkpt lat="60.0534503348171710968017578125" lon="15.8222790621221065521240234375">
        <ele>193.399993896484375</ele>
        <time>2018-08-18T08:17:57.000Z</time>
        <extensions>
          <ns3:TrackPointExtension>
            <ns3:atemp>14.0</ns3:atemp>
          </ns3:TrackPointExtension>
        </extensions>
      </trkpt>
      <trkpt lat="60.05354563705623149871826171875" lon="15.82156433723866939544677734375">
        <ele>194</ele>
        <time>2018-08-18T08:18:02.000Z</time>
        <extensions>
          <ns3:TrackPointExtension>
            <ns3:atemp>14.0</ns3:atemp>
          </ns3:TrackPointExtension>
        </extensions>
      </trkpt>
      <trkpt lat="60.05367002449929714202880859375" lon="15.82046605646610260009765625">
        <ele>194.8000030517578125</ele>
        <time>2018-08-18T08:18:10.000Z</time>
        <extensions>
          <ns3:TrackPointExtension>
            <ns3:atemp>14.0</ns3:atemp>
          </ns3:TrackPointExtension>
        </extensions>
      </trkpt>
      <trkpt lat="60.05377077497541904449462890625" lon="15.819365680217742919921875">
        <ele>195.600006103515625</ele>
        <time>2018-08-18T08:18:18.000Z</time>
        <extensions>
          <ns3:TrackPointExtension>
            <ns3:atemp>14.0</ns3:atemp>
          </ns3:TrackPointExtension>
        </extensions>
      </trkpt>
      <trkpt lat="60.05383313633501529693603515625" lon="15.8181417547166347503662109375">
        <ele>196.600006103515625</ele>
        <time>2018-08-18T08:18:26.000Z</time>
        <extensions>
          <ns3:TrackPointExtension>
            <ns3:atemp>14.0</ns3:atemp>
          </ns3:TrackPointExtension>
        </extensions>
      </trkpt>
      <trkpt lat="60.05382492206990718841552734375" lon="15.81766859628260135650634765625">
        <ele>196.8000030517578125</ele>
        <time>2018-08-18T08:18:29.000Z</time>
        <extensions>
          <ns3:TrackPointExtension>
            <ns3:atemp>14.0</ns3:atemp>
          </ns3:TrackPointExtension>
        </extensions>
      </trkpt>
      <trkpt lat="60.05382366478443145751953125" lon="15.81721329130232334136962890625">
        <ele>197</ele>
        <time>2018-08-18T08:18:32.000Z</time>
        <extensions>
          <ns3:TrackPointExtension>
            <ns3:atemp>14.0</ns3:atemp>
          </ns3:TrackPointExtension>
        </extensions>
      </trkpt>
      <trkpt lat="60.05387823097407817840576171875" lon="15.816120542585849761962890625">
        <ele>197.600006103515625</ele>
        <time>2018-08-18T08:18:39.000Z</time>
        <extensions>
          <ns3:TrackPointExtension>
            <ns3:atemp>14.0</ns3:atemp>
          </ns3:TrackPointExtension>
        </extensions>
      </trkpt>
      <trkpt lat="60.05393791012465953826904296875" lon="15.8153546042740345001220703125">
        <ele>197.1999969482421875</ele>
        <time>2018-08-18T08:18:44.000Z</time>
        <extensions>
          <ns3:TrackPointExtension>
            <ns3:atemp>14.0</ns3:atemp>
          </ns3:TrackPointExtension>
        </extensions>
      </trkpt>
      <trkpt lat="60.0540135987102985382080078125" lon="15.814291276037693023681640625">
        <ele>196.399993896484375</ele>
        <time>2018-08-18T08:18:51.000Z</time>
        <extensions>
          <ns3:TrackPointExtension>
            <ns3:atemp>14.0</ns3:atemp>
          </ns3:TrackPointExtension>
        </extensions>
      </trkpt>
      <trkpt lat="60.05403019487857818603515625" lon="15.8131226710975170135498046875">
        <ele>195.399993896484375</ele>
        <time>2018-08-18T08:18:59.000Z</time>
        <extensions>
          <ns3:TrackPointExtension>
            <ns3:atemp>14.0</ns3:atemp>
          </ns3:TrackPointExtension>
        </extensions>
      </trkpt>
      <trkpt lat="60.0539150275290012359619140625" lon="15.81199840642511844635009765625">
        <ele>194.399993896484375</ele>
        <time>2018-08-18T08:19:07.000Z</time>
        <extensions>
          <ns3:TrackPointExtension>
            <ns3:atemp>14.0</ns3:atemp>
          </ns3:TrackPointExtension>
        </extensions>
      </trkpt>
      <trkpt lat="60.053899772465229034423828125" lon="15.81185909919440746307373046875">
        <ele>194.1999969482421875</ele>
        <time>2018-08-18T08:19:08.000Z</time>
        <extensions>
          <ns3:TrackPointExtension>
            <ns3:atemp>14.0</ns3:atemp>
          </ns3:TrackPointExtension>
        </extensions>
      </trkpt>
      <trkpt lat="60.05385585129261016845703125" lon="15.811263062059879302978515625">
        <ele>193.8000030517578125</ele>
        <time>2018-08-18T08:19:12.000Z</time>
        <extensions>
          <ns3:TrackPointExtension>
            <ns3:atemp>14.0</ns3:atemp>
          </ns3:TrackPointExtension>
        </extensions>
      </trkpt>
      <trkpt lat="60.05395165644586086273193359375" lon="15.81007190980017185211181640625">
        <ele>192.8000030517578125</ele>
        <time>2018-08-18T08:19:19.000Z</time>
        <extensions>
          <ns3:TrackPointExtension>
            <ns3:atemp>14.0</ns3:atemp>
          </ns3:TrackPointExtension>
        </extensions>
      </trkpt>
      <trkpt lat="60.05399934947490692138671875" lon="15.809722803533077239990234375">
        <ele>192.600006103515625</ele>
        <time>2018-08-18T08:19:21.000Z</time>
        <extensions>
          <ns3:TrackPointExtension>
            <ns3:atemp>14.0</ns3:atemp>
          </ns3:TrackPointExtension>
        </extensions>
      </trkpt>
      <trkpt lat="60.05406414158642292022705078125" lon="15.809381492435932159423828125">
        <ele>192.399993896484375</ele>
        <time>2018-08-18T08:19:23.000Z</time>
        <extensions>
          <ns3:TrackPointExtension>
            <ns3:atemp>14.0</ns3:atemp>
          </ns3:TrackPointExtension>
        </extensions>
      </trkpt>
      <trkpt lat="60.05419892258942127227783203125" lon="15.808904729783535003662109375">
        <ele>192.1999969482421875</ele>
        <time>2018-08-18T08:19:26.000Z</time>
        <extensions>
          <ns3:TrackPointExtension>
            <ns3:atemp>14.0</ns3:atemp>
          </ns3:TrackPointExtension>
        </extensions>
      </trkpt>
      <trkpt lat="60.054308138787746429443359375" lon="15.80862368457019329071044921875">
        <ele>192</ele>
        <time>2018-08-18T08:19:28.000Z</time>
        <extensions>
          <ns3:TrackPointExtension>
            <ns3:atemp>14.0</ns3:atemp>
          </ns3:TrackPointExtension>
        </extensions>
      </trkpt>
      <trkpt lat="60.05448139272630214691162109375" lon="15.80822839401662349700927734375">
        <ele>191</ele>
        <time>2018-08-18T08:19:31.000Z</time>
        <extensions>
          <ns3:TrackPointExtension>
            <ns3:atemp>14.0</ns3:atemp>
          </ns3:TrackPointExtension>
        </extensions>
      </trkpt>
      <trkpt lat="60.0549000687897205352783203125" lon="15.8073083125054836273193359375">
        <ele>187.600006103515625</ele>
        <time>2018-08-18T08:19:38.000Z</time>
        <extensions>
          <ns3:TrackPointExtension>
            <ns3:atemp>14.0</ns3:atemp>
          </ns3:TrackPointExtension>
        </extensions>
      </trkpt>
      <trkpt lat="60.05517105571925640106201171875" lon="15.8066766522824764251708984375">
        <ele>185.8000030517578125</ele>
        <time>2018-08-18T08:19:43.000Z</time>
        <extensions>
          <ns3:TrackPointExtension>
            <ns3:atemp>14.0</ns3:atemp>
          </ns3:TrackPointExtension>
        </extensions>
      </trkpt>
      <trkpt lat="60.055571459233760833740234375" lon="15.80580116249620914459228515625">
        <ele>183.399993896484375</ele>
        <time>2018-08-18T08:19:51.000Z</time>
        <extensions>
          <ns3:TrackPointExtension>
            <ns3:atemp>14.0</ns3:atemp>
          </ns3:TrackPointExtension>
        </extensions>
      </trkpt>
      <trkpt lat="60.0557339005172252655029296875" lon="15.80544836819171905517578125">
        <ele>182.399993896484375</ele>
        <time>2018-08-18T08:19:55.000Z</time>
        <extensions>
          <ns3:TrackPointExtension>
            <ns3:atemp>14.0</ns3:atemp>
          </ns3:TrackPointExtension>
        </extensions>
      </trkpt>
      <trkpt lat="60.05603380501270294189453125" lon="15.80542716197669506072998046875">
        <ele>182</ele>
        <time>2018-08-18T08:20:01.000Z</time>
        <extensions>
          <ns3:TrackPointExtension>
            <ns3:atemp>14.0</ns3:atemp>
          </ns3:TrackPointExtension>
        </extensions>
      </trkpt>
      <trkpt lat="60.05609289743006229400634765625" lon="15.80546169541776180267333984375">
        <ele>182</ele>
        <time>2018-08-18T08:20:02.000Z</time>
        <extensions>
          <ns3:TrackPointExtension>
            <ns3:atemp>14.0</ns3:atemp>
          </ns3:TrackPointExtension>
        </extensions>
      </trkpt>
      <trkpt lat="60.056307055056095123291015625" lon="15.8053684048354625701904296875">
        <ele>181.600006103515625</ele>
        <time>2018-08-18T08:20:06.000Z</time>
        <extensions>
          <ns3:TrackPointExtension>
            <ns3:atemp>13.0</ns3:atemp>
          </ns3:TrackPointExtension>
        </extensions>
      </trkpt>
      <trkpt lat="60.0567813031375408172607421875" lon="15.8046482317149639129638671875">
        <ele>179.399993896484375</ele>
        <time>2018-08-18T08:20:16.000Z</time>
        <extensions>
          <ns3:TrackPointExtension>
            <ns3:atemp>13.0</ns3:atemp>
          </ns3:TrackPointExtension>
        </extensions>
      </trkpt>
      <trkpt lat="60.05716569721698760986328125" lon="15.80380576662719249725341796875">
        <ele>177</ele>
        <time>2018-08-18T08:20:24.000Z</time>
        <extensions>
          <ns3:TrackPointExtension>
            <ns3:atemp>13.0</ns3:atemp>
          </ns3:TrackPointExtension>
        </extensions>
      </trkpt>
      <trkpt lat="60.0573532842099666595458984375" lon="15.8035428263247013092041015625">
        <ele>176.1999969482421875</ele>
        <time>2018-08-18T08:20:27.000Z</time>
        <extensions>
          <ns3:TrackPointExtension>
            <ns3:atemp>13.0</ns3:atemp>
          </ns3:TrackPointExtension>
        </extensions>
      </trkpt>
      <trkpt lat="60.0576211698353290557861328125" lon="15.80324359238147735595703125">
        <ele>175.1999969482421875</ele>
        <time>2018-08-18T08:20:31.000Z</time>
        <extensions>
          <ns3:TrackPointExtension>
            <ns3:atemp>13.0</ns3:atemp>
          </ns3:TrackPointExtension>
        </extensions>
      </trkpt>
      <trkpt lat="60.057686381042003631591796875" lon="15.80319958738982677459716796875">
        <ele>175</ele>
        <time>2018-08-18T08:20:32.000Z</time>
        <extensions>
          <ns3:TrackPointExtension>
            <ns3:atemp>13.0</ns3:atemp>
          </ns3:TrackPointExtension>
        </extensions>
      </trkpt>
      <trkpt lat="60.05786533467471599578857421875" lon="15.80313404090702533721923828125">
        <ele>174.600006103515625</ele>
        <time>2018-08-18T08:20:35.000Z</time>
        <extensions>
          <ns3:TrackPointExtension>
            <ns3:atemp>13.0</ns3:atemp>
          </ns3:TrackPointExtension>
        </extensions>
      </trkpt>
      <trkpt lat="60.05841116420924663543701171875" lon="15.8031103201210498809814453125">
        <ele>173.600006103515625</ele>
        <time>2018-08-18T08:20:47.000Z</time>
        <extensions>
          <ns3:TrackPointExtension>
            <ns3:atemp>13.0</ns3:atemp>
          </ns3:TrackPointExtension>
        </extensions>
      </trkpt>
      <trkpt lat="60.05844603292644023895263671875" lon="15.8031274192035198211669921875">
        <ele>173.600006103515625</ele>
        <time>2018-08-18T08:20:48.000Z</time>
        <extensions>
          <ns3:TrackPointExtension>
            <ns3:atemp>13.0</ns3:atemp>
          </ns3:TrackPointExtension>
        </extensions>
      </trkpt>
      <trkpt lat="60.058551393449306488037109375" lon="15.80322590656578540802001953125">
        <ele>173.8000030517578125</ele>
        <time>2018-08-18T08:20:51.000Z</time>
        <extensions>
          <ns3:TrackPointExtension>
            <ns3:atemp>13.0</ns3:atemp>
          </ns3:TrackPointExtension>
        </extensions>
      </trkpt>
      <trkpt lat="60.05867854692041873931884765625" lon="15.80338600091636180877685546875">
        <ele>174</ele>
        <time>2018-08-18T08:20:54.000Z</time>
        <extensions>
          <ns3:TrackPointExtension>
            <ns3:atemp>13.0</ns3:atemp>
          </ns3:TrackPointExtension>
        </extensions>
      </trkpt>
      <trkpt lat="60.059082806110382080078125" lon="15.80400005914270877838134765625">
        <ele>174.8000030517578125</ele>
        <time>2018-08-18T08:21:01.000Z</time>
        <extensions>
          <ns3:TrackPointExtension>
            <ns3:atemp>13.0</ns3:atemp>
          </ns3:TrackPointExtension>
        </extensions>
      </trkpt>
      <trkpt lat="60.0592180900275707244873046875" lon="15.8042703755199909210205078125">
        <ele>175.1999969482421875</ele>
        <time>2018-08-18T08:21:03.000Z</time>
        <extensions>
          <ns3:TrackPointExtension>
            <ns3:atemp>13.0</ns3:atemp>
          </ns3:TrackPointExtension>
        </extensions>
      </trkpt>
      <trkpt lat="60.05948086269199848175048828125" lon="15.805056095123291015625">
        <ele>176.600006103515625</ele>
        <time>2018-08-18T08:21:08.000Z</time>
        <extensions>
          <ns3:TrackPointExtension>
            <ns3:atemp>13.0</ns3:atemp>
          </ns3:TrackPointExtension>
        </extensions>
      </trkpt>
      <trkpt lat="60.0595731474459171295166015625" lon="15.80536128021776676177978515625">
        <ele>177.1999969482421875</ele>
        <time>2018-08-18T08:21:10.000Z</time>
        <extensions>
          <ns3:TrackPointExtension>
            <ns3:atemp>13.0</ns3:atemp>
          </ns3:TrackPointExtension>
        </extensions>
      </trkpt>
      <trkpt lat="60.05966551601886749267578125" lon="15.80565565265715122222900390625">
        <ele>177.8000030517578125</ele>
        <time>2018-08-18T08:21:12.000Z</time>
        <extensions>
          <ns3:TrackPointExtension>
            <ns3:atemp>13.0</ns3:atemp>
          </ns3:TrackPointExtension>
        </extensions>
      </trkpt>
      <trkpt lat="60.05973994731903076171875" lon="15.80592982470989227294921875">
        <ele>178.1999969482421875</ele>
        <time>2018-08-18T08:21:14.000Z</time>
        <extensions>
          <ns3:TrackPointExtension>
            <ns3:atemp>13.0</ns3:atemp>
          </ns3:TrackPointExtension>
        </extensions>
      </trkpt>
      <trkpt lat="60.05982820875942707061767578125" lon="15.80618773587048053741455078125">
        <ele>178.600006103515625</ele>
        <time>2018-08-18T08:21:16.000Z</time>
        <extensions>
          <ns3:TrackPointExtension>
            <ns3:atemp>13.0</ns3:atemp>
          </ns3:TrackPointExtension>
        </extensions>
      </trkpt>
      <trkpt lat="60.06017974577844142913818359375" lon="15.80717277713119983673095703125">
        <ele>180.399993896484375</ele>
        <time>2018-08-18T08:21:24.000Z</time>
        <extensions>
          <ns3:TrackPointExtension>
            <ns3:atemp>13.0</ns3:atemp>
          </ns3:TrackPointExtension>
        </extensions>
      </trkpt>
      <trkpt lat="60.06052357144653797149658203125" lon="15.80811448395252227783203125">
        <ele>182.600006103515625</ele>
        <time>2018-08-18T08:21:33.000Z</time>
        <extensions>
          <ns3:TrackPointExtension>
            <ns3:atemp>13.0</ns3:atemp>
          </ns3:TrackPointExtension>
        </extensions>
      </trkpt>
      <trkpt lat="60.06080017425119876861572265625" lon="15.80880515277385711669921875">
        <ele>184.600006103515625</ele>
        <time>2018-08-18T08:21:40.000Z</time>
        <extensions>
          <ns3:TrackPointExtension>
            <ns3:atemp>13.0</ns3:atemp>
          </ns3:TrackPointExtension>
        </extensions>
      </trkpt>
      <trkpt lat="60.061212144792079925537109375" lon="15.8095590211451053619384765625">
        <ele>186.399993896484375</ele>
        <time>2018-08-18T08:21:49.000Z</time>
        <extensions>
          <ns3:TrackPointExtension>
            <ns3:atemp>13.0</ns3:atemp>
          </ns3:TrackPointExtension>
        </extensions>
      </trkpt>
      <trkpt lat="60.06148899905383586883544921875" lon="15.8104578964412212371826171875">
        <ele>189</ele>
        <time>2018-08-18T08:21:58.000Z</time>
        <extensions>
          <ns3:TrackPointExtension>
            <ns3:atemp>13.0</ns3:atemp>
          </ns3:TrackPointExtension>
        </extensions>
      </trkpt>
      <trkpt lat="60.061641968786716461181640625" lon="15.8115331269800662994384765625">
        <ele>192.1999969482421875</ele>
        <time>2018-08-18T08:22:07.000Z</time>
        <extensions>
          <ns3:TrackPointExtension>
            <ns3:atemp>13.0</ns3:atemp>
          </ns3:TrackPointExtension>
        </extensions>
      </trkpt>
      <trkpt lat="60.0616803579032421112060546875" lon="15.8120306767523288726806640625">
        <ele>193.8000030517578125</ele>
        <time>2018-08-18T08:22:11.000Z</time>
        <extensions>
          <ns3:TrackPointExtension>
            <ns3:atemp>13.0</ns3:atemp>
          </ns3:TrackPointExtension>
        </extensions>
      </trkpt>
      <trkpt lat="60.06164607591927051544189453125" lon="15.8124910108745098114013671875">
        <ele>195.399993896484375</ele>
        <time>2018-08-18T08:22:15.000Z</time>
        <extensions>
          <ns3:TrackPointExtension>
            <ns3:atemp>13.0</ns3:atemp>
          </ns3:TrackPointExtension>
        </extensions>
      </trkpt>
      <trkpt lat="60.06139419972896575927734375" lon="15.813512764871120452880859375">
        <ele>199</ele>
        <time>2018-08-18T08:22:29.000Z</time>
        <extensions>
          <ns3:TrackPointExtension>
            <ns3:atemp>13.0</ns3:atemp>
          </ns3:TrackPointExtension>
        </extensions>
      </trkpt>
      <trkpt lat="60.06137735210359096527099609375" lon="15.81356867216527462005615234375">
        <ele>199.1999969482421875</ele>
        <time>2018-08-18T08:22:30.000Z</time>
        <extensions>
          <ns3:TrackPointExtension>
            <ns3:atemp>13.0</ns3:atemp>
          </ns3:TrackPointExtension>
        </extensions>
      </trkpt>
      <trkpt lat="60.061324797570705413818359375" lon="15.81378559581935405731201171875">
        <ele>200</ele>
        <time>2018-08-18T08:22:34.000Z</time>
        <extensions>
          <ns3:TrackPointExtension>
            <ns3:atemp>13.0</ns3:atemp>
          </ns3:TrackPointExtension>
        </extensions>
      </trkpt>
      <trkpt lat="60.06130459718406200408935546875" lon="15.8140041120350360870361328125">
        <ele>200.600006103515625</ele>
        <time>2018-08-18T08:22:38.000Z</time>
        <extensions>
          <ns3:TrackPointExtension>
            <ns3:atemp>13.0</ns3:atemp>
          </ns3:TrackPointExtension>
        </extensions>
      </trkpt>
      <trkpt lat="60.061369054019451141357421875" lon="15.81432756967842578887939453125">
        <ele>201.600006103515625</ele>
        <time>2018-08-18T08:22:44.000Z</time>
        <extensions>
          <ns3:TrackPointExtension>
            <ns3:atemp>13.0</ns3:atemp>
          </ns3:TrackPointExtension>
        </extensions>
      </trkpt>
      <trkpt lat="60.0614647753536701202392578125" lon="15.8145623467862606048583984375">
        <ele>202.1999969482421875</ele>
        <time>2018-08-18T08:22:49.000Z</time>
        <extensions>
          <ns3:TrackPointExtension>
            <ns3:atemp>13.0</ns3:atemp>
          </ns3:TrackPointExtension>
        </extensions>
      </trkpt>
      <trkpt lat="60.06159025244414806365966796875" lon="15.81490986049175262451171875">
        <ele>203.1999969482421875</ele>
        <time>2018-08-18T08:22:55.000Z</time>
        <extensions>
          <ns3:TrackPointExtension>
            <ns3:atemp>13.0</ns3:atemp>
          </ns3:TrackPointExtension>
        </extensions>
      </trkpt>
      <trkpt lat="60.06174565292894840240478515625" lon="15.8153039775788784027099609375">
        <ele>204.1999969482421875</ele>
        <time>2018-08-18T08:23:02.000Z</time>
        <extensions>
          <ns3:TrackPointExtension>
            <ns3:atemp>13.0</ns3:atemp>
          </ns3:TrackPointExtension>
        </extensions>
      </trkpt>
      <trkpt lat="60.0619774125516414642333984375" lon="15.81585307605564594268798828125">
        <ele>205.1999969482421875</ele>
        <time>2018-08-18T08:23:11.000Z</time>
        <extensions>
          <ns3:TrackPointExtension>
            <ns3:atemp>13.0</ns3:atemp>
          </ns3:TrackPointExtension>
        </extensions>
      </trkpt>
      <trkpt lat="60.0622781552374362945556640625" lon="15.81675547175109386444091796875">
        <ele>205.1999969482421875</ele>
        <time>2018-08-18T08:23:24.000Z</time>
        <extensions>
          <ns3:TrackPointExtension>
            <ns3:atemp>13.0</ns3:atemp>
          </ns3:TrackPointExtension>
        </extensions>
      </trkpt>
      <trkpt lat="60.06238334812223911285400390625" lon="15.817098878324031829833984375">
        <ele>205</ele>
        <time>2018-08-18T08:23:29.000Z</time>
        <extensions>
          <ns3:TrackPointExtension>
            <ns3:atemp>13.0</ns3:atemp>
          </ns3:TrackPointExtension>
        </extensions>
      </trkpt>
      <trkpt lat="60.06250731647014617919921875" lon="15.81758192740380764007568359375">
        <ele>205</ele>
        <time>2018-08-18T08:23:37.000Z</time>
        <extensions>
          <ns3:TrackPointExtension>
            <ns3:atemp>13.0</ns3:atemp>
          </ns3:TrackPointExtension>
        </extensions>
      </trkpt>
      <trkpt lat="60.06255534477531909942626953125" lon="15.81782483495771884918212890625">
        <ele>205</ele>
        <time>2018-08-18T08:23:41.000Z</time>
        <extensions>
          <ns3:TrackPointExtension>
            <ns3:atemp>13.0</ns3:atemp>
          </ns3:TrackPointExtension>
        </extensions>
      </trkpt>
      <trkpt lat="60.06261552684009075164794921875" lon="15.81817721016705036163330078125">
        <ele>204.8000030517578125</ele>
        <time>2018-08-18T08:23:46.000Z</time>
        <extensions>
          <ns3:TrackPointExtension>
            <ns3:atemp>13.0</ns3:atemp>
          </ns3:TrackPointExtension>
        </extensions>
      </trkpt>
      <trkpt lat="60.062720216810703277587890625" lon="15.81855590455234050750732421875">
        <ele>204.8000030517578125</ele>
        <time>2018-08-18T08:23:52.000Z</time>
        <extensions>
          <ns3:TrackPointExtension>
            <ns3:atemp>13.0</ns3:atemp>
          </ns3:TrackPointExtension>
        </extensions>
      </trkpt>
      <trkpt lat="60.0630342029035091400146484375" lon="15.81931413151323795318603515625">
        <ele>204.399993896484375</ele>
        <time>2018-08-18T08:24:03.000Z</time>
        <extensions>
          <ns3:TrackPointExtension>
            <ns3:atemp>13.0</ns3:atemp>
          </ns3:TrackPointExtension>
        </extensions>
      </trkpt>
      <trkpt lat="60.06333285011351108551025390625" lon="15.820008404552936553955078125">
        <ele>204</ele>
        <time>2018-08-18T08:24:16.000Z</time>
        <extensions>
          <ns3:TrackPointExtension>
            <ns3:atemp>13.0</ns3:atemp>
          </ns3:TrackPointExtension>
        </extensions>
      </trkpt>
      <trkpt lat="60.0633906014263629913330078125" lon="15.82013421691954135894775390625">
        <ele>204</ele>
        <time>2018-08-18T08:24:18.000Z</time>
        <extensions>
          <ns3:TrackPointExtension>
            <ns3:atemp>13.0</ns3:atemp>
          </ns3:TrackPointExtension>
        </extensions>
      </trkpt>
      <trkpt lat="60.0634190998971462249755859375" lon="15.82020797766745090484619140625">
        <ele>204</ele>
        <time>2018-08-18T08:24:19.000Z</time>
        <extensions>
          <ns3:TrackPointExtension>
            <ns3:atemp>13.0</ns3:atemp>
          </ns3:TrackPointExtension>
        </extensions>
      </trkpt>
      <trkpt lat="60.0635485164821147918701171875" lon="15.82053981721401214599609375">
        <ele>203.8000030517578125</ele>
        <time>2018-08-18T08:24:23.000Z</time>
        <extensions>
          <ns3:TrackPointExtension>
            <ns3:atemp>13.0</ns3:atemp>
          </ns3:TrackPointExtension>
        </extensions>
      </trkpt>
      <trkpt lat="60.06373576819896697998046875" lon="15.82105739973485469818115234375">
        <ele>203.600006103515625</ele>
        <time>2018-08-18T08:24:29.000Z</time>
        <extensions>
          <ns3:TrackPointExtension>
            <ns3:atemp>13.0</ns3:atemp>
          </ns3:TrackPointExtension>
        </extensions>
      </trkpt>
      <trkpt lat="60.06380273960530757904052734375" lon="15.8211920969188213348388671875">
        <ele>203.399993896484375</ele>
        <time>2018-08-18T08:24:31.000Z</time>
        <extensions>
          <ns3:TrackPointExtension>
            <ns3:atemp>13.0</ns3:atemp>
          </ns3:TrackPointExtension>
        </extensions>
      </trkpt>
      <trkpt lat="60.0638784281909465789794921875" lon="15.82130701281130313873291015625">
        <ele>203.399993896484375</ele>
        <time>2018-08-18T08:24:33.000Z</time>
        <extensions>
          <ns3:TrackPointExtension>
            <ns3:atemp>13.0</ns3:atemp>
          </ns3:TrackPointExtension>
        </extensions>
      </trkpt>
      <trkpt lat="60.06400776095688343048095703125" lon="15.82142687402665615081787109375">
        <ele>203.1999969482421875</ele>
        <time>2018-08-18T08:24:36.000Z</time>
        <extensions>
          <ns3:TrackPointExtension>
            <ns3:atemp>13.0</ns3:atemp>
          </ns3:TrackPointExtension>
        </extensions>
      </trkpt>
      <trkpt lat="60.06425100378692150115966796875" lon="15.82154941745102405548095703125">
        <ele>202.8000030517578125</ele>
        <time>2018-08-18T08:24:41.000Z</time>
        <extensions>
          <ns3:TrackPointExtension>
            <ns3:atemp>13.0</ns3:atemp>
          </ns3:TrackPointExtension>
        </extensions>
      </trkpt>
      <trkpt lat="60.064487457275390625" lon="15.82170666195452213287353515625">
        <ele>202.399993896484375</ele>
        <time>2018-08-18T08:24:46.000Z</time>
        <extensions>
          <ns3:TrackPointExtension>
            <ns3:atemp>13.0</ns3:atemp>
          </ns3:TrackPointExtension>
        </extensions>
      </trkpt>
      <trkpt lat="60.0646175444126129150390625" lon="15.82188016735017299652099609375">
        <ele>202.1999969482421875</ele>
        <time>2018-08-18T08:24:49.000Z</time>
        <extensions>
          <ns3:TrackPointExtension>
            <ns3:atemp>13.0</ns3:atemp>
          </ns3:TrackPointExtension>
        </extensions>
      </trkpt>
      <trkpt lat="60.0648026168346405029296875" lon="15.82228769548237323760986328125">
        <ele>202</ele>
        <time>2018-08-18T08:24:54.000Z</time>
        <extensions>
          <ns3:TrackPointExtension>
            <ns3:atemp>13.0</ns3:atemp>
          </ns3:TrackPointExtension>
        </extensions>
      </trkpt>
      <trkpt lat="60.06486590020358562469482421875" lon="15.822486095130443572998046875">
        <ele>201.8000030517578125</ele>
        <time>2018-08-18T08:24:56.000Z</time>
        <extensions>
          <ns3:TrackPointExtension>
            <ns3:atemp>13.0</ns3:atemp>
          </ns3:TrackPointExtension>
        </extensions>
      </trkpt>
      <trkpt lat="60.06494904868304729461669921875" lon="15.822925306856632232666015625">
        <ele>201.8000030517578125</ele>
        <time>2018-08-18T08:25:00.000Z</time>
        <extensions>
          <ns3:TrackPointExtension>
            <ns3:atemp>13.0</ns3:atemp>
          </ns3:TrackPointExtension>
        </extensions>
      </trkpt>
      <trkpt lat="60.06497561931610107421875" lon="15.823480524122714996337890625">
        <ele>202</ele>
        <time>2018-08-18T08:25:06.000Z</time>
        <extensions>
          <ns3:TrackPointExtension>
            <ns3:atemp>13.0</ns3:atemp>
          </ns3:TrackPointExtension>
        </extensions>
      </trkpt>
      <trkpt lat="60.064988024532794952392578125" lon="15.82364707253873348236083984375">
        <ele>202</ele>
        <time>2018-08-18T08:25:08.000Z</time>
        <extensions>
          <ns3:TrackPointExtension>
            <ns3:atemp>13.0</ns3:atemp>
          </ns3:TrackPointExtension>
        </extensions>
      </trkpt>
      <trkpt lat="60.06502666510641574859619140625" lon="15.824054516851902008056640625">
        <ele>202</ele>
        <time>2018-08-18T08:25:13.000Z</time>
        <extensions>
          <ns3:TrackPointExtension>
            <ns3:atemp>13.0</ns3:atemp>
          </ns3:TrackPointExtension>
        </extensions>
      </trkpt>
      <trkpt lat="60.0650485418736934661865234375" lon="15.82430035807192325592041015625">
        <ele>202</ele>
        <time>2018-08-18T08:25:16.000Z</time>
        <extensions>
          <ns3:TrackPointExtension>
            <ns3:atemp>13.0</ns3:atemp>
          </ns3:TrackPointExtension>
        </extensions>
      </trkpt>
      <trkpt lat="60.06505885161459445953369140625" lon="15.82447369582951068878173828125">
        <ele>202.1999969482421875</ele>
        <time>2018-08-18T08:25:18.000Z</time>
        <extensions>
          <ns3:TrackPointExtension>
            <ns3:atemp>13.0</ns3:atemp>
          </ns3:TrackPointExtension>
        </extensions>
      </trkpt>
      <trkpt lat="60.0650686584413051605224609375" lon="15.82474828697741031646728515625">
        <ele>202.399993896484375</ele>
        <time>2018-08-18T08:25:21.000Z</time>
        <extensions>
          <ns3:TrackPointExtension>
            <ns3:atemp>13.0</ns3:atemp>
          </ns3:TrackPointExtension>
        </extensions>
      </trkpt>
      <trkpt lat="60.06509925238788127899169921875" lon="15.8251349441707134246826171875">
        <ele>202.8000030517578125</ele>
        <time>2018-08-18T08:25:25.000Z</time>
        <extensions>
          <ns3:TrackPointExtension>
            <ns3:atemp>13.0</ns3:atemp>
          </ns3:TrackPointExtension>
        </extensions>
      </trkpt>
      <trkpt lat="60.06520469672977924346923828125" lon="15.82585101015865802764892578125">
        <ele>203.399993896484375</ele>
        <time>2018-08-18T08:25:33.000Z</time>
        <extensions>
          <ns3:TrackPointExtension>
            <ns3:atemp>13.0</ns3:atemp>
          </ns3:TrackPointExtension>
        </extensions>
      </trkpt>
      <trkpt lat="60.0652222149074077606201171875" lon="15.82593365572392940521240234375">
        <ele>203.399993896484375</ele>
        <time>2018-08-18T08:25:34.000Z</time>
        <extensions>
          <ns3:TrackPointExtension>
            <ns3:atemp>13.0</ns3:atemp>
          </ns3:TrackPointExtension>
        </extensions>
      </trkpt>
      <trkpt lat="60.06529103033244609832763671875" lon="15.82623389549553394317626953125">
        <ele>203.600006103515625</ele>
        <time>2018-08-18T08:25:38.000Z</time>
        <extensions>
          <ns3:TrackPointExtension>
            <ns3:atemp>13.0</ns3:atemp>
          </ns3:TrackPointExtension>
        </extensions>
      </trkpt>
      <trkpt lat="60.0653657130897045135498046875" lon="15.82660295069217681884765625">
        <ele>203.8000030517578125</ele>
        <time>2018-08-18T08:25:43.000Z</time>
        <extensions>
          <ns3:TrackPointExtension>
            <ns3:atemp>13.0</ns3:atemp>
          </ns3:TrackPointExtension>
        </extensions>
      </trkpt>
      <trkpt lat="60.0654243864119052886962890625" lon="15.82694199867546558380126953125">
        <ele>204</ele>
        <time>2018-08-18T08:25:47.000Z</time>
        <extensions>
          <ns3:TrackPointExtension>
            <ns3:atemp>13.0</ns3:atemp>
          </ns3:TrackPointExtension>
        </extensions>
      </trkpt>
      <trkpt lat="60.0655303336679935455322265625" lon="15.8275056816637516021728515625">
        <ele>204.399993896484375</ele>
        <time>2018-08-18T08:25:55.000Z</time>
        <extensions>
          <ns3:TrackPointExtension>
            <ns3:atemp>13.0</ns3:atemp>
          </ns3:TrackPointExtension>
        </extensions>
      </trkpt>
      <trkpt lat="60.0656037591397762298583984375" lon="15.82785478793084621429443359375">
        <ele>204.600006103515625</ele>
        <time>2018-08-18T08:26:01.000Z</time>
        <extensions>
          <ns3:TrackPointExtension>
            <ns3:atemp>13.0</ns3:atemp>
          </ns3:TrackPointExtension>
        </extensions>
      </trkpt>
      <trkpt lat="60.0656399689614772796630859375" lon="15.828029550611972808837890625">
        <ele>204.600006103515625</ele>
        <time>2018-08-18T08:26:04.000Z</time>
        <extensions>
          <ns3:TrackPointExtension>
            <ns3:atemp>13.0</ns3:atemp>
          </ns3:TrackPointExtension>
        </extensions>
      </trkpt>
      <trkpt lat="60.0656850636005401611328125" lon="15.8282416127622127532958984375">
        <ele>204.399993896484375</ele>
        <time>2018-08-18T08:26:08.000Z</time>
        <extensions>
          <ns3:TrackPointExtension>
            <ns3:atemp>13.0</ns3:atemp>
          </ns3:TrackPointExtension>
        </extensions>
      </trkpt>
      <trkpt lat="60.06572864949703216552734375" lon="15.8283968456089496612548828125">
        <ele>204.1999969482421875</ele>
        <time>2018-08-18T08:26:11.000Z</time>
        <extensions>
          <ns3:TrackPointExtension>
            <ns3:atemp>13.0</ns3:atemp>
          </ns3:TrackPointExtension>
        </extensions>
      </trkpt>
      <trkpt lat="60.06577550433576107025146484375" lon="15.8286399208009243011474609375">
        <ele>204</ele>
        <time>2018-08-18T08:26:15.000Z</time>
        <extensions>
          <ns3:TrackPointExtension>
            <ns3:atemp>13.0</ns3:atemp>
          </ns3:TrackPointExtension>
        </extensions>
      </trkpt>
      <trkpt lat="60.06583501584827899932861328125" lon="15.82890319637954235076904296875">
        <ele>203.600006103515625</ele>
        <time>2018-08-18T08:26:19.000Z</time>
        <extensions>
          <ns3:TrackPointExtension>
            <ns3:atemp>13.0</ns3:atemp>
          </ns3:TrackPointExtension>
        </extensions>
      </trkpt>
      <trkpt lat="60.06598488427698612213134765625" lon="15.8294241316616535186767578125">
        <ele>202.8000030517578125</ele>
        <time>2018-08-18T08:26:27.000Z</time>
        <extensions>
          <ns3:TrackPointExtension>
            <ns3:atemp>13.0</ns3:atemp>
          </ns3:TrackPointExtension>
        </extensions>
      </trkpt>
      <trkpt lat="60.0661276280879974365234375" lon="15.82992461510002613067626953125">
        <ele>202.1999969482421875</ele>
        <time>2018-08-18T08:26:35.000Z</time>
        <extensions>
          <ns3:TrackPointExtension>
            <ns3:atemp>13.0</ns3:atemp>
          </ns3:TrackPointExtension>
        </extensions>
      </trkpt>
      <trkpt lat="60.0662015564739704132080078125" lon="15.83039584569633007049560546875">
        <ele>201.399993896484375</ele>
        <time>2018-08-18T08:26:42.000Z</time>
        <extensions>
          <ns3:TrackPointExtension>
            <ns3:atemp>13.0</ns3:atemp>
          </ns3:TrackPointExtension>
        </extensions>
      </trkpt>
      <trkpt lat="60.066292919218540191650390625" lon="15.83087931387126445770263671875">
        <ele>200.8000030517578125</ele>
        <time>2018-08-18T08:26:50.000Z</time>
        <extensions>
          <ns3:TrackPointExtension>
            <ns3:atemp>13.0</ns3:atemp>
          </ns3:TrackPointExtension>
        </extensions>
      </trkpt>
      <trkpt lat="60.0663537718355655670166015625" lon="15.8311605267226696014404296875">
        <ele>200.399993896484375</ele>
        <time>2018-08-18T08:26:55.000Z</time>
        <extensions>
          <ns3:TrackPointExtension>
            <ns3:atemp>13.0</ns3:atemp>
          </ns3:TrackPointExtension>
        </extensions>
      </trkpt>
      <trkpt lat="60.06640666164457798004150390625" lon="15.8314015902578830718994140625">
        <ele>200</ele>
        <time>2018-08-18T08:26:59.000Z</time>
        <extensions>
          <ns3:TrackPointExtension>
            <ns3:atemp>13.0</ns3:atemp>
          </ns3:TrackPointExtension>
        </extensions>
      </trkpt>
      <trkpt lat="60.06648427806794643402099609375" lon="15.83177466876804828643798828125">
        <ele>199.600006103515625</ele>
        <time>2018-08-18T08:27:04.000Z</time>
        <extensions>
          <ns3:TrackPointExtension>
            <ns3:atemp>13.0</ns3:atemp>
          </ns3:TrackPointExtension>
        </extensions>
      </trkpt>
      <trkpt lat="60.06668276153504848480224609375" lon="15.83281419239938259124755859375">
        <ele>198.600006103515625</ele>
        <time>2018-08-18T08:27:16.000Z</time>
        <extensions>
          <ns3:TrackPointExtension>
            <ns3:atemp>13.0</ns3:atemp>
          </ns3:TrackPointExtension>
        </extensions>
      </trkpt>
      <trkpt lat="60.066952072083950042724609375" lon="15.83369613625109195709228515625">
        <ele>198.600006103515625</ele>
        <time>2018-08-18T08:27:25.000Z</time>
        <extensions>
          <ns3:TrackPointExtension>
            <ns3:atemp>13.0</ns3:atemp>
          </ns3:TrackPointExtension>
        </extensions>
      </trkpt>
      <trkpt lat="60.06734811700880527496337890625" lon="15.8345877192914485931396484375">
        <ele>198.600006103515625</ele>
        <time>2018-08-18T08:27:35.000Z</time>
        <extensions>
          <ns3:TrackPointExtension>
            <ns3:atemp>13.0</ns3:atemp>
          </ns3:TrackPointExtension>
        </extensions>
      </trkpt>
      <trkpt lat="60.067714154720306396484375" lon="15.8354855887591838836669921875">
        <ele>198.600006103515625</ele>
        <time>2018-08-18T08:27:44.000Z</time>
        <extensions>
          <ns3:TrackPointExtension>
            <ns3:atemp>13.0</ns3:atemp>
          </ns3:TrackPointExtension>
        </extensions>
      </trkpt>
      <trkpt lat="60.06798648275434970855712890625" lon="15.8361584879457950592041015625">
        <ele>198.600006103515625</ele>
        <time>2018-08-18T08:27:51.000Z</time>
        <extensions>
          <ns3:TrackPointExtension>
            <ns3:atemp>13.0</ns3:atemp>
          </ns3:TrackPointExtension>
        </extensions>
      </trkpt>
      <trkpt lat="60.068325698375701904296875" lon="15.83688880316913127899169921875">
        <ele>198.8000030517578125</ele>
        <time>2018-08-18T08:27:58.000Z</time>
        <extensions>
          <ns3:TrackPointExtension>
            <ns3:atemp>13.0</ns3:atemp>
          </ns3:TrackPointExtension>
        </extensions>
      </trkpt>
      <trkpt lat="60.0685174763202667236328125" lon="15.83734788000583648681640625">
        <ele>198.8000030517578125</ele>
        <time>2018-08-18T08:28:02.000Z</time>
        <extensions>
          <ns3:TrackPointExtension>
            <ns3:atemp>13.0</ns3:atemp>
          </ns3:TrackPointExtension>
        </extensions>
      </trkpt>
      <trkpt lat="60.0686064921319484710693359375" lon="15.837757587432861328125">
        <ele>198.8000030517578125</ele>
        <time>2018-08-18T08:28:05.000Z</time>
        <extensions>
          <ns3:TrackPointExtension>
            <ns3:atemp>13.0</ns3:atemp>
          </ns3:TrackPointExtension>
        </extensions>
      </trkpt>
      <trkpt lat="60.0686131976544857025146484375" lon="15.83829327486455440521240234375">
        <ele>198.600006103515625</ele>
        <time>2018-08-18T08:28:09.000Z</time>
        <extensions>
          <ns3:TrackPointExtension>
            <ns3:atemp>13.0</ns3:atemp>
          </ns3:TrackPointExtension>
        </extensions>
      </trkpt>
      <trkpt lat="60.0685277022421360015869140625" lon="15.83942466415464878082275390625">
        <ele>198.399993896484375</ele>
        <time>2018-08-18T08:28:18.000Z</time>
        <extensions>
          <ns3:TrackPointExtension>
            <ns3:atemp>13.0</ns3:atemp>
          </ns3:TrackPointExtension>
        </extensions>
      </trkpt>
      <trkpt lat="60.06847858428955078125" lon="15.83989195525646209716796875">
        <ele>198.399993896484375</ele>
        <time>2018-08-18T08:28:21.000Z</time>
        <extensions>
          <ns3:TrackPointExtension>
            <ns3:atemp>13.0</ns3:atemp>
          </ns3:TrackPointExtension>
        </extensions>
      </trkpt>
      <trkpt lat="60.06837389431893825531005859375" lon="15.84085780195891857147216796875">
        <ele>198.600006103515625</ele>
        <time>2018-08-18T08:28:27.000Z</time>
        <extensions>
          <ns3:TrackPointExtension>
            <ns3:atemp>13.0</ns3:atemp>
          </ns3:TrackPointExtension>
        </extensions>
      </trkpt>
      <trkpt lat="60.0683402828872203826904296875" lon="15.8411447145044803619384765625">
        <ele>198.600006103515625</ele>
        <time>2018-08-18T08:28:29.000Z</time>
        <extensions>
          <ns3:TrackPointExtension>
            <ns3:atemp>13.0</ns3:atemp>
          </ns3:TrackPointExtension>
        </extensions>
      </trkpt>
      <trkpt lat="60.0682775862514972686767578125" lon="15.84160496480762958526611328125">
        <ele>198.8000030517578125</ele>
        <time>2018-08-18T08:28:32.000Z</time>
        <extensions>
          <ns3:TrackPointExtension>
            <ns3:atemp>13.0</ns3:atemp>
          </ns3:TrackPointExtension>
        </extensions>
      </trkpt>
      <trkpt lat="60.0681763328611850738525390625" lon="15.842334441840648651123046875">
        <ele>199</ele>
        <time>2018-08-18T08:28:37.000Z</time>
        <extensions>
          <ns3:TrackPointExtension>
            <ns3:atemp>13.0</ns3:atemp>
          </ns3:TrackPointExtension>
        </extensions>
      </trkpt>
      <trkpt lat="60.0681401230394840240478515625" lon="15.8426968753337860107421875">
        <ele>199</ele>
        <time>2018-08-18T08:28:40.000Z</time>
        <extensions>
          <ns3:TrackPointExtension>
            <ns3:atemp>13.0</ns3:atemp>
          </ns3:TrackPointExtension>
        </extensions>
      </trkpt>
      <trkpt lat="60.06813970394432544708251953125" lon="15.84294204600155353546142578125">
        <ele>199</ele>
        <time>2018-08-18T08:28:42.000Z</time>
        <extensions>
          <ns3:TrackPointExtension>
            <ns3:atemp>13.0</ns3:atemp>
          </ns3:TrackPointExtension>
        </extensions>
      </trkpt>
      <trkpt lat="60.06834774278104305267333984375" lon="15.843307413160800933837890625">
        <ele>199.1999969482421875</ele>
        <time>2018-08-18T08:28:47.000Z</time>
        <extensions>
          <ns3:TrackPointExtension>
            <ns3:atemp>13.0</ns3:atemp>
          </ns3:TrackPointExtension>
        </extensions>
      </trkpt>
      <trkpt lat="60.06851554848253726959228515625" lon="15.84345434792339801788330078125">
        <ele>199.1999969482421875</ele>
        <time>2018-08-18T08:28:50.000Z</time>
        <extensions>
          <ns3:TrackPointExtension>
            <ns3:atemp>13.0</ns3:atemp>
          </ns3:TrackPointExtension>
        </extensions>
      </trkpt>
      <trkpt lat="60.06905551068484783172607421875" lon="15.843874700367450714111328125">
        <ele>199.600006103515625</ele>
        <time>2018-08-18T08:28:59.000Z</time>
        <extensions>
          <ns3:TrackPointExtension>
            <ns3:atemp>13.0</ns3:atemp>
          </ns3:TrackPointExtension>
        </extensions>
      </trkpt>
      <trkpt lat="60.0696186907589435577392578125" lon="15.84430980496108531951904296875">
        <ele>199.8000030517578125</ele>
        <time>2018-08-18T08:29:07.000Z</time>
        <extensions>
          <ns3:TrackPointExtension>
            <ns3:atemp>13.0</ns3:atemp>
          </ns3:TrackPointExtension>
        </extensions>
      </trkpt>
      <trkpt lat="60.0701477564871311187744140625" lon="15.84466301836073398590087890625">
        <ele>199.1999969482421875</ele>
        <time>2018-08-18T08:29:14.000Z</time>
        <extensions>
          <ns3:TrackPointExtension>
            <ns3:atemp>13.0</ns3:atemp>
          </ns3:TrackPointExtension>
        </extensions>
      </trkpt>
      <trkpt lat="60.07061169482767581939697265625" lon="15.8449735678732395172119140625">
        <ele>197</ele>
        <time>2018-08-18T08:29:20.000Z</time>
        <extensions>
          <ns3:TrackPointExtension>
            <ns3:atemp>13.0</ns3:atemp>
          </ns3:TrackPointExtension>
        </extensions>
      </trkpt>
      <trkpt lat="60.0710965879261493682861328125" lon="15.8453427068889141082763671875">
        <ele>194.600006103515625</ele>
        <time>2018-08-18T08:29:26.000Z</time>
        <extensions>
          <ns3:TrackPointExtension>
            <ns3:atemp>13.0</ns3:atemp>
          </ns3:TrackPointExtension>
        </extensions>
      </trkpt>
      <trkpt lat="60.07139020599424839019775390625" lon="15.84557823836803436279296875">
        <ele>193.1999969482421875</ele>
        <time>2018-08-18T08:29:29.000Z</time>
        <extensions>
          <ns3:TrackPointExtension>
            <ns3:atemp>13.0</ns3:atemp>
          </ns3:TrackPointExtension>
        </extensions>
      </trkpt>
      <trkpt lat="60.071594975888729095458984375" lon="15.84572634659707546234130859375">
        <ele>192.1999969482421875</ele>
        <time>2018-08-18T08:29:31.000Z</time>
        <extensions>
          <ns3:TrackPointExtension>
            <ns3:atemp>13.0</ns3:atemp>
          </ns3:TrackPointExtension>
        </extensions>
      </trkpt>
      <trkpt lat="60.0717818923294544219970703125" lon="15.84586079232394695281982421875">
        <ele>191.1999969482421875</ele>
        <time>2018-08-18T08:29:33.000Z</time>
        <extensions>
          <ns3:TrackPointExtension>
            <ns3:atemp>13.0</ns3:atemp>
          </ns3:TrackPointExtension>
        </extensions>
      </trkpt>
      <trkpt lat="60.07187551818788051605224609375" lon="15.84590789861977100372314453125">
        <ele>190.8000030517578125</ele>
        <time>2018-08-18T08:29:34.000Z</time>
        <extensions>
          <ns3:TrackPointExtension>
            <ns3:atemp>13.0</ns3:atemp>
          </ns3:TrackPointExtension>
        </extensions>
      </trkpt>
      <trkpt lat="60.07197610102593898773193359375" lon="15.845941007137298583984375">
        <ele>190.399993896484375</ele>
        <time>2018-08-18T08:29:35.000Z</time>
        <extensions>
          <ns3:TrackPointExtension>
            <ns3:atemp>13.0</ns3:atemp>
          </ns3:TrackPointExtension>
        </extensions>
      </trkpt>
      <trkpt lat="60.07206796668469905853271484375" lon="15.84596539847552776336669921875">
        <ele>189.8000030517578125</ele>
        <time>2018-08-18T08:29:36.000Z</time>
        <extensions>
          <ns3:TrackPointExtension>
            <ns3:atemp>13.0</ns3:atemp>
          </ns3:TrackPointExtension>
        </extensions>
      </trkpt>
      <trkpt lat="60.07224583066999912261962890625" lon="15.84599020890891551971435546875">
        <ele>189</ele>
        <time>2018-08-18T08:29:38.000Z</time>
        <extensions>
          <ns3:TrackPointExtension>
            <ns3:atemp>13.0</ns3:atemp>
          </ns3:TrackPointExtension>
        </extensions>
      </trkpt>
      <trkpt lat="60.07248672656714916229248046875" lon="15.8460062183439731597900390625">
        <ele>187.8000030517578125</ele>
        <time>2018-08-18T08:29:41.000Z</time>
        <extensions>
          <ns3:TrackPointExtension>
            <ns3:atemp>13.0</ns3:atemp>
          </ns3:TrackPointExtension>
        </extensions>
      </trkpt>
      <trkpt lat="60.07306910119950771331787109375" lon="15.84582475014030933380126953125">
        <ele>184.8000030517578125</ele>
        <time>2018-08-18T08:29:50.000Z</time>
        <extensions>
          <ns3:TrackPointExtension>
            <ns3:atemp>13.0</ns3:atemp>
          </ns3:TrackPointExtension>
        </extensions>
      </trkpt>
      <trkpt lat="60.0732789002358913421630859375" lon="15.8455432020127773284912109375">
        <ele>183.600006103515625</ele>
        <time>2018-08-18T08:29:54.000Z</time>
        <extensions>
          <ns3:TrackPointExtension>
            <ns3:atemp>13.0</ns3:atemp>
          </ns3:TrackPointExtension>
        </extensions>
      </trkpt>
      <trkpt lat="60.0734971649944782257080078125" lon="15.8451707102358341217041015625">
        <ele>182.399993896484375</ele>
        <time>2018-08-18T08:29:58.000Z</time>
        <extensions>
          <ns3:TrackPointExtension>
            <ns3:atemp>13.0</ns3:atemp>
          </ns3:TrackPointExtension>
        </extensions>
      </trkpt>
      <trkpt lat="60.07398784160614013671875" lon="15.8445957116782665252685546875">
        <ele>180</ele>
        <time>2018-08-18T08:30:06.000Z</time>
        <extensions>
          <ns3:TrackPointExtension>
            <ns3:atemp>13.0</ns3:atemp>
          </ns3:TrackPointExtension>
        </extensions>
      </trkpt>
      <trkpt lat="60.0745257921516895294189453125" lon="15.84410729818046092987060546875">
        <ele>178.399993896484375</ele>
        <time>2018-08-18T08:30:14.000Z</time>
        <extensions>
          <ns3:TrackPointExtension>
            <ns3:atemp>13.0</ns3:atemp>
          </ns3:TrackPointExtension>
        </extensions>
      </trkpt>
      <trkpt lat="60.0747782550752162933349609375" lon="15.8438470400869846343994140625">
        <ele>177.600006103515625</ele>
        <time>2018-08-18T08:30:18.000Z</time>
        <extensions>
          <ns3:TrackPointExtension>
            <ns3:atemp>13.0</ns3:atemp>
          </ns3:TrackPointExtension>
        </extensions>
      </trkpt>
      <trkpt lat="60.07533070631325244903564453125" lon="15.8433687686920166015625">
        <ele>175.8000030517578125</ele>
        <time>2018-08-18T08:30:27.000Z</time>
        <extensions>
          <ns3:TrackPointExtension>
            <ns3:atemp>13.0</ns3:atemp>
          </ns3:TrackPointExtension>
        </extensions>
      </trkpt>
      <trkpt lat="60.07589019834995269775390625" lon="15.8429914154112339019775390625">
        <ele>173.8000030517578125</ele>
        <time>2018-08-18T08:30:35.000Z</time>
        <extensions>
          <ns3:TrackPointExtension>
            <ns3:atemp>13.0</ns3:atemp>
          </ns3:TrackPointExtension>
        </extensions>
      </trkpt>
      <trkpt lat="60.07609178312122821807861328125" lon="15.84283769130706787109375">
        <ele>173.1999969482421875</ele>
        <time>2018-08-18T08:30:38.000Z</time>
        <extensions>
          <ns3:TrackPointExtension>
            <ns3:atemp>13.0</ns3:atemp>
          </ns3:TrackPointExtension>
        </extensions>
      </trkpt>
      <trkpt lat="60.07634818553924560546875" lon="15.8426403813064098358154296875">
        <ele>172.399993896484375</ele>
        <time>2018-08-18T08:30:42.000Z</time>
        <extensions>
          <ns3:TrackPointExtension>
            <ns3:atemp>13.0</ns3:atemp>
          </ns3:TrackPointExtension>
        </extensions>
      </trkpt>
      <trkpt lat="60.07682888768613338470458984375" lon="15.8420382253825664520263671875">
        <ele>171</ele>
        <time>2018-08-18T08:30:49.000Z</time>
        <extensions>
          <ns3:TrackPointExtension>
            <ns3:atemp>13.0</ns3:atemp>
          </ns3:TrackPointExtension>
        </extensions>
      </trkpt>
      <trkpt lat="60.07689124904572963714599609375" lon="15.84193252958357334136962890625">
        <ele>170.8000030517578125</ele>
        <time>2018-08-18T08:30:50.000Z</time>
        <extensions>
          <ns3:TrackPointExtension>
            <ns3:atemp>13.0</ns3:atemp>
          </ns3:TrackPointExtension>
        </extensions>
      </trkpt>
      <trkpt lat="60.0770078413188457489013671875" lon="15.84171828813850879669189453125">
        <ele>170.600006103515625</ele>
        <time>2018-08-18T08:30:52.000Z</time>
        <extensions>
          <ns3:TrackPointExtension>
            <ns3:atemp>13.0</ns3:atemp>
          </ns3:TrackPointExtension>
        </extensions>
      </trkpt>
      <trkpt lat="60.07711638696491718292236328125" lon="15.84150471724569797515869140625">
        <ele>170.1999969482421875</ele>
        <time>2018-08-18T08:30:54.000Z</time>
        <extensions>
          <ns3:TrackPointExtension>
            <ns3:atemp>13.0</ns3:atemp>
          </ns3:TrackPointExtension>
        </extensions>
      </trkpt>
      <trkpt lat="60.07727555930614471435546875" lon="15.84119056351482868194580078125">
        <ele>170</ele>
        <time>2018-08-18T08:30:57.000Z</time>
        <extensions>
          <ns3:TrackPointExtension>
            <ns3:atemp>13.0</ns3:atemp>
          </ns3:TrackPointExtension>
        </extensions>
      </trkpt>
      <trkpt lat="60.07774184457957744598388671875" lon="15.84036142565310001373291015625">
        <ele>168.399993896484375</ele>
        <time>2018-08-18T08:31:05.000Z</time>
        <extensions>
          <ns3:TrackPointExtension>
            <ns3:atemp>13.0</ns3:atemp>
          </ns3:TrackPointExtension>
        </extensions>
      </trkpt>
      <trkpt lat="60.077895484864711761474609375" lon="15.8401273190975189208984375">
        <ele>168</ele>
        <time>2018-08-18T08:31:07.000Z</time>
        <extensions>
          <ns3:TrackPointExtension>
            <ns3:atemp>13.0</ns3:atemp>
          </ns3:TrackPointExtension>
        </extensions>
      </trkpt>
      <trkpt lat="60.07818809710443019866943359375" lon="15.83954268135130405426025390625">
        <ele>167.1999969482421875</ele>
        <time>2018-08-18T08:31:11.000Z</time>
        <extensions>
          <ns3:TrackPointExtension>
            <ns3:atemp>13.0</ns3:atemp>
          </ns3:TrackPointExtension>
        </extensions>
      </trkpt>
      <trkpt lat="60.07829940877854824066162109375" lon="15.83921209909021854400634765625">
        <ele>167</ele>
        <time>2018-08-18T08:31:13.000Z</time>
        <extensions>
          <ns3:TrackPointExtension>
            <ns3:atemp>13.0</ns3:atemp>
          </ns3:TrackPointExtension>
        </extensions>
      </trkpt>
      <trkpt lat="60.07835037074983119964599609375" lon="15.83904865197837352752685546875">
        <ele>166.8000030517578125</ele>
        <time>2018-08-18T08:31:14.000Z</time>
        <extensions>
          <ns3:TrackPointExtension>
            <ns3:atemp>13.0</ns3:atemp>
          </ns3:TrackPointExtension>
        </extensions>
      </trkpt>
      <trkpt lat="60.078452713787555694580078125" lon="15.83871823735535144805908203125">
        <ele>166.8000030517578125</ele>
        <time>2018-08-18T08:31:16.000Z</time>
        <extensions>
          <ns3:TrackPointExtension>
            <ns3:atemp>13.0</ns3:atemp>
          </ns3:TrackPointExtension>
        </extensions>
      </trkpt>
      <trkpt lat="60.07850510068237781524658203125" lon="15.8385573886334896087646484375">
        <ele>166.8000030517578125</ele>
        <time>2018-08-18T08:31:17.000Z</time>
        <extensions>
          <ns3:TrackPointExtension>
            <ns3:atemp>13.0</ns3:atemp>
          </ns3:TrackPointExtension>
        </extensions>
      </trkpt>
      <trkpt lat="60.078605599701404571533203125" lon="15.8382371999323368072509765625">
        <ele>166.8000030517578125</ele>
        <time>2018-08-18T08:31:19.000Z</time>
        <extensions>
          <ns3:TrackPointExtension>
            <ns3:atemp>13.0</ns3:atemp>
          </ns3:TrackPointExtension>
        </extensions>
      </trkpt>
      <trkpt lat="60.0788163207471370697021484375" lon="15.8376340381801128387451171875">
        <ele>166.600006103515625</ele>
        <time>2018-08-18T08:31:23.000Z</time>
        <extensions>
          <ns3:TrackPointExtension>
            <ns3:atemp>13.0</ns3:atemp>
          </ns3:TrackPointExtension>
        </extensions>
      </trkpt>
      <trkpt lat="60.0790845416486263275146484375" lon="15.8370084129273891448974609375">
        <ele>166.399993896484375</ele>
        <time>2018-08-18T08:31:28.000Z</time>
        <extensions>
          <ns3:TrackPointExtension>
            <ns3:atemp>13.0</ns3:atemp>
          </ns3:TrackPointExtension>
        </extensions>
      </trkpt>
      <trkpt lat="60.0794154591858386993408203125" lon="15.8363133855164051055908203125">
        <ele>166.1999969482421875</ele>
        <time>2018-08-18T08:31:34.000Z</time>
        <extensions>
          <ns3:TrackPointExtension>
            <ns3:atemp>13.0</ns3:atemp>
          </ns3:TrackPointExtension>
        </extensions>
      </trkpt>
      <trkpt lat="60.07990068756043910980224609375" lon="15.83570846356451511383056640625">
        <ele>165.600006103515625</ele>
        <time>2018-08-18T08:31:41.000Z</time>
        <extensions>
          <ns3:TrackPointExtension>
            <ns3:atemp>13.0</ns3:atemp>
          </ns3:TrackPointExtension>
        </extensions>
      </trkpt>
      <trkpt lat="60.08010922931134700775146484375" lon="15.83546362817287445068359375">
        <ele>165.399993896484375</ele>
        <time>2018-08-18T08:31:44.000Z</time>
        <extensions>
          <ns3:TrackPointExtension>
            <ns3:atemp>13.0</ns3:atemp>
          </ns3:TrackPointExtension>
        </extensions>
      </trkpt>
      <trkpt lat="60.08030243217945098876953125" lon="15.8352381549775600433349609375">
        <ele>165.1999969482421875</ele>
        <time>2018-08-18T08:31:47.000Z</time>
        <extensions>
          <ns3:TrackPointExtension>
            <ns3:atemp>13.0</ns3:atemp>
          </ns3:TrackPointExtension>
        </extensions>
      </trkpt>
      <trkpt lat="60.0807649455964565277099609375" lon="15.8346722088754177093505859375">
        <ele>164.600006103515625</ele>
        <time>2018-08-18T08:31:55.000Z</time>
        <extensions>
          <ns3:TrackPointExtension>
            <ns3:atemp>13.0</ns3:atemp>
          </ns3:TrackPointExtension>
        </extensions>
      </trkpt>
      <trkpt lat="60.08124095387756824493408203125" lon="15.834088660776615142822265625">
        <ele>163.8000030517578125</ele>
        <time>2018-08-18T08:32:03.000Z</time>
        <extensions>
          <ns3:TrackPointExtension>
            <ns3:atemp>13.0</ns3:atemp>
          </ns3:TrackPointExtension>
        </extensions>
      </trkpt>
      <trkpt lat="60.0817097537219524383544921875" lon="15.833468735218048095703125">
        <ele>162.8000030517578125</ele>
        <time>2018-08-18T08:32:11.000Z</time>
        <extensions>
          <ns3:TrackPointExtension>
            <ns3:atemp>13.0</ns3:atemp>
          </ns3:TrackPointExtension>
        </extensions>
      </trkpt>
      <trkpt lat="60.08185802958905696868896484375" lon="15.8332556672394275665283203125">
        <ele>162.600006103515625</ele>
        <time>2018-08-18T08:32:14.000Z</time>
        <extensions>
          <ns3:TrackPointExtension>
            <ns3:atemp>13.0</ns3:atemp>
          </ns3:TrackPointExtension>
        </extensions>
      </trkpt>
      <trkpt lat="60.08194352500140666961669921875" lon="15.83314091898500919342041015625">
        <ele>162.600006103515625</ele>
        <time>2018-08-18T08:32:16.000Z</time>
        <extensions>
          <ns3:TrackPointExtension>
            <ns3:atemp>13.0</ns3:atemp>
          </ns3:TrackPointExtension>
        </extensions>
      </trkpt>
      <trkpt lat="60.08203639648854732513427734375" lon="15.83303916268050670623779296875">
        <ele>162.399993896484375</ele>
        <time>2018-08-18T08:32:18.000Z</time>
        <extensions>
          <ns3:TrackPointExtension>
            <ns3:atemp>13.0</ns3:atemp>
          </ns3:TrackPointExtension>
        </extensions>
      </trkpt>
      <trkpt lat="60.08214033208787441253662109375" lon="15.83293162286281585693359375">
        <ele>162.1999969482421875</ele>
        <time>2018-08-18T08:32:20.000Z</time>
        <extensions>
          <ns3:TrackPointExtension>
            <ns3:atemp>13.0</ns3:atemp>
          </ns3:TrackPointExtension>
        </extensions>
      </trkpt>
      <trkpt lat="60.08265213109552860260009765625" lon="15.83249182440340518951416015625">
        <ele>161.1999969482421875</ele>
        <time>2018-08-18T08:32:29.000Z</time>
        <extensions>
          <ns3:TrackPointExtension>
            <ns3:atemp>13.0</ns3:atemp>
          </ns3:TrackPointExtension>
        </extensions>
      </trkpt>
      <trkpt lat="60.08316124789416790008544921875" lon="15.8319655247032642364501953125">
        <ele>160</ele>
        <time>2018-08-18T08:32:38.000Z</time>
        <extensions>
          <ns3:TrackPointExtension>
            <ns3:atemp>13.0</ns3:atemp>
          </ns3:TrackPointExtension>
        </extensions>
      </trkpt>
      <trkpt lat="60.083692073822021484375" lon="15.8314428292214870452880859375">
        <ele>158.8000030517578125</ele>
        <time>2018-08-18T08:32:47.000Z</time>
        <extensions>
          <ns3:TrackPointExtension>
            <ns3:atemp>13.0</ns3:atemp>
          </ns3:TrackPointExtension>
        </extensions>
      </trkpt>
      <trkpt lat="60.084200687706470489501953125" lon="15.830870009958744049072265625">
        <ele>157.399993896484375</ele>
        <time>2018-08-18T08:32:55.000Z</time>
        <extensions>
          <ns3:TrackPointExtension>
            <ns3:atemp>13.0</ns3:atemp>
          </ns3:TrackPointExtension>
        </extensions>
      </trkpt>
      <trkpt lat="60.084269084036350250244140625" lon="15.8308118395507335662841796875">
        <ele>157.399993896484375</ele>
        <time>2018-08-18T08:32:56.000Z</time>
        <extensions>
          <ns3:TrackPointExtension>
            <ns3:atemp>13.0</ns3:atemp>
          </ns3:TrackPointExtension>
        </extensions>
      </trkpt>
      <trkpt lat="60.0847885943949222564697265625" lon="15.83044127561151981353759765625">
        <ele>156.1999969482421875</ele>
        <time>2018-08-18T08:33:04.000Z</time>
        <extensions>
          <ns3:TrackPointExtension>
            <ns3:atemp>13.0</ns3:atemp>
          </ns3:TrackPointExtension>
        </extensions>
      </trkpt>
      <trkpt lat="60.08527533151209354400634765625" lon="15.82998798228800296783447265625">
        <ele>155.600006103515625</ele>
        <time>2018-08-18T08:33:12.000Z</time>
        <extensions>
          <ns3:TrackPointExtension>
            <ns3:atemp>13.0</ns3:atemp>
          </ns3:TrackPointExtension>
        </extensions>
      </trkpt>
      <trkpt lat="60.08566475473344326019287109375" lon="15.82919673062860965728759765625">
        <ele>155.1999969482421875</ele>
        <time>2018-08-18T08:33:20.000Z</time>
        <extensions>
          <ns3:TrackPointExtension>
            <ns3:atemp>13.0</ns3:atemp>
          </ns3:TrackPointExtension>
        </extensions>
      </trkpt>
      <trkpt lat="60.08576114661991596221923828125" lon="15.82899640314280986785888671875">
        <ele>155.1999969482421875</ele>
        <time>2018-08-18T08:33:22.000Z</time>
        <extensions>
          <ns3:TrackPointExtension>
            <ns3:atemp>13.0</ns3:atemp>
          </ns3:TrackPointExtension>
        </extensions>
      </trkpt>
      <trkpt lat="60.08619113825261592864990234375" lon="15.8285936526954174041748046875">
        <ele>154.600006103515625</ele>
        <time>2018-08-18T08:33:29.000Z</time>
        <extensions>
          <ns3:TrackPointExtension>
            <ns3:atemp>13.0</ns3:atemp>
          </ns3:TrackPointExtension>
        </extensions>
      </trkpt>
      <trkpt lat="60.08645717985928058624267578125" lon="15.828545875847339630126953125">
        <ele>154.1999969482421875</ele>
        <time>2018-08-18T08:33:33.000Z</time>
        <extensions>
          <ns3:TrackPointExtension>
            <ns3:atemp>13.0</ns3:atemp>
          </ns3:TrackPointExtension>
        </extensions>
      </trkpt>
      <trkpt lat="60.087019689381122589111328125" lon="15.82872533239424228668212890625">
        <ele>153.399993896484375</ele>
        <time>2018-08-18T08:33:42.000Z</time>
        <extensions>
          <ns3:TrackPointExtension>
            <ns3:atemp>13.0</ns3:atemp>
          </ns3:TrackPointExtension>
        </extensions>
      </trkpt>
      <trkpt lat="60.08760181255638599395751953125" lon="15.82861787639558315277099609375">
        <ele>152.8000030517578125</ele>
        <time>2018-08-18T08:33:51.000Z</time>
        <extensions>
          <ns3:TrackPointExtension>
            <ns3:atemp>13.0</ns3:atemp>
          </ns3:TrackPointExtension>
        </extensions>
      </trkpt>
      <trkpt lat="60.08818401955068111419677734375" lon="15.82846163772046566009521484375">
        <ele>152.1999969482421875</ele>
        <time>2018-08-18T08:34:00.000Z</time>
        <extensions>
          <ns3:TrackPointExtension>
            <ns3:atemp>13.0</ns3:atemp>
          </ns3:TrackPointExtension>
        </extensions>
      </trkpt>
      <trkpt lat="60.0884608738124370574951171875" lon="15.8283552713692188262939453125">
        <ele>151.8000030517578125</ele>
        <time>2018-08-18T08:34:05.000Z</time>
        <extensions>
          <ns3:TrackPointExtension>
            <ns3:atemp>13.0</ns3:atemp>
          </ns3:TrackPointExtension>
        </extensions>
      </trkpt>
      <trkpt lat="60.08889547549188137054443359375" lon="15.82822543568909168243408203125">
        <ele>151.399993896484375</ele>
        <time>2018-08-18T08:34:13.000Z</time>
        <extensions>
          <ns3:TrackPointExtension>
            <ns3:atemp>13.0</ns3:atemp>
          </ns3:TrackPointExtension>
        </extensions>
      </trkpt>
      <trkpt lat="60.08914324454963207244873046875" lon="15.82813759334385395050048828125">
        <ele>151</ele>
        <time>2018-08-18T08:34:17.000Z</time>
        <extensions>
          <ns3:TrackPointExtension>
            <ns3:atemp>13.0</ns3:atemp>
          </ns3:TrackPointExtension>
        </extensions>
      </trkpt>
      <trkpt lat="60.08967298083007335662841796875" lon="15.82793760113418102264404296875">
        <ele>150.399993896484375</ele>
        <time>2018-08-18T08:34:24.000Z</time>
        <extensions>
          <ns3:TrackPointExtension>
            <ns3:atemp>13.0</ns3:atemp>
          </ns3:TrackPointExtension>
        </extensions>
      </trkpt>
      <trkpt lat="60.0901468098163604736328125" lon="15.8277946896851062774658203125">
        <ele>150</ele>
        <time>2018-08-18T08:34:30.000Z</time>
        <extensions>
          <ns3:TrackPointExtension>
            <ns3:atemp>13.0</ns3:atemp>
          </ns3:TrackPointExtension>
        </extensions>
      </trkpt>
      <trkpt lat="60.0902862846851348876953125" lon="15.82778253592550754547119140625">
        <ele>149.8000030517578125</ele>
        <time>2018-08-18T08:34:32.000Z</time>
        <extensions>
          <ns3:TrackPointExtension>
            <ns3:atemp>13.0</ns3:atemp>
          </ns3:TrackPointExtension>
        </extensions>
      </trkpt>
      <trkpt lat="60.0906401686370372772216796875" lon="15.82770659588277339935302734375">
        <ele>149.399993896484375</ele>
        <time>2018-08-18T08:34:37.000Z</time>
        <extensions>
          <ns3:TrackPointExtension>
            <ns3:atemp>13.0</ns3:atemp>
          </ns3:TrackPointExtension>
        </extensions>
      </trkpt>
      <trkpt lat="60.091182477772235870361328125" lon="15.8275241218507289886474609375">
        <ele>149</ele>
        <time>2018-08-18T08:34:46.000Z</time>
        <extensions>
          <ns3:TrackPointExtension>
            <ns3:atemp>13.0</ns3:atemp>
          </ns3:TrackPointExtension>
        </extensions>
      </trkpt>
      <trkpt lat="60.09136310778558254241943359375" lon="15.82742345519363880157470703125">
        <ele>148.8000030517578125</ele>
        <time>2018-08-18T08:34:51.000Z</time>
        <extensions>
          <ns3:TrackPointExtension>
            <ns3:atemp>13.0</ns3:atemp>
          </ns3:TrackPointExtension>
        </extensions>
      </trkpt>
      <trkpt lat="60.09131533093750476837158203125" lon="15.826308913528919219970703125">
        <ele>149.1999969482421875</ele>
        <time>2018-08-18T08:35:02.000Z</time>
        <extensions>
          <ns3:TrackPointExtension>
            <ns3:atemp>13.0</ns3:atemp>
          </ns3:TrackPointExtension>
        </extensions>
      </trkpt>
      <trkpt lat="60.09119488298892974853515625" lon="15.8251798711717128753662109375">
        <ele>149.8000030517578125</ele>
        <time>2018-08-18T08:35:11.000Z</time>
        <extensions>
          <ns3:TrackPointExtension>
            <ns3:atemp>13.0</ns3:atemp>
          </ns3:TrackPointExtension>
        </extensions>
      </trkpt>
      <trkpt lat="60.09108533151447772979736328125" lon="15.82412199117243289947509765625">
        <ele>150.1999969482421875</ele>
        <time>2018-08-18T08:35:19.000Z</time>
        <extensions>
          <ns3:TrackPointExtension>
            <ns3:atemp>13.0</ns3:atemp>
          </ns3:TrackPointExtension>
        </extensions>
      </trkpt>
      <trkpt lat="60.0909707508981227874755859375" lon="15.82294919528067111968994140625">
        <ele>150.399993896484375</ele>
        <time>2018-08-18T08:35:28.000Z</time>
        <extensions>
          <ns3:TrackPointExtension>
            <ns3:atemp>13.0</ns3:atemp>
          </ns3:TrackPointExtension>
        </extensions>
      </trkpt>
      <trkpt lat="60.09085298515856266021728515625" lon="15.8218794129788875579833984375">
        <ele>150.399993896484375</ele>
        <time>2018-08-18T08:35:36.000Z</time>
        <extensions>
          <ns3:TrackPointExtension>
            <ns3:atemp>13.0</ns3:atemp>
          </ns3:TrackPointExtension>
        </extensions>
      </trkpt>
      <trkpt lat="60.09073329158127307891845703125" lon="15.82078649662435054779052734375">
        <ele>150.600006103515625</ele>
        <time>2018-08-18T08:35:44.000Z</time>
        <extensions>
          <ns3:TrackPointExtension>
            <ns3:atemp>13.0</ns3:atemp>
          </ns3:TrackPointExtension>
        </extensions>
      </trkpt>
      <trkpt lat="60.090613849461078643798828125" lon="15.8196937479078769683837890625">
        <ele>150.8000030517578125</ele>
        <time>2018-08-18T08:35:52.000Z</time>
        <extensions>
          <ns3:TrackPointExtension>
            <ns3:atemp>13.0</ns3:atemp>
          </ns3:TrackPointExtension>
        </extensions>
      </trkpt>
      <trkpt lat="60.09050647728145122528076171875" lon="15.81858255900442600250244140625">
        <ele>151.1999969482421875</ele>
        <time>2018-08-18T08:36:00.000Z</time>
        <extensions>
          <ns3:TrackPointExtension>
            <ns3:atemp>13.0</ns3:atemp>
          </ns3:TrackPointExtension>
        </extensions>
      </trkpt>
      <trkpt lat="60.09056850336492061614990234375" lon="15.81738344393670558929443359375">
        <ele>151.600006103515625</ele>
        <time>2018-08-18T08:36:08.000Z</time>
        <extensions>
          <ns3:TrackPointExtension>
            <ns3:atemp>13.0</ns3:atemp>
          </ns3:TrackPointExtension>
        </extensions>
      </trkpt>
      <trkpt lat="60.090658776462078094482421875" lon="15.8169216848909854888916015625">
        <ele>151.8000030517578125</ele>
        <time>2018-08-18T08:36:11.000Z</time>
        <extensions>
          <ns3:TrackPointExtension>
            <ns3:atemp>13.0</ns3:atemp>
          </ns3:TrackPointExtension>
        </extensions>
      </trkpt>
      <trkpt lat="60.090881399810314178466796875" lon="15.81590772606432437896728515625">
        <ele>152</ele>
        <time>2018-08-18T08:36:18.000Z</time>
        <extensions>
          <ns3:TrackPointExtension>
            <ns3:atemp>13.0</ns3:atemp>
          </ns3:TrackPointExtension>
        </extensions>
      </trkpt>
      <trkpt lat="60.09112439118325710296630859375" lon="15.8149398677051067352294921875">
        <ele>151.8000030517578125</ele>
        <time>2018-08-18T08:36:25.000Z</time>
        <extensions>
          <ns3:TrackPointExtension>
            <ns3:atemp>13.0</ns3:atemp>
          </ns3:TrackPointExtension>
        </extensions>
      </trkpt>
      <trkpt lat="60.09137350134551525115966796875" lon="15.81396278925240039825439453125">
        <ele>151.600006103515625</ele>
        <time>2018-08-18T08:36:32.000Z</time>
        <extensions>
          <ns3:TrackPointExtension>
            <ns3:atemp>13.0</ns3:atemp>
          </ns3:TrackPointExtension>
        </extensions>
      </trkpt>
      <trkpt lat="60.091604255139827728271484375" lon="15.812987387180328369140625">
        <ele>151.399993896484375</ele>
        <time>2018-08-18T08:36:39.000Z</time>
        <extensions>
          <ns3:TrackPointExtension>
            <ns3:atemp>13.0</ns3:atemp>
          </ns3:TrackPointExtension>
        </extensions>
      </trkpt>
      <trkpt lat="60.09185068309307098388671875" lon="15.81197342835366725921630859375">
        <ele>151.600006103515625</ele>
        <time>2018-08-18T08:36:46.000Z</time>
        <extensions>
          <ns3:TrackPointExtension>
            <ns3:atemp>13.0</ns3:atemp>
          </ns3:TrackPointExtension>
        </extensions>
      </trkpt>
      <trkpt lat="60.09195000864565372467041015625" lon="15.81135325133800506591796875">
        <ele>151.8000030517578125</ele>
        <time>2018-08-18T08:36:50.000Z</time>
        <extensions>
          <ns3:TrackPointExtension>
            <ns3:atemp>13.0</ns3:atemp>
          </ns3:TrackPointExtension>
        </extensions>
      </trkpt>
      <trkpt lat="60.09200482629239559173583984375" lon="15.81059996969997882843017578125">
        <ele>152</ele>
        <time>2018-08-18T08:36:55.000Z</time>
        <extensions>
          <ns3:TrackPointExtension>
            <ns3:atemp>13.0</ns3:atemp>
          </ns3:TrackPointExtension>
        </extensions>
      </trkpt>
      <trkpt lat="60.091976411640644073486328125" lon="15.8098031021654605865478515625">
        <ele>152.1999969482421875</ele>
        <time>2018-08-18T08:37:01.000Z</time>
        <extensions>
          <ns3:TrackPointExtension>
            <ns3:atemp>13.0</ns3:atemp>
          </ns3:TrackPointExtension>
        </extensions>
      </trkpt>
      <trkpt lat="60.09188429452478885650634765625" lon="15.8091692626476287841796875">
        <ele>152.600006103515625</ele>
        <time>2018-08-18T08:37:07.000Z</time>
        <extensions>
          <ns3:TrackPointExtension>
            <ns3:atemp>14.0</ns3:atemp>
          </ns3:TrackPointExtension>
        </extensions>
      </trkpt>
      <trkpt lat="60.091866441071033477783203125" lon="15.80906775780022144317626953125">
        <ele>152.600006103515625</ele>
        <time>2018-08-18T08:37:08.000Z</time>
        <extensions>
          <ns3:TrackPointExtension>
            <ns3:atemp>14.0</ns3:atemp>
          </ns3:TrackPointExtension>
        </extensions>
      </trkpt>
      <trkpt lat="60.0918062590062618255615234375" lon="15.8087749779224395751953125">
        <ele>152.600006103515625</ele>
        <time>2018-08-18T08:37:11.000Z</time>
        <extensions>
          <ns3:TrackPointExtension>
            <ns3:atemp>14.0</ns3:atemp>
          </ns3:TrackPointExtension>
        </extensions>
      </trkpt>
      <trkpt lat="60.09173744358122348785400390625" lon="15.8084884844720363616943359375">
        <ele>152.8000030517578125</ele>
        <time>2018-08-18T08:37:14.000Z</time>
        <extensions>
          <ns3:TrackPointExtension>
            <ns3:atemp>14.0</ns3:atemp>
          </ns3:TrackPointExtension>
        </extensions>
      </trkpt>
      <trkpt lat="60.0917164050042629241943359375" lon="15.80839745700359344482421875">
        <ele>152.8000030517578125</ele>
        <time>2018-08-18T08:37:15.000Z</time>
        <extensions>
          <ns3:TrackPointExtension>
            <ns3:atemp>14.0</ns3:atemp>
          </ns3:TrackPointExtension>
        </extensions>
      </trkpt>
      <trkpt lat="60.09161741472780704498291015625" lon="15.8080499432981014251708984375">
        <ele>153</ele>
        <time>2018-08-18T08:37:19.000Z</time>
        <extensions>
          <ns3:TrackPointExtension>
            <ns3:atemp>14.0</ns3:atemp>
          </ns3:TrackPointExtension>
        </extensions>
      </trkpt>
      <trkpt lat="60.0914438255131244659423828125" lon="15.8073495514690876007080078125">
        <ele>153.399993896484375</ele>
        <time>2018-08-18T08:37:27.000Z</time>
        <extensions>
          <ns3:TrackPointExtension>
            <ns3:atemp>14.0</ns3:atemp>
          </ns3:TrackPointExtension>
        </extensions>
      </trkpt>
      <trkpt lat="60.09142412804067134857177734375" lon="15.8072677440941333770751953125">
        <ele>153.399993896484375</ele>
        <time>2018-08-18T08:37:28.000Z</time>
        <extensions>
          <ns3:TrackPointExtension>
            <ns3:atemp>14.0</ns3:atemp>
          </ns3:TrackPointExtension>
        </extensions>
      </trkpt>
      <trkpt lat="60.09135556407272815704345703125" lon="15.8069472201168537139892578125">
        <ele>153.8000030517578125</ele>
        <time>2018-08-18T08:37:32.000Z</time>
        <extensions>
          <ns3:TrackPointExtension>
            <ns3:atemp>14.0</ns3:atemp>
          </ns3:TrackPointExtension>
        </extensions>
      </trkpt>
      <trkpt lat="60.09134382940828800201416015625" lon="15.80686415545642375946044921875">
        <ele>153.8000030517578125</ele>
        <time>2018-08-18T08:37:33.000Z</time>
        <extensions>
          <ns3:TrackPointExtension>
            <ns3:atemp>14.0</ns3:atemp>
          </ns3:TrackPointExtension>
        </extensions>
      </trkpt>
      <trkpt lat="60.091324634850025177001953125" lon="15.8066283725202083587646484375">
        <ele>154.1999969482421875</ele>
        <time>2018-08-18T08:37:36.000Z</time>
        <extensions>
          <ns3:TrackPointExtension>
            <ns3:atemp>14.0</ns3:atemp>
          </ns3:TrackPointExtension>
        </extensions>
      </trkpt>
      <trkpt lat="60.09130024351179599761962890625" lon="15.80646903254091739654541015625">
        <ele>154.1999969482421875</ele>
        <time>2018-08-18T08:37:38.000Z</time>
        <extensions>
          <ns3:TrackPointExtension>
            <ns3:atemp>14.0</ns3:atemp>
          </ns3:TrackPointExtension>
        </extensions>
      </trkpt>
      <trkpt lat="60.09127669036388397216796875" lon="15.80621690489351749420166015625">
        <ele>154.600006103515625</ele>
        <time>2018-08-18T08:37:41.000Z</time>
        <extensions>
          <ns3:TrackPointExtension>
            <ns3:atemp>14.0</ns3:atemp>
          </ns3:TrackPointExtension>
        </extensions>
      </trkpt>
      <trkpt lat="60.091252885758876800537109375" lon="15.8059440739452838897705078125">
        <ele>154.8000030517578125</ele>
        <time>2018-08-18T08:37:44.000Z</time>
        <extensions>
          <ns3:TrackPointExtension>
            <ns3:atemp>14.0</ns3:atemp>
          </ns3:TrackPointExtension>
        </extensions>
      </trkpt>
      <trkpt lat="60.09123201481997966766357421875" lon="15.8055497892200946807861328125">
        <ele>155.1999969482421875</ele>
        <time>2018-08-18T08:37:48.000Z</time>
        <extensions>
          <ns3:TrackPointExtension>
            <ns3:atemp>14.0</ns3:atemp>
          </ns3:TrackPointExtension>
        </extensions>
      </trkpt>
      <trkpt lat="60.0912331044673919677734375" lon="15.805449374020099639892578125">
        <ele>155.1999969482421875</ele>
        <time>2018-08-18T08:37:49.000Z</time>
        <extensions>
          <ns3:TrackPointExtension>
            <ns3:atemp>14.0</ns3:atemp>
          </ns3:TrackPointExtension>
        </extensions>
      </trkpt>
      <trkpt lat="60.091221034526824951171875" lon="15.804497860372066497802734375">
        <ele>156.1999969482421875</ele>
        <time>2018-08-18T08:37:59.000Z</time>
        <extensions>
          <ns3:TrackPointExtension>
            <ns3:atemp>14.0</ns3:atemp>
          </ns3:TrackPointExtension>
        </extensions>
      </trkpt>
      <trkpt lat="60.09120988659560680389404296875" lon="15.80422435887157917022705078125">
        <ele>156.399993896484375</ele>
        <time>2018-08-18T08:38:02.000Z</time>
        <extensions>
          <ns3:TrackPointExtension>
            <ns3:atemp>14.0</ns3:atemp>
          </ns3:TrackPointExtension>
        </extensions>
      </trkpt>
      <trkpt lat="60.09120049886405467987060546875" lon="15.8040397055447101593017578125">
        <ele>156.600006103515625</ele>
        <time>2018-08-18T08:38:04.000Z</time>
        <extensions>
          <ns3:TrackPointExtension>
            <ns3:atemp>14.0</ns3:atemp>
          </ns3:TrackPointExtension>
        </extensions>
      </trkpt>
      <trkpt lat="60.09118683636188507080078125" lon="15.80292516387999057769775390625">
        <ele>157.399993896484375</ele>
        <time>2018-08-18T08:38:14.000Z</time>
        <extensions>
          <ns3:TrackPointExtension>
            <ns3:atemp>14.0</ns3:atemp>
          </ns3:TrackPointExtension>
        </extensions>
      </trkpt>
      <trkpt lat="60.09117208421230316162109375" lon="15.80178447067737579345703125">
        <ele>158.1999969482421875</ele>
        <time>2018-08-18T08:38:22.000Z</time>
        <extensions>
          <ns3:TrackPointExtension>
            <ns3:atemp>14.0</ns3:atemp>
          </ns3:TrackPointExtension>
        </extensions>
      </trkpt>
      <trkpt lat="60.0911648757755756378173828125" lon="15.8005942404270172119140625">
        <ele>158.8000030517578125</ele>
        <time>2018-08-18T08:38:31.000Z</time>
        <extensions>
          <ns3:TrackPointExtension>
            <ns3:atemp>14.0</ns3:atemp>
          </ns3:TrackPointExtension>
        </extensions>
      </trkpt>
      <trkpt lat="60.0911625288426876068115234375" lon="15.8001055754721164703369140625">
        <ele>159.1999969482421875</ele>
        <time>2018-08-18T08:38:35.000Z</time>
        <extensions>
          <ns3:TrackPointExtension>
            <ns3:atemp>14.0</ns3:atemp>
          </ns3:TrackPointExtension>
        </extensions>
      </trkpt>
      <trkpt lat="60.0911714136600494384765625" lon="15.79929730854928493499755859375">
        <ele>159.600006103515625</ele>
        <time>2018-08-18T08:38:43.000Z</time>
        <extensions>
          <ns3:TrackPointExtension>
            <ns3:atemp>14.0</ns3:atemp>
          </ns3:TrackPointExtension>
        </extensions>
      </trkpt>
      <trkpt lat="60.09113696403801441192626953125" lon="15.79915724694728851318359375">
        <ele>159.8000030517578125</ele>
        <time>2018-08-18T08:38:45.000Z</time>
        <extensions>
          <ns3:TrackPointExtension>
            <ns3:atemp>14.0</ns3:atemp>
          </ns3:TrackPointExtension>
        </extensions>
      </trkpt>
      <trkpt lat="60.0908785499632358551025390625" lon="15.79923813231289386749267578125">
        <ele>160</ele>
        <time>2018-08-18T08:38:52.000Z</time>
        <extensions>
          <ns3:TrackPointExtension>
            <ns3:atemp>14.0</ns3:atemp>
          </ns3:TrackPointExtension>
        </extensions>
      </trkpt>
      <trkpt lat="60.0907494686543941497802734375" lon="15.7994004897773265838623046875">
        <ele>160</ele>
        <time>2018-08-18T08:38:55.000Z</time>
        <extensions>
          <ns3:TrackPointExtension>
            <ns3:atemp>14.0</ns3:atemp>
          </ns3:TrackPointExtension>
        </extensions>
      </trkpt>
      <trkpt lat="60.09028494358062744140625" lon="15.7999909110367298126220703125">
        <ele>159.8000030517578125</ele>
        <time>2018-08-18T08:39:04.000Z</time>
        <extensions>
          <ns3:TrackPointExtension>
            <ns3:atemp>14.0</ns3:atemp>
          </ns3:TrackPointExtension>
        </extensions>
      </trkpt>
      <trkpt lat="60.09005888365209102630615234375" lon="15.800253935158252716064453125">
        <ele>159.8000030517578125</ele>
        <time>2018-08-18T08:39:08.000Z</time>
        <extensions>
          <ns3:TrackPointExtension>
            <ns3:atemp>14.0</ns3:atemp>
          </ns3:TrackPointExtension>
        </extensions>
      </trkpt>
      <trkpt lat="60.08959352038800716400146484375" lon="15.8008438535034656524658203125">
        <ele>159.8000030517578125</ele>
        <time>2018-08-18T08:39:17.000Z</time>
        <extensions>
          <ns3:TrackPointExtension>
            <ns3:atemp>14.0</ns3:atemp>
          </ns3:TrackPointExtension>
        </extensions>
      </trkpt>
      <trkpt lat="60.08906948380172252655029296875" lon="15.80144927836954593658447265625">
        <ele>159.8000030517578125</ele>
        <time>2018-08-18T08:39:26.000Z</time>
        <extensions>
          <ns3:TrackPointExtension>
            <ns3:atemp>14.0</ns3:atemp>
          </ns3:TrackPointExtension>
        </extensions>
      </trkpt>
      <trkpt lat="60.0889530591666698455810546875" lon="15.80159059725701808929443359375">
        <ele>159.8000030517578125</ele>
        <time>2018-08-18T08:39:28.000Z</time>
        <extensions>
          <ns3:TrackPointExtension>
            <ns3:atemp>14.0</ns3:atemp>
          </ns3:TrackPointExtension>
        </extensions>
      </trkpt>
      <trkpt lat="60.08844033814966678619384765625" lon="15.802217982709407806396484375">
        <ele>159.399993896484375</ele>
        <time>2018-08-18T08:39:37.000Z</time>
        <extensions>
          <ns3:TrackPointExtension>
            <ns3:atemp>14.0</ns3:atemp>
          </ns3:TrackPointExtension>
        </extensions>
      </trkpt>
      <trkpt lat="60.0883891247212886810302734375" lon="15.80228227190673351287841796875">
        <ele>159.399993896484375</ele>
        <time>2018-08-18T08:39:38.000Z</time>
        <extensions>
          <ns3:TrackPointExtension>
            <ns3:atemp>14.0</ns3:atemp>
          </ns3:TrackPointExtension>
        </extensions>
      </trkpt>
      <trkpt lat="60.08800171315670013427734375" lon="15.80269617028534412384033203125">
        <ele>159</ele>
        <time>2018-08-18T08:39:46.000Z</time>
        <extensions>
          <ns3:TrackPointExtension>
            <ns3:atemp>14.0</ns3:atemp>
          </ns3:TrackPointExtension>
        </extensions>
      </trkpt>
      <trkpt lat="60.08744507096707820892333984375" lon="15.80296204425394535064697265625">
        <ele>159</ele>
        <time>2018-08-18T08:39:55.000Z</time>
        <extensions>
          <ns3:TrackPointExtension>
            <ns3:atemp>14.0</ns3:atemp>
          </ns3:TrackPointExtension>
        </extensions>
      </trkpt>
      <trkpt lat="60.08690200746059417724609375" lon="15.8032442629337310791015625">
        <ele>159</ele>
        <time>2018-08-18T08:40:04.000Z</time>
        <extensions>
          <ns3:TrackPointExtension>
            <ns3:atemp>14.0</ns3:atemp>
          </ns3:TrackPointExtension>
        </extensions>
      </trkpt>
      <trkpt lat="60.08633597753942012786865234375" lon="15.80349437892436981201171875">
        <ele>160</ele>
        <time>2018-08-18T08:40:13.000Z</time>
        <extensions>
          <ns3:TrackPointExtension>
            <ns3:atemp>14.0</ns3:atemp>
          </ns3:TrackPointExtension>
        </extensions>
      </trkpt>
      <trkpt lat="60.08601394481956958770751953125" lon="15.80363812856376171112060546875">
        <ele>161</ele>
        <time>2018-08-18T08:40:18.000Z</time>
        <extensions>
          <ns3:TrackPointExtension>
            <ns3:atemp>14.0</ns3:atemp>
          </ns3:TrackPointExtension>
        </extensions>
      </trkpt>
      <trkpt lat="60.08595627732574939727783203125" lon="15.80365438945591449737548828125">
        <ele>161.1999969482421875</ele>
        <time>2018-08-18T08:40:19.000Z</time>
        <extensions>
          <ns3:TrackPointExtension>
            <ns3:atemp>14.0</ns3:atemp>
          </ns3:TrackPointExtension>
        </extensions>
      </trkpt>
      <trkpt lat="60.08550189435482025146484375" lon="15.80389444716274738311767578125">
        <ele>162.600006103515625</ele>
        <time>2018-08-18T08:40:26.000Z</time>
        <extensions>
          <ns3:TrackPointExtension>
            <ns3:atemp>14.0</ns3:atemp>
          </ns3:TrackPointExtension>
        </extensions>
      </trkpt>
      <trkpt lat="60.08531003259122371673583984375" lon="15.80401766113936901092529296875">
        <ele>163.1999969482421875</ele>
        <time>2018-08-18T08:40:29.000Z</time>
        <extensions>
          <ns3:TrackPointExtension>
            <ns3:atemp>14.0</ns3:atemp>
          </ns3:TrackPointExtension>
        </extensions>
      </trkpt>
      <trkpt lat="60.08477057330310344696044921875" lon="15.80435930751264095306396484375">
        <ele>164.8000030517578125</ele>
        <time>2018-08-18T08:40:38.000Z</time>
        <extensions>
          <ns3:TrackPointExtension>
            <ns3:atemp>14.0</ns3:atemp>
          </ns3:TrackPointExtension>
        </extensions>
      </trkpt>
      <trkpt lat="60.0842387415468692779541015625" lon="15.80466491170227527618408203125">
        <ele>166.399993896484375</ele>
        <time>2018-08-18T08:40:48.000Z</time>
        <extensions>
          <ns3:TrackPointExtension>
            <ns3:atemp>14.0</ns3:atemp>
          </ns3:TrackPointExtension>
        </extensions>
      </trkpt>
      <trkpt lat="60.08399675600230693817138671875" lon="15.8047987706959247589111328125">
        <ele>167.1999969482421875</ele>
        <time>2018-08-18T08:40:54.000Z</time>
        <extensions>
          <ns3:TrackPointExtension>
            <ns3:atemp>14.0</ns3:atemp>
          </ns3:TrackPointExtension>
        </extensions>
      </trkpt>
      <trkpt lat="60.083769522607326507568359375" lon="15.80492575652897357940673828125">
        <ele>167.600006103515625</ele>
        <time>2018-08-18T08:40:59.000Z</time>
        <extensions>
          <ns3:TrackPointExtension>
            <ns3:atemp>14.0</ns3:atemp>
          </ns3:TrackPointExtension>
        </extensions>
      </trkpt>
      <trkpt lat="60.08322629146277904510498046875" lon="15.805214680731296539306640625">
        <ele>168.8000030517578125</ele>
        <time>2018-08-18T08:41:11.000Z</time>
        <extensions>
          <ns3:TrackPointExtension>
            <ns3:atemp>14.0</ns3:atemp>
          </ns3:TrackPointExtension>
        </extensions>
      </trkpt>
      <trkpt lat="60.08304205723106861114501953125" lon="15.80532557331025600433349609375">
        <ele>169.1999969482421875</ele>
        <time>2018-08-18T08:41:15.000Z</time>
        <extensions>
          <ns3:TrackPointExtension>
            <ns3:atemp>14.0</ns3:atemp>
          </ns3:TrackPointExtension>
        </extensions>
      </trkpt>
      <trkpt lat="60.082754977047443389892578125" lon="15.80549891106784343719482421875">
        <ele>169.8000030517578125</ele>
        <time>2018-08-18T08:41:22.000Z</time>
        <extensions>
          <ns3:TrackPointExtension>
            <ns3:atemp>14.0</ns3:atemp>
          </ns3:TrackPointExtension>
        </extensions>
      </trkpt>
      <trkpt lat="60.0825211219489574432373046875" lon="15.80561022274196147918701171875">
        <ele>170.399993896484375</ele>
        <time>2018-08-18T08:41:28.000Z</time>
        <extensions>
          <ns3:TrackPointExtension>
            <ns3:atemp>14.0</ns3:atemp>
          </ns3:TrackPointExtension>
        </extensions>
      </trkpt>
      <trkpt lat="60.0824081338942050933837890625" lon="15.805659592151641845703125">
        <ele>170.600006103515625</ele>
        <time>2018-08-18T08:41:31.000Z</time>
        <extensions>
          <ns3:TrackPointExtension>
            <ns3:atemp>14.0</ns3:atemp>
          </ns3:TrackPointExtension>
        </extensions>
      </trkpt>
      <trkpt lat="60.08211426436901092529296875" lon="15.80579361878335475921630859375">
        <ele>171.1999969482421875</ele>
        <time>2018-08-18T08:41:39.000Z</time>
        <extensions>
          <ns3:TrackPointExtension>
            <ns3:atemp>14.0</ns3:atemp>
          </ns3:TrackPointExtension>
        </extensions>
      </trkpt>
      <trkpt lat="60.0819836743175983428955078125" lon="15.80583603121340274810791015625">
        <ele>171.600006103515625</ele>
        <time>2018-08-18T08:41:43.000Z</time>
        <extensions>
          <ns3:TrackPointExtension>
            <ns3:atemp>14.0</ns3:atemp>
          </ns3:TrackPointExtension>
        </extensions>
      </trkpt>
      <trkpt lat="60.0818918086588382720947265625" lon="15.8058686368167400360107421875">
        <ele>171.8000030517578125</ele>
        <time>2018-08-18T08:41:46.000Z</time>
        <extensions>
          <ns3:TrackPointExtension>
            <ns3:atemp>14.0</ns3:atemp>
          </ns3:TrackPointExtension>
        </extensions>
      </trkpt>
      <trkpt lat="60.08180488832294940948486328125" lon="15.80590241588652133941650390625">
        <ele>172</ele>
        <time>2018-08-18T08:41:49.000Z</time>
        <extensions>
          <ns3:TrackPointExtension>
            <ns3:atemp>14.0</ns3:atemp>
          </ns3:TrackPointExtension>
        </extensions>
      </trkpt>
      <trkpt lat="60.0816403515636920928955078125" lon="15.80595798790454864501953125">
        <ele>172.399993896484375</ele>
        <time>2018-08-18T08:41:55.000Z</time>
        <extensions>
          <ns3:TrackPointExtension>
            <ns3:atemp>14.0</ns3:atemp>
          </ns3:TrackPointExtension>
        </extensions>
      </trkpt>
      <trkpt lat="60.0815250165760517120361328125" lon="15.80598615109920501708984375">
        <ele>172.8000030517578125</ele>
        <time>2018-08-18T08:42:00.000Z</time>
        <extensions>
          <ns3:TrackPointExtension>
            <ns3:atemp>14.0</ns3:atemp>
          </ns3:TrackPointExtension>
        </extensions>
      </trkpt>
      <trkpt lat="60.08145050145685672760009765625" lon="15.806013979017734527587890625">
        <ele>173</ele>
        <time>2018-08-18T08:42:03.000Z</time>
        <extensions>
          <ns3:TrackPointExtension>
            <ns3:atemp>14.0</ns3:atemp>
          </ns3:TrackPointExtension>
        </extensions>
      </trkpt>
      <trkpt lat="60.081370957195758819580078125" lon="15.80605211667716503143310546875">
        <ele>173.1999969482421875</ele>
        <time>2018-08-18T08:42:06.000Z</time>
        <extensions>
          <ns3:TrackPointExtension>
            <ns3:atemp>14.0</ns3:atemp>
          </ns3:TrackPointExtension>
        </extensions>
      </trkpt>
      <trkpt lat="60.0812269560992717742919921875" lon="15.8061227761209011077880859375">
        <ele>173.399993896484375</ele>
        <time>2018-08-18T08:42:11.000Z</time>
        <extensions>
          <ns3:TrackPointExtension>
            <ns3:atemp>14.0</ns3:atemp>
          </ns3:TrackPointExtension>
        </extensions>
      </trkpt>
      <trkpt lat="60.08112193085253238677978515625" lon="15.8061757497489452362060546875">
        <ele>173.600006103515625</ele>
        <time>2018-08-18T08:42:15.000Z</time>
        <extensions>
          <ns3:TrackPointExtension>
            <ns3:atemp>14.0</ns3:atemp>
          </ns3:TrackPointExtension>
        </extensions>
      </trkpt>
      <trkpt lat="60.08101724088191986083984375" lon="15.8062340877950191497802734375">
        <ele>174</ele>
        <time>2018-08-18T08:42:19.000Z</time>
        <extensions>
          <ns3:TrackPointExtension>
            <ns3:atemp>14.0</ns3:atemp>
          </ns3:TrackPointExtension>
        </extensions>
      </trkpt>
      <trkpt lat="60.080800317227840423583984375" lon="15.80632972531020641326904296875">
        <ele>174.399993896484375</ele>
        <time>2018-08-18T08:42:27.000Z</time>
        <extensions>
          <ns3:TrackPointExtension>
            <ns3:atemp>14.0</ns3:atemp>
          </ns3:TrackPointExtension>
        </extensions>
      </trkpt>
      <trkpt lat="60.080682970583438873291015625" lon="15.8063856326043605804443359375">
        <ele>174.600006103515625</ele>
        <time>2018-08-18T08:42:31.000Z</time>
        <extensions>
          <ns3:TrackPointExtension>
            <ns3:atemp>15.0</ns3:atemp>
          </ns3:TrackPointExtension>
        </extensions>
      </trkpt>
      <trkpt lat="60.0805579125881195068359375" lon="15.80645578913390636444091796875">
        <ele>175</ele>
        <time>2018-08-18T08:42:35.000Z</time>
        <extensions>
          <ns3:TrackPointExtension>
            <ns3:atemp>15.0</ns3:atemp>
          </ns3:TrackPointExtension>
        </extensions>
      </trkpt>
      <trkpt lat="60.0804157555103302001953125" lon="15.80655419267714023590087890625">
        <ele>175.1999969482421875</ele>
        <time>2018-08-18T08:42:40.000Z</time>
        <extensions>
          <ns3:TrackPointExtension>
            <ns3:atemp>15.0</ns3:atemp>
          </ns3:TrackPointExtension>
        </extensions>
      </trkpt>
      <trkpt lat="60.08026429452002048492431640625" lon="15.80666500143706798553466796875">
        <ele>175.399993896484375</ele>
        <time>2018-08-18T08:42:46.000Z</time>
        <extensions>
          <ns3:TrackPointExtension>
            <ns3:atemp>15.0</ns3:atemp>
          </ns3:TrackPointExtension>
        </extensions>
      </trkpt>
      <trkpt lat="60.08008249104022979736328125" lon="15.80681989900767803192138671875">
        <ele>175.8000030517578125</ele>
        <time>2018-08-18T08:42:53.000Z</time>
        <extensions>
          <ns3:TrackPointExtension>
            <ns3:atemp>15.0</ns3:atemp>
          </ns3:TrackPointExtension>
        </extensions>
      </trkpt>
      <trkpt lat="60.0799039565026760101318359375" lon="15.80699306912720203399658203125">
        <ele>176</ele>
        <time>2018-08-18T08:43:00.000Z</time>
        <extensions>
          <ns3:TrackPointExtension>
            <ns3:atemp>15.0</ns3:atemp>
          </ns3:TrackPointExtension>
        </extensions>
      </trkpt>
      <trkpt lat="60.07978878915309906005859375" lon="15.8071091584861278533935546875">
        <ele>176.1999969482421875</ele>
        <time>2018-08-18T08:43:05.000Z</time>
        <extensions>
          <ns3:TrackPointExtension>
            <ns3:atemp>15.0</ns3:atemp>
          </ns3:TrackPointExtension>
        </extensions>
      </trkpt>
      <trkpt lat="60.07970019243657588958740234375" lon="15.8071933127939701080322265625">
        <ele>176.399993896484375</ele>
        <time>2018-08-18T08:43:08.000Z</time>
        <extensions>
          <ns3:TrackPointExtension>
            <ns3:atemp>15.0</ns3:atemp>
          </ns3:TrackPointExtension>
        </extensions>
      </trkpt>
      <trkpt lat="60.07963724434375762939453125" lon="15.80725324340164661407470703125">
        <ele>176.399993896484375</ele>
        <time>2018-08-18T08:43:10.000Z</time>
        <extensions>
          <ns3:TrackPointExtension>
            <ns3:atemp>15.0</ns3:atemp>
          </ns3:TrackPointExtension>
        </extensions>
      </trkpt>
      <trkpt lat="60.07941587828099727630615234375" lon="15.80742649734020233154296875">
        <ele>176.8000030517578125</ele>
        <time>2018-08-18T08:43:16.000Z</time>
        <extensions>
          <ns3:TrackPointExtension>
            <ns3:atemp>15.0</ns3:atemp>
          </ns3:TrackPointExtension>
        </extensions>
      </trkpt>
      <trkpt lat="60.0793728791177272796630859375" lon="15.80745809711515903472900390625">
        <ele>177</ele>
        <time>2018-08-18T08:43:17.000Z</time>
        <extensions>
          <ns3:TrackPointExtension>
            <ns3:atemp>15.0</ns3:atemp>
          </ns3:TrackPointExtension>
        </extensions>
      </trkpt>
      <trkpt lat="60.07928528822958469390869140625" lon="15.8075269125401973724365234375">
        <ele>177.1999969482421875</ele>
        <time>2018-08-18T08:43:19.000Z</time>
        <extensions>
          <ns3:TrackPointExtension>
            <ns3:atemp>15.0</ns3:atemp>
          </ns3:TrackPointExtension>
        </extensions>
      </trkpt>
      <trkpt lat="60.07877265103161334991455078125" lon="15.8080053515732288360595703125">
        <ele>178.600006103515625</ele>
        <time>2018-08-18T08:43:32.000Z</time>
        <extensions>
          <ns3:TrackPointExtension>
            <ns3:atemp>15.0</ns3:atemp>
          </ns3:TrackPointExtension>
        </extensions>
      </trkpt>
      <trkpt lat="60.07858523167669773101806640625" lon="15.80822353251278400421142578125">
        <ele>178.399993896484375</ele>
        <time>2018-08-18T08:43:38.000Z</time>
        <extensions>
          <ns3:TrackPointExtension>
            <ns3:atemp>15.0</ns3:atemp>
          </ns3:TrackPointExtension>
        </extensions>
      </trkpt>
      <trkpt lat="60.07851071655750274658203125" lon="15.80829729326069355010986328125">
        <ele>178.399993896484375</ele>
        <time>2018-08-18T08:43:40.000Z</time>
        <extensions>
          <ns3:TrackPointExtension>
            <ns3:atemp>15.0</ns3:atemp>
          </ns3:TrackPointExtension>
        </extensions>
      </trkpt>
      <trkpt lat="60.0783881731331348419189453125" lon="15.808413214981555938720703125">
        <ele>178.399993896484375</ele>
        <time>2018-08-18T08:43:43.000Z</time>
        <extensions>
          <ns3:TrackPointExtension>
            <ns3:atemp>15.0</ns3:atemp>
          </ns3:TrackPointExtension>
        </extensions>
      </trkpt>
      <trkpt lat="60.07807963527739048004150390625" lon="15.8086997084319591522216796875">
        <ele>177.8000030517578125</ele>
        <time>2018-08-18T08:43:50.000Z</time>
        <extensions>
          <ns3:TrackPointExtension>
            <ns3:atemp>15.0</ns3:atemp>
          </ns3:TrackPointExtension>
        </extensions>
      </trkpt>
      <trkpt lat="60.07757068611681461334228515625" lon="15.8090815879404544830322265625">
        <ele>176.8000030517578125</ele>
        <time>2018-08-18T08:44:01.000Z</time>
        <extensions>
          <ns3:TrackPointExtension>
            <ns3:atemp>15.0</ns3:atemp>
          </ns3:TrackPointExtension>
        </extensions>
      </trkpt>
      <trkpt lat="60.0772294588387012481689453125" lon="15.80922097899019718170166015625">
        <ele>176.1999969482421875</ele>
        <time>2018-08-18T08:44:09.000Z</time>
        <extensions>
          <ns3:TrackPointExtension>
            <ns3:atemp>15.0</ns3:atemp>
          </ns3:TrackPointExtension>
        </extensions>
      </trkpt>
      <trkpt lat="60.07712443359196186065673828125" lon="15.80923975445330142974853515625">
        <ele>176.1999969482421875</ele>
        <time>2018-08-18T08:44:11.000Z</time>
        <extensions>
          <ns3:TrackPointExtension>
            <ns3:atemp>15.0</ns3:atemp>
          </ns3:TrackPointExtension>
        </extensions>
      </trkpt>
      <trkpt lat="60.07656351663172245025634765625" lon="15.80930278636515140533447265625">
        <ele>175.600006103515625</ele>
        <time>2018-08-18T08:44:21.000Z</time>
        <extensions>
          <ns3:TrackPointExtension>
            <ns3:atemp>15.0</ns3:atemp>
          </ns3:TrackPointExtension>
        </extensions>
      </trkpt>
      <trkpt lat="60.0759939663112163543701171875" lon="15.80951417796313762664794921875">
        <ele>174.8000030517578125</ele>
        <time>2018-08-18T08:44:30.000Z</time>
        <extensions>
          <ns3:TrackPointExtension>
            <ns3:atemp>15.0</ns3:atemp>
          </ns3:TrackPointExtension>
        </extensions>
      </trkpt>
      <trkpt lat="60.07576555944979190826416015625" lon="15.8096267469227313995361328125">
        <ele>174.600006103515625</ele>
        <time>2018-08-18T08:44:33.000Z</time>
        <extensions>
          <ns3:TrackPointExtension>
            <ns3:atemp>15.0</ns3:atemp>
          </ns3:TrackPointExtension>
        </extensions>
      </trkpt>
      <trkpt lat="60.075283013284206390380859375" lon="15.80997518263757228851318359375">
        <ele>173.600006103515625</ele>
        <time>2018-08-18T08:44:39.000Z</time>
        <extensions>
          <ns3:TrackPointExtension>
            <ns3:atemp>15.0</ns3:atemp>
          </ns3:TrackPointExtension>
        </extensions>
      </trkpt>
      <trkpt lat="60.07512048818171024322509765625" lon="15.8100830577313899993896484375">
        <ele>173.1999969482421875</ele>
        <time>2018-08-18T08:44:41.000Z</time>
        <extensions>
          <ns3:TrackPointExtension>
            <ns3:atemp>15.0</ns3:atemp>
          </ns3:TrackPointExtension>
        </extensions>
      </trkpt>
      <trkpt lat="60.07504169829189777374267578125" lon="15.81013712100684642791748046875">
        <ele>173.1999969482421875</ele>
        <time>2018-08-18T08:44:42.000Z</time>
        <extensions>
          <ns3:TrackPointExtension>
            <ns3:atemp>15.0</ns3:atemp>
          </ns3:TrackPointExtension>
        </extensions>
      </trkpt>
      <trkpt lat="60.07490138523280620574951171875" lon="15.81024625338613986968994140625">
        <ele>172.8000030517578125</ele>
        <time>2018-08-18T08:44:44.000Z</time>
        <extensions>
          <ns3:TrackPointExtension>
            <ns3:atemp>15.0</ns3:atemp>
          </ns3:TrackPointExtension>
        </extensions>
      </trkpt>
      <trkpt lat="60.0747831165790557861328125" lon="15.81033158116042613983154296875">
        <ele>172.600006103515625</ele>
        <time>2018-08-18T08:44:46.000Z</time>
        <extensions>
          <ns3:TrackPointExtension>
            <ns3:atemp>15.0</ns3:atemp>
          </ns3:TrackPointExtension>
        </extensions>
      </trkpt>
      <trkpt lat="60.07441624067723751068115234375" lon="15.8107437193393707275390625">
        <ele>171.600006103515625</ele>
        <time>2018-08-18T08:44:54.000Z</time>
        <extensions>
          <ns3:TrackPointExtension>
            <ns3:atemp>15.0</ns3:atemp>
          </ns3:TrackPointExtension>
        </extensions>
      </trkpt>
      <trkpt lat="60.07392053492367267608642578125" lon="15.8112481422722339630126953125">
        <ele>170.399993896484375</ele>
        <time>2018-08-18T08:45:02.000Z</time>
        <extensions>
          <ns3:TrackPointExtension>
            <ns3:atemp>15.0</ns3:atemp>
          </ns3:TrackPointExtension>
        </extensions>
      </trkpt>
      <trkpt lat="60.07343974895775318145751953125" lon="15.81168048083782196044921875">
        <ele>171.1999969482421875</ele>
        <time>2018-08-18T08:45:08.000Z</time>
        <extensions>
          <ns3:TrackPointExtension>
            <ns3:atemp>15.0</ns3:atemp>
          </ns3:TrackPointExtension>
        </extensions>
      </trkpt>
      <trkpt lat="60.07335710339248180389404296875" lon="15.81176136620342731475830078125">
        <ele>171.399993896484375</ele>
        <time>2018-08-18T08:45:09.000Z</time>
        <extensions>
          <ns3:TrackPointExtension>
            <ns3:atemp>15.0</ns3:atemp>
          </ns3:TrackPointExtension>
        </extensions>
      </trkpt>
      <trkpt lat="60.07327060215175151824951171875" lon="15.8118405751883983612060546875">
        <ele>171.600006103515625</ele>
        <time>2018-08-18T08:45:10.000Z</time>
        <extensions>
          <ns3:TrackPointExtension>
            <ns3:atemp>15.0</ns3:atemp>
          </ns3:TrackPointExtension>
        </extensions>
      </trkpt>
      <trkpt lat="60.0730965100228786468505859375" lon="15.811987929046154022216796875">
        <ele>172</ele>
        <time>2018-08-18T08:45:12.000Z</time>
        <extensions>
          <ns3:TrackPointExtension>
            <ns3:atemp>15.0</ns3:atemp>
          </ns3:TrackPointExtension>
        </extensions>
      </trkpt>
      <trkpt lat="60.07292862050235271453857421875" lon="15.81212748773396015167236328125">
        <ele>172.399993896484375</ele>
        <time>2018-08-18T08:45:14.000Z</time>
        <extensions>
          <ns3:TrackPointExtension>
            <ns3:atemp>15.0</ns3:atemp>
          </ns3:TrackPointExtension>
        </extensions>
      </trkpt>
      <trkpt lat="60.072773136198520660400390625" lon="15.81226545386016368865966796875">
        <ele>172.8000030517578125</ele>
        <time>2018-08-18T08:45:16.000Z</time>
        <extensions>
          <ns3:TrackPointExtension>
            <ns3:atemp>15.0</ns3:atemp>
          </ns3:TrackPointExtension>
        </extensions>
      </trkpt>
      <trkpt lat="60.07263022474944591522216796875" lon="15.8123914338648319244384765625">
        <ele>173.1999969482421875</ele>
        <time>2018-08-18T08:45:18.000Z</time>
        <extensions>
          <ns3:TrackPointExtension>
            <ns3:atemp>15.0</ns3:atemp>
          </ns3:TrackPointExtension>
        </extensions>
      </trkpt>
      <trkpt lat="60.07248991169035434722900390625" lon="15.81251003779470920562744140625">
        <ele>173.399993896484375</ele>
        <time>2018-08-18T08:45:20.000Z</time>
        <extensions>
          <ns3:TrackPointExtension>
            <ns3:atemp>15.0</ns3:atemp>
          </ns3:TrackPointExtension>
        </extensions>
      </trkpt>
      <trkpt lat="60.07199420593678951263427734375" lon="15.81295453011989593505859375">
        <ele>174.600006103515625</ele>
        <time>2018-08-18T08:45:28.000Z</time>
        <extensions>
          <ns3:TrackPointExtension>
            <ns3:atemp>15.0</ns3:atemp>
          </ns3:TrackPointExtension>
        </extensions>
      </trkpt>
      <trkpt lat="60.0717942975461483001708984375" lon="15.813073217868804931640625">
        <ele>175</ele>
        <time>2018-08-18T08:45:31.000Z</time>
        <extensions>
          <ns3:TrackPointExtension>
            <ns3:atemp>15.0</ns3:atemp>
          </ns3:TrackPointExtension>
        </extensions>
      </trkpt>
      <trkpt lat="60.071722380816936492919921875" lon="15.81309542991220951080322265625">
        <ele>175.1999969482421875</ele>
        <time>2018-08-18T08:45:32.000Z</time>
        <extensions>
          <ns3:TrackPointExtension>
            <ns3:atemp>15.0</ns3:atemp>
          </ns3:TrackPointExtension>
        </extensions>
      </trkpt>
      <trkpt lat="60.071335136890411376953125" lon="15.81304983235895633697509765625">
        <ele>175.8000030517578125</ele>
        <time>2018-08-18T08:45:37.000Z</time>
        <extensions>
          <ns3:TrackPointExtension>
            <ns3:atemp>15.0</ns3:atemp>
          </ns3:TrackPointExtension>
        </extensions>
      </trkpt>
      <trkpt lat="60.070932805538177490234375" lon="15.8128601498901844024658203125">
        <ele>176.399993896484375</ele>
        <time>2018-08-18T08:45:42.000Z</time>
        <extensions>
          <ns3:TrackPointExtension>
            <ns3:atemp>15.0</ns3:atemp>
          </ns3:TrackPointExtension>
        </extensions>
      </trkpt>
      <trkpt lat="60.0706798397004604339599609375" lon="15.81275177188217639923095703125">
        <ele>176.600006103515625</ele>
        <time>2018-08-18T08:45:45.000Z</time>
        <extensions>
          <ns3:TrackPointExtension>
            <ns3:atemp>15.0</ns3:atemp>
          </ns3:TrackPointExtension>
        </extensions>
      </trkpt>
      <trkpt lat="60.07051362656056880950927734375" lon="15.81267893314361572265625">
        <ele>177</ele>
        <time>2018-08-18T08:45:47.000Z</time>
        <extensions>
          <ns3:TrackPointExtension>
            <ns3:atemp>15.0</ns3:atemp>
          </ns3:TrackPointExtension>
        </extensions>
      </trkpt>
      <trkpt lat="60.07043433375656604766845703125" lon="15.812637023627758026123046875">
        <ele>177</ele>
        <time>2018-08-18T08:45:48.000Z</time>
        <extensions>
          <ns3:TrackPointExtension>
            <ns3:atemp>15.0</ns3:atemp>
          </ns3:TrackPointExtension>
        </extensions>
      </trkpt>
      <trkpt lat="60.07018757052719593048095703125" lon="15.81253803335130214691162109375">
        <ele>177.399993896484375</ele>
        <time>2018-08-18T08:45:51.000Z</time>
        <extensions>
          <ns3:TrackPointExtension>
            <ns3:atemp>15.0</ns3:atemp>
          </ns3:TrackPointExtension>
        </extensions>
      </trkpt>
      <trkpt lat="60.07002479396760463714599609375" lon="15.81246427260339260101318359375">
        <ele>177.600006103515625</ele>
        <time>2018-08-18T08:45:53.000Z</time>
        <extensions>
          <ns3:TrackPointExtension>
            <ns3:atemp>15.0</ns3:atemp>
          </ns3:TrackPointExtension>
        </extensions>
      </trkpt>
      <trkpt lat="60.069779790937900543212890625" lon="15.812360756099224090576171875">
        <ele>177.600006103515625</ele>
        <time>2018-08-18T08:45:56.000Z</time>
        <extensions>
          <ns3:TrackPointExtension>
            <ns3:atemp>15.0</ns3:atemp>
          </ns3:TrackPointExtension>
        </extensions>
      </trkpt>
      <trkpt lat="60.0694428384304046630859375" lon="15.81222723238170146942138671875">
        <ele>177.8000030517578125</ele>
        <time>2018-08-18T08:46:00.000Z</time>
        <extensions>
          <ns3:TrackPointExtension>
            <ns3:atemp>15.0</ns3:atemp>
          </ns3:TrackPointExtension>
        </extensions>
      </trkpt>
      <trkpt lat="60.069050230085849761962890625" lon="15.81206143833696842193603515625">
        <ele>177.8000030517578125</ele>
        <time>2018-08-18T08:46:05.000Z</time>
        <extensions>
          <ns3:TrackPointExtension>
            <ns3:atemp>15.0</ns3:atemp>
          </ns3:TrackPointExtension>
        </extensions>
      </trkpt>
      <trkpt lat="60.06847078911960124969482421875" lon="15.81168995238840579986572265625">
        <ele>178</ele>
        <time>2018-08-18T08:46:13.000Z</time>
        <extensions>
          <ns3:TrackPointExtension>
            <ns3:atemp>15.0</ns3:atemp>
          </ns3:TrackPointExtension>
        </extensions>
      </trkpt>
      <trkpt lat="60.0683315657079219818115234375" lon="15.81156506203114986419677734375">
        <ele>178</ele>
        <time>2018-08-18T08:46:15.000Z</time>
        <extensions>
          <ns3:TrackPointExtension>
            <ns3:atemp>15.0</ns3:atemp>
          </ns3:TrackPointExtension>
        </extensions>
      </trkpt>
      <trkpt lat="60.06796468980610370635986328125" lon="15.81106114201247692108154296875">
        <ele>177.8000030517578125</ele>
        <time>2018-08-18T08:46:21.000Z</time>
        <extensions>
          <ns3:TrackPointExtension>
            <ns3:atemp>15.0</ns3:atemp>
          </ns3:TrackPointExtension>
        </extensions>
      </trkpt>
      <trkpt lat="60.067741312086582183837890625" lon="15.8105631731450557708740234375">
        <ele>177.600006103515625</ele>
        <time>2018-08-18T08:46:25.000Z</time>
        <extensions>
          <ns3:TrackPointExtension>
            <ns3:atemp>15.0</ns3:atemp>
          </ns3:TrackPointExtension>
        </extensions>
      </trkpt>
      <trkpt lat="60.06749647669494152069091796875" lon="15.80973965115845203399658203125">
        <ele>177.1999969482421875</ele>
        <time>2018-08-18T08:46:31.000Z</time>
        <extensions>
          <ns3:TrackPointExtension>
            <ns3:atemp>15.0</ns3:atemp>
          </ns3:TrackPointExtension>
        </extensions>
      </trkpt>
      <trkpt lat="60.0674370490014553070068359375" lon="15.80947092734277248382568359375">
        <ele>177</ele>
        <time>2018-08-18T08:46:33.000Z</time>
        <extensions>
          <ns3:TrackPointExtension>
            <ns3:atemp>15.0</ns3:atemp>
          </ns3:TrackPointExtension>
        </extensions>
      </trkpt>
      <trkpt lat="60.067349374294281005859375" lon="15.80906993709504604339599609375">
        <ele>176.8000030517578125</ele>
        <time>2018-08-18T08:46:36.000Z</time>
        <extensions>
          <ns3:TrackPointExtension>
            <ns3:atemp>15.0</ns3:atemp>
          </ns3:TrackPointExtension>
        </extensions>
      </trkpt>
      <trkpt lat="60.0671158544719219207763671875" lon="15.808036364614963531494140625">
        <ele>176.1999969482421875</ele>
        <time>2018-08-18T08:46:44.000Z</time>
        <extensions>
          <ns3:TrackPointExtension>
            <ns3:atemp>15.0</ns3:atemp>
          </ns3:TrackPointExtension>
        </extensions>
      </trkpt>
      <trkpt lat="60.06705190055072307586669921875" lon="15.80779890529811382293701171875">
        <ele>176</ele>
        <time>2018-08-18T08:46:46.000Z</time>
        <extensions>
          <ns3:TrackPointExtension>
            <ns3:atemp>15.0</ns3:atemp>
          </ns3:TrackPointExtension>
        </extensions>
      </trkpt>
      <trkpt lat="60.06668083369731903076171875" lon="15.806852169334888458251953125">
        <ele>174.600006103515625</ele>
        <time>2018-08-18T08:46:55.000Z</time>
        <extensions>
          <ns3:TrackPointExtension>
            <ns3:atemp>15.0</ns3:atemp>
          </ns3:TrackPointExtension>
        </extensions>
      </trkpt>
      <trkpt lat="60.06627540104091167449951171875" lon="15.806023366749286651611328125">
        <ele>172.8000030517578125</ele>
        <time>2018-08-18T08:47:04.000Z</time>
        <extensions>
          <ns3:TrackPointExtension>
            <ns3:atemp>15.0</ns3:atemp>
          </ns3:TrackPointExtension>
        </extensions>
      </trkpt>
      <trkpt lat="60.06582965143024921417236328125" lon="15.80541928298771381378173828125">
        <ele>171.600006103515625</ele>
        <time>2018-08-18T08:47:12.000Z</time>
        <extensions>
          <ns3:TrackPointExtension>
            <ns3:atemp>15.0</ns3:atemp>
          </ns3:TrackPointExtension>
        </extensions>
      </trkpt>
      <trkpt lat="60.065321959555149078369140625" lon="15.8048359863460063934326171875">
        <ele>170.600006103515625</ele>
        <time>2018-08-18T08:47:21.000Z</time>
        <extensions>
          <ns3:TrackPointExtension>
            <ns3:atemp>15.0</ns3:atemp>
          </ns3:TrackPointExtension>
        </extensions>
      </trkpt>
      <trkpt lat="60.0648262538015842437744140625" lon="15.80414154566824436187744140625">
        <ele>169.1999969482421875</ele>
        <time>2018-08-18T08:47:30.000Z</time>
        <extensions>
          <ns3:TrackPointExtension>
            <ns3:atemp>15.0</ns3:atemp>
          </ns3:TrackPointExtension>
        </extensions>
      </trkpt>
      <trkpt lat="60.06455660797655582427978515625" lon="15.8037010766565799713134765625">
        <ele>168.1999969482421875</ele>
        <time>2018-08-18T08:47:35.000Z</time>
        <extensions>
          <ns3:TrackPointExtension>
            <ns3:atemp>15.0</ns3:atemp>
          </ns3:TrackPointExtension>
        </extensions>
      </trkpt>
      <trkpt lat="60.064128376543521881103515625" lon="15.8028781414031982421875">
        <ele>166.600006103515625</ele>
        <time>2018-08-18T08:47:44.000Z</time>
        <extensions>
          <ns3:TrackPointExtension>
            <ns3:atemp>15.0</ns3:atemp>
          </ns3:TrackPointExtension>
        </extensions>
      </trkpt>
      <trkpt lat="60.0639401189982891082763671875" lon="15.8023975230753421783447265625">
        <ele>165.399993896484375</ele>
        <time>2018-08-18T08:47:49.000Z</time>
        <extensions>
          <ns3:TrackPointExtension>
            <ns3:atemp>15.0</ns3:atemp>
          </ns3:TrackPointExtension>
        </extensions>
      </trkpt>
      <trkpt lat="60.0638670288026332855224609375" lon="15.80176259391009807586669921875">
        <ele>164</ele>
        <time>2018-08-18T08:47:55.000Z</time>
        <extensions>
          <ns3:TrackPointExtension>
            <ns3:atemp>15.0</ns3:atemp>
          </ns3:TrackPointExtension>
        </extensions>
      </trkpt>
      <trkpt lat="60.06387432105839252471923828125" lon="15.80165530554950237274169921875">
        <ele>163.8000030517578125</ele>
        <time>2018-08-18T08:47:56.000Z</time>
        <extensions>
          <ns3:TrackPointExtension>
            <ns3:atemp>15.0</ns3:atemp>
          </ns3:TrackPointExtension>
        </extensions>
      </trkpt>
      <trkpt lat="60.06392997689545154571533203125" lon="15.801247693598270416259765625">
        <ele>163</ele>
        <time>2018-08-18T08:48:00.000Z</time>
        <extensions>
          <ns3:TrackPointExtension>
            <ns3:atemp>15.0</ns3:atemp>
          </ns3:TrackPointExtension>
        </extensions>
      </trkpt>
      <trkpt lat="60.0640557892620563507080078125" lon="15.8004670031368732452392578125">
        <ele>163.600006103515625</ele>
        <time>2018-08-18T08:48:08.000Z</time>
        <extensions>
          <ns3:TrackPointExtension>
            <ns3:atemp>15.0</ns3:atemp>
          </ns3:TrackPointExtension>
        </extensions>
      </trkpt>
      <trkpt lat="60.06419442594051361083984375" lon="15.79963677562773227691650390625">
        <ele>164</ele>
        <time>2018-08-18T08:48:16.000Z</time>
        <extensions>
          <ns3:TrackPointExtension>
            <ns3:atemp>15.0</ns3:atemp>
          </ns3:TrackPointExtension>
        </extensions>
      </trkpt>
      <trkpt lat="60.06436231546103954315185546875" lon="15.79860647208988666534423828125">
        <ele>164.1999969482421875</ele>
        <time>2018-08-18T08:48:26.000Z</time>
        <extensions>
          <ns3:TrackPointExtension>
            <ns3:atemp>15.0</ns3:atemp>
          </ns3:TrackPointExtension>
        </extensions>
      </trkpt>
      <trkpt lat="60.0645405985414981842041015625" lon="15.7975091971457004547119140625">
        <ele>164</ele>
        <time>2018-08-18T08:48:36.000Z</time>
        <extensions>
          <ns3:TrackPointExtension>
            <ns3:atemp>15.0</ns3:atemp>
          </ns3:TrackPointExtension>
        </extensions>
      </trkpt>
      <trkpt lat="60.0647182948887348175048828125" lon="15.79648383893072605133056640625">
        <ele>164</ele>
        <time>2018-08-18T08:48:45.000Z</time>
        <extensions>
          <ns3:TrackPointExtension>
            <ns3:atemp>15.0</ns3:atemp>
          </ns3:TrackPointExtension>
        </extensions>
      </trkpt>
      <trkpt lat="60.0647556781768798828125" lon="15.7962562702596187591552734375">
        <ele>164</ele>
        <time>2018-08-18T08:48:47.000Z</time>
        <extensions>
          <ns3:TrackPointExtension>
            <ns3:atemp>15.0</ns3:atemp>
          </ns3:TrackPointExtension>
        </extensions>
      </trkpt>
      <trkpt lat="60.064786858856678009033203125" lon="15.79590431414544582366943359375">
        <ele>163.8000030517578125</ele>
        <time>2018-08-18T08:48:50.000Z</time>
        <extensions>
          <ns3:TrackPointExtension>
            <ns3:atemp>15.0</ns3:atemp>
          </ns3:TrackPointExtension>
        </extensions>
      </trkpt>
      <trkpt lat="60.06471016444265842437744140625" lon="15.7951713167130947113037109375">
        <ele>163.1999969482421875</ele>
        <time>2018-08-18T08:48:56.000Z</time>
        <extensions>
          <ns3:TrackPointExtension>
            <ns3:atemp>15.0</ns3:atemp>
          </ns3:TrackPointExtension>
        </extensions>
      </trkpt>
      <trkpt lat="60.0645623914897441864013671875" lon="15.794410407543182373046875">
        <ele>162.600006103515625</ele>
        <time>2018-08-18T08:49:02.000Z</time>
        <extensions>
          <ns3:TrackPointExtension>
            <ns3:atemp>15.0</ns3:atemp>
          </ns3:TrackPointExtension>
        </extensions>
      </trkpt>
      <trkpt lat="60.06455174647271633148193359375" lon="15.794320218265056610107421875">
        <ele>162.600006103515625</ele>
        <time>2018-08-18T08:49:03.000Z</time>
        <extensions>
          <ns3:TrackPointExtension>
            <ns3:atemp>15.0</ns3:atemp>
          </ns3:TrackPointExtension>
        </extensions>
      </trkpt>
      <trkpt lat="60.06458871066570281982421875" lon="15.7941416837275028228759765625">
        <ele>162.600006103515625</ele>
        <time>2018-08-18T08:49:06.000Z</time>
        <extensions>
          <ns3:TrackPointExtension>
            <ns3:atemp>15.0</ns3:atemp>
          </ns3:TrackPointExtension>
        </extensions>
      </trkpt>
      <trkpt lat="60.0646096654236316680908203125" lon="15.79411662183701992034912109375">
        <ele>162.600006103515625</ele>
        <time>2018-08-18T08:49:07.000Z</time>
        <extensions>
          <ns3:TrackPointExtension>
            <ns3:atemp>15.0</ns3:atemp>
          </ns3:TrackPointExtension>
        </extensions>
      </trkpt>
      <trkpt lat="60.0647746212780475616455078125" lon="15.79412818886339664459228515625">
        <ele>163</ele>
        <time>2018-08-18T08:49:12.000Z</time>
        <extensions>
          <ns3:TrackPointExtension>
            <ns3:atemp>15.0</ns3:atemp>
          </ns3:TrackPointExtension>
        </extensions>
      </trkpt>
      <trkpt lat="60.06523646414279937744140625" lon="15.7942105829715728759765625">
        <ele>164</ele>
        <time>2018-08-18T08:49:26.000Z</time>
        <extensions>
          <ns3:TrackPointExtension>
            <ns3:atemp>15.0</ns3:atemp>
          </ns3:TrackPointExtension>
        </extensions>
      </trkpt>
      <trkpt lat="60.06538809277117252349853515625" lon="15.79423028044402599334716796875">
        <ele>164.399993896484375</ele>
        <time>2018-08-18T08:49:31.000Z</time>
        <extensions>
          <ns3:TrackPointExtension>
            <ns3:atemp>15.0</ns3:atemp>
          </ns3:TrackPointExtension>
        </extensions>
      </trkpt>
      <trkpt lat="60.065511055290699005126953125" lon="15.79420161433517932891845703125">
        <ele>164.8000030517578125</ele>
        <time>2018-08-18T08:49:35.000Z</time>
        <extensions>
          <ns3:TrackPointExtension>
            <ns3:atemp>15.0</ns3:atemp>
          </ns3:TrackPointExtension>
        </extensions>
      </trkpt>
      <trkpt lat="60.06575505249202251434326171875" lon="15.79414813779294490814208984375">
        <ele>165.399993896484375</ele>
        <time>2018-08-18T08:49:42.000Z</time>
        <extensions>
          <ns3:TrackPointExtension>
            <ns3:atemp>15.0</ns3:atemp>
          </ns3:TrackPointExtension>
        </extensions>
      </trkpt>
      <trkpt lat="60.06597616709768772125244140625" lon="15.79416272230446338653564453125">
        <ele>166</ele>
        <time>2018-08-18T08:49:48.000Z</time>
        <extensions>
          <ns3:TrackPointExtension>
            <ns3:atemp>15.0</ns3:atemp>
          </ns3:TrackPointExtension>
        </extensions>
      </trkpt>
      <trkpt lat="60.0661857984960079193115234375" lon="15.7943016104400157928466796875">
        <ele>166.600006103515625</ele>
        <time>2018-08-18T08:49:54.000Z</time>
        <extensions>
          <ns3:TrackPointExtension>
            <ns3:atemp>15.0</ns3:atemp>
          </ns3:TrackPointExtension>
        </extensions>
      </trkpt>
      <trkpt lat="60.0664667598903179168701171875" lon="15.79459011554718017578125">
        <ele>167.399993896484375</ele>
        <time>2018-08-18T08:50:02.000Z</time>
        <extensions>
          <ns3:TrackPointExtension>
            <ns3:atemp>15.0</ns3:atemp>
          </ns3:TrackPointExtension>
        </extensions>
      </trkpt>
      <trkpt lat="60.06681636907160282135009765625" lon="15.79478256404399871826171875">
        <ele>168.1999969482421875</ele>
        <time>2018-08-18T08:50:11.000Z</time>
        <extensions>
          <ns3:TrackPointExtension>
            <ns3:atemp>15.0</ns3:atemp>
          </ns3:TrackPointExtension>
        </extensions>
      </trkpt>
      <trkpt lat="60.0669026188552379608154296875" lon="15.7947994954884052276611328125">
        <ele>168.399993896484375</ele>
        <time>2018-08-18T08:50:13.000Z</time>
        <extensions>
          <ns3:TrackPointExtension>
            <ns3:atemp>15.0</ns3:atemp>
          </ns3:TrackPointExtension>
        </extensions>
      </trkpt>
      <trkpt lat="60.06749262101948261260986328125" lon="15.794754736125469207763671875">
        <ele>170</ele>
        <time>2018-08-18T08:50:24.000Z</time>
        <extensions>
          <ns3:TrackPointExtension>
            <ns3:atemp>15.0</ns3:atemp>
          </ns3:TrackPointExtension>
        </extensions>
      </trkpt>
      <trkpt lat="60.06803610362112522125244140625" lon="15.79461232759058475494384765625">
        <ele>171.600006103515625</ele>
        <time>2018-08-18T08:50:36.000Z</time>
        <extensions>
          <ns3:TrackPointExtension>
            <ns3:atemp>15.0</ns3:atemp>
          </ns3:TrackPointExtension>
        </extensions>
      </trkpt>
      <trkpt lat="60.06836333312094211578369140625" lon="15.79463445581495761871337890625">
        <ele>172.600006103515625</ele>
        <time>2018-08-18T08:50:44.000Z</time>
        <extensions>
          <ns3:TrackPointExtension>
            <ns3:atemp>15.0</ns3:atemp>
          </ns3:TrackPointExtension>
        </extensions>
      </trkpt>
      <trkpt lat="60.0685960985720157623291015625" lon="15.79471358098089694976806640625">
        <ele>173.1999969482421875</ele>
        <time>2018-08-18T08:50:50.000Z</time>
        <extensions>
          <ns3:TrackPointExtension>
            <ns3:atemp>15.0</ns3:atemp>
          </ns3:TrackPointExtension>
        </extensions>
      </trkpt>
      <trkpt lat="60.06882752291858196258544921875" lon="15.7947844080626964569091796875">
        <ele>173.8000030517578125</ele>
        <time>2018-08-18T08:50:56.000Z</time>
        <extensions>
          <ns3:TrackPointExtension>
            <ns3:atemp>15.0</ns3:atemp>
          </ns3:TrackPointExtension>
        </extensions>
      </trkpt>
      <trkpt lat="60.06901075132191181182861328125" lon="15.79486328177154064178466796875">
        <ele>174.1999969482421875</ele>
        <time>2018-08-18T08:51:01.000Z</time>
        <extensions>
          <ns3:TrackPointExtension>
            <ns3:atemp>15.0</ns3:atemp>
          </ns3:TrackPointExtension>
        </extensions>
      </trkpt>
      <trkpt lat="60.0691692531108856201171875" lon="15.79491826705634593963623046875">
        <ele>174.600006103515625</ele>
        <time>2018-08-18T08:51:05.000Z</time>
        <extensions>
          <ns3:TrackPointExtension>
            <ns3:atemp>15.0</ns3:atemp>
          </ns3:TrackPointExtension>
        </extensions>
      </trkpt>
      <trkpt lat="60.06925298832356929779052734375" lon="15.7949517108500003814697265625">
        <ele>175</ele>
        <time>2018-08-18T08:51:07.000Z</time>
        <extensions>
          <ns3:TrackPointExtension>
            <ns3:atemp>15.0</ns3:atemp>
          </ns3:TrackPointExtension>
        </extensions>
      </trkpt>
      <trkpt lat="60.06929590366780757904052734375" lon="15.79496218822896480560302734375">
        <ele>175</ele>
        <time>2018-08-18T08:51:08.000Z</time>
        <extensions>
          <ns3:TrackPointExtension>
            <ns3:atemp>15.0</ns3:atemp>
          </ns3:TrackPointExtension>
        </extensions>
      </trkpt>
      <trkpt lat="60.06972606293857097625732421875" lon="15.79517441801726818084716796875">
        <ele>176.1999969482421875</ele>
        <time>2018-08-18T08:51:18.000Z</time>
        <extensions>
          <ns3:TrackPointExtension>
            <ns3:atemp>15.0</ns3:atemp>
          </ns3:TrackPointExtension>
        </extensions>
      </trkpt>
      <trkpt lat="60.0698768533766269683837890625" lon="15.795228481292724609375">
        <ele>176.600006103515625</ele>
        <time>2018-08-18T08:51:22.000Z</time>
        <extensions>
          <ns3:TrackPointExtension>
            <ns3:atemp>15.0</ns3:atemp>
          </ns3:TrackPointExtension>
        </extensions>
      </trkpt>
      <trkpt lat="60.06996008567512035369873046875" lon="15.79524432308971881866455078125">
        <ele>176.8000030517578125</ele>
        <time>2018-08-18T08:51:24.000Z</time>
        <extensions>
          <ns3:TrackPointExtension>
            <ns3:atemp>15.0</ns3:atemp>
          </ns3:TrackPointExtension>
        </extensions>
      </trkpt>
      <trkpt lat="60.07012168876826763153076171875" lon="15.79525857232511043548583984375">
        <ele>177.1999969482421875</ele>
        <time>2018-08-18T08:51:28.000Z</time>
        <extensions>
          <ns3:TrackPointExtension>
            <ns3:atemp>15.0</ns3:atemp>
          </ns3:TrackPointExtension>
        </extensions>
      </trkpt>
      <trkpt lat="60.07016946561634540557861328125" lon="15.79526192508637905120849609375">
        <ele>177.1999969482421875</ele>
        <time>2018-08-18T08:51:29.000Z</time>
        <extensions>
          <ns3:TrackPointExtension>
            <ns3:atemp>15.0</ns3:atemp>
          </ns3:TrackPointExtension>
        </extensions>
      </trkpt>
      <trkpt lat="60.0704005546867847442626953125" lon="15.79527885653078556060791015625">
        <ele>177.8000030517578125</ele>
        <time>2018-08-18T08:51:33.000Z</time>
        <extensions>
          <ns3:TrackPointExtension>
            <ns3:atemp>15.0</ns3:atemp>
          </ns3:TrackPointExtension>
        </extensions>
      </trkpt>
      <trkpt lat="60.0709494017064571380615234375" lon="15.79531724564731121063232421875">
        <ele>178.8000030517578125</ele>
        <time>2018-08-18T08:51:42.000Z</time>
        <extensions>
          <ns3:TrackPointExtension>
            <ns3:atemp>15.0</ns3:atemp>
          </ns3:TrackPointExtension>
        </extensions>
      </trkpt>
      <trkpt lat="60.07150621153414249420166015625" lon="15.79524281434714794158935546875">
        <ele>180</ele>
        <time>2018-08-18T08:51:55.000Z</time>
        <extensions>
          <ns3:TrackPointExtension>
            <ns3:atemp>15.0</ns3:atemp>
          </ns3:TrackPointExtension>
        </extensions>
      </trkpt>
      <trkpt lat="60.071774683892726898193359375" lon="15.79510417766869068145751953125">
        <ele>180.600006103515625</ele>
        <time>2018-08-18T08:52:03.000Z</time>
        <extensions>
          <ns3:TrackPointExtension>
            <ns3:atemp>15.0</ns3:atemp>
          </ns3:TrackPointExtension>
        </extensions>
      </trkpt>
      <trkpt lat="60.07191021926701068878173828125" lon="15.7950227893888950347900390625">
        <ele>180.8000030517578125</ele>
        <time>2018-08-18T08:52:07.000Z</time>
        <extensions>
          <ns3:TrackPointExtension>
            <ns3:atemp>15.0</ns3:atemp>
          </ns3:TrackPointExtension>
        </extensions>
      </trkpt>
      <trkpt lat="60.07209596224129199981689453125" lon="15.79480460844933986663818359375">
        <ele>181.1999969482421875</ele>
        <time>2018-08-18T08:52:13.000Z</time>
        <extensions>
          <ns3:TrackPointExtension>
            <ns3:atemp>15.0</ns3:atemp>
          </ns3:TrackPointExtension>
        </extensions>
      </trkpt>
      <trkpt lat="60.07231188006699085235595703125" lon="15.79440881498157978057861328125">
        <ele>181.8000030517578125</ele>
        <time>2018-08-18T08:52:22.000Z</time>
        <extensions>
          <ns3:TrackPointExtension>
            <ns3:atemp>15.0</ns3:atemp>
          </ns3:TrackPointExtension>
        </extensions>
      </trkpt>
      <trkpt lat="60.0724350102245807647705078125" lon="15.79414294101297855377197265625">
        <ele>182.1999969482421875</ele>
        <time>2018-08-18T08:52:28.000Z</time>
        <extensions>
          <ns3:TrackPointExtension>
            <ns3:atemp>15.0</ns3:atemp>
          </ns3:TrackPointExtension>
        </extensions>
      </trkpt>
      <trkpt lat="60.0724930129945278167724609375" lon="15.7939321361482143402099609375">
        <ele>182.399993896484375</ele>
        <time>2018-08-18T08:52:32.000Z</time>
        <extensions>
          <ns3:TrackPointExtension>
            <ns3:atemp>15.0</ns3:atemp>
          </ns3:TrackPointExtension>
        </extensions>
      </trkpt>
      <trkpt lat="60.072536431252956390380859375" lon="15.7937353290617465972900390625">
        <ele>182.399993896484375</ele>
        <time>2018-08-18T08:52:36.000Z</time>
        <extensions>
          <ns3:TrackPointExtension>
            <ns3:atemp>15.0</ns3:atemp>
          </ns3:TrackPointExtension>
        </extensions>
      </trkpt>
      <trkpt lat="60.07262435741722583770751953125" lon="15.79344204626977443695068359375">
        <ele>182.600006103515625</ele>
        <time>2018-08-18T08:52:42.000Z</time>
        <extensions>
          <ns3:TrackPointExtension>
            <ns3:atemp>15.0</ns3:atemp>
          </ns3:TrackPointExtension>
        </extensions>
      </trkpt>
      <trkpt lat="60.07270331494510173797607421875" lon="15.79325973987579345703125">
        <ele>183</ele>
        <time>2018-08-18T08:52:46.000Z</time>
        <extensions>
          <ns3:TrackPointExtension>
            <ns3:atemp>15.0</ns3:atemp>
          </ns3:TrackPointExtension>
        </extensions>
      </trkpt>
      <trkpt lat="60.07298494689166545867919921875" lon="15.7928582467138767242431640625">
        <ele>183.8000030517578125</ele>
        <time>2018-08-18T08:52:56.000Z</time>
        <extensions>
          <ns3:TrackPointExtension>
            <ns3:atemp>15.0</ns3:atemp>
          </ns3:TrackPointExtension>
        </extensions>
      </trkpt>
      <trkpt lat="60.073084942996501922607421875" lon="15.79263771884143352508544921875">
        <ele>184.1999969482421875</ele>
        <time>2018-08-18T08:53:00.000Z</time>
        <extensions>
          <ns3:TrackPointExtension>
            <ns3:atemp>15.0</ns3:atemp>
          </ns3:TrackPointExtension>
        </extensions>
      </trkpt>
      <trkpt lat="60.0731682591140270233154296875" lon="15.7923518121242523193359375">
        <ele>184.600006103515625</ele>
        <time>2018-08-18T08:53:05.000Z</time>
        <extensions>
          <ns3:TrackPointExtension>
            <ns3:atemp>15.0</ns3:atemp>
          </ns3:TrackPointExtension>
        </extensions>
      </trkpt>
      <trkpt lat="60.07324428297579288482666015625" lon="15.7918839342892169952392578125">
        <ele>185.1999969482421875</ele>
        <time>2018-08-18T08:53:12.000Z</time>
        <extensions>
          <ns3:TrackPointExtension>
            <ns3:atemp>15.0</ns3:atemp>
          </ns3:TrackPointExtension>
        </extensions>
      </trkpt>
      <trkpt lat="60.0733047164976596832275390625" lon="15.79148319549858570098876953125">
        <ele>185.399993896484375</ele>
        <time>2018-08-18T08:53:17.000Z</time>
        <extensions>
          <ns3:TrackPointExtension>
            <ns3:atemp>15.0</ns3:atemp>
          </ns3:TrackPointExtension>
        </extensions>
      </trkpt>
      <trkpt lat="60.0733677484095096588134765625" lon="15.791178680956363677978515625">
        <ele>185.8000030517578125</ele>
        <time>2018-08-18T08:53:21.000Z</time>
        <extensions>
          <ns3:TrackPointExtension>
            <ns3:atemp>15.0</ns3:atemp>
          </ns3:TrackPointExtension>
        </extensions>
      </trkpt>
      <trkpt lat="60.07343103177845478057861328125" lon="15.79096552915871143341064453125">
        <ele>186</ele>
        <time>2018-08-18T08:53:24.000Z</time>
        <extensions>
          <ns3:TrackPointExtension>
            <ns3:atemp>15.0</ns3:atemp>
          </ns3:TrackPointExtension>
        </extensions>
      </trkpt>
      <trkpt lat="60.073692798614501953125" lon="15.79036236740648746490478515625">
        <ele>186.8000030517578125</ele>
        <time>2018-08-18T08:53:34.000Z</time>
        <extensions>
          <ns3:TrackPointExtension>
            <ns3:atemp>15.0</ns3:atemp>
          </ns3:TrackPointExtension>
        </extensions>
      </trkpt>
      <trkpt lat="60.073851048946380615234375" lon="15.79011392779648303985595703125">
        <ele>187</ele>
        <time>2018-08-18T08:53:39.000Z</time>
        <extensions>
          <ns3:TrackPointExtension>
            <ns3:atemp>15.0</ns3:atemp>
          </ns3:TrackPointExtension>
        </extensions>
      </trkpt>
      <trkpt lat="60.07403637282550334930419921875" lon="15.7896400988101959228515625">
        <ele>187.399993896484375</ele>
        <time>2018-08-18T08:53:46.000Z</time>
        <extensions>
          <ns3:TrackPointExtension>
            <ns3:atemp>15.0</ns3:atemp>
          </ns3:TrackPointExtension>
        </extensions>
      </trkpt>
      <trkpt lat="60.074224881827831268310546875" lon="15.789213292300701141357421875">
        <ele>187.8000030517578125</ele>
        <time>2018-08-18T08:53:53.000Z</time>
        <extensions>
          <ns3:TrackPointExtension>
            <ns3:atemp>15.0</ns3:atemp>
          </ns3:TrackPointExtension>
        </extensions>
      </trkpt>
      <trkpt lat="60.07465378381311893463134765625" lon="15.78879914246499538421630859375">
        <ele>188.600006103515625</ele>
        <time>2018-08-18T08:54:04.000Z</time>
        <extensions>
          <ns3:TrackPointExtension>
            <ns3:atemp>15.0</ns3:atemp>
          </ns3:TrackPointExtension>
        </extensions>
      </trkpt>
      <trkpt lat="60.0748526863753795623779296875" lon="15.78861339949071407318115234375">
        <ele>189</ele>
        <time>2018-08-18T08:54:09.000Z</time>
        <extensions>
          <ns3:TrackPointExtension>
            <ns3:atemp>15.0</ns3:atemp>
          </ns3:TrackPointExtension>
        </extensions>
      </trkpt>
      <trkpt lat="60.07526800967752933502197265625" lon="15.78807863406836986541748046875">
        <ele>190</ele>
        <time>2018-08-18T08:54:19.000Z</time>
        <extensions>
          <ns3:TrackPointExtension>
            <ns3:atemp>15.0</ns3:atemp>
          </ns3:TrackPointExtension>
        </extensions>
      </trkpt>
      <trkpt lat="60.0754370726644992828369140625" lon="15.7876856066286563873291015625">
        <ele>190.399993896484375</ele>
        <time>2018-08-18T08:54:25.000Z</time>
        <extensions>
          <ns3:TrackPointExtension>
            <ns3:atemp>15.0</ns3:atemp>
          </ns3:TrackPointExtension>
        </extensions>
      </trkpt>
      <trkpt lat="60.07550404407083988189697265625" lon="15.78733180649578571319580078125">
        <ele>190.399993896484375</ele>
        <time>2018-08-18T08:54:29.000Z</time>
        <extensions>
          <ns3:TrackPointExtension>
            <ns3:atemp>15.0</ns3:atemp>
          </ns3:TrackPointExtension>
        </extensions>
      </trkpt>
      <trkpt lat="60.0755426846444606781005859375" lon="15.78692771494388580322265625">
        <ele>190.600006103515625</ele>
        <time>2018-08-18T08:54:33.000Z</time>
        <extensions>
          <ns3:TrackPointExtension>
            <ns3:atemp>15.0</ns3:atemp>
          </ns3:TrackPointExtension>
        </extensions>
      </trkpt>
      <trkpt lat="60.07574510760605335235595703125" lon="15.78651507385075092315673828125">
        <ele>191.1999969482421875</ele>
        <time>2018-08-18T08:54:39.000Z</time>
        <extensions>
          <ns3:TrackPointExtension>
            <ns3:atemp>15.0</ns3:atemp>
          </ns3:TrackPointExtension>
        </extensions>
      </trkpt>
      <trkpt lat="60.07619689218699932098388671875" lon="15.786248110234737396240234375">
        <ele>192.399993896484375</ele>
        <time>2018-08-18T08:54:48.000Z</time>
        <extensions>
          <ns3:TrackPointExtension>
            <ns3:atemp>15.0</ns3:atemp>
          </ns3:TrackPointExtension>
        </extensions>
      </trkpt>
      <trkpt lat="60.07674993015825748443603515625" lon="15.786106623709201812744140625">
        <ele>193.8000030517578125</ele>
        <time>2018-08-18T08:54:56.000Z</time>
        <extensions>
          <ns3:TrackPointExtension>
            <ns3:atemp>15.0</ns3:atemp>
          </ns3:TrackPointExtension>
        </extensions>
      </trkpt>
      <trkpt lat="60.0768698751926422119140625" lon="15.78603462316095829010009765625">
        <ele>194.1999969482421875</ele>
        <time>2018-08-18T08:54:58.000Z</time>
        <extensions>
          <ns3:TrackPointExtension>
            <ns3:atemp>15.0</ns3:atemp>
          </ns3:TrackPointExtension>
        </extensions>
      </trkpt>
      <trkpt lat="60.07698764093220233917236328125" lon="15.78597326762974262237548828125">
        <ele>194.399993896484375</ele>
        <time>2018-08-18T08:55:00.000Z</time>
        <extensions>
          <ns3:TrackPointExtension>
            <ns3:atemp>15.0</ns3:atemp>
          </ns3:TrackPointExtension>
        </extensions>
      </trkpt>
      <trkpt lat="60.077517963945865631103515625" lon="15.78567772172391414642333984375">
        <ele>195.8000030517578125</ele>
        <time>2018-08-18T08:55:09.000Z</time>
        <extensions>
          <ns3:TrackPointExtension>
            <ns3:atemp>15.0</ns3:atemp>
          </ns3:TrackPointExtension>
        </extensions>
      </trkpt>
      <trkpt lat="60.07794921286404132843017578125" lon="15.785585939884185791015625">
        <ele>197</ele>
        <time>2018-08-18T08:55:15.000Z</time>
        <extensions>
          <ns3:TrackPointExtension>
            <ns3:atemp>15.0</ns3:atemp>
          </ns3:TrackPointExtension>
        </extensions>
      </trkpt>
      <trkpt lat="60.07844659499824047088623046875" lon="15.7852511666715145111083984375">
        <ele>197.600006103515625</ele>
        <time>2018-08-18T08:55:22.000Z</time>
        <extensions>
          <ns3:TrackPointExtension>
            <ns3:atemp>15.0</ns3:atemp>
          </ns3:TrackPointExtension>
        </extensions>
      </trkpt>
      <trkpt lat="60.07858271710574626922607421875" lon="15.785187967121601104736328125">
        <ele>197.1999969482421875</ele>
        <time>2018-08-18T08:55:24.000Z</time>
        <extensions>
          <ns3:TrackPointExtension>
            <ns3:atemp>15.0</ns3:atemp>
          </ns3:TrackPointExtension>
        </extensions>
      </trkpt>
      <trkpt lat="60.07878354750573635101318359375" lon="15.78517355024814605712890625">
        <ele>196.600006103515625</ele>
        <time>2018-08-18T08:55:27.000Z</time>
        <extensions>
          <ns3:TrackPointExtension>
            <ns3:atemp>15.0</ns3:atemp>
          </ns3:TrackPointExtension>
        </extensions>
      </trkpt>
      <trkpt lat="60.0793343223631381988525390625" lon="15.78514982946217060089111328125">
        <ele>194.600006103515625</ele>
        <time>2018-08-18T08:55:35.000Z</time>
        <extensions>
          <ns3:TrackPointExtension>
            <ns3:atemp>15.0</ns3:atemp>
          </ns3:TrackPointExtension>
        </extensions>
      </trkpt>
      <trkpt lat="60.07947471924126148223876953125" lon="15.785059891641139984130859375">
        <ele>194.1999969482421875</ele>
        <time>2018-08-18T08:55:37.000Z</time>
        <extensions>
          <ns3:TrackPointExtension>
            <ns3:atemp>15.0</ns3:atemp>
          </ns3:TrackPointExtension>
        </extensions>
      </trkpt>
      <trkpt lat="60.07982843555510044097900390625" lon="15.78471464104950428009033203125">
        <ele>193</ele>
        <time>2018-08-18T08:55:42.000Z</time>
        <extensions>
          <ns3:TrackPointExtension>
            <ns3:atemp>15.0</ns3:atemp>
          </ns3:TrackPointExtension>
        </extensions>
      </trkpt>
      <trkpt lat="60.0802172720432281494140625" lon="15.7846845500171184539794921875">
        <ele>191.8000030517578125</ele>
        <time>2018-08-18T08:55:47.000Z</time>
        <extensions>
          <ns3:TrackPointExtension>
            <ns3:atemp>15.0</ns3:atemp>
          </ns3:TrackPointExtension>
        </extensions>
      </trkpt>
      <trkpt lat="60.0804377160966396331787109375" lon="15.78475034795701503753662109375">
        <ele>191</ele>
        <time>2018-08-18T08:55:50.000Z</time>
        <extensions>
          <ns3:TrackPointExtension>
            <ns3:atemp>15.0</ns3:atemp>
          </ns3:TrackPointExtension>
        </extensions>
      </trkpt>
      <trkpt lat="60.08066059090197086334228515625" lon="15.7847559638321399688720703125">
        <ele>190.1999969482421875</ele>
        <time>2018-08-18T08:55:53.000Z</time>
        <extensions>
          <ns3:TrackPointExtension>
            <ns3:atemp>15.0</ns3:atemp>
          </ns3:TrackPointExtension>
        </extensions>
      </trkpt>
      <trkpt lat="60.0810921750962734222412109375" lon="15.7845802791416645050048828125">
        <ele>189</ele>
        <time>2018-08-18T08:55:59.000Z</time>
        <extensions>
          <ns3:TrackPointExtension>
            <ns3:atemp>15.0</ns3:atemp>
          </ns3:TrackPointExtension>
        </extensions>
      </trkpt>
      <trkpt lat="60.0813785009086132049560546875" lon="15.78461355529725551605224609375">
        <ele>188</ele>
        <time>2018-08-18T08:56:03.000Z</time>
        <extensions>
          <ns3:TrackPointExtension>
            <ns3:atemp>15.0</ns3:atemp>
          </ns3:TrackPointExtension>
        </extensions>
      </trkpt>
      <trkpt lat="60.08198895491659641265869140625" lon="15.7846946083009243011474609375">
        <ele>186</ele>
        <time>2018-08-18T08:56:11.000Z</time>
        <extensions>
          <ns3:TrackPointExtension>
            <ns3:atemp>15.0</ns3:atemp>
          </ns3:TrackPointExtension>
        </extensions>
      </trkpt>
      <trkpt lat="60.08223094046115875244140625" lon="15.7847603224217891693115234375">
        <ele>185.399993896484375</ele>
        <time>2018-08-18T08:56:14.000Z</time>
        <extensions>
          <ns3:TrackPointExtension>
            <ns3:atemp>15.0</ns3:atemp>
          </ns3:TrackPointExtension>
        </extensions>
      </trkpt>
      <trkpt lat="60.08247493766248226165771484375" lon="15.78486836515367031097412109375">
        <ele>184.600006103515625</ele>
        <time>2018-08-18T08:56:17.000Z</time>
        <extensions>
          <ns3:TrackPointExtension>
            <ns3:atemp>15.0</ns3:atemp>
          </ns3:TrackPointExtension>
        </extensions>
      </trkpt>
      <trkpt lat="60.08272237144410610198974609375" lon="15.78491044230759143829345703125">
        <ele>183.8000030517578125</ele>
        <time>2018-08-18T08:56:20.000Z</time>
        <extensions>
          <ns3:TrackPointExtension>
            <ns3:atemp>15.0</ns3:atemp>
          </ns3:TrackPointExtension>
        </extensions>
      </trkpt>
      <trkpt lat="60.0828081183135509490966796875" lon="15.78489401377737522125244140625">
        <ele>183.399993896484375</ele>
        <time>2018-08-18T08:56:21.000Z</time>
        <extensions>
          <ns3:TrackPointExtension>
            <ns3:atemp>15.0</ns3:atemp>
          </ns3:TrackPointExtension>
        </extensions>
      </trkpt>
      <trkpt lat="60.0830682925879955291748046875" lon="15.78476308844983577728271484375">
        <ele>182.8000030517578125</ele>
        <time>2018-08-18T08:56:24.000Z</time>
        <extensions>
          <ns3:TrackPointExtension>
            <ns3:atemp>15.0</ns3:atemp>
          </ns3:TrackPointExtension>
        </extensions>
      </trkpt>
      <trkpt lat="60.0835432112216949462890625" lon="15.78450039960443973541259765625">
        <ele>181.1999969482421875</ele>
        <time>2018-08-18T08:56:31.000Z</time>
        <extensions>
          <ns3:TrackPointExtension>
            <ns3:atemp>15.0</ns3:atemp>
          </ns3:TrackPointExtension>
        </extensions>
      </trkpt>
      <trkpt lat="60.0841123424470424652099609375" lon="15.784360505640506744384765625">
        <ele>179.600006103515625</ele>
        <time>2018-08-18T08:56:40.000Z</time>
        <extensions>
          <ns3:TrackPointExtension>
            <ns3:atemp>15.0</ns3:atemp>
          </ns3:TrackPointExtension>
        </extensions>
      </trkpt>
      <trkpt lat="60.08465155027806758880615234375" lon="15.7841715775430202484130859375">
        <ele>178</ele>
        <time>2018-08-18T08:56:49.000Z</time>
        <extensions>
          <ns3:TrackPointExtension>
            <ns3:atemp>15.0</ns3:atemp>
          </ns3:TrackPointExtension>
        </extensions>
      </trkpt>
      <trkpt lat="60.084987245500087738037109375" lon="15.78446217812597751617431640625">
        <ele>176.8000030517578125</ele>
        <time>2018-08-18T08:56:54.000Z</time>
        <extensions>
          <ns3:TrackPointExtension>
            <ns3:atemp>15.0</ns3:atemp>
          </ns3:TrackPointExtension>
        </extensions>
      </trkpt>
      <trkpt lat="60.08511741645634174346923828125" lon="15.7846272177994251251220703125">
        <ele>176.399993896484375</ele>
        <time>2018-08-18T08:56:56.000Z</time>
        <extensions>
          <ns3:TrackPointExtension>
            <ns3:atemp>15.0</ns3:atemp>
          </ns3:TrackPointExtension>
        </extensions>
      </trkpt>
      <trkpt lat="60.08550323545932769775390625" lon="15.78474783338606357574462890625">
        <ele>175.1999969482421875</ele>
        <time>2018-08-18T08:57:01.000Z</time>
        <extensions>
          <ns3:TrackPointExtension>
            <ns3:atemp>15.0</ns3:atemp>
          </ns3:TrackPointExtension>
        </extensions>
      </trkpt>
      <trkpt lat="60.0856593064963817596435546875" lon="15.78471028245985507965087890625">
        <ele>174.600006103515625</ele>
        <time>2018-08-18T08:57:03.000Z</time>
        <extensions>
          <ns3:TrackPointExtension>
            <ns3:atemp>15.0</ns3:atemp>
          </ns3:TrackPointExtension>
        </extensions>
      </trkpt>
      <trkpt lat="60.086241848766803741455078125" lon="15.7844907604157924652099609375">
        <ele>172.8000030517578125</ele>
        <time>2018-08-18T08:57:12.000Z</time>
        <extensions>
          <ns3:TrackPointExtension>
            <ns3:atemp>15.0</ns3:atemp>
          </ns3:TrackPointExtension>
        </extensions>
      </trkpt>
      <trkpt lat="60.086827576160430908203125" lon="15.784413814544677734375">
        <ele>171.399993896484375</ele>
        <time>2018-08-18T08:57:21.000Z</time>
        <extensions>
          <ns3:TrackPointExtension>
            <ns3:atemp>15.0</ns3:atemp>
          </ns3:TrackPointExtension>
        </extensions>
      </trkpt>
      <trkpt lat="60.08702547289431095123291015625" lon="15.78445480205118656158447265625">
        <ele>171.1999969482421875</ele>
        <time>2018-08-18T08:57:24.000Z</time>
        <extensions>
          <ns3:TrackPointExtension>
            <ns3:atemp>15.0</ns3:atemp>
          </ns3:TrackPointExtension>
        </extensions>
      </trkpt>
      <trkpt lat="60.08733778260648250579833984375" lon="15.78428297303617000579833984375">
        <ele>170.8000030517578125</ele>
        <time>2018-08-18T08:57:29.000Z</time>
        <extensions>
          <ns3:TrackPointExtension>
            <ns3:atemp>15.0</ns3:atemp>
          </ns3:TrackPointExtension>
        </extensions>
      </trkpt>
      <trkpt lat="60.08744674734771251678466796875" lon="15.78417803160846233367919921875">
        <ele>170.8000030517578125</ele>
        <time>2018-08-18T08:57:31.000Z</time>
        <extensions>
          <ns3:TrackPointExtension>
            <ns3:atemp>15.0</ns3:atemp>
          </ns3:TrackPointExtension>
        </extensions>
      </trkpt>
      <trkpt lat="60.08760281838476657867431640625" lon="15.7840589247643947601318359375">
        <ele>170.600006103515625</ele>
        <time>2018-08-18T08:57:34.000Z</time>
        <extensions>
          <ns3:TrackPointExtension>
            <ns3:atemp>15.0</ns3:atemp>
          </ns3:TrackPointExtension>
        </extensions>
      </trkpt>
      <trkpt lat="60.08813406340777873992919921875" lon="15.7838614471256732940673828125">
        <ele>170.1999969482421875</ele>
        <time>2018-08-18T08:57:44.000Z</time>
        <extensions>
          <ns3:TrackPointExtension>
            <ns3:atemp>15.0</ns3:atemp>
          </ns3:TrackPointExtension>
        </extensions>
      </trkpt>
      <trkpt lat="60.08829566650092601776123046875" lon="15.7837392389774322509765625">
        <ele>170.399993896484375</ele>
        <time>2018-08-18T08:57:47.000Z</time>
        <extensions>
          <ns3:TrackPointExtension>
            <ns3:atemp>15.0</ns3:atemp>
          </ns3:TrackPointExtension>
        </extensions>
      </trkpt>
      <trkpt lat="60.08879832923412322998046875" lon="15.78315191902220249176025390625">
        <ele>171.399993896484375</ele>
        <time>2018-08-18T08:57:58.000Z</time>
        <extensions>
          <ns3:TrackPointExtension>
            <ns3:atemp>15.0</ns3:atemp>
          </ns3:TrackPointExtension>
        </extensions>
      </trkpt>
      <trkpt lat="60.08929277770221233367919921875" lon="15.78270851634442806243896484375">
        <ele>172.1999969482421875</ele>
        <time>2018-08-18T08:58:10.000Z</time>
        <extensions>
          <ns3:TrackPointExtension>
            <ns3:atemp>15.0</ns3:atemp>
          </ns3:TrackPointExtension>
        </extensions>
      </trkpt>
      <trkpt lat="60.0893916003406047821044921875" lon="15.78261799179017543792724609375">
        <ele>172.399993896484375</ele>
        <time>2018-08-18T08:58:12.000Z</time>
        <extensions>
          <ns3:TrackPointExtension>
            <ns3:atemp>15.0</ns3:atemp>
          </ns3:TrackPointExtension>
        </extensions>
      </trkpt>
      <trkpt lat="60.08989962749183177947998046875" lon="15.78200426883995532989501953125">
        <ele>173.399993896484375</ele>
        <time>2018-08-18T08:58:22.000Z</time>
        <extensions>
          <ns3:TrackPointExtension>
            <ns3:atemp>15.0</ns3:atemp>
          </ns3:TrackPointExtension>
        </extensions>
      </trkpt>
      <trkpt lat="60.09014605544507503509521484375" lon="15.78189295716583728790283203125">
        <ele>173.600006103515625</ele>
        <time>2018-08-18T08:58:26.000Z</time>
        <extensions>
          <ns3:TrackPointExtension>
            <ns3:atemp>15.0</ns3:atemp>
          </ns3:TrackPointExtension>
        </extensions>
      </trkpt>
      <trkpt lat="60.09039130993187427520751953125" lon="15.78186362050473690032958984375">
        <ele>173.600006103515625</ele>
        <time>2018-08-18T08:58:30.000Z</time>
        <extensions>
          <ns3:TrackPointExtension>
            <ns3:atemp>15.0</ns3:atemp>
          </ns3:TrackPointExtension>
        </extensions>
      </trkpt>
      <trkpt lat="60.090646035969257354736328125" lon="15.78161568380892276763916015625">
        <ele>174</ele>
        <time>2018-08-18T08:58:35.000Z</time>
        <extensions>
          <ns3:TrackPointExtension>
            <ns3:atemp>15.0</ns3:atemp>
          </ns3:TrackPointExtension>
        </extensions>
      </trkpt>
      <trkpt lat="60.09074619971215724945068359375" lon="15.78153370879590511322021484375">
        <ele>174.1999969482421875</ele>
        <time>2018-08-18T08:58:37.000Z</time>
        <extensions>
          <ns3:TrackPointExtension>
            <ns3:atemp>15.0</ns3:atemp>
          </ns3:TrackPointExtension>
        </extensions>
      </trkpt>
      <trkpt lat="60.09112154133617877960205078125" lon="15.78191190026700496673583984375">
        <ele>173.8000030517578125</ele>
        <time>2018-08-18T08:58:44.000Z</time>
        <extensions>
          <ns3:TrackPointExtension>
            <ns3:atemp>15.0</ns3:atemp>
          </ns3:TrackPointExtension>
        </extensions>
      </trkpt>
      <trkpt lat="60.09151767008006572723388671875" lon="15.78218020498752593994140625">
        <ele>173.600006103515625</ele>
        <time>2018-08-18T08:58:51.000Z</time>
        <extensions>
          <ns3:TrackPointExtension>
            <ns3:atemp>15.0</ns3:atemp>
          </ns3:TrackPointExtension>
        </extensions>
      </trkpt>
      <trkpt lat="60.091578103601932525634765625" lon="15.78216033987700939178466796875">
        <ele>173.600006103515625</ele>
        <time>2018-08-18T08:58:52.000Z</time>
        <extensions>
          <ns3:TrackPointExtension>
            <ns3:atemp>15.0</ns3:atemp>
          </ns3:TrackPointExtension>
        </extensions>
      </trkpt>
      <trkpt lat="60.09201069362461566925048828125" lon="15.7819835655391216278076171875">
        <ele>174</ele>
        <time>2018-08-18T08:58:59.000Z</time>
        <extensions>
          <ns3:TrackPointExtension>
            <ns3:atemp>15.0</ns3:atemp>
          </ns3:TrackPointExtension>
        </extensions>
      </trkpt>
      <trkpt lat="60.092467926442623138427734375" lon="15.7813304476439952850341796875">
        <ele>174.8000030517578125</ele>
        <time>2018-08-18T08:59:08.000Z</time>
        <extensions>
          <ns3:TrackPointExtension>
            <ns3:atemp>15.0</ns3:atemp>
          </ns3:TrackPointExtension>
        </extensions>
      </trkpt>
      <trkpt lat="60.09252232499420642852783203125" lon="15.78127403743565082550048828125">
        <ele>175</ele>
        <time>2018-08-18T08:59:09.000Z</time>
        <extensions>
          <ns3:TrackPointExtension>
            <ns3:atemp>15.0</ns3:atemp>
          </ns3:TrackPointExtension>
        </extensions>
      </trkpt>
      <trkpt lat="60.09298835881054401397705078125" lon="15.78072049655020236968994140625">
        <ele>175.8000030517578125</ele>
        <time>2018-08-18T08:59:19.000Z</time>
        <extensions>
          <ns3:TrackPointExtension>
            <ns3:atemp>15.0</ns3:atemp>
          </ns3:TrackPointExtension>
        </extensions>
      </trkpt>
      <trkpt lat="60.09320788085460662841796875" lon="15.78021691180765628814697265625">
        <ele>176.399993896484375</ele>
        <time>2018-08-18T08:59:26.000Z</time>
        <extensions>
          <ns3:TrackPointExtension>
            <ns3:atemp>15.0</ns3:atemp>
          </ns3:TrackPointExtension>
        </extensions>
      </trkpt>
      <trkpt lat="60.0933627784252166748046875" lon="15.77986411750316619873046875">
        <ele>176.8000030517578125</ele>
        <time>2018-08-18T08:59:31.000Z</time>
        <extensions>
          <ns3:TrackPointExtension>
            <ns3:atemp>15.0</ns3:atemp>
          </ns3:TrackPointExtension>
        </extensions>
      </trkpt>
      <trkpt lat="60.09363762103021144866943359375" lon="15.77921158634126186370849609375">
        <ele>177.600006103515625</ele>
        <time>2018-08-18T08:59:39.000Z</time>
        <extensions>
          <ns3:TrackPointExtension>
            <ns3:atemp>15.0</ns3:atemp>
          </ns3:TrackPointExtension>
        </extensions>
      </trkpt>
      <trkpt lat="60.09403794072568416595458984375" lon="15.7783568836748600006103515625">
        <ele>178.399993896484375</ele>
        <time>2018-08-18T08:59:49.000Z</time>
        <extensions>
          <ns3:TrackPointExtension>
            <ns3:atemp>15.0</ns3:atemp>
          </ns3:TrackPointExtension>
        </extensions>
      </trkpt>
      <trkpt lat="60.09444572031497955322265625" lon="15.77749178744852542877197265625">
        <ele>179.399993896484375</ele>
        <time>2018-08-18T08:59:58.000Z</time>
        <extensions>
          <ns3:TrackPointExtension>
            <ns3:atemp>15.0</ns3:atemp>
          </ns3:TrackPointExtension>
        </extensions>
      </trkpt>
      <trkpt lat="60.094653926789760589599609375" lon="15.77706665731966495513916015625">
        <ele>179.8000030517578125</ele>
        <time>2018-08-18T09:00:02.000Z</time>
        <extensions>
          <ns3:TrackPointExtension>
            <ns3:atemp>15.0</ns3:atemp>
          </ns3:TrackPointExtension>
        </extensions>
      </trkpt>
      <trkpt lat="60.0949467904865741729736328125" lon="15.77674764208495616912841796875">
        <ele>180.1999969482421875</ele>
        <time>2018-08-18T09:00:07.000Z</time>
        <extensions>
          <ns3:TrackPointExtension>
            <ns3:atemp>15.0</ns3:atemp>
          </ns3:TrackPointExtension>
        </extensions>
      </trkpt>
      <trkpt lat="60.09505667723715305328369140625" lon="15.77660012058913707733154296875">
        <ele>180.399993896484375</ele>
        <time>2018-08-18T09:00:09.000Z</time>
        <extensions>
          <ns3:TrackPointExtension>
            <ns3:atemp>15.0</ns3:atemp>
          </ns3:TrackPointExtension>
        </extensions>
      </trkpt>
      <trkpt lat="60.0951697491109371185302734375" lon="15.77567023225128650665283203125">
        <ele>181.399993896484375</ele>
        <time>2018-08-18T09:00:16.000Z</time>
        <extensions>
          <ns3:TrackPointExtension>
            <ns3:atemp>15.0</ns3:atemp>
          </ns3:TrackPointExtension>
        </extensions>
      </trkpt>
      <trkpt lat="60.09517217986285686492919921875" lon="15.77554819174110889434814453125">
        <ele>181.399993896484375</ele>
        <time>2018-08-18T09:00:17.000Z</time>
        <extensions>
          <ns3:TrackPointExtension>
            <ns3:atemp>15.0</ns3:atemp>
          </ns3:TrackPointExtension>
        </extensions>
      </trkpt>
      <trkpt lat="60.09537418372929096221923828125" lon="15.77485735528171062469482421875">
        <ele>182.1999969482421875</ele>
        <time>2018-08-18T09:00:24.000Z</time>
        <extensions>
          <ns3:TrackPointExtension>
            <ns3:atemp>15.0</ns3:atemp>
          </ns3:TrackPointExtension>
        </extensions>
      </trkpt>
      <trkpt lat="60.09550225920975208282470703125" lon="15.77457907609641551971435546875">
        <ele>182.600006103515625</ele>
        <time>2018-08-18T09:00:27.000Z</time>
        <extensions>
          <ns3:TrackPointExtension>
            <ns3:atemp>15.0</ns3:atemp>
          </ns3:TrackPointExtension>
        </extensions>
      </trkpt>
      <trkpt lat="60.0957821309566497802734375" lon="15.77357224188745021820068359375">
        <ele>182.600006103515625</ele>
        <time>2018-08-18T09:00:37.000Z</time>
        <extensions>
          <ns3:TrackPointExtension>
            <ns3:atemp>15.0</ns3:atemp>
          </ns3:TrackPointExtension>
        </extensions>
      </trkpt>
      <trkpt lat="60.09582169353961944580078125" lon="15.7732821442186832427978515625">
        <ele>182.600006103515625</ele>
        <time>2018-08-18T09:00:40.000Z</time>
        <extensions>
          <ns3:TrackPointExtension>
            <ns3:atemp>15.0</ns3:atemp>
          </ns3:TrackPointExtension>
        </extensions>
      </trkpt>
      <trkpt lat="60.0959264673292636871337890625" lon="15.77256306074559688568115234375">
        <ele>182.8000030517578125</ele>
        <time>2018-08-18T09:00:49.000Z</time>
        <extensions>
          <ns3:TrackPointExtension>
            <ns3:atemp>15.0</ns3:atemp>
          </ns3:TrackPointExtension>
        </extensions>
      </trkpt>
      <trkpt lat="60.0959921814501285552978515625" lon="15.77219727449119091033935546875">
        <ele>182.8000030517578125</ele>
        <time>2018-08-18T09:00:54.000Z</time>
        <extensions>
          <ns3:TrackPointExtension>
            <ns3:atemp>15.0</ns3:atemp>
          </ns3:TrackPointExtension>
        </extensions>
      </trkpt>
      <trkpt lat="60.09602193720638751983642578125" lon="15.771919749677181243896484375">
        <ele>183</ele>
        <time>2018-08-18T09:00:58.000Z</time>
        <extensions>
          <ns3:TrackPointExtension>
            <ns3:atemp>15.0</ns3:atemp>
          </ns3:TrackPointExtension>
        </extensions>
      </trkpt>
      <trkpt lat="60.0960210151970386505126953125" lon="15.77165521681308746337890625">
        <ele>183</ele>
        <time>2018-08-18T09:01:02.000Z</time>
        <extensions>
          <ns3:TrackPointExtension>
            <ns3:atemp>15.0</ns3:atemp>
          </ns3:TrackPointExtension>
        </extensions>
      </trkpt>
      <trkpt lat="60.095998384058475494384765625" lon="15.77135975472629070281982421875">
        <ele>183.1999969482421875</ele>
        <time>2018-08-18T09:01:07.000Z</time>
        <extensions>
          <ns3:TrackPointExtension>
            <ns3:atemp>15.0</ns3:atemp>
          </ns3:TrackPointExtension>
        </extensions>
      </trkpt>
      <trkpt lat="60.09597726166248321533203125" lon="15.77107460238039493560791015625">
        <ele>183.1999969482421875</ele>
        <time>2018-08-18T09:01:12.000Z</time>
        <extensions>
          <ns3:TrackPointExtension>
            <ns3:atemp>15.0</ns3:atemp>
          </ns3:TrackPointExtension>
        </extensions>
      </trkpt>
      <trkpt lat="60.095974914729595184326171875" lon="15.770905204117298126220703125">
        <ele>183.399993896484375</ele>
        <time>2018-08-18T09:01:15.000Z</time>
        <extensions>
          <ns3:TrackPointExtension>
            <ns3:atemp>15.0</ns3:atemp>
          </ns3:TrackPointExtension>
        </extensions>
      </trkpt>
      <trkpt lat="60.09598589502274990081787109375" lon="15.77068400569260120391845703125">
        <ele>183.399993896484375</ele>
        <time>2018-08-18T09:01:19.000Z</time>
        <extensions>
          <ns3:TrackPointExtension>
            <ns3:atemp>15.0</ns3:atemp>
          </ns3:TrackPointExtension>
        </extensions>
      </trkpt>
      <trkpt lat="60.09600810706615447998046875" lon="15.77047026716172695159912109375">
        <ele>183.399993896484375</ele>
        <time>2018-08-18T09:01:23.000Z</time>
        <extensions>
          <ns3:TrackPointExtension>
            <ns3:atemp>15.0</ns3:atemp>
          </ns3:TrackPointExtension>
        </extensions>
      </trkpt>
      <trkpt lat="60.0960414670407772064208984375" lon="15.770211853086948394775390625">
        <ele>183.600006103515625</ele>
        <time>2018-08-18T09:01:28.000Z</time>
        <extensions>
          <ns3:TrackPointExtension>
            <ns3:atemp>15.0</ns3:atemp>
          </ns3:TrackPointExtension>
        </extensions>
      </trkpt>
      <trkpt lat="60.096058733761310577392578125" lon="15.7700524292886257171630859375">
        <ele>183.600006103515625</ele>
        <time>2018-08-18T09:01:31.000Z</time>
        <extensions>
          <ns3:TrackPointExtension>
            <ns3:atemp>15.0</ns3:atemp>
          </ns3:TrackPointExtension>
        </extensions>
      </trkpt>
      <trkpt lat="60.09609268046915531158447265625" lon="15.76979954726994037628173828125">
        <ele>183.600006103515625</ele>
        <time>2018-08-18T09:01:36.000Z</time>
        <extensions>
          <ns3:TrackPointExtension>
            <ns3:atemp>15.0</ns3:atemp>
          </ns3:TrackPointExtension>
        </extensions>
      </trkpt>
      <trkpt lat="60.0961281359195709228515625" lon="15.76960391364991664886474609375">
        <ele>183.600006103515625</ele>
        <time>2018-08-18T09:01:40.000Z</time>
        <extensions>
          <ns3:TrackPointExtension>
            <ns3:atemp>15.0</ns3:atemp>
          </ns3:TrackPointExtension>
        </extensions>
      </trkpt>
      <trkpt lat="60.0961651839315891265869140625" lon="15.76939973048865795135498046875">
        <ele>183.8000030517578125</ele>
        <time>2018-08-18T09:01:44.000Z</time>
        <extensions>
          <ns3:TrackPointExtension>
            <ns3:atemp>15.0</ns3:atemp>
          </ns3:TrackPointExtension>
        </extensions>
      </trkpt>
      <trkpt lat="60.09622377343475818634033203125" lon="15.76900728978216648101806640625">
        <ele>183.8000030517578125</ele>
        <time>2018-08-18T09:01:50.000Z</time>
        <extensions>
          <ns3:TrackPointExtension>
            <ns3:atemp>15.0</ns3:atemp>
          </ns3:TrackPointExtension>
        </extensions>
      </trkpt>
      <trkpt lat="60.09645947255194187164306640625" lon="15.76799475587904453277587890625">
        <ele>184</ele>
        <time>2018-08-18T09:02:03.000Z</time>
        <extensions>
          <ns3:TrackPointExtension>
            <ns3:atemp>15.0</ns3:atemp>
          </ns3:TrackPointExtension>
        </extensions>
      </trkpt>
      <trkpt lat="60.0965224206447601318359375" lon="15.76778202317655086517333984375">
        <ele>184</ele>
        <time>2018-08-18T09:02:06.000Z</time>
        <extensions>
          <ns3:TrackPointExtension>
            <ns3:atemp>15.0</ns3:atemp>
          </ns3:TrackPointExtension>
        </extensions>
      </trkpt>
      <trkpt lat="60.09665451943874359130859375" lon="15.7671117223799228668212890625">
        <ele>184.399993896484375</ele>
        <time>2018-08-18T09:02:15.000Z</time>
        <extensions>
          <ns3:TrackPointExtension>
            <ns3:atemp>15.0</ns3:atemp>
          </ns3:TrackPointExtension>
        </extensions>
      </trkpt>
      <trkpt lat="60.0966328941285610198974609375" lon="15.7667295075953006744384765625">
        <ele>185</ele>
        <time>2018-08-18T09:02:19.000Z</time>
        <extensions>
          <ns3:TrackPointExtension>
            <ns3:atemp>15.0</ns3:atemp>
          </ns3:TrackPointExtension>
        </extensions>
      </trkpt>
      <trkpt lat="60.09646416641771793365478515625" lon="15.76565469615161418914794921875">
        <ele>186.1999969482421875</ele>
        <time>2018-08-18T09:02:27.000Z</time>
        <extensions>
          <ns3:TrackPointExtension>
            <ns3:atemp>15.0</ns3:atemp>
          </ns3:TrackPointExtension>
        </extensions>
      </trkpt>
      <trkpt lat="60.09641848504543304443359375" lon="15.76519285328686237335205078125">
        <ele>186.600006103515625</ele>
        <time>2018-08-18T09:02:30.000Z</time>
        <extensions>
          <ns3:TrackPointExtension>
            <ns3:atemp>15.0</ns3:atemp>
          </ns3:TrackPointExtension>
        </extensions>
      </trkpt>
      <trkpt lat="60.09639509953558444976806640625" lon="15.76489026658236980438232421875">
        <ele>186.8000030517578125</ele>
        <time>2018-08-18T09:02:32.000Z</time>
        <extensions>
          <ns3:TrackPointExtension>
            <ns3:atemp>15.0</ns3:atemp>
          </ns3:TrackPointExtension>
        </extensions>
      </trkpt>
      <trkpt lat="60.09637934155762195587158203125" lon="15.764611400663852691650390625">
        <ele>186.8000030517578125</ele>
        <time>2018-08-18T09:02:34.000Z</time>
        <extensions>
          <ns3:TrackPointExtension>
            <ns3:atemp>15.0</ns3:atemp>
          </ns3:TrackPointExtension>
        </extensions>
      </trkpt>
      <trkpt lat="60.09636081755161285400390625" lon="15.76420999132096767425537109375">
        <ele>187.1999969482421875</ele>
        <time>2018-08-18T09:02:37.000Z</time>
        <extensions>
          <ns3:TrackPointExtension>
            <ns3:atemp>15.0</ns3:atemp>
          </ns3:TrackPointExtension>
        </extensions>
      </trkpt>
      <trkpt lat="60.09634112007915973663330078125" lon="15.76340901665389537811279296875">
        <ele>187.600006103515625</ele>
        <time>2018-08-18T09:02:43.000Z</time>
        <extensions>
          <ns3:TrackPointExtension>
            <ns3:atemp>15.0</ns3:atemp>
          </ns3:TrackPointExtension>
        </extensions>
      </trkpt>
      <trkpt lat="60.09655150584876537322998046875" lon="15.7626381330192089080810546875">
        <ele>188</ele>
        <time>2018-08-18T09:02:50.000Z</time>
        <extensions>
          <ns3:TrackPointExtension>
            <ns3:atemp>15.0</ns3:atemp>
          </ns3:TrackPointExtension>
        </extensions>
      </trkpt>
      <trkpt lat="60.09689390659332275390625" lon="15.76173833571374416351318359375">
        <ele>188.600006103515625</ele>
        <time>2018-08-18T09:02:59.000Z</time>
        <extensions>
          <ns3:TrackPointExtension>
            <ns3:atemp>15.0</ns3:atemp>
          </ns3:TrackPointExtension>
        </extensions>
      </trkpt>
      <trkpt lat="60.09708367288112640380859375" lon="15.76067282818257808685302734375">
        <ele>189.399993896484375</ele>
        <time>2018-08-18T09:03:08.000Z</time>
        <extensions>
          <ns3:TrackPointExtension>
            <ns3:atemp>15.0</ns3:atemp>
          </ns3:TrackPointExtension>
        </extensions>
      </trkpt>
      <trkpt lat="60.09709750302135944366455078125" lon="15.76055631972849369049072265625">
        <ele>189.399993896484375</ele>
        <time>2018-08-18T09:03:09.000Z</time>
        <extensions>
          <ns3:TrackPointExtension>
            <ns3:atemp>15.0</ns3:atemp>
          </ns3:TrackPointExtension>
        </extensions>
      </trkpt>
      <trkpt lat="60.09710839949548244476318359375" lon="15.76005022041499614715576171875">
        <ele>189.600006103515625</ele>
        <time>2018-08-18T09:03:13.000Z</time>
        <extensions>
          <ns3:TrackPointExtension>
            <ns3:atemp>15.0</ns3:atemp>
          </ns3:TrackPointExtension>
        </extensions>
      </trkpt>
      <trkpt lat="60.09708509780466556549072265625" lon="15.75952869839966297149658203125">
        <ele>190</ele>
        <time>2018-08-18T09:03:17.000Z</time>
        <extensions>
          <ns3:TrackPointExtension>
            <ns3:atemp>15.0</ns3:atemp>
          </ns3:TrackPointExtension>
        </extensions>
      </trkpt>
      <trkpt lat="60.09707294404506683349609375" lon="15.75913039036095142364501953125">
        <ele>190.8000030517578125</ele>
        <time>2018-08-18T09:03:20.000Z</time>
        <extensions>
          <ns3:TrackPointExtension>
            <ns3:atemp>15.0</ns3:atemp>
          </ns3:TrackPointExtension>
        </extensions>
      </trkpt>
      <trkpt lat="60.09707973338663578033447265625" lon="15.75900633819401264190673828125">
        <ele>191</ele>
        <time>2018-08-18T09:03:21.000Z</time>
        <extensions>
          <ns3:TrackPointExtension>
            <ns3:atemp>15.0</ns3:atemp>
          </ns3:TrackPointExtension>
        </extensions>
      </trkpt>
      <trkpt lat="60.09715885855257511138916015625" lon="15.75850032269954681396484375">
        <ele>192</ele>
        <time>2018-08-18T09:03:25.000Z</time>
        <extensions>
          <ns3:TrackPointExtension>
            <ns3:atemp>15.0</ns3:atemp>
          </ns3:TrackPointExtension>
        </extensions>
      </trkpt>
      <trkpt lat="60.097183249890804290771484375" lon="15.75837249867618083953857421875">
        <ele>192.399993896484375</ele>
        <time>2018-08-18T09:03:26.000Z</time>
        <extensions>
          <ns3:TrackPointExtension>
            <ns3:atemp>15.0</ns3:atemp>
          </ns3:TrackPointExtension>
        </extensions>
      </trkpt>
      <trkpt lat="60.097261033952236175537109375" lon="15.7580160163342952728271484375">
        <ele>193.1999969482421875</ele>
        <time>2018-08-18T09:03:29.000Z</time>
        <extensions>
          <ns3:TrackPointExtension>
            <ns3:atemp>15.0</ns3:atemp>
          </ns3:TrackPointExtension>
        </extensions>
      </trkpt>
      <trkpt lat="60.09739707224071025848388671875" lon="15.75738091953098773956298828125">
        <ele>194.399993896484375</ele>
        <time>2018-08-18T09:03:35.000Z</time>
        <extensions>
          <ns3:TrackPointExtension>
            <ns3:atemp>15.0</ns3:atemp>
          </ns3:TrackPointExtension>
        </extensions>
      </trkpt>
      <trkpt lat="60.09761743247509002685546875" lon="15.7563620992004871368408203125">
        <ele>195</ele>
        <time>2018-08-18T09:03:47.000Z</time>
        <extensions>
          <ns3:TrackPointExtension>
            <ns3:atemp>15.0</ns3:atemp>
          </ns3:TrackPointExtension>
        </extensions>
      </trkpt>
      <trkpt lat="60.09767099283635616302490234375" lon="15.7561180181801319122314453125">
        <ele>195.1999969482421875</ele>
        <time>2018-08-18T09:03:50.000Z</time>
        <extensions>
          <ns3:TrackPointExtension>
            <ns3:atemp>15.0</ns3:atemp>
          </ns3:TrackPointExtension>
        </extensions>
      </trkpt>
      <trkpt lat="60.09777207858860492706298828125" lon="15.75564938597381114959716796875">
        <ele>195.399993896484375</ele>
        <time>2018-08-18T09:03:56.000Z</time>
        <extensions>
          <ns3:TrackPointExtension>
            <ns3:atemp>15.0</ns3:atemp>
          </ns3:TrackPointExtension>
        </extensions>
      </trkpt>
      <trkpt lat="60.0978606753051280975341796875" lon="15.75521302409470081329345703125">
        <ele>195.600006103515625</ele>
        <time>2018-08-18T09:04:03.000Z</time>
        <extensions>
          <ns3:TrackPointExtension>
            <ns3:atemp>15.0</ns3:atemp>
          </ns3:TrackPointExtension>
        </extensions>
      </trkpt>
      <trkpt lat="60.0979149900376796722412109375" lon="15.7549415342509746551513671875">
        <ele>195.8000030517578125</ele>
        <time>2018-08-18T09:04:07.000Z</time>
        <extensions>
          <ns3:TrackPointExtension>
            <ns3:atemp>15.0</ns3:atemp>
          </ns3:TrackPointExtension>
        </extensions>
      </trkpt>
      <trkpt lat="60.09796000085771083831787109375" lon="15.75471832416951656341552734375">
        <ele>195.8000030517578125</ele>
        <time>2018-08-18T09:04:10.000Z</time>
        <extensions>
          <ns3:TrackPointExtension>
            <ns3:atemp>15.0</ns3:atemp>
          </ns3:TrackPointExtension>
        </extensions>
      </trkpt>
      <trkpt lat="60.09803644381463527679443359375" lon="15.7543299905955791473388671875">
        <ele>196</ele>
        <time>2018-08-18T09:04:15.000Z</time>
        <extensions>
          <ns3:TrackPointExtension>
            <ns3:atemp>15.0</ns3:atemp>
          </ns3:TrackPointExtension>
        </extensions>
      </trkpt>
      <trkpt lat="60.0982043333351612091064453125" lon="15.7534944824874401092529296875">
        <ele>196.600006103515625</ele>
        <time>2018-08-18T09:04:25.000Z</time>
        <extensions>
          <ns3:TrackPointExtension>
            <ns3:atemp>15.0</ns3:atemp>
          </ns3:TrackPointExtension>
        </extensions>
      </trkpt>
      <trkpt lat="60.0983672775328159332275390625" lon="15.7526391930878162384033203125">
        <ele>197</ele>
        <time>2018-08-18T09:04:35.000Z</time>
        <extensions>
          <ns3:TrackPointExtension>
            <ns3:atemp>15.0</ns3:atemp>
          </ns3:TrackPointExtension>
        </extensions>
      </trkpt>
      <trkpt lat="60.098551176488399505615234375" lon="15.75195916928350925445556640625">
        <ele>197.600006103515625</ele>
        <time>2018-08-18T09:04:45.000Z</time>
        <extensions>
          <ns3:TrackPointExtension>
            <ns3:atemp>15.0</ns3:atemp>
          </ns3:TrackPointExtension>
        </extensions>
      </trkpt>
      <trkpt lat="60.09863398969173431396484375" lon="15.75174828059971332550048828125">
        <ele>198</ele>
        <time>2018-08-18T09:04:49.000Z</time>
        <extensions>
          <ns3:TrackPointExtension>
            <ns3:atemp>15.0</ns3:atemp>
          </ns3:TrackPointExtension>
        </extensions>
      </trkpt>
      <trkpt lat="60.09871847927570343017578125" lon="15.75151375494897365570068359375">
        <ele>198.1999969482421875</ele>
        <time>2018-08-18T09:04:53.000Z</time>
        <extensions>
          <ns3:TrackPointExtension>
            <ns3:atemp>15.0</ns3:atemp>
          </ns3:TrackPointExtension>
        </extensions>
      </trkpt>
      <trkpt lat="60.0988185591995716094970703125" lon="15.75119960121810436248779296875">
        <ele>198.600006103515625</ele>
        <time>2018-08-18T09:04:58.000Z</time>
        <extensions>
          <ns3:TrackPointExtension>
            <ns3:atemp>15.0</ns3:atemp>
          </ns3:TrackPointExtension>
        </extensions>
      </trkpt>
      <trkpt lat="60.09893649257719516754150390625" lon="15.750907994806766510009765625">
        <ele>199</ele>
        <time>2018-08-18T09:05:03.000Z</time>
        <extensions>
          <ns3:TrackPointExtension>
            <ns3:atemp>15.0</ns3:atemp>
          </ns3:TrackPointExtension>
        </extensions>
      </trkpt>
      <trkpt lat="60.0989632308483123779296875" lon="15.7508461363613605499267578125">
        <ele>199</ele>
        <time>2018-08-18T09:05:04.000Z</time>
        <extensions>
          <ns3:TrackPointExtension>
            <ns3:atemp>15.0</ns3:atemp>
          </ns3:TrackPointExtension>
        </extensions>
      </trkpt>
      <trkpt lat="60.09919800795614719390869140625" lon="15.750277005136013031005859375">
        <ele>199.8000030517578125</ele>
        <time>2018-08-18T09:05:13.000Z</time>
        <extensions>
          <ns3:TrackPointExtension>
            <ns3:atemp>15.0</ns3:atemp>
          </ns3:TrackPointExtension>
        </extensions>
      </trkpt>
      <trkpt lat="60.09937771596014499664306640625" lon="15.7498352788388729095458984375">
        <ele>200.399993896484375</ele>
        <time>2018-08-18T09:05:20.000Z</time>
        <extensions>
          <ns3:TrackPointExtension>
            <ns3:atemp>15.0</ns3:atemp>
          </ns3:TrackPointExtension>
        </extensions>
      </trkpt>
      <trkpt lat="60.09959832765161991119384765625" lon="15.74932985007762908935546875">
        <ele>201.1999969482421875</ele>
        <time>2018-08-18T09:05:28.000Z</time>
        <extensions>
          <ns3:TrackPointExtension>
            <ns3:atemp>15.0</ns3:atemp>
          </ns3:TrackPointExtension>
        </extensions>
      </trkpt>
      <trkpt lat="60.09987895376980304718017578125" lon="15.74868838302791118621826171875">
        <ele>202.600006103515625</ele>
        <time>2018-08-18T09:05:39.000Z</time>
        <extensions>
          <ns3:TrackPointExtension>
            <ns3:atemp>15.0</ns3:atemp>
          </ns3:TrackPointExtension>
        </extensions>
      </trkpt>
      <trkpt lat="60.10000434704124927520751953125" lon="15.74838361702859401702880859375">
        <ele>203.399993896484375</ele>
        <time>2018-08-18T09:05:44.000Z</time>
        <extensions>
          <ns3:TrackPointExtension>
            <ns3:atemp>15.0</ns3:atemp>
          </ns3:TrackPointExtension>
        </extensions>
      </trkpt>
      <trkpt lat="60.10020752437412738800048828125" lon="15.74791657738387584686279296875">
        <ele>204.600006103515625</ele>
        <time>2018-08-18T09:05:52.000Z</time>
        <extensions>
          <ns3:TrackPointExtension>
            <ns3:atemp>15.0</ns3:atemp>
          </ns3:TrackPointExtension>
        </extensions>
      </trkpt>
      <trkpt lat="60.1003660261631011962890625" lon="15.74760560877621173858642578125">
        <ele>205.600006103515625</ele>
        <time>2018-08-18T09:05:58.000Z</time>
        <extensions>
          <ns3:TrackPointExtension>
            <ns3:atemp>14.0</ns3:atemp>
          </ns3:TrackPointExtension>
        </extensions>
      </trkpt>
      <trkpt lat="60.10047264397144317626953125" lon="15.74729137122631072998046875">
        <ele>206.399993896484375</ele>
        <time>2018-08-18T09:06:03.000Z</time>
        <extensions>
          <ns3:TrackPointExtension>
            <ns3:atemp>14.0</ns3:atemp>
          </ns3:TrackPointExtension>
        </extensions>
      </trkpt>
      <trkpt lat="60.1004882343113422393798828125" lon="15.74721350334584712982177734375">
        <ele>206.399993896484375</ele>
        <time>2018-08-18T09:06:04.000Z</time>
        <extensions>
          <ns3:TrackPointExtension>
            <ns3:atemp>14.0</ns3:atemp>
          </ns3:TrackPointExtension>
        </extensions>
      </trkpt>
      <trkpt lat="60.10050793178379535675048828125" lon="15.7461261190474033355712890625">
        <ele>208.399993896484375</ele>
        <time>2018-08-18T09:06:15.000Z</time>
        <extensions>
          <ns3:TrackPointExtension>
            <ns3:atemp>14.0</ns3:atemp>
          </ns3:TrackPointExtension>
        </extensions>
      </trkpt>
      <trkpt lat="60.1005200855433940887451171875" lon="15.74527694843709468841552734375">
        <ele>208.8000030517578125</ele>
        <time>2018-08-18T09:06:24.000Z</time>
        <extensions>
          <ns3:TrackPointExtension>
            <ns3:atemp>14.0</ns3:atemp>
          </ns3:TrackPointExtension>
        </extensions>
      </trkpt>
      <trkpt lat="60.10052419267594814300537109375" lon="15.74508483521640300750732421875">
        <ele>209</ele>
        <time>2018-08-18T09:06:26.000Z</time>
        <extensions>
          <ns3:TrackPointExtension>
            <ns3:atemp>14.0</ns3:atemp>
          </ns3:TrackPointExtension>
        </extensions>
      </trkpt>
      <trkpt lat="60.10051497258245944976806640625" lon="15.74435644783079624176025390625">
        <ele>209.1999969482421875</ele>
        <time>2018-08-18T09:06:35.000Z</time>
        <extensions>
          <ns3:TrackPointExtension>
            <ns3:atemp>14.0</ns3:atemp>
          </ns3:TrackPointExtension>
        </extensions>
      </trkpt>
      <trkpt lat="60.1005049981176853179931640625" lon="15.74410834349691867828369140625">
        <ele>209.399993896484375</ele>
        <time>2018-08-18T09:06:38.000Z</time>
        <extensions>
          <ns3:TrackPointExtension>
            <ns3:atemp>14.0</ns3:atemp>
          </ns3:TrackPointExtension>
        </extensions>
      </trkpt>
      <trkpt lat="60.10048094205558300018310546875" lon="15.74373836629092693328857421875">
        <ele>209.600006103515625</ele>
        <time>2018-08-18T09:06:42.000Z</time>
        <extensions>
          <ns3:TrackPointExtension>
            <ns3:atemp>14.0</ns3:atemp>
          </ns3:TrackPointExtension>
        </extensions>
      </trkpt>
      <trkpt lat="60.10043668560683727264404296875" lon="15.74263799004256725311279296875">
        <ele>210</ele>
        <time>2018-08-18T09:06:55.000Z</time>
        <extensions>
          <ns3:TrackPointExtension>
            <ns3:atemp>14.0</ns3:atemp>
          </ns3:TrackPointExtension>
        </extensions>
      </trkpt>
      <trkpt lat="60.10042444802820682525634765625" lon="15.7424236647784709930419921875">
        <ele>210.1999969482421875</ele>
        <time>2018-08-18T09:06:58.000Z</time>
        <extensions>
          <ns3:TrackPointExtension>
            <ns3:atemp>14.0</ns3:atemp>
          </ns3:TrackPointExtension>
        </extensions>
      </trkpt>
      <trkpt lat="60.100375749170780181884765625" lon="15.7419737242162227630615234375">
        <ele>210.399993896484375</ele>
        <time>2018-08-18T09:07:04.000Z</time>
        <extensions>
          <ns3:TrackPointExtension>
            <ns3:atemp>14.0</ns3:atemp>
          </ns3:TrackPointExtension>
        </extensions>
      </trkpt>
      <trkpt lat="60.10034146718680858612060546875" lon="15.741714723408222198486328125">
        <ele>210.399993896484375</ele>
        <time>2018-08-18T09:07:07.000Z</time>
        <extensions>
          <ns3:TrackPointExtension>
            <ns3:atemp>14.0</ns3:atemp>
          </ns3:TrackPointExtension>
        </extensions>
      </trkpt>
      <trkpt lat="60.10023870505392551422119140625" lon="15.74096378870308399200439453125">
        <ele>210.8000030517578125</ele>
        <time>2018-08-18T09:07:14.000Z</time>
        <extensions>
          <ns3:TrackPointExtension>
            <ns3:atemp>14.0</ns3:atemp>
          </ns3:TrackPointExtension>
        </extensions>
      </trkpt>
      <trkpt lat="60.099956989288330078125" lon="15.73992711491882801055908203125">
        <ele>211.399993896484375</ele>
        <time>2018-08-18T09:07:25.000Z</time>
        <extensions>
          <ns3:TrackPointExtension>
            <ns3:atemp>14.0</ns3:atemp>
          </ns3:TrackPointExtension>
        </extensions>
      </trkpt>
      <trkpt lat="60.09971089661121368408203125" lon="15.73896068148314952850341796875">
        <ele>212</ele>
        <time>2018-08-18T09:07:34.000Z</time>
        <extensions>
          <ns3:TrackPointExtension>
            <ns3:atemp>14.0</ns3:atemp>
          </ns3:TrackPointExtension>
        </extensions>
      </trkpt>
      <trkpt lat="60.0995062105357646942138671875" lon="15.7379373349249362945556640625">
        <ele>212.600006103515625</ele>
        <time>2018-08-18T09:07:42.000Z</time>
        <extensions>
          <ns3:TrackPointExtension>
            <ns3:atemp>14.0</ns3:atemp>
          </ns3:TrackPointExtension>
        </extensions>
      </trkpt>
      <trkpt lat="60.0994404964148998260498046875" lon="15.73756635189056396484375">
        <ele>213</ele>
        <time>2018-08-18T09:07:45.000Z</time>
        <extensions>
          <ns3:TrackPointExtension>
            <ns3:atemp>14.0</ns3:atemp>
          </ns3:TrackPointExtension>
        </extensions>
      </trkpt>
      <trkpt lat="60.0991913862526416778564453125" lon="15.73647779412567615509033203125">
        <ele>213.600006103515625</ele>
        <time>2018-08-18T09:07:54.000Z</time>
        <extensions>
          <ns3:TrackPointExtension>
            <ns3:atemp>14.0</ns3:atemp>
          </ns3:TrackPointExtension>
        </extensions>
      </trkpt>
      <trkpt lat="60.09909206070005893707275390625" lon="15.7361027039587497711181640625">
        <ele>213.8000030517578125</ele>
        <time>2018-08-18T09:07:57.000Z</time>
        <extensions>
          <ns3:TrackPointExtension>
            <ns3:atemp>14.0</ns3:atemp>
          </ns3:TrackPointExtension>
        </extensions>
      </trkpt>
      <trkpt lat="60.09895308874547481536865234375" lon="15.735557712614536285400390625">
        <ele>214.1999969482421875</ele>
        <time>2018-08-18T09:08:01.000Z</time>
        <extensions>
          <ns3:TrackPointExtension>
            <ns3:atemp>14.0</ns3:atemp>
          </ns3:TrackPointExtension>
        </extensions>
      </trkpt>
      <trkpt lat="60.0988215766847133636474609375" lon="15.7350130565464496612548828125">
        <ele>214.600006103515625</ele>
        <time>2018-08-18T09:08:05.000Z</time>
        <extensions>
          <ns3:TrackPointExtension>
            <ns3:atemp>14.0</ns3:atemp>
          </ns3:TrackPointExtension>
        </extensions>
      </trkpt>
      <trkpt lat="60.09878142736852169036865234375" lon="15.73488439433276653289794921875">
        <ele>214.600006103515625</ele>
        <time>2018-08-18T09:08:06.000Z</time>
        <extensions>
          <ns3:TrackPointExtension>
            <ns3:atemp>14.0</ns3:atemp>
          </ns3:TrackPointExtension>
        </extensions>
      </trkpt>
      <trkpt lat="60.09863440878689289093017578125" lon="15.7345486991107463836669921875">
        <ele>214.8000030517578125</ele>
        <time>2018-08-18T09:08:09.000Z</time>
        <extensions>
          <ns3:TrackPointExtension>
            <ns3:atemp>14.0</ns3:atemp>
          </ns3:TrackPointExtension>
        </extensions>
      </trkpt>
      <trkpt lat="60.0985260307788848876953125" lon="15.7343612797558307647705078125">
        <ele>214.8000030517578125</ele>
        <time>2018-08-18T09:08:11.000Z</time>
        <extensions>
          <ns3:TrackPointExtension>
            <ns3:atemp>14.0</ns3:atemp>
          </ns3:TrackPointExtension>
        </extensions>
      </trkpt>
      <trkpt lat="60.09835763834416866302490234375" lon="15.73410655371844768524169921875">
        <ele>215</ele>
        <time>2018-08-18T09:08:14.000Z</time>
        <extensions>
          <ns3:TrackPointExtension>
            <ns3:atemp>14.0</ns3:atemp>
          </ns3:TrackPointExtension>
        </extensions>
      </trkpt>
      <trkpt lat="60.09790065698325634002685546875" lon="15.7334976084530353546142578125">
        <ele>215.1999969482421875</ele>
        <time>2018-08-18T09:08:22.000Z</time>
        <extensions>
          <ns3:TrackPointExtension>
            <ns3:atemp>14.0</ns3:atemp>
          </ns3:TrackPointExtension>
        </extensions>
      </trkpt>
      <trkpt lat="60.09742607362568378448486328125" lon="15.73295270092785358428955078125">
        <ele>215.600006103515625</ele>
        <time>2018-08-18T09:08:30.000Z</time>
        <extensions>
          <ns3:TrackPointExtension>
            <ns3:atemp>14.0</ns3:atemp>
          </ns3:TrackPointExtension>
        </extensions>
      </trkpt>
      <trkpt lat="60.0972494669258594512939453125" lon="15.7325722463428974151611328125">
        <ele>215.8000030517578125</ele>
        <time>2018-08-18T09:08:34.000Z</time>
        <extensions>
          <ns3:TrackPointExtension>
            <ns3:atemp>14.0</ns3:atemp>
          </ns3:TrackPointExtension>
        </extensions>
      </trkpt>
      <trkpt lat="60.0971294380724430084228515625" lon="15.73216429911553859710693359375">
        <ele>215.600006103515625</ele>
        <time>2018-08-18T09:08:38.000Z</time>
        <extensions>
          <ns3:TrackPointExtension>
            <ns3:atemp>14.0</ns3:atemp>
          </ns3:TrackPointExtension>
        </extensions>
      </trkpt>
      <trkpt lat="60.0969842635095119476318359375" lon="15.73111899197101593017578125">
        <ele>215</ele>
        <time>2018-08-18T09:08:47.000Z</time>
        <extensions>
          <ns3:TrackPointExtension>
            <ns3:atemp>14.0</ns3:atemp>
          </ns3:TrackPointExtension>
        </extensions>
      </trkpt>
      <trkpt lat="60.09691896848380565643310546875" lon="15.7303617708384990692138671875">
        <ele>214.399993896484375</ele>
        <time>2018-08-18T09:08:53.000Z</time>
        <extensions>
          <ns3:TrackPointExtension>
            <ns3:atemp>14.0</ns3:atemp>
          </ns3:TrackPointExtension>
        </extensions>
      </trkpt>
      <trkpt lat="60.09674663655459880828857421875" lon="15.7299309410154819488525390625">
        <ele>214.1999969482421875</ele>
        <time>2018-08-18T09:08:58.000Z</time>
        <extensions>
          <ns3:TrackPointExtension>
            <ns3:atemp>14.0</ns3:atemp>
          </ns3:TrackPointExtension>
        </extensions>
      </trkpt>
      <trkpt lat="60.0966737978160381317138671875" lon="15.7298159413039684295654296875">
        <ele>214</ele>
        <time>2018-08-18T09:09:00.000Z</time>
        <extensions>
          <ns3:TrackPointExtension>
            <ns3:atemp>14.0</ns3:atemp>
          </ns3:TrackPointExtension>
        </extensions>
      </trkpt>
      <trkpt lat="60.09659282863140106201171875" lon="15.7297203876078128814697265625">
        <ele>214</ele>
        <time>2018-08-18T09:09:02.000Z</time>
        <extensions>
          <ns3:TrackPointExtension>
            <ns3:atemp>14.0</ns3:atemp>
          </ns3:TrackPointExtension>
        </extensions>
      </trkpt>
      <trkpt lat="60.09646408259868621826171875" lon="15.72962173260748386383056640625">
        <ele>213.8000030517578125</ele>
        <time>2018-08-18T09:09:05.000Z</time>
        <extensions>
          <ns3:TrackPointExtension>
            <ns3:atemp>14.0</ns3:atemp>
          </ns3:TrackPointExtension>
        </extensions>
      </trkpt>
      <trkpt lat="60.09632351808249950408935546875" lon="15.72954512201249599456787109375">
        <ele>213.8000030517578125</ele>
        <time>2018-08-18T09:09:08.000Z</time>
        <extensions>
          <ns3:TrackPointExtension>
            <ns3:atemp>14.0</ns3:atemp>
          </ns3:TrackPointExtension>
        </extensions>
      </trkpt>
      <trkpt lat="60.09596250951290130615234375" lon="15.72935904376208782196044921875">
        <ele>213.399993896484375</ele>
        <time>2018-08-18T09:09:15.000Z</time>
        <extensions>
          <ns3:TrackPointExtension>
            <ns3:atemp>14.0</ns3:atemp>
          </ns3:TrackPointExtension>
        </extensions>
      </trkpt>
      <trkpt lat="60.09584843181073665618896484375" lon="15.72931579314172267913818359375">
        <ele>213.399993896484375</ele>
        <time>2018-08-18T09:09:17.000Z</time>
        <extensions>
          <ns3:TrackPointExtension>
            <ns3:atemp>14.0</ns3:atemp>
          </ns3:TrackPointExtension>
        </extensions>
      </trkpt>
      <trkpt lat="60.095682553946971893310546875" lon="15.7292154617607593536376953125">
        <ele>213.399993896484375</ele>
        <time>2018-08-18T09:09:20.000Z</time>
        <extensions>
          <ns3:TrackPointExtension>
            <ns3:atemp>14.0</ns3:atemp>
          </ns3:TrackPointExtension>
        </extensions>
      </trkpt>
      <trkpt lat="60.095147788524627685546875" lon="15.72890625335276126861572265625">
        <ele>213</ele>
        <time>2018-08-18T09:09:29.000Z</time>
        <extensions>
          <ns3:TrackPointExtension>
            <ns3:atemp>13.0</ns3:atemp>
          </ns3:TrackPointExtension>
        </extensions>
      </trkpt>
      <trkpt lat="60.0950215570628643035888671875" lon="15.72883500717580318450927734375">
        <ele>212.8000030517578125</ele>
        <time>2018-08-18T09:09:31.000Z</time>
        <extensions>
          <ns3:TrackPointExtension>
            <ns3:atemp>13.0</ns3:atemp>
          </ns3:TrackPointExtension>
        </extensions>
      </trkpt>
      <trkpt lat="60.09451168589293956756591796875" lon="15.728336535394191741943359375">
        <ele>212</ele>
        <time>2018-08-18T09:09:40.000Z</time>
        <extensions>
          <ns3:TrackPointExtension>
            <ns3:atemp>13.0</ns3:atemp>
          </ns3:TrackPointExtension>
        </extensions>
      </trkpt>
      <trkpt lat="60.09441579692065715789794921875" lon="15.728187672793865203857421875">
        <ele>211.8000030517578125</ele>
        <time>2018-08-18T09:09:42.000Z</time>
        <extensions>
          <ns3:TrackPointExtension>
            <ns3:atemp>13.0</ns3:atemp>
          </ns3:TrackPointExtension>
        </extensions>
      </trkpt>
      <trkpt lat="60.09430800564587116241455078125" lon="15.72794686071574687957763671875">
        <ele>211.600006103515625</ele>
        <time>2018-08-18T09:09:45.000Z</time>
        <extensions>
          <ns3:TrackPointExtension>
            <ns3:atemp>13.0</ns3:atemp>
          </ns3:TrackPointExtension>
        </extensions>
      </trkpt>
      <trkpt lat="60.094166435301303863525390625" lon="15.72753564454615116119384765625">
        <ele>211.1999969482421875</ele>
        <time>2018-08-18T09:09:50.000Z</time>
        <extensions>
          <ns3:TrackPointExtension>
            <ns3:atemp>13.0</ns3:atemp>
          </ns3:TrackPointExtension>
        </extensions>
      </trkpt>
      <trkpt lat="60.094047077000141143798828125" lon="15.72728871367871761322021484375">
        <ele>210.8000030517578125</ele>
        <time>2018-08-18T09:09:53.000Z</time>
        <extensions>
          <ns3:TrackPointExtension>
            <ns3:atemp>13.0</ns3:atemp>
          </ns3:TrackPointExtension>
        </extensions>
      </trkpt>
      <trkpt lat="60.09399720467627048492431640625" lon="15.72720891796052455902099609375">
        <ele>210.8000030517578125</ele>
        <time>2018-08-18T09:09:54.000Z</time>
        <extensions>
          <ns3:TrackPointExtension>
            <ns3:atemp>13.0</ns3:atemp>
          </ns3:TrackPointExtension>
        </extensions>
      </trkpt>
      <trkpt lat="60.09349311701953411102294921875" lon="15.72679820470511913299560546875">
        <ele>210</ele>
        <time>2018-08-18T09:10:01.000Z</time>
        <extensions>
          <ns3:TrackPointExtension>
            <ns3:atemp>13.0</ns3:atemp>
          </ns3:TrackPointExtension>
        </extensions>
      </trkpt>
      <trkpt lat="60.093311481177806854248046875" lon="15.72681698016822338104248046875">
        <ele>209.8000030517578125</ele>
        <time>2018-08-18T09:10:03.000Z</time>
        <extensions>
          <ns3:TrackPointExtension>
            <ns3:atemp>13.0</ns3:atemp>
          </ns3:TrackPointExtension>
        </extensions>
      </trkpt>
      <trkpt lat="60.09322003461420536041259765625" lon="15.72680977173149585723876953125">
        <ele>209.600006103515625</ele>
        <time>2018-08-18T09:10:04.000Z</time>
        <extensions>
          <ns3:TrackPointExtension>
            <ns3:atemp>13.0</ns3:atemp>
          </ns3:TrackPointExtension>
        </extensions>
      </trkpt>
      <trkpt lat="60.09283832274377346038818359375" lon="15.7266028225421905517578125">
        <ele>209.1999969482421875</ele>
        <time>2018-08-18T09:10:08.000Z</time>
        <extensions>
          <ns3:TrackPointExtension>
            <ns3:atemp>13.0</ns3:atemp>
          </ns3:TrackPointExtension>
        </extensions>
      </trkpt>
      <trkpt lat="60.0926467962563037872314453125" lon="15.72647885419428348541259765625">
        <ele>208.8000030517578125</ele>
        <time>2018-08-18T09:10:10.000Z</time>
        <extensions>
          <ns3:TrackPointExtension>
            <ns3:atemp>13.0</ns3:atemp>
          </ns3:TrackPointExtension>
        </extensions>
      </trkpt>
      <trkpt lat="60.09246247820556163787841796875" lon="15.72637391276657581329345703125">
        <ele>208.600006103515625</ele>
        <time>2018-08-18T09:10:12.000Z</time>
        <extensions>
          <ns3:TrackPointExtension>
            <ns3:atemp>13.0</ns3:atemp>
          </ns3:TrackPointExtension>
        </extensions>
      </trkpt>
      <trkpt lat="60.09236977435648441314697265625" lon="15.72632194496691226959228515625">
        <ele>208.399993896484375</ele>
        <time>2018-08-18T09:10:13.000Z</time>
        <extensions>
          <ns3:TrackPointExtension>
            <ns3:atemp>13.0</ns3:atemp>
          </ns3:TrackPointExtension>
        </extensions>
      </trkpt>
      <trkpt lat="60.09217916987836360931396484375" lon="15.72623225860297679901123046875">
        <ele>208.1999969482421875</ele>
        <time>2018-08-18T09:10:15.000Z</time>
        <extensions>
          <ns3:TrackPointExtension>
            <ns3:atemp>13.0</ns3:atemp>
          </ns3:TrackPointExtension>
        </extensions>
      </trkpt>
      <trkpt lat="60.09198353625833988189697265625" lon="15.72613142430782318115234375">
        <ele>208</ele>
        <time>2018-08-18T09:10:17.000Z</time>
        <extensions>
          <ns3:TrackPointExtension>
            <ns3:atemp>13.0</ns3:atemp>
          </ns3:TrackPointExtension>
        </extensions>
      </trkpt>
      <trkpt lat="60.09178991429507732391357421875" lon="15.726032517850399017333984375">
        <ele>207.600006103515625</ele>
        <time>2018-08-18T09:10:19.000Z</time>
        <extensions>
          <ns3:TrackPointExtension>
            <ns3:atemp>13.0</ns3:atemp>
          </ns3:TrackPointExtension>
        </extensions>
      </trkpt>
      <trkpt lat="60.091521777212619781494140625" lon="15.7258730940520763397216796875">
        <ele>207.1999969482421875</ele>
        <time>2018-08-18T09:10:22.000Z</time>
        <extensions>
          <ns3:TrackPointExtension>
            <ns3:atemp>13.0</ns3:atemp>
          </ns3:TrackPointExtension>
        </extensions>
      </trkpt>
      <trkpt lat="60.09143351577222347259521484375" lon="15.72580310516059398651123046875">
        <ele>207.1999969482421875</ele>
        <time>2018-08-18T09:10:23.000Z</time>
        <extensions>
          <ns3:TrackPointExtension>
            <ns3:atemp>13.0</ns3:atemp>
          </ns3:TrackPointExtension>
        </extensions>
      </trkpt>
      <trkpt lat="60.09135237894952297210693359375" lon="15.72571341879665851593017578125">
        <ele>207</ele>
        <time>2018-08-18T09:10:24.000Z</time>
        <extensions>
          <ns3:TrackPointExtension>
            <ns3:atemp>13.0</ns3:atemp>
          </ns3:TrackPointExtension>
        </extensions>
      </trkpt>
      <trkpt lat="60.09119781665503978729248046875" lon="15.72546078823506832122802734375">
        <ele>206.600006103515625</ele>
        <time>2018-08-18T09:10:26.000Z</time>
        <extensions>
          <ns3:TrackPointExtension>
            <ns3:atemp>13.0</ns3:atemp>
          </ns3:TrackPointExtension>
        </extensions>
      </trkpt>
      <trkpt lat="60.09112355299293994903564453125" lon="15.72532349266111850738525390625">
        <ele>206.600006103515625</ele>
        <time>2018-08-18T09:10:27.000Z</time>
        <extensions>
          <ns3:TrackPointExtension>
            <ns3:atemp>13.0</ns3:atemp>
          </ns3:TrackPointExtension>
        </extensions>
      </trkpt>
      <trkpt lat="60.09104861877858638763427734375" lon="15.72519122622907161712646484375">
        <ele>206.399993896484375</ele>
        <time>2018-08-18T09:10:28.000Z</time>
        <extensions>
          <ns3:TrackPointExtension>
            <ns3:atemp>13.0</ns3:atemp>
          </ns3:TrackPointExtension>
        </extensions>
      </trkpt>
      <trkpt lat="60.0909697450697422027587890625" lon="15.72507572360336780548095703125">
        <ele>206.1999969482421875</ele>
        <time>2018-08-18T09:10:29.000Z</time>
        <extensions>
          <ns3:TrackPointExtension>
            <ns3:atemp>13.0</ns3:atemp>
          </ns3:TrackPointExtension>
        </extensions>
      </trkpt>
      <trkpt lat="60.090813338756561279296875" lon="15.7248964346945285797119140625">
        <ele>206</ele>
        <time>2018-08-18T09:10:31.000Z</time>
        <extensions>
          <ns3:TrackPointExtension>
            <ns3:atemp>13.0</ns3:atemp>
          </ns3:TrackPointExtension>
        </extensions>
      </trkpt>
      <trkpt lat="60.09066221304237842559814453125" lon="15.72476458735764026641845703125">
        <ele>205.600006103515625</ele>
        <time>2018-08-18T09:10:33.000Z</time>
        <extensions>
          <ns3:TrackPointExtension>
            <ns3:atemp>13.0</ns3:atemp>
          </ns3:TrackPointExtension>
        </extensions>
      </trkpt>
      <trkpt lat="60.09043523110449314117431640625" lon="15.7245661877095699310302734375">
        <ele>205.399993896484375</ele>
        <time>2018-08-18T09:10:36.000Z</time>
        <extensions>
          <ns3:TrackPointExtension>
            <ns3:atemp>13.0</ns3:atemp>
          </ns3:TrackPointExtension>
        </extensions>
      </trkpt>
      <trkpt lat="60.09019785560667514801025390625" lon="15.7243777625262737274169921875">
        <ele>205</ele>
        <time>2018-08-18T09:10:39.000Z</time>
        <extensions>
          <ns3:TrackPointExtension>
            <ns3:atemp>13.0</ns3:atemp>
          </ns3:TrackPointExtension>
        </extensions>
      </trkpt>
      <trkpt lat="60.0897149741649627685546875" lon="15.72396218776702880859375">
        <ele>204</ele>
        <time>2018-08-18T09:10:45.000Z</time>
        <extensions>
          <ns3:TrackPointExtension>
            <ns3:atemp>13.0</ns3:atemp>
          </ns3:TrackPointExtension>
        </extensions>
      </trkpt>
      <trkpt lat="60.08941247127950191497802734375" lon="15.72369321249425411224365234375">
        <ele>203</ele>
        <time>2018-08-18T09:10:49.000Z</time>
        <extensions>
          <ns3:TrackPointExtension>
            <ns3:atemp>13.0</ns3:atemp>
          </ns3:TrackPointExtension>
        </extensions>
      </trkpt>
      <trkpt lat="60.08926578797399997711181640625" lon="15.7235643826425075531005859375">
        <ele>202.600006103515625</ele>
        <time>2018-08-18T09:10:51.000Z</time>
        <extensions>
          <ns3:TrackPointExtension>
            <ns3:atemp>13.0</ns3:atemp>
          </ns3:TrackPointExtension>
        </extensions>
      </trkpt>
      <trkpt lat="60.0890502892434597015380859375" lon="15.7233860157430171966552734375">
        <ele>202</ele>
        <time>2018-08-18T09:10:54.000Z</time>
        <extensions>
          <ns3:TrackPointExtension>
            <ns3:atemp>13.0</ns3:atemp>
          </ns3:TrackPointExtension>
        </extensions>
      </trkpt>
      <trkpt lat="60.0885161943733692169189453125" lon="15.72299986146390438079833984375">
        <ele>200.399993896484375</ele>
        <time>2018-08-18T09:11:01.000Z</time>
        <extensions>
          <ns3:TrackPointExtension>
            <ns3:atemp>13.0</ns3:atemp>
          </ns3:TrackPointExtension>
        </extensions>
      </trkpt>
      <trkpt lat="60.08794580586254596710205078125" lon="15.72282635606825351715087890625">
        <ele>199.399993896484375</ele>
        <time>2018-08-18T09:11:08.000Z</time>
        <extensions>
          <ns3:TrackPointExtension>
            <ns3:atemp>13.0</ns3:atemp>
          </ns3:TrackPointExtension>
        </extensions>
      </trkpt>
      <trkpt lat="60.087779425084590911865234375" lon="15.72282015345990657806396484375">
        <ele>199.1999969482421875</ele>
        <time>2018-08-18T09:11:10.000Z</time>
        <extensions>
          <ns3:TrackPointExtension>
            <ns3:atemp>13.0</ns3:atemp>
          </ns3:TrackPointExtension>
        </extensions>
      </trkpt>
      <trkpt lat="60.0874578952789306640625" lon="15.7228448800742626190185546875">
        <ele>199</ele>
        <time>2018-08-18T09:11:14.000Z</time>
        <extensions>
          <ns3:TrackPointExtension>
            <ns3:atemp>13.0</ns3:atemp>
          </ns3:TrackPointExtension>
        </extensions>
      </trkpt>
      <trkpt lat="60.08721607737243175506591796875" lon="15.7228799164295196533203125">
        <ele>198.8000030517578125</ele>
        <time>2018-08-18T09:11:17.000Z</time>
        <extensions>
          <ns3:TrackPointExtension>
            <ns3:atemp>13.0</ns3:atemp>
          </ns3:TrackPointExtension>
        </extensions>
      </trkpt>
      <trkpt lat="60.08673545904457569122314453125" lon="15.722803138196468353271484375">
        <ele>198</ele>
        <time>2018-08-18T09:11:23.000Z</time>
        <extensions>
          <ns3:TrackPointExtension>
            <ns3:atemp>13.0</ns3:atemp>
          </ns3:TrackPointExtension>
        </extensions>
      </trkpt>
      <trkpt lat="60.08626791648566722869873046875" lon="15.72236568666994571685791015625">
        <ele>196.1999969482421875</ele>
        <time>2018-08-18T09:11:29.000Z</time>
        <extensions>
          <ns3:TrackPointExtension>
            <ns3:atemp>13.0</ns3:atemp>
          </ns3:TrackPointExtension>
        </extensions>
      </trkpt>
      <trkpt lat="60.08587933145463466644287109375" lon="15.7219912670552730560302734375">
        <ele>194.600006103515625</ele>
        <time>2018-08-18T09:11:34.000Z</time>
        <extensions>
          <ns3:TrackPointExtension>
            <ns3:atemp>13.0</ns3:atemp>
          </ns3:TrackPointExtension>
        </extensions>
      </trkpt>
      <trkpt lat="60.0857981108129024505615234375" lon="15.72194893844425678253173828125">
        <ele>194.399993896484375</ele>
        <time>2018-08-18T09:11:35.000Z</time>
        <extensions>
          <ns3:TrackPointExtension>
            <ns3:atemp>13.0</ns3:atemp>
          </ns3:TrackPointExtension>
        </extensions>
      </trkpt>
      <trkpt lat="60.08554036729037761688232421875" lon="15.7218819670379161834716796875">
        <ele>193.8000030517578125</ele>
        <time>2018-08-18T09:11:38.000Z</time>
        <extensions>
          <ns3:TrackPointExtension>
            <ns3:atemp>13.0</ns3:atemp>
          </ns3:TrackPointExtension>
        </extensions>
      </trkpt>
      <trkpt lat="60.08519268594682216644287109375" lon="15.721833519637584686279296875">
        <ele>193</ele>
        <time>2018-08-18T09:11:42.000Z</time>
        <extensions>
          <ns3:TrackPointExtension>
            <ns3:atemp>13.0</ns3:atemp>
          </ns3:TrackPointExtension>
        </extensions>
      </trkpt>
      <trkpt lat="60.08494198322296142578125" lon="15.7217924483120441436767578125">
        <ele>192.399993896484375</ele>
        <time>2018-08-18T09:11:45.000Z</time>
        <extensions>
          <ns3:TrackPointExtension>
            <ns3:atemp>13.0</ns3:atemp>
          </ns3:TrackPointExtension>
        </extensions>
      </trkpt>
      <trkpt lat="60.08461165241897106170654296875" lon="15.72176210582256317138671875">
        <ele>191.600006103515625</ele>
        <time>2018-08-18T09:11:49.000Z</time>
        <extensions>
          <ns3:TrackPointExtension>
            <ns3:atemp>13.0</ns3:atemp>
          </ns3:TrackPointExtension>
        </extensions>
      </trkpt>
      <trkpt lat="60.08406179957091808319091796875" lon="15.7218199409544467926025390625">
        <ele>190.600006103515625</ele>
        <time>2018-08-18T09:11:56.000Z</time>
        <extensions>
          <ns3:TrackPointExtension>
            <ns3:atemp>13.0</ns3:atemp>
          </ns3:TrackPointExtension>
        </extensions>
      </trkpt>
      <trkpt lat="60.08398535661399364471435546875" lon="15.7218353636562824249267578125">
        <ele>190.399993896484375</ele>
        <time>2018-08-18T09:11:57.000Z</time>
        <extensions>
          <ns3:TrackPointExtension>
            <ns3:atemp>13.0</ns3:atemp>
          </ns3:TrackPointExtension>
        </extensions>
      </trkpt>
      <trkpt lat="60.08368394337594509124755859375" lon="15.7218709029257297515869140625">
        <ele>189.8000030517578125</ele>
        <time>2018-08-18T09:12:01.000Z</time>
        <extensions>
          <ns3:TrackPointExtension>
            <ns3:atemp>13.0</ns3:atemp>
          </ns3:TrackPointExtension>
        </extensions>
      </trkpt>
      <trkpt lat="60.08353994227945804595947265625" lon="15.72186109609901905059814453125">
        <ele>189.600006103515625</ele>
        <time>2018-08-18T09:12:03.000Z</time>
        <extensions>
          <ns3:TrackPointExtension>
            <ns3:atemp>13.0</ns3:atemp>
          </ns3:TrackPointExtension>
        </extensions>
      </trkpt>
      <trkpt lat="60.083200894296169281005859375" lon="15.72172078303992748260498046875">
        <ele>188.399993896484375</ele>
        <time>2018-08-18T09:12:08.000Z</time>
        <extensions>
          <ns3:TrackPointExtension>
            <ns3:atemp>13.0</ns3:atemp>
          </ns3:TrackPointExtension>
        </extensions>
      </trkpt>
      <trkpt lat="60.08263234980404376983642578125" lon="15.7213019393384456634521484375">
        <ele>186.399993896484375</ele>
        <time>2018-08-18T09:12:16.000Z</time>
        <extensions>
          <ns3:TrackPointExtension>
            <ns3:atemp>13.0</ns3:atemp>
          </ns3:TrackPointExtension>
        </extensions>
      </trkpt>
      <trkpt lat="60.08206523023545742034912109375" lon="15.7211906276643276214599609375">
        <ele>184.8000030517578125</ele>
        <time>2018-08-18T09:12:24.000Z</time>
        <extensions>
          <ns3:TrackPointExtension>
            <ns3:atemp>13.0</ns3:atemp>
          </ns3:TrackPointExtension>
        </extensions>
      </trkpt>
      <trkpt lat="60.08152208290994167327880859375" lon="15.72144384495913982391357421875">
        <ele>184.1999969482421875</ele>
        <time>2018-08-18T09:12:32.000Z</time>
        <extensions>
          <ns3:TrackPointExtension>
            <ns3:atemp>13.0</ns3:atemp>
          </ns3:TrackPointExtension>
        </extensions>
      </trkpt>
      <trkpt lat="60.08096585981547832489013671875" lon="15.72178750298917293548583984375">
        <ele>183.600006103515625</ele>
        <time>2018-08-18T09:12:40.000Z</time>
        <extensions>
          <ns3:TrackPointExtension>
            <ns3:atemp>13.0</ns3:atemp>
          </ns3:TrackPointExtension>
        </extensions>
      </trkpt>
      <trkpt lat="60.08082722313702106475830078125" lon="15.721889175474643707275390625">
        <ele>183.399993896484375</ele>
        <time>2018-08-18T09:12:42.000Z</time>
        <extensions>
          <ns3:TrackPointExtension>
            <ns3:atemp>13.0</ns3:atemp>
          </ns3:TrackPointExtension>
        </extensions>
      </trkpt>
      <trkpt lat="60.08026613853871822357177734375" lon="15.72227868251502513885498046875">
        <ele>182.8000030517578125</ele>
        <time>2018-08-18T09:12:50.000Z</time>
        <extensions>
          <ns3:TrackPointExtension>
            <ns3:atemp>13.0</ns3:atemp>
          </ns3:TrackPointExtension>
        </extensions>
      </trkpt>
      <trkpt lat="60.08019505999982357025146484375" lon="15.72231405414640903472900390625">
        <ele>182.8000030517578125</ele>
        <time>2018-08-18T09:12:51.000Z</time>
        <extensions>
          <ns3:TrackPointExtension>
            <ns3:atemp>13.0</ns3:atemp>
          </ns3:TrackPointExtension>
        </extensions>
      </trkpt>
      <trkpt lat="60.079615116119384765625" lon="15.72258126921951770782470703125">
        <ele>182</ele>
        <time>2018-08-18T09:12:59.000Z</time>
        <extensions>
          <ns3:TrackPointExtension>
            <ns3:atemp>13.0</ns3:atemp>
          </ns3:TrackPointExtension>
        </extensions>
      </trkpt>
      <trkpt lat="60.07902972400188446044921875" lon="15.72285904549062252044677734375">
        <ele>181.1999969482421875</ele>
        <time>2018-08-18T09:13:07.000Z</time>
        <extensions>
          <ns3:TrackPointExtension>
            <ns3:atemp>13.0</ns3:atemp>
          </ns3:TrackPointExtension>
        </extensions>
      </trkpt>
      <trkpt lat="60.078667290508747100830078125" lon="15.72302668355405330657958984375">
        <ele>180.600006103515625</ele>
        <time>2018-08-18T09:13:12.000Z</time>
        <extensions>
          <ns3:TrackPointExtension>
            <ns3:atemp>13.0</ns3:atemp>
          </ns3:TrackPointExtension>
        </extensions>
      </trkpt>
      <trkpt lat="60.07807930000126361846923828125" lon="15.723308064043521881103515625">
        <ele>180.1999969482421875</ele>
        <time>2018-08-18T09:13:20.000Z</time>
        <extensions>
          <ns3:TrackPointExtension>
            <ns3:atemp>13.0</ns3:atemp>
          </ns3:TrackPointExtension>
        </extensions>
      </trkpt>
      <trkpt lat="60.07765701971948146820068359375" lon="15.7235010154545307159423828125">
        <ele>180</ele>
        <time>2018-08-18T09:13:26.000Z</time>
        <extensions>
          <ns3:TrackPointExtension>
            <ns3:atemp>13.0</ns3:atemp>
          </ns3:TrackPointExtension>
        </extensions>
      </trkpt>
      <trkpt lat="60.0770836137235164642333984375" lon="15.7236282527446746826171875">
        <ele>178.600006103515625</ele>
        <time>2018-08-18T09:13:34.000Z</time>
        <extensions>
          <ns3:TrackPointExtension>
            <ns3:atemp>13.0</ns3:atemp>
          </ns3:TrackPointExtension>
        </extensions>
      </trkpt>
      <trkpt lat="60.07654021494090557098388671875" lon="15.72395841591060161590576171875">
        <ele>177</ele>
        <time>2018-08-18T09:13:42.000Z</time>
        <extensions>
          <ns3:TrackPointExtension>
            <ns3:atemp>13.0</ns3:atemp>
          </ns3:TrackPointExtension>
        </extensions>
      </trkpt>
      <trkpt lat="60.0760533101856708526611328125" lon="15.72445906698703765869140625">
        <ele>176.399993896484375</ele>
        <time>2018-08-18T09:13:50.000Z</time>
        <extensions>
          <ns3:TrackPointExtension>
            <ns3:atemp>13.0</ns3:atemp>
          </ns3:TrackPointExtension>
        </extensions>
      </trkpt>
      <trkpt lat="60.07562021724879741668701171875" lon="15.724949575960636138916015625">
        <ele>176.1999969482421875</ele>
        <time>2018-08-18T09:13:57.000Z</time>
        <extensions>
          <ns3:TrackPointExtension>
            <ns3:atemp>13.0</ns3:atemp>
          </ns3:TrackPointExtension>
        </extensions>
      </trkpt>
      <trkpt lat="60.0750867091119289398193359375" lon="15.7252348959445953369140625">
        <ele>175.399993896484375</ele>
        <time>2018-08-18T09:14:06.000Z</time>
        <extensions>
          <ns3:TrackPointExtension>
            <ns3:atemp>13.0</ns3:atemp>
          </ns3:TrackPointExtension>
        </extensions>
      </trkpt>
      <trkpt lat="60.07498000748455524444580078125" lon="15.72531091980636119842529296875">
        <ele>175.1999969482421875</ele>
        <time>2018-08-18T09:14:08.000Z</time>
        <extensions>
          <ns3:TrackPointExtension>
            <ns3:atemp>13.0</ns3:atemp>
          </ns3:TrackPointExtension>
        </extensions>
      </trkpt>
      <trkpt lat="60.07492736913263797760009765625" lon="15.725357942283153533935546875">
        <ele>175.1999969482421875</ele>
        <time>2018-08-18T09:14:09.000Z</time>
        <extensions>
          <ns3:TrackPointExtension>
            <ns3:atemp>13.0</ns3:atemp>
          </ns3:TrackPointExtension>
        </extensions>
      </trkpt>
      <trkpt lat="60.07440165616571903228759765625" lon="15.72578650899231433868408203125">
        <ele>174.600006103515625</ele>
        <time>2018-08-18T09:14:18.000Z</time>
        <extensions>
          <ns3:TrackPointExtension>
            <ns3:atemp>13.0</ns3:atemp>
          </ns3:TrackPointExtension>
        </extensions>
      </trkpt>
      <trkpt lat="60.07421289570629596710205078125" lon="15.72594995610415935516357421875">
        <ele>174.399993896484375</ele>
        <time>2018-08-18T09:14:21.000Z</time>
        <extensions>
          <ns3:TrackPointExtension>
            <ns3:atemp>13.0</ns3:atemp>
          </ns3:TrackPointExtension>
        </extensions>
      </trkpt>
      <trkpt lat="60.0740366242825984954833984375" lon="15.7261510379612445831298828125">
        <ele>174.1999969482421875</ele>
        <time>2018-08-18T09:14:24.000Z</time>
        <extensions>
          <ns3:TrackPointExtension>
            <ns3:atemp>13.0</ns3:atemp>
          </ns3:TrackPointExtension>
        </extensions>
      </trkpt>
      <trkpt lat="60.07393620908260345458984375" lon="15.726319514214992523193359375">
        <ele>174.399993896484375</ele>
        <time>2018-08-18T09:14:26.000Z</time>
        <extensions>
          <ns3:TrackPointExtension>
            <ns3:atemp>13.0</ns3:atemp>
          </ns3:TrackPointExtension>
        </extensions>
      </trkpt>
      <trkpt lat="60.07386873476207256317138671875" lon="15.7265000604093074798583984375">
        <ele>174.600006103515625</ele>
        <time>2018-08-18T09:14:28.000Z</time>
        <extensions>
          <ns3:TrackPointExtension>
            <ns3:atemp>13.0</ns3:atemp>
          </ns3:TrackPointExtension>
        </extensions>
      </trkpt>
      <trkpt lat="60.07381550967693328857421875" lon="15.7266941852867603302001953125">
        <ele>174.8000030517578125</ele>
        <time>2018-08-18T09:14:30.000Z</time>
        <extensions>
          <ns3:TrackPointExtension>
            <ns3:atemp>13.0</ns3:atemp>
          </ns3:TrackPointExtension>
        </extensions>
      </trkpt>
      <trkpt lat="60.07379665039479732513427734375" lon="15.72679401375353336334228515625">
        <ele>175</ele>
        <time>2018-08-18T09:14:31.000Z</time>
        <extensions>
          <ns3:TrackPointExtension>
            <ns3:atemp>13.0</ns3:atemp>
          </ns3:TrackPointExtension>
        </extensions>
      </trkpt>
      <trkpt lat="60.07367176003754138946533203125" lon="15.72792003862559795379638671875">
        <ele>176.600006103515625</ele>
        <time>2018-08-18T09:14:41.000Z</time>
        <extensions>
          <ns3:TrackPointExtension>
            <ns3:atemp>13.0</ns3:atemp>
          </ns3:TrackPointExtension>
        </extensions>
      </trkpt>
      <trkpt lat="60.0735541619360446929931640625" lon="15.72900264523923397064208984375">
        <ele>176.399993896484375</ele>
        <time>2018-08-18T09:14:51.000Z</time>
        <extensions>
          <ns3:TrackPointExtension>
            <ns3:atemp>13.0</ns3:atemp>
          </ns3:TrackPointExtension>
        </extensions>
      </trkpt>
      <trkpt lat="60.07344008423388004302978515625" lon="15.73013923130929470062255859375">
        <ele>176.399993896484375</ele>
        <time>2018-08-18T09:15:02.000Z</time>
        <extensions>
          <ns3:TrackPointExtension>
            <ns3:atemp>13.0</ns3:atemp>
          </ns3:TrackPointExtension>
        </extensions>
      </trkpt>
      <trkpt lat="60.07340689189732074737548828125" lon="15.73034576140344142913818359375">
        <ele>176.399993896484375</ele>
        <time>2018-08-18T09:15:04.000Z</time>
        <extensions>
          <ns3:TrackPointExtension>
            <ns3:atemp>13.0</ns3:atemp>
          </ns3:TrackPointExtension>
        </extensions>
      </trkpt>
      <trkpt lat="60.07334117777645587921142578125" lon="15.730771981179714202880859375">
        <ele>176.1999969482421875</ele>
        <time>2018-08-18T09:15:08.000Z</time>
        <extensions>
          <ns3:TrackPointExtension>
            <ns3:atemp>13.0</ns3:atemp>
          </ns3:TrackPointExtension>
        </extensions>
      </trkpt>
      <trkpt lat="60.0732993520796298980712890625" lon="15.73107465170323848724365234375">
        <ele>176.1999969482421875</ele>
        <time>2018-08-18T09:15:11.000Z</time>
        <extensions>
          <ns3:TrackPointExtension>
            <ns3:atemp>13.0</ns3:atemp>
          </ns3:TrackPointExtension>
        </extensions>
      </trkpt>
      <trkpt lat="60.0731615535914897918701171875" lon="15.731974951922893524169921875">
        <ele>175.8000030517578125</ele>
        <time>2018-08-18T09:15:20.000Z</time>
        <extensions>
          <ns3:TrackPointExtension>
            <ns3:atemp>14.0</ns3:atemp>
          </ns3:TrackPointExtension>
        </extensions>
      </trkpt>
      <trkpt lat="60.0731209851801395416259765625" lon="15.73233461938798427581787109375">
        <ele>175.8000030517578125</ele>
        <time>2018-08-18T09:15:24.000Z</time>
        <extensions>
          <ns3:TrackPointExtension>
            <ns3:atemp>14.0</ns3:atemp>
          </ns3:TrackPointExtension>
        </extensions>
      </trkpt>
      <trkpt lat="60.07308402098715305328369140625" lon="15.7326458394527435302734375">
        <ele>175.600006103515625</ele>
        <time>2018-08-18T09:15:28.000Z</time>
        <extensions>
          <ns3:TrackPointExtension>
            <ns3:atemp>14.0</ns3:atemp>
          </ns3:TrackPointExtension>
        </extensions>
      </trkpt>
      <trkpt lat="60.07305770181119441986083984375" lon="15.73280400596559047698974609375">
        <ele>175.399993896484375</ele>
        <time>2018-08-18T09:15:30.000Z</time>
        <extensions>
          <ns3:TrackPointExtension>
            <ns3:atemp>14.0</ns3:atemp>
          </ns3:TrackPointExtension>
        </extensions>
      </trkpt>
      <trkpt lat="60.07301663048565387725830078125" lon="15.7331003062427043914794921875">
        <ele>175.1999969482421875</ele>
        <time>2018-08-18T09:15:34.000Z</time>
        <extensions>
          <ns3:TrackPointExtension>
            <ns3:atemp>14.0</ns3:atemp>
          </ns3:TrackPointExtension>
        </extensions>
      </trkpt>
      <trkpt lat="60.07298042066395282745361328125" lon="15.73338545858860015869140625">
        <ele>175</ele>
        <time>2018-08-18T09:15:38.000Z</time>
        <extensions>
          <ns3:TrackPointExtension>
            <ns3:atemp>14.0</ns3:atemp>
          </ns3:TrackPointExtension>
        </extensions>
      </trkpt>
      <trkpt lat="60.072950161993503570556640625" lon="15.73372350074350833892822265625">
        <ele>174.8000030517578125</ele>
        <time>2018-08-18T09:15:43.000Z</time>
        <extensions>
          <ns3:TrackPointExtension>
            <ns3:atemp>14.0</ns3:atemp>
          </ns3:TrackPointExtension>
        </extensions>
      </trkpt>
      <trkpt lat="60.0729402713477611541748046875" lon="15.73403748683631420135498046875">
        <ele>174.600006103515625</ele>
        <time>2018-08-18T09:15:48.000Z</time>
        <extensions>
          <ns3:TrackPointExtension>
            <ns3:atemp>14.0</ns3:atemp>
          </ns3:TrackPointExtension>
        </extensions>
      </trkpt>
      <trkpt lat="60.0729302130639553070068359375" lon="15.7343797199428081512451171875">
        <ele>174.399993896484375</ele>
        <time>2018-08-18T09:15:54.000Z</time>
        <extensions>
          <ns3:TrackPointExtension>
            <ns3:atemp>14.0</ns3:atemp>
          </ns3:TrackPointExtension>
        </extensions>
      </trkpt>
      <trkpt lat="60.0729339011013507843017578125" lon="15.73453822173178195953369140625">
        <ele>174.399993896484375</ele>
        <time>2018-08-18T09:15:57.000Z</time>
        <extensions>
          <ns3:TrackPointExtension>
            <ns3:atemp>14.0</ns3:atemp>
          </ns3:TrackPointExtension>
        </extensions>
      </trkpt>
      <trkpt lat="60.0729511678218841552734375" lon="15.7347659580409526824951171875">
        <ele>174.399993896484375</ele>
        <time>2018-08-18T09:16:01.000Z</time>
        <extensions>
          <ns3:TrackPointExtension>
            <ns3:atemp>14.0</ns3:atemp>
          </ns3:TrackPointExtension>
        </extensions>
      </trkpt>
      <trkpt lat="60.07299098186194896697998046875" lon="15.7350485958158969879150390625">
        <ele>174.600006103515625</ele>
        <time>2018-08-18T09:16:06.000Z</time>
        <extensions>
          <ns3:TrackPointExtension>
            <ns3:atemp>14.0</ns3:atemp>
          </ns3:TrackPointExtension>
        </extensions>
      </trkpt>
      <trkpt lat="60.07303440012037754058837890625" lon="15.73543868958950042724609375">
        <ele>174.8000030517578125</ele>
        <time>2018-08-18T09:16:12.000Z</time>
        <extensions>
          <ns3:TrackPointExtension>
            <ns3:atemp>14.0</ns3:atemp>
          </ns3:TrackPointExtension>
        </extensions>
      </trkpt>
      <trkpt lat="60.07309206761419773101806640625" lon="15.73589407838881015777587890625">
        <ele>175.399993896484375</ele>
        <time>2018-08-18T09:16:19.000Z</time>
        <extensions>
          <ns3:TrackPointExtension>
            <ns3:atemp>14.0</ns3:atemp>
          </ns3:TrackPointExtension>
        </extensions>
      </trkpt>
      <trkpt lat="60.073155350983142852783203125" lon="15.73648148216307163238525390625">
        <ele>176.399993896484375</ele>
        <time>2018-08-18T09:16:27.000Z</time>
        <extensions>
          <ns3:TrackPointExtension>
            <ns3:atemp>14.0</ns3:atemp>
          </ns3:TrackPointExtension>
        </extensions>
      </trkpt>
      <trkpt lat="60.0731964223086833953857421875" lon="15.7370330952107906341552734375">
        <ele>177.1999969482421875</ele>
        <time>2018-08-18T09:16:34.000Z</time>
        <extensions>
          <ns3:TrackPointExtension>
            <ns3:atemp>14.0</ns3:atemp>
          </ns3:TrackPointExtension>
        </extensions>
      </trkpt>
      <trkpt lat="60.07324461825191974639892578125" lon="15.73767690919339656829833984375">
        <ele>178.1999969482421875</ele>
        <time>2018-08-18T09:16:41.000Z</time>
        <extensions>
          <ns3:TrackPointExtension>
            <ns3:atemp>14.0</ns3:atemp>
          </ns3:TrackPointExtension>
        </extensions>
      </trkpt>
      <trkpt lat="60.07324822247028350830078125" lon="15.7379933260381221771240234375">
        <ele>178.600006103515625</ele>
        <time>2018-08-18T09:16:44.000Z</time>
        <extensions>
          <ns3:TrackPointExtension>
            <ns3:atemp>14.0</ns3:atemp>
          </ns3:TrackPointExtension>
        </extensions>
      </trkpt>
      <trkpt lat="60.073221735656261444091796875" lon="15.73914424516260623931884765625">
        <ele>180</ele>
        <time>2018-08-18T09:16:54.000Z</time>
        <extensions>
          <ns3:TrackPointExtension>
            <ns3:atemp>14.0</ns3:atemp>
          </ns3:TrackPointExtension>
        </extensions>
      </trkpt>
      <trkpt lat="60.0732390023767948150634765625" lon="15.74032341130077838897705078125">
        <ele>181.600006103515625</ele>
        <time>2018-08-18T09:17:03.000Z</time>
        <extensions>
          <ns3:TrackPointExtension>
            <ns3:atemp>14.0</ns3:atemp>
          </ns3:TrackPointExtension>
        </extensions>
      </trkpt>
      <trkpt lat="60.073247216641902923583984375" lon="15.74137265793979167938232421875">
        <ele>182.399993896484375</ele>
        <time>2018-08-18T09:17:10.000Z</time>
        <extensions>
          <ns3:TrackPointExtension>
            <ns3:atemp>14.0</ns3:atemp>
          </ns3:TrackPointExtension>
        </extensions>
      </trkpt>
      <trkpt lat="60.07324277423322200775146484375" lon="15.74182360433042049407958984375">
        <ele>182.399993896484375</ele>
        <time>2018-08-18T09:17:13.000Z</time>
        <extensions>
          <ns3:TrackPointExtension>
            <ns3:atemp>14.0</ns3:atemp>
          </ns3:TrackPointExtension>
        </extensions>
      </trkpt>
      <trkpt lat="60.07324344478547573089599609375" lon="15.7427988387644290924072265625">
        <ele>182.600006103515625</ele>
        <time>2018-08-18T09:17:19.000Z</time>
        <extensions>
          <ns3:TrackPointExtension>
            <ns3:atemp>14.0</ns3:atemp>
          </ns3:TrackPointExtension>
        </extensions>
      </trkpt>
      <trkpt lat="60.07323942147195339202880859375" lon="15.7432699017226696014404296875">
        <ele>182.600006103515625</ele>
        <time>2018-08-18T09:17:22.000Z</time>
        <extensions>
          <ns3:TrackPointExtension>
            <ns3:atemp>14.0</ns3:atemp>
          </ns3:TrackPointExtension>
        </extensions>
      </trkpt>
      <trkpt lat="60.073228776454925537109375" lon="15.74384397827088832855224609375">
        <ele>182.600006103515625</ele>
        <time>2018-08-18T09:17:26.000Z</time>
        <extensions>
          <ns3:TrackPointExtension>
            <ns3:atemp>14.0</ns3:atemp>
          </ns3:TrackPointExtension>
        </extensions>
      </trkpt>
      <trkpt lat="60.07322148419916629791259765625" lon="15.74439181946218013763427734375">
        <ele>183.399993896484375</ele>
        <time>2018-08-18T09:17:30.000Z</time>
        <extensions>
          <ns3:TrackPointExtension>
            <ns3:atemp>14.0</ns3:atemp>
          </ns3:TrackPointExtension>
        </extensions>
      </trkpt>
      <trkpt lat="60.07319751195609569549560546875" lon="15.74478107504546642303466796875">
        <ele>184</ele>
        <time>2018-08-18T09:17:33.000Z</time>
        <extensions>
          <ns3:TrackPointExtension>
            <ns3:atemp>14.0</ns3:atemp>
          </ns3:TrackPointExtension>
        </extensions>
      </trkpt>
      <trkpt lat="60.07295711897313594818115234375" lon="15.74546537362039089202880859375">
        <ele>184.8000030517578125</ele>
        <time>2018-08-18T09:17:40.000Z</time>
        <extensions>
          <ns3:TrackPointExtension>
            <ns3:atemp>14.0</ns3:atemp>
          </ns3:TrackPointExtension>
        </extensions>
      </trkpt>
      <trkpt lat="60.072547495365142822265625" lon="15.7462119497358798980712890625">
        <ele>185.399993896484375</ele>
        <time>2018-08-18T09:17:49.000Z</time>
        <extensions>
          <ns3:TrackPointExtension>
            <ns3:atemp>14.0</ns3:atemp>
          </ns3:TrackPointExtension>
        </extensions>
      </trkpt>
      <trkpt lat="60.0720980577170848846435546875" lon="15.7469810731709003448486328125">
        <ele>186.1999969482421875</ele>
        <time>2018-08-18T09:18:00.000Z</time>
        <extensions>
          <ns3:TrackPointExtension>
            <ns3:atemp>13.0</ns3:atemp>
          </ns3:TrackPointExtension>
        </extensions>
      </trkpt>
      <trkpt lat="60.07187652401626110076904296875" lon="15.74725775979459285736083984375">
        <ele>186.399993896484375</ele>
        <time>2018-08-18T09:18:05.000Z</time>
        <extensions>
          <ns3:TrackPointExtension>
            <ns3:atemp>13.0</ns3:atemp>
          </ns3:TrackPointExtension>
        </extensions>
      </trkpt>
      <trkpt lat="60.0716461054980754852294921875" lon="15.74753947556018829345703125">
        <ele>186.600006103515625</ele>
        <time>2018-08-18T09:18:10.000Z</time>
        <extensions>
          <ns3:TrackPointExtension>
            <ns3:atemp>13.0</ns3:atemp>
          </ns3:TrackPointExtension>
        </extensions>
      </trkpt>
      <trkpt lat="60.071413926780223846435546875" lon="15.74781347997486591339111328125">
        <ele>186.600006103515625</ele>
        <time>2018-08-18T09:18:15.000Z</time>
        <extensions>
          <ns3:TrackPointExtension>
            <ns3:atemp>13.0</ns3:atemp>
          </ns3:TrackPointExtension>
        </extensions>
      </trkpt>
      <trkpt lat="60.0710360705852508544921875" lon="15.7482527755200862884521484375">
        <ele>187</ele>
        <time>2018-08-18T09:18:23.000Z</time>
        <extensions>
          <ns3:TrackPointExtension>
            <ns3:atemp>13.0</ns3:atemp>
          </ns3:TrackPointExtension>
        </extensions>
      </trkpt>
      <trkpt lat="60.070530809462070465087890625" lon="15.7488331384956836700439453125">
        <ele>187.1999969482421875</ele>
        <time>2018-08-18T09:18:34.000Z</time>
        <extensions>
          <ns3:TrackPointExtension>
            <ns3:atemp>13.0</ns3:atemp>
          </ns3:TrackPointExtension>
        </extensions>
      </trkpt>
      <trkpt lat="60.07048445753753185272216796875" lon="15.74888451956212520599365234375">
        <ele>187.1999969482421875</ele>
        <time>2018-08-18T09:18:35.000Z</time>
        <extensions>
          <ns3:TrackPointExtension>
            <ns3:atemp>13.0</ns3:atemp>
          </ns3:TrackPointExtension>
        </extensions>
      </trkpt>
      <trkpt lat="60.07001238875091075897216796875" lon="15.74945784173905849456787109375">
        <ele>187.1999969482421875</ele>
        <time>2018-08-18T09:18:45.000Z</time>
        <extensions>
          <ns3:TrackPointExtension>
            <ns3:atemp>13.0</ns3:atemp>
          </ns3:TrackPointExtension>
        </extensions>
      </trkpt>
      <trkpt lat="60.0699254684150218963623046875" lon="15.749566219747066497802734375">
        <ele>187</ele>
        <time>2018-08-18T09:18:47.000Z</time>
        <extensions>
          <ns3:TrackPointExtension>
            <ns3:atemp>13.0</ns3:atemp>
          </ns3:TrackPointExtension>
        </extensions>
      </trkpt>
      <trkpt lat="60.0694160163402557373046875" lon="15.75013007037341594696044921875">
        <ele>185.399993896484375</ele>
        <time>2018-08-18T09:18:59.000Z</time>
        <extensions>
          <ns3:TrackPointExtension>
            <ns3:atemp>13.0</ns3:atemp>
          </ns3:TrackPointExtension>
        </extensions>
      </trkpt>
      <trkpt lat="60.06933353841304779052734375" lon="15.75021455995738506317138671875">
        <ele>185</ele>
        <time>2018-08-18T09:19:01.000Z</time>
        <extensions>
          <ns3:TrackPointExtension>
            <ns3:atemp>13.0</ns3:atemp>
          </ns3:TrackPointExtension>
        </extensions>
      </trkpt>
      <trkpt lat="60.0692059658467769622802734375" lon="15.75035579502582550048828125">
        <ele>184.600006103515625</ele>
        <time>2018-08-18T09:19:04.000Z</time>
        <extensions>
          <ns3:TrackPointExtension>
            <ns3:atemp>13.0</ns3:atemp>
          </ns3:TrackPointExtension>
        </extensions>
      </trkpt>
      <trkpt lat="60.06905081681907176971435546875" lon="15.75053826905786991119384765625">
        <ele>184.1999969482421875</ele>
        <time>2018-08-18T09:19:08.000Z</time>
        <extensions>
          <ns3:TrackPointExtension>
            <ns3:atemp>13.0</ns3:atemp>
          </ns3:TrackPointExtension>
        </extensions>
      </trkpt>
      <trkpt lat="60.06879466585814952850341796875" lon="15.75100396759808063507080078125">
        <ele>183.600006103515625</ele>
        <time>2018-08-18T09:19:15.000Z</time>
        <extensions>
          <ns3:TrackPointExtension>
            <ns3:atemp>13.0</ns3:atemp>
          </ns3:TrackPointExtension>
        </extensions>
      </trkpt>
      <trkpt lat="60.06858478300273418426513671875" lon="15.7515220530331134796142578125">
        <ele>183</ele>
        <time>2018-08-18T09:19:21.000Z</time>
        <extensions>
          <ns3:TrackPointExtension>
            <ns3:atemp>13.0</ns3:atemp>
          </ns3:TrackPointExtension>
        </extensions>
      </trkpt>
      <trkpt lat="60.0682224333286285400390625" lon="15.7524125464260578155517578125">
        <ele>182.1999969482421875</ele>
        <time>2018-08-18T09:19:32.000Z</time>
        <extensions>
          <ns3:TrackPointExtension>
            <ns3:atemp>13.0</ns3:atemp>
          </ns3:TrackPointExtension>
        </extensions>
      </trkpt>
      <trkpt lat="60.068117491900920867919921875" lon="15.75264447368681430816650390625">
        <ele>181.8000030517578125</ele>
        <time>2018-08-18T09:19:35.000Z</time>
        <extensions>
          <ns3:TrackPointExtension>
            <ns3:atemp>13.0</ns3:atemp>
          </ns3:TrackPointExtension>
        </extensions>
      </trkpt>
      <trkpt lat="60.0677025876939296722412109375" lon="15.7532666623592376708984375">
        <ele>180.600006103515625</ele>
        <time>2018-08-18T09:19:45.000Z</time>
        <extensions>
          <ns3:TrackPointExtension>
            <ns3:atemp>13.0</ns3:atemp>
          </ns3:TrackPointExtension>
        </extensions>
      </trkpt>
      <trkpt lat="60.06718198768794536590576171875" lon="15.753680057823657989501953125">
        <ele>179</ele>
        <time>2018-08-18T09:19:52.000Z</time>
        <extensions>
          <ns3:TrackPointExtension>
            <ns3:atemp>13.0</ns3:atemp>
          </ns3:TrackPointExtension>
        </extensions>
      </trkpt>
      <trkpt lat="60.06667681038379669189453125" lon="15.75407710857689380645751953125">
        <ele>177.399993896484375</ele>
        <time>2018-08-18T09:19:59.000Z</time>
        <extensions>
          <ns3:TrackPointExtension>
            <ns3:atemp>13.0</ns3:atemp>
          </ns3:TrackPointExtension>
        </extensions>
      </trkpt>
      <trkpt lat="60.06613475270569324493408203125" lon="15.7545385323464870452880859375">
        <ele>176.399993896484375</ele>
        <time>2018-08-18T09:20:07.000Z</time>
        <extensions>
          <ns3:TrackPointExtension>
            <ns3:atemp>13.0</ns3:atemp>
          </ns3:TrackPointExtension>
        </extensions>
      </trkpt>
      <trkpt lat="60.0660104490816593170166015625" lon="15.75468328781425952911376953125">
        <ele>176.1999969482421875</ele>
        <time>2018-08-18T09:20:09.000Z</time>
        <extensions>
          <ns3:TrackPointExtension>
            <ns3:atemp>13.0</ns3:atemp>
          </ns3:TrackPointExtension>
        </extensions>
      </trkpt>
      <trkpt lat="60.065834261476993560791015625" lon="15.7548929192125797271728515625">
        <ele>176</ele>
        <time>2018-08-18T09:20:12.000Z</time>
        <extensions>
          <ns3:TrackPointExtension>
            <ns3:atemp>13.0</ns3:atemp>
          </ns3:TrackPointExtension>
        </extensions>
      </trkpt>
      <trkpt lat="60.06560099311172962188720703125" lon="15.75516792945563793182373046875">
        <ele>175.600006103515625</ele>
        <time>2018-08-18T09:20:16.000Z</time>
        <extensions>
          <ns3:TrackPointExtension>
            <ns3:atemp>13.0</ns3:atemp>
          </ns3:TrackPointExtension>
        </extensions>
      </trkpt>
      <trkpt lat="60.0654731690883636474609375" lon="15.7553214021027088165283203125">
        <ele>175.399993896484375</ele>
        <time>2018-08-18T09:20:18.000Z</time>
        <extensions>
          <ns3:TrackPointExtension>
            <ns3:atemp>13.0</ns3:atemp>
          </ns3:TrackPointExtension>
        </extensions>
      </trkpt>
      <trkpt lat="60.06515599787235260009765625" lon="15.75574125163257122039794921875">
        <ele>175</ele>
        <time>2018-08-18T09:20:23.000Z</time>
        <extensions>
          <ns3:TrackPointExtension>
            <ns3:atemp>13.0</ns3:atemp>
          </ns3:TrackPointExtension>
        </extensions>
      </trkpt>
      <trkpt lat="60.0648869387805461883544921875" lon="15.75604140758514404296875">
        <ele>174.600006103515625</ele>
        <time>2018-08-18T09:20:27.000Z</time>
        <extensions>
          <ns3:TrackPointExtension>
            <ns3:atemp>13.0</ns3:atemp>
          </ns3:TrackPointExtension>
        </extensions>
      </trkpt>
      <trkpt lat="60.06466255523264408111572265625" lon="15.75620745308697223663330078125">
        <ele>174.1999969482421875</ele>
        <time>2018-08-18T09:20:30.000Z</time>
        <extensions>
          <ns3:TrackPointExtension>
            <ns3:atemp>13.0</ns3:atemp>
          </ns3:TrackPointExtension>
        </extensions>
      </trkpt>
      <trkpt lat="60.06433197297155857086181640625" lon="15.75637760572135448455810546875">
        <ele>173.399993896484375</ele>
        <time>2018-08-18T09:20:34.000Z</time>
        <extensions>
          <ns3:TrackPointExtension>
            <ns3:atemp>13.0</ns3:atemp>
          </ns3:TrackPointExtension>
        </extensions>
      </trkpt>
      <trkpt lat="60.06384330801665782928466796875" lon="15.75663375668227672576904296875">
        <ele>172.1999969482421875</ele>
        <time>2018-08-18T09:20:40.000Z</time>
        <extensions>
          <ns3:TrackPointExtension>
            <ns3:atemp>13.0</ns3:atemp>
          </ns3:TrackPointExtension>
        </extensions>
      </trkpt>
      <trkpt lat="60.06349093280732631683349609375" lon="15.75681933201849460601806640625">
        <ele>171.399993896484375</ele>
        <time>2018-08-18T09:20:44.000Z</time>
        <extensions>
          <ns3:TrackPointExtension>
            <ns3:atemp>13.0</ns3:atemp>
          </ns3:TrackPointExtension>
        </extensions>
      </trkpt>
      <trkpt lat="60.06331256590783596038818359375" lon="15.75692008249461650848388671875">
        <ele>171</ele>
        <time>2018-08-18T09:20:46.000Z</time>
        <extensions>
          <ns3:TrackPointExtension>
            <ns3:atemp>13.0</ns3:atemp>
          </ns3:TrackPointExtension>
        </extensions>
      </trkpt>
      <trkpt lat="60.06314140744507312774658203125" lon="15.757026113569736480712890625">
        <ele>170.8000030517578125</ele>
        <time>2018-08-18T09:20:48.000Z</time>
        <extensions>
          <ns3:TrackPointExtension>
            <ns3:atemp>13.0</ns3:atemp>
          </ns3:TrackPointExtension>
        </extensions>
      </trkpt>
      <trkpt lat="60.06296739913523197174072265625" lon="15.75713817961513996124267578125">
        <ele>170.399993896484375</ele>
        <time>2018-08-18T09:20:50.000Z</time>
        <extensions>
          <ns3:TrackPointExtension>
            <ns3:atemp>13.0</ns3:atemp>
          </ns3:TrackPointExtension>
        </extensions>
      </trkpt>
      <trkpt lat="60.06279607303440570831298828125" lon="15.7572442106902599334716796875">
        <ele>170</ele>
        <time>2018-08-18T09:20:52.000Z</time>
        <extensions>
          <ns3:TrackPointExtension>
            <ns3:atemp>13.0</ns3:atemp>
          </ns3:TrackPointExtension>
        </extensions>
      </trkpt>
      <trkpt lat="60.06253723986446857452392578125" lon="15.757372118532657623291015625">
        <ele>169.399993896484375</ele>
        <time>2018-08-18T09:20:55.000Z</time>
        <extensions>
          <ns3:TrackPointExtension>
            <ns3:atemp>13.0</ns3:atemp>
          </ns3:TrackPointExtension>
        </extensions>
      </trkpt>
      <trkpt lat="60.06217095069587230682373046875" lon="15.75755308382213115692138671875">
        <ele>168.399993896484375</ele>
        <time>2018-08-18T09:20:59.000Z</time>
        <extensions>
          <ns3:TrackPointExtension>
            <ns3:atemp>13.0</ns3:atemp>
          </ns3:TrackPointExtension>
        </extensions>
      </trkpt>
      <trkpt lat="60.0617956928908824920654296875" lon="15.757755003869533538818359375">
        <ele>167.399993896484375</ele>
        <time>2018-08-18T09:21:03.000Z</time>
        <extensions>
          <ns3:TrackPointExtension>
            <ns3:atemp>13.0</ns3:atemp>
          </ns3:TrackPointExtension>
        </extensions>
      </trkpt>
      <trkpt lat="60.061614811420440673828125" lon="15.75786866247653961181640625">
        <ele>167</ele>
        <time>2018-08-18T09:21:05.000Z</time>
        <extensions>
          <ns3:TrackPointExtension>
            <ns3:atemp>13.0</ns3:atemp>
          </ns3:TrackPointExtension>
        </extensions>
      </trkpt>
      <trkpt lat="60.06143116392195224761962890625" lon="15.7579751126468181610107421875">
        <ele>166.399993896484375</ele>
        <time>2018-08-18T09:21:07.000Z</time>
        <extensions>
          <ns3:TrackPointExtension>
            <ns3:atemp>13.0</ns3:atemp>
          </ns3:TrackPointExtension>
        </extensions>
      </trkpt>
      <trkpt lat="60.0612486898899078369140625" lon="15.7580704987049102783203125">
        <ele>166</ele>
        <time>2018-08-18T09:21:09.000Z</time>
        <extensions>
          <ns3:TrackPointExtension>
            <ns3:atemp>13.0</ns3:atemp>
          </ns3:TrackPointExtension>
        </extensions>
      </trkpt>
      <trkpt lat="60.061060599982738494873046875" lon="15.75818440876901149749755859375">
        <ele>165.399993896484375</ele>
        <time>2018-08-18T09:21:11.000Z</time>
        <extensions>
          <ns3:TrackPointExtension>
            <ns3:atemp>13.0</ns3:atemp>
          </ns3:TrackPointExtension>
        </extensions>
      </trkpt>
      <trkpt lat="60.06078642792999744415283203125" lon="15.75840703211724758148193359375">
        <ele>164.8000030517578125</ele>
        <time>2018-08-18T09:21:14.000Z</time>
        <extensions>
          <ns3:TrackPointExtension>
            <ns3:atemp>13.0</ns3:atemp>
          </ns3:TrackPointExtension>
        </extensions>
      </trkpt>
      <trkpt lat="60.06060789339244365692138671875" lon="15.75859881006181240081787109375">
        <ele>164.399993896484375</ele>
        <time>2018-08-18T09:21:16.000Z</time>
        <extensions>
          <ns3:TrackPointExtension>
            <ns3:atemp>13.0</ns3:atemp>
          </ns3:TrackPointExtension>
        </extensions>
      </trkpt>
      <trkpt lat="60.0604411773383617401123046875" lon="15.7588099502027034759521484375">
        <ele>164</ele>
        <time>2018-08-18T09:21:18.000Z</time>
        <extensions>
          <ns3:TrackPointExtension>
            <ns3:atemp>13.0</ns3:atemp>
          </ns3:TrackPointExtension>
        </extensions>
      </trkpt>
      <trkpt lat="60.06027630530297756195068359375" lon="15.7590315677225589752197265625">
        <ele>163.600006103515625</ele>
        <time>2018-08-18T09:21:20.000Z</time>
        <extensions>
          <ns3:TrackPointExtension>
            <ns3:atemp>13.0</ns3:atemp>
          </ns3:TrackPointExtension>
        </extensions>
      </trkpt>
      <trkpt lat="60.0601964257657527923583984375" lon="15.75913642533123493194580078125">
        <ele>163.399993896484375</ele>
        <time>2018-08-18T09:21:21.000Z</time>
        <extensions>
          <ns3:TrackPointExtension>
            <ns3:atemp>13.0</ns3:atemp>
          </ns3:TrackPointExtension>
        </extensions>
      </trkpt>
      <trkpt lat="60.06003431975841522216796875" lon="15.75934882275760173797607421875">
        <ele>163</ele>
        <time>2018-08-18T09:21:23.000Z</time>
        <extensions>
          <ns3:TrackPointExtension>
            <ns3:atemp>13.0</ns3:atemp>
          </ns3:TrackPointExtension>
        </extensions>
      </trkpt>
      <trkpt lat="60.05979786626994609832763671875" lon="15.75961737893521785736083984375">
        <ele>162.399993896484375</ele>
        <time>2018-08-18T09:21:26.000Z</time>
        <extensions>
          <ns3:TrackPointExtension>
            <ns3:atemp>13.0</ns3:atemp>
          </ns3:TrackPointExtension>
        </extensions>
      </trkpt>
      <trkpt lat="60.05955713801085948944091796875" lon="15.759835056960582733154296875">
        <ele>161.8000030517578125</ele>
        <time>2018-08-18T09:21:29.000Z</time>
        <extensions>
          <ns3:TrackPointExtension>
            <ns3:atemp>13.0</ns3:atemp>
          </ns3:TrackPointExtension>
        </extensions>
      </trkpt>
      <trkpt lat="60.0594863109290599822998046875" lon="15.7599193789064884185791015625">
        <ele>161.600006103515625</ele>
        <time>2018-08-18T09:21:30.000Z</time>
        <extensions>
          <ns3:TrackPointExtension>
            <ns3:atemp>13.0</ns3:atemp>
          </ns3:TrackPointExtension>
        </extensions>
      </trkpt>
      <trkpt lat="60.05937826819717884063720703125" lon="15.76016002334654331207275390625">
        <ele>161.399993896484375</ele>
        <time>2018-08-18T09:21:32.000Z</time>
        <extensions>
          <ns3:TrackPointExtension>
            <ns3:atemp>13.0</ns3:atemp>
          </ns3:TrackPointExtension>
        </extensions>
      </trkpt>
      <trkpt lat="60.059295035898685455322265625" lon="15.76057794503867626190185546875">
        <ele>161.1999969482421875</ele>
        <time>2018-08-18T09:21:35.000Z</time>
        <extensions>
          <ns3:TrackPointExtension>
            <ns3:atemp>13.0</ns3:atemp>
          </ns3:TrackPointExtension>
        </extensions>
      </trkpt>
      <trkpt lat="60.0592445768415927886962890625" lon="15.7608439028263092041015625">
        <ele>161.1999969482421875</ele>
        <time>2018-08-18T09:21:37.000Z</time>
        <extensions>
          <ns3:TrackPointExtension>
            <ns3:atemp>13.0</ns3:atemp>
          </ns3:TrackPointExtension>
        </extensions>
      </trkpt>
      <trkpt lat="60.0592117197811603546142578125" lon="15.760966949164867401123046875">
        <ele>161</ele>
        <time>2018-08-18T09:21:38.000Z</time>
        <extensions>
          <ns3:TrackPointExtension>
            <ns3:atemp>13.0</ns3:atemp>
          </ns3:TrackPointExtension>
        </extensions>
      </trkpt>
      <trkpt lat="60.0591362826526165008544921875" lon="15.7612028159201145172119140625">
        <ele>160.8000030517578125</ele>
        <time>2018-08-18T09:21:40.000Z</time>
        <extensions>
          <ns3:TrackPointExtension>
            <ns3:atemp>13.0</ns3:atemp>
          </ns3:TrackPointExtension>
        </extensions>
      </trkpt>
      <trkpt lat="60.05879874341189861297607421875" lon="15.762165226042270660400390625">
        <ele>160.1999969482421875</ele>
        <time>2018-08-18T09:21:49.000Z</time>
        <extensions>
          <ns3:TrackPointExtension>
            <ns3:atemp>13.0</ns3:atemp>
          </ns3:TrackPointExtension>
        </extensions>
      </trkpt>
      <trkpt lat="60.05834276787936687469482421875" lon="15.76282764784991741180419921875">
        <ele>158.8000030517578125</ele>
        <time>2018-08-18T09:21:58.000Z</time>
        <extensions>
          <ns3:TrackPointExtension>
            <ns3:atemp>13.0</ns3:atemp>
          </ns3:TrackPointExtension>
        </extensions>
      </trkpt>
      <trkpt lat="60.0580944120883941650390625" lon="15.7633083499968051910400390625">
        <ele>157.8000030517578125</ele>
        <time>2018-08-18T09:22:03.000Z</time>
        <extensions>
          <ns3:TrackPointExtension>
            <ns3:atemp>13.0</ns3:atemp>
          </ns3:TrackPointExtension>
        </extensions>
      </trkpt>
      <trkpt lat="60.05798670463263988494873046875" lon="15.76376541517674922943115234375">
        <ele>157.399993896484375</ele>
        <time>2018-08-18T09:22:07.000Z</time>
        <extensions>
          <ns3:TrackPointExtension>
            <ns3:atemp>13.0</ns3:atemp>
          </ns3:TrackPointExtension>
        </extensions>
      </trkpt>
      <trkpt lat="60.05781269632279872894287109375" lon="15.76480644755065441131591796875">
        <ele>156.399993896484375</ele>
        <time>2018-08-18T09:22:17.000Z</time>
        <extensions>
          <ns3:TrackPointExtension>
            <ns3:atemp>13.0</ns3:atemp>
          </ns3:TrackPointExtension>
        </extensions>
      </trkpt>
      <trkpt lat="60.057717226445674896240234375" lon="15.7658851146697998046875">
        <ele>155.600006103515625</ele>
        <time>2018-08-18T09:22:27.000Z</time>
        <extensions>
          <ns3:TrackPointExtension>
            <ns3:atemp>13.0</ns3:atemp>
          </ns3:TrackPointExtension>
        </extensions>
      </trkpt>
      <trkpt lat="60.05768780596554279327392578125" lon="15.7662017829716205596923828125">
        <ele>155</ele>
        <time>2018-08-18T09:22:30.000Z</time>
        <extensions>
          <ns3:TrackPointExtension>
            <ns3:atemp>13.0</ns3:atemp>
          </ns3:TrackPointExtension>
        </extensions>
      </trkpt>
      <trkpt lat="60.05757230333983898162841796875" lon="15.766956321895122528076171875">
        <ele>153.600006103515625</ele>
        <time>2018-08-18T09:22:38.000Z</time>
        <extensions>
          <ns3:TrackPointExtension>
            <ns3:atemp>13.0</ns3:atemp>
          </ns3:TrackPointExtension>
        </extensions>
      </trkpt>
      <trkpt lat="60.05755595862865447998046875" lon="15.76704123057425022125244140625">
        <ele>153.399993896484375</ele>
        <time>2018-08-18T09:22:39.000Z</time>
        <extensions>
          <ns3:TrackPointExtension>
            <ns3:atemp>13.0</ns3:atemp>
          </ns3:TrackPointExtension>
        </extensions>
      </trkpt>
      <trkpt lat="60.0574334152042865753173828125" lon="15.7675065100193023681640625">
        <ele>152.1999969482421875</ele>
        <time>2018-08-18T09:22:45.000Z</time>
        <extensions>
          <ns3:TrackPointExtension>
            <ns3:atemp>13.0</ns3:atemp>
          </ns3:TrackPointExtension>
        </extensions>
      </trkpt>
      <trkpt lat="60.057305507361888885498046875" lon="15.76794463209807872772216796875">
        <ele>151.1999969482421875</ele>
        <time>2018-08-18T09:22:51.000Z</time>
        <extensions>
          <ns3:TrackPointExtension>
            <ns3:atemp>13.0</ns3:atemp>
          </ns3:TrackPointExtension>
        </extensions>
      </trkpt>
      <trkpt lat="60.05726200528442859649658203125" lon="15.768368504941463470458984375">
        <ele>150.399993896484375</ele>
        <time>2018-08-18T09:22:56.000Z</time>
        <extensions>
          <ns3:TrackPointExtension>
            <ns3:atemp>13.0</ns3:atemp>
          </ns3:TrackPointExtension>
        </extensions>
      </trkpt>
      <trkpt lat="60.05728983320295810699462890625" lon="15.76867938973009586334228515625">
        <ele>150</ele>
        <time>2018-08-18T09:23:00.000Z</time>
        <extensions>
          <ns3:TrackPointExtension>
            <ns3:atemp>13.0</ns3:atemp>
          </ns3:TrackPointExtension>
        </extensions>
      </trkpt>
      <trkpt lat="60.0573636777698993682861328125" lon="15.76914290897548198699951171875">
        <ele>149.600006103515625</ele>
        <time>2018-08-18T09:23:06.000Z</time>
        <extensions>
          <ns3:TrackPointExtension>
            <ns3:atemp>13.0</ns3:atemp>
          </ns3:TrackPointExtension>
        </extensions>
      </trkpt>
      <trkpt lat="60.057398378849029541015625" lon="15.7696772553026676177978515625">
        <ele>149</ele>
        <time>2018-08-18T09:23:13.000Z</time>
        <extensions>
          <ns3:TrackPointExtension>
            <ns3:atemp>13.0</ns3:atemp>
          </ns3:TrackPointExtension>
        </extensions>
      </trkpt>
      <trkpt lat="60.05740701220929622650146484375" lon="15.770196430385112762451171875">
        <ele>148.8000030517578125</ele>
        <time>2018-08-18T09:23:20.000Z</time>
        <extensions>
          <ns3:TrackPointExtension>
            <ns3:atemp>13.0</ns3:atemp>
          </ns3:TrackPointExtension>
        </extensions>
      </trkpt>
      <trkpt lat="60.0575001351535320281982421875" lon="15.7706280983984470367431640625">
        <ele>148.8000030517578125</ele>
        <time>2018-08-18T09:23:26.000Z</time>
        <extensions>
          <ns3:TrackPointExtension>
            <ns3:atemp>13.0</ns3:atemp>
          </ns3:TrackPointExtension>
        </extensions>
      </trkpt>
      <trkpt lat="60.05766450427472591400146484375" lon="15.7712326012551784515380859375">
        <ele>149</ele>
        <time>2018-08-18T09:23:35.000Z</time>
        <extensions>
          <ns3:TrackPointExtension>
            <ns3:atemp>13.0</ns3:atemp>
          </ns3:TrackPointExtension>
        </extensions>
      </trkpt>
      <trkpt lat="60.05767858587205410003662109375" lon="15.7713139057159423828125">
        <ele>149</ele>
        <time>2018-08-18T09:23:36.000Z</time>
        <extensions>
          <ns3:TrackPointExtension>
            <ns3:atemp>13.0</ns3:atemp>
          </ns3:TrackPointExtension>
        </extensions>
      </trkpt>
      <trkpt lat="60.05769736133515834808349609375" lon="15.77148615382611751556396484375">
        <ele>149</ele>
        <time>2018-08-18T09:23:38.000Z</time>
        <extensions>
          <ns3:TrackPointExtension>
            <ns3:atemp>13.0</ns3:atemp>
          </ns3:TrackPointExtension>
        </extensions>
      </trkpt>
      <trkpt lat="60.05770289339125156402587890625" lon="15.77157684601843357086181640625">
        <ele>149</ele>
        <time>2018-08-18T09:23:39.000Z</time>
        <extensions>
          <ns3:TrackPointExtension>
            <ns3:atemp>13.0</ns3:atemp>
          </ns3:TrackPointExtension>
        </extensions>
      </trkpt>
      <trkpt lat="60.05770557560026645660400390625" lon="15.7717693783342838287353515625">
        <ele>149</ele>
        <time>2018-08-18T09:23:41.000Z</time>
        <extensions>
          <ns3:TrackPointExtension>
            <ns3:atemp>13.0</ns3:atemp>
          </ns3:TrackPointExtension>
        </extensions>
      </trkpt>
      <trkpt lat="60.057568363845348358154296875" lon="15.77251176349818706512451171875">
        <ele>148.600006103515625</ele>
        <time>2018-08-18T09:23:49.000Z</time>
        <extensions>
          <ns3:TrackPointExtension>
            <ns3:atemp>13.0</ns3:atemp>
          </ns3:TrackPointExtension>
        </extensions>
      </trkpt>
      <trkpt lat="60.057728625833988189697265625" lon="15.7734008319675922393798828125">
        <ele>148.600006103515625</ele>
        <time>2018-08-18T09:23:56.000Z</time>
        <extensions>
          <ns3:TrackPointExtension>
            <ns3:atemp>13.0</ns3:atemp>
          </ns3:TrackPointExtension>
        </extensions>
      </trkpt>
      <trkpt lat="60.05785292945802211761474609375" lon="15.77374340035021305084228515625">
        <ele>148.8000030517578125</ele>
        <time>2018-08-18T09:23:59.000Z</time>
        <extensions>
          <ns3:TrackPointExtension>
            <ns3:atemp>13.0</ns3:atemp>
          </ns3:TrackPointExtension>
        </extensions>
      </trkpt>
      <trkpt lat="60.05787472240626811981201171875" lon="15.77386795543134212493896484375">
        <ele>148.8000030517578125</ele>
        <time>2018-08-18T09:24:00.000Z</time>
        <extensions>
          <ns3:TrackPointExtension>
            <ns3:atemp>13.0</ns3:atemp>
          </ns3:TrackPointExtension>
        </extensions>
      </trkpt>
      <trkpt lat="60.05789567716419696807861328125" lon="15.774218738079071044921875">
        <ele>148.8000030517578125</ele>
        <time>2018-08-18T09:24:03.000Z</time>
        <extensions>
          <ns3:TrackPointExtension>
            <ns3:atemp>13.0</ns3:atemp>
          </ns3:TrackPointExtension>
        </extensions>
      </trkpt>
      <trkpt lat="60.05789148621261119842529296875" lon="15.77433130703866481781005859375">
        <ele>148.8000030517578125</ele>
        <time>2018-08-18T09:24:04.000Z</time>
        <extensions>
          <ns3:TrackPointExtension>
            <ns3:atemp>13.0</ns3:atemp>
          </ns3:TrackPointExtension>
        </extensions>
      </trkpt>
      <trkpt lat="60.05773507989943027496337890625" lon="15.77538524754345417022705078125">
        <ele>147.8000030517578125</ele>
        <time>2018-08-18T09:24:16.000Z</time>
        <extensions>
          <ns3:TrackPointExtension>
            <ns3:atemp>13.0</ns3:atemp>
          </ns3:TrackPointExtension>
        </extensions>
      </trkpt>
      <trkpt lat="60.05762360058724880218505859375" lon="15.77560133300721645355224609375">
        <ele>147.600006103515625</ele>
        <time>2018-08-18T09:24:21.000Z</time>
        <extensions>
          <ns3:TrackPointExtension>
            <ns3:atemp>13.0</ns3:atemp>
          </ns3:TrackPointExtension>
        </extensions>
      </trkpt>
      <trkpt lat="60.05755537189543247222900390625" lon="15.77573577873408794403076171875">
        <ele>147.399993896484375</ele>
        <time>2018-08-18T09:24:24.000Z</time>
        <extensions>
          <ns3:TrackPointExtension>
            <ns3:atemp>13.0</ns3:atemp>
          </ns3:TrackPointExtension>
        </extensions>
      </trkpt>
      <trkpt lat="60.05746786482632160186767578125" lon="15.77599461190402507781982421875">
        <ele>147</ele>
        <time>2018-08-18T09:24:28.000Z</time>
        <extensions>
          <ns3:TrackPointExtension>
            <ns3:atemp>13.0</ns3:atemp>
          </ns3:TrackPointExtension>
        </extensions>
      </trkpt>
      <trkpt lat="60.0574075989425182342529296875" lon="15.77625252306461334228515625">
        <ele>146.8000030517578125</ele>
        <time>2018-08-18T09:24:31.000Z</time>
        <extensions>
          <ns3:TrackPointExtension>
            <ns3:atemp>13.0</ns3:atemp>
          </ns3:TrackPointExtension>
        </extensions>
      </trkpt>
      <trkpt lat="60.05738832056522369384765625" lon="15.776333324611186981201171875">
        <ele>146.600006103515625</ele>
        <time>2018-08-18T09:24:32.000Z</time>
        <extensions>
          <ns3:TrackPointExtension>
            <ns3:atemp>13.0</ns3:atemp>
          </ns3:TrackPointExtension>
        </extensions>
      </trkpt>
      <trkpt lat="60.05728262476623058319091796875" lon="15.77671780250966548919677734375">
        <ele>146.1999969482421875</ele>
        <time>2018-08-18T09:24:37.000Z</time>
        <extensions>
          <ns3:TrackPointExtension>
            <ns3:atemp>13.0</ns3:atemp>
          </ns3:TrackPointExtension>
        </extensions>
      </trkpt>
      <trkpt lat="60.0572208501398563385009765625" lon="15.77696221880614757537841796875">
        <ele>146</ele>
        <time>2018-08-18T09:24:40.000Z</time>
        <extensions>
          <ns3:TrackPointExtension>
            <ns3:atemp>13.0</ns3:atemp>
          </ns3:TrackPointExtension>
        </extensions>
      </trkpt>
      <trkpt lat="60.05712672136723995208740234375" lon="15.7773436792194843292236328125">
        <ele>145.600006103515625</ele>
        <time>2018-08-18T09:24:45.000Z</time>
        <extensions>
          <ns3:TrackPointExtension>
            <ns3:atemp>13.0</ns3:atemp>
          </ns3:TrackPointExtension>
        </extensions>
      </trkpt>
      <trkpt lat="60.05703669972717761993408203125" lon="15.77768926508724689483642578125">
        <ele>145.1999969482421875</ele>
        <time>2018-08-18T09:24:50.000Z</time>
        <extensions>
          <ns3:TrackPointExtension>
            <ns3:atemp>13.0</ns3:atemp>
          </ns3:TrackPointExtension>
        </extensions>
      </trkpt>
      <trkpt lat="60.05683653987944126129150390625" lon="15.7776873372495174407958984375">
        <ele>145</ele>
        <time>2018-08-18T09:24:55.000Z</time>
        <extensions>
          <ns3:TrackPointExtension>
            <ns3:atemp>13.0</ns3:atemp>
          </ns3:TrackPointExtension>
        </extensions>
      </trkpt>
      <trkpt lat="60.05626774393022060394287109375" lon="15.77745708636939525604248046875">
        <ele>144.399993896484375</ele>
        <time>2018-08-18T09:25:06.000Z</time>
        <extensions>
          <ns3:TrackPointExtension>
            <ns3:atemp>13.0</ns3:atemp>
          </ns3:TrackPointExtension>
        </extensions>
      </trkpt>
      <trkpt lat="60.05620856769382953643798828125" lon="15.7774360477924346923828125">
        <ele>144.399993896484375</ele>
        <time>2018-08-18T09:25:07.000Z</time>
        <extensions>
          <ns3:TrackPointExtension>
            <ns3:atemp>13.0</ns3:atemp>
          </ns3:TrackPointExtension>
        </extensions>
      </trkpt>
      <trkpt lat="60.055985860526561737060546875" lon="15.7773081399500370025634765625">
        <ele>144</ele>
        <time>2018-08-18T09:25:11.000Z</time>
        <extensions>
          <ns3:TrackPointExtension>
            <ns3:atemp>13.0</ns3:atemp>
          </ns3:TrackPointExtension>
        </extensions>
      </trkpt>
      <trkpt lat="60.055450759828090667724609375" lon="15.776825509965419769287109375">
        <ele>143.1999969482421875</ele>
        <time>2018-08-18T09:25:21.000Z</time>
        <extensions>
          <ns3:TrackPointExtension>
            <ns3:atemp>13.0</ns3:atemp>
          </ns3:TrackPointExtension>
        </extensions>
      </trkpt>
      <trkpt lat="60.0550241209566593170166015625" lon="15.776158310472965240478515625">
        <ele>142.1999969482421875</ele>
        <time>2018-08-18T09:25:30.000Z</time>
        <extensions>
          <ns3:TrackPointExtension>
            <ns3:atemp>13.0</ns3:atemp>
          </ns3:TrackPointExtension>
        </extensions>
      </trkpt>
      <trkpt lat="60.05459479987621307373046875" lon="15.77541475184261798858642578125">
        <ele>141.1999969482421875</ele>
        <time>2018-08-18T09:25:40.000Z</time>
        <extensions>
          <ns3:TrackPointExtension>
            <ns3:atemp>13.0</ns3:atemp>
          </ns3:TrackPointExtension>
        </extensions>
      </trkpt>
      <trkpt lat="60.05431107245385646820068359375" lon="15.77498358674347400665283203125">
        <ele>140.600006103515625</ele>
        <time>2018-08-18T09:25:47.000Z</time>
        <extensions>
          <ns3:TrackPointExtension>
            <ns3:atemp>13.0</ns3:atemp>
          </ns3:TrackPointExtension>
        </extensions>
      </trkpt>
      <trkpt lat="60.0539361499249935150146484375" lon="15.77436500228941440582275390625">
        <ele>140.1999969482421875</ele>
        <time>2018-08-18T09:25:56.000Z</time>
        <extensions>
          <ns3:TrackPointExtension>
            <ns3:atemp>13.0</ns3:atemp>
          </ns3:TrackPointExtension>
        </extensions>
      </trkpt>
      <trkpt lat="60.05342376418411731719970703125" lon="15.77384297735989093780517578125">
        <ele>139.1999969482421875</ele>
        <time>2018-08-18T09:26:04.000Z</time>
        <extensions>
          <ns3:TrackPointExtension>
            <ns3:atemp>13.0</ns3:atemp>
          </ns3:TrackPointExtension>
        </extensions>
      </trkpt>
      <trkpt lat="60.05313224159181118011474609375" lon="15.77364332042634487152099609375">
        <ele>138.8000030517578125</ele>
        <time>2018-08-18T09:26:08.000Z</time>
        <extensions>
          <ns3:TrackPointExtension>
            <ns3:atemp>13.0</ns3:atemp>
          </ns3:TrackPointExtension>
        </extensions>
      </trkpt>
      <trkpt lat="60.052849017083644866943359375" lon="15.77345606870949268341064453125">
        <ele>138.600006103515625</ele>
        <time>2018-08-18T09:26:12.000Z</time>
        <extensions>
          <ns3:TrackPointExtension>
            <ns3:atemp>13.0</ns3:atemp>
          </ns3:TrackPointExtension>
        </extensions>
      </trkpt>
      <trkpt lat="60.0524438358843326568603515625" lon="15.7732097245752811431884765625">
        <ele>138.1999969482421875</ele>
        <time>2018-08-18T09:26:18.000Z</time>
        <extensions>
          <ns3:TrackPointExtension>
            <ns3:atemp>13.0</ns3:atemp>
          </ns3:TrackPointExtension>
        </extensions>
      </trkpt>
      <trkpt lat="60.05203236825764179229736328125" lon="15.77299498021602630615234375">
        <ele>137.8000030517578125</ele>
        <time>2018-08-18T09:26:24.000Z</time>
        <extensions>
          <ns3:TrackPointExtension>
            <ns3:atemp>14.0</ns3:atemp>
          </ns3:TrackPointExtension>
        </extensions>
      </trkpt>
      <trkpt lat="60.05160422064363956451416015625" lon="15.7726778090000152587890625">
        <ele>137.399993896484375</ele>
        <time>2018-08-18T09:26:30.000Z</time>
        <extensions>
          <ns3:TrackPointExtension>
            <ns3:atemp>14.0</ns3:atemp>
          </ns3:TrackPointExtension>
        </extensions>
      </trkpt>
      <trkpt lat="60.0514849461615085601806640625" lon="15.77249466441571712493896484375">
        <ele>137.399993896484375</ele>
        <time>2018-08-18T09:26:32.000Z</time>
        <extensions>
          <ns3:TrackPointExtension>
            <ns3:atemp>14.0</ns3:atemp>
          </ns3:TrackPointExtension>
        </extensions>
      </trkpt>
      <trkpt lat="60.051304735243320465087890625" lon="15.77200851403176784515380859375">
        <ele>137</ele>
        <time>2018-08-18T09:26:36.000Z</time>
        <extensions>
          <ns3:TrackPointExtension>
            <ns3:atemp>14.0</ns3:atemp>
          </ns3:TrackPointExtension>
        </extensions>
      </trkpt>
      <trkpt lat="60.05114237777888774871826171875" lon="15.77133209444582462310791015625">
        <ele>137</ele>
        <time>2018-08-18T09:26:41.000Z</time>
        <extensions>
          <ns3:TrackPointExtension>
            <ns3:atemp>14.0</ns3:atemp>
          </ns3:TrackPointExtension>
        </extensions>
      </trkpt>
      <trkpt lat="60.051003992557525634765625" lon="15.7708061300218105316162109375">
        <ele>137</ele>
        <time>2018-08-18T09:26:45.000Z</time>
        <extensions>
          <ns3:TrackPointExtension>
            <ns3:atemp>14.0</ns3:atemp>
          </ns3:TrackPointExtension>
        </extensions>
      </trkpt>
      <trkpt lat="60.05076183937489986419677734375" lon="15.77016399241983890533447265625">
        <ele>136.8000030517578125</ele>
        <time>2018-08-18T09:26:50.000Z</time>
        <extensions>
          <ns3:TrackPointExtension>
            <ns3:atemp>14.0</ns3:atemp>
          </ns3:TrackPointExtension>
        </extensions>
      </trkpt>
      <trkpt lat="60.05038498900830745697021484375" lon="15.76938983984291553497314453125">
        <ele>136.600006103515625</ele>
        <time>2018-08-18T09:26:56.000Z</time>
        <extensions>
          <ns3:TrackPointExtension>
            <ns3:atemp>14.0</ns3:atemp>
          </ns3:TrackPointExtension>
        </extensions>
      </trkpt>
      <trkpt lat="60.0501887686550617218017578125" lon="15.76900309883058071136474609375">
        <ele>136.399993896484375</ele>
        <time>2018-08-18T09:26:59.000Z</time>
        <extensions>
          <ns3:TrackPointExtension>
            <ns3:atemp>14.0</ns3:atemp>
          </ns3:TrackPointExtension>
        </extensions>
      </trkpt>
      <trkpt lat="60.05001752637326717376708984375" lon="15.7686238177120685577392578125">
        <ele>136.399993896484375</ele>
        <time>2018-08-18T09:27:02.000Z</time>
        <extensions>
          <ns3:TrackPointExtension>
            <ns3:atemp>14.0</ns3:atemp>
          </ns3:TrackPointExtension>
        </extensions>
      </trkpt>
      <trkpt lat="60.04993001930415630340576171875" lon="15.7683703489601612091064453125">
        <ele>136.1999969482421875</ele>
        <time>2018-08-18T09:27:04.000Z</time>
        <extensions>
          <ns3:TrackPointExtension>
            <ns3:atemp>14.0</ns3:atemp>
          </ns3:TrackPointExtension>
        </extensions>
      </trkpt>
      <trkpt lat="60.049837566912174224853515625" lon="15.767980925738811492919921875">
        <ele>136.1999969482421875</ele>
        <time>2018-08-18T09:27:07.000Z</time>
        <extensions>
          <ns3:TrackPointExtension>
            <ns3:atemp>14.0</ns3:atemp>
          </ns3:TrackPointExtension>
        </extensions>
      </trkpt>
      <trkpt lat="60.04969566129148006439208984375" lon="15.76683796942234039306640625">
        <ele>136.399993896484375</ele>
        <time>2018-08-18T09:27:16.000Z</time>
        <extensions>
          <ns3:TrackPointExtension>
            <ns3:atemp>14.0</ns3:atemp>
          </ns3:TrackPointExtension>
        </extensions>
      </trkpt>
      <trkpt lat="60.0495778955519199371337890625" lon="15.7657334022223949432373046875">
        <ele>136.399993896484375</ele>
        <time>2018-08-18T09:27:26.000Z</time>
        <extensions>
          <ns3:TrackPointExtension>
            <ns3:atemp>14.0</ns3:atemp>
          </ns3:TrackPointExtension>
        </extensions>
      </trkpt>
      <trkpt lat="60.0495339743793010711669921875" lon="15.765383876860141754150390625">
        <ele>136.1999969482421875</ele>
        <time>2018-08-18T09:27:29.000Z</time>
        <extensions>
          <ns3:TrackPointExtension>
            <ns3:atemp>14.0</ns3:atemp>
          </ns3:TrackPointExtension>
        </extensions>
      </trkpt>
      <trkpt lat="60.04924756474792957305908203125" lon="15.7643654756247997283935546875">
        <ele>135.1999969482421875</ele>
        <time>2018-08-18T09:27:38.000Z</time>
        <extensions>
          <ns3:TrackPointExtension>
            <ns3:atemp>14.0</ns3:atemp>
          </ns3:TrackPointExtension>
        </extensions>
      </trkpt>
      <trkpt lat="60.0488650985062122344970703125" lon="15.76346986927092075347900390625">
        <ele>134.1999969482421875</ele>
        <time>2018-08-18T09:27:47.000Z</time>
        <extensions>
          <ns3:TrackPointExtension>
            <ns3:atemp>14.0</ns3:atemp>
          </ns3:TrackPointExtension>
        </extensions>
      </trkpt>
      <trkpt lat="60.04846452735364437103271484375" lon="15.7626999914646148681640625">
        <ele>133.1999969482421875</ele>
        <time>2018-08-18T09:27:55.000Z</time>
        <extensions>
          <ns3:TrackPointExtension>
            <ns3:atemp>14.0</ns3:atemp>
          </ns3:TrackPointExtension>
        </extensions>
      </trkpt>
      <trkpt lat="60.04804995842278003692626953125" lon="15.7621104083955287933349609375">
        <ele>132.399993896484375</ele>
        <time>2018-08-18T09:28:01.000Z</time>
        <extensions>
          <ns3:TrackPointExtension>
            <ns3:atemp>14.0</ns3:atemp>
          </ns3:TrackPointExtension>
        </extensions>
      </trkpt>
      <trkpt lat="60.04775994457304477691650390625" lon="15.76172207482159137725830078125">
        <ele>131.8000030517578125</ele>
        <time>2018-08-18T09:28:05.000Z</time>
        <extensions>
          <ns3:TrackPointExtension>
            <ns3:atemp>14.0</ns3:atemp>
          </ns3:TrackPointExtension>
        </extensions>
      </trkpt>
      <trkpt lat="60.0476208887994289398193359375" lon="15.761546306312084197998046875">
        <ele>131.600006103515625</ele>
        <time>2018-08-18T09:28:07.000Z</time>
        <extensions>
          <ns3:TrackPointExtension>
            <ns3:atemp>14.0</ns3:atemp>
          </ns3:TrackPointExtension>
        </extensions>
      </trkpt>
      <trkpt lat="60.04748535342514514923095703125" lon="15.76137363910675048828125">
        <ele>131.399993896484375</ele>
        <time>2018-08-18T09:28:09.000Z</time>
        <extensions>
          <ns3:TrackPointExtension>
            <ns3:atemp>14.0</ns3:atemp>
          </ns3:TrackPointExtension>
        </extensions>
      </trkpt>
      <trkpt lat="60.04722408950328826904296875" lon="15.76101983897387981414794921875">
        <ele>130.8000030517578125</ele>
        <time>2018-08-18T09:28:13.000Z</time>
        <extensions>
          <ns3:TrackPointExtension>
            <ns3:atemp>14.0</ns3:atemp>
          </ns3:TrackPointExtension>
        </extensions>
      </trkpt>
      <trkpt lat="60.046899877488613128662109375" lon="15.76059336774051189422607421875">
        <ele>130.1999969482421875</ele>
        <time>2018-08-18T09:28:18.000Z</time>
        <extensions>
          <ns3:TrackPointExtension>
            <ns3:atemp>14.0</ns3:atemp>
          </ns3:TrackPointExtension>
        </extensions>
      </trkpt>
      <trkpt lat="60.04676601849496364593505859375" lon="15.760417096316814422607421875">
        <ele>129.8000030517578125</ele>
        <time>2018-08-18T09:28:20.000Z</time>
        <extensions>
          <ns3:TrackPointExtension>
            <ns3:atemp>14.0</ns3:atemp>
          </ns3:TrackPointExtension>
        </extensions>
      </trkpt>
      <trkpt lat="60.0464819557964801788330078125" lon="15.76008148491382598876953125">
        <ele>129.399993896484375</ele>
        <time>2018-08-18T09:28:24.000Z</time>
        <extensions>
          <ns3:TrackPointExtension>
            <ns3:atemp>14.0</ns3:atemp>
          </ns3:TrackPointExtension>
        </extensions>
      </trkpt>
      <trkpt lat="60.04608792252838611602783203125" lon="15.75975014828145503997802734375">
        <ele>128.600006103515625</ele>
        <time>2018-08-18T09:28:29.000Z</time>
        <extensions>
          <ns3:TrackPointExtension>
            <ns3:atemp>14.0</ns3:atemp>
          </ns3:TrackPointExtension>
        </extensions>
      </trkpt>
      <trkpt lat="60.046008042991161346435546875" lon="15.7596702687442302703857421875">
        <ele>128.600006103515625</ele>
        <time>2018-08-18T09:28:30.000Z</time>
        <extensions>
          <ns3:TrackPointExtension>
            <ns3:atemp>14.0</ns3:atemp>
          </ns3:TrackPointExtension>
        </extensions>
      </trkpt>
      <trkpt lat="60.04585423506796360015869140625" lon="15.7594652473926544189453125">
        <ele>128.1999969482421875</ele>
        <time>2018-08-18T09:28:32.000Z</time>
        <extensions>
          <ns3:TrackPointExtension>
            <ns3:atemp>14.0</ns3:atemp>
          </ns3:TrackPointExtension>
        </extensions>
      </trkpt>
      <trkpt lat="60.04572900943458080291748046875" lon="15.75920213945209980010986328125">
        <ele>128</ele>
        <time>2018-08-18T09:28:34.000Z</time>
        <extensions>
          <ns3:TrackPointExtension>
            <ns3:atemp>14.0</ns3:atemp>
          </ns3:TrackPointExtension>
        </extensions>
      </trkpt>
      <trkpt lat="60.0456343777477741241455078125" lon="15.758921764791011810302734375">
        <ele>127.59999847412109375</ele>
        <time>2018-08-18T09:28:36.000Z</time>
        <extensions>
          <ns3:TrackPointExtension>
            <ns3:atemp>14.0</ns3:atemp>
          </ns3:TrackPointExtension>
        </extensions>
      </trkpt>
      <trkpt lat="60.0455953180789947509765625" lon="15.75878472067415714263916015625">
        <ele>127.59999847412109375</ele>
        <time>2018-08-18T09:28:37.000Z</time>
        <extensions>
          <ns3:TrackPointExtension>
            <ns3:atemp>14.0</ns3:atemp>
          </ns3:TrackPointExtension>
        </extensions>
      </trkpt>
      <trkpt lat="60.04555852152407169342041015625" lon="15.75865597464144229888916015625">
        <ele>127.40000152587890625</ele>
        <time>2018-08-18T09:28:38.000Z</time>
        <extensions>
          <ns3:TrackPointExtension>
            <ns3:atemp>14.0</ns3:atemp>
          </ns3:TrackPointExtension>
        </extensions>
      </trkpt>
      <trkpt lat="60.04545760340988636016845703125" lon="15.75829706154763698577880859375">
        <ele>127</ele>
        <time>2018-08-18T09:28:41.000Z</time>
        <extensions>
          <ns3:TrackPointExtension>
            <ns3:atemp>14.0</ns3:atemp>
          </ns3:TrackPointExtension>
        </extensions>
      </trkpt>
      <trkpt lat="60.04515183158218860626220703125" lon="15.75727723538875579833984375">
        <ele>126.1999969482421875</ele>
        <time>2018-08-18T09:28:50.000Z</time>
        <extensions>
          <ns3:TrackPointExtension>
            <ns3:atemp>15.0</ns3:atemp>
          </ns3:TrackPointExtension>
        </extensions>
      </trkpt>
      <trkpt lat="60.04486634396016597747802734375" lon="15.75635589659214019775390625">
        <ele>125</ele>
        <time>2018-08-18T09:28:58.000Z</time>
        <extensions>
          <ns3:TrackPointExtension>
            <ns3:atemp>15.0</ns3:atemp>
          </ns3:TrackPointExtension>
        </extensions>
      </trkpt>
      <trkpt lat="60.04456426016986370086669921875" lon="15.7553448714315891265869140625">
        <ele>124.1999969482421875</ele>
        <time>2018-08-18T09:29:07.000Z</time>
        <extensions>
          <ns3:TrackPointExtension>
            <ns3:atemp>15.0</ns3:atemp>
          </ns3:TrackPointExtension>
        </extensions>
      </trkpt>
      <trkpt lat="60.04427944310009479522705078125" lon="15.75436703860759735107421875">
        <ele>123.40000152587890625</ele>
        <time>2018-08-18T09:29:16.000Z</time>
        <extensions>
          <ns3:TrackPointExtension>
            <ns3:atemp>15.0</ns3:atemp>
          </ns3:TrackPointExtension>
        </extensions>
      </trkpt>
      <trkpt lat="60.04412203095853328704833984375" lon="15.75369237922132015228271484375">
        <ele>122.8000030517578125</ele>
        <time>2018-08-18T09:29:22.000Z</time>
        <extensions>
          <ns3:TrackPointExtension>
            <ns3:atemp>15.0</ns3:atemp>
          </ns3:TrackPointExtension>
        </extensions>
      </trkpt>
      <trkpt lat="60.04414357244968414306640625" lon="15.7530016265809535980224609375">
        <ele>122.1999969482421875</ele>
        <time>2018-08-18T09:29:28.000Z</time>
        <extensions>
          <ns3:TrackPointExtension>
            <ns3:atemp>15.0</ns3:atemp>
          </ns3:TrackPointExtension>
        </extensions>
      </trkpt>
      <trkpt lat="60.04426234401762485504150390625" lon="15.75235194526612758636474609375">
        <ele>121.59999847412109375</ele>
        <time>2018-08-18T09:29:35.000Z</time>
        <extensions>
          <ns3:TrackPointExtension>
            <ns3:atemp>15.0</ns3:atemp>
          </ns3:TrackPointExtension>
        </extensions>
      </trkpt>
      <trkpt lat="60.04432671703398227691650390625" lon="15.752000994980335235595703125">
        <ele>121.40000152587890625</ele>
        <time>2018-08-18T09:29:39.000Z</time>
        <extensions>
          <ns3:TrackPointExtension>
            <ns3:atemp>15.0</ns3:atemp>
          </ns3:TrackPointExtension>
        </extensions>
      </trkpt>
      <trkpt lat="60.0443958677351474761962890625" lon="15.75164468027651309967041015625">
        <ele>121</ele>
        <time>2018-08-18T09:29:43.000Z</time>
        <extensions>
          <ns3:TrackPointExtension>
            <ns3:atemp>15.0</ns3:atemp>
          </ns3:TrackPointExtension>
        </extensions>
      </trkpt>
      <trkpt lat="60.04447541199624538421630859375" lon="15.751072280108928680419921875">
        <ele>120.59999847412109375</ele>
        <time>2018-08-18T09:29:49.000Z</time>
        <extensions>
          <ns3:TrackPointExtension>
            <ns3:atemp>15.0</ns3:atemp>
          </ns3:TrackPointExtension>
        </extensions>
      </trkpt>
      <trkpt lat="60.04444657824933528900146484375" lon="15.75014934875071048736572265625">
        <ele>119.8000030517578125</ele>
        <time>2018-08-18T09:29:58.000Z</time>
        <extensions>
          <ns3:TrackPointExtension>
            <ns3:atemp>15.0</ns3:atemp>
          </ns3:TrackPointExtension>
        </extensions>
      </trkpt>
      <trkpt lat="60.04435119219124317169189453125" lon="15.74904377572238445281982421875">
        <ele>119</ele>
        <time>2018-08-18T09:30:09.000Z</time>
        <extensions>
          <ns3:TrackPointExtension>
            <ns3:atemp>15.0</ns3:atemp>
          </ns3:TrackPointExtension>
        </extensions>
      </trkpt>
      <trkpt lat="60.04429318942129611968994140625" lon="15.74838914908468723297119140625">
        <ele>118.8000030517578125</ele>
        <time>2018-08-18T09:30:15.000Z</time>
        <extensions>
          <ns3:TrackPointExtension>
            <ns3:atemp>15.0</ns3:atemp>
          </ns3:TrackPointExtension>
        </extensions>
      </trkpt>
      <trkpt lat="60.04424105398356914520263671875" lon="15.7472412474453449249267578125">
        <ele>118.8000030517578125</ele>
        <time>2018-08-18T09:30:24.000Z</time>
        <extensions>
          <ns3:TrackPointExtension>
            <ns3:atemp>15.0</ns3:atemp>
          </ns3:TrackPointExtension>
        </extensions>
      </trkpt>
      <trkpt lat="60.04407810978591442108154296875" lon="15.7463876344263553619384765625">
        <ele>118.59999847412109375</ele>
        <time>2018-08-18T09:30:31.000Z</time>
        <extensions>
          <ns3:TrackPointExtension>
            <ns3:atemp>15.0</ns3:atemp>
          </ns3:TrackPointExtension>
        </extensions>
      </trkpt>
      <trkpt lat="60.04385657608509063720703125" lon="15.74533528648316860198974609375">
        <ele>118.59999847412109375</ele>
        <time>2018-08-18T09:30:40.000Z</time>
        <extensions>
          <ns3:TrackPointExtension>
            <ns3:atemp>15.0</ns3:atemp>
          </ns3:TrackPointExtension>
        </extensions>
      </trkpt>
      <trkpt lat="60.043628253042697906494140625" lon="15.74432778172194957733154296875">
        <ele>118.59999847412109375</ele>
        <time>2018-08-18T09:30:49.000Z</time>
        <extensions>
          <ns3:TrackPointExtension>
            <ns3:atemp>15.0</ns3:atemp>
          </ns3:TrackPointExtension>
        </extensions>
      </trkpt>
      <trkpt lat="60.0433977507054805755615234375" lon="15.743300579488277435302734375">
        <ele>118.40000152587890625</ele>
        <time>2018-08-18T09:30:59.000Z</time>
        <extensions>
          <ns3:TrackPointExtension>
            <ns3:atemp>15.0</ns3:atemp>
          </ns3:TrackPointExtension>
        </extensions>
      </trkpt>
      <trkpt lat="60.0430834293365478515625" lon="15.74242676608264446258544921875">
        <ele>118.40000152587890625</ele>
        <time>2018-08-18T09:31:08.000Z</time>
        <extensions>
          <ns3:TrackPointExtension>
            <ns3:atemp>15.0</ns3:atemp>
          </ns3:TrackPointExtension>
        </extensions>
      </trkpt>
      <trkpt lat="60.04272225312888622283935546875" lon="15.74157432653009891510009765625">
        <ele>118.1999969482421875</ele>
        <time>2018-08-18T09:31:18.000Z</time>
        <extensions>
          <ns3:TrackPointExtension>
            <ns3:atemp>15.0</ns3:atemp>
          </ns3:TrackPointExtension>
        </extensions>
      </trkpt>
      <trkpt lat="60.0423144735395908355712890625" lon="15.7410879246890544891357421875">
        <ele>118</ele>
        <time>2018-08-18T09:31:26.000Z</time>
        <extensions>
          <ns3:TrackPointExtension>
            <ns3:atemp>15.0</ns3:atemp>
          </ns3:TrackPointExtension>
        </extensions>
      </trkpt>
      <trkpt lat="60.0422611646354198455810546875" lon="15.74101366102695465087890625">
        <ele>118</ele>
        <time>2018-08-18T09:31:27.000Z</time>
        <extensions>
          <ns3:TrackPointExtension>
            <ns3:atemp>15.0</ns3:atemp>
          </ns3:TrackPointExtension>
        </extensions>
      </trkpt>
      <trkpt lat="60.04206444136798381805419921875" lon="15.7404877804219722747802734375">
        <ele>117.8000030517578125</ele>
        <time>2018-08-18T09:31:32.000Z</time>
        <extensions>
          <ns3:TrackPointExtension>
            <ns3:atemp>15.0</ns3:atemp>
          </ns3:TrackPointExtension>
        </extensions>
      </trkpt>
      <trkpt lat="60.041740648448467254638671875" lon="15.7395724765956401824951171875">
        <ele>117</ele>
        <time>2018-08-18T09:31:40.000Z</time>
        <extensions>
          <ns3:TrackPointExtension>
            <ns3:atemp>15.0</ns3:atemp>
          </ns3:TrackPointExtension>
        </extensions>
      </trkpt>
      <trkpt lat="60.04158834926784038543701171875" lon="15.73931959457695484161376953125">
        <ele>116.8000030517578125</ele>
        <time>2018-08-18T09:31:43.000Z</time>
        <extensions>
          <ns3:TrackPointExtension>
            <ns3:atemp>15.0</ns3:atemp>
          </ns3:TrackPointExtension>
        </extensions>
      </trkpt>
      <trkpt lat="60.04132054746150970458984375" lon="15.73890368454158306121826171875">
        <ele>116.40000152587890625</ele>
        <time>2018-08-18T09:31:48.000Z</time>
        <extensions>
          <ns3:TrackPointExtension>
            <ns3:atemp>15.0</ns3:atemp>
          </ns3:TrackPointExtension>
        </extensions>
      </trkpt>
      <trkpt lat="60.04111996851861476898193359375" lon="15.73837730102241039276123046875">
        <ele>115.8000030517578125</ele>
        <time>2018-08-18T09:31:53.000Z</time>
        <extensions>
          <ns3:TrackPointExtension>
            <ns3:atemp>15.0</ns3:atemp>
          </ns3:TrackPointExtension>
        </extensions>
      </trkpt>
      <trkpt lat="60.04104218445718288421630859375" lon="15.7372919283807277679443359375">
        <ele>115</ele>
        <time>2018-08-18T09:32:01.000Z</time>
        <extensions>
          <ns3:TrackPointExtension>
            <ns3:atemp>15.0</ns3:atemp>
          </ns3:TrackPointExtension>
        </extensions>
      </trkpt>
      <trkpt lat="60.04105727188289165496826171875" lon="15.7371444068849086761474609375">
        <ele>115</ele>
        <time>2018-08-18T09:32:02.000Z</time>
        <extensions>
          <ns3:TrackPointExtension>
            <ns3:atemp>15.0</ns3:atemp>
          </ns3:TrackPointExtension>
        </extensions>
      </trkpt>
      <trkpt lat="60.04115936346352100372314453125" lon="15.7364158518612384796142578125">
        <ele>115</ele>
        <time>2018-08-18T09:32:07.000Z</time>
        <extensions>
          <ns3:TrackPointExtension>
            <ns3:atemp>15.0</ns3:atemp>
          </ns3:TrackPointExtension>
        </extensions>
      </trkpt>
      <trkpt lat="60.0411825813353061676025390625" lon="15.73596498928964138031005859375">
        <ele>115.1999969482421875</ele>
        <time>2018-08-18T09:32:10.000Z</time>
        <extensions>
          <ns3:TrackPointExtension>
            <ns3:atemp>15.0</ns3:atemp>
          </ns3:TrackPointExtension>
        </extensions>
      </trkpt>
      <trkpt lat="60.041176043450832366943359375" lon="15.73581730015575885772705078125">
        <ele>115.1999969482421875</ele>
        <time>2018-08-18T09:32:11.000Z</time>
        <extensions>
          <ns3:TrackPointExtension>
            <ns3:atemp>15.0</ns3:atemp>
          </ns3:TrackPointExtension>
        </extensions>
      </trkpt>
      <trkpt lat="60.04100329242646694183349609375" lon="15.73493937961757183074951171875">
        <ele>115.40000152587890625</ele>
        <time>2018-08-18T09:32:18.000Z</time>
        <extensions>
          <ns3:TrackPointExtension>
            <ns3:atemp>15.0</ns3:atemp>
          </ns3:TrackPointExtension>
        </extensions>
      </trkpt>
      <trkpt lat="60.040911845862865447998046875" lon="15.73461634106934070587158203125">
        <ele>115.40000152587890625</ele>
        <time>2018-08-18T09:32:21.000Z</time>
        <extensions>
          <ns3:TrackPointExtension>
            <ns3:atemp>15.0</ns3:atemp>
          </ns3:TrackPointExtension>
        </extensions>
      </trkpt>
      <trkpt lat="60.0408774800598621368408203125" lon="15.73385677300393581390380859375">
        <ele>115.59999847412109375</ele>
        <time>2018-08-18T09:32:27.000Z</time>
        <extensions>
          <ns3:TrackPointExtension>
            <ns3:atemp>15.0</ns3:atemp>
          </ns3:TrackPointExtension>
        </extensions>
      </trkpt>
      <trkpt lat="60.040947385132312774658203125" lon="15.73264659382402896881103515625">
        <ele>116</ele>
        <time>2018-08-18T09:32:36.000Z</time>
        <extensions>
          <ns3:TrackPointExtension>
            <ns3:atemp>15.0</ns3:atemp>
          </ns3:TrackPointExtension>
        </extensions>
      </trkpt>
      <trkpt lat="60.040954761207103729248046875" lon="15.73205751366913318634033203125">
        <ele>115.8000030517578125</ele>
        <time>2018-08-18T09:32:40.000Z</time>
        <extensions>
          <ns3:TrackPointExtension>
            <ns3:atemp>15.0</ns3:atemp>
          </ns3:TrackPointExtension>
        </extensions>
      </trkpt>
      <trkpt lat="60.0408918969333171844482421875" lon="15.73160849511623382568359375">
        <ele>115.40000152587890625</ele>
        <time>2018-08-18T09:32:43.000Z</time>
        <extensions>
          <ns3:TrackPointExtension>
            <ns3:atemp>15.0</ns3:atemp>
          </ns3:TrackPointExtension>
        </extensions>
      </trkpt>
      <trkpt lat="60.04086029715836048126220703125" lon="15.73146172799170017242431640625">
        <ele>115.40000152587890625</ele>
        <time>2018-08-18T09:32:44.000Z</time>
        <extensions>
          <ns3:TrackPointExtension>
            <ns3:atemp>15.0</ns3:atemp>
          </ns3:TrackPointExtension>
        </extensions>
      </trkpt>
      <trkpt lat="60.0407665036618709564208984375" lon="15.731012038886547088623046875">
        <ele>114.8000030517578125</ele>
        <time>2018-08-18T09:32:47.000Z</time>
        <extensions>
          <ns3:TrackPointExtension>
            <ns3:atemp>15.0</ns3:atemp>
          </ns3:TrackPointExtension>
        </extensions>
      </trkpt>
      <trkpt lat="60.040646977722644805908203125" lon="15.7303885929286479949951171875">
        <ele>114.1999969482421875</ele>
        <time>2018-08-18T09:32:51.000Z</time>
        <extensions>
          <ns3:TrackPointExtension>
            <ns3:atemp>15.0</ns3:atemp>
          </ns3:TrackPointExtension>
        </extensions>
      </trkpt>
      <trkpt lat="60.04056357778608798980712890625" lon="15.72993119247257709503173828125">
        <ele>113.8000030517578125</ele>
        <time>2018-08-18T09:32:54.000Z</time>
        <extensions>
          <ns3:TrackPointExtension>
            <ns3:atemp>15.0</ns3:atemp>
          </ns3:TrackPointExtension>
        </extensions>
      </trkpt>
      <trkpt lat="60.0404929183423519134521484375" lon="15.72953380644321441650390625">
        <ele>113.40000152587890625</ele>
        <time>2018-08-18T09:32:57.000Z</time>
        <extensions>
          <ns3:TrackPointExtension>
            <ns3:atemp>15.0</ns3:atemp>
          </ns3:TrackPointExtension>
        </extensions>
      </trkpt>
      <trkpt lat="60.04040616564452648162841796875" lon="15.72904740460216999053955078125">
        <ele>113</ele>
        <time>2018-08-18T09:33:01.000Z</time>
        <extensions>
          <ns3:TrackPointExtension>
            <ns3:atemp>15.0</ns3:atemp>
          </ns3:TrackPointExtension>
        </extensions>
      </trkpt>
      <trkpt lat="60.04018689505755901336669921875" lon="15.72794593870639801025390625">
        <ele>111.8000030517578125</ele>
        <time>2018-08-18T09:33:11.000Z</time>
        <extensions>
          <ns3:TrackPointExtension>
            <ns3:atemp>15.0</ns3:atemp>
          </ns3:TrackPointExtension>
        </extensions>
      </trkpt>
      <trkpt lat="60.04009067080914974212646484375" lon="15.72727815248072147369384765625">
        <ele>111.1999969482421875</ele>
        <time>2018-08-18T09:33:18.000Z</time>
        <extensions>
          <ns3:TrackPointExtension>
            <ns3:atemp>15.0</ns3:atemp>
          </ns3:TrackPointExtension>
        </extensions>
      </trkpt>
      <trkpt lat="60.040084384381771087646484375" lon="15.72691219858825206756591796875">
        <ele>111.1999969482421875</ele>
        <time>2018-08-18T09:33:22.000Z</time>
        <extensions>
          <ns3:TrackPointExtension>
            <ns3:atemp>15.0</ns3:atemp>
          </ns3:TrackPointExtension>
        </extensions>
      </trkpt>
      <trkpt lat="60.040125958621501922607421875" lon="15.72646376676857471466064453125">
        <ele>111</ele>
        <time>2018-08-18T09:33:27.000Z</time>
        <extensions>
          <ns3:TrackPointExtension>
            <ns3:atemp>15.0</ns3:atemp>
          </ns3:TrackPointExtension>
        </extensions>
      </trkpt>
      <trkpt lat="60.0401734001934528350830078125" lon="15.72611977346241474151611328125">
        <ele>111</ele>
        <time>2018-08-18T09:33:31.000Z</time>
        <extensions>
          <ns3:TrackPointExtension>
            <ns3:atemp>15.0</ns3:atemp>
          </ns3:TrackPointExtension>
        </extensions>
      </trkpt>
      <trkpt lat="60.040201731026172637939453125" lon="15.725582577288150787353515625">
        <ele>110.8000030517578125</ele>
        <time>2018-08-18T09:33:37.000Z</time>
        <extensions>
          <ns3:TrackPointExtension>
            <ns3:atemp>15.0</ns3:atemp>
          </ns3:TrackPointExtension>
        </extensions>
      </trkpt>
      <trkpt lat="60.0402013957500457763671875" lon="15.72512333281338214874267578125">
        <ele>110.8000030517578125</ele>
        <time>2018-08-18T09:33:42.000Z</time>
        <extensions>
          <ns3:TrackPointExtension>
            <ns3:atemp>15.0</ns3:atemp>
          </ns3:TrackPointExtension>
        </extensions>
      </trkpt>
      <trkpt lat="60.0402508489787578582763671875" lon="15.7240465097129344940185546875">
        <ele>110.40000152587890625</ele>
        <time>2018-08-18T09:33:52.000Z</time>
        <extensions>
          <ns3:TrackPointExtension>
            <ns3:atemp>15.0</ns3:atemp>
          </ns3:TrackPointExtension>
        </extensions>
      </trkpt>
      <trkpt lat="60.04044539295136928558349609375" lon="15.72310580871999263763427734375">
        <ele>111.1999969482421875</ele>
        <time>2018-08-18T09:33:59.000Z</time>
        <extensions>
          <ns3:TrackPointExtension>
            <ns3:atemp>15.0</ns3:atemp>
          </ns3:TrackPointExtension>
        </extensions>
      </trkpt>
      <trkpt lat="60.0406841933727264404296875" lon="15.72264933027327060699462890625">
        <ele>111.8000030517578125</ele>
        <time>2018-08-18T09:34:03.000Z</time>
        <extensions>
          <ns3:TrackPointExtension>
            <ns3:atemp>15.0</ns3:atemp>
          </ns3:TrackPointExtension>
        </extensions>
      </trkpt>
      <trkpt lat="60.04074982367455959320068359375" lon="15.72255469858646392822265625">
        <ele>111.8000030517578125</ele>
        <time>2018-08-18T09:34:04.000Z</time>
        <extensions>
          <ns3:TrackPointExtension>
            <ns3:atemp>15.0</ns3:atemp>
          </ns3:TrackPointExtension>
        </extensions>
      </trkpt>
      <trkpt lat="60.04087203182280063629150390625" lon="15.72237205691635608673095703125">
        <ele>112.1999969482421875</ele>
        <time>2018-08-18T09:34:06.000Z</time>
        <extensions>
          <ns3:TrackPointExtension>
            <ns3:atemp>15.0</ns3:atemp>
          </ns3:TrackPointExtension>
        </extensions>
      </trkpt>
      <trkpt lat="60.04103849641978740692138671875" lon="15.72210836224257946014404296875">
        <ele>112.59999847412109375</ele>
        <time>2018-08-18T09:34:09.000Z</time>
        <extensions>
          <ns3:TrackPointExtension>
            <ns3:atemp>15.0</ns3:atemp>
          </ns3:TrackPointExtension>
        </extensions>
      </trkpt>
      <trkpt lat="60.041175372898578643798828125" lon="15.72183343581855297088623046875">
        <ele>113</ele>
        <time>2018-08-18T09:34:12.000Z</time>
        <extensions>
          <ns3:TrackPointExtension>
            <ns3:atemp>15.0</ns3:atemp>
          </ns3:TrackPointExtension>
        </extensions>
      </trkpt>
      <trkpt lat="60.0414752773940563201904296875" lon="15.7208848558366298675537109375">
        <ele>113.8000030517578125</ele>
        <time>2018-08-18T09:34:21.000Z</time>
        <extensions>
          <ns3:TrackPointExtension>
            <ns3:atemp>15.0</ns3:atemp>
          </ns3:TrackPointExtension>
        </extensions>
      </trkpt>
      <trkpt lat="60.0416774488985538482666015625" lon="15.719763524830341339111328125">
        <ele>114.59999847412109375</ele>
        <time>2018-08-18T09:34:30.000Z</time>
        <extensions>
          <ns3:TrackPointExtension>
            <ns3:atemp>15.0</ns3:atemp>
          </ns3:TrackPointExtension>
        </extensions>
      </trkpt>
      <trkpt lat="60.0418911874294281005859375" lon="15.71870095096528530120849609375">
        <ele>115.40000152587890625</ele>
        <time>2018-08-18T09:34:39.000Z</time>
        <extensions>
          <ns3:TrackPointExtension>
            <ns3:atemp>15.0</ns3:atemp>
          </ns3:TrackPointExtension>
        </extensions>
      </trkpt>
      <trkpt lat="60.042059160768985748291015625" lon="15.717932917177677154541015625">
        <ele>116</ele>
        <time>2018-08-18T09:34:46.000Z</time>
        <extensions>
          <ns3:TrackPointExtension>
            <ns3:atemp>15.0</ns3:atemp>
          </ns3:TrackPointExtension>
        </extensions>
      </trkpt>
      <trkpt lat="60.04209478385746479034423828125" lon="15.7175743393599987030029296875">
        <ele>116.1999969482421875</ele>
        <time>2018-08-18T09:34:49.000Z</time>
        <extensions>
          <ns3:TrackPointExtension>
            <ns3:atemp>15.0</ns3:atemp>
          </ns3:TrackPointExtension>
        </extensions>
      </trkpt>
      <trkpt lat="60.042080618441104888916015625" lon="15.7171104848384857177734375">
        <ele>116.1999969482421875</ele>
        <time>2018-08-18T09:34:53.000Z</time>
        <extensions>
          <ns3:TrackPointExtension>
            <ns3:atemp>15.0</ns3:atemp>
          </ns3:TrackPointExtension>
        </extensions>
      </trkpt>
      <trkpt lat="60.04204365424811840057373046875" lon="15.71669080294668674468994140625">
        <ele>116.40000152587890625</ele>
        <time>2018-08-18T09:34:57.000Z</time>
        <extensions>
          <ns3:TrackPointExtension>
            <ns3:atemp>15.0</ns3:atemp>
          </ns3:TrackPointExtension>
        </extensions>
      </trkpt>
      <trkpt lat="60.0420076958835124969482421875" lon="15.71626651100814342498779296875">
        <ele>116.40000152587890625</ele>
        <time>2018-08-18T09:35:01.000Z</time>
        <extensions>
          <ns3:TrackPointExtension>
            <ns3:atemp>15.0</ns3:atemp>
          </ns3:TrackPointExtension>
        </extensions>
      </trkpt>
      <trkpt lat="60.0420301593840122222900390625" lon="15.7158310711383819580078125">
        <ele>116.59999847412109375</ele>
        <time>2018-08-18T09:35:05.000Z</time>
        <extensions>
          <ns3:TrackPointExtension>
            <ns3:atemp>15.0</ns3:atemp>
          </ns3:TrackPointExtension>
        </extensions>
      </trkpt>
      <trkpt lat="60.0421263836324214935302734375" lon="15.71533058770000934600830078125">
        <ele>117.1999969482421875</ele>
        <time>2018-08-18T09:35:10.000Z</time>
        <extensions>
          <ns3:TrackPointExtension>
            <ns3:atemp>15.0</ns3:atemp>
          </ns3:TrackPointExtension>
        </extensions>
      </trkpt>
      <trkpt lat="60.04230231977999210357666015625" lon="15.7148431800305843353271484375">
        <ele>117.8000030517578125</ele>
        <time>2018-08-18T09:35:16.000Z</time>
        <extensions>
          <ns3:TrackPointExtension>
            <ns3:atemp>15.0</ns3:atemp>
          </ns3:TrackPointExtension>
        </extensions>
      </trkpt>
      <trkpt lat="60.04251237027347087860107421875" lon="15.71433649398386478424072265625">
        <ele>118.59999847412109375</ele>
        <time>2018-08-18T09:35:23.000Z</time>
        <extensions>
          <ns3:TrackPointExtension>
            <ns3:atemp>15.0</ns3:atemp>
          </ns3:TrackPointExtension>
        </extensions>
      </trkpt>
      <trkpt lat="60.04271940328180789947509765625" lon="15.71381011046469211578369140625">
        <ele>119.1999969482421875</ele>
        <time>2018-08-18T09:35:30.000Z</time>
        <extensions>
          <ns3:TrackPointExtension>
            <ns3:atemp>15.0</ns3:atemp>
          </ns3:TrackPointExtension>
        </extensions>
      </trkpt>
      <trkpt lat="60.04288938827812671661376953125" lon="15.71330803446471691131591796875">
        <ele>119.8000030517578125</ele>
        <time>2018-08-18T09:35:36.000Z</time>
        <extensions>
          <ns3:TrackPointExtension>
            <ns3:atemp>14.0</ns3:atemp>
          </ns3:TrackPointExtension>
        </extensions>
      </trkpt>
      <trkpt lat="60.04314151592552661895751953125" lon="15.71228678338229656219482421875">
        <ele>120.40000152587890625</ele>
        <time>2018-08-18T09:35:46.000Z</time>
        <extensions>
          <ns3:TrackPointExtension>
            <ns3:atemp>14.0</ns3:atemp>
          </ns3:TrackPointExtension>
        </extensions>
      </trkpt>
      <trkpt lat="60.04331384785473346710205078125" lon="15.71121565997600555419921875">
        <ele>120.8000030517578125</ele>
        <time>2018-08-18T09:35:55.000Z</time>
        <extensions>
          <ns3:TrackPointExtension>
            <ns3:atemp>14.0</ns3:atemp>
          </ns3:TrackPointExtension>
        </extensions>
      </trkpt>
      <trkpt lat="60.0435439310967922210693359375" lon="15.71051116101443767547607421875">
        <ele>121.40000152587890625</ele>
        <time>2018-08-18T09:36:02.000Z</time>
        <extensions>
          <ns3:TrackPointExtension>
            <ns3:atemp>14.0</ns3:atemp>
          </ns3:TrackPointExtension>
        </extensions>
      </trkpt>
      <trkpt lat="60.04358525387942790985107421875" lon="15.71043874137103557586669921875">
        <ele>121.40000152587890625</ele>
        <time>2018-08-18T09:36:03.000Z</time>
        <extensions>
          <ns3:TrackPointExtension>
            <ns3:atemp>14.0</ns3:atemp>
          </ns3:TrackPointExtension>
        </extensions>
      </trkpt>
      <trkpt lat="60.04388364963233470916748046875" lon="15.70999131537973880767822265625">
        <ele>122</ele>
        <time>2018-08-18T09:36:10.000Z</time>
        <extensions>
          <ns3:TrackPointExtension>
            <ns3:atemp>14.0</ns3:atemp>
          </ns3:TrackPointExtension>
        </extensions>
      </trkpt>
      <trkpt lat="60.0439992360770702362060546875" lon="15.7097419537603855133056640625">
        <ele>122.1999969482421875</ele>
        <time>2018-08-18T09:36:13.000Z</time>
        <extensions>
          <ns3:TrackPointExtension>
            <ns3:atemp>14.0</ns3:atemp>
          </ns3:TrackPointExtension>
        </extensions>
      </trkpt>
      <trkpt lat="60.0441045127809047698974609375" lon="15.70945168845355510711669921875">
        <ele>122.40000152587890625</ele>
        <time>2018-08-18T09:36:16.000Z</time>
        <extensions>
          <ns3:TrackPointExtension>
            <ns3:atemp>14.0</ns3:atemp>
          </ns3:TrackPointExtension>
        </extensions>
      </trkpt>
      <trkpt lat="60.04447557963430881500244140625" lon="15.70847972296178340911865234375">
        <ele>123</ele>
        <time>2018-08-18T09:36:25.000Z</time>
        <extensions>
          <ns3:TrackPointExtension>
            <ns3:atemp>14.0</ns3:atemp>
          </ns3:TrackPointExtension>
        </extensions>
      </trkpt>
      <trkpt lat="60.04458856768906116485595703125" lon="15.70827201940119266510009765625">
        <ele>123.1999969482421875</ele>
        <time>2018-08-18T09:36:27.000Z</time>
        <extensions>
          <ns3:TrackPointExtension>
            <ns3:atemp>14.0</ns3:atemp>
          </ns3:TrackPointExtension>
        </extensions>
      </trkpt>
      <trkpt lat="60.04492920823395252227783203125" lon="15.70787035860121250152587890625">
        <ele>123.8000030517578125</ele>
        <time>2018-08-18T09:36:32.000Z</time>
        <extensions>
          <ns3:TrackPointExtension>
            <ns3:atemp>14.0</ns3:atemp>
          </ns3:TrackPointExtension>
        </extensions>
      </trkpt>
      <trkpt lat="60.04522207193076610565185546875" lon="15.70763432420790195465087890625">
        <ele>124.40000152587890625</ele>
        <time>2018-08-18T09:36:37.000Z</time>
        <extensions>
          <ns3:TrackPointExtension>
            <ns3:atemp>14.0</ns3:atemp>
          </ns3:TrackPointExtension>
        </extensions>
      </trkpt>
      <trkpt lat="60.04574661143124103546142578125" lon="15.70737683214247226715087890625">
        <ele>125.8000030517578125</ele>
        <time>2018-08-18T09:36:47.000Z</time>
        <extensions>
          <ns3:TrackPointExtension>
            <ns3:atemp>14.0</ns3:atemp>
          </ns3:TrackPointExtension>
        </extensions>
      </trkpt>
      <trkpt lat="60.045842416584491729736328125" lon="15.70734900422394275665283203125">
        <ele>126</ele>
        <time>2018-08-18T09:36:49.000Z</time>
        <extensions>
          <ns3:TrackPointExtension>
            <ns3:atemp>14.0</ns3:atemp>
          </ns3:TrackPointExtension>
        </extensions>
      </trkpt>
      <trkpt lat="60.04609060473740100860595703125" lon="15.7072920911014080047607421875">
        <ele>126.59999847412109375</ele>
        <time>2018-08-18T09:36:54.000Z</time>
        <extensions>
          <ns3:TrackPointExtension>
            <ns3:atemp>14.0</ns3:atemp>
          </ns3:TrackPointExtension>
        </extensions>
      </trkpt>
      <trkpt lat="60.0463106296956539154052734375" lon="15.70726686157286167144775390625">
        <ele>127.1999969482421875</ele>
        <time>2018-08-18T09:36:58.000Z</time>
        <extensions>
          <ns3:TrackPointExtension>
            <ns3:atemp>14.0</ns3:atemp>
          </ns3:TrackPointExtension>
        </extensions>
      </trkpt>
      <trkpt lat="60.04651590250432491302490234375" lon="15.7072283886373043060302734375">
        <ele>127.8000030517578125</ele>
        <time>2018-08-18T09:37:02.000Z</time>
        <extensions>
          <ns3:TrackPointExtension>
            <ns3:atemp>14.0</ns3:atemp>
          </ns3:TrackPointExtension>
        </extensions>
      </trkpt>
      <trkpt lat="60.0466682016849517822265625" lon="15.70714985020458698272705078125">
        <ele>128.1999969482421875</ele>
        <time>2018-08-18T09:37:05.000Z</time>
        <extensions>
          <ns3:TrackPointExtension>
            <ns3:atemp>14.0</ns3:atemp>
          </ns3:TrackPointExtension>
        </extensions>
      </trkpt>
      <trkpt lat="60.04681698046624660491943359375" lon="15.70702428929507732391357421875">
        <ele>128.399993896484375</ele>
        <time>2018-08-18T09:37:08.000Z</time>
        <extensions>
          <ns3:TrackPointExtension>
            <ns3:atemp>14.0</ns3:atemp>
          </ns3:TrackPointExtension>
        </extensions>
      </trkpt>
      <trkpt lat="60.04709266126155853271484375" lon="15.70634418167173862457275390625">
        <ele>129</ele>
        <time>2018-08-18T09:37:15.000Z</time>
        <extensions>
          <ns3:TrackPointExtension>
            <ns3:atemp>14.0</ns3:atemp>
          </ns3:TrackPointExtension>
        </extensions>
      </trkpt>
      <trkpt lat="60.0472665019333362579345703125" lon="15.70560959167778491973876953125">
        <ele>129.1999969482421875</ele>
        <time>2018-08-18T09:37:22.000Z</time>
        <extensions>
          <ns3:TrackPointExtension>
            <ns3:atemp>14.0</ns3:atemp>
          </ns3:TrackPointExtension>
        </extensions>
      </trkpt>
      <trkpt lat="60.047351829707622528076171875" lon="15.7049535401165485382080078125">
        <ele>129.399993896484375</ele>
        <time>2018-08-18T09:37:29.000Z</time>
        <extensions>
          <ns3:TrackPointExtension>
            <ns3:atemp>14.0</ns3:atemp>
          </ns3:TrackPointExtension>
        </extensions>
      </trkpt>
      <trkpt lat="60.04749289713799953460693359375" lon="15.7046618498861789703369140625">
        <ele>129.600006103515625</ele>
        <time>2018-08-18T09:37:33.000Z</time>
        <extensions>
          <ns3:TrackPointExtension>
            <ns3:atemp>14.0</ns3:atemp>
          </ns3:TrackPointExtension>
        </extensions>
      </trkpt>
      <trkpt lat="60.04753380082547664642333984375" lon="15.70460091345012187957763671875">
        <ele>129.600006103515625</ele>
        <time>2018-08-18T09:37:34.000Z</time>
        <extensions>
          <ns3:TrackPointExtension>
            <ns3:atemp>14.0</ns3:atemp>
          </ns3:TrackPointExtension>
        </extensions>
      </trkpt>
      <trkpt lat="60.04757537506520748138427734375" lon="15.70454475469887256622314453125">
        <ele>129.8000030517578125</ele>
        <time>2018-08-18T09:37:35.000Z</time>
        <extensions>
          <ns3:TrackPointExtension>
            <ns3:atemp>14.0</ns3:atemp>
          </ns3:TrackPointExtension>
        </extensions>
      </trkpt>
      <trkpt lat="60.04789405502378940582275390625" lon="15.70402122102677822113037109375">
        <ele>130.399993896484375</ele>
        <time>2018-08-18T09:37:43.000Z</time>
        <extensions>
          <ns3:TrackPointExtension>
            <ns3:atemp>14.0</ns3:atemp>
          </ns3:TrackPointExtension>
        </extensions>
      </trkpt>
      <trkpt lat="60.04793009720742702484130859375" lon="15.70392809808254241943359375">
        <ele>130.600006103515625</ele>
        <time>2018-08-18T09:37:44.000Z</time>
        <extensions>
          <ns3:TrackPointExtension>
            <ns3:atemp>14.0</ns3:atemp>
          </ns3:TrackPointExtension>
        </extensions>
      </trkpt>
      <trkpt lat="60.04821826703846454620361328125" lon="15.7029422186315059661865234375">
        <ele>131</ele>
        <time>2018-08-18T09:37:52.000Z</time>
        <extensions>
          <ns3:TrackPointExtension>
            <ns3:atemp>14.0</ns3:atemp>
          </ns3:TrackPointExtension>
        </extensions>
      </trkpt>
      <trkpt lat="60.0486988015472888946533203125" lon="15.7021834887564182281494140625">
        <ele>131.399993896484375</ele>
        <time>2018-08-18T09:37:59.000Z</time>
        <extensions>
          <ns3:TrackPointExtension>
            <ns3:atemp>14.0</ns3:atemp>
          </ns3:TrackPointExtension>
        </extensions>
      </trkpt>
      <trkpt lat="60.048778094351291656494140625" lon="15.702123977243900299072265625">
        <ele>131.399993896484375</ele>
        <time>2018-08-18T09:38:00.000Z</time>
        <extensions>
          <ns3:TrackPointExtension>
            <ns3:atemp>14.0</ns3:atemp>
          </ns3:TrackPointExtension>
        </extensions>
      </trkpt>
      <trkpt lat="60.0490089319646358489990234375" lon="15.702011324465274810791015625">
        <ele>131.399993896484375</ele>
        <time>2018-08-18T09:38:03.000Z</time>
        <extensions>
          <ns3:TrackPointExtension>
            <ns3:atemp>14.0</ns3:atemp>
          </ns3:TrackPointExtension>
        </extensions>
      </trkpt>
      <trkpt lat="60.04934303462505340576171875" lon="15.701843686401844024658203125">
        <ele>131.600006103515625</ele>
        <time>2018-08-18T09:38:08.000Z</time>
        <extensions>
          <ns3:TrackPointExtension>
            <ns3:atemp>14.0</ns3:atemp>
          </ns3:TrackPointExtension>
        </extensions>
      </trkpt>
      <trkpt lat="60.04985441453754901885986328125" lon="15.70136868394911289215087890625">
        <ele>131.600006103515625</ele>
        <time>2018-08-18T09:38:17.000Z</time>
        <extensions>
          <ns3:TrackPointExtension>
            <ns3:atemp>14.0</ns3:atemp>
          </ns3:TrackPointExtension>
        </extensions>
      </trkpt>
      <trkpt lat="60.0501954741775989532470703125" lon="15.7011501677334308624267578125">
        <ele>131.8000030517578125</ele>
        <time>2018-08-18T09:38:24.000Z</time>
        <extensions>
          <ns3:TrackPointExtension>
            <ns3:atemp>14.0</ns3:atemp>
          </ns3:TrackPointExtension>
        </extensions>
      </trkpt>
      <trkpt lat="60.05043259821832180023193359375" lon="15.70102904923260211944580078125">
        <ele>132</ele>
        <time>2018-08-18T09:38:29.000Z</time>
        <extensions>
          <ns3:TrackPointExtension>
            <ns3:atemp>14.0</ns3:atemp>
          </ns3:TrackPointExtension>
        </extensions>
      </trkpt>
      <trkpt lat="60.05061884410679340362548828125" lon="15.7008936814963817596435546875">
        <ele>132</ele>
        <time>2018-08-18T09:38:33.000Z</time>
        <extensions>
          <ns3:TrackPointExtension>
            <ns3:atemp>14.0</ns3:atemp>
          </ns3:TrackPointExtension>
        </extensions>
      </trkpt>
      <trkpt lat="60.0508081912994384765625" lon="15.7007444836199283599853515625">
        <ele>132</ele>
        <time>2018-08-18T09:38:37.000Z</time>
        <extensions>
          <ns3:TrackPointExtension>
            <ns3:atemp>14.0</ns3:atemp>
          </ns3:TrackPointExtension>
        </extensions>
      </trkpt>
      <trkpt lat="60.050996951758861541748046875" lon="15.70060618221759796142578125">
        <ele>132</ele>
        <time>2018-08-18T09:38:41.000Z</time>
        <extensions>
          <ns3:TrackPointExtension>
            <ns3:atemp>14.0</ns3:atemp>
          </ns3:TrackPointExtension>
        </extensions>
      </trkpt>
      <trkpt lat="60.0512733869254589080810546875" lon="15.700395964086055755615234375">
        <ele>132.1999969482421875</ele>
        <time>2018-08-18T09:38:47.000Z</time>
        <extensions>
          <ns3:TrackPointExtension>
            <ns3:atemp>14.0</ns3:atemp>
          </ns3:TrackPointExtension>
        </extensions>
      </trkpt>
      <trkpt lat="60.05160405300557613372802734375" lon="15.70012682117521762847900390625">
        <ele>132.1999969482421875</ele>
        <time>2018-08-18T09:38:54.000Z</time>
        <extensions>
          <ns3:TrackPointExtension>
            <ns3:atemp>14.0</ns3:atemp>
          </ns3:TrackPointExtension>
        </extensions>
      </trkpt>
      <trkpt lat="60.0518400035798549652099609375" lon="15.7000253163278102874755859375">
        <ele>132.399993896484375</ele>
        <time>2018-08-18T09:38:59.000Z</time>
        <extensions>
          <ns3:TrackPointExtension>
            <ns3:atemp>14.0</ns3:atemp>
          </ns3:TrackPointExtension>
        </extensions>
      </trkpt>
      <trkpt lat="60.0520220585167407989501953125" lon="15.7000870071351528167724609375">
        <ele>132.600006103515625</ele>
        <time>2018-08-18T09:39:03.000Z</time>
        <extensions>
          <ns3:TrackPointExtension>
            <ns3:atemp>14.0</ns3:atemp>
          </ns3:TrackPointExtension>
        </extensions>
      </trkpt>
      <trkpt lat="60.0520639680325984954833984375" lon="15.70012212730944156646728515625">
        <ele>132.8000030517578125</ele>
        <time>2018-08-18T09:39:04.000Z</time>
        <extensions>
          <ns3:TrackPointExtension>
            <ns3:atemp>14.0</ns3:atemp>
          </ns3:TrackPointExtension>
        </extensions>
      </trkpt>
      <trkpt lat="60.05210897885262966156005859375" lon="15.70015699602663516998291015625">
        <ele>132.8000030517578125</ele>
        <time>2018-08-18T09:39:05.000Z</time>
        <extensions>
          <ns3:TrackPointExtension>
            <ns3:atemp>14.0</ns3:atemp>
          </ns3:TrackPointExtension>
        </extensions>
      </trkpt>
      <trkpt lat="60.052211321890354156494140625" lon="15.70021281950175762176513671875">
        <ele>133.1999969482421875</ele>
        <time>2018-08-18T09:39:07.000Z</time>
        <extensions>
          <ns3:TrackPointExtension>
            <ns3:atemp>14.0</ns3:atemp>
          </ns3:TrackPointExtension>
        </extensions>
      </trkpt>
      <trkpt lat="60.05242916755378246307373046875" lon="15.700254477560520172119140625">
        <ele>133.399993896484375</ele>
        <time>2018-08-18T09:39:11.000Z</time>
        <extensions>
          <ns3:TrackPointExtension>
            <ns3:atemp>14.0</ns3:atemp>
          </ns3:TrackPointExtension>
        </extensions>
      </trkpt>
      <trkpt lat="60.05300098098814487457275390625" lon="15.70014216005802154541015625">
        <ele>134</ele>
        <time>2018-08-18T09:39:22.000Z</time>
        <extensions>
          <ns3:TrackPointExtension>
            <ns3:atemp>14.0</ns3:atemp>
          </ns3:TrackPointExtension>
        </extensions>
      </trkpt>
      <trkpt lat="60.05331329070031642913818359375" lon="15.6999515555799007415771484375">
        <ele>134.1999969482421875</ele>
        <time>2018-08-18T09:39:29.000Z</time>
        <extensions>
          <ns3:TrackPointExtension>
            <ns3:atemp>14.0</ns3:atemp>
          </ns3:TrackPointExtension>
        </extensions>
      </trkpt>
      <trkpt lat="60.0534989498555660247802734375" lon="15.69991894997656345367431640625">
        <ele>134.399993896484375</ele>
        <time>2018-08-18T09:39:33.000Z</time>
        <extensions>
          <ns3:TrackPointExtension>
            <ns3:atemp>14.0</ns3:atemp>
          </ns3:TrackPointExtension>
        </extensions>
      </trkpt>
      <trkpt lat="60.05354178138077259063720703125" lon="15.6999284215271472930908203125">
        <ele>134.399993896484375</ele>
        <time>2018-08-18T09:39:34.000Z</time>
        <extensions>
          <ns3:TrackPointExtension>
            <ns3:atemp>14.0</ns3:atemp>
          </ns3:TrackPointExtension>
        </extensions>
      </trkpt>
      <trkpt lat="60.05382207222282886505126953125" lon="15.69996253587305545806884765625">
        <ele>134.8000030517578125</ele>
        <time>2018-08-18T09:39:41.000Z</time>
        <extensions>
          <ns3:TrackPointExtension>
            <ns3:atemp>14.0</ns3:atemp>
          </ns3:TrackPointExtension>
        </extensions>
      </trkpt>
      <trkpt lat="60.0539361499249935150146484375" lon="15.69997041486203670501708984375">
        <ele>135</ele>
        <time>2018-08-18T09:39:44.000Z</time>
        <extensions>
          <ns3:TrackPointExtension>
            <ns3:atemp>14.0</ns3:atemp>
          </ns3:TrackPointExtension>
        </extensions>
      </trkpt>
      <trkpt lat="60.0540887005627155303955078125" lon="15.69999690167605876922607421875">
        <ele>135.1999969482421875</ele>
        <time>2018-08-18T09:39:48.000Z</time>
        <extensions>
          <ns3:TrackPointExtension>
            <ns3:atemp>14.0</ns3:atemp>
          </ns3:TrackPointExtension>
        </extensions>
      </trkpt>
      <trkpt lat="60.05428232252597808837890625" lon="15.70000813342630863189697265625">
        <ele>135.399993896484375</ele>
        <time>2018-08-18T09:39:52.000Z</time>
        <extensions>
          <ns3:TrackPointExtension>
            <ns3:atemp>14.0</ns3:atemp>
          </ns3:TrackPointExtension>
        </extensions>
      </trkpt>
      <trkpt lat="60.0548759289085865020751953125" lon="15.700108297169208526611328125">
        <ele>136.600006103515625</ele>
        <time>2018-08-18T09:40:02.000Z</time>
        <extensions>
          <ns3:TrackPointExtension>
            <ns3:atemp>14.0</ns3:atemp>
          </ns3:TrackPointExtension>
        </extensions>
      </trkpt>
      <trkpt lat="60.055299885571002960205078125" lon="15.70062738843262195587158203125">
        <ele>137.8000030517578125</ele>
        <time>2018-08-18T09:40:08.000Z</time>
        <extensions>
          <ns3:TrackPointExtension>
            <ns3:atemp>14.0</ns3:atemp>
          </ns3:TrackPointExtension>
        </extensions>
      </trkpt>
      <trkpt lat="60.0555511750280857086181640625" lon="15.7009278796613216400146484375">
        <ele>138.600006103515625</ele>
        <time>2018-08-18T09:40:12.000Z</time>
        <extensions>
          <ns3:TrackPointExtension>
            <ns3:atemp>14.0</ns3:atemp>
          </ns3:TrackPointExtension>
        </extensions>
      </trkpt>
      <trkpt lat="60.05597479641437530517578125" lon="15.70164612494409084320068359375">
        <ele>139.8000030517578125</ele>
        <time>2018-08-18T09:40:19.000Z</time>
        <extensions>
          <ns3:TrackPointExtension>
            <ns3:atemp>14.0</ns3:atemp>
          </ns3:TrackPointExtension>
        </extensions>
      </trkpt>
      <trkpt lat="60.0563551671802997589111328125" lon="15.7020570896565914154052734375">
        <ele>141</ele>
        <time>2018-08-18T09:40:25.000Z</time>
        <extensions>
          <ns3:TrackPointExtension>
            <ns3:atemp>14.0</ns3:atemp>
          </ns3:TrackPointExtension>
        </extensions>
      </trkpt>
      <trkpt lat="60.0566451810300350189208984375" lon="15.7023900188505649566650390625">
        <ele>141.8000030517578125</ele>
        <time>2018-08-18T09:40:30.000Z</time>
        <extensions>
          <ns3:TrackPointExtension>
            <ns3:atemp>14.0</ns3:atemp>
          </ns3:TrackPointExtension>
        </extensions>
      </trkpt>
      <trkpt lat="60.05715136416256427764892578125" lon="15.702315084636211395263671875">
        <ele>142.600006103515625</ele>
        <time>2018-08-18T09:40:38.000Z</time>
        <extensions>
          <ns3:TrackPointExtension>
            <ns3:atemp>14.0</ns3:atemp>
          </ns3:TrackPointExtension>
        </extensions>
      </trkpt>
      <trkpt lat="60.05771731026470661163330078125" lon="15.702360682189464569091796875">
        <ele>143.600006103515625</ele>
        <time>2018-08-18T09:40:46.000Z</time>
        <extensions>
          <ns3:TrackPointExtension>
            <ns3:atemp>14.0</ns3:atemp>
          </ns3:TrackPointExtension>
        </extensions>
      </trkpt>
      <trkpt lat="60.05812584422528743743896484375" lon="15.7023038528859615325927734375">
        <ele>144.1999969482421875</ele>
        <time>2018-08-18T09:40:51.000Z</time>
        <extensions>
          <ns3:TrackPointExtension>
            <ns3:atemp>14.0</ns3:atemp>
          </ns3:TrackPointExtension>
        </extensions>
      </trkpt>
      <trkpt lat="60.05827520973980426788330078125" lon="15.70220871828496456146240234375">
        <ele>144.399993896484375</ele>
        <time>2018-08-18T09:40:53.000Z</time>
        <extensions>
          <ns3:TrackPointExtension>
            <ns3:atemp>14.0</ns3:atemp>
          </ns3:TrackPointExtension>
        </extensions>
      </trkpt>
      <trkpt lat="60.05848056636750698089599609375" lon="15.70203504525125026702880859375">
        <ele>144.8000030517578125</ele>
        <time>2018-08-18T09:40:56.000Z</time>
        <extensions>
          <ns3:TrackPointExtension>
            <ns3:atemp>14.0</ns3:atemp>
          </ns3:TrackPointExtension>
        </extensions>
      </trkpt>
      <trkpt lat="60.05900544114410877227783203125" lon="15.70160287432372570037841796875">
        <ele>145.1999969482421875</ele>
        <time>2018-08-18T09:41:05.000Z</time>
        <extensions>
          <ns3:TrackPointExtension>
            <ns3:atemp>14.0</ns3:atemp>
          </ns3:TrackPointExtension>
        </extensions>
      </trkpt>
      <trkpt lat="60.059402324259281158447265625" lon="15.70139785297214984893798828125">
        <ele>145.8000030517578125</ele>
        <time>2018-08-18T09:41:11.000Z</time>
        <extensions>
          <ns3:TrackPointExtension>
            <ns3:atemp>14.0</ns3:atemp>
          </ns3:TrackPointExtension>
        </extensions>
      </trkpt>
      <trkpt lat="60.05973449908196926116943359375" lon="15.7012712024152278900146484375">
        <ele>146.399993896484375</ele>
        <time>2018-08-18T09:41:16.000Z</time>
        <extensions>
          <ns3:TrackPointExtension>
            <ns3:atemp>14.0</ns3:atemp>
          </ns3:TrackPointExtension>
        </extensions>
      </trkpt>
      <trkpt lat="60.060226432979106903076171875" lon="15.700794272124767303466796875">
        <ele>146.8000030517578125</ele>
        <time>2018-08-18T09:41:25.000Z</time>
        <extensions>
          <ns3:TrackPointExtension>
            <ns3:atemp>14.0</ns3:atemp>
          </ns3:TrackPointExtension>
        </extensions>
      </trkpt>
      <trkpt lat="60.06051435135304927825927734375" lon="15.70067600347101688385009765625">
        <ele>147.1999969482421875</ele>
        <time>2018-08-18T09:41:30.000Z</time>
        <extensions>
          <ns3:TrackPointExtension>
            <ns3:atemp>14.0</ns3:atemp>
          </ns3:TrackPointExtension>
        </extensions>
      </trkpt>
      <trkpt lat="60.06108582951128482818603515625" lon="15.70056200958788394927978515625">
        <ele>148.1999969482421875</ele>
        <time>2018-08-18T09:41:40.000Z</time>
        <extensions>
          <ns3:TrackPointExtension>
            <ns3:atemp>14.0</ns3:atemp>
          </ns3:TrackPointExtension>
        </extensions>
      </trkpt>
      <trkpt lat="60.06114450283348560333251953125" lon="15.70054315030574798583984375">
        <ele>148.1999969482421875</ele>
        <time>2018-08-18T09:41:41.000Z</time>
        <extensions>
          <ns3:TrackPointExtension>
            <ns3:atemp>14.0</ns3:atemp>
          </ns3:TrackPointExtension>
        </extensions>
      </trkpt>
      <trkpt lat="60.06170357577502727508544921875" lon="15.7004910148680210113525390625">
        <ele>149.1999969482421875</ele>
        <time>2018-08-18T09:41:49.000Z</time>
        <extensions>
          <ns3:TrackPointExtension>
            <ns3:atemp>14.0</ns3:atemp>
          </ns3:TrackPointExtension>
        </extensions>
      </trkpt>
      <trkpt lat="60.0622805021703243255615234375" lon="15.7003656215965747833251953125">
        <ele>150</ele>
        <time>2018-08-18T09:41:57.000Z</time>
        <extensions>
          <ns3:TrackPointExtension>
            <ns3:atemp>14.0</ns3:atemp>
          </ns3:TrackPointExtension>
        </extensions>
      </trkpt>
      <trkpt lat="60.06265173666179180145263671875" lon="15.70040526799857616424560546875">
        <ele>150.600006103515625</ele>
        <time>2018-08-18T09:42:02.000Z</time>
        <extensions>
          <ns3:TrackPointExtension>
            <ns3:atemp>14.0</ns3:atemp>
          </ns3:TrackPointExtension>
        </extensions>
      </trkpt>
      <trkpt lat="60.06272382102906703948974609375" lon="15.70038012228906154632568359375">
        <ele>150.8000030517578125</ele>
        <time>2018-08-18T09:42:03.000Z</time>
        <extensions>
          <ns3:TrackPointExtension>
            <ns3:atemp>14.0</ns3:atemp>
          </ns3:TrackPointExtension>
        </extensions>
      </trkpt>
      <trkpt lat="60.062863044440746307373046875" lon="15.70031424053013324737548828125">
        <ele>150.8000030517578125</ele>
        <time>2018-08-18T09:42:05.000Z</time>
        <extensions>
          <ns3:TrackPointExtension>
            <ns3:atemp>14.0</ns3:atemp>
          </ns3:TrackPointExtension>
        </extensions>
      </trkpt>
      <trkpt lat="60.06307988427579402923583984375" lon="15.70022321306169033050537109375">
        <ele>151.399993896484375</ele>
        <time>2018-08-18T09:42:08.000Z</time>
        <extensions>
          <ns3:TrackPointExtension>
            <ns3:atemp>14.0</ns3:atemp>
          </ns3:TrackPointExtension>
        </extensions>
      </trkpt>
      <trkpt lat="60.0632960535585880279541015625" lon="15.7002553157508373260498046875">
        <ele>152</ele>
        <time>2018-08-18T09:42:11.000Z</time>
        <extensions>
          <ns3:TrackPointExtension>
            <ns3:atemp>14.0</ns3:atemp>
          </ns3:TrackPointExtension>
        </extensions>
      </trkpt>
      <trkpt lat="60.0634492747485637664794921875" lon="15.70026847533881664276123046875">
        <ele>152.399993896484375</ele>
        <time>2018-08-18T09:42:13.000Z</time>
        <extensions>
          <ns3:TrackPointExtension>
            <ns3:atemp>14.0</ns3:atemp>
          </ns3:TrackPointExtension>
        </extensions>
      </trkpt>
      <trkpt lat="60.06392394192516803741455078125" lon="15.70008717477321624755859375">
        <ele>153.600006103515625</ele>
        <time>2018-08-18T09:42:19.000Z</time>
        <extensions>
          <ns3:TrackPointExtension>
            <ns3:atemp>14.0</ns3:atemp>
          </ns3:TrackPointExtension>
        </extensions>
      </trkpt>
      <trkpt lat="60.06405520252883434295654296875" lon="15.69993806071579456329345703125">
        <ele>154</ele>
        <time>2018-08-18T09:42:21.000Z</time>
        <extensions>
          <ns3:TrackPointExtension>
            <ns3:atemp>14.0</ns3:atemp>
          </ns3:TrackPointExtension>
        </extensions>
      </trkpt>
      <trkpt lat="60.06427623331546783447265625" lon="15.69939306937158107757568359375">
        <ele>154.8000030517578125</ele>
        <time>2018-08-18T09:42:26.000Z</time>
        <extensions>
          <ns3:TrackPointExtension>
            <ns3:atemp>15.0</ns3:atemp>
          </ns3:TrackPointExtension>
        </extensions>
      </trkpt>
      <trkpt lat="60.0646374933421611785888671875" lon="15.69852051325142383575439453125">
        <ele>155.1999969482421875</ele>
        <time>2018-08-18T09:42:36.000Z</time>
        <extensions>
          <ns3:TrackPointExtension>
            <ns3:atemp>15.0</ns3:atemp>
          </ns3:TrackPointExtension>
        </extensions>
      </trkpt>
      <trkpt lat="60.064992718398571014404296875" lon="15.6976418383419513702392578125">
        <ele>155.1999969482421875</ele>
        <time>2018-08-18T09:42:46.000Z</time>
        <extensions>
          <ns3:TrackPointExtension>
            <ns3:atemp>15.0</ns3:atemp>
          </ns3:TrackPointExtension>
        </extensions>
      </trkpt>
      <trkpt lat="60.0650227256119251251220703125" lon="15.697547458112239837646484375">
        <ele>155.1999969482421875</ele>
        <time>2018-08-18T09:42:47.000Z</time>
        <extensions>
          <ns3:TrackPointExtension>
            <ns3:atemp>15.0</ns3:atemp>
          </ns3:TrackPointExtension>
        </extensions>
      </trkpt>
      <trkpt lat="60.065380297601222991943359375" lon="15.69668370299041271209716796875">
        <ele>155.1999969482421875</ele>
        <time>2018-08-18T09:42:57.000Z</time>
        <extensions>
          <ns3:TrackPointExtension>
            <ns3:atemp>15.0</ns3:atemp>
          </ns3:TrackPointExtension>
        </extensions>
      </trkpt>
      <trkpt lat="60.0654542259871959686279296875" lon="15.6965186633169651031494140625">
        <ele>155.1999969482421875</ele>
        <time>2018-08-18T09:42:59.000Z</time>
        <extensions>
          <ns3:TrackPointExtension>
            <ns3:atemp>15.0</ns3:atemp>
          </ns3:TrackPointExtension>
        </extensions>
      </trkpt>
      <trkpt lat="60.06563100032508373260498046875" lon="15.69611306302249431610107421875">
        <ele>155.1999969482421875</ele>
        <time>2018-08-18T09:43:04.000Z</time>
        <extensions>
          <ns3:TrackPointExtension>
            <ns3:atemp>15.0</ns3:atemp>
          </ns3:TrackPointExtension>
        </extensions>
      </trkpt>
      <trkpt lat="60.06571129895746707916259765625" lon="15.695750378072261810302734375">
        <ele>155</ele>
        <time>2018-08-18T09:43:08.000Z</time>
        <extensions>
          <ns3:TrackPointExtension>
            <ns3:atemp>15.0</ns3:atemp>
          </ns3:TrackPointExtension>
        </extensions>
      </trkpt>
      <trkpt lat="60.06571901030838489532470703125" lon="15.6956533156335353851318359375">
        <ele>155</ele>
        <time>2018-08-18T09:43:09.000Z</time>
        <extensions>
          <ns3:TrackPointExtension>
            <ns3:atemp>15.0</ns3:atemp>
          </ns3:TrackPointExtension>
        </extensions>
      </trkpt>
      <trkpt lat="60.06572370417416095733642578125" lon="15.69555181078612804412841796875">
        <ele>154.8000030517578125</ele>
        <time>2018-08-18T09:43:10.000Z</time>
        <extensions>
          <ns3:TrackPointExtension>
            <ns3:atemp>15.0</ns3:atemp>
          </ns3:TrackPointExtension>
        </extensions>
      </trkpt>
      <trkpt lat="60.06566436029970645904541015625" lon="15.69444104097783565521240234375">
        <ele>153.8000030517578125</ele>
        <time>2018-08-18T09:43:19.000Z</time>
        <extensions>
          <ns3:TrackPointExtension>
            <ns3:atemp>15.0</ns3:atemp>
          </ns3:TrackPointExtension>
        </extensions>
      </trkpt>
      <trkpt lat="60.06540812551975250244140625" lon="15.69338860921561717987060546875">
        <ele>152.8000030517578125</ele>
        <time>2018-08-18T09:43:26.000Z</time>
        <extensions>
          <ns3:TrackPointExtension>
            <ns3:atemp>15.0</ns3:atemp>
          </ns3:TrackPointExtension>
        </extensions>
      </trkpt>
      <trkpt lat="60.065362863242626190185546875" lon="15.69311074912548065185546875">
        <ele>152.600006103515625</ele>
        <time>2018-08-18T09:43:28.000Z</time>
        <extensions>
          <ns3:TrackPointExtension>
            <ns3:atemp>15.0</ns3:atemp>
          </ns3:TrackPointExtension>
        </extensions>
      </trkpt>
      <trkpt lat="60.06530578248202800750732421875" lon="15.6927273608744144439697265625">
        <ele>152.1999969482421875</ele>
        <time>2018-08-18T09:43:31.000Z</time>
        <extensions>
          <ns3:TrackPointExtension>
            <ns3:atemp>15.0</ns3:atemp>
          </ns3:TrackPointExtension>
        </extensions>
      </trkpt>
      <trkpt lat="60.06513009779155254364013671875" lon="15.6917393021285533905029296875">
        <ele>151.600006103515625</ele>
        <time>2018-08-18T09:43:39.000Z</time>
        <extensions>
          <ns3:TrackPointExtension>
            <ns3:atemp>15.0</ns3:atemp>
          </ns3:TrackPointExtension>
        </extensions>
      </trkpt>
      <trkpt lat="60.065199919044971466064453125" lon="15.6911532394587993621826171875">
        <ele>151.8000030517578125</ele>
        <time>2018-08-18T09:43:43.000Z</time>
        <extensions>
          <ns3:TrackPointExtension>
            <ns3:atemp>15.0</ns3:atemp>
          </ns3:TrackPointExtension>
        </extensions>
      </trkpt>
      <trkpt lat="60.06536252796649932861328125" lon="15.69058938883244991302490234375">
        <ele>152.1999969482421875</ele>
        <time>2018-08-18T09:43:47.000Z</time>
        <extensions>
          <ns3:TrackPointExtension>
            <ns3:atemp>15.0</ns3:atemp>
          </ns3:TrackPointExtension>
        </extensions>
      </trkpt>
      <trkpt lat="60.06547509692609310150146484375" lon="15.69012947380542755126953125">
        <ele>152.399993896484375</ele>
        <time>2018-08-18T09:43:50.000Z</time>
        <extensions>
          <ns3:TrackPointExtension>
            <ns3:atemp>15.0</ns3:atemp>
          </ns3:TrackPointExtension>
        </extensions>
      </trkpt>
      <trkpt lat="60.0655350275337696075439453125" lon="15.68963100202381610870361328125">
        <ele>152.399993896484375</ele>
        <time>2018-08-18T09:43:53.000Z</time>
        <extensions>
          <ns3:TrackPointExtension>
            <ns3:atemp>15.0</ns3:atemp>
          </ns3:TrackPointExtension>
        </extensions>
      </trkpt>
      <trkpt lat="60.06554617546498775482177734375" lon="15.6894651241600513458251953125">
        <ele>152.399993896484375</ele>
        <time>2018-08-18T09:43:54.000Z</time>
        <extensions>
          <ns3:TrackPointExtension>
            <ns3:atemp>15.0</ns3:atemp>
          </ns3:TrackPointExtension>
        </extensions>
      </trkpt>
      <trkpt lat="60.0655750930309295654296875" lon="15.68914518691599369049072265625">
        <ele>152.1999969482421875</ele>
        <time>2018-08-18T09:43:56.000Z</time>
        <extensions>
          <ns3:TrackPointExtension>
            <ns3:atemp>15.0</ns3:atemp>
          </ns3:TrackPointExtension>
        </extensions>
      </trkpt>
      <trkpt lat="60.06567223928868770599365234375" lon="15.68855610676109790802001953125">
        <ele>152.399993896484375</ele>
        <time>2018-08-18T09:44:00.000Z</time>
        <extensions>
          <ns3:TrackPointExtension>
            <ns3:atemp>15.0</ns3:atemp>
          </ns3:TrackPointExtension>
        </extensions>
      </trkpt>
      <trkpt lat="60.0658723153173923492431640625" lon="15.68744969554245471954345703125">
        <ele>152.600006103515625</ele>
        <time>2018-08-18T09:44:08.000Z</time>
        <extensions>
          <ns3:TrackPointExtension>
            <ns3:atemp>15.0</ns3:atemp>
          </ns3:TrackPointExtension>
        </extensions>
      </trkpt>
      <trkpt lat="60.06607758812606334686279296875" lon="15.686349235475063323974609375">
        <ele>153</ele>
        <time>2018-08-18T09:44:16.000Z</time>
        <extensions>
          <ns3:TrackPointExtension>
            <ns3:atemp>15.0</ns3:atemp>
          </ns3:TrackPointExtension>
        </extensions>
      </trkpt>
      <trkpt lat="60.0661345012485980987548828125" lon="15.6859457306563854217529296875">
        <ele>153.1999969482421875</ele>
        <time>2018-08-18T09:44:19.000Z</time>
        <extensions>
          <ns3:TrackPointExtension>
            <ns3:atemp>15.0</ns3:atemp>
          </ns3:TrackPointExtension>
        </extensions>
      </trkpt>
      <trkpt lat="60.06612025201320648193359375" lon="15.6848461925983428955078125">
        <ele>153.1999969482421875</ele>
        <time>2018-08-18T09:44:26.000Z</time>
        <extensions>
          <ns3:TrackPointExtension>
            <ns3:atemp>15.0</ns3:atemp>
          </ns3:TrackPointExtension>
        </extensions>
      </trkpt>
      <trkpt lat="60.0661345012485980987548828125" lon="15.6843674182891845703125">
        <ele>153.1999969482421875</ele>
        <time>2018-08-18T09:44:29.000Z</time>
        <extensions>
          <ns3:TrackPointExtension>
            <ns3:atemp>15.0</ns3:atemp>
          </ns3:TrackPointExtension>
        </extensions>
      </trkpt>
      <trkpt lat="60.0661673583090305328369140625" lon="15.68404731340706348419189453125">
        <ele>153.399993896484375</ele>
        <time>2018-08-18T09:44:31.000Z</time>
        <extensions>
          <ns3:TrackPointExtension>
            <ns3:atemp>15.0</ns3:atemp>
          </ns3:TrackPointExtension>
        </extensions>
      </trkpt>
      <trkpt lat="60.06618638522922992706298828125" lon="15.68388503976166248321533203125">
        <ele>153.399993896484375</ele>
        <time>2018-08-18T09:44:32.000Z</time>
        <extensions>
          <ns3:TrackPointExtension>
            <ns3:atemp>15.0</ns3:atemp>
          </ns3:TrackPointExtension>
        </extensions>
      </trkpt>
      <trkpt lat="60.06622863002121448516845703125" lon="15.68302069790661334991455078125">
        <ele>153.600006103515625</ele>
        <time>2018-08-18T09:44:37.000Z</time>
        <extensions>
          <ns3:TrackPointExtension>
            <ns3:atemp>15.0</ns3:atemp>
          </ns3:TrackPointExtension>
        </extensions>
      </trkpt>
      <trkpt lat="60.0662320666015148162841796875" lon="15.682537816464900970458984375">
        <ele>153.600006103515625</ele>
        <time>2018-08-18T09:44:40.000Z</time>
        <extensions>
          <ns3:TrackPointExtension>
            <ns3:atemp>15.0</ns3:atemp>
          </ns3:TrackPointExtension>
        </extensions>
      </trkpt>
      <trkpt lat="60.06628361530601978302001953125" lon="15.68209935910999774932861328125">
        <ele>153.1999969482421875</ele>
        <time>2018-08-18T09:44:43.000Z</time>
        <extensions>
          <ns3:TrackPointExtension>
            <ns3:atemp>15.0</ns3:atemp>
          </ns3:TrackPointExtension>
        </extensions>
      </trkpt>
      <trkpt lat="60.0663081742823123931884765625" lon="15.68195720203220844268798828125">
        <ele>153</ele>
        <time>2018-08-18T09:44:44.000Z</time>
        <extensions>
          <ns3:TrackPointExtension>
            <ns3:atemp>15.0</ns3:atemp>
          </ns3:TrackPointExtension>
        </extensions>
      </trkpt>
      <trkpt lat="60.06636911071836948394775390625" lon="15.68152670748531818389892578125">
        <ele>152.600006103515625</ele>
        <time>2018-08-18T09:44:47.000Z</time>
        <extensions>
          <ns3:TrackPointExtension>
            <ns3:atemp>15.0</ns3:atemp>
          </ns3:TrackPointExtension>
        </extensions>
      </trkpt>
      <trkpt lat="60.06635092198848724365234375" lon="15.680440329015254974365234375">
        <ele>150.399993896484375</ele>
        <time>2018-08-18T09:44:54.000Z</time>
        <extensions>
          <ns3:TrackPointExtension>
            <ns3:atemp>15.0</ns3:atemp>
          </ns3:TrackPointExtension>
        </extensions>
      </trkpt>
      <trkpt lat="60.0663006305694580078125" lon="15.68009792827069759368896484375">
        <ele>149.600006103515625</ele>
        <time>2018-08-18T09:44:56.000Z</time>
        <extensions>
          <ns3:TrackPointExtension>
            <ns3:atemp>15.0</ns3:atemp>
          </ns3:TrackPointExtension>
        </extensions>
      </trkpt>
      <trkpt lat="60.06622360087931156158447265625" lon="15.67976332269608974456787109375">
        <ele>148.8000030517578125</ele>
        <time>2018-08-18T09:44:58.000Z</time>
        <extensions>
          <ns3:TrackPointExtension>
            <ns3:atemp>15.0</ns3:atemp>
          </ns3:TrackPointExtension>
        </extensions>
      </trkpt>
      <trkpt lat="60.06612159311771392822265625" lon="15.67947498522698879241943359375">
        <ele>147.8000030517578125</ele>
        <time>2018-08-18T09:45:00.000Z</time>
        <extensions>
          <ns3:TrackPointExtension>
            <ns3:atemp>15.0</ns3:atemp>
          </ns3:TrackPointExtension>
        </extensions>
      </trkpt>
      <trkpt lat="60.065966360270977020263671875" lon="15.67904130555689334869384765625">
        <ele>146.399993896484375</ele>
        <time>2018-08-18T09:45:03.000Z</time>
        <extensions>
          <ns3:TrackPointExtension>
            <ns3:atemp>15.0</ns3:atemp>
          </ns3:TrackPointExtension>
        </extensions>
      </trkpt>
      <trkpt lat="60.06586234085261821746826171875" lon="15.67856973968446254730224609375">
        <ele>145.1999969482421875</ele>
        <time>2018-08-18T09:45:06.000Z</time>
        <extensions>
          <ns3:TrackPointExtension>
            <ns3:atemp>15.0</ns3:atemp>
          </ns3:TrackPointExtension>
        </extensions>
      </trkpt>
      <trkpt lat="60.0658287294209003448486328125" lon="15.67843579687178134918212890625">
        <ele>144.8000030517578125</ele>
        <time>2018-08-18T09:45:07.000Z</time>
        <extensions>
          <ns3:TrackPointExtension>
            <ns3:atemp>15.0</ns3:atemp>
          </ns3:TrackPointExtension>
        </extensions>
      </trkpt>
      <trkpt lat="60.0656902603805065155029296875" lon="15.67810085602104663848876953125">
        <ele>143.600006103515625</ele>
        <time>2018-08-18T09:45:10.000Z</time>
        <extensions>
          <ns3:TrackPointExtension>
            <ns3:atemp>15.0</ns3:atemp>
          </ns3:TrackPointExtension>
        </extensions>
      </trkpt>
      <trkpt lat="60.06550409831106662750244140625" lon="15.67784939892590045928955078125">
        <ele>142.1999969482421875</ele>
        <time>2018-08-18T09:45:13.000Z</time>
        <extensions>
          <ns3:TrackPointExtension>
            <ns3:atemp>15.0</ns3:atemp>
          </ns3:TrackPointExtension>
        </extensions>
      </trkpt>
      <trkpt lat="60.06509724073112010955810546875" lon="15.67728898487985134124755859375">
        <ele>139.399993896484375</ele>
        <time>2018-08-18T09:45:19.000Z</time>
        <extensions>
          <ns3:TrackPointExtension>
            <ns3:atemp>15.0</ns3:atemp>
          </ns3:TrackPointExtension>
        </extensions>
      </trkpt>
      <trkpt lat="60.06498157046735286712646484375" lon="15.67690526135265827178955078125">
        <ele>137.8000030517578125</ele>
        <time>2018-08-18T09:45:22.000Z</time>
        <extensions>
          <ns3:TrackPointExtension>
            <ns3:atemp>15.0</ns3:atemp>
          </ns3:TrackPointExtension>
        </extensions>
      </trkpt>
      <trkpt lat="60.064965896308422088623046875" lon="15.67647392861545085906982421875">
        <ele>136.1999969482421875</ele>
        <time>2018-08-18T09:45:25.000Z</time>
        <extensions>
          <ns3:TrackPointExtension>
            <ns3:atemp>15.0</ns3:atemp>
          </ns3:TrackPointExtension>
        </extensions>
      </trkpt>
      <trkpt lat="60.06497134454548358917236328125" lon="15.67633353173732757568359375">
        <ele>135.8000030517578125</ele>
        <time>2018-08-18T09:45:26.000Z</time>
        <extensions>
          <ns3:TrackPointExtension>
            <ns3:atemp>15.0</ns3:atemp>
          </ns3:TrackPointExtension>
        </extensions>
      </trkpt>
      <trkpt lat="60.06503052078187465667724609375" lon="15.67564780823886394500732421875">
        <ele>133.600006103515625</ele>
        <time>2018-08-18T09:45:31.000Z</time>
        <extensions>
          <ns3:TrackPointExtension>
            <ns3:atemp>15.0</ns3:atemp>
          </ns3:TrackPointExtension>
        </extensions>
      </trkpt>
      <trkpt lat="60.06528164260089397430419921875" lon="15.6746304966509342193603515625">
        <ele>130.8000030517578125</ele>
        <time>2018-08-18T09:45:39.000Z</time>
        <extensions>
          <ns3:TrackPointExtension>
            <ns3:atemp>15.0</ns3:atemp>
          </ns3:TrackPointExtension>
        </extensions>
      </trkpt>
      <trkpt lat="60.06541944108903408050537109375" lon="15.67349600605666637420654296875">
        <ele>128.399993896484375</ele>
        <time>2018-08-18T09:45:47.000Z</time>
        <extensions>
          <ns3:TrackPointExtension>
            <ns3:atemp>15.0</ns3:atemp>
          </ns3:TrackPointExtension>
        </extensions>
      </trkpt>
      <trkpt lat="60.0656161643564701080322265625" lon="15.6724488548934459686279296875">
        <ele>127.40000152587890625</ele>
        <time>2018-08-18T09:45:55.000Z</time>
        <extensions>
          <ns3:TrackPointExtension>
            <ns3:atemp>15.0</ns3:atemp>
          </ns3:TrackPointExtension>
        </extensions>
      </trkpt>
      <trkpt lat="60.0659403763711452484130859375" lon="15.67154067568480968475341796875">
        <ele>126.8000030517578125</ele>
        <time>2018-08-18T09:46:08.000Z</time>
        <extensions>
          <ns3:TrackPointExtension>
            <ns3:atemp>15.0</ns3:atemp>
          </ns3:TrackPointExtension>
        </extensions>
      </trkpt>
      <trkpt lat="60.065963007509708404541015625" lon="15.6714698486030101776123046875">
        <ele>126.59999847412109375</ele>
        <time>2018-08-18T09:46:09.000Z</time>
        <extensions>
          <ns3:TrackPointExtension>
            <ns3:atemp>15.0</ns3:atemp>
          </ns3:TrackPointExtension>
        </extensions>
      </trkpt>
      <trkpt lat="60.06604473106563091278076171875" lon="15.67116315476596355438232421875">
        <ele>126.40000152587890625</ele>
        <time>2018-08-18T09:46:13.000Z</time>
        <extensions>
          <ns3:TrackPointExtension>
            <ns3:atemp>15.0</ns3:atemp>
          </ns3:TrackPointExtension>
        </extensions>
      </trkpt>
      <trkpt lat="60.06611396558582782745361328125" lon="15.670797787606716156005859375">
        <ele>126</ele>
        <time>2018-08-18T09:46:17.000Z</time>
        <extensions>
          <ns3:TrackPointExtension>
            <ns3:atemp>15.0</ns3:atemp>
          </ns3:TrackPointExtension>
        </extensions>
      </trkpt>
      <trkpt lat="60.06615889258682727813720703125" lon="15.67050567828118801116943359375">
        <ele>125.59999847412109375</ele>
        <time>2018-08-18T09:46:20.000Z</time>
        <extensions>
          <ns3:TrackPointExtension>
            <ns3:atemp>15.0</ns3:atemp>
          </ns3:TrackPointExtension>
        </extensions>
      </trkpt>
      <trkpt lat="60.0663728825747966766357421875" lon="15.6704668700695037841796875">
        <ele>126.1999969482421875</ele>
        <time>2018-08-18T09:46:26.000Z</time>
        <extensions>
          <ns3:TrackPointExtension>
            <ns3:atemp>15.0</ns3:atemp>
          </ns3:TrackPointExtension>
        </extensions>
      </trkpt>
      <trkpt lat="60.066657364368438720703125" lon="15.6707775034010410308837890625">
        <ele>127.40000152587890625</ele>
        <time>2018-08-18T09:46:34.000Z</time>
        <extensions>
          <ns3:TrackPointExtension>
            <ns3:atemp>15.0</ns3:atemp>
          </ns3:TrackPointExtension>
        </extensions>
      </trkpt>
      <trkpt lat="60.06686724722385406494140625" lon="15.67102083005011081695556640625">
        <ele>128.1999969482421875</ele>
        <time>2018-08-18T09:46:39.000Z</time>
        <extensions>
          <ns3:TrackPointExtension>
            <ns3:atemp>15.0</ns3:atemp>
          </ns3:TrackPointExtension>
        </extensions>
      </trkpt>
      <trkpt lat="60.06695953197777271270751953125" lon="15.67108537070453166961669921875">
        <ele>128.600006103515625</ele>
        <time>2018-08-18T09:46:41.000Z</time>
        <extensions>
          <ns3:TrackPointExtension>
            <ns3:atemp>15.0</ns3:atemp>
          </ns3:TrackPointExtension>
        </extensions>
      </trkpt>
      <trkpt lat="60.06718785502016544342041015625" lon="15.671128369867801666259765625">
        <ele>129.1999969482421875</ele>
        <time>2018-08-18T09:46:45.000Z</time>
        <extensions>
          <ns3:TrackPointExtension>
            <ns3:atemp>15.0</ns3:atemp>
          </ns3:TrackPointExtension>
        </extensions>
      </trkpt>
      <trkpt lat="60.06776855327188968658447265625" lon="15.671100877225399017333984375">
        <ele>130</ele>
        <time>2018-08-18T09:46:55.000Z</time>
        <extensions>
          <ns3:TrackPointExtension>
            <ns3:atemp>15.0</ns3:atemp>
          </ns3:TrackPointExtension>
        </extensions>
      </trkpt>
      <trkpt lat="60.0683412887156009674072265625" lon="15.67141561768949031829833984375">
        <ele>131.600006103515625</ele>
        <time>2018-08-18T09:47:05.000Z</time>
        <extensions>
          <ns3:TrackPointExtension>
            <ns3:atemp>15.0</ns3:atemp>
          </ns3:TrackPointExtension>
        </extensions>
      </trkpt>
      <trkpt lat="60.06887898780405521392822265625" lon="15.67191819660365581512451171875">
        <ele>133.8000030517578125</ele>
        <time>2018-08-18T09:47:13.000Z</time>
        <extensions>
          <ns3:TrackPointExtension>
            <ns3:atemp>15.0</ns3:atemp>
          </ns3:TrackPointExtension>
        </extensions>
      </trkpt>
      <trkpt lat="60.0692314468324184417724609375" lon="15.67222438752651214599609375">
        <ele>135</ele>
        <time>2018-08-18T09:47:18.000Z</time>
        <extensions>
          <ns3:TrackPointExtension>
            <ns3:atemp>15.0</ns3:atemp>
          </ns3:TrackPointExtension>
        </extensions>
      </trkpt>
      <trkpt lat="60.06947041489183902740478515625" lon="15.67249822430312633514404296875">
        <ele>136.1999969482421875</ele>
        <time>2018-08-18T09:47:22.000Z</time>
        <extensions>
          <ns3:TrackPointExtension>
            <ns3:atemp>15.0</ns3:atemp>
          </ns3:TrackPointExtension>
        </extensions>
      </trkpt>
      <trkpt lat="60.06969630718231201171875" lon="15.6728193350136280059814453125">
        <ele>137.1999969482421875</ele>
        <time>2018-08-18T09:47:26.000Z</time>
        <extensions>
          <ns3:TrackPointExtension>
            <ns3:atemp>15.0</ns3:atemp>
          </ns3:TrackPointExtension>
        </extensions>
      </trkpt>
      <trkpt lat="60.06992722861468791961669921875" lon="15.67327958531677722930908203125">
        <ele>138.8000030517578125</ele>
        <time>2018-08-18T09:47:31.000Z</time>
        <extensions>
          <ns3:TrackPointExtension>
            <ns3:atemp>15.0</ns3:atemp>
          </ns3:TrackPointExtension>
        </extensions>
      </trkpt>
      <trkpt lat="60.07021003402769565582275390625" lon="15.67377193830907344818115234375">
        <ele>140.600006103515625</ele>
        <time>2018-08-18T09:47:37.000Z</time>
        <extensions>
          <ns3:TrackPointExtension>
            <ns3:atemp>15.0</ns3:atemp>
          </ns3:TrackPointExtension>
        </extensions>
      </trkpt>
      <trkpt lat="60.07036543451249599456787109375" lon="15.67392650060355663299560546875">
        <ele>141.1999969482421875</ele>
        <time>2018-08-18T09:47:40.000Z</time>
        <extensions>
          <ns3:TrackPointExtension>
            <ns3:atemp>15.0</ns3:atemp>
          </ns3:TrackPointExtension>
        </extensions>
      </trkpt>
      <trkpt lat="60.07055285386741161346435546875" lon="15.6740073859691619873046875">
        <ele>141.600006103515625</ele>
        <time>2018-08-18T09:47:43.000Z</time>
        <extensions>
          <ns3:TrackPointExtension>
            <ns3:atemp>15.0</ns3:atemp>
          </ns3:TrackPointExtension>
        </extensions>
      </trkpt>
      <trkpt lat="60.07111879996955394744873046875" lon="15.67420662380754947662353515625">
        <ele>143.1999969482421875</ele>
        <time>2018-08-18T09:47:52.000Z</time>
        <extensions>
          <ns3:TrackPointExtension>
            <ns3:atemp>15.0</ns3:atemp>
          </ns3:TrackPointExtension>
        </extensions>
      </trkpt>
      <trkpt lat="60.07170461118221282958984375" lon="15.6743726693093776702880859375">
        <ele>144.8000030517578125</ele>
        <time>2018-08-18T09:48:01.000Z</time>
        <extensions>
          <ns3:TrackPointExtension>
            <ns3:atemp>15.0</ns3:atemp>
          </ns3:TrackPointExtension>
        </extensions>
      </trkpt>
      <trkpt lat="60.071765296161174774169921875" lon="15.67437392659485340118408203125">
        <ele>144.8000030517578125</ele>
        <time>2018-08-18T09:48:02.000Z</time>
        <extensions>
          <ns3:TrackPointExtension>
            <ns3:atemp>15.0</ns3:atemp>
          </ns3:TrackPointExtension>
        </extensions>
      </trkpt>
      <trkpt lat="60.072036199271678924560546875" lon="15.67432313226163387298583984375">
        <ele>145.1999969482421875</ele>
        <time>2018-08-18T09:48:06.000Z</time>
        <extensions>
          <ns3:TrackPointExtension>
            <ns3:atemp>15.0</ns3:atemp>
          </ns3:TrackPointExtension>
        </extensions>
      </trkpt>
      <trkpt lat="60.07260373793542385101318359375" lon="15.67390202544629573822021484375">
        <ele>144.8000030517578125</ele>
        <time>2018-08-18T09:48:15.000Z</time>
        <extensions>
          <ns3:TrackPointExtension>
            <ns3:atemp>15.0</ns3:atemp>
          </ns3:TrackPointExtension>
        </extensions>
      </trkpt>
      <trkpt lat="60.07310329936444759368896484375" lon="15.6734905578196048736572265625">
        <ele>144.600006103515625</ele>
        <time>2018-08-18T09:48:23.000Z</time>
        <extensions>
          <ns3:TrackPointExtension>
            <ns3:atemp>15.0</ns3:atemp>
          </ns3:TrackPointExtension>
        </extensions>
      </trkpt>
      <trkpt lat="60.07323078811168670654296875" lon="15.67341436631977558135986328125">
        <ele>144.600006103515625</ele>
        <time>2018-08-18T09:48:25.000Z</time>
        <extensions>
          <ns3:TrackPointExtension>
            <ns3:atemp>15.0</ns3:atemp>
          </ns3:TrackPointExtension>
        </extensions>
      </trkpt>
      <trkpt lat="60.07348065264523029327392578125" lon="15.67337103188037872314453125">
        <ele>145</ele>
        <time>2018-08-18T09:48:29.000Z</time>
        <extensions>
          <ns3:TrackPointExtension>
            <ns3:atemp>15.0</ns3:atemp>
          </ns3:TrackPointExtension>
        </extensions>
      </trkpt>
      <trkpt lat="60.07403838448226451873779296875" lon="15.67340279929339885711669921875">
        <ele>146</ele>
        <time>2018-08-18T09:48:38.000Z</time>
        <extensions>
          <ns3:TrackPointExtension>
            <ns3:atemp>15.0</ns3:atemp>
          </ns3:TrackPointExtension>
        </extensions>
      </trkpt>
      <trkpt lat="60.0746008940041065216064453125" lon="15.673433728516101837158203125">
        <ele>147</ele>
        <time>2018-08-18T09:48:47.000Z</time>
        <extensions>
          <ns3:TrackPointExtension>
            <ns3:atemp>15.0</ns3:atemp>
          </ns3:TrackPointExtension>
        </extensions>
      </trkpt>
      <trkpt lat="60.074658729135990142822265625" lon="15.673433728516101837158203125">
        <ele>147.1999969482421875</ele>
        <time>2018-08-18T09:48:48.000Z</time>
        <extensions>
          <ns3:TrackPointExtension>
            <ns3:atemp>15.0</ns3:atemp>
          </ns3:TrackPointExtension>
        </extensions>
      </trkpt>
      <trkpt lat="60.07515971548855304718017578125" lon="15.67344035021960735321044921875">
        <ele>148</ele>
        <time>2018-08-18T09:48:59.000Z</time>
        <extensions>
          <ns3:TrackPointExtension>
            <ns3:atemp>15.0</ns3:atemp>
          </ns3:TrackPointExtension>
        </extensions>
      </trkpt>
      <trkpt lat="60.075429864227771759033203125" lon="15.67343808710575103759765625">
        <ele>148.399993896484375</ele>
        <time>2018-08-18T09:49:06.000Z</time>
        <extensions>
          <ns3:TrackPointExtension>
            <ns3:atemp>15.0</ns3:atemp>
          </ns3:TrackPointExtension>
        </extensions>
      </trkpt>
      <trkpt lat="60.075565986335277557373046875" lon="15.67342241294682025909423828125">
        <ele>148.600006103515625</ele>
        <time>2018-08-18T09:49:10.000Z</time>
        <extensions>
          <ns3:TrackPointExtension>
            <ns3:atemp>15.0</ns3:atemp>
          </ns3:TrackPointExtension>
        </extensions>
      </trkpt>
      <trkpt lat="60.0758290104568004608154296875" lon="15.67339793778955936431884765625">
        <ele>149</ele>
        <time>2018-08-18T09:49:18.000Z</time>
        <extensions>
          <ns3:TrackPointExtension>
            <ns3:atemp>15.0</ns3:atemp>
          </ns3:TrackPointExtension>
        </extensions>
      </trkpt>
      <trkpt lat="60.07599472068250179290771484375" lon="15.67339056171476840972900390625">
        <ele>149.1999969482421875</ele>
        <time>2018-08-18T09:49:24.000Z</time>
        <extensions>
          <ns3:TrackPointExtension>
            <ns3:atemp>15.0</ns3:atemp>
          </ns3:TrackPointExtension>
        </extensions>
      </trkpt>
      <trkpt lat="60.07613603956997394561767578125" lon="15.67339223809540271759033203125">
        <ele>149.600006103515625</ele>
        <time>2018-08-18T09:49:29.000Z</time>
        <extensions>
          <ns3:TrackPointExtension>
            <ns3:atemp>15.0</ns3:atemp>
          </ns3:TrackPointExtension>
        </extensions>
      </trkpt>
      <trkpt lat="60.07631457410752773284912109375" lon="15.6733926571905612945556640625">
        <ele>149.8000030517578125</ele>
        <time>2018-08-18T09:49:35.000Z</time>
        <extensions>
          <ns3:TrackPointExtension>
            <ns3:atemp>15.0</ns3:atemp>
          </ns3:TrackPointExtension>
        </extensions>
      </trkpt>
      <trkpt lat="60.07643762044608592987060546875" lon="15.67339290864765644073486328125">
        <ele>150</ele>
        <time>2018-08-18T09:49:39.000Z</time>
        <extensions>
          <ns3:TrackPointExtension>
            <ns3:atemp>15.0</ns3:atemp>
          </ns3:TrackPointExtension>
        </extensions>
      </trkpt>
      <trkpt lat="60.07657005451619625091552734375" lon="15.673396177589893341064453125">
        <ele>150.1999969482421875</ele>
        <time>2018-08-18T09:49:43.000Z</time>
        <extensions>
          <ns3:TrackPointExtension>
            <ns3:atemp>15.0</ns3:atemp>
          </ns3:TrackPointExtension>
        </extensions>
      </trkpt>
      <trkpt lat="60.0767091102898120880126953125" lon="15.67340732552111148834228515625">
        <ele>150.600006103515625</ele>
        <time>2018-08-18T09:49:47.000Z</time>
        <extensions>
          <ns3:TrackPointExtension>
            <ns3:atemp>15.0</ns3:atemp>
          </ns3:TrackPointExtension>
        </extensions>
      </trkpt>
      <trkpt lat="60.07690734229981899261474609375" lon="15.67339248955249786376953125">
        <ele>150.8000030517578125</ele>
        <time>2018-08-18T09:49:53.000Z</time>
        <extensions>
          <ns3:TrackPointExtension>
            <ns3:atemp>15.0</ns3:atemp>
          </ns3:TrackPointExtension>
        </extensions>
      </trkpt>
      <trkpt lat="60.07712778635323047637939453125" lon="15.6733913160860538482666015625">
        <ele>151.1999969482421875</ele>
        <time>2018-08-18T09:49:59.000Z</time>
        <extensions>
          <ns3:TrackPointExtension>
            <ns3:atemp>15.0</ns3:atemp>
          </ns3:TrackPointExtension>
        </extensions>
      </trkpt>
      <trkpt lat="60.077412687242031097412109375" lon="15.67337480373680591583251953125">
        <ele>151.600006103515625</ele>
        <time>2018-08-18T09:50:08.000Z</time>
        <extensions>
          <ns3:TrackPointExtension>
            <ns3:atemp>14.0</ns3:atemp>
          </ns3:TrackPointExtension>
        </extensions>
      </trkpt>
      <trkpt lat="60.0776314549148082733154296875" lon="15.6733903102576732635498046875">
        <ele>152</ele>
        <time>2018-08-18T09:50:18.000Z</time>
        <extensions>
          <ns3:TrackPointExtension>
            <ns3:atemp>14.0</ns3:atemp>
          </ns3:TrackPointExtension>
        </extensions>
      </trkpt>
      <trkpt lat="60.0780901126563549041748046875" lon="15.6733809225261211395263671875">
        <ele>152.8000030517578125</ele>
        <time>2018-08-18T09:50:33.000Z</time>
        <extensions>
          <ns3:TrackPointExtension>
            <ns3:atemp>14.0</ns3:atemp>
          </ns3:TrackPointExtension>
        </extensions>
      </trkpt>
      <trkpt lat="60.07863535545766353607177734375" lon="15.67331948317587375640869140625">
        <ele>153.399993896484375</ele>
        <time>2018-08-18T09:50:44.000Z</time>
        <extensions>
          <ns3:TrackPointExtension>
            <ns3:atemp>14.0</ns3:atemp>
          </ns3:TrackPointExtension>
        </extensions>
      </trkpt>
      <trkpt lat="60.07911144755780696868896484375" lon="15.67332015372812747955322265625">
        <ele>153.8000030517578125</ele>
        <time>2018-08-18T09:50:52.000Z</time>
        <extensions>
          <ns3:TrackPointExtension>
            <ns3:atemp>14.0</ns3:atemp>
          </ns3:TrackPointExtension>
        </extensions>
      </trkpt>
      <trkpt lat="60.0794421136379241943359375" lon="15.67332367412745952606201171875">
        <ele>154.1999969482421875</ele>
        <time>2018-08-18T09:50:57.000Z</time>
        <extensions>
          <ns3:TrackPointExtension>
            <ns3:atemp>14.0</ns3:atemp>
          </ns3:TrackPointExtension>
        </extensions>
      </trkpt>
      <trkpt lat="60.08003379218280315399169921875" lon="15.6732987798750400543212890625">
        <ele>154.8000030517578125</ele>
        <time>2018-08-18T09:51:06.000Z</time>
        <extensions>
          <ns3:TrackPointExtension>
            <ns3:atemp>14.0</ns3:atemp>
          </ns3:TrackPointExtension>
        </extensions>
      </trkpt>
      <trkpt lat="60.08052614517509937286376953125" lon="15.673278830945491790771484375">
        <ele>155.1999969482421875</ele>
        <time>2018-08-18T09:51:14.000Z</time>
        <extensions>
          <ns3:TrackPointExtension>
            <ns3:atemp>14.0</ns3:atemp>
          </ns3:TrackPointExtension>
        </extensions>
      </trkpt>
      <trkpt lat="60.08078715763986110687255859375" lon="15.67330590449273586273193359375">
        <ele>155.399993896484375</ele>
        <time>2018-08-18T09:51:18.000Z</time>
        <extensions>
          <ns3:TrackPointExtension>
            <ns3:atemp>14.0</ns3:atemp>
          </ns3:TrackPointExtension>
        </extensions>
      </trkpt>
      <trkpt lat="60.08091003634035587310791015625" lon="15.67332702688872814178466796875">
        <ele>155.600006103515625</ele>
        <time>2018-08-18T09:51:20.000Z</time>
        <extensions>
          <ns3:TrackPointExtension>
            <ns3:atemp>14.0</ns3:atemp>
          </ns3:TrackPointExtension>
        </extensions>
      </trkpt>
      <trkpt lat="60.08147933520376682281494140625" lon="15.6733473949134349822998046875">
        <ele>156.1999969482421875</ele>
        <time>2018-08-18T09:51:29.000Z</time>
        <extensions>
          <ns3:TrackPointExtension>
            <ns3:atemp>14.0</ns3:atemp>
          </ns3:TrackPointExtension>
        </extensions>
      </trkpt>
      <trkpt lat="60.082032121717929840087890625" lon="15.673393495380878448486328125">
        <ele>156.8000030517578125</ele>
        <time>2018-08-18T09:51:38.000Z</time>
        <extensions>
          <ns3:TrackPointExtension>
            <ns3:atemp>14.0</ns3:atemp>
          </ns3:TrackPointExtension>
        </extensions>
      </trkpt>
      <trkpt lat="60.082624219357967376708984375" lon="15.67345493473112583160400390625">
        <ele>157.600006103515625</ele>
        <time>2018-08-18T09:51:48.000Z</time>
        <extensions>
          <ns3:TrackPointExtension>
            <ns3:atemp>14.0</ns3:atemp>
          </ns3:TrackPointExtension>
        </extensions>
      </trkpt>
      <trkpt lat="60.08297399617731571197509765625" lon="15.673496425151824951171875">
        <ele>158</ele>
        <time>2018-08-18T09:51:54.000Z</time>
        <extensions>
          <ns3:TrackPointExtension>
            <ns3:atemp>14.0</ns3:atemp>
          </ns3:TrackPointExtension>
        </extensions>
      </trkpt>
      <trkpt lat="60.08356533944606781005859375" lon="15.6735527515411376953125">
        <ele>158.600006103515625</ele>
        <time>2018-08-18T09:52:04.000Z</time>
        <extensions>
          <ns3:TrackPointExtension>
            <ns3:atemp>14.0</ns3:atemp>
          </ns3:TrackPointExtension>
        </extensions>
      </trkpt>
      <trkpt lat="60.0841133482754230499267578125" lon="15.67358837462961673736572265625">
        <ele>159.399993896484375</ele>
        <time>2018-08-18T09:52:13.000Z</time>
        <extensions>
          <ns3:TrackPointExtension>
            <ns3:atemp>14.0</ns3:atemp>
          </ns3:TrackPointExtension>
        </extensions>
      </trkpt>
      <trkpt lat="60.08469320833683013916015625" lon="15.6736384145915508270263671875">
        <ele>160</ele>
        <time>2018-08-18T09:52:23.000Z</time>
        <extensions>
          <ns3:TrackPointExtension>
            <ns3:atemp>14.0</ns3:atemp>
          </ns3:TrackPointExtension>
        </extensions>
      </trkpt>
      <trkpt lat="60.08525110781192779541015625" lon="15.67367487587034702301025390625">
        <ele>160.600006103515625</ele>
        <time>2018-08-18T09:52:35.000Z</time>
        <extensions>
          <ns3:TrackPointExtension>
            <ns3:atemp>14.0</ns3:atemp>
          </ns3:TrackPointExtension>
        </extensions>
      </trkpt>
      <trkpt lat="60.08529092185199260711669921875" lon="15.67367613315582275390625">
        <ele>160.600006103515625</ele>
        <time>2018-08-18T09:52:36.000Z</time>
        <extensions>
          <ns3:TrackPointExtension>
            <ns3:atemp>14.0</ns3:atemp>
          </ns3:TrackPointExtension>
        </extensions>
      </trkpt>
      <trkpt lat="60.08553433232009410858154296875" lon="15.67367085255682468414306640625">
        <ele>160.8000030517578125</ele>
        <time>2018-08-18T09:52:42.000Z</time>
        <extensions>
          <ns3:TrackPointExtension>
            <ns3:atemp>14.0</ns3:atemp>
          </ns3:TrackPointExtension>
        </extensions>
      </trkpt>
      <trkpt lat="60.08557624183595180511474609375" lon="15.67365945316851139068603515625">
        <ele>160.8000030517578125</ele>
        <time>2018-08-18T09:52:43.000Z</time>
        <extensions>
          <ns3:TrackPointExtension>
            <ns3:atemp>14.0</ns3:atemp>
          </ns3:TrackPointExtension>
        </extensions>
      </trkpt>
      <trkpt lat="60.0858292914927005767822265625" lon="15.673587955534458160400390625">
        <ele>161</ele>
        <time>2018-08-18T09:52:49.000Z</time>
        <extensions>
          <ns3:TrackPointExtension>
            <ns3:atemp>14.0</ns3:atemp>
          </ns3:TrackPointExtension>
        </extensions>
      </trkpt>
      <trkpt lat="60.0861612148582935333251953125" lon="15.6735272705554962158203125">
        <ele>161.1999969482421875</ele>
        <time>2018-08-18T09:52:57.000Z</time>
        <extensions>
          <ns3:TrackPointExtension>
            <ns3:atemp>14.0</ns3:atemp>
          </ns3:TrackPointExtension>
        </extensions>
      </trkpt>
      <trkpt lat="60.08652255870401859283447265625" lon="15.67347102798521518707275390625">
        <ele>161.8000030517578125</ele>
        <time>2018-08-18T09:53:05.000Z</time>
        <extensions>
          <ns3:TrackPointExtension>
            <ns3:atemp>14.0</ns3:atemp>
          </ns3:TrackPointExtension>
        </extensions>
      </trkpt>
      <trkpt lat="60.08676781319081783294677734375" lon="15.67343138158321380615234375">
        <ele>162</ele>
        <time>2018-08-18T09:53:11.000Z</time>
        <extensions>
          <ns3:TrackPointExtension>
            <ns3:atemp>14.0</ns3:atemp>
          </ns3:TrackPointExtension>
        </extensions>
      </trkpt>
      <trkpt lat="60.08700451813638210296630859375" lon="15.67339223809540271759033203125">
        <ele>161.8000030517578125</ele>
        <time>2018-08-18T09:53:17.000Z</time>
        <extensions>
          <ns3:TrackPointExtension>
            <ns3:atemp>14.0</ns3:atemp>
          </ns3:TrackPointExtension>
        </extensions>
      </trkpt>
      <trkpt lat="60.0872082822024822235107421875" lon="15.67336072213947772979736328125">
        <ele>161.8000030517578125</ele>
        <time>2018-08-18T09:53:22.000Z</time>
        <extensions>
          <ns3:TrackPointExtension>
            <ns3:atemp>14.0</ns3:atemp>
          </ns3:TrackPointExtension>
        </extensions>
      </trkpt>
      <trkpt lat="60.08741238154470920562744140625" lon="15.67334697581827640533447265625">
        <ele>161.8000030517578125</ele>
        <time>2018-08-18T09:53:27.000Z</time>
        <extensions>
          <ns3:TrackPointExtension>
            <ns3:atemp>14.0</ns3:atemp>
          </ns3:TrackPointExtension>
        </extensions>
      </trkpt>
      <trkpt lat="60.08763802237808704376220703125" lon="15.67350514233112335205078125">
        <ele>162</ele>
        <time>2018-08-18T09:53:33.000Z</time>
        <extensions>
          <ns3:TrackPointExtension>
            <ns3:atemp>14.0</ns3:atemp>
          </ns3:TrackPointExtension>
        </extensions>
      </trkpt>
      <trkpt lat="60.08782871067523956298828125" lon="15.67384201101958751678466796875">
        <ele>162.600006103515625</ele>
        <time>2018-08-18T09:53:40.000Z</time>
        <extensions>
          <ns3:TrackPointExtension>
            <ns3:atemp>14.0</ns3:atemp>
          </ns3:TrackPointExtension>
        </extensions>
      </trkpt>
      <trkpt lat="60.08798939175903797149658203125" lon="15.6740145944058895111083984375">
        <ele>162.8000030517578125</ele>
        <time>2018-08-18T09:53:45.000Z</time>
        <extensions>
          <ns3:TrackPointExtension>
            <ns3:atemp>14.0</ns3:atemp>
          </ns3:TrackPointExtension>
        </extensions>
      </trkpt>
      <trkpt lat="60.0881805829703807830810546875" lon="15.67413152195513248443603515625">
        <ele>163</ele>
        <time>2018-08-18T09:53:50.000Z</time>
        <extensions>
          <ns3:TrackPointExtension>
            <ns3:atemp>14.0</ns3:atemp>
          </ns3:TrackPointExtension>
        </extensions>
      </trkpt>
      <trkpt lat="60.0883631408214569091796875" lon="15.6741795502603054046630859375">
        <ele>163.1999969482421875</ele>
        <time>2018-08-18T09:53:54.000Z</time>
        <extensions>
          <ns3:TrackPointExtension>
            <ns3:atemp>14.0</ns3:atemp>
          </ns3:TrackPointExtension>
        </extensions>
      </trkpt>
      <trkpt lat="60.08849767036736011505126953125" lon="15.6742120720446109771728515625">
        <ele>163.1999969482421875</ele>
        <time>2018-08-18T09:53:57.000Z</time>
        <extensions>
          <ns3:TrackPointExtension>
            <ns3:atemp>14.0</ns3:atemp>
          </ns3:TrackPointExtension>
        </extensions>
      </trkpt>
      <trkpt lat="60.088731944561004638671875" lon="15.6742342002689838409423828125">
        <ele>163.1999969482421875</ele>
        <time>2018-08-18T09:54:01.000Z</time>
        <extensions>
          <ns3:TrackPointExtension>
            <ns3:atemp>14.0</ns3:atemp>
          </ns3:TrackPointExtension>
        </extensions>
      </trkpt>
      <trkpt lat="60.08930266834795475006103515625" lon="15.67421936430037021636962890625">
        <ele>163.1999969482421875</ele>
        <time>2018-08-18T09:54:11.000Z</time>
        <extensions>
          <ns3:TrackPointExtension>
            <ns3:atemp>14.0</ns3:atemp>
          </ns3:TrackPointExtension>
        </extensions>
      </trkpt>
      <trkpt lat="60.089844055473804473876953125" lon="15.674263536930084228515625">
        <ele>163.1999969482421875</ele>
        <time>2018-08-18T09:54:21.000Z</time>
        <extensions>
          <ns3:TrackPointExtension>
            <ns3:atemp>14.0</ns3:atemp>
          </ns3:TrackPointExtension>
        </extensions>
      </trkpt>
      <trkpt lat="60.0900368392467498779296875" lon="15.67430117167532444000244140625">
        <ele>163.1999969482421875</ele>
        <time>2018-08-18T09:54:25.000Z</time>
        <extensions>
          <ns3:TrackPointExtension>
            <ns3:atemp>14.0</ns3:atemp>
          </ns3:TrackPointExtension>
        </extensions>
      </trkpt>
      <trkpt lat="60.0905947387218475341796875" lon="15.674430169165134429931640625">
        <ele>163.399993896484375</ele>
        <time>2018-08-18T09:54:37.000Z</time>
        <extensions>
          <ns3:TrackPointExtension>
            <ns3:atemp>14.0</ns3:atemp>
          </ns3:TrackPointExtension>
        </extensions>
      </trkpt>
      <trkpt lat="60.09083169512450695037841796875" lon="15.67457928322255611419677734375">
        <ele>163.600006103515625</ele>
        <time>2018-08-18T09:54:42.000Z</time>
        <extensions>
          <ns3:TrackPointExtension>
            <ns3:atemp>14.0</ns3:atemp>
          </ns3:TrackPointExtension>
        </extensions>
      </trkpt>
      <trkpt lat="60.0913385488092899322509765625" lon="15.6750764138996601104736328125">
        <ele>164.1999969482421875</ele>
        <time>2018-08-18T09:54:54.000Z</time>
        <extensions>
          <ns3:TrackPointExtension>
            <ns3:atemp>14.0</ns3:atemp>
          </ns3:TrackPointExtension>
        </extensions>
      </trkpt>
      <trkpt lat="60.09137752465903759002685546875" lon="15.67511656321585178375244140625">
        <ele>164.399993896484375</ele>
        <time>2018-08-18T09:54:55.000Z</time>
        <extensions>
          <ns3:TrackPointExtension>
            <ns3:atemp>14.0</ns3:atemp>
          </ns3:TrackPointExtension>
        </extensions>
      </trkpt>
      <trkpt lat="60.09166317991912364959716796875" lon="15.675384700298309326171875">
        <ele>164.600006103515625</ele>
        <time>2018-08-18T09:55:02.000Z</time>
        <extensions>
          <ns3:TrackPointExtension>
            <ns3:atemp>14.0</ns3:atemp>
          </ns3:TrackPointExtension>
        </extensions>
      </trkpt>
      <trkpt lat="60.09190843440592288970947265625" lon="15.675631798803806304931640625">
        <ele>165</ele>
        <time>2018-08-18T09:55:08.000Z</time>
        <extensions>
          <ns3:TrackPointExtension>
            <ns3:atemp>14.0</ns3:atemp>
          </ns3:TrackPointExtension>
        </extensions>
      </trkpt>
      <trkpt lat="60.092283189296722412109375" lon="15.6759823299944400787353515625">
        <ele>165.399993896484375</ele>
        <time>2018-08-18T09:55:17.000Z</time>
        <extensions>
          <ns3:TrackPointExtension>
            <ns3:atemp>14.0</ns3:atemp>
          </ns3:TrackPointExtension>
        </extensions>
      </trkpt>
      <trkpt lat="60.09232652373611927032470703125" lon="15.67603270523250102996826171875">
        <ele>165.600006103515625</ele>
        <time>2018-08-18T09:55:18.000Z</time>
        <extensions>
          <ns3:TrackPointExtension>
            <ns3:atemp>14.0</ns3:atemp>
          </ns3:TrackPointExtension>
        </extensions>
      </trkpt>
      <trkpt lat="60.09285240434110164642333984375" lon="15.6765264831483364105224609375">
        <ele>166.1999969482421875</ele>
        <time>2018-08-18T09:55:29.000Z</time>
        <extensions>
          <ns3:TrackPointExtension>
            <ns3:atemp>14.0</ns3:atemp>
          </ns3:TrackPointExtension>
        </extensions>
      </trkpt>
      <trkpt lat="60.093190781772136688232421875" lon="15.676884390413761138916015625">
        <ele>166.600006103515625</ele>
        <time>2018-08-18T09:55:36.000Z</time>
        <extensions>
          <ns3:TrackPointExtension>
            <ns3:atemp>14.0</ns3:atemp>
          </ns3:TrackPointExtension>
        </extensions>
      </trkpt>
      <trkpt lat="60.09337593801319599151611328125" lon="15.6772567145526409149169921875">
        <ele>167.1999969482421875</ele>
        <time>2018-08-18T09:55:41.000Z</time>
        <extensions>
          <ns3:TrackPointExtension>
            <ns3:atemp>14.0</ns3:atemp>
          </ns3:TrackPointExtension>
        </extensions>
      </trkpt>
      <trkpt lat="60.09354181587696075439453125" lon="15.67768670618534088134765625">
        <ele>167.8000030517578125</ele>
        <time>2018-08-18T09:55:46.000Z</time>
        <extensions>
          <ns3:TrackPointExtension>
            <ns3:atemp>14.0</ns3:atemp>
          </ns3:TrackPointExtension>
        </extensions>
      </trkpt>
      <trkpt lat="60.09370819665491580963134765625" lon="15.67811577580869197845458984375">
        <ele>168.399993896484375</ele>
        <time>2018-08-18T09:55:51.000Z</time>
        <extensions>
          <ns3:TrackPointExtension>
            <ns3:atemp>14.0</ns3:atemp>
          </ns3:TrackPointExtension>
        </extensions>
      </trkpt>
      <trkpt lat="60.093892514705657958984375" lon="15.67863008938729763031005859375">
        <ele>169</ele>
        <time>2018-08-18T09:55:57.000Z</time>
        <extensions>
          <ns3:TrackPointExtension>
            <ns3:atemp>14.0</ns3:atemp>
          </ns3:TrackPointExtension>
        </extensions>
      </trkpt>
      <trkpt lat="60.09418143890798091888427734375" lon="15.6786320172250270843505859375">
        <ele>169</ele>
        <time>2018-08-18T09:56:04.000Z</time>
        <extensions>
          <ns3:TrackPointExtension>
            <ns3:atemp>14.0</ns3:atemp>
          </ns3:TrackPointExtension>
        </extensions>
      </trkpt>
      <trkpt lat="60.0945726223289966583251953125" lon="15.6785572506487369537353515625">
        <ele>168.8000030517578125</ele>
        <time>2018-08-18T09:56:14.000Z</time>
        <extensions>
          <ns3:TrackPointExtension>
            <ns3:atemp>14.0</ns3:atemp>
          </ns3:TrackPointExtension>
        </extensions>
      </trkpt>
      <trkpt lat="60.09466507472097873687744140625" lon="15.67863662727177143096923828125">
        <ele>169</ele>
        <time>2018-08-18T09:56:16.000Z</time>
        <extensions>
          <ns3:TrackPointExtension>
            <ns3:atemp>14.0</ns3:atemp>
          </ns3:TrackPointExtension>
        </extensions>
      </trkpt>
      <trkpt lat="60.094933211803436279296875" lon="15.67894424311816692352294921875">
        <ele>169.399993896484375</ele>
        <time>2018-08-18T09:56:22.000Z</time>
        <extensions>
          <ns3:TrackPointExtension>
            <ns3:atemp>14.0</ns3:atemp>
          </ns3:TrackPointExtension>
        </extensions>
      </trkpt>
      <trkpt lat="60.0951177813112735748291015625" lon="15.67908279597759246826171875">
        <ele>169.600006103515625</ele>
        <time>2018-08-18T09:56:26.000Z</time>
        <extensions>
          <ns3:TrackPointExtension>
            <ns3:atemp>14.0</ns3:atemp>
          </ns3:TrackPointExtension>
        </extensions>
      </trkpt>
      <trkpt lat="60.09521660394966602325439453125" lon="15.679127387702465057373046875">
        <ele>169.8000030517578125</ele>
        <time>2018-08-18T09:56:28.000Z</time>
        <extensions>
          <ns3:TrackPointExtension>
            <ns3:atemp>14.0</ns3:atemp>
          </ns3:TrackPointExtension>
        </extensions>
      </trkpt>
      <trkpt lat="60.0954302586615085601806640625" lon="15.6791698001325130462646484375">
        <ele>170</ele>
        <time>2018-08-18T09:56:32.000Z</time>
        <extensions>
          <ns3:TrackPointExtension>
            <ns3:atemp>14.0</ns3:atemp>
          </ns3:TrackPointExtension>
        </extensions>
      </trkpt>
      <trkpt lat="60.0957802869379520416259765625" lon="15.6790906749665737152099609375">
        <ele>170</ele>
        <time>2018-08-18T09:56:38.000Z</time>
        <extensions>
          <ns3:TrackPointExtension>
            <ns3:atemp>14.0</ns3:atemp>
          </ns3:TrackPointExtension>
        </extensions>
      </trkpt>
      <trkpt lat="60.096314884722232818603515625" lon="15.67886075936257839202880859375">
        <ele>170</ele>
        <time>2018-08-18T09:56:48.000Z</time>
        <extensions>
          <ns3:TrackPointExtension>
            <ns3:atemp>14.0</ns3:atemp>
          </ns3:TrackPointExtension>
        </extensions>
      </trkpt>
      <trkpt lat="60.0968853570520877838134765625" lon="15.678567476570606231689453125">
        <ele>170</ele>
        <time>2018-08-18T09:56:59.000Z</time>
        <extensions>
          <ns3:TrackPointExtension>
            <ns3:atemp>14.0</ns3:atemp>
          </ns3:TrackPointExtension>
        </extensions>
      </trkpt>
      <trkpt lat="60.0970905460417270660400390625" lon="15.678459517657756805419921875">
        <ele>170</ele>
        <time>2018-08-18T09:57:03.000Z</time>
        <extensions>
          <ns3:TrackPointExtension>
            <ns3:atemp>14.0</ns3:atemp>
          </ns3:TrackPointExtension>
        </extensions>
      </trkpt>
      <trkpt lat="60.09729648940265178680419921875" lon="15.6783580966293811798095703125">
        <ele>170</ele>
        <time>2018-08-18T09:57:07.000Z</time>
        <extensions>
          <ns3:TrackPointExtension>
            <ns3:atemp>14.0</ns3:atemp>
          </ns3:TrackPointExtension>
        </extensions>
      </trkpt>
      <trkpt lat="60.0974228046834468841552734375" lon="15.67834275774657726287841796875">
        <ele>170</ele>
        <time>2018-08-18T09:57:09.000Z</time>
        <extensions>
          <ns3:TrackPointExtension>
            <ns3:atemp>14.0</ns3:atemp>
          </ns3:TrackPointExtension>
        </extensions>
      </trkpt>
      <trkpt lat="60.0977564044296741485595703125" lon="15.67861902527511119842529296875">
        <ele>170.600006103515625</ele>
        <time>2018-08-18T09:57:15.000Z</time>
        <extensions>
          <ns3:TrackPointExtension>
            <ns3:atemp>14.0</ns3:atemp>
          </ns3:TrackPointExtension>
        </extensions>
      </trkpt>
      <trkpt lat="60.09822386316955089569091796875" lon="15.67920642904937267303466796875">
        <ele>171.600006103515625</ele>
        <time>2018-08-18T09:57:25.000Z</time>
        <extensions>
          <ns3:TrackPointExtension>
            <ns3:atemp>14.0</ns3:atemp>
          </ns3:TrackPointExtension>
        </extensions>
      </trkpt>
      <trkpt lat="60.0984249450266361236572265625" lon="15.67945788614451885223388671875">
        <ele>172.1999969482421875</ele>
        <time>2018-08-18T09:57:29.000Z</time>
        <extensions>
          <ns3:TrackPointExtension>
            <ns3:atemp>14.0</ns3:atemp>
          </ns3:TrackPointExtension>
        </extensions>
      </trkpt>
      <trkpt lat="60.09879450313746929168701171875" lon="15.67990891635417938232421875">
        <ele>173</ele>
        <time>2018-08-18T09:57:39.000Z</time>
        <extensions>
          <ns3:TrackPointExtension>
            <ns3:atemp>14.0</ns3:atemp>
          </ns3:TrackPointExtension>
        </extensions>
      </trkpt>
      <trkpt lat="60.0992976687848567962646484375" lon="15.68049841560423374176025390625">
        <ele>174</ele>
        <time>2018-08-18T09:57:49.000Z</time>
        <extensions>
          <ns3:TrackPointExtension>
            <ns3:atemp>13.0</ns3:atemp>
          </ns3:TrackPointExtension>
        </extensions>
      </trkpt>
      <trkpt lat="60.09978759102523326873779296875" lon="15.68100753240287303924560546875">
        <ele>175</ele>
        <time>2018-08-18T09:57:59.000Z</time>
        <extensions>
          <ns3:TrackPointExtension>
            <ns3:atemp>13.0</ns3:atemp>
          </ns3:TrackPointExtension>
        </extensions>
      </trkpt>
      <trkpt lat="60.10002681054174900054931640625" lon="15.68115840665996074676513671875">
        <ele>175.399993896484375</ele>
        <time>2018-08-18T09:58:04.000Z</time>
        <extensions>
          <ns3:TrackPointExtension>
            <ns3:atemp>13.0</ns3:atemp>
          </ns3:TrackPointExtension>
        </extensions>
      </trkpt>
      <trkpt lat="60.10016494430601596832275390625" lon="15.6811742484569549560546875">
        <ele>175.399993896484375</ele>
        <time>2018-08-18T09:58:07.000Z</time>
        <extensions>
          <ns3:TrackPointExtension>
            <ns3:atemp>13.0</ns3:atemp>
          </ns3:TrackPointExtension>
        </extensions>
      </trkpt>
      <trkpt lat="60.10025680996477603912353515625" lon="15.68114398978650569915771484375">
        <ele>175.399993896484375</ele>
        <time>2018-08-18T09:58:09.000Z</time>
        <extensions>
          <ns3:TrackPointExtension>
            <ns3:atemp>13.0</ns3:atemp>
          </ns3:TrackPointExtension>
        </extensions>
      </trkpt>
      <trkpt lat="60.10040231980383396148681640625" lon="15.681015662848949432373046875">
        <ele>175.399993896484375</ele>
        <time>2018-08-18T09:58:12.000Z</time>
        <extensions>
          <ns3:TrackPointExtension>
            <ns3:atemp>13.0</ns3:atemp>
          </ns3:TrackPointExtension>
        </extensions>
      </trkpt>
      <trkpt lat="60.10089701972901821136474609375" lon="15.68034033291041851043701171875">
        <ele>174.8000030517578125</ele>
        <time>2018-08-18T09:58:22.000Z</time>
        <extensions>
          <ns3:TrackPointExtension>
            <ns3:atemp>13.0</ns3:atemp>
          </ns3:TrackPointExtension>
        </extensions>
      </trkpt>
      <trkpt lat="60.101113356649875640869140625" lon="15.6799328885972499847412109375">
        <ele>174.399993896484375</ele>
        <time>2018-08-18T09:58:27.000Z</time>
        <extensions>
          <ns3:TrackPointExtension>
            <ns3:atemp>13.0</ns3:atemp>
          </ns3:TrackPointExtension>
        </extensions>
      </trkpt>
      <trkpt lat="60.1014722697436809539794921875" lon="15.679094530642032623291015625">
        <ele>174.1999969482421875</ele>
        <time>2018-08-18T09:58:36.000Z</time>
        <extensions>
          <ns3:TrackPointExtension>
            <ns3:atemp>13.0</ns3:atemp>
          </ns3:TrackPointExtension>
        </extensions>
      </trkpt>
      <trkpt lat="60.1018548198044300079345703125" lon="15.6781857647001743316650390625">
        <ele>173.8000030517578125</ele>
        <time>2018-08-18T09:58:46.000Z</time>
        <extensions>
          <ns3:TrackPointExtension>
            <ns3:atemp>13.0</ns3:atemp>
          </ns3:TrackPointExtension>
        </extensions>
      </trkpt>
      <trkpt lat="60.10190351866185665130615234375" lon="15.67811024375259876251220703125">
        <ele>173.8000030517578125</ele>
        <time>2018-08-18T09:58:47.000Z</time>
        <extensions>
          <ns3:TrackPointExtension>
            <ns3:atemp>13.0</ns3:atemp>
          </ns3:TrackPointExtension>
        </extensions>
      </trkpt>
      <trkpt lat="60.10232068598270416259765625" lon="15.67785107530653476715087890625">
        <ele>174</ele>
        <time>2018-08-18T09:58:53.000Z</time>
        <extensions>
          <ns3:TrackPointExtension>
            <ns3:atemp>13.0</ns3:atemp>
          </ns3:TrackPointExtension>
        </extensions>
      </trkpt>
      <trkpt lat="60.10286106728017330169677734375" lon="15.6778079085052013397216796875">
        <ele>174.600006103515625</ele>
        <time>2018-08-18T09:59:01.000Z</time>
        <extensions>
          <ns3:TrackPointExtension>
            <ns3:atemp>13.0</ns3:atemp>
          </ns3:TrackPointExtension>
        </extensions>
      </trkpt>
      <trkpt lat="60.10340387932956218719482421875" lon="15.67800379358232021331787109375">
        <ele>175.399993896484375</ele>
        <time>2018-08-18T09:59:10.000Z</time>
        <extensions>
          <ns3:TrackPointExtension>
            <ns3:atemp>13.0</ns3:atemp>
          </ns3:TrackPointExtension>
        </extensions>
      </trkpt>
      <trkpt lat="60.1037617027759552001953125" lon="15.67811183631420135498046875">
        <ele>175.8000030517578125</ele>
        <time>2018-08-18T09:59:16.000Z</time>
        <extensions>
          <ns3:TrackPointExtension>
            <ns3:atemp>13.0</ns3:atemp>
          </ns3:TrackPointExtension>
        </extensions>
      </trkpt>
      <trkpt lat="60.10431088507175445556640625" lon="15.67806531675159931182861328125">
        <ele>176.399993896484375</ele>
        <time>2018-08-18T09:59:26.000Z</time>
        <extensions>
          <ns3:TrackPointExtension>
            <ns3:atemp>13.0</ns3:atemp>
          </ns3:TrackPointExtension>
        </extensions>
      </trkpt>
      <trkpt lat="60.104408450424671173095703125" lon="15.6780436076223850250244140625">
        <ele>176.600006103515625</ele>
        <time>2018-08-18T09:59:28.000Z</time>
        <extensions>
          <ns3:TrackPointExtension>
            <ns3:atemp>13.0</ns3:atemp>
          </ns3:TrackPointExtension>
        </extensions>
      </trkpt>
      <trkpt lat="60.1046017371118068695068359375" lon="15.6779792346060276031494140625">
        <ele>176.8000030517578125</ele>
        <time>2018-08-18T09:59:32.000Z</time>
        <extensions>
          <ns3:TrackPointExtension>
            <ns3:atemp>13.0</ns3:atemp>
          </ns3:TrackPointExtension>
        </extensions>
      </trkpt>
      <trkpt lat="60.10514882393181324005126953125" lon="15.67771889269351959228515625">
        <ele>177.1999969482421875</ele>
        <time>2018-08-18T09:59:42.000Z</time>
        <extensions>
          <ns3:TrackPointExtension>
            <ns3:atemp>13.0</ns3:atemp>
          </ns3:TrackPointExtension>
        </extensions>
      </trkpt>
      <trkpt lat="60.10544219054281711578369140625" lon="15.67780447192490100860595703125">
        <ele>177.600006103515625</ele>
        <time>2018-08-18T09:59:48.000Z</time>
        <extensions>
          <ns3:TrackPointExtension>
            <ns3:atemp>13.0</ns3:atemp>
          </ns3:TrackPointExtension>
        </extensions>
      </trkpt>
      <trkpt lat="60.10566917248070240020751953125" lon="15.67791603505611419677734375">
        <ele>178</ele>
        <time>2018-08-18T09:59:52.000Z</time>
        <extensions>
          <ns3:TrackPointExtension>
            <ns3:atemp>13.0</ns3:atemp>
          </ns3:TrackPointExtension>
        </extensions>
      </trkpt>
      <trkpt lat="60.10591073893010616302490234375" lon="15.6778751313686370849609375">
        <ele>178.1999969482421875</ele>
        <time>2018-08-18T09:59:56.000Z</time>
        <extensions>
          <ns3:TrackPointExtension>
            <ns3:atemp>13.0</ns3:atemp>
          </ns3:TrackPointExtension>
        </extensions>
      </trkpt>
      <trkpt lat="60.10642404668033123016357421875" lon="15.67749761044979095458984375">
        <ele>178.600006103515625</ele>
        <time>2018-08-18T10:00:05.000Z</time>
        <extensions>
          <ns3:TrackPointExtension>
            <ns3:atemp>13.0</ns3:atemp>
          </ns3:TrackPointExtension>
        </extensions>
      </trkpt>
      <trkpt lat="60.1066378690302371978759765625" lon="15.6773777492344379425048828125">
        <ele>178.600006103515625</ele>
        <time>2018-08-18T10:00:09.000Z</time>
        <extensions>
          <ns3:TrackPointExtension>
            <ns3:atemp>13.0</ns3:atemp>
          </ns3:TrackPointExtension>
        </extensions>
      </trkpt>
      <trkpt lat="60.1068202592432498931884765625" lon="15.6773492507636547088623046875">
        <ele>179</ele>
        <time>2018-08-18T10:00:12.000Z</time>
        <extensions>
          <ns3:TrackPointExtension>
            <ns3:atemp>13.0</ns3:atemp>
          </ns3:TrackPointExtension>
        </extensions>
      </trkpt>
      <trkpt lat="60.107245557010173797607421875" lon="15.67769341170787811279296875">
        <ele>179.8000030517578125</ele>
        <time>2018-08-18T10:00:20.000Z</time>
        <extensions>
          <ns3:TrackPointExtension>
            <ns3:atemp>13.0</ns3:atemp>
          </ns3:TrackPointExtension>
        </extensions>
      </trkpt>
      <trkpt lat="60.1073446311056613922119140625" lon="15.677826516330242156982421875">
        <ele>180</ele>
        <time>2018-08-18T10:00:22.000Z</time>
        <extensions>
          <ns3:TrackPointExtension>
            <ns3:atemp>13.0</ns3:atemp>
          </ns3:TrackPointExtension>
        </extensions>
      </trkpt>
      <trkpt lat="60.107394419610500335693359375" lon="15.67788694985210895538330078125">
        <ele>180</ele>
        <time>2018-08-18T10:00:23.000Z</time>
        <extensions>
          <ns3:TrackPointExtension>
            <ns3:atemp>13.0</ns3:atemp>
          </ns3:TrackPointExtension>
        </extensions>
      </trkpt>
      <trkpt lat="60.1076079905033111572265625" lon="15.67806347273290157318115234375">
        <ele>180.399993896484375</ele>
        <time>2018-08-18T10:00:27.000Z</time>
        <extensions>
          <ns3:TrackPointExtension>
            <ns3:atemp>13.0</ns3:atemp>
          </ns3:TrackPointExtension>
        </extensions>
      </trkpt>
      <trkpt lat="60.108186341822147369384765625" lon="15.67799490876495838165283203125">
        <ele>181.1999969482421875</ele>
        <time>2018-08-18T10:00:38.000Z</time>
        <extensions>
          <ns3:TrackPointExtension>
            <ns3:atemp>13.0</ns3:atemp>
          </ns3:TrackPointExtension>
        </extensions>
      </trkpt>
      <trkpt lat="60.10838943533599376678466796875" lon="15.67789591848850250244140625">
        <ele>181.399993896484375</ele>
        <time>2018-08-18T10:00:42.000Z</time>
        <extensions>
          <ns3:TrackPointExtension>
            <ns3:atemp>13.0</ns3:atemp>
          </ns3:TrackPointExtension>
        </extensions>
      </trkpt>
      <trkpt lat="60.10883334092795848846435546875" lon="15.677699111402034759521484375">
        <ele>181.8000030517578125</ele>
        <time>2018-08-18T10:00:52.000Z</time>
        <extensions>
          <ns3:TrackPointExtension>
            <ns3:atemp>13.0</ns3:atemp>
          </ns3:TrackPointExtension>
        </extensions>
      </trkpt>
      <trkpt lat="60.10892168618738651275634765625" lon="15.6776821799576282501220703125">
        <ele>182</ele>
        <time>2018-08-18T10:00:54.000Z</time>
        <extensions>
          <ns3:TrackPointExtension>
            <ns3:atemp>13.0</ns3:atemp>
          </ns3:TrackPointExtension>
        </extensions>
      </trkpt>
      <trkpt lat="60.10909753851592540740966796875" lon="15.6776935793459415435791015625">
        <ele>182.1999969482421875</ele>
        <time>2018-08-18T10:00:58.000Z</time>
        <extensions>
          <ns3:TrackPointExtension>
            <ns3:atemp>13.0</ns3:atemp>
          </ns3:TrackPointExtension>
        </extensions>
      </trkpt>
      <trkpt lat="60.1093901507556438446044921875" lon="15.67780346609652042388916015625">
        <ele>182.600006103515625</ele>
        <time>2018-08-18T10:01:04.000Z</time>
        <extensions>
          <ns3:TrackPointExtension>
            <ns3:atemp>13.0</ns3:atemp>
          </ns3:TrackPointExtension>
        </extensions>
      </trkpt>
      <trkpt lat="60.1099453680217266082763671875" lon="15.67813463509082794189453125">
        <ele>183.600006103515625</ele>
        <time>2018-08-18T10:01:16.000Z</time>
        <extensions>
          <ns3:TrackPointExtension>
            <ns3:atemp>13.0</ns3:atemp>
          </ns3:TrackPointExtension>
        </extensions>
      </trkpt>
      <trkpt lat="60.1101716794073581695556640625" lon="15.67826782353222370147705078125">
        <ele>184</ele>
        <time>2018-08-18T10:01:21.000Z</time>
        <extensions>
          <ns3:TrackPointExtension>
            <ns3:atemp>13.0</ns3:atemp>
          </ns3:TrackPointExtension>
        </extensions>
      </trkpt>
      <trkpt lat="60.110522545874118804931640625" lon="15.6784026883542537689208984375">
        <ele>184.600006103515625</ele>
        <time>2018-08-18T10:01:29.000Z</time>
        <extensions>
          <ns3:TrackPointExtension>
            <ns3:atemp>13.0</ns3:atemp>
          </ns3:TrackPointExtension>
        </extensions>
      </trkpt>
      <trkpt lat="60.11086729355156421661376953125" lon="15.6784392334520816802978515625">
        <ele>185</ele>
        <time>2018-08-18T10:01:37.000Z</time>
        <extensions>
          <ns3:TrackPointExtension>
            <ns3:atemp>13.0</ns3:atemp>
          </ns3:TrackPointExtension>
        </extensions>
      </trkpt>
      <trkpt lat="60.11112377978861331939697265625" lon="15.67848592065274715423583984375">
        <ele>185.399993896484375</ele>
        <time>2018-08-18T10:01:44.000Z</time>
        <extensions>
          <ns3:TrackPointExtension>
            <ns3:atemp>13.0</ns3:atemp>
          </ns3:TrackPointExtension>
        </extensions>
      </trkpt>
      <trkpt lat="60.1113951019942760467529296875" lon="15.6785671412944793701171875">
        <ele>185.8000030517578125</ele>
        <time>2018-08-18T10:01:50.000Z</time>
        <extensions>
          <ns3:TrackPointExtension>
            <ns3:atemp>13.0</ns3:atemp>
          </ns3:TrackPointExtension>
        </extensions>
      </trkpt>
      <trkpt lat="60.1118007861077785491943359375" lon="15.67869949154555797576904296875">
        <ele>186.399993896484375</ele>
        <time>2018-08-18T10:01:59.000Z</time>
        <extensions>
          <ns3:TrackPointExtension>
            <ns3:atemp>13.0</ns3:atemp>
          </ns3:TrackPointExtension>
        </extensions>
      </trkpt>
      <trkpt lat="60.1119154505431652069091796875" lon="15.67869513295590877532958984375">
        <ele>186.399993896484375</ele>
        <time>2018-08-18T10:02:01.000Z</time>
        <extensions>
          <ns3:TrackPointExtension>
            <ns3:atemp>13.0</ns3:atemp>
          </ns3:TrackPointExtension>
        </extensions>
      </trkpt>
      <trkpt lat="60.1124560832977294921875" lon="15.6783691607415676116943359375">
        <ele>186.1999969482421875</ele>
        <time>2018-08-18T10:02:11.000Z</time>
        <extensions>
          <ns3:TrackPointExtension>
            <ns3:atemp>13.0</ns3:atemp>
          </ns3:TrackPointExtension>
        </extensions>
      </trkpt>
      <trkpt lat="60.11269572190940380096435546875" lon="15.67822557874023914337158203125">
        <ele>186</ele>
        <time>2018-08-18T10:02:18.000Z</time>
        <extensions>
          <ns3:TrackPointExtension>
            <ns3:atemp>13.0</ns3:atemp>
          </ns3:TrackPointExtension>
        </extensions>
      </trkpt>
      <trkpt lat="60.112830586731433868408203125" lon="15.6781676597893238067626953125">
        <ele>186</ele>
        <time>2018-08-18T10:02:21.000Z</time>
        <extensions>
          <ns3:TrackPointExtension>
            <ns3:atemp>13.0</ns3:atemp>
          </ns3:TrackPointExtension>
        </extensions>
      </trkpt>
      <trkpt lat="60.113375075161457061767578125" lon="15.678012259304523468017578125">
        <ele>186</ele>
        <time>2018-08-18T10:02:30.000Z</time>
        <extensions>
          <ns3:TrackPointExtension>
            <ns3:atemp>13.0</ns3:atemp>
          </ns3:TrackPointExtension>
        </extensions>
      </trkpt>
      <trkpt lat="60.11397354304790496826171875" lon="15.67777664400637149810791015625">
        <ele>186</ele>
        <time>2018-08-18T10:02:38.000Z</time>
        <extensions>
          <ns3:TrackPointExtension>
            <ns3:atemp>13.0</ns3:atemp>
          </ns3:TrackPointExtension>
        </extensions>
      </trkpt>
      <trkpt lat="60.11435667984187602996826171875" lon="15.6775544397532939910888671875">
        <ele>185.8000030517578125</ele>
        <time>2018-08-18T10:02:43.000Z</time>
        <extensions>
          <ns3:TrackPointExtension>
            <ns3:atemp>13.0</ns3:atemp>
          </ns3:TrackPointExtension>
        </extensions>
      </trkpt>
      <trkpt lat="60.1145195402204990386962890625" lon="15.67748294211924076080322265625">
        <ele>185.8000030517578125</ele>
        <time>2018-08-18T10:02:45.000Z</time>
        <extensions>
          <ns3:TrackPointExtension>
            <ns3:atemp>13.0</ns3:atemp>
          </ns3:TrackPointExtension>
        </extensions>
      </trkpt>
      <trkpt lat="60.11459925211966037750244140625" lon="15.67748554050922393798828125">
        <ele>185.8000030517578125</ele>
        <time>2018-08-18T10:02:46.000Z</time>
        <extensions>
          <ns3:TrackPointExtension>
            <ns3:atemp>13.0</ns3:atemp>
          </ns3:TrackPointExtension>
        </extensions>
      </trkpt>
      <trkpt lat="60.1147927902638912200927734375" lon="15.6776379235088825225830078125">
        <ele>186</ele>
        <time>2018-08-18T10:02:49.000Z</time>
        <extensions>
          <ns3:TrackPointExtension>
            <ns3:atemp>13.0</ns3:atemp>
          </ns3:TrackPointExtension>
        </extensions>
      </trkpt>
      <trkpt lat="60.1149302534759044647216796875" lon="15.6778907217085361480712890625">
        <ele>186.1999969482421875</ele>
        <time>2018-08-18T10:02:52.000Z</time>
        <extensions>
          <ns3:TrackPointExtension>
            <ns3:atemp>13.0</ns3:atemp>
          </ns3:TrackPointExtension>
        </extensions>
      </trkpt>
      <trkpt lat="60.11535219848155975341796875" lon="15.6786159239709377288818359375">
        <ele>186.600006103515625</ele>
        <time>2018-08-18T10:03:04.000Z</time>
        <extensions>
          <ns3:TrackPointExtension>
            <ns3:atemp>13.0</ns3:atemp>
          </ns3:TrackPointExtension>
        </extensions>
      </trkpt>
      <trkpt lat="60.11538631282746791839599609375" lon="15.67867049016058444976806640625">
        <ele>186.8000030517578125</ele>
        <time>2018-08-18T10:03:05.000Z</time>
        <extensions>
          <ns3:TrackPointExtension>
            <ns3:atemp>13.0</ns3:atemp>
          </ns3:TrackPointExtension>
        </extensions>
      </trkpt>
      <trkpt lat="60.11554506607353687286376953125" lon="15.678908117115497589111328125">
        <ele>187</ele>
        <time>2018-08-18T10:03:10.000Z</time>
        <extensions>
          <ns3:TrackPointExtension>
            <ns3:atemp>13.0</ns3:atemp>
          </ns3:TrackPointExtension>
        </extensions>
      </trkpt>
      <trkpt lat="60.1157436333596706390380859375" lon="15.679193437099456787109375">
        <ele>187.1999969482421875</ele>
        <time>2018-08-18T10:03:16.000Z</time>
        <extensions>
          <ns3:TrackPointExtension>
            <ns3:atemp>13.0</ns3:atemp>
          </ns3:TrackPointExtension>
        </extensions>
      </trkpt>
      <trkpt lat="60.11595477350056171417236328125" lon="15.6794779188930988311767578125">
        <ele>187.399993896484375</ele>
        <time>2018-08-18T10:03:22.000Z</time>
        <extensions>
          <ns3:TrackPointExtension>
            <ns3:atemp>13.0</ns3:atemp>
          </ns3:TrackPointExtension>
        </extensions>
      </trkpt>
      <trkpt lat="60.11614789254963397979736328125" lon="15.6797317229211330413818359375">
        <ele>187.600006103515625</ele>
        <time>2018-08-18T10:03:27.000Z</time>
        <extensions>
          <ns3:TrackPointExtension>
            <ns3:atemp>13.0</ns3:atemp>
          </ns3:TrackPointExtension>
        </extensions>
      </trkpt>
      <trkpt lat="60.11663286946713924407958984375" lon="15.6802406720817089080810546875">
        <ele>188</ele>
        <time>2018-08-18T10:03:37.000Z</time>
        <extensions>
          <ns3:TrackPointExtension>
            <ns3:atemp>13.0</ns3:atemp>
          </ns3:TrackPointExtension>
        </extensions>
      </trkpt>
      <trkpt lat="60.1171823032200336456298828125" lon="15.68054200150072574615478515625">
        <ele>188.1999969482421875</ele>
        <time>2018-08-18T10:03:46.000Z</time>
        <extensions>
          <ns3:TrackPointExtension>
            <ns3:atemp>13.0</ns3:atemp>
          </ns3:TrackPointExtension>
        </extensions>
      </trkpt>
      <trkpt lat="60.1176895759999752044677734375" lon="15.68104541860520839691162109375">
        <ele>188.8000030517578125</ele>
        <time>2018-08-18T10:03:55.000Z</time>
        <extensions>
          <ns3:TrackPointExtension>
            <ns3:atemp>13.0</ns3:atemp>
          </ns3:TrackPointExtension>
        </extensions>
      </trkpt>
      <trkpt lat="60.11824621818959712982177734375" lon="15.6815583072602748870849609375">
        <ele>189.1999969482421875</ele>
        <time>2018-08-18T10:04:03.000Z</time>
        <extensions>
          <ns3:TrackPointExtension>
            <ns3:atemp>13.0</ns3:atemp>
          </ns3:TrackPointExtension>
        </extensions>
      </trkpt>
      <trkpt lat="60.1184831745922565460205078125" lon="15.68164690397679805755615234375">
        <ele>189.1999969482421875</ele>
        <time>2018-08-18T10:04:06.000Z</time>
        <extensions>
          <ns3:TrackPointExtension>
            <ns3:atemp>13.0</ns3:atemp>
          </ns3:TrackPointExtension>
        </extensions>
      </trkpt>
      <trkpt lat="60.118561126291751861572265625" lon="15.68165369331836700439453125">
        <ele>189.1999969482421875</ele>
        <time>2018-08-18T10:04:07.000Z</time>
        <extensions>
          <ns3:TrackPointExtension>
            <ns3:atemp>13.0</ns3:atemp>
          </ns3:TrackPointExtension>
        </extensions>
      </trkpt>
      <trkpt lat="60.11870940215885639190673828125" lon="15.68165495060384273529052734375">
        <ele>189.1999969482421875</ele>
        <time>2018-08-18T10:04:09.000Z</time>
        <extensions>
          <ns3:TrackPointExtension>
            <ns3:atemp>13.0</ns3:atemp>
          </ns3:TrackPointExtension>
        </extensions>
      </trkpt>
      <trkpt lat="60.1188573427498340606689453125" lon="15.68162150681018829345703125">
        <ele>189.1999969482421875</ele>
        <time>2018-08-18T10:04:11.000Z</time>
        <extensions>
          <ns3:TrackPointExtension>
            <ns3:atemp>13.0</ns3:atemp>
          </ns3:TrackPointExtension>
        </extensions>
      </trkpt>
      <trkpt lat="60.1190735958516597747802734375" lon="15.6815767474472522735595703125">
        <ele>189.1999969482421875</ele>
        <time>2018-08-18T10:04:14.000Z</time>
        <extensions>
          <ns3:TrackPointExtension>
            <ns3:atemp>13.0</ns3:atemp>
          </ns3:TrackPointExtension>
        </extensions>
      </trkpt>
      <trkpt lat="60.11933553032577037811279296875" lon="15.6815284676849842071533203125">
        <ele>189</ele>
        <time>2018-08-18T10:04:18.000Z</time>
        <extensions>
          <ns3:TrackPointExtension>
            <ns3:atemp>13.0</ns3:atemp>
          </ns3:TrackPointExtension>
        </extensions>
      </trkpt>
      <trkpt lat="60.11990868486464023590087890625" lon="15.681407935917377471923828125">
        <ele>188.399993896484375</ele>
        <time>2018-08-18T10:04:26.000Z</time>
        <extensions>
          <ns3:TrackPointExtension>
            <ns3:atemp>13.0</ns3:atemp>
          </ns3:TrackPointExtension>
        </extensions>
      </trkpt>
      <trkpt lat="60.120047740638256072998046875" lon="15.681398212909698486328125">
        <ele>188.1999969482421875</ele>
        <time>2018-08-18T10:04:28.000Z</time>
        <extensions>
          <ns3:TrackPointExtension>
            <ns3:atemp>13.0</ns3:atemp>
          </ns3:TrackPointExtension>
        </extensions>
      </trkpt>
      <trkpt lat="60.120454765856266021728515625" lon="15.681516230106353759765625">
        <ele>188</ele>
        <time>2018-08-18T10:04:34.000Z</time>
        <extensions>
          <ns3:TrackPointExtension>
            <ns3:atemp>13.0</ns3:atemp>
          </ns3:TrackPointExtension>
        </extensions>
      </trkpt>
      <trkpt lat="60.1207717694342136383056640625" lon="15.68178738467395305633544921875">
        <ele>188.1999969482421875</ele>
        <time>2018-08-18T10:04:39.000Z</time>
        <extensions>
          <ns3:TrackPointExtension>
            <ns3:atemp>13.0</ns3:atemp>
          </ns3:TrackPointExtension>
        </extensions>
      </trkpt>
      <trkpt lat="60.121311731636524200439453125" lon="15.68212551064789295196533203125">
        <ele>188.1999969482421875</ele>
        <time>2018-08-18T10:04:48.000Z</time>
        <extensions>
          <ns3:TrackPointExtension>
            <ns3:atemp>13.0</ns3:atemp>
          </ns3:TrackPointExtension>
        </extensions>
      </trkpt>
      <trkpt lat="60.12155950069427490234375" lon="15.682246796786785125732421875">
        <ele>188.1999969482421875</ele>
        <time>2018-08-18T10:04:53.000Z</time>
        <extensions>
          <ns3:TrackPointExtension>
            <ns3:atemp>13.0</ns3:atemp>
          </ns3:TrackPointExtension>
        </extensions>
      </trkpt>
      <trkpt lat="60.1216910965740680694580078125" lon="15.68247235380113124847412109375">
        <ele>188.399993896484375</ele>
        <time>2018-08-18T10:06:51.000Z</time>
        <extensions>
          <ns3:TrackPointExtension>
            <ns3:atemp>13.0</ns3:atemp>
          </ns3:TrackPointExtension>
        </extensions>
      </trkpt>
      <trkpt lat="60.12159428559243679046630859375" lon="15.68334080278873443603515625">
        <ele>189.600006103515625</ele>
        <time>2018-08-18T10:07:03.000Z</time>
        <extensions>
          <ns3:TrackPointExtension>
            <ns3:atemp>13.0</ns3:atemp>
          </ns3:TrackPointExtension>
        </extensions>
      </trkpt>
      <trkpt lat="60.12152756564319133758544921875" lon="15.683927871286869049072265625">
        <ele>190.600006103515625</ele>
        <time>2018-08-18T10:07:10.000Z</time>
        <extensions>
          <ns3:TrackPointExtension>
            <ns3:atemp>13.0</ns3:atemp>
          </ns3:TrackPointExtension>
        </extensions>
      </trkpt>
      <trkpt lat="60.12147190980613231658935546875" lon="15.684453584253787994384765625">
        <ele>191</ele>
        <time>2018-08-18T10:07:16.000Z</time>
        <extensions>
          <ns3:TrackPointExtension>
            <ns3:atemp>13.0</ns3:atemp>
          </ns3:TrackPointExtension>
        </extensions>
      </trkpt>
      <trkpt lat="60.12142874300479888916015625" lon="15.6849212944507598876953125">
        <ele>191.1999969482421875</ele>
        <time>2018-08-18T10:07:21.000Z</time>
        <extensions>
          <ns3:TrackPointExtension>
            <ns3:atemp>13.0</ns3:atemp>
          </ns3:TrackPointExtension>
        </extensions>
      </trkpt>
      <trkpt lat="60.12138071469962596893310546875" lon="15.68538724444806575775146484375">
        <ele>191.600006103515625</ele>
        <time>2018-08-18T10:07:26.000Z</time>
        <extensions>
          <ns3:TrackPointExtension>
            <ns3:atemp>13.0</ns3:atemp>
          </ns3:TrackPointExtension>
        </extensions>
      </trkpt>
      <trkpt lat="60.1212783716619014739990234375" lon="15.6863410212099552154541015625">
        <ele>192.399993896484375</ele>
        <time>2018-08-18T10:07:37.000Z</time>
        <extensions>
          <ns3:TrackPointExtension>
            <ns3:atemp>13.0</ns3:atemp>
          </ns3:TrackPointExtension>
        </extensions>
      </trkpt>
      <trkpt lat="60.1212414912879467010498046875" lon="15.6867279298603534698486328125">
        <ele>192.600006103515625</ele>
        <time>2018-08-18T10:07:42.000Z</time>
        <extensions>
          <ns3:TrackPointExtension>
            <ns3:atemp>13.0</ns3:atemp>
          </ns3:TrackPointExtension>
        </extensions>
      </trkpt>
      <trkpt lat="60.1212173514068126678466796875" lon="15.68695901893079280853271484375">
        <ele>192.8000030517578125</ele>
        <time>2018-08-18T10:07:45.000Z</time>
        <extensions>
          <ns3:TrackPointExtension>
            <ns3:atemp>13.0</ns3:atemp>
          </ns3:TrackPointExtension>
        </extensions>
      </trkpt>
      <trkpt lat="60.12119212187826633453369140625" lon="15.68727334029972553253173828125">
        <ele>193</ele>
        <time>2018-08-18T10:07:49.000Z</time>
        <extensions>
          <ns3:TrackPointExtension>
            <ns3:atemp>13.0</ns3:atemp>
          </ns3:TrackPointExtension>
        </extensions>
      </trkpt>
      <trkpt lat="60.121148787438869476318359375" lon="15.68780123256146907806396484375">
        <ele>193.399993896484375</ele>
        <time>2018-08-18T10:07:56.000Z</time>
        <extensions>
          <ns3:TrackPointExtension>
            <ns3:atemp>13.0</ns3:atemp>
          </ns3:TrackPointExtension>
        </extensions>
      </trkpt>
      <trkpt lat="60.121132694184780120849609375" lon="15.68802385590970516204833984375">
        <ele>193.600006103515625</ele>
        <time>2018-08-18T10:07:59.000Z</time>
        <extensions>
          <ns3:TrackPointExtension>
            <ns3:atemp>13.0</ns3:atemp>
          </ns3:TrackPointExtension>
        </extensions>
      </trkpt>
      <trkpt lat="60.12111970223486423492431640625" lon="15.688402466475963592529296875">
        <ele>194</ele>
        <time>2018-08-18T10:08:04.000Z</time>
        <extensions>
          <ns3:TrackPointExtension>
            <ns3:atemp>13.0</ns3:atemp>
          </ns3:TrackPointExtension>
        </extensions>
      </trkpt>
      <trkpt lat="60.12110813520848751068115234375" lon="15.68879884667694568634033203125">
        <ele>194.1999969482421875</ele>
        <time>2018-08-18T10:08:09.000Z</time>
        <extensions>
          <ns3:TrackPointExtension>
            <ns3:atemp>13.0</ns3:atemp>
          </ns3:TrackPointExtension>
        </extensions>
      </trkpt>
      <trkpt lat="60.12111517600715160369873046875" lon="15.6892901100218296051025390625">
        <ele>194.600006103515625</ele>
        <time>2018-08-18T10:08:15.000Z</time>
        <extensions>
          <ns3:TrackPointExtension>
            <ns3:atemp>13.0</ns3:atemp>
          </ns3:TrackPointExtension>
        </extensions>
      </trkpt>
      <trkpt lat="60.12111651711165904998779296875" lon="15.68937602452933788299560546875">
        <ele>194.600006103515625</ele>
        <time>2018-08-18T10:08:16.000Z</time>
        <extensions>
          <ns3:TrackPointExtension>
            <ns3:atemp>13.0</ns3:atemp>
          </ns3:TrackPointExtension>
        </extensions>
      </trkpt>
      <trkpt lat="60.1211236417293548583984375" lon="15.68971415050327777862548828125">
        <ele>194.8000030517578125</ele>
        <time>2018-08-18T10:08:20.000Z</time>
        <extensions>
          <ns3:TrackPointExtension>
            <ns3:atemp>13.0</ns3:atemp>
          </ns3:TrackPointExtension>
        </extensions>
      </trkpt>
      <trkpt lat="60.1211291737854480743408203125" lon="15.68988882936537265777587890625">
        <ele>195</ele>
        <time>2018-08-18T10:08:22.000Z</time>
        <extensions>
          <ns3:TrackPointExtension>
            <ns3:atemp>13.0</ns3:atemp>
          </ns3:TrackPointExtension>
        </extensions>
      </trkpt>
      <trkpt lat="60.121135376393795013427734375" lon="15.6905356608331203460693359375">
        <ele>195.399993896484375</ele>
        <time>2018-08-18T10:08:29.000Z</time>
        <extensions>
          <ns3:TrackPointExtension>
            <ns3:atemp>13.0</ns3:atemp>
          </ns3:TrackPointExtension>
        </extensions>
      </trkpt>
      <trkpt lat="60.12117602862417697906494140625" lon="15.69164349697530269622802734375">
        <ele>195.8000030517578125</ele>
        <time>2018-08-18T10:08:39.000Z</time>
        <extensions>
          <ns3:TrackPointExtension>
            <ns3:atemp>13.0</ns3:atemp>
          </ns3:TrackPointExtension>
        </extensions>
      </trkpt>
      <trkpt lat="60.12120134197175502777099609375" lon="15.69250515662133693695068359375">
        <ele>196</ele>
        <time>2018-08-18T10:08:47.000Z</time>
        <extensions>
          <ns3:TrackPointExtension>
            <ns3:atemp>13.0</ns3:atemp>
          </ns3:TrackPointExtension>
        </extensions>
      </trkpt>
      <trkpt lat="60.121217183768749237060546875" lon="15.693664960563182830810546875">
        <ele>196</ele>
        <time>2018-08-18T10:08:58.000Z</time>
        <extensions>
          <ns3:TrackPointExtension>
            <ns3:atemp>13.0</ns3:atemp>
          </ns3:TrackPointExtension>
        </extensions>
      </trkpt>
      <trkpt lat="60.1212129928171634674072265625" lon="15.69486918859183788299560546875">
        <ele>196.1999969482421875</ele>
        <time>2018-08-18T10:09:08.000Z</time>
        <extensions>
          <ns3:TrackPointExtension>
            <ns3:atemp>13.0</ns3:atemp>
          </ns3:TrackPointExtension>
        </extensions>
      </trkpt>
      <trkpt lat="60.1211818121373653411865234375" lon="15.69606495089828968048095703125">
        <ele>196.399993896484375</ele>
        <time>2018-08-18T10:09:17.000Z</time>
        <extensions>
          <ns3:TrackPointExtension>
            <ns3:atemp>13.0</ns3:atemp>
          </ns3:TrackPointExtension>
        </extensions>
      </trkpt>
      <trkpt lat="60.1211388967931270599365234375" lon="15.69718376733362674713134765625">
        <ele>196.600006103515625</ele>
        <time>2018-08-18T10:09:25.000Z</time>
        <extensions>
          <ns3:TrackPointExtension>
            <ns3:atemp>13.0</ns3:atemp>
          </ns3:TrackPointExtension>
        </extensions>
      </trkpt>
      <trkpt lat="60.12112439610064029693603515625" lon="15.69761753082275390625">
        <ele>196.600006103515625</ele>
        <time>2018-08-18T10:09:28.000Z</time>
        <extensions>
          <ns3:TrackPointExtension>
            <ns3:atemp>13.0</ns3:atemp>
          </ns3:TrackPointExtension>
        </extensions>
      </trkpt>
      <trkpt lat="60.12108743190765380859375" lon="15.6988407857716083526611328125">
        <ele>196.8000030517578125</ele>
        <time>2018-08-18T10:09:36.000Z</time>
        <extensions>
          <ns3:TrackPointExtension>
            <ns3:atemp>13.0</ns3:atemp>
          </ns3:TrackPointExtension>
        </extensions>
      </trkpt>
      <trkpt lat="60.12106664478778839111328125" lon="15.69969934411346912384033203125">
        <ele>197</ele>
        <time>2018-08-18T10:09:42.000Z</time>
        <extensions>
          <ns3:TrackPointExtension>
            <ns3:atemp>13.0</ns3:atemp>
          </ns3:TrackPointExtension>
        </extensions>
      </trkpt>
      <trkpt lat="60.121032781898975372314453125" lon="15.70082989521324634552001953125">
        <ele>197.600006103515625</ele>
        <time>2018-08-18T10:09:50.000Z</time>
        <extensions>
          <ns3:TrackPointExtension>
            <ns3:atemp>13.0</ns3:atemp>
          </ns3:TrackPointExtension>
        </extensions>
      </trkpt>
      <trkpt lat="60.12097670696675777435302734375" lon="15.70192825980484485626220703125">
        <ele>198.1999969482421875</ele>
        <time>2018-08-18T10:09:58.000Z</time>
        <extensions>
          <ns3:TrackPointExtension>
            <ns3:atemp>13.0</ns3:atemp>
          </ns3:TrackPointExtension>
        </extensions>
      </trkpt>
      <trkpt lat="60.1209135912358760833740234375" lon="15.7024570740759372711181640625">
        <ele>198.600006103515625</ele>
        <time>2018-08-18T10:10:02.000Z</time>
        <extensions>
          <ns3:TrackPointExtension>
            <ns3:atemp>13.0</ns3:atemp>
          </ns3:TrackPointExtension>
        </extensions>
      </trkpt>
      <trkpt lat="60.120729692280292510986328125" lon="15.70351696573197841644287109375">
        <ele>199.399993896484375</ele>
        <time>2018-08-18T10:10:10.000Z</time>
        <extensions>
          <ns3:TrackPointExtension>
            <ns3:atemp>13.0</ns3:atemp>
          </ns3:TrackPointExtension>
        </extensions>
      </trkpt>
      <trkpt lat="60.12055844999849796295166015625" lon="15.70456688292324542999267578125">
        <ele>200</ele>
        <time>2018-08-18T10:10:18.000Z</time>
        <extensions>
          <ns3:TrackPointExtension>
            <ns3:atemp>13.0</ns3:atemp>
          </ns3:TrackPointExtension>
        </extensions>
      </trkpt>
      <trkpt lat="60.1204021275043487548828125" lon="15.70560825057327747344970703125">
        <ele>200.8000030517578125</ele>
        <time>2018-08-18T10:10:26.000Z</time>
        <extensions>
          <ns3:TrackPointExtension>
            <ns3:atemp>13.0</ns3:atemp>
          </ns3:TrackPointExtension>
        </extensions>
      </trkpt>
      <trkpt lat="60.12031319551169872283935546875" lon="15.7067777775228023529052734375">
        <ele>201.399993896484375</ele>
        <time>2018-08-18T10:10:35.000Z</time>
        <extensions>
          <ns3:TrackPointExtension>
            <ns3:atemp>13.0</ns3:atemp>
          </ns3:TrackPointExtension>
        </extensions>
      </trkpt>
      <trkpt lat="60.12030531652271747589111328125" lon="15.70691146887838840484619140625">
        <ele>201.600006103515625</ele>
        <time>2018-08-18T10:10:36.000Z</time>
        <extensions>
          <ns3:TrackPointExtension>
            <ns3:atemp>13.0</ns3:atemp>
          </ns3:TrackPointExtension>
        </extensions>
      </trkpt>
      <trkpt lat="60.12030229903757572174072265625" lon="15.70800103247165679931640625">
        <ele>202</ele>
        <time>2018-08-18T10:10:44.000Z</time>
        <extensions>
          <ns3:TrackPointExtension>
            <ns3:atemp>13.0</ns3:atemp>
          </ns3:TrackPointExtension>
        </extensions>
      </trkpt>
      <trkpt lat="60.1203191466629505157470703125" lon="15.7090834714472293853759765625">
        <ele>202.600006103515625</ele>
        <time>2018-08-18T10:10:52.000Z</time>
        <extensions>
          <ns3:TrackPointExtension>
            <ns3:atemp>13.0</ns3:atemp>
          </ns3:TrackPointExtension>
        </extensions>
      </trkpt>
      <trkpt lat="60.12033163569867610931396484375" lon="15.71018778719007968902587890625">
        <ele>203.1999969482421875</ele>
        <time>2018-08-18T10:11:00.000Z</time>
        <extensions>
          <ns3:TrackPointExtension>
            <ns3:atemp>13.0</ns3:atemp>
          </ns3:TrackPointExtension>
        </extensions>
      </trkpt>
      <trkpt lat="60.1203382574021816253662109375" lon="15.71128078736364841461181640625">
        <ele>203.8000030517578125</ele>
        <time>2018-08-18T10:11:08.000Z</time>
        <extensions>
          <ns3:TrackPointExtension>
            <ns3:atemp>13.0</ns3:atemp>
          </ns3:TrackPointExtension>
        </extensions>
      </trkpt>
      <trkpt lat="60.1203452982008457183837890625" lon="15.7123819179832935333251953125">
        <ele>204.600006103515625</ele>
        <time>2018-08-18T10:11:16.000Z</time>
        <extensions>
          <ns3:TrackPointExtension>
            <ns3:atemp>13.0</ns3:atemp>
          </ns3:TrackPointExtension>
        </extensions>
      </trkpt>
      <trkpt lat="60.12035074643790721893310546875" lon="15.7128073833882808685302734375">
        <ele>204.8000030517578125</ele>
        <time>2018-08-18T10:11:19.000Z</time>
        <extensions>
          <ns3:TrackPointExtension>
            <ns3:atemp>13.0</ns3:atemp>
          </ns3:TrackPointExtension>
        </extensions>
      </trkpt>
      <trkpt lat="60.12034244835376739501953125" lon="15.71390834636986255645751953125">
        <ele>205.399993896484375</ele>
        <time>2018-08-18T10:11:27.000Z</time>
        <extensions>
          <ns3:TrackPointExtension>
            <ns3:atemp>13.0</ns3:atemp>
          </ns3:TrackPointExtension>
        </extensions>
      </trkpt>
      <trkpt lat="60.1202953420579433441162109375" lon="15.71510461159050464630126953125">
        <ele>206.1999969482421875</ele>
        <time>2018-08-18T10:11:36.000Z</time>
        <extensions>
          <ns3:TrackPointExtension>
            <ns3:atemp>13.0</ns3:atemp>
          </ns3:TrackPointExtension>
        </extensions>
      </trkpt>
      <trkpt lat="60.12025049887597560882568359375" lon="15.7161966897547245025634765625">
        <ele>206.399993896484375</ele>
        <time>2018-08-18T10:11:44.000Z</time>
        <extensions>
          <ns3:TrackPointExtension>
            <ns3:atemp>13.0</ns3:atemp>
          </ns3:TrackPointExtension>
        </extensions>
      </trkpt>
      <trkpt lat="60.12024764902889728546142578125" lon="15.717018954455852508544921875">
        <ele>205.8000030517578125</ele>
        <time>2018-08-18T10:11:50.000Z</time>
        <extensions>
          <ns3:TrackPointExtension>
            <ns3:atemp>13.0</ns3:atemp>
          </ns3:TrackPointExtension>
        </extensions>
      </trkpt>
      <trkpt lat="60.12028318829834461212158203125" lon="15.71810382418334484100341796875">
        <ele>205.1999969482421875</ele>
        <time>2018-08-18T10:11:58.000Z</time>
        <extensions>
          <ns3:TrackPointExtension>
            <ns3:atemp>13.0</ns3:atemp>
          </ns3:TrackPointExtension>
        </extensions>
      </trkpt>
      <trkpt lat="60.1203043945133686065673828125" lon="15.71851403452455997467041015625">
        <ele>204.8000030517578125</ele>
        <time>2018-08-18T10:12:01.000Z</time>
        <extensions>
          <ns3:TrackPointExtension>
            <ns3:atemp>13.0</ns3:atemp>
          </ns3:TrackPointExtension>
        </extensions>
      </trkpt>
      <trkpt lat="60.12037270702421665191650390625" lon="15.71932557038962841033935546875">
        <ele>204.1999969482421875</ele>
        <time>2018-08-18T10:12:07.000Z</time>
        <extensions>
          <ns3:TrackPointExtension>
            <ns3:atemp>13.0</ns3:atemp>
          </ns3:TrackPointExtension>
        </extensions>
      </trkpt>
      <trkpt lat="60.1204810850322246551513671875" lon="15.72038345038890838623046875">
        <ele>203.399993896484375</ele>
        <time>2018-08-18T10:12:15.000Z</time>
        <extensions>
          <ns3:TrackPointExtension>
            <ns3:atemp>13.0</ns3:atemp>
          </ns3:TrackPointExtension>
        </extensions>
      </trkpt>
      <trkpt lat="60.120599605143070220947265625" lon="15.72150955908000469207763671875">
        <ele>202.600006103515625</ele>
        <time>2018-08-18T10:12:24.000Z</time>
        <extensions>
          <ns3:TrackPointExtension>
            <ns3:atemp>13.0</ns3:atemp>
          </ns3:TrackPointExtension>
        </extensions>
      </trkpt>
      <trkpt lat="60.12070186436176300048828125" lon="15.722376666963100433349609375">
        <ele>201.8000030517578125</ele>
        <time>2018-08-18T10:12:32.000Z</time>
        <extensions>
          <ns3:TrackPointExtension>
            <ns3:atemp>13.0</ns3:atemp>
          </ns3:TrackPointExtension>
        </extensions>
      </trkpt>
      <trkpt lat="60.120719633996486663818359375" lon="15.7225692830979824066162109375">
        <ele>201.600006103515625</ele>
        <time>2018-08-18T10:12:34.000Z</time>
        <extensions>
          <ns3:TrackPointExtension>
            <ns3:atemp>13.0</ns3:atemp>
          </ns3:TrackPointExtension>
        </extensions>
      </trkpt>
      <trkpt lat="60.120757520198822021484375" lon="15.7229283638298511505126953125">
        <ele>201.399993896484375</ele>
        <time>2018-08-18T10:12:38.000Z</time>
        <extensions>
          <ns3:TrackPointExtension>
            <ns3:atemp>13.0</ns3:atemp>
          </ns3:TrackPointExtension>
        </extensions>
      </trkpt>
      <trkpt lat="60.1207881979644298553466796875" lon="15.72328635491430759429931640625">
        <ele>201.1999969482421875</ele>
        <time>2018-08-18T10:12:42.000Z</time>
        <extensions>
          <ns3:TrackPointExtension>
            <ns3:atemp>13.0</ns3:atemp>
          </ns3:TrackPointExtension>
        </extensions>
      </trkpt>
      <trkpt lat="60.12082046829164028167724609375" lon="15.72364359162747859954833984375">
        <ele>200.8000030517578125</ele>
        <time>2018-08-18T10:12:46.000Z</time>
        <extensions>
          <ns3:TrackPointExtension>
            <ns3:atemp>13.0</ns3:atemp>
          </ns3:TrackPointExtension>
        </extensions>
      </trkpt>
      <trkpt lat="60.12088500894606113433837890625" lon="15.72428204119205474853515625">
        <ele>200.399993896484375</ele>
        <time>2018-08-18T10:12:53.000Z</time>
        <extensions>
          <ns3:TrackPointExtension>
            <ns3:atemp>13.0</ns3:atemp>
          </ns3:TrackPointExtension>
        </extensions>
      </trkpt>
      <trkpt lat="60.12095172889530658721923828125" lon="15.7249128632247447967529296875">
        <ele>200</ele>
        <time>2018-08-18T10:13:00.000Z</time>
        <extensions>
          <ns3:TrackPointExtension>
            <ns3:atemp>13.0</ns3:atemp>
          </ns3:TrackPointExtension>
        </extensions>
      </trkpt>
      <trkpt lat="60.12102347798645496368408203125" lon="15.7255777157843112945556640625">
        <ele>199.399993896484375</ele>
        <time>2018-08-18T10:13:07.000Z</time>
        <extensions>
          <ns3:TrackPointExtension>
            <ns3:atemp>13.0</ns3:atemp>
          </ns3:TrackPointExtension>
        </extensions>
      </trkpt>
      <trkpt lat="60.12114451266825199127197265625" lon="15.72669393382966518402099609375">
        <ele>198.399993896484375</ele>
        <time>2018-08-18T10:13:18.000Z</time>
        <extensions>
          <ns3:TrackPointExtension>
            <ns3:atemp>13.0</ns3:atemp>
          </ns3:TrackPointExtension>
        </extensions>
      </trkpt>
      <trkpt lat="60.1212657988071441650390625" lon="15.727770589292049407958984375">
        <ele>197.1999969482421875</ele>
        <time>2018-08-18T10:13:27.000Z</time>
        <extensions>
          <ns3:TrackPointExtension>
            <ns3:atemp>13.0</ns3:atemp>
          </ns3:TrackPointExtension>
        </extensions>
      </trkpt>
      <trkpt lat="60.12140066362917423248291015625" lon="15.728879012167453765869140625">
        <ele>196.1999969482421875</ele>
        <time>2018-08-18T10:13:35.000Z</time>
        <extensions>
          <ns3:TrackPointExtension>
            <ns3:atemp>13.0</ns3:atemp>
          </ns3:TrackPointExtension>
        </extensions>
      </trkpt>
      <trkpt lat="60.12144542299211025238037109375" lon="15.72928461246192455291748046875">
        <ele>195.8000030517578125</ele>
        <time>2018-08-18T10:13:38.000Z</time>
        <extensions>
          <ns3:TrackPointExtension>
            <ns3:atemp>13.0</ns3:atemp>
          </ns3:TrackPointExtension>
        </extensions>
      </trkpt>
      <trkpt lat="60.12157148681581020355224609375" lon="15.730458833277225494384765625">
        <ele>194.600006103515625</ele>
        <time>2018-08-18T10:13:47.000Z</time>
        <extensions>
          <ns3:TrackPointExtension>
            <ns3:atemp>13.0</ns3:atemp>
          </ns3:TrackPointExtension>
        </extensions>
      </trkpt>
      <trkpt lat="60.121687240898609161376953125" lon="15.731528699398040771484375">
        <ele>193.600006103515625</ele>
        <time>2018-08-18T10:13:54.000Z</time>
        <extensions>
          <ns3:TrackPointExtension>
            <ns3:atemp>13.0</ns3:atemp>
          </ns3:TrackPointExtension>
        </extensions>
      </trkpt>
      <trkpt lat="60.12174968607723712921142578125" lon="15.73211417533457279205322265625">
        <ele>193</ele>
        <time>2018-08-18T10:13:58.000Z</time>
        <extensions>
          <ns3:TrackPointExtension>
            <ns3:atemp>13.0</ns3:atemp>
          </ns3:TrackPointExtension>
        </extensions>
      </trkpt>
      <trkpt lat="60.1217983849346637725830078125" lon="15.73254726827144622802734375">
        <ele>192.600006103515625</ele>
        <time>2018-08-18T10:14:01.000Z</time>
        <extensions>
          <ns3:TrackPointExtension>
            <ns3:atemp>13.0</ns3:atemp>
          </ns3:TrackPointExtension>
        </extensions>
      </trkpt>
      <trkpt lat="60.1219150610268115997314453125" lon="15.73370271362364292144775390625">
        <ele>191.399993896484375</ele>
        <time>2018-08-18T10:14:09.000Z</time>
        <extensions>
          <ns3:TrackPointExtension>
            <ns3:atemp>13.0</ns3:atemp>
          </ns3:TrackPointExtension>
        </extensions>
      </trkpt>
      <trkpt lat="60.12196040712296962738037109375" lon="15.73413924314081668853759765625">
        <ele>191</ele>
        <time>2018-08-18T10:14:12.000Z</time>
        <extensions>
          <ns3:TrackPointExtension>
            <ns3:atemp>13.0</ns3:atemp>
          </ns3:TrackPointExtension>
        </extensions>
      </trkpt>
      <trkpt lat="60.12207658030092716217041015625" lon="15.73523157276213169097900390625">
        <ele>190.1999969482421875</ele>
        <time>2018-08-18T10:14:19.000Z</time>
        <extensions>
          <ns3:TrackPointExtension>
            <ns3:atemp>13.0</ns3:atemp>
          </ns3:TrackPointExtension>
        </extensions>
      </trkpt>
      <trkpt lat="60.1221289671957492828369140625" lon="15.73571629822254180908203125">
        <ele>189.8000030517578125</ele>
        <time>2018-08-18T10:14:22.000Z</time>
        <extensions>
          <ns3:TrackPointExtension>
            <ns3:atemp>13.0</ns3:atemp>
          </ns3:TrackPointExtension>
        </extensions>
      </trkpt>
      <trkpt lat="60.122197531163692474365234375" lon="15.7363511435687541961669921875">
        <ele>189.399993896484375</ele>
        <time>2018-08-18T10:14:26.000Z</time>
        <extensions>
          <ns3:TrackPointExtension>
            <ns3:atemp>13.0</ns3:atemp>
          </ns3:TrackPointExtension>
        </extensions>
      </trkpt>
      <trkpt lat="60.1222731359302997589111328125" lon="15.73697769083082675933837890625">
        <ele>189</ele>
        <time>2018-08-18T10:14:30.000Z</time>
        <extensions>
          <ns3:TrackPointExtension>
            <ns3:atemp>13.0</ns3:atemp>
          </ns3:TrackPointExtension>
        </extensions>
      </trkpt>
      <trkpt lat="60.12238495051860809326171875" lon="15.738093070685863494873046875">
        <ele>188.399993896484375</ele>
        <time>2018-08-18T10:14:37.000Z</time>
        <extensions>
          <ns3:TrackPointExtension>
            <ns3:atemp>13.0</ns3:atemp>
          </ns3:TrackPointExtension>
        </extensions>
      </trkpt>
      <trkpt lat="60.12242652475833892822265625" lon="15.73857058770954608917236328125">
        <ele>188</ele>
        <time>2018-08-18T10:14:40.000Z</time>
        <extensions>
          <ns3:TrackPointExtension>
            <ns3:atemp>13.0</ns3:atemp>
          </ns3:TrackPointExtension>
        </extensions>
      </trkpt>
      <trkpt lat="60.1224840246140956878662109375" lon="15.73976048268377780914306640625">
        <ele>187.399993896484375</ele>
        <time>2018-08-18T10:14:48.000Z</time>
        <extensions>
          <ns3:TrackPointExtension>
            <ns3:atemp>13.0</ns3:atemp>
          </ns3:TrackPointExtension>
        </extensions>
      </trkpt>
      <trkpt lat="60.122393667697906494140625" lon="15.74091039597988128662109375">
        <ele>186.8000030517578125</ele>
        <time>2018-08-18T10:14:57.000Z</time>
        <extensions>
          <ns3:TrackPointExtension>
            <ns3:atemp>13.0</ns3:atemp>
          </ns3:TrackPointExtension>
        </extensions>
      </trkpt>
      <trkpt lat="60.12237883172929286956787109375" lon="15.7410356216132640838623046875">
        <ele>186.8000030517578125</ele>
        <time>2018-08-18T10:14:58.000Z</time>
        <extensions>
          <ns3:TrackPointExtension>
            <ns3:atemp>13.0</ns3:atemp>
          </ns3:TrackPointExtension>
        </extensions>
      </trkpt>
      <trkpt lat="60.122245140373706817626953125" lon="15.7421333156526088714599609375">
        <ele>186</ele>
        <time>2018-08-18T10:15:07.000Z</time>
        <extensions>
          <ns3:TrackPointExtension>
            <ns3:atemp>13.0</ns3:atemp>
          </ns3:TrackPointExtension>
        </extensions>
      </trkpt>
      <trkpt lat="60.12205411680042743682861328125" lon="15.74323075823485851287841796875">
        <ele>185.399993896484375</ele>
        <time>2018-08-18T10:15:16.000Z</time>
        <extensions>
          <ns3:TrackPointExtension>
            <ns3:atemp>13.0</ns3:atemp>
          </ns3:TrackPointExtension>
        </extensions>
      </trkpt>
      <trkpt lat="60.12177650816738605499267578125" lon="15.7442224211990833282470703125">
        <ele>185.399993896484375</ele>
        <time>2018-08-18T10:15:24.000Z</time>
        <extensions>
          <ns3:TrackPointExtension>
            <ns3:atemp>13.0</ns3:atemp>
          </ns3:TrackPointExtension>
        </extensions>
      </trkpt>
      <trkpt lat="60.1215304993093013763427734375" lon="15.74496514163911342620849609375">
        <ele>185.399993896484375</ele>
        <time>2018-08-18T10:15:31.000Z</time>
        <extensions>
          <ns3:TrackPointExtension>
            <ns3:atemp>13.0</ns3:atemp>
          </ns3:TrackPointExtension>
        </extensions>
      </trkpt>
      <trkpt lat="60.12122087180614471435546875" lon="15.745924450457096099853515625">
        <ele>185.399993896484375</ele>
        <time>2018-08-18T10:15:40.000Z</time>
        <extensions>
          <ns3:TrackPointExtension>
            <ns3:atemp>13.0</ns3:atemp>
          </ns3:TrackPointExtension>
        </extensions>
      </trkpt>
      <trkpt lat="60.12090244330465793609619140625" lon="15.7468553446233272552490234375">
        <ele>185.600006103515625</ele>
        <time>2018-08-18T10:15:50.000Z</time>
        <extensions>
          <ns3:TrackPointExtension>
            <ns3:atemp>13.0</ns3:atemp>
          </ns3:TrackPointExtension>
        </extensions>
      </trkpt>
      <trkpt lat="60.12082063592970371246337890625" lon="15.74710655026137828826904296875">
        <ele>185.600006103515625</ele>
        <time>2018-08-18T10:15:53.000Z</time>
        <extensions>
          <ns3:TrackPointExtension>
            <ns3:atemp>13.0</ns3:atemp>
          </ns3:TrackPointExtension>
        </extensions>
      </trkpt>
      <trkpt lat="60.1207596994936466217041015625" lon="15.7472801394760608673095703125">
        <ele>185.600006103515625</ele>
        <time>2018-08-18T10:15:55.000Z</time>
        <extensions>
          <ns3:TrackPointExtension>
            <ns3:atemp>13.0</ns3:atemp>
          </ns3:TrackPointExtension>
        </extensions>
      </trkpt>
      <trkpt lat="60.12057320214807987213134765625" lon="15.7478450797498226165771484375">
        <ele>185.600006103515625</ele>
        <time>2018-08-18T10:16:01.000Z</time>
        <extensions>
          <ns3:TrackPointExtension>
            <ns3:atemp>13.0</ns3:atemp>
          </ns3:TrackPointExtension>
        </extensions>
      </trkpt>
      <trkpt lat="60.12035342864692211151123046875" lon="15.7489447854459285736083984375">
        <ele>185.399993896484375</ele>
        <time>2018-08-18T10:16:10.000Z</time>
        <extensions>
          <ns3:TrackPointExtension>
            <ns3:atemp>13.0</ns3:atemp>
          </ns3:TrackPointExtension>
        </extensions>
      </trkpt>
      <trkpt lat="60.12031939812004566192626953125" lon="15.7499509491026401519775390625">
        <ele>185</ele>
        <time>2018-08-18T10:16:16.000Z</time>
        <extensions>
          <ns3:TrackPointExtension>
            <ns3:atemp>13.0</ns3:atemp>
          </ns3:TrackPointExtension>
        </extensions>
      </trkpt>
      <trkpt lat="60.1203395985066890716552734375" lon="15.750479511916637420654296875">
        <ele>184.8000030517578125</ele>
        <time>2018-08-18T10:16:19.000Z</time>
        <extensions>
          <ns3:TrackPointExtension>
            <ns3:atemp>13.0</ns3:atemp>
          </ns3:TrackPointExtension>
        </extensions>
      </trkpt>
      <trkpt lat="60.1203726232051849365234375" lon="15.75101670809090137481689453125">
        <ele>184.8000030517578125</ele>
        <time>2018-08-18T10:16:22.000Z</time>
        <extensions>
          <ns3:TrackPointExtension>
            <ns3:atemp>13.0</ns3:atemp>
          </ns3:TrackPointExtension>
        </extensions>
      </trkpt>
      <trkpt lat="60.12040807865560054779052734375" lon="15.7515500485897064208984375">
        <ele>184.600006103515625</ele>
        <time>2018-08-18T10:16:25.000Z</time>
        <extensions>
          <ns3:TrackPointExtension>
            <ns3:atemp>13.0</ns3:atemp>
          </ns3:TrackPointExtension>
        </extensions>
      </trkpt>
      <trkpt lat="60.12045376002788543701171875" lon="15.7522506080567836761474609375">
        <ele>184.399993896484375</ele>
        <time>2018-08-18T10:16:29.000Z</time>
        <extensions>
          <ns3:TrackPointExtension>
            <ns3:atemp>13.0</ns3:atemp>
          </ns3:TrackPointExtension>
        </extensions>
      </trkpt>
      <trkpt lat="60.12048670090734958648681640625" lon="15.75274170376360416412353515625">
        <ele>184.1999969482421875</ele>
        <time>2018-08-18T10:16:32.000Z</time>
        <extensions>
          <ns3:TrackPointExtension>
            <ns3:atemp>13.0</ns3:atemp>
          </ns3:TrackPointExtension>
        </extensions>
      </trkpt>
      <trkpt lat="60.1205243356525897979736328125" lon="15.7533417642116546630859375">
        <ele>184</ele>
        <time>2018-08-18T10:16:36.000Z</time>
        <extensions>
          <ns3:TrackPointExtension>
            <ns3:atemp>13.0</ns3:atemp>
          </ns3:TrackPointExtension>
        </extensions>
      </trkpt>
      <trkpt lat="60.120598934590816497802734375" lon="15.754345245659351348876953125">
        <ele>183.600006103515625</ele>
        <time>2018-08-18T10:16:43.000Z</time>
        <extensions>
          <ns3:TrackPointExtension>
            <ns3:atemp>13.0</ns3:atemp>
          </ns3:TrackPointExtension>
        </extensions>
      </trkpt>
      <trkpt lat="60.12064553797245025634765625" lon="15.75547688640654087066650390625">
        <ele>183.399993896484375</ele>
        <time>2018-08-18T10:16:51.000Z</time>
        <extensions>
          <ns3:TrackPointExtension>
            <ns3:atemp>13.0</ns3:atemp>
          </ns3:TrackPointExtension>
        </extensions>
      </trkpt>
      <trkpt lat="60.120645873248577117919921875" lon="15.75659930706024169921875">
        <ele>183.1999969482421875</ele>
        <time>2018-08-18T10:16:59.000Z</time>
        <extensions>
          <ns3:TrackPointExtension>
            <ns3:atemp>13.0</ns3:atemp>
          </ns3:TrackPointExtension>
        </extensions>
      </trkpt>
      <trkpt lat="60.12062382884323596954345703125" lon="15.75770798139274120330810546875">
        <ele>183.1999969482421875</ele>
        <time>2018-08-18T10:17:07.000Z</time>
        <extensions>
          <ns3:TrackPointExtension>
            <ns3:atemp>13.0</ns3:atemp>
          </ns3:TrackPointExtension>
        </extensions>
      </trkpt>
      <trkpt lat="60.12060153298079967498779296875" lon="15.75891581363976001739501953125">
        <ele>182.600006103515625</ele>
        <time>2018-08-18T10:17:16.000Z</time>
        <extensions>
          <ns3:TrackPointExtension>
            <ns3:atemp>13.0</ns3:atemp>
          </ns3:TrackPointExtension>
        </extensions>
      </trkpt>
      <trkpt lat="60.12058963067829608917236328125" lon="15.7601041160523891448974609375">
        <ele>182</ele>
        <time>2018-08-18T10:17:25.000Z</time>
        <extensions>
          <ns3:TrackPointExtension>
            <ns3:atemp>13.0</ns3:atemp>
          </ns3:TrackPointExtension>
        </extensions>
      </trkpt>
      <trkpt lat="60.12064310722053050994873046875" lon="15.761300213634967803955078125">
        <ele>181.1999969482421875</ele>
        <time>2018-08-18T10:17:34.000Z</time>
        <extensions>
          <ns3:TrackPointExtension>
            <ns3:atemp>13.0</ns3:atemp>
          </ns3:TrackPointExtension>
        </extensions>
      </trkpt>
      <trkpt lat="60.12074955739080905914306640625" lon="15.7623672299087047576904296875">
        <ele>180.1999969482421875</ele>
        <time>2018-08-18T10:17:42.000Z</time>
        <extensions>
          <ns3:TrackPointExtension>
            <ns3:atemp>13.0</ns3:atemp>
          </ns3:TrackPointExtension>
        </extensions>
      </trkpt>
      <trkpt lat="60.12086723931133747100830078125" lon="15.7634367607533931732177734375">
        <ele>179.1999969482421875</ele>
        <time>2018-08-18T10:17:50.000Z</time>
        <extensions>
          <ns3:TrackPointExtension>
            <ns3:atemp>13.0</ns3:atemp>
          </ns3:TrackPointExtension>
        </extensions>
      </trkpt>
      <trkpt lat="60.12097469530999660491943359375" lon="15.7645200379192829132080078125">
        <ele>178.399993896484375</ele>
        <time>2018-08-18T10:17:58.000Z</time>
        <extensions>
          <ns3:TrackPointExtension>
            <ns3:atemp>13.0</ns3:atemp>
          </ns3:TrackPointExtension>
        </extensions>
      </trkpt>
      <trkpt lat="60.12109824456274509429931640625" lon="15.76559987850487232208251953125">
        <ele>177.399993896484375</ele>
        <time>2018-08-18T10:18:06.000Z</time>
        <extensions>
          <ns3:TrackPointExtension>
            <ns3:atemp>13.0</ns3:atemp>
          </ns3:TrackPointExtension>
        </extensions>
      </trkpt>
      <trkpt lat="60.1212096400558948516845703125" lon="15.7667727582156658172607421875">
        <ele>177.399993896484375</ele>
        <time>2018-08-18T10:18:15.000Z</time>
        <extensions>
          <ns3:TrackPointExtension>
            <ns3:atemp>13.0</ns3:atemp>
          </ns3:TrackPointExtension>
        </extensions>
      </trkpt>
      <trkpt lat="60.121331177651882171630859375" lon="15.7679643295705318450927734375">
        <ele>176</ele>
        <time>2018-08-18T10:18:24.000Z</time>
        <extensions>
          <ns3:TrackPointExtension>
            <ns3:atemp>13.0</ns3:atemp>
          </ns3:TrackPointExtension>
        </extensions>
      </trkpt>
      <trkpt lat="60.1214476861059665679931640625" lon="15.7690697349607944488525390625">
        <ele>174.1999969482421875</ele>
        <time>2018-08-18T10:18:32.000Z</time>
        <extensions>
          <ns3:TrackPointExtension>
            <ns3:atemp>13.0</ns3:atemp>
          </ns3:TrackPointExtension>
        </extensions>
      </trkpt>
      <trkpt lat="60.12155874632298946380615234375" lon="15.7702599652111530303955078125">
        <ele>172.1999969482421875</ele>
        <time>2018-08-18T10:18:41.000Z</time>
        <extensions>
          <ns3:TrackPointExtension>
            <ns3:atemp>13.0</ns3:atemp>
          </ns3:TrackPointExtension>
        </extensions>
      </trkpt>
      <trkpt lat="60.12166201137006282806396484375" lon="15.77132052741944789886474609375">
        <ele>170.600006103515625</ele>
        <time>2018-08-18T10:18:48.000Z</time>
        <extensions>
          <ns3:TrackPointExtension>
            <ns3:atemp>13.0</ns3:atemp>
          </ns3:TrackPointExtension>
        </extensions>
      </trkpt>
      <trkpt lat="60.1216788589954376220703125" lon="15.77222359366714954376220703125">
        <ele>169.1999969482421875</ele>
        <time>2018-08-18T10:18:53.000Z</time>
        <extensions>
          <ns3:TrackPointExtension>
            <ns3:atemp>13.0</ns3:atemp>
          </ns3:TrackPointExtension>
        </extensions>
      </trkpt>
      <trkpt lat="60.1216615922749042510986328125" lon="15.77260748483240604400634765625">
        <ele>168.600006103515625</ele>
        <time>2018-08-18T10:18:55.000Z</time>
        <extensions>
          <ns3:TrackPointExtension>
            <ns3:atemp>13.0</ns3:atemp>
          </ns3:TrackPointExtension>
        </extensions>
      </trkpt>
      <trkpt lat="60.1216220296919345855712890625" lon="15.77316672541201114654541015625">
        <ele>167.8000030517578125</ele>
        <time>2018-08-18T10:18:58.000Z</time>
        <extensions>
          <ns3:TrackPointExtension>
            <ns3:atemp>13.0</ns3:atemp>
          </ns3:TrackPointExtension>
        </extensions>
      </trkpt>
      <trkpt lat="60.121579952538013458251953125" lon="15.7736744172871112823486328125">
        <ele>167</ele>
        <time>2018-08-18T10:19:01.000Z</time>
        <extensions>
          <ns3:TrackPointExtension>
            <ns3:atemp>13.0</ns3:atemp>
          </ns3:TrackPointExtension>
        </extensions>
      </trkpt>
      <trkpt lat="60.12154919095337390899658203125" lon="15.77399016357958316802978515625">
        <ele>166.399993896484375</ele>
        <time>2018-08-18T10:19:03.000Z</time>
        <extensions>
          <ns3:TrackPointExtension>
            <ns3:atemp>13.0</ns3:atemp>
          </ns3:TrackPointExtension>
        </extensions>
      </trkpt>
      <trkpt lat="60.1214939542114734649658203125" lon="15.77445301227271556854248046875">
        <ele>166</ele>
        <time>2018-08-18T10:19:06.000Z</time>
        <extensions>
          <ns3:TrackPointExtension>
            <ns3:atemp>13.0</ns3:atemp>
          </ns3:TrackPointExtension>
        </extensions>
      </trkpt>
      <trkpt lat="60.12124341912567615509033203125" lon="15.7755097188055515289306640625">
        <ele>165.399993896484375</ele>
        <time>2018-08-18T10:19:13.000Z</time>
        <extensions>
          <ns3:TrackPointExtension>
            <ns3:atemp>13.0</ns3:atemp>
          </ns3:TrackPointExtension>
        </extensions>
      </trkpt>
      <trkpt lat="60.12113906443119049072265625" lon="15.7757997326552867889404296875">
        <ele>165</ele>
        <time>2018-08-18T10:19:15.000Z</time>
        <extensions>
          <ns3:TrackPointExtension>
            <ns3:atemp>13.0</ns3:atemp>
          </ns3:TrackPointExtension>
        </extensions>
      </trkpt>
      <trkpt lat="60.12089632451534271240234375" lon="15.77643491327762603759765625">
        <ele>164.399993896484375</ele>
        <time>2018-08-18T10:19:19.000Z</time>
        <extensions>
          <ns3:TrackPointExtension>
            <ns3:atemp>13.0</ns3:atemp>
          </ns3:TrackPointExtension>
        </extensions>
      </trkpt>
      <trkpt lat="60.12065886519849300384521484375" lon="15.7771597802639007568359375">
        <ele>163.600006103515625</ele>
        <time>2018-08-18T10:19:23.000Z</time>
        <extensions>
          <ns3:TrackPointExtension>
            <ns3:atemp>13.0</ns3:atemp>
          </ns3:TrackPointExtension>
        </extensions>
      </trkpt>
      <trkpt lat="60.12057781219482421875" lon="15.77752120792865753173828125">
        <ele>163.1999969482421875</ele>
        <time>2018-08-18T10:19:25.000Z</time>
        <extensions>
          <ns3:TrackPointExtension>
            <ns3:atemp>13.0</ns3:atemp>
          </ns3:TrackPointExtension>
        </extensions>
      </trkpt>
      <trkpt lat="60.12051888741552829742431640625" lon="15.7778703980147838592529296875">
        <ele>162.8000030517578125</ele>
        <time>2018-08-18T10:19:27.000Z</time>
        <extensions>
          <ns3:TrackPointExtension>
            <ns3:atemp>13.0</ns3:atemp>
          </ns3:TrackPointExtension>
        </extensions>
      </trkpt>
      <trkpt lat="60.12047328986227512359619140625" lon="15.7782070152461528778076171875">
        <ele>162.600006103515625</ele>
        <time>2018-08-18T10:19:29.000Z</time>
        <extensions>
          <ns3:TrackPointExtension>
            <ns3:atemp>13.0</ns3:atemp>
          </ns3:TrackPointExtension>
        </extensions>
      </trkpt>
      <trkpt lat="60.120397768914699554443359375" lon="15.7788373343646526336669921875">
        <ele>161.8000030517578125</ele>
        <time>2018-08-18T10:19:33.000Z</time>
        <extensions>
          <ns3:TrackPointExtension>
            <ns3:atemp>13.0</ns3:atemp>
          </ns3:TrackPointExtension>
        </extensions>
      </trkpt>
      <trkpt lat="60.1203161291778087615966796875" lon="15.77955524437129497528076171875">
        <ele>161</ele>
        <time>2018-08-18T10:19:38.000Z</time>
        <extensions>
          <ns3:TrackPointExtension>
            <ns3:atemp>13.0</ns3:atemp>
          </ns3:TrackPointExtension>
        </extensions>
      </trkpt>
      <trkpt lat="60.12018277309834957122802734375" lon="15.7806786708533763885498046875">
        <ele>159.8000030517578125</ele>
        <time>2018-08-18T10:19:47.000Z</time>
        <extensions>
          <ns3:TrackPointExtension>
            <ns3:atemp>13.0</ns3:atemp>
          </ns3:TrackPointExtension>
        </extensions>
      </trkpt>
      <trkpt lat="60.11999317444860935211181640625" lon="15.7817383110523223876953125">
        <ele>158.8000030517578125</ele>
        <time>2018-08-18T10:19:57.000Z</time>
        <extensions>
          <ns3:TrackPointExtension>
            <ns3:atemp>13.0</ns3:atemp>
          </ns3:TrackPointExtension>
        </extensions>
      </trkpt>
      <trkpt lat="60.1199707947671413421630859375" lon="15.78184098936617374420166015625">
        <ele>158.8000030517578125</ele>
        <time>2018-08-18T10:19:58.000Z</time>
        <extensions>
          <ns3:TrackPointExtension>
            <ns3:atemp>13.0</ns3:atemp>
          </ns3:TrackPointExtension>
        </extensions>
      </trkpt>
      <trkpt lat="60.11980726383626461029052734375" lon="15.78255931846797466278076171875">
        <ele>158.399993896484375</ele>
        <time>2018-08-18T10:20:05.000Z</time>
        <extensions>
          <ns3:TrackPointExtension>
            <ns3:atemp>13.0</ns3:atemp>
          </ns3:TrackPointExtension>
        </extensions>
      </trkpt>
      <trkpt lat="60.11956267990171909332275390625" lon="15.78364511020481586456298828125">
        <ele>157.8000030517578125</ele>
        <time>2018-08-18T10:20:15.000Z</time>
        <extensions>
          <ns3:TrackPointExtension>
            <ns3:atemp>13.0</ns3:atemp>
          </ns3:TrackPointExtension>
        </extensions>
      </trkpt>
      <trkpt lat="60.1194645278155803680419921875" lon="15.78428800217807292938232421875">
        <ele>157.399993896484375</ele>
        <time>2018-08-18T10:20:21.000Z</time>
        <extensions>
          <ns3:TrackPointExtension>
            <ns3:atemp>13.0</ns3:atemp>
          </ns3:TrackPointExtension>
        </extensions>
      </trkpt>
      <trkpt lat="60.11941918171942234039306640625" lon="15.78526130877435207366943359375">
        <ele>156.399993896484375</ele>
        <time>2018-08-18T10:20:31.000Z</time>
        <extensions>
          <ns3:TrackPointExtension>
            <ns3:atemp>13.0</ns3:atemp>
          </ns3:TrackPointExtension>
        </extensions>
      </trkpt>
      <trkpt lat="60.1194499433040618896484375" lon="15.78591241501271724700927734375">
        <ele>155.600006103515625</ele>
        <time>2018-08-18T10:20:38.000Z</time>
        <extensions>
          <ns3:TrackPointExtension>
            <ns3:atemp>13.0</ns3:atemp>
          </ns3:TrackPointExtension>
        </extensions>
      </trkpt>
      <trkpt lat="60.1194886676967144012451171875" lon="15.7863320969045162200927734375">
        <ele>155</ele>
        <time>2018-08-18T10:20:43.000Z</time>
        <extensions>
          <ns3:TrackPointExtension>
            <ns3:atemp>13.0</ns3:atemp>
          </ns3:TrackPointExtension>
        </extensions>
      </trkpt>
      <trkpt lat="60.11953049339354038238525390625" lon="15.7866985537111759185791015625">
        <ele>154.600006103515625</ele>
        <time>2018-08-18T10:20:47.000Z</time>
        <extensions>
          <ns3:TrackPointExtension>
            <ns3:atemp>13.0</ns3:atemp>
          </ns3:TrackPointExtension>
        </extensions>
      </trkpt>
      <trkpt lat="60.11964985169470310211181640625" lon="15.787801444530487060546875">
        <ele>153.1999969482421875</ele>
        <time>2018-08-18T10:20:56.000Z</time>
        <extensions>
          <ns3:TrackPointExtension>
            <ns3:atemp>13.0</ns3:atemp>
          </ns3:TrackPointExtension>
        </extensions>
      </trkpt>
      <trkpt lat="60.1197572238743305206298828125" lon="15.788904167711734771728515625">
        <ele>151.600006103515625</ele>
        <time>2018-08-18T10:21:03.000Z</time>
        <extensions>
          <ns3:TrackPointExtension>
            <ns3:atemp>13.0</ns3:atemp>
          </ns3:TrackPointExtension>
        </extensions>
      </trkpt>
      <trkpt lat="60.11977876536548137664794921875" lon="15.78925293870270252227783203125">
        <ele>151.1999969482421875</ele>
        <time>2018-08-18T10:21:05.000Z</time>
        <extensions>
          <ns3:TrackPointExtension>
            <ns3:atemp>13.0</ns3:atemp>
          </ns3:TrackPointExtension>
        </extensions>
      </trkpt>
      <trkpt lat="60.11979217641055583953857421875" lon="15.7899420149624347686767578125">
        <ele>150.399993896484375</ele>
        <time>2018-08-18T10:21:09.000Z</time>
        <extensions>
          <ns3:TrackPointExtension>
            <ns3:atemp>13.0</ns3:atemp>
          </ns3:TrackPointExtension>
        </extensions>
      </trkpt>
      <trkpt lat="60.119778849184513092041015625" lon="15.7904258184134960174560546875">
        <ele>150</ele>
        <time>2018-08-18T10:21:12.000Z</time>
        <extensions>
          <ns3:TrackPointExtension>
            <ns3:atemp>13.0</ns3:atemp>
          </ns3:TrackPointExtension>
        </extensions>
      </trkpt>
      <trkpt lat="60.119756720960140228271484375" lon="15.79088640399277210235595703125">
        <ele>149.600006103515625</ele>
        <time>2018-08-18T10:21:15.000Z</time>
        <extensions>
          <ns3:TrackPointExtension>
            <ns3:atemp>13.0</ns3:atemp>
          </ns3:TrackPointExtension>
        </extensions>
      </trkpt>
      <trkpt lat="60.11966410093009471893310546875" lon="15.792075879871845245361328125">
        <ele>148.8000030517578125</ele>
        <time>2018-08-18T10:21:23.000Z</time>
        <extensions>
          <ns3:TrackPointExtension>
            <ns3:atemp>13.0</ns3:atemp>
          </ns3:TrackPointExtension>
        </extensions>
      </trkpt>
      <trkpt lat="60.11952663771808147430419921875" lon="15.79291583038866519927978515625">
        <ele>148.399993896484375</ele>
        <time>2018-08-18T10:21:29.000Z</time>
        <extensions>
          <ns3:TrackPointExtension>
            <ns3:atemp>13.0</ns3:atemp>
          </ns3:TrackPointExtension>
        </extensions>
      </trkpt>
      <trkpt lat="60.1196425594389438629150390625" lon="15.79330064356327056884765625">
        <ele>147.8000030517578125</ele>
        <time>2018-08-18T10:21:33.000Z</time>
        <extensions>
          <ns3:TrackPointExtension>
            <ns3:atemp>13.0</ns3:atemp>
          </ns3:TrackPointExtension>
        </extensions>
      </trkpt>
      <trkpt lat="60.11982469819486141204833984375" lon="15.79332972876727581024169921875">
        <ele>147.399993896484375</ele>
        <time>2018-08-18T10:21:36.000Z</time>
        <extensions>
          <ns3:TrackPointExtension>
            <ns3:atemp>13.0</ns3:atemp>
          </ns3:TrackPointExtension>
        </extensions>
      </trkpt>
      <trkpt lat="60.12038402259349822998046875" lon="15.7932076044380664825439453125">
        <ele>148.8000030517578125</ele>
        <time>2018-08-18T10:21:44.000Z</time>
        <extensions>
          <ns3:TrackPointExtension>
            <ns3:atemp>13.0</ns3:atemp>
          </ns3:TrackPointExtension>
        </extensions>
      </trkpt>
      <trkpt lat="60.12046256102621555328369140625" lon="15.79317265190184116363525390625">
        <ele>149.399993896484375</ele>
        <time>2018-08-18T10:21:45.000Z</time>
        <extensions>
          <ns3:TrackPointExtension>
            <ns3:atemp>13.0</ns3:atemp>
          </ns3:TrackPointExtension>
        </extensions>
      </trkpt>
      <trkpt lat="60.12093882076442241668701171875" lon="15.79288515262305736541748046875">
        <ele>152</ele>
        <time>2018-08-18T10:21:51.000Z</time>
        <extensions>
          <ns3:TrackPointExtension>
            <ns3:atemp>13.0</ns3:atemp>
          </ns3:TrackPointExtension>
        </extensions>
      </trkpt>
      <trkpt lat="60.12114903889596462249755859375" lon="15.7927036844193935394287109375">
        <ele>153.399993896484375</ele>
        <time>2018-08-18T10:21:54.000Z</time>
        <extensions>
          <ns3:TrackPointExtension>
            <ns3:atemp>13.0</ns3:atemp>
          </ns3:TrackPointExtension>
        </extensions>
      </trkpt>
      <trkpt lat="60.1213454268872737884521484375" lon="15.79252640716731548309326171875">
        <ele>154.600006103515625</ele>
        <time>2018-08-18T10:21:57.000Z</time>
        <extensions>
          <ns3:TrackPointExtension>
            <ns3:atemp>13.0</ns3:atemp>
          </ns3:TrackPointExtension>
        </extensions>
      </trkpt>
      <trkpt lat="60.12186083011329174041748046875" lon="15.7920032925903797149658203125">
        <ele>155.399993896484375</ele>
        <time>2018-08-18T10:22:05.000Z</time>
        <extensions>
          <ns3:TrackPointExtension>
            <ns3:atemp>13.0</ns3:atemp>
          </ns3:TrackPointExtension>
        </extensions>
      </trkpt>
      <trkpt lat="60.1223777420818805694580078125" lon="15.79151487909257411956787109375">
        <ele>155</ele>
        <time>2018-08-18T10:22:12.000Z</time>
        <extensions>
          <ns3:TrackPointExtension>
            <ns3:atemp>13.0</ns3:atemp>
          </ns3:TrackPointExtension>
        </extensions>
      </trkpt>
      <trkpt lat="60.1224545203149318695068359375" lon="15.79146073199808597564697265625">
        <ele>155</ele>
        <time>2018-08-18T10:22:13.000Z</time>
        <extensions>
          <ns3:TrackPointExtension>
            <ns3:atemp>13.0</ns3:atemp>
          </ns3:TrackPointExtension>
        </extensions>
      </trkpt>
      <trkpt lat="60.1226793229579925537109375" lon="15.79135059379041194915771484375">
        <ele>155</ele>
        <time>2018-08-18T10:22:16.000Z</time>
        <extensions>
          <ns3:TrackPointExtension>
            <ns3:atemp>13.0</ns3:atemp>
          </ns3:TrackPointExtension>
        </extensions>
      </trkpt>
      <trkpt lat="60.12281217612326145172119140625" lon="15.79128764569759368896484375">
        <ele>155</ele>
        <time>2018-08-18T10:22:18.000Z</time>
        <extensions>
          <ns3:TrackPointExtension>
            <ns3:atemp>13.0</ns3:atemp>
          </ns3:TrackPointExtension>
        </extensions>
      </trkpt>
      <trkpt lat="60.12336169369518756866455078125" lon="15.79123492352664470672607421875">
        <ele>155.8000030517578125</ele>
        <time>2018-08-18T10:22:27.000Z</time>
        <extensions>
          <ns3:TrackPointExtension>
            <ns3:atemp>13.0</ns3:atemp>
          </ns3:TrackPointExtension>
        </extensions>
      </trkpt>
      <trkpt lat="60.12392294593155384063720703125" lon="15.79163088463246822357177734375">
        <ele>157.8000030517578125</ele>
        <time>2018-08-18T10:22:36.000Z</time>
        <extensions>
          <ns3:TrackPointExtension>
            <ns3:atemp>13.0</ns3:atemp>
          </ns3:TrackPointExtension>
        </extensions>
      </trkpt>
      <trkpt lat="60.12438897974789142608642578125" lon="15.79230193980038166046142578125">
        <ele>160.600006103515625</ele>
        <time>2018-08-18T10:22:44.000Z</time>
        <extensions>
          <ns3:TrackPointExtension>
            <ns3:atemp>13.0</ns3:atemp>
          </ns3:TrackPointExtension>
        </extensions>
      </trkpt>
      <trkpt lat="60.124807320535182952880859375" lon="15.7929906807839870452880859375">
        <ele>163.1999969482421875</ele>
        <time>2018-08-18T10:22:51.000Z</time>
        <extensions>
          <ns3:TrackPointExtension>
            <ns3:atemp>13.0</ns3:atemp>
          </ns3:TrackPointExtension>
        </extensions>
      </trkpt>
      <trkpt lat="60.12522582896053791046142578125" lon="15.793686211109161376953125">
        <ele>165.8000030517578125</ele>
        <time>2018-08-18T10:22:58.000Z</time>
        <extensions>
          <ns3:TrackPointExtension>
            <ns3:atemp>13.0</ns3:atemp>
          </ns3:TrackPointExtension>
        </extensions>
      </trkpt>
      <trkpt lat="60.12528785504400730133056640625" lon="15.79378855414688587188720703125">
        <ele>166.1999969482421875</ele>
        <time>2018-08-18T10:22:59.000Z</time>
        <extensions>
          <ns3:TrackPointExtension>
            <ns3:atemp>13.0</ns3:atemp>
          </ns3:TrackPointExtension>
        </extensions>
      </trkpt>
      <trkpt lat="60.1255283318459987640380859375" lon="15.794190801680088043212890625">
        <ele>167.600006103515625</ele>
        <time>2018-08-18T10:23:03.000Z</time>
        <extensions>
          <ns3:TrackPointExtension>
            <ns3:atemp>13.0</ns3:atemp>
          </ns3:TrackPointExtension>
        </extensions>
      </trkpt>
      <trkpt lat="60.125852711498737335205078125" lon="15.79473587684333324432373046875">
        <ele>169.600006103515625</ele>
        <time>2018-08-18T10:23:09.000Z</time>
        <extensions>
          <ns3:TrackPointExtension>
            <ns3:atemp>13.0</ns3:atemp>
          </ns3:TrackPointExtension>
        </extensions>
      </trkpt>
      <trkpt lat="60.12626803480088710784912109375" lon="15.79560860060155391693115234375">
        <ele>172.8000030517578125</ele>
        <time>2018-08-18T10:23:18.000Z</time>
        <extensions>
          <ns3:TrackPointExtension>
            <ns3:atemp>13.0</ns3:atemp>
          </ns3:TrackPointExtension>
        </extensions>
      </trkpt>
      <trkpt lat="60.12657246552407741546630859375" lon="15.7965181209146976470947265625">
        <ele>175.8000030517578125</ele>
        <time>2018-08-18T10:23:26.000Z</time>
        <extensions>
          <ns3:TrackPointExtension>
            <ns3:atemp>13.0</ns3:atemp>
          </ns3:TrackPointExtension>
        </extensions>
      </trkpt>
      <trkpt lat="60.12660582549870014190673828125" lon="15.79663462936878204345703125">
        <ele>176.1999969482421875</ele>
        <time>2018-08-18T10:23:27.000Z</time>
        <extensions>
          <ns3:TrackPointExtension>
            <ns3:atemp>13.0</ns3:atemp>
          </ns3:TrackPointExtension>
        </extensions>
      </trkpt>
      <trkpt lat="60.12687337584793567657470703125" lon="15.7977093569934368133544921875">
        <ele>179.399993896484375</ele>
        <time>2018-08-18T10:23:36.000Z</time>
        <extensions>
          <ns3:TrackPointExtension>
            <ns3:atemp>13.0</ns3:atemp>
          </ns3:TrackPointExtension>
        </extensions>
      </trkpt>
      <trkpt lat="60.12694763951003551483154296875" lon="15.798322074115276336669921875">
        <ele>179.1999969482421875</ele>
        <time>2018-08-18T10:23:41.000Z</time>
        <extensions>
          <ns3:TrackPointExtension>
            <ns3:atemp>13.0</ns3:atemp>
          </ns3:TrackPointExtension>
        </extensions>
      </trkpt>
      <trkpt lat="60.127109996974468231201171875" lon="15.79852986149489879608154296875">
        <ele>180</ele>
        <time>2018-08-18T10:23:45.000Z</time>
        <extensions>
          <ns3:TrackPointExtension>
            <ns3:atemp>13.0</ns3:atemp>
          </ns3:TrackPointExtension>
        </extensions>
      </trkpt>
      <trkpt lat="60.127284340560436248779296875" lon="15.79848644323647022247314453125">
        <ele>180.8000030517578125</ele>
        <time>2018-08-18T10:23:48.000Z</time>
        <extensions>
          <ns3:TrackPointExtension>
            <ns3:atemp>13.0</ns3:atemp>
          </ns3:TrackPointExtension>
        </extensions>
      </trkpt>
      <trkpt lat="60.12786260806024074554443359375" lon="15.798256359994411468505859375">
        <ele>182.8000030517578125</ele>
        <time>2018-08-18T10:23:59.000Z</time>
        <extensions>
          <ns3:TrackPointExtension>
            <ns3:atemp>13.0</ns3:atemp>
          </ns3:TrackPointExtension>
        </extensions>
      </trkpt>
      <trkpt lat="60.12844808399677276611328125" lon="15.7980808429419994354248046875">
        <ele>183</ele>
        <time>2018-08-18T10:24:09.000Z</time>
        <extensions>
          <ns3:TrackPointExtension>
            <ns3:atemp>13.0</ns3:atemp>
          </ns3:TrackPointExtension>
        </extensions>
      </trkpt>
      <trkpt lat="60.12902869842946529388427734375" lon="15.79797447659075260162353515625">
        <ele>182.600006103515625</ele>
        <time>2018-08-18T10:24:18.000Z</time>
        <extensions>
          <ns3:TrackPointExtension>
            <ns3:atemp>13.0</ns3:atemp>
          </ns3:TrackPointExtension>
        </extensions>
      </trkpt>
      <trkpt lat="60.129335224628448486328125" lon="15.797998197376728057861328125">
        <ele>182.600006103515625</ele>
        <time>2018-08-18T10:24:23.000Z</time>
        <extensions>
          <ns3:TrackPointExtension>
            <ns3:atemp>13.0</ns3:atemp>
          </ns3:TrackPointExtension>
        </extensions>
      </trkpt>
      <trkpt lat="60.1298939622938632965087890625" lon="15.79827136360108852386474609375">
        <ele>183.1999969482421875</ele>
        <time>2018-08-18T10:24:32.000Z</time>
        <extensions>
          <ns3:TrackPointExtension>
            <ns3:atemp>13.0</ns3:atemp>
          </ns3:TrackPointExtension>
        </extensions>
      </trkpt>
      <trkpt lat="60.13043367303907871246337890625" lon="15.79840329475700855255126953125">
        <ele>183.600006103515625</ele>
        <time>2018-08-18T10:24:41.000Z</time>
        <extensions>
          <ns3:TrackPointExtension>
            <ns3:atemp>13.0</ns3:atemp>
          </ns3:TrackPointExtension>
        </extensions>
      </trkpt>
      <trkpt lat="60.13098545372486114501953125" lon="15.79871878959238529205322265625">
        <ele>184.1999969482421875</ele>
        <time>2018-08-18T10:24:51.000Z</time>
        <extensions>
          <ns3:TrackPointExtension>
            <ns3:atemp>13.0</ns3:atemp>
          </ns3:TrackPointExtension>
        </extensions>
      </trkpt>
      <trkpt lat="60.13139356859028339385986328125" lon="15.7991607673466205596923828125">
        <ele>185.1999969482421875</ele>
        <time>2018-08-18T10:25:01.000Z</time>
        <extensions>
          <ns3:TrackPointExtension>
            <ns3:atemp>13.0</ns3:atemp>
          </ns3:TrackPointExtension>
        </extensions>
      </trkpt>
      <trkpt lat="60.13159272260963916778564453125" lon="15.7993709854781627655029296875">
        <ele>185.1999969482421875</ele>
        <time>2018-08-18T10:25:06.000Z</time>
        <extensions>
          <ns3:TrackPointExtension>
            <ns3:atemp>13.0</ns3:atemp>
          </ns3:TrackPointExtension>
        </extensions>
      </trkpt>
      <trkpt lat="60.131787098944187164306640625" lon="15.79955262131989002227783203125">
        <ele>185</ele>
        <time>2018-08-18T10:25:10.000Z</time>
        <extensions>
          <ns3:TrackPointExtension>
            <ns3:atemp>13.0</ns3:atemp>
          </ns3:TrackPointExtension>
        </extensions>
      </trkpt>
      <trkpt lat="60.1321480236947536468505859375" lon="15.8000140450894832611083984375">
        <ele>184.600006103515625</ele>
        <time>2018-08-18T10:25:17.000Z</time>
        <extensions>
          <ns3:TrackPointExtension>
            <ns3:atemp>13.0</ns3:atemp>
          </ns3:TrackPointExtension>
        </extensions>
      </trkpt>
      <trkpt lat="60.13259067200124263763427734375" lon="15.800842680037021636962890625">
        <ele>184.1999969482421875</ele>
        <time>2018-08-18T10:25:26.000Z</time>
        <extensions>
          <ns3:TrackPointExtension>
            <ns3:atemp>13.0</ns3:atemp>
          </ns3:TrackPointExtension>
        </extensions>
      </trkpt>
      <trkpt lat="60.13283743523061275482177734375" lon="15.801458247005939483642578125">
        <ele>183.8000030517578125</ele>
        <time>2018-08-18T10:25:32.000Z</time>
        <extensions>
          <ns3:TrackPointExtension>
            <ns3:atemp>13.0</ns3:atemp>
          </ns3:TrackPointExtension>
        </extensions>
      </trkpt>
      <trkpt lat="60.13290666975080966949462890625" lon="15.8017729036509990692138671875">
        <ele>183.600006103515625</ele>
        <time>2018-08-18T10:25:35.000Z</time>
        <extensions>
          <ns3:TrackPointExtension>
            <ns3:atemp>13.0</ns3:atemp>
          </ns3:TrackPointExtension>
        </extensions>
      </trkpt>
      <trkpt lat="60.13316030614078044891357421875" lon="15.80275115557014942169189453125">
        <ele>183.1999969482421875</ele>
        <time>2018-08-18T10:25:45.000Z</time>
        <extensions>
          <ns3:TrackPointExtension>
            <ns3:atemp>13.0</ns3:atemp>
          </ns3:TrackPointExtension>
        </extensions>
      </trkpt>
      <trkpt lat="60.133234150707721710205078125" lon="15.802912004292011260986328125">
        <ele>183</ele>
        <time>2018-08-18T10:25:47.000Z</time>
        <extensions>
          <ns3:TrackPointExtension>
            <ns3:atemp>13.0</ns3:atemp>
          </ns3:TrackPointExtension>
        </extensions>
      </trkpt>
      <trkpt lat="60.13331268914043903350830078125" lon="15.80303899012506008148193359375">
        <ele>183</ele>
        <time>2018-08-18T10:25:49.000Z</time>
        <extensions>
          <ns3:TrackPointExtension>
            <ns3:atemp>13.0</ns3:atemp>
          </ns3:TrackPointExtension>
        </extensions>
      </trkpt>
      <trkpt lat="60.1335866935551166534423828125" lon="15.80322523601353168487548828125">
        <ele>182.8000030517578125</ele>
        <time>2018-08-18T10:25:55.000Z</time>
        <extensions>
          <ns3:TrackPointExtension>
            <ns3:atemp>13.0</ns3:atemp>
          </ns3:TrackPointExtension>
        </extensions>
      </trkpt>
      <trkpt lat="60.133685432374477386474609375" lon="15.80322749912738800048828125">
        <ele>182.8000030517578125</ele>
        <time>2018-08-18T10:25:57.000Z</time>
        <extensions>
          <ns3:TrackPointExtension>
            <ns3:atemp>13.0</ns3:atemp>
          </ns3:TrackPointExtension>
        </extensions>
      </trkpt>
      <trkpt lat="60.13374008238315582275390625" lon="15.80321936868131160736083984375">
        <ele>182.8000030517578125</ele>
        <time>2018-08-18T10:25:58.000Z</time>
        <extensions>
          <ns3:TrackPointExtension>
            <ns3:atemp>13.0</ns3:atemp>
          </ns3:TrackPointExtension>
        </extensions>
      </trkpt>
      <trkpt lat="60.1340356282889842987060546875" lon="15.8032643795013427734375">
        <ele>182.600006103515625</ele>
        <time>2018-08-18T10:26:03.000Z</time>
        <extensions>
          <ns3:TrackPointExtension>
            <ns3:atemp>13.0</ns3:atemp>
          </ns3:TrackPointExtension>
        </extensions>
      </trkpt>
      <trkpt lat="60.1342103071510791778564453125" lon="15.803424976766109466552734375">
        <ele>182.600006103515625</ele>
        <time>2018-08-18T10:26:07.000Z</time>
        <extensions>
          <ns3:TrackPointExtension>
            <ns3:atemp>13.0</ns3:atemp>
          </ns3:TrackPointExtension>
        </extensions>
      </trkpt>
      <trkpt lat="60.13424542732536792755126953125" lon="15.8034829795360565185546875">
        <ele>182.399993896484375</ele>
        <time>2018-08-18T10:26:08.000Z</time>
        <extensions>
          <ns3:TrackPointExtension>
            <ns3:atemp>13.0</ns3:atemp>
          </ns3:TrackPointExtension>
        </extensions>
      </trkpt>
      <trkpt lat="60.134556479752063751220703125" lon="15.8044628240168094635009765625">
        <ele>182</ele>
        <time>2018-08-18T10:26:19.000Z</time>
        <extensions>
          <ns3:TrackPointExtension>
            <ns3:atemp>13.0</ns3:atemp>
          </ns3:TrackPointExtension>
        </extensions>
      </trkpt>
      <trkpt lat="60.1346424780786037445068359375" lon="15.80482567660510540008544921875">
        <ele>181.8000030517578125</ele>
        <time>2018-08-18T10:26:22.000Z</time>
        <extensions>
          <ns3:TrackPointExtension>
            <ns3:atemp>13.0</ns3:atemp>
          </ns3:TrackPointExtension>
        </extensions>
      </trkpt>
      <trkpt lat="60.13471464626491069793701171875" lon="15.80565531738102436065673828125">
        <ele>181.399993896484375</ele>
        <time>2018-08-18T10:26:29.000Z</time>
        <extensions>
          <ns3:TrackPointExtension>
            <ns3:atemp>13.0</ns3:atemp>
          </ns3:TrackPointExtension>
        </extensions>
      </trkpt>
      <trkpt lat="60.13482428155839443206787109375" lon="15.80663633532822132110595703125">
        <ele>180.8000030517578125</ele>
        <time>2018-08-18T10:26:40.000Z</time>
        <extensions>
          <ns3:TrackPointExtension>
            <ns3:atemp>13.0</ns3:atemp>
          </ns3:TrackPointExtension>
        </extensions>
      </trkpt>
      <trkpt lat="60.13485378585755825042724609375" lon="15.8069043047726154327392578125">
        <ele>180.600006103515625</ele>
        <time>2018-08-18T10:26:44.000Z</time>
        <extensions>
          <ns3:TrackPointExtension>
            <ns3:atemp>13.0</ns3:atemp>
          </ns3:TrackPointExtension>
        </extensions>
      </trkpt>
      <trkpt lat="60.1349140517413616180419921875" lon="15.807196833193302154541015625">
        <ele>180.399993896484375</ele>
        <time>2018-08-18T10:26:48.000Z</time>
        <extensions>
          <ns3:TrackPointExtension>
            <ns3:atemp>13.0</ns3:atemp>
          </ns3:TrackPointExtension>
        </extensions>
      </trkpt>
      <trkpt lat="60.13494900427758693695068359375" lon="15.8073829114437103271484375">
        <ele>180.1999969482421875</ele>
        <time>2018-08-18T10:26:50.000Z</time>
        <extensions>
          <ns3:TrackPointExtension>
            <ns3:atemp>13.0</ns3:atemp>
          </ns3:TrackPointExtension>
        </extensions>
      </trkpt>
      <trkpt lat="60.13496995903551578521728515625" lon="15.8074793033301830291748046875">
        <ele>180.1999969482421875</ele>
        <time>2018-08-18T10:26:51.000Z</time>
        <extensions>
          <ns3:TrackPointExtension>
            <ns3:atemp>13.0</ns3:atemp>
          </ns3:TrackPointExtension>
        </extensions>
      </trkpt>
      <trkpt lat="60.13533038087189197540283203125" lon="15.80842402763664722442626953125">
        <ele>180.8000030517578125</ele>
        <time>2018-08-18T10:27:01.000Z</time>
        <extensions>
          <ns3:TrackPointExtension>
            <ns3:atemp>13.0</ns3:atemp>
          </ns3:TrackPointExtension>
        </extensions>
      </trkpt>
      <trkpt lat="60.1353790797293186187744140625" lon="15.808499716222286224365234375">
        <ele>180.8000030517578125</ele>
        <time>2018-08-18T10:27:02.000Z</time>
        <extensions>
          <ns3:TrackPointExtension>
            <ns3:atemp>13.0</ns3:atemp>
          </ns3:TrackPointExtension>
        </extensions>
      </trkpt>
      <trkpt lat="60.135836899280548095703125" lon="15.80916616134345531463623046875">
        <ele>181.1999969482421875</ele>
        <time>2018-08-18T10:27:12.000Z</time>
        <extensions>
          <ns3:TrackPointExtension>
            <ns3:atemp>13.0</ns3:atemp>
          </ns3:TrackPointExtension>
        </extensions>
      </trkpt>
      <trkpt lat="60.13610067777335643768310546875" lon="15.80987669527530670166015625">
        <ele>181.600006103515625</ele>
        <time>2018-08-18T10:27:25.000Z</time>
        <extensions>
          <ns3:TrackPointExtension>
            <ns3:atemp>13.0</ns3:atemp>
          </ns3:TrackPointExtension>
        </extensions>
      </trkpt>
      <trkpt lat="60.13614644296467304229736328125" lon="15.81011448986828327178955078125">
        <ele>181.600006103515625</ele>
        <time>2018-08-18T10:27:29.000Z</time>
        <extensions>
          <ns3:TrackPointExtension>
            <ns3:atemp>13.0</ns3:atemp>
          </ns3:TrackPointExtension>
        </extensions>
      </trkpt>
      <trkpt lat="60.13619086705148220062255859375" lon="15.8104236982762813568115234375">
        <ele>181.8000030517578125</ele>
        <time>2018-08-18T10:27:34.000Z</time>
        <extensions>
          <ns3:TrackPointExtension>
            <ns3:atemp>13.0</ns3:atemp>
          </ns3:TrackPointExtension>
        </extensions>
      </trkpt>
      <trkpt lat="60.1362756080925464630126953125" lon="15.810761488974094390869140625">
        <ele>182</ele>
        <time>2018-08-18T10:27:39.000Z</time>
        <extensions>
          <ns3:TrackPointExtension>
            <ns3:atemp>13.0</ns3:atemp>
          </ns3:TrackPointExtension>
        </extensions>
      </trkpt>
      <trkpt lat="60.13637526892125606536865234375" lon="15.81113473512232303619384765625">
        <ele>182.1999969482421875</ele>
        <time>2018-08-18T10:27:44.000Z</time>
        <extensions>
          <ns3:TrackPointExtension>
            <ns3:atemp>13.0</ns3:atemp>
          </ns3:TrackPointExtension>
        </extensions>
      </trkpt>
      <trkpt lat="60.13660870492458343505859375" lon="15.8121342770755290985107421875">
        <ele>182.8000030517578125</ele>
        <time>2018-08-18T10:27:56.000Z</time>
        <extensions>
          <ns3:TrackPointExtension>
            <ns3:atemp>13.0</ns3:atemp>
          </ns3:TrackPointExtension>
        </extensions>
      </trkpt>
      <trkpt lat="60.13685940764844417572021484375" lon="15.8131407760083675384521484375">
        <ele>183.399993896484375</ele>
        <time>2018-08-18T10:28:08.000Z</time>
        <extensions>
          <ns3:TrackPointExtension>
            <ns3:atemp>13.0</ns3:atemp>
          </ns3:TrackPointExtension>
        </extensions>
      </trkpt>
      <trkpt lat="60.1370132155716419219970703125" lon="15.81375575624406337738037109375">
        <ele>183.8000030517578125</ele>
        <time>2018-08-18T10:28:17.000Z</time>
        <extensions>
          <ns3:TrackPointExtension>
            <ns3:atemp>13.0</ns3:atemp>
          </ns3:TrackPointExtension>
        </extensions>
      </trkpt>
      <trkpt lat="60.1370779238641262054443359375" lon="15.81400872208178043365478515625">
        <ele>184</ele>
        <time>2018-08-18T10:28:21.000Z</time>
        <extensions>
          <ns3:TrackPointExtension>
            <ns3:atemp>13.0</ns3:atemp>
          </ns3:TrackPointExtension>
        </extensions>
      </trkpt>
      <trkpt lat="60.1371493376791477203369140625" lon="15.81430175341665744781494140625">
        <ele>184.1999969482421875</ele>
        <time>2018-08-18T10:28:26.000Z</time>
        <extensions>
          <ns3:TrackPointExtension>
            <ns3:atemp>13.0</ns3:atemp>
          </ns3:TrackPointExtension>
        </extensions>
      </trkpt>
      <trkpt lat="60.13722829520702362060546875" lon="15.81457667984068393707275390625">
        <ele>184.1999969482421875</ele>
        <time>2018-08-18T10:28:31.000Z</time>
        <extensions>
          <ns3:TrackPointExtension>
            <ns3:atemp>13.0</ns3:atemp>
          </ns3:TrackPointExtension>
        </extensions>
      </trkpt>
      <trkpt lat="60.137286297976970672607421875" lon="15.81480793654918670654296875">
        <ele>184.399993896484375</ele>
        <time>2018-08-18T10:28:35.000Z</time>
        <extensions>
          <ns3:TrackPointExtension>
            <ns3:atemp>13.0</ns3:atemp>
          </ns3:TrackPointExtension>
        </extensions>
      </trkpt>
      <trkpt lat="60.137353353202342987060546875" lon="15.815115384757518768310546875">
        <ele>184.600006103515625</ele>
        <time>2018-08-18T10:28:40.000Z</time>
        <extensions>
          <ns3:TrackPointExtension>
            <ns3:atemp>13.0</ns3:atemp>
          </ns3:TrackPointExtension>
        </extensions>
      </trkpt>
      <trkpt lat="60.13743222691118717193603515625" lon="15.81547823734581470489501953125">
        <ele>184.8000030517578125</ele>
        <time>2018-08-18T10:28:45.000Z</time>
        <extensions>
          <ns3:TrackPointExtension>
            <ns3:atemp>13.0</ns3:atemp>
          </ns3:TrackPointExtension>
        </extensions>
      </trkpt>
      <trkpt lat="60.13768334873020648956298828125" lon="15.816508121788501739501953125">
        <ele>184.8000030517578125</ele>
        <time>2018-08-18T10:28:55.000Z</time>
        <extensions>
          <ns3:TrackPointExtension>
            <ns3:atemp>13.0</ns3:atemp>
          </ns3:TrackPointExtension>
        </extensions>
      </trkpt>
      <trkpt lat="60.13780052773654460906982421875" lon="15.8169972896575927734375">
        <ele>184.8000030517578125</ele>
        <time>2018-08-18T10:29:00.000Z</time>
        <extensions>
          <ns3:TrackPointExtension>
            <ns3:atemp>13.0</ns3:atemp>
          </ns3:TrackPointExtension>
        </extensions>
      </trkpt>
      <trkpt lat="60.13804192654788494110107421875" lon="15.817978642880916595458984375">
        <ele>185.8000030517578125</ele>
        <time>2018-08-18T10:29:11.000Z</time>
        <extensions>
          <ns3:TrackPointExtension>
            <ns3:atemp>13.0</ns3:atemp>
          </ns3:TrackPointExtension>
        </extensions>
      </trkpt>
      <trkpt lat="60.13826270587742328643798828125" lon="15.8189138956367969512939453125">
        <ele>186.600006103515625</ele>
        <time>2018-08-18T10:29:22.000Z</time>
        <extensions>
          <ns3:TrackPointExtension>
            <ns3:atemp>13.0</ns3:atemp>
          </ns3:TrackPointExtension>
        </extensions>
      </trkpt>
      <trkpt lat="60.138481222093105316162109375" lon="15.819756947457790374755859375">
        <ele>187.399993896484375</ele>
        <time>2018-08-18T10:29:32.000Z</time>
        <extensions>
          <ns3:TrackPointExtension>
            <ns3:atemp>13.0</ns3:atemp>
          </ns3:TrackPointExtension>
        </extensions>
      </trkpt>
      <trkpt lat="60.1386808790266513824462890625" lon="15.8201986737549304962158203125">
        <ele>187.8000030517578125</ele>
        <time>2018-08-18T10:29:40.000Z</time>
        <extensions>
          <ns3:TrackPointExtension>
            <ns3:atemp>13.0</ns3:atemp>
          </ns3:TrackPointExtension>
        </extensions>
      </trkpt>
      <trkpt lat="60.1388270594179630279541015625" lon="15.8204045332968235015869140625">
        <ele>187.8000030517578125</ele>
        <time>2018-08-18T10:29:45.000Z</time>
        <extensions>
          <ns3:TrackPointExtension>
            <ns3:atemp>13.0</ns3:atemp>
          </ns3:TrackPointExtension>
        </extensions>
      </trkpt>
      <trkpt lat="60.13895966112613677978515625" lon="15.82050000317394733428955078125">
        <ele>187.600006103515625</ele>
        <time>2018-08-18T10:29:49.000Z</time>
        <extensions>
          <ns3:TrackPointExtension>
            <ns3:atemp>13.0</ns3:atemp>
          </ns3:TrackPointExtension>
        </extensions>
      </trkpt>
      <trkpt lat="60.13913257978856563568115234375" lon="15.8205678127706050872802734375">
        <ele>187.399993896484375</ele>
        <time>2018-08-18T10:29:54.000Z</time>
        <extensions>
          <ns3:TrackPointExtension>
            <ns3:atemp>13.0</ns3:atemp>
          </ns3:TrackPointExtension>
        </extensions>
      </trkpt>
      <trkpt lat="60.13930658809840679168701171875" lon="15.8206050284206867218017578125">
        <ele>187.1999969482421875</ele>
        <time>2018-08-18T10:29:59.000Z</time>
        <extensions>
          <ns3:TrackPointExtension>
            <ns3:atemp>13.0</ns3:atemp>
          </ns3:TrackPointExtension>
        </extensions>
      </trkpt>
      <trkpt lat="60.1394815184175968170166015625" lon="15.820638053119182586669921875">
        <ele>187</ele>
        <time>2018-08-18T10:30:04.000Z</time>
        <extensions>
          <ns3:TrackPointExtension>
            <ns3:atemp>13.0</ns3:atemp>
          </ns3:TrackPointExtension>
        </extensions>
      </trkpt>
      <trkpt lat="60.13968444429337978363037109375" lon="15.8206697367131710052490234375">
        <ele>186.600006103515625</ele>
        <time>2018-08-18T10:30:10.000Z</time>
        <extensions>
          <ns3:TrackPointExtension>
            <ns3:atemp>13.0</ns3:atemp>
          </ns3:TrackPointExtension>
        </extensions>
      </trkpt>
      <trkpt lat="60.139903463423252105712890625" lon="15.82071416079998016357421875">
        <ele>186.1999969482421875</ele>
        <time>2018-08-18T10:30:16.000Z</time>
        <extensions>
          <ns3:TrackPointExtension>
            <ns3:atemp>14.0</ns3:atemp>
          </ns3:TrackPointExtension>
        </extensions>
      </trkpt>
      <trkpt lat="60.140026509761810302734375" lon="15.8207337744534015655517578125">
        <ele>186.1999969482421875</ele>
        <time>2018-08-18T10:30:19.000Z</time>
        <extensions>
          <ns3:TrackPointExtension>
            <ns3:atemp>14.0</ns3:atemp>
          </ns3:TrackPointExtension>
        </extensions>
      </trkpt>
      <trkpt lat="60.1406020112335681915283203125" lon="15.8208457566797733306884765625">
        <ele>185.1999969482421875</ele>
        <time>2018-08-18T10:30:32.000Z</time>
        <extensions>
          <ns3:TrackPointExtension>
            <ns3:atemp>14.0</ns3:atemp>
          </ns3:TrackPointExtension>
        </extensions>
      </trkpt>
      <trkpt lat="60.14117089100182056427001953125" lon="15.82097165286540985107421875">
        <ele>184.399993896484375</ele>
        <time>2018-08-18T10:30:45.000Z</time>
        <extensions>
          <ns3:TrackPointExtension>
            <ns3:atemp>14.0</ns3:atemp>
          </ns3:TrackPointExtension>
        </extensions>
      </trkpt>
      <trkpt lat="60.1413582265377044677734375" lon="15.8210033364593982696533203125">
        <ele>184</ele>
        <time>2018-08-18T10:30:49.000Z</time>
        <extensions>
          <ns3:TrackPointExtension>
            <ns3:atemp>14.0</ns3:atemp>
          </ns3:TrackPointExtension>
        </extensions>
      </trkpt>
      <trkpt lat="60.141917131841182708740234375" lon="15.82113333977758884429931640625">
        <ele>183.1999969482421875</ele>
        <time>2018-08-18T10:31:02.000Z</time>
        <extensions>
          <ns3:TrackPointExtension>
            <ns3:atemp>14.0</ns3:atemp>
          </ns3:TrackPointExtension>
        </extensions>
      </trkpt>
      <trkpt lat="60.14199684374034404754638671875" lon="15.82114976830780506134033203125">
        <ele>183.1999969482421875</ele>
        <time>2018-08-18T10:31:04.000Z</time>
        <extensions>
          <ns3:TrackPointExtension>
            <ns3:atemp>14.0</ns3:atemp>
          </ns3:TrackPointExtension>
        </extensions>
      </trkpt>
      <trkpt lat="60.14219976961612701416015625" lon="15.8211977966129779815673828125">
        <ele>183</ele>
        <time>2018-08-18T10:31:09.000Z</time>
        <extensions>
          <ns3:TrackPointExtension>
            <ns3:atemp>14.0</ns3:atemp>
          </ns3:TrackPointExtension>
        </extensions>
      </trkpt>
      <trkpt lat="60.1424175314605236053466796875" lon="15.821246244013309478759765625">
        <ele>183</ele>
        <time>2018-08-18T10:31:14.000Z</time>
        <extensions>
          <ns3:TrackPointExtension>
            <ns3:atemp>14.0</ns3:atemp>
          </ns3:TrackPointExtension>
        </extensions>
      </trkpt>
      <trkpt lat="60.1428812183439731597900390625" lon="15.82134045660495758056640625">
        <ele>183</ele>
        <time>2018-08-18T10:31:25.000Z</time>
        <extensions>
          <ns3:TrackPointExtension>
            <ns3:atemp>14.0</ns3:atemp>
          </ns3:TrackPointExtension>
        </extensions>
      </trkpt>
      <trkpt lat="60.14332420192658901214599609375" lon="15.821441709995269775390625">
        <ele>183</ele>
        <time>2018-08-18T10:31:35.000Z</time>
        <extensions>
          <ns3:TrackPointExtension>
            <ns3:atemp>14.0</ns3:atemp>
          </ns3:TrackPointExtension>
        </extensions>
      </trkpt>
      <trkpt lat="60.1434555463492870330810546875" lon="15.82145989872515201568603515625">
        <ele>183</ele>
        <time>2018-08-18T10:31:38.000Z</time>
        <extensions>
          <ns3:TrackPointExtension>
            <ns3:atemp>14.0</ns3:atemp>
          </ns3:TrackPointExtension>
        </extensions>
      </trkpt>
      <trkpt lat="60.14381135813891887664794921875" lon="15.821506418287754058837890625">
        <ele>183</ele>
        <time>2018-08-18T10:31:46.000Z</time>
        <extensions>
          <ns3:TrackPointExtension>
            <ns3:atemp>14.0</ns3:atemp>
          </ns3:TrackPointExtension>
        </extensions>
      </trkpt>
      <trkpt lat="60.14424051158130168914794921875" lon="15.82157858647406101226806640625">
        <ele>183</ele>
        <time>2018-08-18T10:31:56.000Z</time>
        <extensions>
          <ns3:TrackPointExtension>
            <ns3:atemp>14.0</ns3:atemp>
          </ns3:TrackPointExtension>
        </extensions>
      </trkpt>
      <trkpt lat="60.14469824731349945068359375" lon="15.82156802527606487274169921875">
        <ele>183</ele>
        <time>2018-08-18T10:32:06.000Z</time>
        <extensions>
          <ns3:TrackPointExtension>
            <ns3:atemp>14.0</ns3:atemp>
          </ns3:TrackPointExtension>
        </extensions>
      </trkpt>
      <trkpt lat="60.1449215412139892578125" lon="15.82155411131680011749267578125">
        <ele>183</ele>
        <time>2018-08-18T10:32:11.000Z</time>
        <extensions>
          <ns3:TrackPointExtension>
            <ns3:atemp>14.0</ns3:atemp>
          </ns3:TrackPointExtension>
        </extensions>
      </trkpt>
      <trkpt lat="60.1451382972300052642822265625" lon="15.82154606468975543975830078125">
        <ele>182.8000030517578125</ele>
        <time>2018-08-18T10:32:16.000Z</time>
        <extensions>
          <ns3:TrackPointExtension>
            <ns3:atemp>14.0</ns3:atemp>
          </ns3:TrackPointExtension>
        </extensions>
      </trkpt>
      <trkpt lat="60.14547969214618206024169921875" lon="15.82152552902698516845703125">
        <ele>182.600006103515625</ele>
        <time>2018-08-18T10:32:24.000Z</time>
        <extensions>
          <ns3:TrackPointExtension>
            <ns3:atemp>14.0</ns3:atemp>
          </ns3:TrackPointExtension>
        </extensions>
      </trkpt>
      <trkpt lat="60.1459107734262943267822265625" lon="15.82138605415821075439453125">
        <ele>182.399993896484375</ele>
        <time>2018-08-18T10:32:33.000Z</time>
        <extensions>
          <ns3:TrackPointExtension>
            <ns3:atemp>14.0</ns3:atemp>
          </ns3:TrackPointExtension>
        </extensions>
      </trkpt>
      <trkpt lat="60.146464817225933074951171875" lon="15.82120768725872039794921875">
        <ele>182</ele>
        <time>2018-08-18T10:32:44.000Z</time>
        <extensions>
          <ns3:TrackPointExtension>
            <ns3:atemp>14.0</ns3:atemp>
          </ns3:TrackPointExtension>
        </extensions>
      </trkpt>
      <trkpt lat="60.147027410566806793212890625" lon="15.821407847106456756591796875">
        <ele>181.600006103515625</ele>
        <time>2018-08-18T10:32:54.000Z</time>
        <extensions>
          <ns3:TrackPointExtension>
            <ns3:atemp>14.0</ns3:atemp>
          </ns3:TrackPointExtension>
        </extensions>
      </trkpt>
      <trkpt lat="60.1474413089454174041748046875" lon="15.8216152153909206390380859375">
        <ele>181.1999969482421875</ele>
        <time>2018-08-18T10:33:01.000Z</time>
        <extensions>
          <ns3:TrackPointExtension>
            <ns3:atemp>14.0</ns3:atemp>
          </ns3:TrackPointExtension>
        </extensions>
      </trkpt>
      <trkpt lat="60.14761246740818023681640625" lon="15.82172828726470470428466796875">
        <ele>181</ele>
        <time>2018-08-18T10:33:04.000Z</time>
        <extensions>
          <ns3:TrackPointExtension>
            <ns3:atemp>14.0</ns3:atemp>
          </ns3:TrackPointExtension>
        </extensions>
      </trkpt>
      <trkpt lat="60.14772377908229827880859375" lon="15.8217986114323139190673828125">
        <ele>180.8000030517578125</ele>
        <time>2018-08-18T10:33:06.000Z</time>
        <extensions>
          <ns3:TrackPointExtension>
            <ns3:atemp>14.0</ns3:atemp>
          </ns3:TrackPointExtension>
        </extensions>
      </trkpt>
      <trkpt lat="60.14807355590164661407470703125" lon="15.82210890948772430419921875">
        <ele>180.600006103515625</ele>
        <time>2018-08-18T10:33:12.000Z</time>
        <extensions>
          <ns3:TrackPointExtension>
            <ns3:atemp>14.0</ns3:atemp>
          </ns3:TrackPointExtension>
        </extensions>
      </trkpt>
      <trkpt lat="60.14819090254604816436767578125" lon="15.8222837559878826141357421875">
        <ele>180.399993896484375</ele>
        <time>2018-08-18T10:33:14.000Z</time>
        <extensions>
          <ns3:TrackPointExtension>
            <ns3:atemp>14.0</ns3:atemp>
          </ns3:TrackPointExtension>
        </extensions>
      </trkpt>
      <trkpt lat="60.14860396273434162139892578125" lon="15.8230666257441043853759765625">
        <ele>179.8000030517578125</ele>
        <time>2018-08-18T10:33:22.000Z</time>
        <extensions>
          <ns3:TrackPointExtension>
            <ns3:atemp>14.0</ns3:atemp>
          </ns3:TrackPointExtension>
        </extensions>
      </trkpt>
      <trkpt lat="60.1490134187042713165283203125" lon="15.8239256031811237335205078125">
        <ele>179.1999969482421875</ele>
        <time>2018-08-18T10:33:31.000Z</time>
        <extensions>
          <ns3:TrackPointExtension>
            <ns3:atemp>14.0</ns3:atemp>
          </ns3:TrackPointExtension>
        </extensions>
      </trkpt>
      <trkpt lat="60.1493735052645206451416015625" lon="15.82487820647656917572021484375">
        <ele>177.1999969482421875</ele>
        <time>2018-08-18T10:33:40.000Z</time>
        <extensions>
          <ns3:TrackPointExtension>
            <ns3:atemp>14.0</ns3:atemp>
          </ns3:TrackPointExtension>
        </extensions>
      </trkpt>
      <trkpt lat="60.14940560795366764068603515625" lon="15.82500795833766460418701171875">
        <ele>176.8000030517578125</ele>
        <time>2018-08-18T10:33:41.000Z</time>
        <extensions>
          <ns3:TrackPointExtension>
            <ns3:atemp>14.0</ns3:atemp>
          </ns3:TrackPointExtension>
        </extensions>
      </trkpt>
      <trkpt lat="60.14951775781810283660888671875" lon="15.82551070488989353179931640625">
        <ele>175.600006103515625</ele>
        <time>2018-08-18T10:33:45.000Z</time>
        <extensions>
          <ns3:TrackPointExtension>
            <ns3:atemp>14.0</ns3:atemp>
          </ns3:TrackPointExtension>
        </extensions>
      </trkpt>
      <trkpt lat="60.14961549080908298492431640625" lon="15.8259909041225910186767578125">
        <ele>174.399993896484375</ele>
        <time>2018-08-18T10:33:49.000Z</time>
        <extensions>
          <ns3:TrackPointExtension>
            <ns3:atemp>14.0</ns3:atemp>
          </ns3:TrackPointExtension>
        </extensions>
      </trkpt>
      <trkpt lat="60.149870552122592926025390625" lon="15.82709723152220249176025390625">
        <ele>171.8000030517578125</ele>
        <time>2018-08-18T10:33:58.000Z</time>
        <extensions>
          <ns3:TrackPointExtension>
            <ns3:atemp>14.0</ns3:atemp>
          </ns3:TrackPointExtension>
        </extensions>
      </trkpt>
      <trkpt lat="60.15004296787083148956298828125" lon="15.827904157340526580810546875">
        <ele>169.8000030517578125</ele>
        <time>2018-08-18T10:34:04.000Z</time>
        <extensions>
          <ns3:TrackPointExtension>
            <ns3:atemp>14.0</ns3:atemp>
          </ns3:TrackPointExtension>
        </extensions>
      </trkpt>
      <trkpt lat="60.150211863219738006591796875" lon="15.82900579087436199188232421875">
        <ele>167.1999969482421875</ele>
        <time>2018-08-18T10:34:11.000Z</time>
        <extensions>
          <ns3:TrackPointExtension>
            <ns3:atemp>14.0</ns3:atemp>
          </ns3:TrackPointExtension>
        </extensions>
      </trkpt>
      <trkpt lat="60.1502475701272487640380859375" lon="15.8292994089424610137939453125">
        <ele>166.399993896484375</ele>
        <time>2018-08-18T10:34:13.000Z</time>
        <extensions>
          <ns3:TrackPointExtension>
            <ns3:atemp>14.0</ns3:atemp>
          </ns3:TrackPointExtension>
        </extensions>
      </trkpt>
      <trkpt lat="60.15027849934995174407958984375" lon="15.82958615384995937347412109375">
        <ele>165.8000030517578125</ele>
        <time>2018-08-18T10:34:15.000Z</time>
        <extensions>
          <ns3:TrackPointExtension>
            <ns3:atemp>14.0</ns3:atemp>
          </ns3:TrackPointExtension>
        </extensions>
      </trkpt>
      <trkpt lat="60.150327198207378387451171875" lon="15.83003106527030467987060546875">
        <ele>164.600006103515625</ele>
        <time>2018-08-18T10:34:18.000Z</time>
        <extensions>
          <ns3:TrackPointExtension>
            <ns3:atemp>14.0</ns3:atemp>
          </ns3:TrackPointExtension>
        </extensions>
      </trkpt>
      <trkpt lat="60.15046860091388225555419921875" lon="15.830890797078609466552734375">
        <ele>162.399993896484375</ele>
        <time>2018-08-18T10:34:24.000Z</time>
        <extensions>
          <ns3:TrackPointExtension>
            <ns3:atemp>14.0</ns3:atemp>
          </ns3:TrackPointExtension>
        </extensions>
      </trkpt>
      <trkpt lat="60.15066121704876422882080078125" lon="15.8313546516001224517822265625">
        <ele>161</ele>
        <time>2018-08-18T10:34:28.000Z</time>
        <extensions>
          <ns3:TrackPointExtension>
            <ns3:atemp>14.0</ns3:atemp>
          </ns3:TrackPointExtension>
        </extensions>
      </trkpt>
      <trkpt lat="60.15094519592821598052978515625" lon="15.831661932170391082763671875">
        <ele>160.1999969482421875</ele>
        <time>2018-08-18T10:34:32.000Z</time>
        <extensions>
          <ns3:TrackPointExtension>
            <ns3:atemp>14.0</ns3:atemp>
          </ns3:TrackPointExtension>
        </extensions>
      </trkpt>
      <trkpt lat="60.15111383982002735137939453125" lon="15.831750445067882537841796875">
        <ele>159.8000030517578125</ele>
        <time>2018-08-18T10:34:34.000Z</time>
        <extensions>
          <ns3:TrackPointExtension>
            <ns3:atemp>14.0</ns3:atemp>
          </ns3:TrackPointExtension>
        </extensions>
      </trkpt>
      <trkpt lat="60.15152254141867160797119140625" lon="15.8319009840488433837890625">
        <ele>159.399993896484375</ele>
        <time>2018-08-18T10:34:39.000Z</time>
        <extensions>
          <ns3:TrackPointExtension>
            <ns3:atemp>14.0</ns3:atemp>
          </ns3:TrackPointExtension>
        </extensions>
      </trkpt>
      <trkpt lat="60.15172454528510570526123046875" lon="15.8319775946438312530517578125">
        <ele>159</ele>
        <time>2018-08-18T10:34:42.000Z</time>
        <extensions>
          <ns3:TrackPointExtension>
            <ns3:atemp>14.0</ns3:atemp>
          </ns3:TrackPointExtension>
        </extensions>
      </trkpt>
      <trkpt lat="60.1522431336343288421630859375" lon="15.83221790380775928497314453125">
        <ele>158.1999969482421875</ele>
        <time>2018-08-18T10:34:53.000Z</time>
        <extensions>
          <ns3:TrackPointExtension>
            <ns3:atemp>14.0</ns3:atemp>
          </ns3:TrackPointExtension>
        </extensions>
      </trkpt>
      <trkpt lat="60.152430050075054168701171875" lon="15.83228764124214649200439453125">
        <ele>157.8000030517578125</ele>
        <time>2018-08-18T10:34:57.000Z</time>
        <extensions>
          <ns3:TrackPointExtension>
            <ns3:atemp>14.0</ns3:atemp>
          </ns3:TrackPointExtension>
        </extensions>
      </trkpt>
      <trkpt lat="60.15258972533047199249267578125" lon="15.83234765566885471343994140625">
        <ele>157.600006103515625</ele>
        <time>2018-08-18T10:35:00.000Z</time>
        <extensions>
          <ns3:TrackPointExtension>
            <ns3:atemp>14.0</ns3:atemp>
          </ns3:TrackPointExtension>
        </extensions>
      </trkpt>
      <trkpt lat="60.15318366698920726776123046875" lon="15.83262090571224689483642578125">
        <ele>156.8000030517578125</ele>
        <time>2018-08-18T10:35:09.000Z</time>
        <extensions>
          <ns3:TrackPointExtension>
            <ns3:atemp>14.0</ns3:atemp>
          </ns3:TrackPointExtension>
        </extensions>
      </trkpt>
      <trkpt lat="60.15365975908935070037841796875" lon="15.833126418292522430419921875">
        <ele>157.1999969482421875</ele>
        <time>2018-08-18T10:35:16.000Z</time>
        <extensions>
          <ns3:TrackPointExtension>
            <ns3:atemp>14.0</ns3:atemp>
          </ns3:TrackPointExtension>
        </extensions>
      </trkpt>
      <trkpt lat="60.153858996927738189697265625" lon="15.8333653025329113006591796875">
        <ele>157.399993896484375</ele>
        <time>2018-08-18T10:35:19.000Z</time>
        <extensions>
          <ns3:TrackPointExtension>
            <ns3:atemp>14.0</ns3:atemp>
          </ns3:TrackPointExtension>
        </extensions>
      </trkpt>
      <trkpt lat="60.154135264456272125244140625" lon="15.83367995917797088623046875">
        <ele>157.8000030517578125</ele>
        <time>2018-08-18T10:35:23.000Z</time>
        <extensions>
          <ns3:TrackPointExtension>
            <ns3:atemp>14.0</ns3:atemp>
          </ns3:TrackPointExtension>
        </extensions>
      </trkpt>
      <trkpt lat="60.154345147311687469482421875" lon="15.8339238725602626800537109375">
        <ele>158.1999969482421875</ele>
        <time>2018-08-18T10:35:26.000Z</time>
        <extensions>
          <ns3:TrackPointExtension>
            <ns3:atemp>14.0</ns3:atemp>
          </ns3:TrackPointExtension>
        </extensions>
      </trkpt>
      <trkpt lat="60.15454572625458240509033203125" lon="15.83414574153721332550048828125">
        <ele>158.600006103515625</ele>
        <time>2018-08-18T10:35:29.000Z</time>
        <extensions>
          <ns3:TrackPointExtension>
            <ns3:atemp>14.0</ns3:atemp>
          </ns3:TrackPointExtension>
        </extensions>
      </trkpt>
      <trkpt lat="60.1547600515186786651611328125" lon="15.83437657915055751800537109375">
        <ele>159</ele>
        <time>2018-08-18T10:35:32.000Z</time>
        <extensions>
          <ns3:TrackPointExtension>
            <ns3:atemp>14.0</ns3:atemp>
          </ns3:TrackPointExtension>
        </extensions>
      </trkpt>
      <trkpt lat="60.1551493071019649505615234375" lon="15.83481411449611186981201171875">
        <ele>159.600006103515625</ele>
        <time>2018-08-18T10:35:37.000Z</time>
        <extensions>
          <ns3:TrackPointExtension>
            <ns3:atemp>14.0</ns3:atemp>
          </ns3:TrackPointExtension>
        </extensions>
      </trkpt>
      <trkpt lat="60.15556027181446552276611328125" lon="15.83529272116720676422119140625">
        <ele>160.1999969482421875</ele>
        <time>2018-08-18T10:35:42.000Z</time>
        <extensions>
          <ns3:TrackPointExtension>
            <ns3:atemp>14.0</ns3:atemp>
          </ns3:TrackPointExtension>
        </extensions>
      </trkpt>
      <trkpt lat="60.1557176001369953155517578125" lon="15.83547192625701427459716796875">
        <ele>160.399993896484375</ele>
        <time>2018-08-18T10:35:44.000Z</time>
        <extensions>
          <ns3:TrackPointExtension>
            <ns3:atemp>14.0</ns3:atemp>
          </ns3:TrackPointExtension>
        </extensions>
      </trkpt>
      <trkpt lat="60.15586704947054386138916015625" lon="15.83563654683530330657958984375">
        <ele>160.8000030517578125</ele>
        <time>2018-08-18T10:35:46.000Z</time>
        <extensions>
          <ns3:TrackPointExtension>
            <ns3:atemp>14.0</ns3:atemp>
          </ns3:TrackPointExtension>
        </extensions>
      </trkpt>
      <trkpt lat="60.1560840569436550140380859375" lon="15.83587937057018280029296875">
        <ele>161</ele>
        <time>2018-08-18T10:35:49.000Z</time>
        <extensions>
          <ns3:TrackPointExtension>
            <ns3:atemp>14.0</ns3:atemp>
          </ns3:TrackPointExtension>
        </extensions>
      </trkpt>
      <trkpt lat="60.15656593255698680877685546875" lon="15.8363935165107250213623046875">
        <ele>162</ele>
        <time>2018-08-18T10:35:56.000Z</time>
        <extensions>
          <ns3:TrackPointExtension>
            <ns3:atemp>14.0</ns3:atemp>
          </ns3:TrackPointExtension>
        </extensions>
      </trkpt>
      <trkpt lat="60.156842283904552459716796875" lon="15.83656677044928073883056640625">
        <ele>162.600006103515625</ele>
        <time>2018-08-18T10:36:00.000Z</time>
        <extensions>
          <ns3:TrackPointExtension>
            <ns3:atemp>14.0</ns3:atemp>
          </ns3:TrackPointExtension>
        </extensions>
      </trkpt>
      <trkpt lat="60.15738484449684619903564453125" lon="15.83677933551371097564697265625">
        <ele>163.8000030517578125</ele>
        <time>2018-08-18T10:36:07.000Z</time>
        <extensions>
          <ns3:TrackPointExtension>
            <ns3:atemp>14.0</ns3:atemp>
          </ns3:TrackPointExtension>
        </extensions>
      </trkpt>
      <trkpt lat="60.15775867737829685211181640625" lon="15.836915709078311920166015625">
        <ele>164.8000030517578125</ele>
        <time>2018-08-18T10:36:12.000Z</time>
        <extensions>
          <ns3:TrackPointExtension>
            <ns3:atemp>14.0</ns3:atemp>
          </ns3:TrackPointExtension>
        </extensions>
      </trkpt>
      <trkpt lat="60.1583374477922916412353515625" lon="15.8371254242956638336181640625">
        <ele>165.600006103515625</ele>
        <time>2018-08-18T10:36:21.000Z</time>
        <extensions>
          <ns3:TrackPointExtension>
            <ns3:atemp>14.0</ns3:atemp>
          </ns3:TrackPointExtension>
        </extensions>
      </trkpt>
      <trkpt lat="60.1588537730276584625244140625" lon="15.83740663714706897735595703125">
        <ele>166.1999969482421875</ele>
        <time>2018-08-18T10:36:28.000Z</time>
        <extensions>
          <ns3:TrackPointExtension>
            <ns3:atemp>14.0</ns3:atemp>
          </ns3:TrackPointExtension>
        </extensions>
      </trkpt>
      <trkpt lat="60.15920053236186504364013671875" lon="15.8379833959043025970458984375">
        <ele>167</ele>
        <time>2018-08-18T10:36:34.000Z</time>
        <extensions>
          <ns3:TrackPointExtension>
            <ns3:atemp>14.0</ns3:atemp>
          </ns3:TrackPointExtension>
        </extensions>
      </trkpt>
      <trkpt lat="60.15926909632980823516845703125" lon="15.838194787502288818359375">
        <ele>167.399993896484375</ele>
        <time>2018-08-18T10:36:36.000Z</time>
        <extensions>
          <ns3:TrackPointExtension>
            <ns3:atemp>14.0</ns3:atemp>
          </ns3:TrackPointExtension>
        </extensions>
      </trkpt>
      <trkpt lat="60.15947277657687664031982421875" lon="15.83928988315165042877197265625">
        <ele>167.1999969482421875</ele>
        <time>2018-08-18T10:36:45.000Z</time>
        <extensions>
          <ns3:TrackPointExtension>
            <ns3:atemp>14.0</ns3:atemp>
          </ns3:TrackPointExtension>
        </extensions>
      </trkpt>
      <trkpt lat="60.159515105187892913818359375" lon="15.8395506441593170166015625">
        <ele>167</ele>
        <time>2018-08-18T10:36:47.000Z</time>
        <extensions>
          <ns3:TrackPointExtension>
            <ns3:atemp>14.0</ns3:atemp>
          </ns3:TrackPointExtension>
        </extensions>
      </trkpt>
      <trkpt lat="60.15970210544764995574951171875" lon="15.84067122079432010650634765625">
        <ele>166.1999969482421875</ele>
        <time>2018-08-18T10:36:56.000Z</time>
        <extensions>
          <ns3:TrackPointExtension>
            <ns3:atemp>14.0</ns3:atemp>
          </ns3:TrackPointExtension>
        </extensions>
      </trkpt>
      <trkpt lat="60.159931182861328125" lon="15.8416784740984439849853515625">
        <ele>168.1999969482421875</ele>
        <time>2018-08-18T10:37:05.000Z</time>
        <extensions>
          <ns3:TrackPointExtension>
            <ns3:atemp>14.0</ns3:atemp>
          </ns3:TrackPointExtension>
        </extensions>
      </trkpt>
      <trkpt lat="60.16028112731873989105224609375" lon="15.84245237521827220916748046875">
        <ele>170.600006103515625</ele>
        <time>2018-08-18T10:37:14.000Z</time>
        <extensions>
          <ns3:TrackPointExtension>
            <ns3:atemp>14.0</ns3:atemp>
          </ns3:TrackPointExtension>
        </extensions>
      </trkpt>
      <trkpt lat="60.160687230527400970458984375" lon="15.84297289140522480010986328125">
        <ele>172.600006103515625</ele>
        <time>2018-08-18T10:37:23.000Z</time>
        <extensions>
          <ns3:TrackPointExtension>
            <ns3:atemp>14.0</ns3:atemp>
          </ns3:TrackPointExtension>
        </extensions>
      </trkpt>
      <trkpt lat="60.1609410345554351806640625" lon="15.8432314731180667877197265625">
        <ele>173.8000030517578125</ele>
        <time>2018-08-18T10:37:28.000Z</time>
        <extensions>
          <ns3:TrackPointExtension>
            <ns3:atemp>14.0</ns3:atemp>
          </ns3:TrackPointExtension>
        </extensions>
      </trkpt>
      <trkpt lat="60.1614337228238582611083984375" lon="15.8437913842499256134033203125">
        <ele>176.1999969482421875</ele>
        <time>2018-08-18T10:37:36.000Z</time>
        <extensions>
          <ns3:TrackPointExtension>
            <ns3:atemp>14.0</ns3:atemp>
          </ns3:TrackPointExtension>
        </extensions>
      </trkpt>
      <trkpt lat="60.16153355129063129425048828125" lon="15.84397804923355579376220703125">
        <ele>176.8000030517578125</ele>
        <time>2018-08-18T10:37:38.000Z</time>
        <extensions>
          <ns3:TrackPointExtension>
            <ns3:atemp>14.0</ns3:atemp>
          </ns3:TrackPointExtension>
        </extensions>
      </trkpt>
      <trkpt lat="60.16165425069630146026611328125" lon="15.8444217033684253692626953125">
        <ele>178</ele>
        <time>2018-08-18T10:37:42.000Z</time>
        <extensions>
          <ns3:TrackPointExtension>
            <ns3:atemp>14.0</ns3:atemp>
          </ns3:TrackPointExtension>
        </extensions>
      </trkpt>
      <trkpt lat="60.16169540584087371826171875" lon="15.845051519572734832763671875">
        <ele>179.1999969482421875</ele>
        <time>2018-08-18T10:37:47.000Z</time>
        <extensions>
          <ns3:TrackPointExtension>
            <ns3:atemp>14.0</ns3:atemp>
          </ns3:TrackPointExtension>
        </extensions>
      </trkpt>
      <trkpt lat="60.1616694219410419464111328125" lon="15.84615130908787250518798828125">
        <ele>181</ele>
        <time>2018-08-18T10:37:55.000Z</time>
        <extensions>
          <ns3:TrackPointExtension>
            <ns3:atemp>14.0</ns3:atemp>
          </ns3:TrackPointExtension>
        </extensions>
      </trkpt>
      <trkpt lat="60.16167101450264453887939453125" lon="15.84654978476464748382568359375">
        <ele>181.600006103515625</ele>
        <time>2018-08-18T10:37:58.000Z</time>
        <extensions>
          <ns3:TrackPointExtension>
            <ns3:atemp>14.0</ns3:atemp>
          </ns3:TrackPointExtension>
        </extensions>
      </trkpt>
      <trkpt lat="60.1620447635650634765625" lon="15.8472289703786373138427734375">
        <ele>182.1999969482421875</ele>
        <time>2018-08-18T10:38:08.000Z</time>
        <extensions>
          <ns3:TrackPointExtension>
            <ns3:atemp>15.0</ns3:atemp>
          </ns3:TrackPointExtension>
        </extensions>
      </trkpt>
      <trkpt lat="60.162174515426158905029296875" lon="15.84721514023840427398681640625">
        <ele>182</ele>
        <time>2018-08-18T10:38:11.000Z</time>
        <extensions>
          <ns3:TrackPointExtension>
            <ns3:atemp>15.0</ns3:atemp>
          </ns3:TrackPointExtension>
        </extensions>
      </trkpt>
      <trkpt lat="60.16238800249993801116943359375" lon="15.84710500203073024749755859375">
        <ele>181.600006103515625</ele>
        <time>2018-08-18T10:38:16.000Z</time>
        <extensions>
          <ns3:TrackPointExtension>
            <ns3:atemp>15.0</ns3:atemp>
          </ns3:TrackPointExtension>
        </extensions>
      </trkpt>
      <trkpt lat="60.1625056006014347076416015625" lon="15.84702705033123493194580078125">
        <ele>181.1999969482421875</ele>
        <time>2018-08-18T10:38:19.000Z</time>
        <extensions>
          <ns3:TrackPointExtension>
            <ns3:atemp>15.0</ns3:atemp>
          </ns3:TrackPointExtension>
        </extensions>
      </trkpt>
      <trkpt lat="60.16267533414065837860107421875" lon="15.8469252102077007293701171875">
        <ele>180.8000030517578125</ele>
        <time>2018-08-18T10:38:23.000Z</time>
        <extensions>
          <ns3:TrackPointExtension>
            <ns3:atemp>15.0</ns3:atemp>
          </ns3:TrackPointExtension>
        </extensions>
      </trkpt>
      <trkpt lat="60.162812210619449615478515625" lon="15.84684231318533420562744140625">
        <ele>180.399993896484375</ele>
        <time>2018-08-18T10:38:26.000Z</time>
        <extensions>
          <ns3:TrackPointExtension>
            <ns3:atemp>15.0</ns3:atemp>
          </ns3:TrackPointExtension>
        </extensions>
      </trkpt>
      <trkpt lat="60.16313281841576099395751953125" lon="15.84665514528751373291015625">
        <ele>179.600006103515625</ele>
        <time>2018-08-18T10:38:33.000Z</time>
        <extensions>
          <ns3:TrackPointExtension>
            <ns3:atemp>15.0</ns3:atemp>
          </ns3:TrackPointExtension>
        </extensions>
      </trkpt>
      <trkpt lat="60.16339265741407871246337890625" lon="15.8465798757970333099365234375">
        <ele>179</ele>
        <time>2018-08-18T10:38:38.000Z</time>
        <extensions>
          <ns3:TrackPointExtension>
            <ns3:atemp>15.0</ns3:atemp>
          </ns3:TrackPointExtension>
        </extensions>
      </trkpt>
      <trkpt lat="60.163842849433422088623046875" lon="15.8470650203526020050048828125">
        <ele>179.1999969482421875</ele>
        <time>2018-08-18T10:38:48.000Z</time>
        <extensions>
          <ns3:TrackPointExtension>
            <ns3:atemp>15.0</ns3:atemp>
          </ns3:TrackPointExtension>
        </extensions>
      </trkpt>
      <trkpt lat="60.1641457714140415191650390625" lon="15.8479833416640758514404296875">
        <ele>180.1999969482421875</ele>
        <time>2018-08-18T10:39:01.000Z</time>
        <extensions>
          <ns3:TrackPointExtension>
            <ns3:atemp>15.0</ns3:atemp>
          </ns3:TrackPointExtension>
        </extensions>
      </trkpt>
      <trkpt lat="60.1642601005733013153076171875" lon="15.848325826227664947509765625">
        <ele>180.600006103515625</ele>
        <time>2018-08-18T10:39:06.000Z</time>
        <extensions>
          <ns3:TrackPointExtension>
            <ns3:atemp>15.0</ns3:atemp>
          </ns3:TrackPointExtension>
        </extensions>
      </trkpt>
      <trkpt lat="60.164353810250759124755859375" lon="15.84866085089743137359619140625">
        <ele>181</ele>
        <time>2018-08-18T10:39:11.000Z</time>
        <extensions>
          <ns3:TrackPointExtension>
            <ns3:atemp>15.0</ns3:atemp>
          </ns3:TrackPointExtension>
        </extensions>
      </trkpt>
      <trkpt lat="60.1644118130207061767578125" lon="15.84910760633647441864013671875">
        <ele>181.8000030517578125</ele>
        <time>2018-08-18T10:39:18.000Z</time>
        <extensions>
          <ns3:TrackPointExtension>
            <ns3:atemp>15.0</ns3:atemp>
          </ns3:TrackPointExtension>
        </extensions>
      </trkpt>
      <trkpt lat="60.1644223742187023162841796875" lon="15.84943081252276897430419921875">
        <ele>181.600006103515625</ele>
        <time>2018-08-18T10:39:23.000Z</time>
        <extensions>
          <ns3:TrackPointExtension>
            <ns3:atemp>15.0</ns3:atemp>
          </ns3:TrackPointExtension>
        </extensions>
      </trkpt>
      <trkpt lat="60.16442296095192432403564453125" lon="15.8494997955858707427978515625">
        <ele>181.600006103515625</ele>
        <time>2018-08-18T10:39:24.000Z</time>
        <extensions>
          <ns3:TrackPointExtension>
            <ns3:atemp>15.0</ns3:atemp>
          </ns3:TrackPointExtension>
        </extensions>
      </trkpt>
      <trkpt lat="60.16442681662738323211669921875" lon="15.8497871272265911102294921875">
        <ele>181.399993896484375</ele>
        <time>2018-08-18T10:39:28.000Z</time>
        <extensions>
          <ns3:TrackPointExtension>
            <ns3:atemp>15.0</ns3:atemp>
          </ns3:TrackPointExtension>
        </extensions>
      </trkpt>
      <trkpt lat="60.1644307561218738555908203125" lon="15.85008108057081699371337890625">
        <ele>181.1999969482421875</ele>
        <time>2018-08-18T10:39:32.000Z</time>
        <extensions>
          <ns3:TrackPointExtension>
            <ns3:atemp>15.0</ns3:atemp>
          </ns3:TrackPointExtension>
        </extensions>
      </trkpt>
      <trkpt lat="60.16450040973722934722900390625" lon="15.85074576549232006072998046875">
        <ele>180.600006103515625</ele>
        <time>2018-08-18T10:39:42.000Z</time>
        <extensions>
          <ns3:TrackPointExtension>
            <ns3:atemp>15.0</ns3:atemp>
          </ns3:TrackPointExtension>
        </extensions>
      </trkpt>
      <trkpt lat="60.16460987739264965057373046875" lon="15.851000659167766571044921875">
        <ele>180.399993896484375</ele>
        <time>2018-08-18T10:39:48.000Z</time>
        <extensions>
          <ns3:TrackPointExtension>
            <ns3:atemp>15.0</ns3:atemp>
          </ns3:TrackPointExtension>
        </extensions>
      </trkpt>
      <trkpt lat="60.1647041738033294677734375" lon="15.8511010743677616119384765625">
        <ele>180.1999969482421875</ele>
        <time>2018-08-18T10:39:52.000Z</time>
        <extensions>
          <ns3:TrackPointExtension>
            <ns3:atemp>15.0</ns3:atemp>
          </ns3:TrackPointExtension>
        </extensions>
      </trkpt>
      <trkpt lat="60.16481238417327404022216796875" lon="15.8511446602642536163330078125">
        <ele>180</ele>
        <time>2018-08-18T10:39:56.000Z</time>
        <extensions>
          <ns3:TrackPointExtension>
            <ns3:atemp>15.0</ns3:atemp>
          </ns3:TrackPointExtension>
        </extensions>
      </trkpt>
      <trkpt lat="60.16500785015523433685302734375" lon="15.85116527974605560302734375">
        <ele>179.600006103515625</ele>
        <time>2018-08-18T10:40:02.000Z</time>
        <extensions>
          <ns3:TrackPointExtension>
            <ns3:atemp>15.0</ns3:atemp>
          </ns3:TrackPointExtension>
        </extensions>
      </trkpt>
      <trkpt lat="60.16525461338460445404052734375" lon="15.85124331526458263397216796875">
        <ele>179.1999969482421875</ele>
        <time>2018-08-18T10:40:09.000Z</time>
        <extensions>
          <ns3:TrackPointExtension>
            <ns3:atemp>15.0</ns3:atemp>
          </ns3:TrackPointExtension>
        </extensions>
      </trkpt>
      <trkpt lat="60.16540850512683391571044921875" lon="15.85130500607192516326904296875">
        <ele>179</ele>
        <time>2018-08-18T10:40:13.000Z</time>
        <extensions>
          <ns3:TrackPointExtension>
            <ns3:atemp>15.0</ns3:atemp>
          </ns3:TrackPointExtension>
        </extensions>
      </trkpt>
      <trkpt lat="60.165544040501117706298828125" lon="15.85137491114437580108642578125">
        <ele>178.600006103515625</ele>
        <time>2018-08-18T10:40:16.000Z</time>
        <extensions>
          <ns3:TrackPointExtension>
            <ns3:atemp>15.0</ns3:atemp>
          </ns3:TrackPointExtension>
        </extensions>
      </trkpt>
      <trkpt lat="60.1657985150814056396484375" lon="15.85155143402516841888427734375">
        <ele>178.1999969482421875</ele>
        <time>2018-08-18T10:40:23.000Z</time>
        <extensions>
          <ns3:TrackPointExtension>
            <ns3:atemp>15.0</ns3:atemp>
          </ns3:TrackPointExtension>
        </extensions>
      </trkpt>
      <trkpt lat="60.1662583462893962860107421875" lon="15.85189961828291416168212890625">
        <ele>177.1999969482421875</ele>
        <time>2018-08-18T10:40:35.000Z</time>
        <extensions>
          <ns3:TrackPointExtension>
            <ns3:atemp>15.0</ns3:atemp>
          </ns3:TrackPointExtension>
        </extensions>
      </trkpt>
      <trkpt lat="60.1668222807347774505615234375" lon="15.85199416615068912506103515625">
        <ele>176.1999969482421875</ele>
        <time>2018-08-18T10:40:46.000Z</time>
        <extensions>
          <ns3:TrackPointExtension>
            <ns3:atemp>16.0</ns3:atemp>
          </ns3:TrackPointExtension>
        </extensions>
      </trkpt>
      <trkpt lat="60.16693216748535633087158203125" lon="15.8520197309553623199462890625">
        <ele>176</ele>
        <time>2018-08-18T10:40:48.000Z</time>
        <extensions>
          <ns3:TrackPointExtension>
            <ns3:atemp>16.0</ns3:atemp>
          </ns3:TrackPointExtension>
        </extensions>
      </trkpt>
      <trkpt lat="60.16715378500521183013916015625" lon="15.85213129408657550811767578125">
        <ele>175.600006103515625</ele>
        <time>2018-08-18T10:40:52.000Z</time>
        <extensions>
          <ns3:TrackPointExtension>
            <ns3:atemp>16.0</ns3:atemp>
          </ns3:TrackPointExtension>
        </extensions>
      </trkpt>
      <trkpt lat="60.1672095246613025665283203125" lon="15.85218854248523712158203125">
        <ele>175.600006103515625</ele>
        <time>2018-08-18T10:40:53.000Z</time>
        <extensions>
          <ns3:TrackPointExtension>
            <ns3:atemp>16.0</ns3:atemp>
          </ns3:TrackPointExtension>
        </extensions>
      </trkpt>
      <trkpt lat="60.16762853600084781646728515625" lon="15.8529162593185901641845703125">
        <ele>174.399993896484375</ele>
        <time>2018-08-18T10:41:01.000Z</time>
        <extensions>
          <ns3:TrackPointExtension>
            <ns3:atemp>16.0</ns3:atemp>
          </ns3:TrackPointExtension>
        </extensions>
      </trkpt>
      <trkpt lat="60.16771470196545124053955078125" lon="15.853129327297210693359375">
        <ele>174.1999969482421875</ele>
        <time>2018-08-18T10:41:03.000Z</time>
        <extensions>
          <ns3:TrackPointExtension>
            <ns3:atemp>16.0</ns3:atemp>
          </ns3:TrackPointExtension>
        </extensions>
      </trkpt>
      <trkpt lat="60.16768452711403369903564453125" lon="15.85406332276761531829833984375">
        <ele>173.600006103515625</ele>
        <time>2018-08-18T10:41:12.000Z</time>
        <extensions>
          <ns3:TrackPointExtension>
            <ns3:atemp>16.0</ns3:atemp>
          </ns3:TrackPointExtension>
        </extensions>
      </trkpt>
      <trkpt lat="60.1673976145684719085693359375" lon="15.85475541651248931884765625">
        <ele>173.8000030517578125</ele>
        <time>2018-08-18T10:41:21.000Z</time>
        <extensions>
          <ns3:TrackPointExtension>
            <ns3:atemp>16.0</ns3:atemp>
          </ns3:TrackPointExtension>
        </extensions>
      </trkpt>
      <trkpt lat="60.16706108115613460540771484375" lon="15.85574322380125522613525390625">
        <ele>173</ele>
        <time>2018-08-18T10:41:31.000Z</time>
        <extensions>
          <ns3:TrackPointExtension>
            <ns3:atemp>16.0</ns3:atemp>
          </ns3:TrackPointExtension>
        </extensions>
      </trkpt>
      <trkpt lat="60.16681582666933536529541015625" lon="15.856812335550785064697265625">
        <ele>172.1999969482421875</ele>
        <time>2018-08-18T10:41:39.000Z</time>
        <extensions>
          <ns3:TrackPointExtension>
            <ns3:atemp>16.0</ns3:atemp>
          </ns3:TrackPointExtension>
        </extensions>
      </trkpt>
      <trkpt lat="60.16674290411174297332763671875" lon="15.857132188975811004638671875">
        <ele>172</ele>
        <time>2018-08-18T10:41:41.000Z</time>
        <extensions>
          <ns3:TrackPointExtension>
            <ns3:atemp>16.0</ns3:atemp>
          </ns3:TrackPointExtension>
        </extensions>
      </trkpt>
      <trkpt lat="60.16657878644764423370361328125" lon="15.8577536232769489288330078125">
        <ele>171.600006103515625</ele>
        <time>2018-08-18T10:41:45.000Z</time>
        <extensions>
          <ns3:TrackPointExtension>
            <ns3:atemp>16.0</ns3:atemp>
          </ns3:TrackPointExtension>
        </extensions>
      </trkpt>
      <trkpt lat="60.1665061153471469879150390625" lon="15.8580417931079864501953125">
        <ele>171.399993896484375</ele>
        <time>2018-08-18T10:41:47.000Z</time>
        <extensions>
          <ns3:TrackPointExtension>
            <ns3:atemp>16.0</ns3:atemp>
          </ns3:TrackPointExtension>
        </extensions>
      </trkpt>
      <trkpt lat="60.166438557207584381103515625" lon="15.85831311531364917755126953125">
        <ele>171.1999969482421875</ele>
        <time>2018-08-18T10:41:49.000Z</time>
        <extensions>
          <ns3:TrackPointExtension>
            <ns3:atemp>16.0</ns3:atemp>
          </ns3:TrackPointExtension>
        </extensions>
      </trkpt>
      <trkpt lat="60.16637292690575122833251953125" lon="15.85857429541647434234619140625">
        <ele>171.1999969482421875</ele>
        <time>2018-08-18T10:41:51.000Z</time>
        <extensions>
          <ns3:TrackPointExtension>
            <ns3:atemp>16.0</ns3:atemp>
          </ns3:TrackPointExtension>
        </extensions>
      </trkpt>
      <trkpt lat="60.1662238128483295440673828125" lon="15.85920025594532489776611328125">
        <ele>170.8000030517578125</ele>
        <time>2018-08-18T10:41:56.000Z</time>
        <extensions>
          <ns3:TrackPointExtension>
            <ns3:atemp>16.0</ns3:atemp>
          </ns3:TrackPointExtension>
        </extensions>
      </trkpt>
      <trkpt lat="60.166137479245662689208984375" lon="15.859567634761333465576171875">
        <ele>170.600006103515625</ele>
        <time>2018-08-18T10:41:59.000Z</time>
        <extensions>
          <ns3:TrackPointExtension>
            <ns3:atemp>16.0</ns3:atemp>
          </ns3:TrackPointExtension>
        </extensions>
      </trkpt>
      <trkpt lat="60.1659006066620349884033203125" lon="15.86054555140435695648193359375">
        <ele>170.1999969482421875</ele>
        <time>2018-08-18T10:42:07.000Z</time>
        <extensions>
          <ns3:TrackPointExtension>
            <ns3:atemp>16.0</ns3:atemp>
          </ns3:TrackPointExtension>
        </extensions>
      </trkpt>
      <trkpt lat="60.16565778292715549468994140625" lon="15.8615972287952899932861328125">
        <ele>169.600006103515625</ele>
        <time>2018-08-18T10:42:15.000Z</time>
        <extensions>
          <ns3:TrackPointExtension>
            <ns3:atemp>16.0</ns3:atemp>
          </ns3:TrackPointExtension>
        </extensions>
      </trkpt>
      <trkpt lat="60.1655063219368457794189453125" lon="15.86243382655084133148193359375">
        <ele>168</ele>
        <time>2018-08-18T10:42:21.000Z</time>
        <extensions>
          <ns3:TrackPointExtension>
            <ns3:atemp>16.0</ns3:atemp>
          </ns3:TrackPointExtension>
        </extensions>
      </trkpt>
      <trkpt lat="60.16541588120162487030029296875" lon="15.863560773432254791259765625">
        <ele>166</ele>
        <time>2018-08-18T10:42:29.000Z</time>
        <extensions>
          <ns3:TrackPointExtension>
            <ns3:atemp>16.0</ns3:atemp>
          </ns3:TrackPointExtension>
        </extensions>
      </trkpt>
      <trkpt lat="60.16532418318092823028564453125" lon="15.86471554823219776153564453125">
        <ele>164</ele>
        <time>2018-08-18T10:42:37.000Z</time>
        <extensions>
          <ns3:TrackPointExtension>
            <ns3:atemp>16.0</ns3:atemp>
          </ns3:TrackPointExtension>
        </extensions>
      </trkpt>
      <trkpt lat="60.1652776636183261871337890625" lon="15.865215025842189788818359375">
        <ele>163</ele>
        <time>2018-08-18T10:42:40.000Z</time>
        <extensions>
          <ns3:TrackPointExtension>
            <ns3:atemp>16.0</ns3:atemp>
          </ns3:TrackPointExtension>
        </extensions>
      </trkpt>
      <trkpt lat="60.16516928561031818389892578125" lon="15.86565993726253509521484375">
        <ele>162.1999969482421875</ele>
        <time>2018-08-18T10:42:43.000Z</time>
        <extensions>
          <ns3:TrackPointExtension>
            <ns3:atemp>16.0</ns3:atemp>
          </ns3:TrackPointExtension>
        </extensions>
      </trkpt>
      <trkpt lat="60.1651237718760967254638671875" lon="15.8657918684184551239013671875">
        <ele>162</ele>
        <time>2018-08-18T10:42:44.000Z</time>
        <extensions>
          <ns3:TrackPointExtension>
            <ns3:atemp>16.0</ns3:atemp>
          </ns3:TrackPointExtension>
        </extensions>
      </trkpt>
      <trkpt lat="60.16502914018929004669189453125" lon="15.866037793457508087158203125">
        <ele>162</ele>
        <time>2018-08-18T10:42:46.000Z</time>
        <extensions>
          <ns3:TrackPointExtension>
            <ns3:atemp>16.0</ns3:atemp>
          </ns3:TrackPointExtension>
        </extensions>
      </trkpt>
      <trkpt lat="60.16488698311150074005126953125" lon="15.8663558028638362884521484375">
        <ele>162.1999969482421875</ele>
        <time>2018-08-18T10:42:49.000Z</time>
        <extensions>
          <ns3:TrackPointExtension>
            <ns3:atemp>16.0</ns3:atemp>
          </ns3:TrackPointExtension>
        </extensions>
      </trkpt>
      <trkpt lat="60.16469252295792102813720703125" lon="15.866737850010395050048828125">
        <ele>162.1999969482421875</ele>
        <time>2018-08-18T10:42:53.000Z</time>
        <extensions>
          <ns3:TrackPointExtension>
            <ns3:atemp>16.0</ns3:atemp>
          </ns3:TrackPointExtension>
        </extensions>
      </trkpt>
      <trkpt lat="60.16438825987279415130615234375" lon="15.86699458770453929901123046875">
        <ele>162.1999969482421875</ele>
        <time>2018-08-18T10:42:58.000Z</time>
        <extensions>
          <ns3:TrackPointExtension>
            <ns3:atemp>16.0</ns3:atemp>
          </ns3:TrackPointExtension>
        </extensions>
      </trkpt>
      <trkpt lat="60.1643231324851512908935546875" lon="15.86702107451856136322021484375">
        <ele>162.1999969482421875</ele>
        <time>2018-08-18T10:42:59.000Z</time>
        <extensions>
          <ns3:TrackPointExtension>
            <ns3:atemp>16.0</ns3:atemp>
          </ns3:TrackPointExtension>
        </extensions>
      </trkpt>
      <trkpt lat="60.16376682557165622711181640625" lon="15.86723715998232364654541015625">
        <ele>162.399993896484375</ele>
        <time>2018-08-18T10:43:07.000Z</time>
        <extensions>
          <ns3:TrackPointExtension>
            <ns3:atemp>16.0</ns3:atemp>
          </ns3:TrackPointExtension>
        </extensions>
      </trkpt>
      <trkpt lat="60.16321085393428802490234375" lon="15.86745961569249629974365234375">
        <ele>162.399993896484375</ele>
        <time>2018-08-18T10:43:14.000Z</time>
        <extensions>
          <ns3:TrackPointExtension>
            <ns3:atemp>16.0</ns3:atemp>
          </ns3:TrackPointExtension>
        </extensions>
      </trkpt>
      <trkpt lat="60.1629733107984066009521484375" lon="15.86755718104541301727294921875">
        <ele>162.600006103515625</ele>
        <time>2018-08-18T10:43:17.000Z</time>
        <extensions>
          <ns3:TrackPointExtension>
            <ns3:atemp>16.0</ns3:atemp>
          </ns3:TrackPointExtension>
        </extensions>
      </trkpt>
      <trkpt lat="60.16281967051327228546142578125" lon="15.86762272752821445465087890625">
        <ele>162.600006103515625</ele>
        <time>2018-08-18T10:43:19.000Z</time>
        <extensions>
          <ns3:TrackPointExtension>
            <ns3:atemp>16.0</ns3:atemp>
          </ns3:TrackPointExtension>
        </extensions>
      </trkpt>
      <trkpt lat="60.16260802745819091796875" lon="15.86774795316159725189208984375">
        <ele>162.8000030517578125</ele>
        <time>2018-08-18T10:43:22.000Z</time>
        <extensions>
          <ns3:TrackPointExtension>
            <ns3:atemp>16.0</ns3:atemp>
          </ns3:TrackPointExtension>
        </extensions>
      </trkpt>
      <trkpt lat="60.1623369567096233367919921875" lon="15.86807199753820896148681640625">
        <ele>163.1999969482421875</ele>
        <time>2018-08-18T10:43:27.000Z</time>
        <extensions>
          <ns3:TrackPointExtension>
            <ns3:atemp>16.0</ns3:atemp>
          </ns3:TrackPointExtension>
        </extensions>
      </trkpt>
      <trkpt lat="60.16221617348492145538330078125" lon="15.8683319203555583953857421875">
        <ele>163.399993896484375</ele>
        <time>2018-08-18T10:43:30.000Z</time>
        <extensions>
          <ns3:TrackPointExtension>
            <ns3:atemp>17.0</ns3:atemp>
          </ns3:TrackPointExtension>
        </extensions>
      </trkpt>
      <trkpt lat="60.16218365170061588287353515625" lon="15.868422277271747589111328125">
        <ele>163.399993896484375</ele>
        <time>2018-08-18T10:43:31.000Z</time>
        <extensions>
          <ns3:TrackPointExtension>
            <ns3:atemp>17.0</ns3:atemp>
          </ns3:TrackPointExtension>
        </extensions>
      </trkpt>
      <trkpt lat="60.1619899459183216094970703125" lon="15.869435481727123260498046875">
        <ele>164</ele>
        <time>2018-08-18T10:43:40.000Z</time>
        <extensions>
          <ns3:TrackPointExtension>
            <ns3:atemp>17.0</ns3:atemp>
          </ns3:TrackPointExtension>
        </extensions>
      </trkpt>
      <trkpt lat="60.1618524827063083648681640625" lon="15.87058053351938724517822265625">
        <ele>164.8000030517578125</ele>
        <time>2018-08-18T10:43:48.000Z</time>
        <extensions>
          <ns3:TrackPointExtension>
            <ns3:atemp>17.0</ns3:atemp>
          </ns3:TrackPointExtension>
        </extensions>
      </trkpt>
      <trkpt lat="60.16181535087525844573974609375" lon="15.8708468265831470489501953125">
        <ele>165</ele>
        <time>2018-08-18T10:43:50.000Z</time>
        <extensions>
          <ns3:TrackPointExtension>
            <ns3:atemp>17.0</ns3:atemp>
          </ns3:TrackPointExtension>
        </extensions>
      </trkpt>
      <trkpt lat="60.1617864333093166351318359375" lon="15.8714007027447223663330078125">
        <ele>165.399993896484375</ele>
        <time>2018-08-18T10:43:54.000Z</time>
        <extensions>
          <ns3:TrackPointExtension>
            <ns3:atemp>17.0</ns3:atemp>
          </ns3:TrackPointExtension>
        </extensions>
      </trkpt>
      <trkpt lat="60.1617887802422046661376953125" lon="15.87167688645422458648681640625">
        <ele>165.399993896484375</ele>
        <time>2018-08-18T10:43:56.000Z</time>
        <extensions>
          <ns3:TrackPointExtension>
            <ns3:atemp>17.0</ns3:atemp>
          </ns3:TrackPointExtension>
        </extensions>
      </trkpt>
      <trkpt lat="60.1618256606161594390869140625" lon="15.87278698571026325225830078125">
        <ele>166.1999969482421875</ele>
        <time>2018-08-18T10:44:07.000Z</time>
        <extensions>
          <ns3:TrackPointExtension>
            <ns3:atemp>17.0</ns3:atemp>
          </ns3:TrackPointExtension>
        </extensions>
      </trkpt>
      <trkpt lat="60.16179758124053478240966796875" lon="15.8733238466084003448486328125">
        <ele>166.399993896484375</ele>
        <time>2018-08-18T10:44:14.000Z</time>
        <extensions>
          <ns3:TrackPointExtension>
            <ns3:atemp>17.0</ns3:atemp>
          </ns3:TrackPointExtension>
        </extensions>
      </trkpt>
      <trkpt lat="60.161791630089282989501953125" lon="15.87340590544044971466064453125">
        <ele>166.600006103515625</ele>
        <time>2018-08-18T10:44:15.000Z</time>
        <extensions>
          <ns3:TrackPointExtension>
            <ns3:atemp>17.0</ns3:atemp>
          </ns3:TrackPointExtension>
        </extensions>
      </trkpt>
      <trkpt lat="60.1617703400552272796630859375" lon="15.87365585379302501678466796875">
        <ele>166.600006103515625</ele>
        <time>2018-08-18T10:44:18.000Z</time>
        <extensions>
          <ns3:TrackPointExtension>
            <ns3:atemp>17.0</ns3:atemp>
          </ns3:TrackPointExtension>
        </extensions>
      </trkpt>
      <trkpt lat="60.1617415063083171844482421875" lon="15.873970091342926025390625">
        <ele>166.8000030517578125</ele>
        <time>2018-08-18T10:44:22.000Z</time>
        <extensions>
          <ns3:TrackPointExtension>
            <ns3:atemp>17.0</ns3:atemp>
          </ns3:TrackPointExtension>
        </extensions>
      </trkpt>
      <trkpt lat="60.1616952382028102874755859375" lon="15.87441894225776195526123046875">
        <ele>167.1999969482421875</ele>
        <time>2018-08-18T10:44:28.000Z</time>
        <extensions>
          <ns3:TrackPointExtension>
            <ns3:atemp>17.0</ns3:atemp>
          </ns3:TrackPointExtension>
        </extensions>
      </trkpt>
      <trkpt lat="60.161656178534030914306640625" lon="15.87490308098495006561279296875">
        <ele>167.600006103515625</ele>
        <time>2018-08-18T10:44:34.000Z</time>
        <extensions>
          <ns3:TrackPointExtension>
            <ns3:atemp>17.0</ns3:atemp>
          </ns3:TrackPointExtension>
        </extensions>
      </trkpt>
      <trkpt lat="60.1615933142602443695068359375" lon="15.87556173093616962432861328125">
        <ele>168.1999969482421875</ele>
        <time>2018-08-18T10:44:42.000Z</time>
        <extensions>
          <ns3:TrackPointExtension>
            <ns3:atemp>17.0</ns3:atemp>
          </ns3:TrackPointExtension>
        </extensions>
      </trkpt>
      <trkpt lat="60.1615051366388797760009765625" lon="15.8765220455825328826904296875">
        <ele>168.8000030517578125</ele>
        <time>2018-08-18T10:44:54.000Z</time>
        <extensions>
          <ns3:TrackPointExtension>
            <ns3:atemp>16.0</ns3:atemp>
          </ns3:TrackPointExtension>
        </extensions>
      </trkpt>
      <trkpt lat="60.1614136062562465667724609375" lon="15.87759442627429962158203125">
        <ele>169.600006103515625</ele>
        <time>2018-08-18T10:45:05.000Z</time>
        <extensions>
          <ns3:TrackPointExtension>
            <ns3:atemp>16.0</ns3:atemp>
          </ns3:TrackPointExtension>
        </extensions>
      </trkpt>
      <trkpt lat="60.1613207347691059112548828125" lon="15.878717601299285888671875">
        <ele>170.399993896484375</ele>
        <time>2018-08-18T10:45:14.000Z</time>
        <extensions>
          <ns3:TrackPointExtension>
            <ns3:atemp>16.0</ns3:atemp>
          </ns3:TrackPointExtension>
        </extensions>
      </trkpt>
      <trkpt lat="60.161221660673618316650390625" lon="15.87984723038971424102783203125">
        <ele>171.399993896484375</ele>
        <time>2018-08-18T10:45:22.000Z</time>
        <extensions>
          <ns3:TrackPointExtension>
            <ns3:atemp>16.0</ns3:atemp>
          </ns3:TrackPointExtension>
        </extensions>
      </trkpt>
      <trkpt lat="60.16119374893605709075927734375" lon="15.88015995919704437255859375">
        <ele>171.600006103515625</ele>
        <time>2018-08-18T10:45:24.000Z</time>
        <extensions>
          <ns3:TrackPointExtension>
            <ns3:atemp>16.0</ns3:atemp>
          </ns3:TrackPointExtension>
        </extensions>
      </trkpt>
      <trkpt lat="60.16114018857479095458984375" lon="15.88075096718966960906982421875">
        <ele>172</ele>
        <time>2018-08-18T10:45:28.000Z</time>
        <extensions>
          <ns3:TrackPointExtension>
            <ns3:atemp>16.0</ns3:atemp>
          </ns3:TrackPointExtension>
        </extensions>
      </trkpt>
      <trkpt lat="60.16110976226627826690673828125" lon="15.88114776648581027984619140625">
        <ele>172.399993896484375</ele>
        <time>2018-08-18T10:45:31.000Z</time>
        <extensions>
          <ns3:TrackPointExtension>
            <ns3:atemp>16.0</ns3:atemp>
          </ns3:TrackPointExtension>
        </extensions>
      </trkpt>
      <trkpt lat="60.1610830239951610565185546875" lon="15.88155269622802734375">
        <ele>172.600006103515625</ele>
        <time>2018-08-18T10:45:34.000Z</time>
        <extensions>
          <ns3:TrackPointExtension>
            <ns3:atemp>16.0</ns3:atemp>
          </ns3:TrackPointExtension>
        </extensions>
      </trkpt>
      <trkpt lat="60.16097925603389739990234375" lon="15.88263287208974361419677734375">
        <ele>173.399993896484375</ele>
        <time>2018-08-18T10:45:42.000Z</time>
        <extensions>
          <ns3:TrackPointExtension>
            <ns3:atemp>16.0</ns3:atemp>
          </ns3:TrackPointExtension>
        </extensions>
      </trkpt>
      <trkpt lat="60.16074917279183864593505859375" lon="15.8836890757083892822265625">
        <ele>172.8000030517578125</ele>
        <time>2018-08-18T10:45:51.000Z</time>
        <extensions>
          <ns3:TrackPointExtension>
            <ns3:atemp>16.0</ns3:atemp>
          </ns3:TrackPointExtension>
        </extensions>
      </trkpt>
      <trkpt lat="60.1607205905020236968994140625" lon="15.88379711844027042388916015625">
        <ele>172.8000030517578125</ele>
        <time>2018-08-18T10:45:52.000Z</time>
        <extensions>
          <ns3:TrackPointExtension>
            <ns3:atemp>16.0</ns3:atemp>
          </ns3:TrackPointExtension>
        </extensions>
      </trkpt>
      <trkpt lat="60.16044088639318943023681640625" lon="15.88483111001551151275634765625">
        <ele>172.1999969482421875</ele>
        <time>2018-08-18T10:46:02.000Z</time>
        <extensions>
          <ns3:TrackPointExtension>
            <ns3:atemp>16.0</ns3:atemp>
          </ns3:TrackPointExtension>
        </extensions>
      </trkpt>
      <trkpt lat="60.16018574126064777374267578125" lon="15.88581380434334278106689453125">
        <ele>171.600006103515625</ele>
        <time>2018-08-18T10:46:10.000Z</time>
        <extensions>
          <ns3:TrackPointExtension>
            <ns3:atemp>16.0</ns3:atemp>
          </ns3:TrackPointExtension>
        </extensions>
      </trkpt>
      <trkpt lat="60.16007895581424236297607421875" lon="15.8862430416047573089599609375">
        <ele>171.399993896484375</ele>
        <time>2018-08-18T10:46:14.000Z</time>
        <extensions>
          <ns3:TrackPointExtension>
            <ns3:atemp>16.0</ns3:atemp>
          </ns3:TrackPointExtension>
        </extensions>
      </trkpt>
      <trkpt lat="60.15980570577085018157958984375" lon="15.8871767856180667877197265625">
        <ele>170.600006103515625</ele>
        <time>2018-08-18T10:46:29.000Z</time>
        <extensions>
          <ns3:TrackPointExtension>
            <ns3:atemp>16.0</ns3:atemp>
          </ns3:TrackPointExtension>
        </extensions>
      </trkpt>
      <trkpt lat="60.1597761176526546478271484375" lon="15.88719815947115421295166015625">
        <ele>170.600006103515625</ele>
        <time>2018-08-18T10:46:30.000Z</time>
        <extensions>
          <ns3:TrackPointExtension>
            <ns3:atemp>16.0</ns3:atemp>
          </ns3:TrackPointExtension>
        </extensions>
      </trkpt>
      <trkpt lat="60.15963404439389705657958984375" lon="15.8872495405375957489013671875">
        <ele>170.399993896484375</ele>
        <time>2018-08-18T10:46:34.000Z</time>
        <extensions>
          <ns3:TrackPointExtension>
            <ns3:atemp>16.0</ns3:atemp>
          </ns3:TrackPointExtension>
        </extensions>
      </trkpt>
      <trkpt lat="60.15950965695083141326904296875" lon="15.88726085610687732696533203125">
        <ele>170</ele>
        <time>2018-08-18T10:46:37.000Z</time>
        <extensions>
          <ns3:TrackPointExtension>
            <ns3:atemp>16.0</ns3:atemp>
          </ns3:TrackPointExtension>
        </extensions>
      </trkpt>
      <trkpt lat="60.15929155983030796051025390625" lon="15.88730678893625736236572265625">
        <ele>169.600006103515625</ele>
        <time>2018-08-18T10:46:42.000Z</time>
        <extensions>
          <ns3:TrackPointExtension>
            <ns3:atemp>16.0</ns3:atemp>
          </ns3:TrackPointExtension>
        </extensions>
      </trkpt>
      <trkpt lat="60.1587716303765773773193359375" lon="15.88772353716194629669189453125">
        <ele>168.399993896484375</ele>
        <time>2018-08-18T10:46:54.000Z</time>
        <extensions>
          <ns3:TrackPointExtension>
            <ns3:atemp>17.0</ns3:atemp>
          </ns3:TrackPointExtension>
        </extensions>
      </trkpt>
      <trkpt lat="60.1583847217261791229248046875" lon="15.88849768973886966705322265625">
        <ele>168.8000030517578125</ele>
        <time>2018-08-18T10:47:04.000Z</time>
        <extensions>
          <ns3:TrackPointExtension>
            <ns3:atemp>17.0</ns3:atemp>
          </ns3:TrackPointExtension>
        </extensions>
      </trkpt>
      <trkpt lat="60.15801935456693172454833984375" lon="15.8893932960927486419677734375">
        <ele>169.600006103515625</ele>
        <time>2018-08-18T10:47:14.000Z</time>
        <extensions>
          <ns3:TrackPointExtension>
            <ns3:atemp>17.0</ns3:atemp>
          </ns3:TrackPointExtension>
        </extensions>
      </trkpt>
      <trkpt lat="60.157761611044406890869140625" lon="15.89034791104495525360107421875">
        <ele>170.600006103515625</ele>
        <time>2018-08-18T10:47:22.000Z</time>
        <extensions>
          <ns3:TrackPointExtension>
            <ns3:atemp>17.0</ns3:atemp>
          </ns3:TrackPointExtension>
        </extensions>
      </trkpt>
      <trkpt lat="60.15773202292621135711669921875" lon="15.890456624329090118408203125">
        <ele>170.8000030517578125</ele>
        <time>2018-08-18T10:47:23.000Z</time>
        <extensions>
          <ns3:TrackPointExtension>
            <ns3:atemp>17.0</ns3:atemp>
          </ns3:TrackPointExtension>
        </extensions>
      </trkpt>
      <trkpt lat="60.15764803625643253326416015625" lon="15.89075778611004352569580078125">
        <ele>171</ele>
        <time>2018-08-18T10:47:26.000Z</time>
        <extensions>
          <ns3:TrackPointExtension>
            <ns3:atemp>17.0</ns3:atemp>
          </ns3:TrackPointExtension>
        </extensions>
      </trkpt>
      <trkpt lat="60.15747587196528911590576171875" lon="15.8913942240178585052490234375">
        <ele>171</ele>
        <time>2018-08-18T10:47:34.000Z</time>
        <extensions>
          <ns3:TrackPointExtension>
            <ns3:atemp>17.0</ns3:atemp>
          </ns3:TrackPointExtension>
        </extensions>
      </trkpt>
      <trkpt lat="60.15732231549918651580810546875" lon="15.891946256160736083984375">
        <ele>170.8000030517578125</ele>
        <time>2018-08-18T10:47:42.000Z</time>
        <extensions>
          <ns3:TrackPointExtension>
            <ns3:atemp>17.0</ns3:atemp>
          </ns3:TrackPointExtension>
        </extensions>
      </trkpt>
      <trkpt lat="60.1572474651038646697998046875" lon="15.89221590198576450347900390625">
        <ele>170.8000030517578125</ele>
        <time>2018-08-18T10:47:46.000Z</time>
        <extensions>
          <ns3:TrackPointExtension>
            <ns3:atemp>17.0</ns3:atemp>
          </ns3:TrackPointExtension>
        </extensions>
      </trkpt>
      <trkpt lat="60.15710488893091678619384765625" lon="15.89275603182613849639892578125">
        <ele>170.600006103515625</ele>
        <time>2018-08-18T10:47:54.000Z</time>
        <extensions>
          <ns3:TrackPointExtension>
            <ns3:atemp>17.0</ns3:atemp>
          </ns3:TrackPointExtension>
        </extensions>
      </trkpt>
      <trkpt lat="60.15702995471656322479248046875" lon="15.8931331336498260498046875">
        <ele>170.600006103515625</ele>
        <time>2018-08-18T10:47:59.000Z</time>
        <extensions>
          <ns3:TrackPointExtension>
            <ns3:atemp>17.0</ns3:atemp>
          </ns3:TrackPointExtension>
        </extensions>
      </trkpt>
      <trkpt lat="60.15694965608417987823486328125" lon="15.89406453073024749755859375">
        <ele>170.399993896484375</ele>
        <time>2018-08-18T10:48:10.000Z</time>
        <extensions>
          <ns3:TrackPointExtension>
            <ns3:atemp>17.0</ns3:atemp>
          </ns3:TrackPointExtension>
        </extensions>
      </trkpt>
      <trkpt lat="60.1569450460374355316162109375" lon="15.89415782131254673004150390625">
        <ele>170.399993896484375</ele>
        <time>2018-08-18T10:48:11.000Z</time>
        <extensions>
          <ns3:TrackPointExtension>
            <ns3:atemp>17.0</ns3:atemp>
          </ns3:TrackPointExtension>
        </extensions>
      </trkpt>
      <trkpt lat="60.156897604465484619140625" lon="15.8953454531729221343994140625">
        <ele>171.1999969482421875</ele>
        <time>2018-08-18T10:48:21.000Z</time>
        <extensions>
          <ns3:TrackPointExtension>
            <ns3:atemp>17.0</ns3:atemp>
          </ns3:TrackPointExtension>
        </extensions>
      </trkpt>
      <trkpt lat="60.156844295561313629150390625" lon="15.89644943363964557647705078125">
        <ele>171.8000030517578125</ele>
        <time>2018-08-18T10:48:28.000Z</time>
        <extensions>
          <ns3:TrackPointExtension>
            <ns3:atemp>17.0</ns3:atemp>
          </ns3:TrackPointExtension>
        </extensions>
      </trkpt>
      <trkpt lat="60.15682711265981197357177734375" lon="15.89678320102393627166748046875">
        <ele>172.1999969482421875</ele>
        <time>2018-08-18T10:48:30.000Z</time>
        <extensions>
          <ns3:TrackPointExtension>
            <ns3:atemp>17.0</ns3:atemp>
          </ns3:TrackPointExtension>
        </extensions>
      </trkpt>
      <trkpt lat="60.15680951066315174102783203125" lon="15.89722224511206150054931640625">
        <ele>172.399993896484375</ele>
        <time>2018-08-18T10:48:33.000Z</time>
        <extensions>
          <ns3:TrackPointExtension>
            <ns3:atemp>17.0</ns3:atemp>
          </ns3:TrackPointExtension>
        </extensions>
      </trkpt>
      <trkpt lat="60.15680062584578990936279296875" lon="15.8974654041230678558349609375">
        <ele>172.600006103515625</ele>
        <time>2018-08-18T10:48:35.000Z</time>
        <extensions>
          <ns3:TrackPointExtension>
            <ns3:atemp>17.0</ns3:atemp>
          </ns3:TrackPointExtension>
        </extensions>
      </trkpt>
      <trkpt lat="60.15679727308452129364013671875" lon="15.897696912288665771484375">
        <ele>172.8000030517578125</ele>
        <time>2018-08-18T10:48:37.000Z</time>
        <extensions>
          <ns3:TrackPointExtension>
            <ns3:atemp>17.0</ns3:atemp>
          </ns3:TrackPointExtension>
        </extensions>
      </trkpt>
      <trkpt lat="60.15680012293159961700439453125" lon="15.89872562326490879058837890625">
        <ele>173.600006103515625</ele>
        <time>2018-08-18T10:48:45.000Z</time>
        <extensions>
          <ns3:TrackPointExtension>
            <ns3:atemp>17.0</ns3:atemp>
          </ns3:TrackPointExtension>
        </extensions>
      </trkpt>
      <trkpt lat="60.15677749179303646087646484375" lon="15.8989640884101390838623046875">
        <ele>173.600006103515625</ele>
        <time>2018-08-18T10:48:47.000Z</time>
        <extensions>
          <ns3:TrackPointExtension>
            <ns3:atemp>17.0</ns3:atemp>
          </ns3:TrackPointExtension>
        </extensions>
      </trkpt>
      <trkpt lat="60.15663248486816883087158203125" lon="15.89943741448223590850830078125">
        <ele>173.8000030517578125</ele>
        <time>2018-08-18T10:48:52.000Z</time>
        <extensions>
          <ns3:TrackPointExtension>
            <ns3:atemp>17.0</ns3:atemp>
          </ns3:TrackPointExtension>
        </extensions>
      </trkpt>
      <trkpt lat="60.15620517544448375701904296875" lon="15.9001482836902141571044921875">
        <ele>173.399993896484375</ele>
        <time>2018-08-18T10:49:01.000Z</time>
        <extensions>
          <ns3:TrackPointExtension>
            <ns3:atemp>17.0</ns3:atemp>
          </ns3:TrackPointExtension>
        </extensions>
      </trkpt>
      <trkpt lat="60.155731178820133209228515625" lon="15.90077164582908153533935546875">
        <ele>173.1999969482421875</ele>
        <time>2018-08-18T10:49:10.000Z</time>
        <extensions>
          <ns3:TrackPointExtension>
            <ns3:atemp>17.0</ns3:atemp>
          </ns3:TrackPointExtension>
        </extensions>
      </trkpt>
      <trkpt lat="60.15522030182182788848876953125" lon="15.9012429602444171905517578125">
        <ele>173</ele>
        <time>2018-08-18T10:49:19.000Z</time>
        <extensions>
          <ns3:TrackPointExtension>
            <ns3:atemp>17.0</ns3:atemp>
          </ns3:TrackPointExtension>
        </extensions>
      </trkpt>
      <trkpt lat="60.154646225273609161376953125" lon="15.90155468322336673736572265625">
        <ele>173.399993896484375</ele>
        <time>2018-08-18T10:49:28.000Z</time>
        <extensions>
          <ns3:TrackPointExtension>
            <ns3:atemp>17.0</ns3:atemp>
          </ns3:TrackPointExtension>
        </extensions>
      </trkpt>
      <trkpt lat="60.15430801548063755035400390625" lon="15.90161737985908985137939453125">
        <ele>173.600006103515625</ele>
        <time>2018-08-18T10:49:33.000Z</time>
        <extensions>
          <ns3:TrackPointExtension>
            <ns3:atemp>17.0</ns3:atemp>
          </ns3:TrackPointExtension>
        </extensions>
      </trkpt>
      <trkpt lat="60.1540338434278964996337890625" lon="15.90166482143104076385498046875">
        <ele>173.600006103515625</ele>
        <time>2018-08-18T10:49:37.000Z</time>
        <extensions>
          <ns3:TrackPointExtension>
            <ns3:atemp>17.0</ns3:atemp>
          </ns3:TrackPointExtension>
        </extensions>
      </trkpt>
      <trkpt lat="60.15380945987999439239501953125" lon="15.9017336368560791015625">
        <ele>173.8000030517578125</ele>
        <time>2018-08-18T10:49:40.000Z</time>
        <extensions>
          <ns3:TrackPointExtension>
            <ns3:atemp>17.0</ns3:atemp>
          </ns3:TrackPointExtension>
        </extensions>
      </trkpt>
      <trkpt lat="60.15373502857983112335205078125" lon="15.90178367681801319122314453125">
        <ele>173.8000030517578125</ele>
        <time>2018-08-18T10:49:41.000Z</time>
        <extensions>
          <ns3:TrackPointExtension>
            <ns3:atemp>17.0</ns3:atemp>
          </ns3:TrackPointExtension>
        </extensions>
      </trkpt>
      <trkpt lat="60.1535966433584690093994140625" lon="15.901910327374935150146484375">
        <ele>174</ele>
        <time>2018-08-18T10:49:43.000Z</time>
        <extensions>
          <ns3:TrackPointExtension>
            <ns3:atemp>17.0</ns3:atemp>
          </ns3:TrackPointExtension>
        </extensions>
      </trkpt>
      <trkpt lat="60.1534722559154033660888671875" lon="15.90210847556591033935546875">
        <ele>174</ele>
        <time>2018-08-18T10:49:45.000Z</time>
        <extensions>
          <ns3:TrackPointExtension>
            <ns3:atemp>17.0</ns3:atemp>
          </ns3:TrackPointExtension>
        </extensions>
      </trkpt>
      <trkpt lat="60.153370834887027740478515625" lon="15.90240083634853363037109375">
        <ele>174.1999969482421875</ele>
        <time>2018-08-18T10:49:47.000Z</time>
        <extensions>
          <ns3:TrackPointExtension>
            <ns3:atemp>17.0</ns3:atemp>
          </ns3:TrackPointExtension>
        </extensions>
      </trkpt>
      <trkpt lat="60.15329539775848388671875" lon="15.90274952352046966552734375">
        <ele>174.399993896484375</ele>
        <time>2018-08-18T10:49:49.000Z</time>
        <extensions>
          <ns3:TrackPointExtension>
            <ns3:atemp>17.0</ns3:atemp>
          </ns3:TrackPointExtension>
        </extensions>
      </trkpt>
      <trkpt lat="60.15326446853578090667724609375" lon="15.90293266810476779937744140625">
        <ele>174.399993896484375</ele>
        <time>2018-08-18T10:49:50.000Z</time>
        <extensions>
          <ns3:TrackPointExtension>
            <ns3:atemp>17.0</ns3:atemp>
          </ns3:TrackPointExtension>
        </extensions>
      </trkpt>
      <trkpt lat="60.15323580242693424224853515625" lon="15.90311505831778049468994140625">
        <ele>174.399993896484375</ele>
        <time>2018-08-18T10:49:51.000Z</time>
        <extensions>
          <ns3:TrackPointExtension>
            <ns3:atemp>17.0</ns3:atemp>
          </ns3:TrackPointExtension>
        </extensions>
      </trkpt>
      <trkpt lat="60.1531845889985561370849609375" lon="15.90345921926200389862060546875">
        <ele>174.600006103515625</ele>
        <time>2018-08-18T10:49:53.000Z</time>
        <extensions>
          <ns3:TrackPointExtension>
            <ns3:atemp>17.0</ns3:atemp>
          </ns3:TrackPointExtension>
        </extensions>
      </trkpt>
      <trkpt lat="60.15313354320824146270751953125" lon="15.90377437882125377655029296875">
        <ele>174.8000030517578125</ele>
        <time>2018-08-18T10:49:55.000Z</time>
        <extensions>
          <ns3:TrackPointExtension>
            <ns3:atemp>17.0</ns3:atemp>
          </ns3:TrackPointExtension>
        </extensions>
      </trkpt>
      <trkpt lat="60.15308945439755916595458984375" lon="15.90404276736080646514892578125">
        <ele>174.8000030517578125</ele>
        <time>2018-08-18T10:49:57.000Z</time>
        <extensions>
          <ns3:TrackPointExtension>
            <ns3:atemp>17.0</ns3:atemp>
          </ns3:TrackPointExtension>
        </extensions>
      </trkpt>
      <trkpt lat="60.1529545895755290985107421875" lon="15.90515085496008396148681640625">
        <ele>175.399993896484375</ele>
        <time>2018-08-18T10:50:09.000Z</time>
        <extensions>
          <ns3:TrackPointExtension>
            <ns3:atemp>17.0</ns3:atemp>
          </ns3:TrackPointExtension>
        </extensions>
      </trkpt>
      <trkpt lat="60.15289700590074062347412109375" lon="15.9055760689079761505126953125">
        <ele>175.600006103515625</ele>
        <time>2018-08-18T10:50:15.000Z</time>
        <extensions>
          <ns3:TrackPointExtension>
            <ns3:atemp>17.0</ns3:atemp>
          </ns3:TrackPointExtension>
        </extensions>
      </trkpt>
      <trkpt lat="60.15280363149940967559814453125" lon="15.9058915637433528900146484375">
        <ele>175.600006103515625</ele>
        <time>2018-08-18T10:50:20.000Z</time>
        <extensions>
          <ns3:TrackPointExtension>
            <ns3:atemp>17.0</ns3:atemp>
          </ns3:TrackPointExtension>
        </extensions>
      </trkpt>
      <trkpt lat="60.15273146331310272216796875" lon="15.90605660341680049896240234375">
        <ele>175.8000030517578125</ele>
        <time>2018-08-18T10:50:23.000Z</time>
        <extensions>
          <ns3:TrackPointExtension>
            <ns3:atemp>17.0</ns3:atemp>
          </ns3:TrackPointExtension>
        </extensions>
      </trkpt>
      <trkpt lat="60.15261772088706493377685546875" lon="15.9062660671770572662353515625">
        <ele>176</ele>
        <time>2018-08-18T10:50:28.000Z</time>
        <extensions>
          <ns3:TrackPointExtension>
            <ns3:atemp>17.0</ns3:atemp>
          </ns3:TrackPointExtension>
        </extensions>
      </trkpt>
      <trkpt lat="60.15252350829541683197021484375" lon="15.90639556758105754852294921875">
        <ele>176</ele>
        <time>2018-08-18T10:50:32.000Z</time>
        <extensions>
          <ns3:TrackPointExtension>
            <ns3:atemp>17.0</ns3:atemp>
          </ns3:TrackPointExtension>
        </extensions>
      </trkpt>
      <trkpt lat="60.1524496637284755706787109375" lon="15.90647268109023571014404296875">
        <ele>176</ele>
        <time>2018-08-18T10:50:35.000Z</time>
        <extensions>
          <ns3:TrackPointExtension>
            <ns3:atemp>17.0</ns3:atemp>
          </ns3:TrackPointExtension>
        </extensions>
      </trkpt>
      <trkpt lat="60.15234346501529216766357421875" lon="15.90656421147286891937255859375">
        <ele>176.1999969482421875</ele>
        <time>2018-08-18T10:50:39.000Z</time>
        <extensions>
          <ns3:TrackPointExtension>
            <ns3:atemp>17.0</ns3:atemp>
          </ns3:TrackPointExtension>
        </extensions>
      </trkpt>
      <trkpt lat="60.1522109471261501312255859375" lon="15.90664803050458431243896484375">
        <ele>176.1999969482421875</ele>
        <time>2018-08-18T10:50:44.000Z</time>
        <extensions>
          <ns3:TrackPointExtension>
            <ns3:atemp>16.0</ns3:atemp>
          </ns3:TrackPointExtension>
        </extensions>
      </trkpt>
      <trkpt lat="60.1520523615181446075439453125" lon="15.90672899968922138214111328125">
        <ele>176.1999969482421875</ele>
        <time>2018-08-18T10:50:50.000Z</time>
        <extensions>
          <ns3:TrackPointExtension>
            <ns3:atemp>16.0</ns3:atemp>
          </ns3:TrackPointExtension>
        </extensions>
      </trkpt>
      <trkpt lat="60.15189352445304393768310546875" lon="15.90679890476167201995849609375">
        <ele>176.1999969482421875</ele>
        <time>2018-08-18T10:50:56.000Z</time>
        <extensions>
          <ns3:TrackPointExtension>
            <ns3:atemp>16.0</ns3:atemp>
          </ns3:TrackPointExtension>
        </extensions>
      </trkpt>
      <trkpt lat="60.15173435211181640625" lon="15.906818099319934844970703125">
        <ele>176.1999969482421875</ele>
        <time>2018-08-18T10:51:02.000Z</time>
        <extensions>
          <ns3:TrackPointExtension>
            <ns3:atemp>16.0</ns3:atemp>
          </ns3:TrackPointExtension>
        </extensions>
      </trkpt>
      <trkpt lat="60.1516262255609035491943359375" lon="15.90684793889522552490234375">
        <ele>176.1999969482421875</ele>
        <time>2018-08-18T10:51:06.000Z</time>
        <extensions>
          <ns3:TrackPointExtension>
            <ns3:atemp>16.0</ns3:atemp>
          </ns3:TrackPointExtension>
        </extensions>
      </trkpt>
      <trkpt lat="60.1515206135809421539306640625" lon="15.906873755156993865966796875">
        <ele>176.1999969482421875</ele>
        <time>2018-08-18T10:51:10.000Z</time>
        <extensions>
          <ns3:TrackPointExtension>
            <ns3:atemp>16.0</ns3:atemp>
          </ns3:TrackPointExtension>
        </extensions>
      </trkpt>
      <trkpt lat="60.15135255642235279083251953125" lon="15.90692245401442050933837890625">
        <ele>176.1999969482421875</ele>
        <time>2018-08-18T10:51:16.000Z</time>
        <extensions>
          <ns3:TrackPointExtension>
            <ns3:atemp>16.0</ns3:atemp>
          </ns3:TrackPointExtension>
        </extensions>
      </trkpt>
      <trkpt lat="60.15121140517294406890869140625" lon="15.90696704573929309844970703125">
        <ele>176.1999969482421875</ele>
        <time>2018-08-18T10:51:21.000Z</time>
        <extensions>
          <ns3:TrackPointExtension>
            <ns3:atemp>16.0</ns3:atemp>
          </ns3:TrackPointExtension>
        </extensions>
      </trkpt>
      <trkpt lat="60.151061117649078369140625" lon="15.90701482258737087249755859375">
        <ele>176.1999969482421875</ele>
        <time>2018-08-18T10:51:26.000Z</time>
        <extensions>
          <ns3:TrackPointExtension>
            <ns3:atemp>16.0</ns3:atemp>
          </ns3:TrackPointExtension>
        </extensions>
      </trkpt>
      <trkpt lat="60.15079901553690433502197265625" lon="15.90709595941007137298583984375">
        <ele>176.399993896484375</ele>
        <time>2018-08-18T10:51:35.000Z</time>
        <extensions>
          <ns3:TrackPointExtension>
            <ns3:atemp>16.0</ns3:atemp>
          </ns3:TrackPointExtension>
        </extensions>
      </trkpt>
      <trkpt lat="60.150683932006359100341796875" lon="15.90713183395564556121826171875">
        <ele>176.399993896484375</ele>
        <time>2018-08-18T10:51:39.000Z</time>
        <extensions>
          <ns3:TrackPointExtension>
            <ns3:atemp>16.0</ns3:atemp>
          </ns3:TrackPointExtension>
        </extensions>
      </trkpt>
      <trkpt lat="60.15053582377731800079345703125" lon="15.90717357583343982696533203125">
        <ele>176.399993896484375</ele>
        <time>2018-08-18T10:51:44.000Z</time>
        <extensions>
          <ns3:TrackPointExtension>
            <ns3:atemp>16.0</ns3:atemp>
          </ns3:TrackPointExtension>
        </extensions>
      </trkpt>
      <trkpt lat="60.15031169168651103973388671875" lon="15.90722856111824512481689453125">
        <ele>176.399993896484375</ele>
        <time>2018-08-18T10:51:51.000Z</time>
        <extensions>
          <ns3:TrackPointExtension>
            <ns3:atemp>16.0</ns3:atemp>
          </ns3:TrackPointExtension>
        </extensions>
      </trkpt>
      <trkpt lat="60.15001765452325344085693359375" lon="15.90722219087183475494384765625">
        <ele>176.399993896484375</ele>
        <time>2018-08-18T10:51:59.000Z</time>
        <extensions>
          <ns3:TrackPointExtension>
            <ns3:atemp>16.0</ns3:atemp>
          </ns3:TrackPointExtension>
        </extensions>
      </trkpt>
      <trkpt lat="60.14948741532862186431884765625" lon="15.90695044957101345062255859375">
        <ele>176.399993896484375</ele>
        <time>2018-08-18T10:52:11.000Z</time>
        <extensions>
          <ns3:TrackPointExtension>
            <ns3:atemp>17.0</ns3:atemp>
          </ns3:TrackPointExtension>
        </extensions>
      </trkpt>
      <trkpt lat="60.14896186999976634979248046875" lon="15.90653621591627597808837890625">
        <ele>176.600006103515625</ele>
        <time>2018-08-18T10:52:22.000Z</time>
        <extensions>
          <ns3:TrackPointExtension>
            <ns3:atemp>17.0</ns3:atemp>
          </ns3:TrackPointExtension>
        </extensions>
      </trkpt>
      <trkpt lat="60.14891803264617919921875" lon="15.906489528715610504150390625">
        <ele>176.600006103515625</ele>
        <time>2018-08-18T10:52:23.000Z</time>
        <extensions>
          <ns3:TrackPointExtension>
            <ns3:atemp>17.0</ns3:atemp>
          </ns3:TrackPointExtension>
        </extensions>
      </trkpt>
      <trkpt lat="60.1486975885927677154541015625" lon="15.90611494146287441253662109375">
        <ele>176.600006103515625</ele>
        <time>2018-08-18T10:52:29.000Z</time>
        <extensions>
          <ns3:TrackPointExtension>
            <ns3:atemp>17.0</ns3:atemp>
          </ns3:TrackPointExtension>
        </extensions>
      </trkpt>
      <trkpt lat="60.14856155030429363250732421875" lon="15.90570959262549877166748046875">
        <ele>176.600006103515625</ele>
        <time>2018-08-18T10:52:34.000Z</time>
        <extensions>
          <ns3:TrackPointExtension>
            <ns3:atemp>17.0</ns3:atemp>
          </ns3:TrackPointExtension>
        </extensions>
      </trkpt>
      <trkpt lat="60.1482841931283473968505859375" lon="15.9047643654048442840576171875">
        <ele>176.600006103515625</ele>
        <time>2018-08-18T10:52:45.000Z</time>
        <extensions>
          <ns3:TrackPointExtension>
            <ns3:atemp>17.0</ns3:atemp>
          </ns3:TrackPointExtension>
        </extensions>
      </trkpt>
      <trkpt lat="60.1482600532472133636474609375" lon="15.90468079783022403717041015625">
        <ele>176.600006103515625</ele>
        <time>2018-08-18T10:52:46.000Z</time>
        <extensions>
          <ns3:TrackPointExtension>
            <ns3:atemp>17.0</ns3:atemp>
          </ns3:TrackPointExtension>
        </extensions>
      </trkpt>
      <trkpt lat="60.14797733165323734283447265625" lon="15.90367480181157588958740234375">
        <ele>176.600006103515625</ele>
        <time>2018-08-18T10:52:58.000Z</time>
        <extensions>
          <ns3:TrackPointExtension>
            <ns3:atemp>17.0</ns3:atemp>
          </ns3:TrackPointExtension>
        </extensions>
      </trkpt>
      <trkpt lat="60.14771531336009502410888671875" lon="15.90271054767072200775146484375">
        <ele>176.600006103515625</ele>
        <time>2018-08-18T10:53:08.000Z</time>
        <extensions>
          <ns3:TrackPointExtension>
            <ns3:atemp>17.0</ns3:atemp>
          </ns3:TrackPointExtension>
        </extensions>
      </trkpt>
      <trkpt lat="60.14744290150701999664306640625" lon="15.90196656994521617889404296875">
        <ele>176.8000030517578125</ele>
        <time>2018-08-18T10:53:16.000Z</time>
        <extensions>
          <ns3:TrackPointExtension>
            <ns3:atemp>17.0</ns3:atemp>
          </ns3:TrackPointExtension>
        </extensions>
      </trkpt>
      <trkpt lat="60.1470738463103771209716796875" lon="15.90171687304973602294921875">
        <ele>176.8000030517578125</ele>
        <time>2018-08-18T10:53:22.000Z</time>
        <extensions>
          <ns3:TrackPointExtension>
            <ns3:atemp>17.0</ns3:atemp>
          </ns3:TrackPointExtension>
        </extensions>
      </trkpt>
      <trkpt lat="60.14669992960989475250244140625" lon="15.9016348980367183685302734375">
        <ele>176.8000030517578125</ele>
        <time>2018-08-18T10:53:28.000Z</time>
        <extensions>
          <ns3:TrackPointExtension>
            <ns3:atemp>17.0</ns3:atemp>
          </ns3:TrackPointExtension>
        </extensions>
      </trkpt>
      <trkpt lat="60.146640837192535400390625" lon="15.901622660458087921142578125">
        <ele>176.8000030517578125</ele>
        <time>2018-08-18T10:53:29.000Z</time>
        <extensions>
          <ns3:TrackPointExtension>
            <ns3:atemp>17.0</ns3:atemp>
          </ns3:TrackPointExtension>
        </extensions>
      </trkpt>
      <trkpt lat="60.1460978575050830841064453125" lon="15.901532806456089019775390625">
        <ele>176.8000030517578125</ele>
        <time>2018-08-18T10:53:42.000Z</time>
        <extensions>
          <ns3:TrackPointExtension>
            <ns3:atemp>17.0</ns3:atemp>
          </ns3:TrackPointExtension>
        </extensions>
      </trkpt>
      <trkpt lat="60.14603256247937679290771484375" lon="15.9015128575265407562255859375">
        <ele>176.8000030517578125</ele>
        <time>2018-08-18T10:53:44.000Z</time>
        <extensions>
          <ns3:TrackPointExtension>
            <ns3:atemp>17.0</ns3:atemp>
          </ns3:TrackPointExtension>
        </extensions>
      </trkpt>
      <trkpt lat="60.1459406130015850067138671875" lon="15.9014387615025043487548828125">
        <ele>176.8000030517578125</ele>
        <time>2018-08-18T10:53:47.000Z</time>
        <extensions>
          <ns3:TrackPointExtension>
            <ns3:atemp>17.0</ns3:atemp>
          </ns3:TrackPointExtension>
        </extensions>
      </trkpt>
      <trkpt lat="60.145755372941493988037109375" lon="15.90116190724074840545654296875">
        <ele>177</ele>
        <time>2018-08-18T10:53:54.000Z</time>
        <extensions>
          <ns3:TrackPointExtension>
            <ns3:atemp>17.0</ns3:atemp>
          </ns3:TrackPointExtension>
        </extensions>
      </trkpt>
      <trkpt lat="60.14567398466169834136962890625" lon="15.9009516052901744842529296875">
        <ele>177</ele>
        <time>2018-08-18T10:53:58.000Z</time>
        <extensions>
          <ns3:TrackPointExtension>
            <ns3:atemp>17.0</ns3:atemp>
          </ns3:TrackPointExtension>
        </extensions>
      </trkpt>
      <trkpt lat="60.14551590196788311004638671875" lon="15.90034760534763336181640625">
        <ele>177</ele>
        <time>2018-08-18T10:54:08.000Z</time>
        <extensions>
          <ns3:TrackPointExtension>
            <ns3:atemp>18.0</ns3:atemp>
          </ns3:TrackPointExtension>
        </extensions>
      </trkpt>
      <trkpt lat="60.14539503492414951324462890625" lon="15.8998951502144336700439453125">
        <ele>177</ele>
        <time>2018-08-18T10:54:14.000Z</time>
        <extensions>
          <ns3:TrackPointExtension>
            <ns3:atemp>18.0</ns3:atemp>
          </ns3:TrackPointExtension>
        </extensions>
      </trkpt>
      <trkpt lat="60.14508004300296306610107421875" lon="15.898997783660888671875">
        <ele>177</ele>
        <time>2018-08-18T10:54:23.000Z</time>
        <extensions>
          <ns3:TrackPointExtension>
            <ns3:atemp>18.0</ns3:atemp>
          </ns3:TrackPointExtension>
        </extensions>
      </trkpt>
      <trkpt lat="60.14477175660431385040283203125" lon="15.89814794249832630157470703125">
        <ele>176</ele>
        <time>2018-08-18T10:54:30.000Z</time>
        <extensions>
          <ns3:TrackPointExtension>
            <ns3:atemp>18.0</ns3:atemp>
          </ns3:TrackPointExtension>
        </extensions>
      </trkpt>
      <trkpt lat="60.14467553235590457916259765625" lon="15.8978922106325626373291015625">
        <ele>175.600006103515625</ele>
        <time>2018-08-18T10:54:32.000Z</time>
        <extensions>
          <ns3:TrackPointExtension>
            <ns3:atemp>18.0</ns3:atemp>
          </ns3:TrackPointExtension>
        </extensions>
      </trkpt>
      <trkpt lat="60.1445790566504001617431640625" lon="15.897636897861957550048828125">
        <ele>175.399993896484375</ele>
        <time>2018-08-18T10:54:34.000Z</time>
        <extensions>
          <ns3:TrackPointExtension>
            <ns3:atemp>18.0</ns3:atemp>
          </ns3:TrackPointExtension>
        </extensions>
      </trkpt>
      <trkpt lat="60.14443346299231052398681640625" lon="15.8972518332302570343017578125">
        <ele>174.8000030517578125</ele>
        <time>2018-08-18T10:54:37.000Z</time>
        <extensions>
          <ns3:TrackPointExtension>
            <ns3:atemp>18.0</ns3:atemp>
          </ns3:TrackPointExtension>
        </extensions>
      </trkpt>
      <trkpt lat="60.14433573000133037567138671875" lon="15.89699425734579563140869140625">
        <ele>174.399993896484375</ele>
        <time>2018-08-18T10:54:39.000Z</time>
        <extensions>
          <ns3:TrackPointExtension>
            <ns3:atemp>18.0</ns3:atemp>
          </ns3:TrackPointExtension>
        </extensions>
      </trkpt>
      <trkpt lat="60.1442451216280460357666015625" lon="15.8967428840696811676025390625">
        <ele>174</ele>
        <time>2018-08-18T10:54:41.000Z</time>
        <extensions>
          <ns3:TrackPointExtension>
            <ns3:atemp>18.0</ns3:atemp>
          </ns3:TrackPointExtension>
        </extensions>
      </trkpt>
      <trkpt lat="60.14415367506444454193115234375" lon="15.89650291018187999725341796875">
        <ele>173.8000030517578125</ele>
        <time>2018-08-18T10:54:43.000Z</time>
        <extensions>
          <ns3:TrackPointExtension>
            <ns3:atemp>18.0</ns3:atemp>
          </ns3:TrackPointExtension>
        </extensions>
      </trkpt>
      <trkpt lat="60.1440654136240482330322265625" lon="15.89626184664666652679443359375">
        <ele>173.399993896484375</ele>
        <time>2018-08-18T10:54:45.000Z</time>
        <extensions>
          <ns3:TrackPointExtension>
            <ns3:atemp>18.0</ns3:atemp>
          </ns3:TrackPointExtension>
        </extensions>
      </trkpt>
      <trkpt lat="60.14397882856428623199462890625" lon="15.89602162130177021026611328125">
        <ele>173.1999969482421875</ele>
        <time>2018-08-18T10:54:47.000Z</time>
        <extensions>
          <ns3:TrackPointExtension>
            <ns3:atemp>18.0</ns3:atemp>
          </ns3:TrackPointExtension>
        </extensions>
      </trkpt>
      <trkpt lat="60.14389299787580966949462890625" lon="15.8957816474139690399169921875">
        <ele>172.8000030517578125</ele>
        <time>2018-08-18T10:54:49.000Z</time>
        <extensions>
          <ns3:TrackPointExtension>
            <ns3:atemp>18.0</ns3:atemp>
          </ns3:TrackPointExtension>
        </extensions>
      </trkpt>
      <trkpt lat="60.1438052393496036529541015625" lon="15.8955402486026287078857421875">
        <ele>172.399993896484375</ele>
        <time>2018-08-18T10:54:51.000Z</time>
        <extensions>
          <ns3:TrackPointExtension>
            <ns3:atemp>18.0</ns3:atemp>
          </ns3:TrackPointExtension>
        </extensions>
      </trkpt>
      <trkpt lat="60.14371513389050960540771484375" lon="15.89529708959162235260009765625">
        <ele>172.1999969482421875</ele>
        <time>2018-08-18T10:54:53.000Z</time>
        <extensions>
          <ns3:TrackPointExtension>
            <ns3:atemp>18.0</ns3:atemp>
          </ns3:TrackPointExtension>
        </extensions>
      </trkpt>
      <trkpt lat="60.14362335205078125" lon="15.89507396332919597625732421875">
        <ele>171.8000030517578125</ele>
        <time>2018-08-18T10:54:55.000Z</time>
        <extensions>
          <ns3:TrackPointExtension>
            <ns3:atemp>18.0</ns3:atemp>
          </ns3:TrackPointExtension>
        </extensions>
      </trkpt>
      <trkpt lat="60.143524445593357086181640625" lon="15.8948861248791217803955078125">
        <ele>171.399993896484375</ele>
        <time>2018-08-18T10:54:57.000Z</time>
        <extensions>
          <ns3:TrackPointExtension>
            <ns3:atemp>18.0</ns3:atemp>
          </ns3:TrackPointExtension>
        </extensions>
      </trkpt>
      <trkpt lat="60.1434133015573024749755859375" lon="15.8947278745472431182861328125">
        <ele>171.1999969482421875</ele>
        <time>2018-08-18T10:54:59.000Z</time>
        <extensions>
          <ns3:TrackPointExtension>
            <ns3:atemp>18.0</ns3:atemp>
          </ns3:TrackPointExtension>
        </extensions>
      </trkpt>
      <trkpt lat="60.14323099516332149505615234375" lon="15.89451874606311321258544921875">
        <ele>170.600006103515625</ele>
        <time>2018-08-18T10:55:02.000Z</time>
        <extensions>
          <ns3:TrackPointExtension>
            <ns3:atemp>18.0</ns3:atemp>
          </ns3:TrackPointExtension>
        </extensions>
      </trkpt>
      <trkpt lat="60.1429864950478076934814453125" lon="15.894259326159954071044921875">
        <ele>169.8000030517578125</ele>
        <time>2018-08-18T10:55:06.000Z</time>
        <extensions>
          <ns3:TrackPointExtension>
            <ns3:atemp>18.0</ns3:atemp>
          </ns3:TrackPointExtension>
        </extensions>
      </trkpt>
      <trkpt lat="60.14273394830524921417236328125" lon="15.89397777803242206573486328125">
        <ele>168.8000030517578125</ele>
        <time>2018-08-18T10:55:10.000Z</time>
        <extensions>
          <ns3:TrackPointExtension>
            <ns3:atemp>18.0</ns3:atemp>
          </ns3:TrackPointExtension>
        </extensions>
      </trkpt>
      <trkpt lat="60.1421870291233062744140625" lon="15.8934048749506473541259765625">
        <ele>167.1999969482421875</ele>
        <time>2018-08-18T10:55:18.000Z</time>
        <extensions>
          <ns3:TrackPointExtension>
            <ns3:atemp>18.0</ns3:atemp>
          </ns3:TrackPointExtension>
        </extensions>
      </trkpt>
      <trkpt lat="60.14211804606020450592041015625" lon="15.89333094656467437744140625">
        <ele>166.8000030517578125</ele>
        <time>2018-08-18T10:55:19.000Z</time>
        <extensions>
          <ns3:TrackPointExtension>
            <ns3:atemp>18.0</ns3:atemp>
          </ns3:TrackPointExtension>
        </extensions>
      </trkpt>
      <trkpt lat="60.1419243402779102325439453125" lon="15.89308661408722400665283203125">
        <ele>166.1999969482421875</ele>
        <time>2018-08-18T10:55:22.000Z</time>
        <extensions>
          <ns3:TrackPointExtension>
            <ns3:atemp>18.0</ns3:atemp>
          </ns3:TrackPointExtension>
        </extensions>
      </trkpt>
      <trkpt lat="60.1417672634124755859375" lon="15.8927388489246368408203125">
        <ele>165.600006103515625</ele>
        <time>2018-08-18T10:55:25.000Z</time>
        <extensions>
          <ns3:TrackPointExtension>
            <ns3:atemp>18.0</ns3:atemp>
          </ns3:TrackPointExtension>
        </extensions>
      </trkpt>
      <trkpt lat="60.1417243480682373046875" lon="15.89260130189359188079833984375">
        <ele>165.600006103515625</ele>
        <time>2018-08-18T10:55:26.000Z</time>
        <extensions>
          <ns3:TrackPointExtension>
            <ns3:atemp>18.0</ns3:atemp>
          </ns3:TrackPointExtension>
        </extensions>
      </trkpt>
      <trkpt lat="60.141647569835186004638671875" lon="15.89231162331998348236083984375">
        <ele>165.1999969482421875</ele>
        <time>2018-08-18T10:55:28.000Z</time>
        <extensions>
          <ns3:TrackPointExtension>
            <ns3:atemp>18.0</ns3:atemp>
          </ns3:TrackPointExtension>
        </extensions>
      </trkpt>
      <trkpt lat="60.14157883822917938232421875" lon="15.8920175023376941680908203125">
        <ele>165</ele>
        <time>2018-08-18T10:55:30.000Z</time>
        <extensions>
          <ns3:TrackPointExtension>
            <ns3:atemp>18.0</ns3:atemp>
          </ns3:TrackPointExtension>
        </extensions>
      </trkpt>
      <trkpt lat="60.14151823706924915313720703125" lon="15.89171516709029674530029296875">
        <ele>164.8000030517578125</ele>
        <time>2018-08-18T10:55:32.000Z</time>
        <extensions>
          <ns3:TrackPointExtension>
            <ns3:atemp>18.0</ns3:atemp>
          </ns3:TrackPointExtension>
        </extensions>
      </trkpt>
      <trkpt lat="60.1414814405143260955810546875" lon="15.8914083056151866912841796875">
        <ele>164.600006103515625</ele>
        <time>2018-08-18T10:55:34.000Z</time>
        <extensions>
          <ns3:TrackPointExtension>
            <ns3:atemp>18.0</ns3:atemp>
          </ns3:TrackPointExtension>
        </extensions>
      </trkpt>
      <trkpt lat="60.1414613239467144012451171875" lon="15.89110597036778926849365234375">
        <ele>164.399993896484375</ele>
        <time>2018-08-18T10:55:36.000Z</time>
        <extensions>
          <ns3:TrackPointExtension>
            <ns3:atemp>18.0</ns3:atemp>
          </ns3:TrackPointExtension>
        </extensions>
      </trkpt>
      <trkpt lat="60.14144665561616420745849609375" lon="15.89080925099551677703857421875">
        <ele>164.1999969482421875</ele>
        <time>2018-08-18T10:55:38.000Z</time>
        <extensions>
          <ns3:TrackPointExtension>
            <ns3:atemp>18.0</ns3:atemp>
          </ns3:TrackPointExtension>
        </extensions>
      </trkpt>
      <trkpt lat="60.14143357984721660614013671875" lon="15.8905117772519588470458984375">
        <ele>163.600006103515625</ele>
        <time>2018-08-18T10:55:40.000Z</time>
        <extensions>
          <ns3:TrackPointExtension>
            <ns3:atemp>18.0</ns3:atemp>
          </ns3:TrackPointExtension>
        </extensions>
      </trkpt>
      <trkpt lat="60.14140021987259387969970703125" lon="15.88990903459489345550537109375">
        <ele>162.399993896484375</ele>
        <time>2018-08-18T10:55:44.000Z</time>
        <extensions>
          <ns3:TrackPointExtension>
            <ns3:atemp>18.0</ns3:atemp>
          </ns3:TrackPointExtension>
        </extensions>
      </trkpt>
      <trkpt lat="60.141357220709323883056640625" lon="15.8890395797789096832275390625">
        <ele>160.600006103515625</ele>
        <time>2018-08-18T10:55:50.000Z</time>
        <extensions>
          <ns3:TrackPointExtension>
            <ns3:atemp>18.0</ns3:atemp>
          </ns3:TrackPointExtension>
        </extensions>
      </trkpt>
      <trkpt lat="60.14128069393336772918701171875" lon="15.88793945498764514923095703125">
        <ele>158.1999969482421875</ele>
        <time>2018-08-18T10:55:58.000Z</time>
        <extensions>
          <ns3:TrackPointExtension>
            <ns3:atemp>18.0</ns3:atemp>
          </ns3:TrackPointExtension>
        </extensions>
      </trkpt>
      <trkpt lat="60.1412604935467243194580078125" lon="15.88780802674591541290283203125">
        <ele>158</ele>
        <time>2018-08-18T10:55:59.000Z</time>
        <extensions>
          <ns3:TrackPointExtension>
            <ns3:atemp>18.0</ns3:atemp>
          </ns3:TrackPointExtension>
        </extensions>
      </trkpt>
      <trkpt lat="60.14119553379714488983154296875" lon="15.88755078613758087158203125">
        <ele>157.1999969482421875</ele>
        <time>2018-08-18T10:56:01.000Z</time>
        <extensions>
          <ns3:TrackPointExtension>
            <ns3:atemp>18.0</ns3:atemp>
          </ns3:TrackPointExtension>
        </extensions>
      </trkpt>
      <trkpt lat="60.1410417258739471435546875" lon="15.8871962316334247589111328125">
        <ele>156.1999969482421875</ele>
        <time>2018-08-18T10:56:04.000Z</time>
        <extensions>
          <ns3:TrackPointExtension>
            <ns3:atemp>18.0</ns3:atemp>
          </ns3:TrackPointExtension>
        </extensions>
      </trkpt>
      <trkpt lat="60.14094491489231586456298828125" lon="15.88695961050689220428466796875">
        <ele>155.399993896484375</ele>
        <time>2018-08-18T10:56:06.000Z</time>
        <extensions>
          <ns3:TrackPointExtension>
            <ns3:atemp>18.0</ns3:atemp>
          </ns3:TrackPointExtension>
        </extensions>
      </trkpt>
      <trkpt lat="60.140885151922702789306640625" lon="15.886704213917255401611328125">
        <ele>154.8000030517578125</ele>
        <time>2018-08-18T10:56:08.000Z</time>
        <extensions>
          <ns3:TrackPointExtension>
            <ns3:atemp>18.0</ns3:atemp>
          </ns3:TrackPointExtension>
        </extensions>
      </trkpt>
      <trkpt lat="60.14083829708397388458251953125" lon="15.88645719923079013824462890625">
        <ele>154</ele>
        <time>2018-08-18T10:56:10.000Z</time>
        <extensions>
          <ns3:TrackPointExtension>
            <ns3:atemp>18.0</ns3:atemp>
          </ns3:TrackPointExtension>
        </extensions>
      </trkpt>
      <trkpt lat="60.14046664349734783172607421875" lon="15.88630397804081439971923828125">
        <ele>152.600006103515625</ele>
        <time>2018-08-18T10:56:17.000Z</time>
        <extensions>
          <ns3:TrackPointExtension>
            <ns3:atemp>18.0</ns3:atemp>
          </ns3:TrackPointExtension>
        </extensions>
      </trkpt>
      <trkpt lat="60.13991528190672397613525390625" lon="15.8867208100855350494384765625">
        <ele>151.8000030517578125</ele>
        <time>2018-08-18T10:56:26.000Z</time>
        <extensions>
          <ns3:TrackPointExtension>
            <ns3:atemp>19.0</ns3:atemp>
          </ns3:TrackPointExtension>
        </extensions>
      </trkpt>
      <trkpt lat="60.13944379985332489013671875" lon="15.8871893584728240966796875">
        <ele>151.399993896484375</ele>
        <time>2018-08-18T10:56:34.000Z</time>
        <extensions>
          <ns3:TrackPointExtension>
            <ns3:atemp>19.0</ns3:atemp>
          </ns3:TrackPointExtension>
        </extensions>
      </trkpt>
      <trkpt lat="60.13903417624533176422119140625" lon="15.88802176527678966522216796875">
        <ele>151.600006103515625</ele>
        <time>2018-08-18T10:56:43.000Z</time>
        <extensions>
          <ns3:TrackPointExtension>
            <ns3:atemp>19.0</ns3:atemp>
          </ns3:TrackPointExtension>
        </extensions>
      </trkpt>
      <trkpt lat="60.13858591206371784210205078125" lon="15.8888156153261661529541015625">
        <ele>151.8000030517578125</ele>
        <time>2018-08-18T10:56:52.000Z</time>
        <extensions>
          <ns3:TrackPointExtension>
            <ns3:atemp>19.0</ns3:atemp>
          </ns3:TrackPointExtension>
        </extensions>
      </trkpt>
      <trkpt lat="60.13848331756889820098876953125" lon="15.8889812417328357696533203125">
        <ele>151.8000030517578125</ele>
        <time>2018-08-18T10:56:54.000Z</time>
        <extensions>
          <ns3:TrackPointExtension>
            <ns3:atemp>19.0</ns3:atemp>
          </ns3:TrackPointExtension>
        </extensions>
      </trkpt>
      <trkpt lat="60.13798610307276248931884765625" lon="15.88950905017554759979248046875">
        <ele>151.399993896484375</ele>
        <time>2018-08-18T10:57:02.000Z</time>
        <extensions>
          <ns3:TrackPointExtension>
            <ns3:atemp>19.0</ns3:atemp>
          </ns3:TrackPointExtension>
        </extensions>
      </trkpt>
      <trkpt lat="60.13778309337794780731201171875" lon="15.88957560248672962188720703125">
        <ele>151</ele>
        <time>2018-08-18T10:57:05.000Z</time>
        <extensions>
          <ns3:TrackPointExtension>
            <ns3:atemp>19.0</ns3:atemp>
          </ns3:TrackPointExtension>
        </extensions>
      </trkpt>
      <trkpt lat="60.13765535317361354827880859375" lon="15.88957719504833221435546875">
        <ele>150.600006103515625</ele>
        <time>2018-08-18T10:57:07.000Z</time>
        <extensions>
          <ns3:TrackPointExtension>
            <ns3:atemp>19.0</ns3:atemp>
          </ns3:TrackPointExtension>
        </extensions>
      </trkpt>
      <trkpt lat="60.1370960287749767303466796875" lon="15.88956034742295742034912109375">
        <ele>148.8000030517578125</ele>
        <time>2018-08-18T10:57:17.000Z</time>
        <extensions>
          <ns3:TrackPointExtension>
            <ns3:atemp>18.0</ns3:atemp>
          </ns3:TrackPointExtension>
        </extensions>
      </trkpt>
      <trkpt lat="60.1369615830481052398681640625" lon="15.88950804434716701507568359375">
        <ele>148.399993896484375</ele>
        <time>2018-08-18T10:57:21.000Z</time>
        <extensions>
          <ns3:TrackPointExtension>
            <ns3:atemp>18.0</ns3:atemp>
          </ns3:TrackPointExtension>
        </extensions>
      </trkpt>
      <trkpt lat="60.136916823685169219970703125" lon="15.8891193754971027374267578125">
        <ele>147.399993896484375</ele>
        <time>2018-08-18T10:57:26.000Z</time>
        <extensions>
          <ns3:TrackPointExtension>
            <ns3:atemp>18.0</ns3:atemp>
          </ns3:TrackPointExtension>
        </extensions>
      </trkpt>
      <trkpt lat="60.13689444400370121002197265625" lon="15.88793031871318817138671875">
        <ele>145</ele>
        <time>2018-08-18T10:57:36.000Z</time>
        <extensions>
          <ns3:TrackPointExtension>
            <ns3:atemp>18.0</ns3:atemp>
          </ns3:TrackPointExtension>
        </extensions>
      </trkpt>
      <trkpt lat="60.13689100742340087890625" lon="15.887198746204376220703125">
        <ele>143.600006103515625</ele>
        <time>2018-08-18T10:57:42.000Z</time>
        <extensions>
          <ns3:TrackPointExtension>
            <ns3:atemp>18.0</ns3:atemp>
          </ns3:TrackPointExtension>
        </extensions>
      </trkpt>
      <trkpt lat="60.1368816196918487548828125" lon="15.88605503551661968231201171875">
        <ele>141.399993896484375</ele>
        <time>2018-08-18T10:57:51.000Z</time>
        <extensions>
          <ns3:TrackPointExtension>
            <ns3:atemp>18.0</ns3:atemp>
          </ns3:TrackPointExtension>
        </extensions>
      </trkpt>
      <trkpt lat="60.13685815036296844482421875" lon="15.88488190434873104095458984375">
        <ele>139.1999969482421875</ele>
        <time>2018-08-18T10:58:00.000Z</time>
        <extensions>
          <ns3:TrackPointExtension>
            <ns3:atemp>18.0</ns3:atemp>
          </ns3:TrackPointExtension>
        </extensions>
      </trkpt>
      <trkpt lat="60.1368368603289127349853515625" lon="15.88367524556815624237060546875">
        <ele>136.8000030517578125</ele>
        <time>2018-08-18T10:58:09.000Z</time>
        <extensions>
          <ns3:TrackPointExtension>
            <ns3:atemp>18.0</ns3:atemp>
          </ns3:TrackPointExtension>
        </extensions>
      </trkpt>
      <trkpt lat="60.136834681034088134765625" lon="15.88326436467468738555908203125">
        <ele>136</ele>
        <time>2018-08-18T10:58:12.000Z</time>
        <extensions>
          <ns3:TrackPointExtension>
            <ns3:atemp>18.0</ns3:atemp>
          </ns3:TrackPointExtension>
        </extensions>
      </trkpt>
      <trkpt lat="60.13681783340871334075927734375" lon="15.8820567838847637176513671875">
        <ele>134.1999969482421875</ele>
        <time>2018-08-18T10:58:21.000Z</time>
        <extensions>
          <ns3:TrackPointExtension>
            <ns3:atemp>18.0</ns3:atemp>
          </ns3:TrackPointExtension>
        </extensions>
      </trkpt>
      <trkpt lat="60.13680526055395603179931640625" lon="15.88090485893189907073974609375">
        <ele>134</ele>
        <time>2018-08-18T10:58:30.000Z</time>
        <extensions>
          <ns3:TrackPointExtension>
            <ns3:atemp>18.0</ns3:atemp>
          </ns3:TrackPointExtension>
        </extensions>
      </trkpt>
      <trkpt lat="60.13679218478500843048095703125" lon="15.8797779120504856109619140625">
        <ele>133.600006103515625</ele>
        <time>2018-08-18T10:58:39.000Z</time>
        <extensions>
          <ns3:TrackPointExtension>
            <ns3:atemp>18.0</ns3:atemp>
          </ns3:TrackPointExtension>
        </extensions>
      </trkpt>
      <trkpt lat="60.13678933493793010711669921875" lon="15.87864140979945659637451171875">
        <ele>133.399993896484375</ele>
        <time>2018-08-18T10:58:48.000Z</time>
        <extensions>
          <ns3:TrackPointExtension>
            <ns3:atemp>18.0</ns3:atemp>
          </ns3:TrackPointExtension>
        </extensions>
      </trkpt>
      <trkpt lat="60.136780031025409698486328125" lon="15.87752242572605609893798828125">
        <ele>133</ele>
        <time>2018-08-18T10:58:57.000Z</time>
        <extensions>
          <ns3:TrackPointExtension>
            <ns3:atemp>18.0</ns3:atemp>
          </ns3:TrackPointExtension>
        </extensions>
      </trkpt>
      <trkpt lat="60.13677676208317279815673828125" lon="15.877279601991176605224609375">
        <ele>133</ele>
        <time>2018-08-18T10:58:59.000Z</time>
        <extensions>
          <ns3:TrackPointExtension>
            <ns3:atemp>18.0</ns3:atemp>
          </ns3:TrackPointExtension>
        </extensions>
      </trkpt>
      <trkpt lat="60.1367904245853424072265625" lon="15.8761653117835521697998046875">
        <ele>132.8000030517578125</ele>
        <time>2018-08-18T10:59:09.000Z</time>
        <extensions>
          <ns3:TrackPointExtension>
            <ns3:atemp>18.0</ns3:atemp>
          </ns3:TrackPointExtension>
        </extensions>
      </trkpt>
      <trkpt lat="60.13678732328116893768310546875" lon="15.87574495933949947357177734375">
        <ele>132.600006103515625</ele>
        <time>2018-08-18T10:59:13.000Z</time>
        <extensions>
          <ns3:TrackPointExtension>
            <ns3:atemp>18.0</ns3:atemp>
          </ns3:TrackPointExtension>
        </extensions>
      </trkpt>
      <trkpt lat="60.1367580704391002655029296875" lon="15.87499276734888553619384765625">
        <ele>132.399993896484375</ele>
        <time>2018-08-18T10:59:20.000Z</time>
        <extensions>
          <ns3:TrackPointExtension>
            <ns3:atemp>18.0</ns3:atemp>
          </ns3:TrackPointExtension>
        </extensions>
      </trkpt>
      <trkpt lat="60.13674147427082061767578125" lon="15.8746686391532421112060546875">
        <ele>132.1999969482421875</ele>
        <time>2018-08-18T10:59:23.000Z</time>
        <extensions>
          <ns3:TrackPointExtension>
            <ns3:atemp>18.0</ns3:atemp>
          </ns3:TrackPointExtension>
        </extensions>
      </trkpt>
      <trkpt lat="60.136587917804718017578125" lon="15.87378409691154956817626953125">
        <ele>132.399993896484375</ele>
        <time>2018-08-18T10:59:31.000Z</time>
        <extensions>
          <ns3:TrackPointExtension>
            <ns3:atemp>17.0</ns3:atemp>
          </ns3:TrackPointExtension>
        </extensions>
      </trkpt>
      <trkpt lat="60.13651407323777675628662109375" lon="15.87360304780304431915283203125">
        <ele>132.600006103515625</ele>
        <time>2018-08-18T10:59:33.000Z</time>
        <extensions>
          <ns3:TrackPointExtension>
            <ns3:atemp>17.0</ns3:atemp>
          </ns3:TrackPointExtension>
        </extensions>
      </trkpt>
      <trkpt lat="60.136298239231109619140625" lon="15.87322200648486614227294921875">
        <ele>132.8000030517578125</ele>
        <time>2018-08-18T10:59:38.000Z</time>
        <extensions>
          <ns3:TrackPointExtension>
            <ns3:atemp>17.0</ns3:atemp>
          </ns3:TrackPointExtension>
        </extensions>
      </trkpt>
      <trkpt lat="60.1357485540211200714111328125" lon="15.87286443449556827545166015625">
        <ele>132.8000030517578125</ele>
        <time>2018-08-18T10:59:48.000Z</time>
        <extensions>
          <ns3:TrackPointExtension>
            <ns3:atemp>17.0</ns3:atemp>
          </ns3:TrackPointExtension>
        </extensions>
      </trkpt>
      <trkpt lat="60.1351567916572093963623046875" lon="15.872684977948665618896484375">
        <ele>132.600006103515625</ele>
        <time>2018-08-18T10:59:58.000Z</time>
        <extensions>
          <ns3:TrackPointExtension>
            <ns3:atemp>17.0</ns3:atemp>
          </ns3:TrackPointExtension>
        </extensions>
      </trkpt>
      <trkpt lat="60.13457617722451686859130859375" lon="15.87250401265919208526611328125">
        <ele>132.399993896484375</ele>
        <time>2018-08-18T11:00:08.000Z</time>
        <extensions>
          <ns3:TrackPointExtension>
            <ns3:atemp>17.0</ns3:atemp>
          </ns3:TrackPointExtension>
        </extensions>
      </trkpt>
      <trkpt lat="60.13400101102888584136962890625" lon="15.87232916615903377532958984375">
        <ele>132.399993896484375</ele>
        <time>2018-08-18T11:00:19.000Z</time>
        <extensions>
          <ns3:TrackPointExtension>
            <ns3:atemp>17.0</ns3:atemp>
          </ns3:TrackPointExtension>
        </extensions>
      </trkpt>
      <trkpt lat="60.1336990110576152801513671875" lon="15.872269235551357269287109375">
        <ele>132.1999969482421875</ele>
        <time>2018-08-18T11:00:25.000Z</time>
        <extensions>
          <ns3:TrackPointExtension>
            <ns3:atemp>17.0</ns3:atemp>
          </ns3:TrackPointExtension>
        </extensions>
      </trkpt>
      <trkpt lat="60.13354788534343242645263671875" lon="15.872212909162044525146484375">
        <ele>132.1999969482421875</ele>
        <time>2018-08-18T11:00:28.000Z</time>
        <extensions>
          <ns3:TrackPointExtension>
            <ns3:atemp>17.0</ns3:atemp>
          </ns3:TrackPointExtension>
        </extensions>
      </trkpt>
      <trkpt lat="60.133100710809230804443359375" lon="15.8718841709196567535400390625">
        <ele>132.1999969482421875</ele>
        <time>2018-08-18T11:00:38.000Z</time>
        <extensions>
          <ns3:TrackPointExtension>
            <ns3:atemp>17.0</ns3:atemp>
          </ns3:TrackPointExtension>
        </extensions>
      </trkpt>
      <trkpt lat="60.13279535807669162750244140625" lon="15.87137983180582523345947265625">
        <ele>132.600006103515625</ele>
        <time>2018-08-18T11:00:47.000Z</time>
        <extensions>
          <ns3:TrackPointExtension>
            <ns3:atemp>17.0</ns3:atemp>
          </ns3:TrackPointExtension>
        </extensions>
      </trkpt>
      <trkpt lat="60.1327112875878810882568359375" lon="15.87121236138045787811279296875">
        <ele>132.8000030517578125</ele>
        <time>2018-08-18T11:00:50.000Z</time>
        <extensions>
          <ns3:TrackPointExtension>
            <ns3:atemp>17.0</ns3:atemp>
          </ns3:TrackPointExtension>
        </extensions>
      </trkpt>
      <trkpt lat="60.132500231266021728515625" lon="15.87071011774241924285888671875">
        <ele>133.1999969482421875</ele>
        <time>2018-08-18T11:00:59.000Z</time>
        <extensions>
          <ns3:TrackPointExtension>
            <ns3:atemp>17.0</ns3:atemp>
          </ns3:TrackPointExtension>
        </extensions>
      </trkpt>
      <trkpt lat="60.13230753131210803985595703125" lon="15.8702134899795055389404296875">
        <ele>133.600006103515625</ele>
        <time>2018-08-18T11:01:07.000Z</time>
        <extensions>
          <ns3:TrackPointExtension>
            <ns3:atemp>17.0</ns3:atemp>
          </ns3:TrackPointExtension>
        </extensions>
      </trkpt>
      <trkpt lat="60.13196823187172412872314453125" lon="15.86928804405033588409423828125">
        <ele>134.399993896484375</ele>
        <time>2018-08-18T11:01:19.000Z</time>
        <extensions>
          <ns3:TrackPointExtension>
            <ns3:atemp>17.0</ns3:atemp>
          </ns3:TrackPointExtension>
        </extensions>
      </trkpt>
      <trkpt lat="60.13171509839594364166259765625" lon="15.8687117882072925567626953125">
        <ele>135</ele>
        <time>2018-08-18T11:01:25.000Z</time>
        <extensions>
          <ns3:TrackPointExtension>
            <ns3:atemp>17.0</ns3:atemp>
          </ns3:TrackPointExtension>
        </extensions>
      </trkpt>
      <trkpt lat="60.1313027925789356231689453125" lon="15.86795431561768054962158203125">
        <ele>135.600006103515625</ele>
        <time>2018-08-18T11:01:33.000Z</time>
        <extensions>
          <ns3:TrackPointExtension>
            <ns3:atemp>17.0</ns3:atemp>
          </ns3:TrackPointExtension>
        </extensions>
      </trkpt>
      <trkpt lat="60.1312065683305263519287109375" lon="15.8677991665899753570556640625">
        <ele>135.600006103515625</ele>
        <time>2018-08-18T11:01:35.000Z</time>
        <extensions>
          <ns3:TrackPointExtension>
            <ns3:atemp>17.0</ns3:atemp>
          </ns3:TrackPointExtension>
        </extensions>
      </trkpt>
      <trkpt lat="60.13106717728078365325927734375" lon="15.86758467368781566619873046875">
        <ele>135.8000030517578125</ele>
        <time>2018-08-18T11:01:38.000Z</time>
        <extensions>
          <ns3:TrackPointExtension>
            <ns3:atemp>17.0</ns3:atemp>
          </ns3:TrackPointExtension>
        </extensions>
      </trkpt>
      <trkpt lat="60.13056191615760326385498046875" lon="15.86705326102674007415771484375">
        <ele>136</ele>
        <time>2018-08-18T11:01:48.000Z</time>
        <extensions>
          <ns3:TrackPointExtension>
            <ns3:atemp>17.0</ns3:atemp>
          </ns3:TrackPointExtension>
        </extensions>
      </trkpt>
      <trkpt lat="60.13002513907849788665771484375" lon="15.866856873035430908203125">
        <ele>136</ele>
        <time>2018-08-18T11:01:57.000Z</time>
        <extensions>
          <ns3:TrackPointExtension>
            <ns3:atemp>17.0</ns3:atemp>
          </ns3:TrackPointExtension>
        </extensions>
      </trkpt>
      <trkpt lat="60.12945248745381832122802734375" lon="15.86698302067816257476806640625">
        <ele>135.399993896484375</ele>
        <time>2018-08-18T11:02:06.000Z</time>
        <extensions>
          <ns3:TrackPointExtension>
            <ns3:atemp>17.0</ns3:atemp>
          </ns3:TrackPointExtension>
        </extensions>
      </trkpt>
      <trkpt lat="60.1289307139813899993896484375" lon="15.86741049773991107940673828125">
        <ele>134.600006103515625</ele>
        <time>2018-08-18T11:02:14.000Z</time>
        <extensions>
          <ns3:TrackPointExtension>
            <ns3:atemp>17.0</ns3:atemp>
          </ns3:TrackPointExtension>
        </extensions>
      </trkpt>
      <trkpt lat="60.1287446357309818267822265625" lon="15.86758651770651340484619140625">
        <ele>134.399993896484375</ele>
        <time>2018-08-18T11:02:17.000Z</time>
        <extensions>
          <ns3:TrackPointExtension>
            <ns3:atemp>17.0</ns3:atemp>
          </ns3:TrackPointExtension>
        </extensions>
      </trkpt>
      <trkpt lat="60.1282574795186519622802734375" lon="15.86803964339196681976318359375">
        <ele>133.8000030517578125</ele>
        <time>2018-08-18T11:02:25.000Z</time>
        <extensions>
          <ns3:TrackPointExtension>
            <ns3:atemp>17.0</ns3:atemp>
          </ns3:TrackPointExtension>
        </extensions>
      </trkpt>
      <trkpt lat="60.12800811789929866790771484375" lon="15.8681478537619113922119140625">
        <ele>134.600006103515625</ele>
        <time>2018-08-18T11:02:29.000Z</time>
        <extensions>
          <ns3:TrackPointExtension>
            <ns3:atemp>17.0</ns3:atemp>
          </ns3:TrackPointExtension>
        </extensions>
      </trkpt>
      <trkpt lat="60.12743362225592136383056640625" lon="15.86800477467477321624755859375">
        <ele>136.399993896484375</ele>
        <time>2018-08-18T11:02:39.000Z</time>
        <extensions>
          <ns3:TrackPointExtension>
            <ns3:atemp>16.0</ns3:atemp>
          </ns3:TrackPointExtension>
        </extensions>
      </trkpt>
      <trkpt lat="60.12695007026195526123046875" lon="15.86746280081570148468017578125">
        <ele>138.399993896484375</ele>
        <time>2018-08-18T11:02:49.000Z</time>
        <extensions>
          <ns3:TrackPointExtension>
            <ns3:atemp>16.0</ns3:atemp>
          </ns3:TrackPointExtension>
        </extensions>
      </trkpt>
      <trkpt lat="60.126717053353786468505859375" lon="15.8670699410140514373779296875">
        <ele>139.600006103515625</ele>
        <time>2018-08-18T11:02:55.000Z</time>
        <extensions>
          <ns3:TrackPointExtension>
            <ns3:atemp>16.0</ns3:atemp>
          </ns3:TrackPointExtension>
        </extensions>
      </trkpt>
      <trkpt lat="60.12638890184462070465087890625" lon="15.86651380173861980438232421875">
        <ele>141.1999969482421875</ele>
        <time>2018-08-18T11:03:03.000Z</time>
        <extensions>
          <ns3:TrackPointExtension>
            <ns3:atemp>16.0</ns3:atemp>
          </ns3:TrackPointExtension>
        </extensions>
      </trkpt>
      <trkpt lat="60.12596729211509227752685546875" lon="15.86577116511762142181396484375">
        <ele>143.1999969482421875</ele>
        <time>2018-08-18T11:03:13.000Z</time>
        <extensions>
          <ns3:TrackPointExtension>
            <ns3:atemp>16.0</ns3:atemp>
          </ns3:TrackPointExtension>
        </extensions>
      </trkpt>
      <trkpt lat="60.12554886750876903533935546875" lon="15.86505518294870853424072265625">
        <ele>144.8000030517578125</ele>
        <time>2018-08-18T11:03:23.000Z</time>
        <extensions>
          <ns3:TrackPointExtension>
            <ns3:atemp>16.0</ns3:atemp>
          </ns3:TrackPointExtension>
        </extensions>
      </trkpt>
      <trkpt lat="60.12539765797555446624755859375" lon="15.864794589579105377197265625">
        <ele>145.399993896484375</ele>
        <time>2018-08-18T11:03:27.000Z</time>
        <extensions>
          <ns3:TrackPointExtension>
            <ns3:atemp>16.0</ns3:atemp>
          </ns3:TrackPointExtension>
        </extensions>
      </trkpt>
      <trkpt lat="60.1251092366874217987060546875" lon="15.864319503307342529296875">
        <ele>146.399993896484375</ele>
        <time>2018-08-18T11:03:35.000Z</time>
        <extensions>
          <ns3:TrackPointExtension>
            <ns3:atemp>16.0</ns3:atemp>
          </ns3:TrackPointExtension>
        </extensions>
      </trkpt>
      <trkpt lat="60.12495727278292179107666015625" lon="15.86406268179416656494140625">
        <ele>147</ele>
        <time>2018-08-18T11:03:39.000Z</time>
        <extensions>
          <ns3:TrackPointExtension>
            <ns3:atemp>16.0</ns3:atemp>
          </ns3:TrackPointExtension>
        </extensions>
      </trkpt>
      <trkpt lat="60.12466977350413799285888671875" lon="15.86352380923926830291748046875">
        <ele>148.1999969482421875</ele>
        <time>2018-08-18T11:03:46.000Z</time>
        <extensions>
          <ns3:TrackPointExtension>
            <ns3:atemp>16.0</ns3:atemp>
          </ns3:TrackPointExtension>
        </extensions>
      </trkpt>
      <trkpt lat="60.12434321455657482147216796875" lon="15.862589143216609954833984375">
        <ele>149.600006103515625</ele>
        <time>2018-08-18T11:03:56.000Z</time>
        <extensions>
          <ns3:TrackPointExtension>
            <ns3:atemp>16.0</ns3:atemp>
          </ns3:TrackPointExtension>
        </extensions>
      </trkpt>
      <trkpt lat="60.12412897311151027679443359375" lon="15.86159714497625827789306640625">
        <ele>150.600006103515625</ele>
        <time>2018-08-18T11:04:04.000Z</time>
        <extensions>
          <ns3:TrackPointExtension>
            <ns3:atemp>16.0</ns3:atemp>
          </ns3:TrackPointExtension>
        </extensions>
      </trkpt>
      <trkpt lat="60.12410826981067657470703125" lon="15.86145264096558094024658203125">
        <ele>151</ele>
        <time>2018-08-18T11:04:05.000Z</time>
        <extensions>
          <ns3:TrackPointExtension>
            <ns3:atemp>16.0</ns3:atemp>
          </ns3:TrackPointExtension>
        </extensions>
      </trkpt>
      <trkpt lat="60.12403509579598903656005859375" lon="15.86082567460834980010986328125">
        <ele>152</ele>
        <time>2018-08-18T11:04:09.000Z</time>
        <extensions>
          <ns3:TrackPointExtension>
            <ns3:atemp>16.0</ns3:atemp>
          </ns3:TrackPointExtension>
        </extensions>
      </trkpt>
      <trkpt lat="60.12397818267345428466796875" lon="15.86020373739302158355712890625">
        <ele>153.1999969482421875</ele>
        <time>2018-08-18T11:04:13.000Z</time>
        <extensions>
          <ns3:TrackPointExtension>
            <ns3:atemp>16.0</ns3:atemp>
          </ns3:TrackPointExtension>
        </extensions>
      </trkpt>
      <trkpt lat="60.1239428110420703887939453125" lon="15.8597307465970516204833984375">
        <ele>154</ele>
        <time>2018-08-18T11:04:16.000Z</time>
        <extensions>
          <ns3:TrackPointExtension>
            <ns3:atemp>16.0</ns3:atemp>
          </ns3:TrackPointExtension>
        </extensions>
      </trkpt>
      <trkpt lat="60.12392294593155384063720703125" lon="15.85942321456968784332275390625">
        <ele>154.399993896484375</ele>
        <time>2018-08-18T11:04:18.000Z</time>
        <extensions>
          <ns3:TrackPointExtension>
            <ns3:atemp>16.0</ns3:atemp>
          </ns3:TrackPointExtension>
        </extensions>
      </trkpt>
      <trkpt lat="60.12389545328915119171142578125" lon="15.8589832484722137451171875">
        <ele>155.1999969482421875</ele>
        <time>2018-08-18T11:04:21.000Z</time>
        <extensions>
          <ns3:TrackPointExtension>
            <ns3:atemp>16.0</ns3:atemp>
          </ns3:TrackPointExtension>
        </extensions>
      </trkpt>
      <trkpt lat="60.12384650297462940216064453125" lon="15.8581026457250118255615234375">
        <ele>156.600006103515625</ele>
        <time>2018-08-18T11:04:27.000Z</time>
        <extensions>
          <ns3:TrackPointExtension>
            <ns3:atemp>16.0</ns3:atemp>
          </ns3:TrackPointExtension>
        </extensions>
      </trkpt>
      <trkpt lat="60.12378816492855548858642578125" lon="15.8573278225958347320556640625">
        <ele>157.600006103515625</ele>
        <time>2018-08-18T11:04:33.000Z</time>
        <extensions>
          <ns3:TrackPointExtension>
            <ns3:atemp>16.0</ns3:atemp>
          </ns3:TrackPointExtension>
        </extensions>
      </trkpt>
      <trkpt lat="60.12376653961837291717529296875" lon="15.8570592664182186126708984375">
        <ele>157.1999969482421875</ele>
        <time>2018-08-18T11:04:35.000Z</time>
        <extensions>
          <ns3:TrackPointExtension>
            <ns3:atemp>16.0</ns3:atemp>
          </ns3:TrackPointExtension>
        </extensions>
      </trkpt>
      <trkpt lat="60.12367509305477142333984375" lon="15.855987556278705596923828125">
        <ele>155.600006103515625</ele>
        <time>2018-08-18T11:04:42.000Z</time>
        <extensions>
          <ns3:TrackPointExtension>
            <ns3:atemp>16.0</ns3:atemp>
          </ns3:TrackPointExtension>
        </extensions>
      </trkpt>
      <trkpt lat="60.12365321628749370574951171875" lon="15.8556806109845638275146484375">
        <ele>155.1999969482421875</ele>
        <time>2018-08-18T11:04:44.000Z</time>
        <extensions>
          <ns3:TrackPointExtension>
            <ns3:atemp>16.0</ns3:atemp>
          </ns3:TrackPointExtension>
        </extensions>
      </trkpt>
      <trkpt lat="60.1235626079142093658447265625" lon="15.854588449001312255859375">
        <ele>153.8000030517578125</ele>
        <time>2018-08-18T11:04:51.000Z</time>
        <extensions>
          <ns3:TrackPointExtension>
            <ns3:atemp>16.0</ns3:atemp>
          </ns3:TrackPointExtension>
        </extensions>
      </trkpt>
      <trkpt lat="60.123464204370975494384765625" lon="15.8534513600170612335205078125">
        <ele>152.1999969482421875</ele>
        <time>2018-08-18T11:05:00.000Z</time>
        <extensions>
          <ns3:TrackPointExtension>
            <ns3:atemp>16.0</ns3:atemp>
          </ns3:TrackPointExtension>
        </extensions>
      </trkpt>
      <trkpt lat="60.1234330236911773681640625" lon="15.8530852384865283966064453125">
        <ele>151.600006103515625</ele>
        <time>2018-08-18T11:05:03.000Z</time>
        <extensions>
          <ns3:TrackPointExtension>
            <ns3:atemp>16.0</ns3:atemp>
          </ns3:TrackPointExtension>
        </extensions>
      </trkpt>
      <trkpt lat="60.1234142482280731201171875" lon="15.85285012610256671905517578125">
        <ele>151.1999969482421875</ele>
        <time>2018-08-18T11:05:05.000Z</time>
        <extensions>
          <ns3:TrackPointExtension>
            <ns3:atemp>16.0</ns3:atemp>
          </ns3:TrackPointExtension>
        </extensions>
      </trkpt>
      <trkpt lat="60.123320706188678741455078125" lon="15.85178361274302005767822265625">
        <ele>151.600006103515625</ele>
        <time>2018-08-18T11:05:15.000Z</time>
        <extensions>
          <ns3:TrackPointExtension>
            <ns3:atemp>16.0</ns3:atemp>
          </ns3:TrackPointExtension>
        </extensions>
      </trkpt>
      <trkpt lat="60.12317863292992115020751953125" lon="15.85145638324320316314697265625">
        <ele>151.8000030517578125</ele>
        <time>2018-08-18T11:05:20.000Z</time>
        <extensions>
          <ns3:TrackPointExtension>
            <ns3:atemp>16.0</ns3:atemp>
          </ns3:TrackPointExtension>
        </extensions>
      </trkpt>
      <trkpt lat="60.1229953207075595855712890625" lon="15.8511161617934703826904296875">
        <ele>152.1999969482421875</ele>
        <time>2018-08-18T11:05:25.000Z</time>
        <extensions>
          <ns3:TrackPointExtension>
            <ns3:atemp>16.0</ns3:atemp>
          </ns3:TrackPointExtension>
        </extensions>
      </trkpt>
      <trkpt lat="60.12289398349821567535400390625" lon="15.85081919096410274505615234375">
        <ele>152.399993896484375</ele>
        <time>2018-08-18T11:05:29.000Z</time>
        <extensions>
          <ns3:TrackPointExtension>
            <ns3:atemp>16.0</ns3:atemp>
          </ns3:TrackPointExtension>
        </extensions>
      </trkpt>
      <trkpt lat="60.122866742312908172607421875" lon="15.85063596256077289581298828125">
        <ele>152.600006103515625</ele>
        <time>2018-08-18T11:05:31.000Z</time>
        <extensions>
          <ns3:TrackPointExtension>
            <ns3:atemp>16.0</ns3:atemp>
          </ns3:TrackPointExtension>
        </extensions>
      </trkpt>
      <trkpt lat="60.12285358272492885589599609375" lon="15.85034527815878391265869140625">
        <ele>153</ele>
        <time>2018-08-18T11:05:34.000Z</time>
        <extensions>
          <ns3:TrackPointExtension>
            <ns3:atemp>16.0</ns3:atemp>
          </ns3:TrackPointExtension>
        </extensions>
      </trkpt>
      <trkpt lat="60.1228565163910388946533203125" lon="15.85015132091939449310302734375">
        <ele>153.1999969482421875</ele>
        <time>2018-08-18T11:05:36.000Z</time>
        <extensions>
          <ns3:TrackPointExtension>
            <ns3:atemp>16.0</ns3:atemp>
          </ns3:TrackPointExtension>
        </extensions>
      </trkpt>
      <trkpt lat="60.122860707342624664306640625" lon="15.8499453775584697723388671875">
        <ele>153.399993896484375</ele>
        <time>2018-08-18T11:05:38.000Z</time>
        <extensions>
          <ns3:TrackPointExtension>
            <ns3:atemp>16.0</ns3:atemp>
          </ns3:TrackPointExtension>
        </extensions>
      </trkpt>
      <trkpt lat="60.12289297766983509063720703125" lon="15.8494598977267742156982421875">
        <ele>154</ele>
        <time>2018-08-18T11:05:43.000Z</time>
        <extensions>
          <ns3:TrackPointExtension>
            <ns3:atemp>16.0</ns3:atemp>
          </ns3:TrackPointExtension>
        </extensions>
      </trkpt>
      <trkpt lat="60.122978053987026214599609375" lon="15.8489030040800571441650390625">
        <ele>154.1999969482421875</ele>
        <time>2018-08-18T11:05:48.000Z</time>
        <extensions>
          <ns3:TrackPointExtension>
            <ns3:atemp>16.0</ns3:atemp>
          </ns3:TrackPointExtension>
        </extensions>
      </trkpt>
      <trkpt lat="60.12298710644245147705078125" lon="15.84867627359926700592041015625">
        <ele>154</ele>
        <time>2018-08-18T11:05:50.000Z</time>
        <extensions>
          <ns3:TrackPointExtension>
            <ns3:atemp>16.0</ns3:atemp>
          </ns3:TrackPointExtension>
        </extensions>
      </trkpt>
      <trkpt lat="60.122796334326267242431640625" lon="15.84806640632450580596923828125">
        <ele>153.399993896484375</ele>
        <time>2018-08-18T11:05:57.000Z</time>
        <extensions>
          <ns3:TrackPointExtension>
            <ns3:atemp>16.0</ns3:atemp>
          </ns3:TrackPointExtension>
        </extensions>
      </trkpt>
      <trkpt lat="60.122609920799732208251953125" lon="15.847810842096805572509765625">
        <ele>153</ele>
        <time>2018-08-18T11:06:01.000Z</time>
        <extensions>
          <ns3:TrackPointExtension>
            <ns3:atemp>16.0</ns3:atemp>
          </ns3:TrackPointExtension>
        </extensions>
      </trkpt>
      <trkpt lat="60.12213592417538166046142578125" lon="15.84712277166545391082763671875">
        <ele>151.8000030517578125</ele>
        <time>2018-08-18T11:06:09.000Z</time>
        <extensions>
          <ns3:TrackPointExtension>
            <ns3:atemp>16.0</ns3:atemp>
          </ns3:TrackPointExtension>
        </extensions>
      </trkpt>
      <trkpt lat="60.1220065914094448089599609375" lon="15.84676084108650684356689453125">
        <ele>151.399993896484375</ele>
        <time>2018-08-18T11:06:12.000Z</time>
        <extensions>
          <ns3:TrackPointExtension>
            <ns3:atemp>16.0</ns3:atemp>
          </ns3:TrackPointExtension>
        </extensions>
      </trkpt>
      <trkpt lat="60.12196007184684276580810546875" lon="15.84648239426314830780029296875">
        <ele>151</ele>
        <time>2018-08-18T11:06:14.000Z</time>
        <extensions>
          <ns3:TrackPointExtension>
            <ns3:atemp>16.0</ns3:atemp>
          </ns3:TrackPointExtension>
        </extensions>
      </trkpt>
      <trkpt lat="60.12194263748824596405029296875" lon="15.84635012783110141754150390625">
        <ele>151</ele>
        <time>2018-08-18T11:06:15.000Z</time>
        <extensions>
          <ns3:TrackPointExtension>
            <ns3:atemp>16.0</ns3:atemp>
          </ns3:TrackPointExtension>
        </extensions>
      </trkpt>
      <trkpt lat="60.12191019952297210693359375" lon="15.8461031131446361541748046875">
        <ele>150.600006103515625</ele>
        <time>2018-08-18T11:06:17.000Z</time>
        <extensions>
          <ns3:TrackPointExtension>
            <ns3:atemp>16.0</ns3:atemp>
          </ns3:TrackPointExtension>
        </extensions>
      </trkpt>
      <trkpt lat="60.1218630932271480560302734375" lon="15.84569399245083332061767578125">
        <ele>150.1999969482421875</ele>
        <time>2018-08-18T11:06:20.000Z</time>
        <extensions>
          <ns3:TrackPointExtension>
            <ns3:atemp>16.0</ns3:atemp>
          </ns3:TrackPointExtension>
        </extensions>
      </trkpt>
      <trkpt lat="60.1218765042722225189208984375" lon="15.84472454153001308441162109375">
        <ele>149.399993896484375</ele>
        <time>2018-08-18T11:06:27.000Z</time>
        <extensions>
          <ns3:TrackPointExtension>
            <ns3:atemp>16.0</ns3:atemp>
          </ns3:TrackPointExtension>
        </extensions>
      </trkpt>
      <trkpt lat="60.121915228664875030517578125" lon="15.84378627128899097442626953125">
        <ele>148.399993896484375</ele>
        <time>2018-08-18T11:06:35.000Z</time>
        <extensions>
          <ns3:TrackPointExtension>
            <ns3:atemp>16.0</ns3:atemp>
          </ns3:TrackPointExtension>
        </extensions>
      </trkpt>
      <trkpt lat="60.12164340354502201080322265625" lon="15.84329274483025074005126953125">
        <ele>147.8000030517578125</ele>
        <time>2018-08-18T11:06:43.000Z</time>
        <extensions>
          <ns3:TrackPointExtension>
            <ns3:atemp>16.0</ns3:atemp>
          </ns3:TrackPointExtension>
        </extensions>
      </trkpt>
      <trkpt lat="60.12146218679845333099365234375" lon="15.8432199060916900634765625">
        <ele>147.600006103515625</ele>
        <time>2018-08-18T11:06:47.000Z</time>
        <extensions>
          <ns3:TrackPointExtension>
            <ns3:atemp>16.0</ns3:atemp>
          </ns3:TrackPointExtension>
        </extensions>
      </trkpt>
      <trkpt lat="60.12121525593101978302001953125" lon="15.84314639680087566375732421875">
        <ele>147.1999969482421875</ele>
        <time>2018-08-18T11:06:52.000Z</time>
        <extensions>
          <ns3:TrackPointExtension>
            <ns3:atemp>16.0</ns3:atemp>
          </ns3:TrackPointExtension>
        </extensions>
      </trkpt>
      <trkpt lat="60.12074477970600128173828125" lon="15.84300474263727664947509765625">
        <ele>146.8000030517578125</ele>
        <time>2018-08-18T11:07:02.000Z</time>
        <extensions>
          <ns3:TrackPointExtension>
            <ns3:atemp>16.0</ns3:atemp>
          </ns3:TrackPointExtension>
        </extensions>
      </trkpt>
      <trkpt lat="60.12037589214742183685302734375" lon="15.84284129552543163299560546875">
        <ele>146.1999969482421875</ele>
        <time>2018-08-18T11:07:11.000Z</time>
        <extensions>
          <ns3:TrackPointExtension>
            <ns3:atemp>16.0</ns3:atemp>
          </ns3:TrackPointExtension>
        </extensions>
      </trkpt>
      <trkpt lat="60.11983257718384265899658203125" lon="15.8425857312977313995361328125">
        <ele>146.1999969482421875</ele>
        <time>2018-08-18T11:07:24.000Z</time>
        <extensions>
          <ns3:TrackPointExtension>
            <ns3:atemp>16.0</ns3:atemp>
          </ns3:TrackPointExtension>
        </extensions>
      </trkpt>
      <trkpt lat="60.11957374401390552520751953125" lon="15.84243946708738803863525390625">
        <ele>146.600006103515625</ele>
        <time>2018-08-18T11:07:30.000Z</time>
        <extensions>
          <ns3:TrackPointExtension>
            <ns3:atemp>16.0</ns3:atemp>
          </ns3:TrackPointExtension>
        </extensions>
      </trkpt>
      <trkpt lat="60.11905389837920665740966796875" lon="15.84211424924433231353759765625">
        <ele>147.399993896484375</ele>
        <time>2018-08-18T11:07:39.000Z</time>
        <extensions>
          <ns3:TrackPointExtension>
            <ns3:atemp>16.0</ns3:atemp>
          </ns3:TrackPointExtension>
        </extensions>
      </trkpt>
      <trkpt lat="60.1188311912119388580322265625" lon="15.84190151654183864593505859375">
        <ele>147.8000030517578125</ele>
        <time>2018-08-18T11:07:43.000Z</time>
        <extensions>
          <ns3:TrackPointExtension>
            <ns3:atemp>16.0</ns3:atemp>
          </ns3:TrackPointExtension>
        </extensions>
      </trkpt>
      <trkpt lat="60.1183007843792438507080078125" lon="15.8414625562727451324462890625">
        <ele>148.600006103515625</ele>
        <time>2018-08-18T11:07:53.000Z</time>
        <extensions>
          <ns3:TrackPointExtension>
            <ns3:atemp>16.0</ns3:atemp>
          </ns3:TrackPointExtension>
        </extensions>
      </trkpt>
      <trkpt lat="60.1178163103759288787841796875" lon="15.84138670004904270172119140625">
        <ele>149.600006103515625</ele>
        <time>2018-08-18T11:08:01.000Z</time>
        <extensions>
          <ns3:TrackPointExtension>
            <ns3:atemp>16.0</ns3:atemp>
          </ns3:TrackPointExtension>
        </extensions>
      </trkpt>
      <trkpt lat="60.1173325069248676300048828125" lon="15.8412593789398670196533203125">
        <ele>150.600006103515625</ele>
        <time>2018-08-18T11:08:10.000Z</time>
        <extensions>
          <ns3:TrackPointExtension>
            <ns3:atemp>16.0</ns3:atemp>
          </ns3:TrackPointExtension>
        </extensions>
      </trkpt>
      <trkpt lat="60.1168071292340755462646484375" lon="15.840878672897815704345703125">
        <ele>151.399993896484375</ele>
        <time>2018-08-18T11:08:19.000Z</time>
        <extensions>
          <ns3:TrackPointExtension>
            <ns3:atemp>16.0</ns3:atemp>
          </ns3:TrackPointExtension>
        </extensions>
      </trkpt>
      <trkpt lat="60.1167477853596210479736328125" lon="15.84084506146609783172607421875">
        <ele>151.600006103515625</ele>
        <time>2018-08-18T11:08:20.000Z</time>
        <extensions>
          <ns3:TrackPointExtension>
            <ns3:atemp>16.0</ns3:atemp>
          </ns3:TrackPointExtension>
        </extensions>
      </trkpt>
      <trkpt lat="60.11651434935629367828369140625" lon="15.84070793353021144866943359375">
        <ele>151.8000030517578125</ele>
        <time>2018-08-18T11:08:24.000Z</time>
        <extensions>
          <ns3:TrackPointExtension>
            <ns3:atemp>16.0</ns3:atemp>
          </ns3:TrackPointExtension>
        </extensions>
      </trkpt>
      <trkpt lat="60.116006992757320404052734375" lon="15.840311385691165924072265625">
        <ele>152.399993896484375</ele>
        <time>2018-08-18T11:08:34.000Z</time>
        <extensions>
          <ns3:TrackPointExtension>
            <ns3:atemp>16.0</ns3:atemp>
          </ns3:TrackPointExtension>
        </extensions>
      </trkpt>
      <trkpt lat="60.1159675978124141693115234375" lon="15.840260423719882965087890625">
        <ele>152.399993896484375</ele>
        <time>2018-08-18T11:08:35.000Z</time>
        <extensions>
          <ns3:TrackPointExtension>
            <ns3:atemp>16.0</ns3:atemp>
          </ns3:TrackPointExtension>
        </extensions>
      </trkpt>
      <trkpt lat="60.11559502221643924713134765625" lon="15.839465819299221038818359375">
        <ele>152.1999969482421875</ele>
        <time>2018-08-18T11:08:47.000Z</time>
        <extensions>
          <ns3:TrackPointExtension>
            <ns3:atemp>16.0</ns3:atemp>
          </ns3:TrackPointExtension>
        </extensions>
      </trkpt>
      <trkpt lat="60.11557322926819324493408203125" lon="15.8393972553312778472900390625">
        <ele>152.1999969482421875</ele>
        <time>2018-08-18T11:08:48.000Z</time>
        <extensions>
          <ns3:TrackPointExtension>
            <ns3:atemp>16.0</ns3:atemp>
          </ns3:TrackPointExtension>
        </extensions>
      </trkpt>
      <trkpt lat="60.115342475473880767822265625" lon="15.83877054043114185333251953125">
        <ele>151.8000030517578125</ele>
        <time>2018-08-18T11:08:57.000Z</time>
        <extensions>
          <ns3:TrackPointExtension>
            <ns3:atemp>16.0</ns3:atemp>
          </ns3:TrackPointExtension>
        </extensions>
      </trkpt>
      <trkpt lat="60.11514323763549327850341796875" lon="15.83822487853467464447021484375">
        <ele>151.399993896484375</ele>
        <time>2018-08-18T11:09:05.000Z</time>
        <extensions>
          <ns3:TrackPointExtension>
            <ns3:atemp>16.0</ns3:atemp>
          </ns3:TrackPointExtension>
        </extensions>
      </trkpt>
      <trkpt lat="60.11505271308124065399169921875" lon="15.8379089646041393280029296875">
        <ele>151.1999969482421875</ele>
        <time>2018-08-18T11:09:09.000Z</time>
        <extensions>
          <ns3:TrackPointExtension>
            <ns3:atemp>16.0</ns3:atemp>
          </ns3:TrackPointExtension>
        </extensions>
      </trkpt>
      <trkpt lat="60.11497476138174533843994140625" lon="15.83765490911900997161865234375">
        <ele>151</ele>
        <time>2018-08-18T11:09:12.000Z</time>
        <extensions>
          <ns3:TrackPointExtension>
            <ns3:atemp>16.0</ns3:atemp>
          </ns3:TrackPointExtension>
        </extensions>
      </trkpt>
      <trkpt lat="60.11487434618175029754638671875" lon="15.83741962909698486328125">
        <ele>150.8000030517578125</ele>
        <time>2018-08-18T11:09:15.000Z</time>
        <extensions>
          <ns3:TrackPointExtension>
            <ns3:atemp>16.0</ns3:atemp>
          </ns3:TrackPointExtension>
        </extensions>
      </trkpt>
      <trkpt lat="60.1144635491073131561279296875" lon="15.83670792169868946075439453125">
        <ele>150.8000030517578125</ele>
        <time>2018-08-18T11:09:25.000Z</time>
        <extensions>
          <ns3:TrackPointExtension>
            <ns3:atemp>16.0</ns3:atemp>
          </ns3:TrackPointExtension>
        </extensions>
      </trkpt>
      <trkpt lat="60.1140917278826236724853515625" lon="15.83582664839923381805419921875">
        <ele>150.399993896484375</ele>
        <time>2018-08-18T11:09:37.000Z</time>
        <extensions>
          <ns3:TrackPointExtension>
            <ns3:atemp>16.0</ns3:atemp>
          </ns3:TrackPointExtension>
        </extensions>
      </trkpt>
      <trkpt lat="60.1137598045170307159423828125" lon="15.8352438546717166900634765625">
        <ele>150.1999969482421875</ele>
        <time>2018-08-18T11:09:47.000Z</time>
        <extensions>
          <ns3:TrackPointExtension>
            <ns3:atemp>16.0</ns3:atemp>
          </ns3:TrackPointExtension>
        </extensions>
      </trkpt>
      <trkpt lat="60.11346794664859771728515625" lon="15.83477790467441082000732421875">
        <ele>150.1999969482421875</ele>
        <time>2018-08-18T11:09:55.000Z</time>
        <extensions>
          <ns3:TrackPointExtension>
            <ns3:atemp>16.0</ns3:atemp>
          </ns3:TrackPointExtension>
        </extensions>
      </trkpt>
      <trkpt lat="60.113231241703033447265625" lon="15.83493883721530437469482421875">
        <ele>151</ele>
        <time>2018-08-18T11:10:01.000Z</time>
        <extensions>
          <ns3:TrackPointExtension>
            <ns3:atemp>16.0</ns3:atemp>
          </ns3:TrackPointExtension>
        </extensions>
      </trkpt>
      <trkpt lat="60.113163851201534271240234375" lon="15.8350688405334949493408203125">
        <ele>151.399993896484375</ele>
        <time>2018-08-18T11:10:03.000Z</time>
        <extensions>
          <ns3:TrackPointExtension>
            <ns3:atemp>16.0</ns3:atemp>
          </ns3:TrackPointExtension>
        </extensions>
      </trkpt>
      <trkpt lat="60.11268365196883678436279296875" lon="15.8357414044439792633056640625">
        <ele>153.399993896484375</ele>
        <time>2018-08-18T11:10:13.000Z</time>
        <extensions>
          <ns3:TrackPointExtension>
            <ns3:atemp>16.0</ns3:atemp>
          </ns3:TrackPointExtension>
        </extensions>
      </trkpt>
      <trkpt lat="60.1125065423548221588134765625" lon="15.836020521819591522216796875">
        <ele>154.1999969482421875</ele>
        <time>2018-08-18T11:10:17.000Z</time>
        <extensions>
          <ns3:TrackPointExtension>
            <ns3:atemp>16.0</ns3:atemp>
          </ns3:TrackPointExtension>
        </extensions>
      </trkpt>
      <trkpt lat="60.11227168142795562744140625" lon="15.83693825639784336090087890625">
        <ele>156.1999969482421875</ele>
        <time>2018-08-18T11:10:32.000Z</time>
        <extensions>
          <ns3:TrackPointExtension>
            <ns3:atemp>16.0</ns3:atemp>
          </ns3:TrackPointExtension>
        </extensions>
      </trkpt>
      <trkpt lat="60.11228132061660289764404296875" lon="15.8371059782803058624267578125">
        <ele>156.399993896484375</ele>
        <time>2018-08-18T11:10:34.000Z</time>
        <extensions>
          <ns3:TrackPointExtension>
            <ns3:atemp>16.0</ns3:atemp>
          </ns3:TrackPointExtension>
        </extensions>
      </trkpt>
      <trkpt lat="60.11225290596485137939453125" lon="15.83789312280714511871337890625">
        <ele>157.600006103515625</ele>
        <time>2018-08-18T11:10:43.000Z</time>
        <extensions>
          <ns3:TrackPointExtension>
            <ns3:atemp>16.0</ns3:atemp>
          </ns3:TrackPointExtension>
        </extensions>
      </trkpt>
      <trkpt lat="60.11211535893380641937255859375" lon="15.83895963616669178009033203125">
        <ele>159.399993896484375</ele>
        <time>2018-08-18T11:10:55.000Z</time>
        <extensions>
          <ns3:TrackPointExtension>
            <ns3:atemp>16.0</ns3:atemp>
          </ns3:TrackPointExtension>
        </extensions>
      </trkpt>
      <trkpt lat="60.1120130158960819244384765625" lon="15.83919634111225605010986328125">
        <ele>160</ele>
        <time>2018-08-18T11:10:59.000Z</time>
        <extensions>
          <ns3:TrackPointExtension>
            <ns3:atemp>16.0</ns3:atemp>
          </ns3:TrackPointExtension>
        </extensions>
      </trkpt>
      <trkpt lat="60.11176784522831439971923828125" lon="15.83965080790221691131591796875">
        <ele>161.1999969482421875</ele>
        <time>2018-08-18T11:11:08.000Z</time>
        <extensions>
          <ns3:TrackPointExtension>
            <ns3:atemp>16.0</ns3:atemp>
          </ns3:TrackPointExtension>
        </extensions>
      </trkpt>
      <trkpt lat="60.11164295487105846405029296875" lon="15.84002514369785785675048828125">
        <ele>161.8000030517578125</ele>
        <time>2018-08-18T11:11:15.000Z</time>
        <extensions>
          <ns3:TrackPointExtension>
            <ns3:atemp>16.0</ns3:atemp>
          </ns3:TrackPointExtension>
        </extensions>
      </trkpt>
      <trkpt lat="60.1115439645946025848388671875" lon="15.8403085358440876007080078125">
        <ele>162.1999969482421875</ele>
        <time>2018-08-18T11:11:21.000Z</time>
        <extensions>
          <ns3:TrackPointExtension>
            <ns3:atemp>16.0</ns3:atemp>
          </ns3:TrackPointExtension>
        </extensions>
      </trkpt>
      <trkpt lat="60.111455619335174560546875" lon="15.8405338414013385772705078125">
        <ele>162.399993896484375</ele>
        <time>2018-08-18T11:11:26.000Z</time>
        <extensions>
          <ns3:TrackPointExtension>
            <ns3:atemp>16.0</ns3:atemp>
          </ns3:TrackPointExtension>
        </extensions>
      </trkpt>
      <trkpt lat="60.11138563044369220733642578125" lon="15.84071698598563671112060546875">
        <ele>162.600006103515625</ele>
        <time>2018-08-18T11:11:30.000Z</time>
        <extensions>
          <ns3:TrackPointExtension>
            <ns3:atemp>16.0</ns3:atemp>
          </ns3:TrackPointExtension>
        </extensions>
      </trkpt>
      <trkpt lat="60.11130650527775287628173828125" lon="15.84095369093120098114013671875">
        <ele>162.600006103515625</ele>
        <time>2018-08-18T11:11:35.000Z</time>
        <extensions>
          <ns3:TrackPointExtension>
            <ns3:atemp>16.0</ns3:atemp>
          </ns3:TrackPointExtension>
        </extensions>
      </trkpt>
      <trkpt lat="60.11117809452116489410400390625" lon="15.8413750492036342620849609375">
        <ele>162.8000030517578125</ele>
        <time>2018-08-18T11:11:41.000Z</time>
        <extensions>
          <ns3:TrackPointExtension>
            <ns3:atemp>16.0</ns3:atemp>
          </ns3:TrackPointExtension>
        </extensions>
      </trkpt>
      <trkpt lat="60.1109522022306919097900390625" lon="15.8423949591815471649169921875">
        <ele>163.1999969482421875</ele>
        <time>2018-08-18T11:11:53.000Z</time>
        <extensions>
          <ns3:TrackPointExtension>
            <ns3:atemp>16.0</ns3:atemp>
          </ns3:TrackPointExtension>
        </extensions>
      </trkpt>
      <trkpt lat="60.11074139736592769622802734375" lon="15.8428884856402873992919921875">
        <ele>163.399993896484375</ele>
        <time>2018-08-18T11:12:01.000Z</time>
        <extensions>
          <ns3:TrackPointExtension>
            <ns3:atemp>16.0</ns3:atemp>
          </ns3:TrackPointExtension>
        </extensions>
      </trkpt>
      <trkpt lat="60.11029313318431377410888671875" lon="15.843353681266307830810546875">
        <ele>163.1999969482421875</ele>
        <time>2018-08-18T11:12:11.000Z</time>
        <extensions>
          <ns3:TrackPointExtension>
            <ns3:atemp>16.0</ns3:atemp>
          </ns3:TrackPointExtension>
        </extensions>
      </trkpt>
      <trkpt lat="60.11015516705811023712158203125" lon="15.84357236512005329132080078125">
        <ele>163.1999969482421875</ele>
        <time>2018-08-18T11:12:14.000Z</time>
        <extensions>
          <ns3:TrackPointExtension>
            <ns3:atemp>16.0</ns3:atemp>
          </ns3:TrackPointExtension>
        </extensions>
      </trkpt>
      <trkpt lat="60.1100704260170459747314453125" lon="15.8437441103160381317138671875">
        <ele>163.1999969482421875</ele>
        <time>2018-08-18T11:12:16.000Z</time>
        <extensions>
          <ns3:TrackPointExtension>
            <ns3:atemp>16.0</ns3:atemp>
          </ns3:TrackPointExtension>
        </extensions>
      </trkpt>
      <trkpt lat="60.1100030355155467987060546875" lon="15.84427175112068653106689453125">
        <ele>163.399993896484375</ele>
        <time>2018-08-18T11:12:21.000Z</time>
        <extensions>
          <ns3:TrackPointExtension>
            <ns3:atemp>16.0</ns3:atemp>
          </ns3:TrackPointExtension>
        </extensions>
      </trkpt>
      <trkpt lat="60.1100791431963443756103515625" lon="15.84468414075672626495361328125">
        <ele>163.8000030517578125</ele>
        <time>2018-08-18T11:12:25.000Z</time>
        <extensions>
          <ns3:TrackPointExtension>
            <ns3:atemp>16.0</ns3:atemp>
          </ns3:TrackPointExtension>
        </extensions>
      </trkpt>
      <trkpt lat="60.11016522534191608428955078125" lon="15.84513274021446704864501953125">
        <ele>164.1999969482421875</ele>
        <time>2018-08-18T11:12:29.000Z</time>
        <extensions>
          <ns3:TrackPointExtension>
            <ns3:atemp>16.0</ns3:atemp>
          </ns3:TrackPointExtension>
        </extensions>
      </trkpt>
      <trkpt lat="60.11017897166311740875244140625" lon="15.84561176598072052001953125">
        <ele>164.600006103515625</ele>
        <time>2018-08-18T11:12:33.000Z</time>
        <extensions>
          <ns3:TrackPointExtension>
            <ns3:atemp>16.0</ns3:atemp>
          </ns3:TrackPointExtension>
        </extensions>
      </trkpt>
      <trkpt lat="60.11010554619133472442626953125" lon="15.84670216776430606842041015625">
        <ele>165.399993896484375</ele>
        <time>2018-08-18T11:12:42.000Z</time>
        <extensions>
          <ns3:TrackPointExtension>
            <ns3:atemp>16.0</ns3:atemp>
          </ns3:TrackPointExtension>
        </extensions>
      </trkpt>
      <trkpt lat="60.110083334147930145263671875" lon="15.8470556326210498809814453125">
        <ele>165.600006103515625</ele>
        <time>2018-08-18T11:12:45.000Z</time>
        <extensions>
          <ns3:TrackPointExtension>
            <ns3:atemp>16.0</ns3:atemp>
          </ns3:TrackPointExtension>
        </extensions>
      </trkpt>
      <trkpt lat="60.1099644787609577178955078125" lon="15.8476396836340427398681640625">
        <ele>166.1999969482421875</ele>
        <time>2018-08-18T11:12:51.000Z</time>
        <extensions>
          <ns3:TrackPointExtension>
            <ns3:atemp>16.0</ns3:atemp>
          </ns3:TrackPointExtension>
        </extensions>
      </trkpt>
      <trkpt lat="60.1096955873072147369384765625" lon="15.8485918678343296051025390625">
        <ele>168.399993896484375</ele>
        <time>2018-08-18T11:12:59.000Z</time>
        <extensions>
          <ns3:TrackPointExtension>
            <ns3:atemp>16.0</ns3:atemp>
          </ns3:TrackPointExtension>
        </extensions>
      </trkpt>
      <trkpt lat="60.1096821762621402740478515625" lon="15.84867677651345729827880859375">
        <ele>168.600006103515625</ele>
        <time>2018-08-18T11:13:00.000Z</time>
        <extensions>
          <ns3:TrackPointExtension>
            <ns3:atemp>16.0</ns3:atemp>
          </ns3:TrackPointExtension>
        </extensions>
      </trkpt>
      <trkpt lat="60.1095644943416118621826171875" lon="15.84941404871642589569091796875">
        <ele>169.8000030517578125</ele>
        <time>2018-08-18T11:13:12.000Z</time>
        <extensions>
          <ns3:TrackPointExtension>
            <ns3:atemp>16.0</ns3:atemp>
          </ns3:TrackPointExtension>
        </extensions>
      </trkpt>
      <trkpt lat="60.10950841940939426422119140625" lon="15.8495366759598255157470703125">
        <ele>170</ele>
        <time>2018-08-18T11:13:15.000Z</time>
        <extensions>
          <ns3:TrackPointExtension>
            <ns3:atemp>16.0</ns3:atemp>
          </ns3:TrackPointExtension>
        </extensions>
      </trkpt>
      <trkpt lat="60.109455697238445281982421875" lon="15.8496483229100704193115234375">
        <ele>170</ele>
        <time>2018-08-18T11:13:18.000Z</time>
        <extensions>
          <ns3:TrackPointExtension>
            <ns3:atemp>16.0</ns3:atemp>
          </ns3:TrackPointExtension>
        </extensions>
      </trkpt>
      <trkpt lat="60.10941110551357269287109375" lon="15.8497110195457935333251953125">
        <ele>170</ele>
        <time>2018-08-18T11:13:20.000Z</time>
        <extensions>
          <ns3:TrackPointExtension>
            <ns3:atemp>16.0</ns3:atemp>
          </ns3:TrackPointExtension>
        </extensions>
      </trkpt>
      <trkpt lat="60.1093029789626598358154296875" lon="15.8498022146522998809814453125">
        <ele>170.1999969482421875</ele>
        <time>2018-08-18T11:13:24.000Z</time>
        <extensions>
          <ns3:TrackPointExtension>
            <ns3:atemp>16.0</ns3:atemp>
          </ns3:TrackPointExtension>
        </extensions>
      </trkpt>
      <trkpt lat="60.1092178188264369964599609375" lon="15.84985904395580291748046875">
        <ele>170.1999969482421875</ele>
        <time>2018-08-18T11:13:27.000Z</time>
        <extensions>
          <ns3:TrackPointExtension>
            <ns3:atemp>16.0</ns3:atemp>
          </ns3:TrackPointExtension>
        </extensions>
      </trkpt>
      <trkpt lat="60.10903920046985149383544921875" lon="15.8499282784759998321533203125">
        <ele>170.399993896484375</ele>
        <time>2018-08-18T11:13:33.000Z</time>
        <extensions>
          <ns3:TrackPointExtension>
            <ns3:atemp>16.0</ns3:atemp>
          </ns3:TrackPointExtension>
        </extensions>
      </trkpt>
      <trkpt lat="60.10885722935199737548828125" lon="15.84987916052341461181640625">
        <ele>170.399993896484375</ele>
        <time>2018-08-18T11:13:39.000Z</time>
        <extensions>
          <ns3:TrackPointExtension>
            <ns3:atemp>16.0</ns3:atemp>
          </ns3:TrackPointExtension>
        </extensions>
      </trkpt>
      <trkpt lat="60.1087494380772113800048828125" lon="15.8497951738536357879638671875">
        <ele>170.399993896484375</ele>
        <time>2018-08-18T11:13:43.000Z</time>
        <extensions>
          <ns3:TrackPointExtension>
            <ns3:atemp>16.0</ns3:atemp>
          </ns3:TrackPointExtension>
        </extensions>
      </trkpt>
      <trkpt lat="60.10859009809792041778564453125" lon="15.8496681042015552520751953125">
        <ele>170.399993896484375</ele>
        <time>2018-08-18T11:13:49.000Z</time>
        <extensions>
          <ns3:TrackPointExtension>
            <ns3:atemp>16.0</ns3:atemp>
          </ns3:TrackPointExtension>
        </extensions>
      </trkpt>
      <trkpt lat="60.10844659991562366485595703125" lon="15.8496035635471343994140625">
        <ele>170.399993896484375</ele>
        <time>2018-08-18T11:13:55.000Z</time>
        <extensions>
          <ns3:TrackPointExtension>
            <ns3:atemp>16.0</ns3:atemp>
          </ns3:TrackPointExtension>
        </extensions>
      </trkpt>
      <trkpt lat="60.108303688466548919677734375" lon="15.8496114425361156463623046875">
        <ele>170.399993896484375</ele>
        <time>2018-08-18T11:14:01.000Z</time>
        <extensions>
          <ns3:TrackPointExtension>
            <ns3:atemp>16.0</ns3:atemp>
          </ns3:TrackPointExtension>
        </extensions>
      </trkpt>
      <trkpt lat="60.10820117779076099395751953125" lon="15.8496828563511371612548828125">
        <ele>170.600006103515625</ele>
        <time>2018-08-18T11:14:06.000Z</time>
        <extensions>
          <ns3:TrackPointExtension>
            <ns3:atemp>16.0</ns3:atemp>
          </ns3:TrackPointExtension>
        </extensions>
      </trkpt>
      <trkpt lat="60.10808517225086688995361328125" lon="15.84979056380689144134521484375">
        <ele>170.600006103515625</ele>
        <time>2018-08-18T11:14:11.000Z</time>
        <extensions>
          <ns3:TrackPointExtension>
            <ns3:atemp>16.0</ns3:atemp>
          </ns3:TrackPointExtension>
        </extensions>
      </trkpt>
      <trkpt lat="60.10786724276840686798095703125" lon="15.8499775640666484832763671875">
        <ele>170.8000030517578125</ele>
        <time>2018-08-18T11:14:19.000Z</time>
        <extensions>
          <ns3:TrackPointExtension>
            <ns3:atemp>16.0</ns3:atemp>
          </ns3:TrackPointExtension>
        </extensions>
      </trkpt>
      <trkpt lat="60.1077271811664104461669921875" lon="15.8501297794282436370849609375">
        <ele>171</ele>
        <time>2018-08-18T11:14:24.000Z</time>
        <extensions>
          <ns3:TrackPointExtension>
            <ns3:atemp>16.0</ns3:atemp>
          </ns3:TrackPointExtension>
        </extensions>
      </trkpt>
      <trkpt lat="60.1076302863657474517822265625" lon="15.85030353628098964691162109375">
        <ele>171</ele>
        <time>2018-08-18T11:14:28.000Z</time>
        <extensions>
          <ns3:TrackPointExtension>
            <ns3:atemp>16.0</ns3:atemp>
          </ns3:TrackPointExtension>
        </extensions>
      </trkpt>
      <trkpt lat="60.1075095869600772857666015625" lon="15.850704610347747802734375">
        <ele>171.1999969482421875</ele>
        <time>2018-08-18T11:14:36.000Z</time>
        <extensions>
          <ns3:TrackPointExtension>
            <ns3:atemp>16.0</ns3:atemp>
          </ns3:TrackPointExtension>
        </extensions>
      </trkpt>
      <trkpt lat="60.1074079982936382293701171875" lon="15.85132327862083911895751953125">
        <ele>171.600006103515625</ele>
        <time>2018-08-18T11:14:48.000Z</time>
        <extensions>
          <ns3:TrackPointExtension>
            <ns3:atemp>16.0</ns3:atemp>
          </ns3:TrackPointExtension>
        </extensions>
      </trkpt>
      <trkpt lat="60.10726911015808582305908203125" lon="15.85163759998977184295654296875">
        <ele>171.8000030517578125</ele>
        <time>2018-08-18T11:14:54.000Z</time>
        <extensions>
          <ns3:TrackPointExtension>
            <ns3:atemp>16.0</ns3:atemp>
          </ns3:TrackPointExtension>
        </extensions>
      </trkpt>
      <trkpt lat="60.10705553926527500152587890625" lon="15.85207563824951648712158203125">
        <ele>172</ele>
        <time>2018-08-18T11:15:01.000Z</time>
        <extensions>
          <ns3:TrackPointExtension>
            <ns3:atemp>16.0</ns3:atemp>
          </ns3:TrackPointExtension>
        </extensions>
      </trkpt>
      <trkpt lat="60.10666988790035247802734375" lon="15.8527070470154285430908203125">
        <ele>172.399993896484375</ele>
        <time>2018-08-18T11:15:11.000Z</time>
        <extensions>
          <ns3:TrackPointExtension>
            <ns3:atemp>16.0</ns3:atemp>
          </ns3:TrackPointExtension>
        </extensions>
      </trkpt>
      <trkpt lat="60.10631541721522808074951171875" lon="15.85360382683575153350830078125">
        <ele>171.8000030517578125</ele>
        <time>2018-08-18T11:15:21.000Z</time>
        <extensions>
          <ns3:TrackPointExtension>
            <ns3:atemp>16.0</ns3:atemp>
          </ns3:TrackPointExtension>
        </extensions>
      </trkpt>
      <trkpt lat="60.10623193345963954925537109375" lon="15.85399274714291095733642578125">
        <ele>171.600006103515625</ele>
        <time>2018-08-18T11:15:25.000Z</time>
        <extensions>
          <ns3:TrackPointExtension>
            <ns3:atemp>16.0</ns3:atemp>
          </ns3:TrackPointExtension>
        </extensions>
      </trkpt>
      <trkpt lat="60.1059669815003871917724609375" lon="15.854939483106136322021484375">
        <ele>171.1999969482421875</ele>
        <time>2018-08-18T11:15:36.000Z</time>
        <extensions>
          <ns3:TrackPointExtension>
            <ns3:atemp>16.0</ns3:atemp>
          </ns3:TrackPointExtension>
        </extensions>
      </trkpt>
      <trkpt lat="60.10583295486867427825927734375" lon="15.8554211072623729705810546875">
        <ele>171</ele>
        <time>2018-08-18T11:15:42.000Z</time>
        <extensions>
          <ns3:TrackPointExtension>
            <ns3:atemp>16.0</ns3:atemp>
          </ns3:TrackPointExtension>
        </extensions>
      </trkpt>
      <trkpt lat="60.10571091435849666595458984375" lon="15.8558945171535015106201171875">
        <ele>170.600006103515625</ele>
        <time>2018-08-18T11:15:48.000Z</time>
        <extensions>
          <ns3:TrackPointExtension>
            <ns3:atemp>16.0</ns3:atemp>
          </ns3:TrackPointExtension>
        </extensions>
      </trkpt>
      <trkpt lat="60.10528645478188991546630859375" lon="15.85639483295381069183349609375">
        <ele>170.399993896484375</ele>
        <time>2018-08-18T11:15:58.000Z</time>
        <extensions>
          <ns3:TrackPointExtension>
            <ns3:atemp>16.0</ns3:atemp>
          </ns3:TrackPointExtension>
        </extensions>
      </trkpt>
      <trkpt lat="60.105062909424304962158203125" lon="15.85654201917350292205810546875">
        <ele>170.1999969482421875</ele>
        <time>2018-08-18T11:16:02.000Z</time>
        <extensions>
          <ns3:TrackPointExtension>
            <ns3:atemp>16.0</ns3:atemp>
          </ns3:TrackPointExtension>
        </extensions>
      </trkpt>
      <trkpt lat="60.1046526990830898284912109375" lon="15.85733343847095966339111328125">
        <ele>169.600006103515625</ele>
        <time>2018-08-18T11:16:13.000Z</time>
        <extensions>
          <ns3:TrackPointExtension>
            <ns3:atemp>16.0</ns3:atemp>
          </ns3:TrackPointExtension>
        </extensions>
      </trkpt>
      <trkpt lat="60.10438355617225170135498046875" lon="15.85785781033337116241455078125">
        <ele>169.8000030517578125</ele>
        <time>2018-08-18T11:16:23.000Z</time>
        <extensions>
          <ns3:TrackPointExtension>
            <ns3:atemp>16.0</ns3:atemp>
          </ns3:TrackPointExtension>
        </extensions>
      </trkpt>
      <trkpt lat="60.104299820959568023681640625" lon="15.8579480834305286407470703125">
        <ele>170</ele>
        <time>2018-08-18T11:16:25.000Z</time>
        <extensions>
          <ns3:TrackPointExtension>
            <ns3:atemp>16.0</ns3:atemp>
          </ns3:TrackPointExtension>
        </extensions>
      </trkpt>
      <trkpt lat="60.1040352880954742431640625" lon="15.85822879336774349212646484375">
        <ele>170</ele>
        <time>2018-08-18T11:16:31.000Z</time>
        <extensions>
          <ns3:TrackPointExtension>
            <ns3:atemp>16.0</ns3:atemp>
          </ns3:TrackPointExtension>
        </extensions>
      </trkpt>
      <trkpt lat="60.10361510328948497772216796875" lon="15.85906329564750194549560546875">
        <ele>168.600006103515625</ele>
        <time>2018-08-18T11:16:43.000Z</time>
        <extensions>
          <ns3:TrackPointExtension>
            <ns3:atemp>16.0</ns3:atemp>
          </ns3:TrackPointExtension>
        </extensions>
      </trkpt>
      <trkpt lat="60.10357973165810108184814453125" lon="15.85915080271661281585693359375">
        <ele>168.399993896484375</ele>
        <time>2018-08-18T11:16:44.000Z</time>
        <extensions>
          <ns3:TrackPointExtension>
            <ns3:atemp>16.0</ns3:atemp>
          </ns3:TrackPointExtension>
        </extensions>
      </trkpt>
      <trkpt lat="60.1033129356801509857177734375" lon="15.86018345318734645843505859375">
        <ele>167.399993896484375</ele>
        <time>2018-08-18T11:16:55.000Z</time>
        <extensions>
          <ns3:TrackPointExtension>
            <ns3:atemp>16.0</ns3:atemp>
          </ns3:TrackPointExtension>
        </extensions>
      </trkpt>
      <trkpt lat="60.10299794375896453857421875" lon="15.86062367074191570281982421875">
        <ele>166.8000030517578125</ele>
        <time>2018-08-18T11:17:01.000Z</time>
        <extensions>
          <ns3:TrackPointExtension>
            <ns3:atemp>16.0</ns3:atemp>
          </ns3:TrackPointExtension>
        </extensions>
      </trkpt>
      <trkpt lat="60.10270918719470500946044921875" lon="15.86084830574691295623779296875">
        <ele>166.399993896484375</ele>
        <time>2018-08-18T11:17:05.000Z</time>
        <extensions>
          <ns3:TrackPointExtension>
            <ns3:atemp>16.0</ns3:atemp>
          </ns3:TrackPointExtension>
        </extensions>
      </trkpt>
      <trkpt lat="60.1024868153035640716552734375" lon="15.861007981002330780029296875">
        <ele>166.1999969482421875</ele>
        <time>2018-08-18T11:17:08.000Z</time>
        <extensions>
          <ns3:TrackPointExtension>
            <ns3:atemp>16.0</ns3:atemp>
          </ns3:TrackPointExtension>
        </extensions>
      </trkpt>
      <trkpt lat="60.10224516503512859344482421875" lon="15.86112189106643199920654296875">
        <ele>165.8000030517578125</ele>
        <time>2018-08-18T11:17:11.000Z</time>
        <extensions>
          <ns3:TrackPointExtension>
            <ns3:atemp>16.0</ns3:atemp>
          </ns3:TrackPointExtension>
        </extensions>
      </trkpt>
      <trkpt lat="60.10216771624982357025146484375" lon="15.8611744455993175506591796875">
        <ele>165.8000030517578125</ele>
        <time>2018-08-18T11:17:12.000Z</time>
        <extensions>
          <ns3:TrackPointExtension>
            <ns3:atemp>16.0</ns3:atemp>
          </ns3:TrackPointExtension>
        </extensions>
      </trkpt>
      <trkpt lat="60.1020321808755397796630859375" lon="15.86133747361600399017333984375">
        <ele>165.600006103515625</ele>
        <time>2018-08-18T11:17:14.000Z</time>
        <extensions>
          <ns3:TrackPointExtension>
            <ns3:atemp>16.0</ns3:atemp>
          </ns3:TrackPointExtension>
        </extensions>
      </trkpt>
      <trkpt lat="60.1018678955733776092529296875" lon="15.86176696233451366424560546875">
        <ele>165.1999969482421875</ele>
        <time>2018-08-18T11:17:18.000Z</time>
        <extensions>
          <ns3:TrackPointExtension>
            <ns3:atemp>16.0</ns3:atemp>
          </ns3:TrackPointExtension>
        </extensions>
      </trkpt>
      <trkpt lat="60.10164652951061725616455078125" lon="15.862644799053668975830078125">
        <ele>164.399993896484375</ele>
        <time>2018-08-18T11:17:32.000Z</time>
        <extensions>
          <ns3:TrackPointExtension>
            <ns3:atemp>16.0</ns3:atemp>
          </ns3:TrackPointExtension>
        </extensions>
      </trkpt>
      <trkpt lat="60.101620294153690338134765625" lon="15.8627866208553314208984375">
        <ele>164.399993896484375</ele>
        <time>2018-08-18T11:17:35.000Z</time>
        <extensions>
          <ns3:TrackPointExtension>
            <ns3:atemp>16.0</ns3:atemp>
          </ns3:TrackPointExtension>
        </extensions>
      </trkpt>
      <trkpt lat="60.10160177014768123626708984375" lon="15.86291461251676082611083984375">
        <ele>164.1999969482421875</ele>
        <time>2018-08-18T11:17:38.000Z</time>
        <extensions>
          <ns3:TrackPointExtension>
            <ns3:atemp>16.0</ns3:atemp>
          </ns3:TrackPointExtension>
        </extensions>
      </trkpt>
      <trkpt lat="60.1015825755894184112548828125" lon="15.86306490004062652587890625">
        <ele>164.1999969482421875</ele>
        <time>2018-08-18T11:17:41.000Z</time>
        <extensions>
          <ns3:TrackPointExtension>
            <ns3:atemp>16.0</ns3:atemp>
          </ns3:TrackPointExtension>
        </extensions>
      </trkpt>
      <trkpt lat="60.101559944450855255126953125" lon="15.8632385730743408203125">
        <ele>164</ele>
        <time>2018-08-18T11:17:44.000Z</time>
        <extensions>
          <ns3:TrackPointExtension>
            <ns3:atemp>16.0</ns3:atemp>
          </ns3:TrackPointExtension>
        </extensions>
      </trkpt>
      <trkpt lat="60.1015366427600383758544921875" lon="15.86341920308768749237060546875">
        <ele>164</ele>
        <time>2018-08-18T11:17:47.000Z</time>
        <extensions>
          <ns3:TrackPointExtension>
            <ns3:atemp>16.0</ns3:atemp>
          </ns3:TrackPointExtension>
        </extensions>
      </trkpt>
      <trkpt lat="60.1014635525643825531005859375" lon="15.86391407065093517303466796875">
        <ele>163.600006103515625</ele>
        <time>2018-08-18T11:17:56.000Z</time>
        <extensions>
          <ns3:TrackPointExtension>
            <ns3:atemp>16.0</ns3:atemp>
          </ns3:TrackPointExtension>
        </extensions>
      </trkpt>
      <trkpt lat="60.1014360599219799041748046875" lon="15.86420257575809955596923828125">
        <ele>163.399993896484375</ele>
        <time>2018-08-18T11:18:02.000Z</time>
        <extensions>
          <ns3:TrackPointExtension>
            <ns3:atemp>16.0</ns3:atemp>
          </ns3:TrackPointExtension>
        </extensions>
      </trkpt>
      <trkpt lat="60.1014766283333301544189453125" lon="15.86449451744556427001953125">
        <ele>163.399993896484375</ele>
        <time>2018-08-18T11:18:07.000Z</time>
        <extensions>
          <ns3:TrackPointExtension>
            <ns3:atemp>16.0</ns3:atemp>
          </ns3:TrackPointExtension>
        </extensions>
      </trkpt>
      <trkpt lat="60.1015812344849109649658203125" lon="15.86484991014003753662109375">
        <ele>163.1999969482421875</ele>
        <time>2018-08-18T11:18:13.000Z</time>
        <extensions>
          <ns3:TrackPointExtension>
            <ns3:atemp>16.0</ns3:atemp>
          </ns3:TrackPointExtension>
        </extensions>
      </trkpt>
      <trkpt lat="60.10181902907788753509521484375" lon="15.86582547985017299652099609375">
        <ele>163</ele>
        <time>2018-08-18T11:18:28.000Z</time>
        <extensions>
          <ns3:TrackPointExtension>
            <ns3:atemp>16.0</ns3:atemp>
          </ns3:TrackPointExtension>
        </extensions>
      </trkpt>
      <trkpt lat="60.10180528275668621063232421875" lon="15.86612085811793804168701171875">
        <ele>163</ele>
        <time>2018-08-18T11:18:33.000Z</time>
        <extensions>
          <ns3:TrackPointExtension>
            <ns3:atemp>16.0</ns3:atemp>
          </ns3:TrackPointExtension>
        </extensions>
      </trkpt>
      <trkpt lat="60.10176538489758968353271484375" lon="15.86646250449120998382568359375">
        <ele>162.8000030517578125</ele>
        <time>2018-08-18T11:18:40.000Z</time>
        <extensions>
          <ns3:TrackPointExtension>
            <ns3:atemp>16.0</ns3:atemp>
          </ns3:TrackPointExtension>
        </extensions>
      </trkpt>
      <trkpt lat="60.10177225805819034576416015625" lon="15.8667410351336002349853515625">
        <ele>162.600006103515625</ele>
        <time>2018-08-18T11:18:44.000Z</time>
        <extensions>
          <ns3:TrackPointExtension>
            <ns3:atemp>16.0</ns3:atemp>
          </ns3:TrackPointExtension>
        </extensions>
      </trkpt>
      <trkpt lat="60.10178416036069393157958984375" lon="15.86689266376197338104248046875">
        <ele>162.600006103515625</ele>
        <time>2018-08-18T11:18:46.000Z</time>
        <extensions>
          <ns3:TrackPointExtension>
            <ns3:atemp>16.0</ns3:atemp>
          </ns3:TrackPointExtension>
        </extensions>
      </trkpt>
      <trkpt lat="60.1017746888101100921630859375" lon="15.86801315657794475555419921875">
        <ele>162</ele>
        <time>2018-08-18T11:18:59.000Z</time>
        <extensions>
          <ns3:TrackPointExtension>
            <ns3:atemp>15.0</ns3:atemp>
          </ns3:TrackPointExtension>
        </extensions>
      </trkpt>
      <trkpt lat="60.10164351202547550201416015625" lon="15.8689261972904205322265625">
        <ele>161.399993896484375</ele>
        <time>2018-08-18T11:19:06.000Z</time>
        <extensions>
          <ns3:TrackPointExtension>
            <ns3:atemp>15.0</ns3:atemp>
          </ns3:TrackPointExtension>
        </extensions>
      </trkpt>
      <trkpt lat="60.10158651508390903472900390625" lon="15.8691300451755523681640625">
        <ele>161.399993896484375</ele>
        <time>2018-08-18T11:19:08.000Z</time>
        <extensions>
          <ns3:TrackPointExtension>
            <ns3:atemp>15.0</ns3:atemp>
          </ns3:TrackPointExtension>
        </extensions>
      </trkpt>
      <trkpt lat="60.10155701078474521636962890625" lon="15.86921679787337779998779296875">
        <ele>161.1999969482421875</ele>
        <time>2018-08-18T11:19:09.000Z</time>
        <extensions>
          <ns3:TrackPointExtension>
            <ns3:atemp>15.0</ns3:atemp>
          </ns3:TrackPointExtension>
        </extensions>
      </trkpt>
      <trkpt lat="60.1011862792074680328369140625" lon="15.87000251747667789459228515625">
        <ele>160.600006103515625</ele>
        <time>2018-08-18T11:19:21.000Z</time>
        <extensions>
          <ns3:TrackPointExtension>
            <ns3:atemp>15.0</ns3:atemp>
          </ns3:TrackPointExtension>
        </extensions>
      </trkpt>
      <trkpt lat="60.1007621549069881439208984375" lon="15.87083668448030948638916015625">
        <ele>160</ele>
        <time>2018-08-18T11:19:30.000Z</time>
        <extensions>
          <ns3:TrackPointExtension>
            <ns3:atemp>15.0</ns3:atemp>
          </ns3:TrackPointExtension>
        </extensions>
      </trkpt>
      <trkpt lat="60.10046535171568393707275390625" lon="15.87131059728562831878662109375">
        <ele>159.600006103515625</ele>
        <time>2018-08-18T11:19:35.000Z</time>
        <extensions>
          <ns3:TrackPointExtension>
            <ns3:atemp>15.0</ns3:atemp>
          </ns3:TrackPointExtension>
        </extensions>
      </trkpt>
      <trkpt lat="60.10025882162153720855712890625" lon="15.87154495529830455780029296875">
        <ele>159</ele>
        <time>2018-08-18T11:19:38.000Z</time>
        <extensions>
          <ns3:TrackPointExtension>
            <ns3:atemp>15.0</ns3:atemp>
          </ns3:TrackPointExtension>
        </extensions>
      </trkpt>
      <trkpt lat="60.099885575473308563232421875" lon="15.87180026806890964508056640625">
        <ele>158</ele>
        <time>2018-08-18T11:19:43.000Z</time>
        <extensions>
          <ns3:TrackPointExtension>
            <ns3:atemp>15.0</ns3:atemp>
          </ns3:TrackPointExtension>
        </extensions>
      </trkpt>
      <trkpt lat="60.09973210282623767852783203125" lon="15.87188509292900562286376953125">
        <ele>157.600006103515625</ele>
        <time>2018-08-18T11:19:45.000Z</time>
        <extensions>
          <ns3:TrackPointExtension>
            <ns3:atemp>15.0</ns3:atemp>
          </ns3:TrackPointExtension>
        </extensions>
      </trkpt>
      <trkpt lat="60.0995078869163990020751953125" lon="15.8720189519226551055908203125">
        <ele>157</ele>
        <time>2018-08-18T11:19:48.000Z</time>
        <extensions>
          <ns3:TrackPointExtension>
            <ns3:atemp>15.0</ns3:atemp>
          </ns3:TrackPointExtension>
        </extensions>
      </trkpt>
      <trkpt lat="60.09943907149136066436767578125" lon="15.87208458222448825836181640625">
        <ele>156.8000030517578125</ele>
        <time>2018-08-18T11:19:49.000Z</time>
        <extensions>
          <ns3:TrackPointExtension>
            <ns3:atemp>15.0</ns3:atemp>
          </ns3:TrackPointExtension>
        </extensions>
      </trkpt>
      <trkpt lat="60.09935189969837665557861328125" lon="15.872297398746013641357421875">
        <ele>156.399993896484375</ele>
        <time>2018-08-18T11:19:51.000Z</time>
        <extensions>
          <ns3:TrackPointExtension>
            <ns3:atemp>15.0</ns3:atemp>
          </ns3:TrackPointExtension>
        </extensions>
      </trkpt>
      <trkpt lat="60.0993318669497966766357421875" lon="15.8726978860795497894287109375">
        <ele>155.8000030517578125</ele>
        <time>2018-08-18T11:19:54.000Z</time>
        <extensions>
          <ns3:TrackPointExtension>
            <ns3:atemp>15.0</ns3:atemp>
          </ns3:TrackPointExtension>
        </extensions>
      </trkpt>
      <trkpt lat="60.099335052073001861572265625" lon="15.8728433959186077117919921875">
        <ele>155.600006103515625</ele>
        <time>2018-08-18T11:19:55.000Z</time>
        <extensions>
          <ns3:TrackPointExtension>
            <ns3:atemp>15.0</ns3:atemp>
          </ns3:TrackPointExtension>
        </extensions>
      </trkpt>
      <trkpt lat="60.099307559430599212646484375" lon="15.87330649606883525848388671875">
        <ele>154.8000030517578125</ele>
        <time>2018-08-18T11:19:58.000Z</time>
        <extensions>
          <ns3:TrackPointExtension>
            <ns3:atemp>15.0</ns3:atemp>
          </ns3:TrackPointExtension>
        </extensions>
      </trkpt>
      <trkpt lat="60.09912307374179363250732421875" lon="15.87407293729484081268310546875">
        <ele>153.600006103515625</ele>
        <time>2018-08-18T11:20:03.000Z</time>
        <extensions>
          <ns3:TrackPointExtension>
            <ns3:atemp>15.0</ns3:atemp>
          </ns3:TrackPointExtension>
        </extensions>
      </trkpt>
      <trkpt lat="60.09903606958687305450439453125" lon="15.874575264751911163330078125">
        <ele>152.1999969482421875</ele>
        <time>2018-08-18T11:20:06.000Z</time>
        <extensions>
          <ns3:TrackPointExtension>
            <ns3:atemp>15.0</ns3:atemp>
          </ns3:TrackPointExtension>
        </extensions>
      </trkpt>
      <trkpt lat="60.09893313981592655181884765625" lon="15.87507423944771289825439453125">
        <ele>150.8000030517578125</ele>
        <time>2018-08-18T11:20:09.000Z</time>
        <extensions>
          <ns3:TrackPointExtension>
            <ns3:atemp>15.0</ns3:atemp>
          </ns3:TrackPointExtension>
        </extensions>
      </trkpt>
      <trkpt lat="60.09888385422527790069580078125" lon="15.875227712094783782958984375">
        <ele>150.399993896484375</ele>
        <time>2018-08-18T11:20:10.000Z</time>
        <extensions>
          <ns3:TrackPointExtension>
            <ns3:atemp>15.0</ns3:atemp>
          </ns3:TrackPointExtension>
        </extensions>
      </trkpt>
      <trkpt lat="60.0987756438553333282470703125" lon="15.87551160715520381927490234375">
        <ele>149.600006103515625</ele>
        <time>2018-08-18T11:20:12.000Z</time>
        <extensions>
          <ns3:TrackPointExtension>
            <ns3:atemp>15.0</ns3:atemp>
          </ns3:TrackPointExtension>
        </extensions>
      </trkpt>
      <trkpt lat="60.0986549444496631622314453125" lon="15.87577362544834613800048828125">
        <ele>148.8000030517578125</ele>
        <time>2018-08-18T11:20:14.000Z</time>
        <extensions>
          <ns3:TrackPointExtension>
            <ns3:atemp>15.0</ns3:atemp>
          </ns3:TrackPointExtension>
        </extensions>
      </trkpt>
      <trkpt lat="60.098524354398250579833984375" lon="15.87602399289608001708984375">
        <ele>148</ele>
        <time>2018-08-18T11:20:16.000Z</time>
        <extensions>
          <ns3:TrackPointExtension>
            <ns3:atemp>15.0</ns3:atemp>
          </ns3:TrackPointExtension>
        </extensions>
      </trkpt>
      <trkpt lat="60.098315142095088958740234375" lon="15.876368321478366851806640625">
        <ele>146.8000030517578125</ele>
        <time>2018-08-18T11:20:19.000Z</time>
        <extensions>
          <ns3:TrackPointExtension>
            <ns3:atemp>15.0</ns3:atemp>
          </ns3:TrackPointExtension>
        </extensions>
      </trkpt>
      <trkpt lat="60.0980846397578716278076171875" lon="15.87667635641992092132568359375">
        <ele>145.8000030517578125</ele>
        <time>2018-08-18T11:20:22.000Z</time>
        <extensions>
          <ns3:TrackPointExtension>
            <ns3:atemp>15.0</ns3:atemp>
          </ns3:TrackPointExtension>
        </extensions>
      </trkpt>
      <trkpt lat="60.09786645881831645965576171875" lon="15.87703124620020389556884765625">
        <ele>144.600006103515625</ele>
        <time>2018-08-18T11:20:25.000Z</time>
        <extensions>
          <ns3:TrackPointExtension>
            <ns3:atemp>15.0</ns3:atemp>
          </ns3:TrackPointExtension>
        </extensions>
      </trkpt>
      <trkpt lat="60.09780594147741794586181640625" lon="15.8771687932312488555908203125">
        <ele>144.399993896484375</ele>
        <time>2018-08-18T11:20:26.000Z</time>
        <extensions>
          <ns3:TrackPointExtension>
            <ns3:atemp>15.0</ns3:atemp>
          </ns3:TrackPointExtension>
        </extensions>
      </trkpt>
      <trkpt lat="60.0976900197565555572509765625" lon="15.8774567954242229461669921875">
        <ele>143.8000030517578125</ele>
        <time>2018-08-18T11:20:28.000Z</time>
        <extensions>
          <ns3:TrackPointExtension>
            <ns3:atemp>15.0</ns3:atemp>
          </ns3:TrackPointExtension>
        </extensions>
      </trkpt>
      <trkpt lat="60.09747485630214214324951171875" lon="15.87773121893405914306640625">
        <ele>143.399993896484375</ele>
        <time>2018-08-18T11:20:31.000Z</time>
        <extensions>
          <ns3:TrackPointExtension>
            <ns3:atemp>15.0</ns3:atemp>
          </ns3:TrackPointExtension>
        </extensions>
      </trkpt>
      <trkpt lat="60.09732314385473728179931640625" lon="15.877791233360767364501953125">
        <ele>143.1999969482421875</ele>
        <time>2018-08-18T11:20:33.000Z</time>
        <extensions>
          <ns3:TrackPointExtension>
            <ns3:atemp>15.0</ns3:atemp>
          </ns3:TrackPointExtension>
        </extensions>
      </trkpt>
      <trkpt lat="60.0972474552690982818603515625" lon="15.8777997829020023345947265625">
        <ele>143</ele>
        <time>2018-08-18T11:20:34.000Z</time>
        <extensions>
          <ns3:TrackPointExtension>
            <ns3:atemp>15.0</ns3:atemp>
          </ns3:TrackPointExtension>
        </extensions>
      </trkpt>
      <trkpt lat="60.09717218577861785888671875" lon="15.877805985510349273681640625">
        <ele>143</ele>
        <time>2018-08-18T11:20:35.000Z</time>
        <extensions>
          <ns3:TrackPointExtension>
            <ns3:atemp>15.0</ns3:atemp>
          </ns3:TrackPointExtension>
        </extensions>
      </trkpt>
      <trkpt lat="60.09702575393021106719970703125" lon="15.877854935824871063232421875">
        <ele>142.8000030517578125</ele>
        <time>2018-08-18T11:20:37.000Z</time>
        <extensions>
          <ns3:TrackPointExtension>
            <ns3:atemp>15.0</ns3:atemp>
          </ns3:TrackPointExtension>
        </extensions>
      </trkpt>
      <trkpt lat="60.09674009867012500762939453125" lon="15.87811167351901531219482421875">
        <ele>142.399993896484375</ele>
        <time>2018-08-18T11:20:41.000Z</time>
        <extensions>
          <ns3:TrackPointExtension>
            <ns3:atemp>15.0</ns3:atemp>
          </ns3:TrackPointExtension>
        </extensions>
      </trkpt>
      <trkpt lat="60.09645025245845317840576171875" lon="15.87844007648527622222900390625">
        <ele>141.600006103515625</ele>
        <time>2018-08-18T11:20:45.000Z</time>
        <extensions>
          <ns3:TrackPointExtension>
            <ns3:atemp>15.0</ns3:atemp>
          </ns3:TrackPointExtension>
        </extensions>
      </trkpt>
      <trkpt lat="60.09633558802306652069091796875" lon="15.8786728419363498687744140625">
        <ele>141.1999969482421875</ele>
        <time>2018-08-18T11:20:47.000Z</time>
        <extensions>
          <ns3:TrackPointExtension>
            <ns3:atemp>15.0</ns3:atemp>
          </ns3:TrackPointExtension>
        </extensions>
      </trkpt>
      <trkpt lat="60.0962070934474468231201171875" lon="15.87910492904484272003173828125">
        <ele>140.600006103515625</ele>
        <time>2018-08-18T11:20:50.000Z</time>
        <extensions>
          <ns3:TrackPointExtension>
            <ns3:atemp>15.0</ns3:atemp>
          </ns3:TrackPointExtension>
        </extensions>
      </trkpt>
      <trkpt lat="60.096070803701877593994140625" lon="15.8794858865439891815185546875">
        <ele>140</ele>
        <time>2018-08-18T11:20:53.000Z</time>
        <extensions>
          <ns3:TrackPointExtension>
            <ns3:atemp>15.0</ns3:atemp>
          </ns3:TrackPointExtension>
        </extensions>
      </trkpt>
      <trkpt lat="60.09591967798769474029541015625" lon="15.8797829411923885345458984375">
        <ele>139.399993896484375</ele>
        <time>2018-08-18T11:20:56.000Z</time>
        <extensions>
          <ns3:TrackPointExtension>
            <ns3:atemp>15.0</ns3:atemp>
          </ns3:TrackPointExtension>
        </extensions>
      </trkpt>
      <trkpt lat="60.09564139880239963531494140625" lon="15.88028761558234691619873046875">
        <ele>138.600006103515625</ele>
        <time>2018-08-18T11:21:01.000Z</time>
        <extensions>
          <ns3:TrackPointExtension>
            <ns3:atemp>15.0</ns3:atemp>
          </ns3:TrackPointExtension>
        </extensions>
      </trkpt>
      <trkpt lat="60.09538776241242885589599609375" lon="15.8805084787309169769287109375">
        <ele>138</ele>
        <time>2018-08-18T11:21:05.000Z</time>
        <extensions>
          <ns3:TrackPointExtension>
            <ns3:atemp>15.0</ns3:atemp>
          </ns3:TrackPointExtension>
        </extensions>
      </trkpt>
      <trkpt lat="60.09524795226752758026123046875" lon="15.88055399246513843536376953125">
        <ele>138</ele>
        <time>2018-08-18T11:21:07.000Z</time>
        <extensions>
          <ns3:TrackPointExtension>
            <ns3:atemp>15.0</ns3:atemp>
          </ns3:TrackPointExtension>
        </extensions>
      </trkpt>
      <trkpt lat="60.09517469443380832672119140625" lon="15.88057729415595531463623046875">
        <ele>137.8000030517578125</ele>
        <time>2018-08-18T11:21:08.000Z</time>
        <extensions>
          <ns3:TrackPointExtension>
            <ns3:atemp>15.0</ns3:atemp>
          </ns3:TrackPointExtension>
        </extensions>
      </trkpt>
      <trkpt lat="60.09495961479842662811279296875" lon="15.8806771226227283477783203125">
        <ele>137.600006103515625</ele>
        <time>2018-08-18T11:21:11.000Z</time>
        <extensions>
          <ns3:TrackPointExtension>
            <ns3:atemp>15.0</ns3:atemp>
          </ns3:TrackPointExtension>
        </extensions>
      </trkpt>
      <trkpt lat="60.0947566889226436614990234375" lon="15.8808015100657939910888671875">
        <ele>137.1999969482421875</ele>
        <time>2018-08-18T11:21:14.000Z</time>
        <extensions>
          <ns3:TrackPointExtension>
            <ns3:atemp>15.0</ns3:atemp>
          </ns3:TrackPointExtension>
        </extensions>
      </trkpt>
      <trkpt lat="60.09424296207726001739501953125" lon="15.88133082725107669830322265625">
        <ele>135.8000030517578125</ele>
        <time>2018-08-18T11:21:23.000Z</time>
        <extensions>
          <ns3:TrackPointExtension>
            <ns3:atemp>15.0</ns3:atemp>
          </ns3:TrackPointExtension>
        </extensions>
      </trkpt>
      <trkpt lat="60.09420457296073436737060546875" lon="15.8814140595495700836181640625">
        <ele>135.600006103515625</ele>
        <time>2018-08-18T11:21:24.000Z</time>
        <extensions>
          <ns3:TrackPointExtension>
            <ns3:atemp>15.0</ns3:atemp>
          </ns3:TrackPointExtension>
        </extensions>
      </trkpt>
      <trkpt lat="60.0940676964819431304931640625" lon="15.881992913782596588134765625">
        <ele>135</ele>
        <time>2018-08-18T11:21:30.000Z</time>
        <extensions>
          <ns3:TrackPointExtension>
            <ns3:atemp>15.0</ns3:atemp>
          </ns3:TrackPointExtension>
        </extensions>
      </trkpt>
      <trkpt lat="60.09406509809195995330810546875" lon="15.88209877721965312957763671875">
        <ele>134.8000030517578125</ele>
        <time>2018-08-18T11:21:31.000Z</time>
        <extensions>
          <ns3:TrackPointExtension>
            <ns3:atemp>15.0</ns3:atemp>
          </ns3:TrackPointExtension>
        </extensions>
      </trkpt>
      <trkpt lat="60.09404397569596767425537109375" lon="15.88287477381527423858642578125">
        <ele>134.1999969482421875</ele>
        <time>2018-08-18T11:21:38.000Z</time>
        <extensions>
          <ns3:TrackPointExtension>
            <ns3:atemp>15.0</ns3:atemp>
          </ns3:TrackPointExtension>
        </extensions>
      </trkpt>
      <trkpt lat="60.09380333125591278076171875" lon="15.883491933345794677734375">
        <ele>133.8000030517578125</ele>
        <time>2018-08-18T11:21:45.000Z</time>
        <extensions>
          <ns3:TrackPointExtension>
            <ns3:atemp>15.0</ns3:atemp>
          </ns3:TrackPointExtension>
        </extensions>
      </trkpt>
      <trkpt lat="60.09352630935609340667724609375" lon="15.88398001156747341156005859375">
        <ele>133.399993896484375</ele>
        <time>2018-08-18T11:21:55.000Z</time>
        <extensions>
          <ns3:TrackPointExtension>
            <ns3:atemp>15.0</ns3:atemp>
          </ns3:TrackPointExtension>
        </extensions>
      </trkpt>
      <trkpt lat="60.09344282560050487518310546875" lon="15.88421344757080078125">
        <ele>133.1999969482421875</ele>
        <time>2018-08-18T11:21:59.000Z</time>
        <extensions>
          <ns3:TrackPointExtension>
            <ns3:atemp>15.0</ns3:atemp>
          </ns3:TrackPointExtension>
        </extensions>
      </trkpt>
      <trkpt lat="60.09336722083389759063720703125" lon="15.88450689800083637237548828125">
        <ele>133</ele>
        <time>2018-08-18T11:22:03.000Z</time>
        <extensions>
          <ns3:TrackPointExtension>
            <ns3:atemp>15.0</ns3:atemp>
          </ns3:TrackPointExtension>
        </extensions>
      </trkpt>
      <trkpt lat="60.09334827773272991180419921875" lon="15.88459658436477184295654296875">
        <ele>133</ele>
        <time>2018-08-18T11:22:04.000Z</time>
        <extensions>
          <ns3:TrackPointExtension>
            <ns3:atemp>15.0</ns3:atemp>
          </ns3:TrackPointExtension>
        </extensions>
      </trkpt>
      <trkpt lat="60.0932761095464229583740234375" lon="15.88524970225989818572998046875">
        <ele>132.600006103515625</ele>
        <time>2018-08-18T11:22:10.000Z</time>
        <extensions>
          <ns3:TrackPointExtension>
            <ns3:atemp>15.0</ns3:atemp>
          </ns3:TrackPointExtension>
        </extensions>
      </trkpt>
      <trkpt lat="60.0932536460459232330322265625" lon="15.8863469772040843963623046875">
        <ele>131.8000030517578125</ele>
        <time>2018-08-18T11:22:17.000Z</time>
        <extensions>
          <ns3:TrackPointExtension>
            <ns3:atemp>15.0</ns3:atemp>
          </ns3:TrackPointExtension>
        </extensions>
      </trkpt>
      <trkpt lat="60.0932036899030208587646484375" lon="15.88708341121673583984375">
        <ele>131.399993896484375</ele>
        <time>2018-08-18T11:22:21.000Z</time>
        <extensions>
          <ns3:TrackPointExtension>
            <ns3:atemp>15.0</ns3:atemp>
          </ns3:TrackPointExtension>
        </extensions>
      </trkpt>
      <trkpt lat="60.09323311038315296173095703125" lon="15.88741525076329708099365234375">
        <ele>131.1999969482421875</ele>
        <time>2018-08-18T11:22:23.000Z</time>
        <extensions>
          <ns3:TrackPointExtension>
            <ns3:atemp>15.0</ns3:atemp>
          </ns3:TrackPointExtension>
        </extensions>
      </trkpt>
      <trkpt lat="60.09328943677246570587158203125" lon="15.8877309970557689666748046875">
        <ele>131</ele>
        <time>2018-08-18T11:22:25.000Z</time>
        <extensions>
          <ns3:TrackPointExtension>
            <ns3:atemp>15.0</ns3:atemp>
          </ns3:TrackPointExtension>
        </extensions>
      </trkpt>
      <trkpt lat="60.0933331064879894256591796875" lon="15.88805344887077808380126953125">
        <ele>130.8000030517578125</ele>
        <time>2018-08-18T11:22:27.000Z</time>
        <extensions>
          <ns3:TrackPointExtension>
            <ns3:atemp>15.0</ns3:atemp>
          </ns3:TrackPointExtension>
        </extensions>
      </trkpt>
      <trkpt lat="60.09334324859082698822021484375" lon="15.8882194943726062774658203125">
        <ele>130.8000030517578125</ele>
        <time>2018-08-18T11:22:28.000Z</time>
        <extensions>
          <ns3:TrackPointExtension>
            <ns3:atemp>15.0</ns3:atemp>
          </ns3:TrackPointExtension>
        </extensions>
      </trkpt>
      <trkpt lat="60.093330927193164825439453125" lon="15.88899875991046428680419921875">
        <ele>130.1999969482421875</ele>
        <time>2018-08-18T11:22:33.000Z</time>
        <extensions>
          <ns3:TrackPointExtension>
            <ns3:atemp>15.0</ns3:atemp>
          </ns3:TrackPointExtension>
        </extensions>
      </trkpt>
      <trkpt lat="60.0933082960546016693115234375" lon="15.889267735183238983154296875">
        <ele>130</ele>
        <time>2018-08-18T11:22:35.000Z</time>
        <extensions>
          <ns3:TrackPointExtension>
            <ns3:atemp>15.0</ns3:atemp>
          </ns3:TrackPointExtension>
        </extensions>
      </trkpt>
      <trkpt lat="60.09325875900685787200927734375" lon="15.88966327719390392303466796875">
        <ele>129.399993896484375</ele>
        <time>2018-08-18T11:22:38.000Z</time>
        <extensions>
          <ns3:TrackPointExtension>
            <ns3:atemp>15.0</ns3:atemp>
          </ns3:TrackPointExtension>
        </extensions>
      </trkpt>
      <trkpt lat="60.09320142678916454315185546875" lon="15.890808664262294769287109375">
        <ele>127.59999847412109375</ele>
        <time>2018-08-18T11:22:46.000Z</time>
        <extensions>
          <ns3:TrackPointExtension>
            <ns3:atemp>15.0</ns3:atemp>
          </ns3:TrackPointExtension>
        </extensions>
      </trkpt>
      <trkpt lat="60.0931108184158802032470703125" lon="15.891404449939727783203125">
        <ele>127.8000030517578125</ele>
        <time>2018-08-18T11:22:50.000Z</time>
        <extensions>
          <ns3:TrackPointExtension>
            <ns3:atemp>15.0</ns3:atemp>
          </ns3:TrackPointExtension>
        </extensions>
      </trkpt>
      <trkpt lat="60.09305189363658428192138671875" lon="15.8916466869413852691650390625">
        <ele>127.8000030517578125</ele>
        <time>2018-08-18T11:22:52.000Z</time>
        <extensions>
          <ns3:TrackPointExtension>
            <ns3:atemp>15.0</ns3:atemp>
          </ns3:TrackPointExtension>
        </extensions>
      </trkpt>
      <trkpt lat="60.09301786310970783233642578125" lon="15.89174986816942691802978515625">
        <ele>127.8000030517578125</ele>
        <time>2018-08-18T11:22:53.000Z</time>
        <extensions>
          <ns3:TrackPointExtension>
            <ns3:atemp>15.0</ns3:atemp>
          </ns3:TrackPointExtension>
        </extensions>
      </trkpt>
      <trkpt lat="60.09294913150370121002197265625" lon="15.8920044265687465667724609375">
        <ele>127.8000030517578125</ele>
        <time>2018-08-18T11:22:57.000Z</time>
        <extensions>
          <ns3:TrackPointExtension>
            <ns3:atemp>15.0</ns3:atemp>
          </ns3:TrackPointExtension>
        </extensions>
      </trkpt>
      <trkpt lat="60.09301618672907352447509765625" lon="15.89206653647124767303466796875">
        <ele>128</ele>
        <time>2018-08-18T11:23:00.000Z</time>
        <extensions>
          <ns3:TrackPointExtension>
            <ns3:atemp>15.0</ns3:atemp>
          </ns3:TrackPointExtension>
        </extensions>
      </trkpt>
      <trkpt lat="60.093072094023227691650390625" lon="15.89203502051532268524169921875">
        <ele>128</ele>
        <time>2018-08-18T11:23:02.000Z</time>
        <extensions>
          <ns3:TrackPointExtension>
            <ns3:atemp>15.0</ns3:atemp>
          </ns3:TrackPointExtension>
        </extensions>
      </trkpt>
      <trkpt lat="60.0931078009307384490966796875" lon="15.89201691560447216033935546875">
        <ele>128</ele>
        <time>2018-08-18T11:23:03.000Z</time>
        <extensions>
          <ns3:TrackPointExtension>
            <ns3:atemp>15.0</ns3:atemp>
          </ns3:TrackPointExtension>
        </extensions>
      </trkpt>
      <trkpt lat="60.09349244646728038787841796875" lon="15.8917905203998088836669921875">
        <ele>128.399993896484375</ele>
        <time>2018-08-18T11:23:11.000Z</time>
        <extensions>
          <ns3:TrackPointExtension>
            <ns3:atemp>15.0</ns3:atemp>
          </ns3:TrackPointExtension>
        </extensions>
      </trkpt>
      <trkpt lat="60.09364969097077846527099609375" lon="15.8917221240699291229248046875">
        <ele>128.600006103515625</ele>
        <time>2018-08-18T11:23:14.000Z</time>
        <extensions>
          <ns3:TrackPointExtension>
            <ns3:atemp>15.0</ns3:atemp>
          </ns3:TrackPointExtension>
        </extensions>
      </trkpt>
      <trkpt lat="60.0942318141460418701171875" lon="15.8916725032031536102294921875">
        <ele>129.399993896484375</ele>
        <time>2018-08-18T11:23:26.000Z</time>
        <extensions>
          <ns3:TrackPointExtension>
            <ns3:atemp>15.0</ns3:atemp>
          </ns3:TrackPointExtension>
        </extensions>
      </trkpt>
      <trkpt lat="60.09439953602850437164306640625" lon="15.89164023287594318389892578125">
        <ele>129.600006103515625</ele>
        <time>2018-08-18T11:23:29.000Z</time>
        <extensions>
          <ns3:TrackPointExtension>
            <ns3:atemp>15.0</ns3:atemp>
          </ns3:TrackPointExtension>
        </extensions>
      </trkpt>
      <trkpt lat="60.09452006779611110687255859375" lon="15.8915397338569164276123046875">
        <ele>129.600006103515625</ele>
        <time>2018-08-18T11:23:31.000Z</time>
        <extensions>
          <ns3:TrackPointExtension>
            <ns3:atemp>15.0</ns3:atemp>
          </ns3:TrackPointExtension>
        </extensions>
      </trkpt>
      <trkpt lat="60.09473137557506561279296875" lon="15.8912529051303863525390625">
        <ele>129.8000030517578125</ele>
        <time>2018-08-18T11:23:35.000Z</time>
        <extensions>
          <ns3:TrackPointExtension>
            <ns3:atemp>15.0</ns3:atemp>
          </ns3:TrackPointExtension>
        </extensions>
      </trkpt>
      <trkpt lat="60.09515122510492801666259765625" lon="15.89056382887065410614013671875">
        <ele>130</ele>
        <time>2018-08-18T11:23:44.000Z</time>
        <extensions>
          <ns3:TrackPointExtension>
            <ns3:atemp>15.0</ns3:atemp>
          </ns3:TrackPointExtension>
        </extensions>
      </trkpt>
      <trkpt lat="60.09536529891192913055419921875" lon="15.89023140259087085723876953125">
        <ele>130</ele>
        <time>2018-08-18T11:23:48.000Z</time>
        <extensions>
          <ns3:TrackPointExtension>
            <ns3:atemp>15.0</ns3:atemp>
          </ns3:TrackPointExtension>
        </extensions>
      </trkpt>
      <trkpt lat="60.09587374515831470489501953125" lon="15.89034841395914554595947265625">
        <ele>129.600006103515625</ele>
        <time>2018-08-18T11:23:56.000Z</time>
        <extensions>
          <ns3:TrackPointExtension>
            <ns3:atemp>15.0</ns3:atemp>
          </ns3:TrackPointExtension>
        </extensions>
      </trkpt>
      <trkpt lat="60.09634497575461864471435546875" lon="15.890937745571136474609375">
        <ele>129</ele>
        <time>2018-08-18T11:24:03.000Z</time>
        <extensions>
          <ns3:TrackPointExtension>
            <ns3:atemp>15.0</ns3:atemp>
          </ns3:TrackPointExtension>
        </extensions>
      </trkpt>
      <trkpt lat="60.09648042730987071990966796875" lon="15.8911053836345672607421875">
        <ele>129</ele>
        <time>2018-08-18T11:24:05.000Z</time>
        <extensions>
          <ns3:TrackPointExtension>
            <ns3:atemp>15.0</ns3:atemp>
          </ns3:TrackPointExtension>
        </extensions>
      </trkpt>
      <trkpt lat="60.0965470634400844573974609375" lon="15.89116615243256092071533203125">
        <ele>129</ele>
        <time>2018-08-18T11:24:06.000Z</time>
        <extensions>
          <ns3:TrackPointExtension>
            <ns3:atemp>15.0</ns3:atemp>
          </ns3:TrackPointExtension>
        </extensions>
      </trkpt>
      <trkpt lat="60.09667404927313327789306640625" lon="15.891267322003841400146484375">
        <ele>129</ele>
        <time>2018-08-18T11:24:08.000Z</time>
        <extensions>
          <ns3:TrackPointExtension>
            <ns3:atemp>15.0</ns3:atemp>
          </ns3:TrackPointExtension>
        </extensions>
      </trkpt>
      <trkpt lat="60.0969034619629383087158203125" lon="15.89142657816410064697265625">
        <ele>129</ele>
        <time>2018-08-18T11:24:12.000Z</time>
        <extensions>
          <ns3:TrackPointExtension>
            <ns3:atemp>15.0</ns3:atemp>
          </ns3:TrackPointExtension>
        </extensions>
      </trkpt>
      <trkpt lat="60.09704955853521823883056640625" lon="15.891558341681957244873046875">
        <ele>129</ele>
        <time>2018-08-18T11:24:15.000Z</time>
        <extensions>
          <ns3:TrackPointExtension>
            <ns3:atemp>15.0</ns3:atemp>
          </ns3:TrackPointExtension>
        </extensions>
      </trkpt>
      <trkpt lat="60.097211413085460662841796875" lon="15.8916503749787807464599609375">
        <ele>129</ele>
        <time>2018-08-18T11:24:18.000Z</time>
        <extensions>
          <ns3:TrackPointExtension>
            <ns3:atemp>15.0</ns3:atemp>
          </ns3:TrackPointExtension>
        </extensions>
      </trkpt>
      <trkpt lat="60.09749002754688262939453125" lon="15.891492627561092376708984375">
        <ele>128.600006103515625</ele>
        <time>2018-08-18T11:24:23.000Z</time>
        <extensions>
          <ns3:TrackPointExtension>
            <ns3:atemp>15.0</ns3:atemp>
          </ns3:TrackPointExtension>
        </extensions>
      </trkpt>
      <trkpt lat="60.09782270528376102447509765625" lon="15.89108702726662158966064453125">
        <ele>128</ele>
        <time>2018-08-18T11:24:33.000Z</time>
        <extensions>
          <ns3:TrackPointExtension>
            <ns3:atemp>15.0</ns3:atemp>
          </ns3:TrackPointExtension>
        </extensions>
      </trkpt>
      <trkpt lat="60.09789562784135341644287109375" lon="15.8909513242542743682861328125">
        <ele>127.8000030517578125</ele>
        <time>2018-08-18T11:24:35.000Z</time>
        <extensions>
          <ns3:TrackPointExtension>
            <ns3:atemp>15.0</ns3:atemp>
          </ns3:TrackPointExtension>
        </extensions>
      </trkpt>
      <trkpt lat="60.0979654490947723388671875" lon="15.8907862007617950439453125">
        <ele>127.59999847412109375</ele>
        <time>2018-08-18T11:24:37.000Z</time>
        <extensions>
          <ns3:TrackPointExtension>
            <ns3:atemp>15.0</ns3:atemp>
          </ns3:TrackPointExtension>
        </extensions>
      </trkpt>
      <trkpt lat="60.0980336777865886688232421875" lon="15.89061361737549304962158203125">
        <ele>127.59999847412109375</ele>
        <time>2018-08-18T11:24:39.000Z</time>
        <extensions>
          <ns3:TrackPointExtension>
            <ns3:atemp>15.0</ns3:atemp>
          </ns3:TrackPointExtension>
        </extensions>
      </trkpt>
      <trkpt lat="60.09837892837822437286376953125" lon="15.8897580765187740325927734375">
        <ele>127.8000030517578125</ele>
        <time>2018-08-18T11:24:50.000Z</time>
        <extensions>
          <ns3:TrackPointExtension>
            <ns3:atemp>15.0</ns3:atemp>
          </ns3:TrackPointExtension>
        </extensions>
      </trkpt>
      <trkpt lat="60.098529048264026641845703125" lon="15.8895284123718738555908203125">
        <ele>127.8000030517578125</ele>
        <time>2018-08-18T11:24:55.000Z</time>
        <extensions>
          <ns3:TrackPointExtension>
            <ns3:atemp>15.0</ns3:atemp>
          </ns3:TrackPointExtension>
        </extensions>
      </trkpt>
      <trkpt lat="60.09870548732578754425048828125" lon="15.889340154826641082763671875">
        <ele>127.8000030517578125</ele>
        <time>2018-08-18T11:25:00.000Z</time>
        <extensions>
          <ns3:TrackPointExtension>
            <ns3:atemp>15.0</ns3:atemp>
          </ns3:TrackPointExtension>
        </extensions>
      </trkpt>
      <trkpt lat="60.098787881433963775634765625" lon="15.88925558142364025115966796875">
        <ele>127.8000030517578125</ele>
        <time>2018-08-18T11:25:02.000Z</time>
        <extensions>
          <ns3:TrackPointExtension>
            <ns3:atemp>15.0</ns3:atemp>
          </ns3:TrackPointExtension>
        </extensions>
      </trkpt>
      <trkpt lat="60.09900690056383609771728515625" lon="15.88903966359794139862060546875">
        <ele>127.8000030517578125</ele>
        <time>2018-08-18T11:25:07.000Z</time>
        <extensions>
          <ns3:TrackPointExtension>
            <ns3:atemp>15.0</ns3:atemp>
          </ns3:TrackPointExtension>
        </extensions>
      </trkpt>
      <trkpt lat="60.09909172542393207550048828125" lon="15.8889332972466945648193359375">
        <ele>127.8000030517578125</ele>
        <time>2018-08-18T11:25:09.000Z</time>
        <extensions>
          <ns3:TrackPointExtension>
            <ns3:atemp>15.0</ns3:atemp>
          </ns3:TrackPointExtension>
        </extensions>
      </trkpt>
      <trkpt lat="60.09931552223861217498779296875" lon="15.8886717818677425384521484375">
        <ele>127.59999847412109375</ele>
        <time>2018-08-18T11:25:14.000Z</time>
        <extensions>
          <ns3:TrackPointExtension>
            <ns3:atemp>15.0</ns3:atemp>
          </ns3:TrackPointExtension>
        </extensions>
      </trkpt>
      <trkpt lat="60.09977652691304683685302734375" lon="15.88812737725675106048583984375">
        <ele>127.59999847412109375</ele>
        <time>2018-08-18T11:25:26.000Z</time>
        <extensions>
          <ns3:TrackPointExtension>
            <ns3:atemp>15.0</ns3:atemp>
          </ns3:TrackPointExtension>
        </extensions>
      </trkpt>
      <trkpt lat="60.099994204938411712646484375" lon="15.8879938535392284393310546875">
        <ele>127.59999847412109375</ele>
        <time>2018-08-18T11:25:31.000Z</time>
        <extensions>
          <ns3:TrackPointExtension>
            <ns3:atemp>15.0</ns3:atemp>
          </ns3:TrackPointExtension>
        </extensions>
      </trkpt>
      <trkpt lat="60.10003603063523769378662109375" lon="15.88798052631318569183349609375">
        <ele>127.40000152587890625</ele>
        <time>2018-08-18T11:25:32.000Z</time>
        <extensions>
          <ns3:TrackPointExtension>
            <ns3:atemp>15.0</ns3:atemp>
          </ns3:TrackPointExtension>
        </extensions>
      </trkpt>
      <trkpt lat="60.10039997287094593048095703125" lon="15.8879791013896465301513671875">
        <ele>127.1999969482421875</ele>
        <time>2018-08-18T11:25:42.000Z</time>
        <extensions>
          <ns3:TrackPointExtension>
            <ns3:atemp>15.0</ns3:atemp>
          </ns3:TrackPointExtension>
        </extensions>
      </trkpt>
      <trkpt lat="60.10064103640615940093994140625" lon="15.88796745054423809051513671875">
        <ele>127.1999969482421875</ele>
        <time>2018-08-18T11:25:48.000Z</time>
        <extensions>
          <ns3:TrackPointExtension>
            <ns3:atemp>15.0</ns3:atemp>
          </ns3:TrackPointExtension>
        </extensions>
      </trkpt>
      <trkpt lat="60.100731812417507171630859375" lon="15.88793702423572540283203125">
        <ele>127.1999969482421875</ele>
        <time>2018-08-18T11:25:50.000Z</time>
        <extensions>
          <ns3:TrackPointExtension>
            <ns3:atemp>15.0</ns3:atemp>
          </ns3:TrackPointExtension>
        </extensions>
      </trkpt>
      <trkpt lat="60.10096759535372257232666015625" lon="15.8879378624260425567626953125">
        <ele>127.40000152587890625</ele>
        <time>2018-08-18T11:25:55.000Z</time>
        <extensions>
          <ns3:TrackPointExtension>
            <ns3:atemp>15.0</ns3:atemp>
          </ns3:TrackPointExtension>
        </extensions>
      </trkpt>
      <trkpt lat="60.10107404552400112152099609375" lon="15.88798689655959606170654296875">
        <ele>127.40000152587890625</ele>
        <time>2018-08-18T11:25:57.000Z</time>
        <extensions>
          <ns3:TrackPointExtension>
            <ns3:atemp>15.0</ns3:atemp>
          </ns3:TrackPointExtension>
        </extensions>
      </trkpt>
      <trkpt lat="60.10112450458109378814697265625" lon="15.88801774196326732635498046875">
        <ele>127.40000152587890625</ele>
        <time>2018-08-18T11:25:58.000Z</time>
        <extensions>
          <ns3:TrackPointExtension>
            <ns3:atemp>15.0</ns3:atemp>
          </ns3:TrackPointExtension>
        </extensions>
      </trkpt>
      <trkpt lat="60.1015959866344928741455078125" lon="15.88830314576625823974609375">
        <ele>127</ele>
        <time>2018-08-18T11:26:06.000Z</time>
        <extensions>
          <ns3:TrackPointExtension>
            <ns3:atemp>15.0</ns3:atemp>
          </ns3:TrackPointExtension>
        </extensions>
      </trkpt>
      <trkpt lat="60.10165507905185222625732421875" lon="15.88835033588111400604248046875">
        <ele>127</ele>
        <time>2018-08-18T11:26:07.000Z</time>
        <extensions>
          <ns3:TrackPointExtension>
            <ns3:atemp>15.0</ns3:atemp>
          </ns3:TrackPointExtension>
        </extensions>
      </trkpt>
      <trkpt lat="60.10181953199207782745361328125" lon="15.8884446322917938232421875">
        <ele>127</ele>
        <time>2018-08-18T11:26:10.000Z</time>
        <extensions>
          <ns3:TrackPointExtension>
            <ns3:atemp>15.0</ns3:atemp>
          </ns3:TrackPointExtension>
        </extensions>
      </trkpt>
      <trkpt lat="60.1022004894912242889404296875" lon="15.88842116296291351318359375">
        <ele>127.1999969482421875</ele>
        <time>2018-08-18T11:26:18.000Z</time>
        <extensions>
          <ns3:TrackPointExtension>
            <ns3:atemp>15.0</ns3:atemp>
          </ns3:TrackPointExtension>
        </extensions>
      </trkpt>
      <trkpt lat="60.10229830630123615264892578125" lon="15.888402052223682403564453125">
        <ele>127.1999969482421875</ele>
        <time>2018-08-18T11:26:20.000Z</time>
        <extensions>
          <ns3:TrackPointExtension>
            <ns3:atemp>15.0</ns3:atemp>
          </ns3:TrackPointExtension>
        </extensions>
      </trkpt>
      <trkpt lat="60.10274070315062999725341796875" lon="15.88809368200600147247314453125">
        <ele>128.1999969482421875</ele>
        <time>2018-08-18T11:26:28.000Z</time>
        <extensions>
          <ns3:TrackPointExtension>
            <ns3:atemp>15.0</ns3:atemp>
          </ns3:TrackPointExtension>
        </extensions>
      </trkpt>
      <trkpt lat="60.10311269201338291168212890625" lon="15.887724123895168304443359375">
        <ele>129.1999969482421875</ele>
        <time>2018-08-18T11:26:38.000Z</time>
        <extensions>
          <ns3:TrackPointExtension>
            <ns3:atemp>15.0</ns3:atemp>
          </ns3:TrackPointExtension>
        </extensions>
      </trkpt>
      <trkpt lat="60.103220902383327484130859375" lon="15.8877045102417469024658203125">
        <ele>129.1999969482421875</ele>
        <time>2018-08-18T11:26:41.000Z</time>
        <extensions>
          <ns3:TrackPointExtension>
            <ns3:atemp>15.0</ns3:atemp>
          </ns3:TrackPointExtension>
        </extensions>
      </trkpt>
      <trkpt lat="60.10347026400268077850341796875" lon="15.88766084052622318267822265625">
        <ele>129.399993896484375</ele>
        <time>2018-08-18T11:26:49.000Z</time>
        <extensions>
          <ns3:TrackPointExtension>
            <ns3:atemp>15.0</ns3:atemp>
          </ns3:TrackPointExtension>
        </extensions>
      </trkpt>
      <trkpt lat="60.10356028564274311065673828125" lon="15.88762295432388782501220703125">
        <ele>129.399993896484375</ele>
        <time>2018-08-18T11:26:52.000Z</time>
        <extensions>
          <ns3:TrackPointExtension>
            <ns3:atemp>15.0</ns3:atemp>
          </ns3:TrackPointExtension>
        </extensions>
      </trkpt>
      <trkpt lat="60.1036938093602657318115234375" lon="15.88755338452756404876708984375">
        <ele>129.600006103515625</ele>
        <time>2018-08-18T11:26:56.000Z</time>
        <extensions>
          <ns3:TrackPointExtension>
            <ns3:atemp>15.0</ns3:atemp>
          </ns3:TrackPointExtension>
        </extensions>
      </trkpt>
      <trkpt lat="60.1038641296327114105224609375" lon="15.8874614350497722625732421875">
        <ele>129.8000030517578125</ele>
        <time>2018-08-18T11:27:02.000Z</time>
        <extensions>
          <ns3:TrackPointExtension>
            <ns3:atemp>15.0</ns3:atemp>
          </ns3:TrackPointExtension>
        </extensions>
      </trkpt>
      <trkpt lat="60.1039657182991504669189453125" lon="15.887365378439426422119140625">
        <ele>130</ele>
        <time>2018-08-18T11:27:07.000Z</time>
        <extensions>
          <ns3:TrackPointExtension>
            <ns3:atemp>15.0</ns3:atemp>
          </ns3:TrackPointExtension>
        </extensions>
      </trkpt>
      <trkpt lat="60.1040257327258586883544921875" lon="15.88727451860904693603515625">
        <ele>130.1999969482421875</ele>
        <time>2018-08-18T11:27:10.000Z</time>
        <extensions>
          <ns3:TrackPointExtension>
            <ns3:atemp>15.0</ns3:atemp>
          </ns3:TrackPointExtension>
        </extensions>
      </trkpt>
      <trkpt lat="60.10410561226308345794677734375" lon="15.8871556632220745086669921875">
        <ele>130.399993896484375</ele>
        <time>2018-08-18T11:27:13.000Z</time>
        <extensions>
          <ns3:TrackPointExtension>
            <ns3:atemp>15.0</ns3:atemp>
          </ns3:TrackPointExtension>
        </extensions>
      </trkpt>
      <trkpt lat="60.10418289341032505035400390625" lon="15.8870265819132328033447265625">
        <ele>130.600006103515625</ele>
        <time>2018-08-18T11:27:16.000Z</time>
        <extensions>
          <ns3:TrackPointExtension>
            <ns3:atemp>15.0</ns3:atemp>
          </ns3:TrackPointExtension>
        </extensions>
      </trkpt>
      <trkpt lat="60.10455287061631679534912109375" lon="15.8867114223539829254150390625">
        <ele>131.1999969482421875</ele>
        <time>2018-08-18T11:27:28.000Z</time>
        <extensions>
          <ns3:TrackPointExtension>
            <ns3:atemp>15.0</ns3:atemp>
          </ns3:TrackPointExtension>
        </extensions>
      </trkpt>
      <trkpt lat="60.104969032108783721923828125" lon="15.88643096387386322021484375">
        <ele>131.8000030517578125</ele>
        <time>2018-08-18T11:27:40.000Z</time>
        <extensions>
          <ns3:TrackPointExtension>
            <ns3:atemp>15.0</ns3:atemp>
          </ns3:TrackPointExtension>
        </extensions>
      </trkpt>
      <trkpt lat="60.1052367500960826873779296875" lon="15.88617959059774875640869140625">
        <ele>132.1999969482421875</ele>
        <time>2018-08-18T11:27:47.000Z</time>
        <extensions>
          <ns3:TrackPointExtension>
            <ns3:atemp>15.0</ns3:atemp>
          </ns3:TrackPointExtension>
        </extensions>
      </trkpt>
      <trkpt lat="60.1057584397494792938232421875" lon="15.88569243438541889190673828125">
        <ele>133.1999969482421875</ele>
        <time>2018-08-18T11:27:58.000Z</time>
        <extensions>
          <ns3:TrackPointExtension>
            <ns3:atemp>15.0</ns3:atemp>
          </ns3:TrackPointExtension>
        </extensions>
      </trkpt>
      <trkpt lat="60.10580160655081272125244140625" lon="15.88563837110996246337890625">
        <ele>133.1999969482421875</ele>
        <time>2018-08-18T11:27:59.000Z</time>
        <extensions>
          <ns3:TrackPointExtension>
            <ns3:atemp>15.0</ns3:atemp>
          </ns3:TrackPointExtension>
        </extensions>
      </trkpt>
      <trkpt lat="60.10628708638250827789306640625" lon="15.8849294297397136688232421875">
        <ele>135.1999969482421875</ele>
        <time>2018-08-18T11:28:08.000Z</time>
        <extensions>
          <ns3:TrackPointExtension>
            <ns3:atemp>15.0</ns3:atemp>
          </ns3:TrackPointExtension>
        </extensions>
      </trkpt>
      <trkpt lat="60.1064071990549564361572265625" lon="15.88476623408496379852294921875">
        <ele>135.600006103515625</ele>
        <time>2018-08-18T11:28:10.000Z</time>
        <extensions>
          <ns3:TrackPointExtension>
            <ns3:atemp>15.0</ns3:atemp>
          </ns3:TrackPointExtension>
        </extensions>
      </trkpt>
      <trkpt lat="60.10657039470970630645751953125" lon="15.88457562960684299468994140625">
        <ele>136.399993896484375</ele>
        <time>2018-08-18T11:28:13.000Z</time>
        <extensions>
          <ns3:TrackPointExtension>
            <ns3:atemp>15.0</ns3:atemp>
          </ns3:TrackPointExtension>
        </extensions>
      </trkpt>
      <trkpt lat="60.1067630946636199951171875" lon="15.8844535052776336669921875">
        <ele>137</ele>
        <time>2018-08-18T11:28:18.000Z</time>
        <extensions>
          <ns3:TrackPointExtension>
            <ns3:atemp>15.0</ns3:atemp>
          </ns3:TrackPointExtension>
        </extensions>
      </trkpt>
      <trkpt lat="60.1072458922863006591796875" lon="15.88449600152671337127685546875">
        <ele>137.1999969482421875</ele>
        <time>2018-08-18T11:28:30.000Z</time>
        <extensions>
          <ns3:TrackPointExtension>
            <ns3:atemp>15.0</ns3:atemp>
          </ns3:TrackPointExtension>
        </extensions>
      </trkpt>
      <trkpt lat="60.10742853395640850067138671875" lon="15.8843795768916606903076171875">
        <ele>137.8000030517578125</ele>
        <time>2018-08-18T11:28:35.000Z</time>
        <extensions>
          <ns3:TrackPointExtension>
            <ns3:atemp>15.0</ns3:atemp>
          </ns3:TrackPointExtension>
        </extensions>
      </trkpt>
      <trkpt lat="60.10764294303953647613525390625" lon="15.88414547033607959747314453125">
        <ele>138.600006103515625</ele>
        <time>2018-08-18T11:28:42.000Z</time>
        <extensions>
          <ns3:TrackPointExtension>
            <ns3:atemp>15.0</ns3:atemp>
          </ns3:TrackPointExtension>
        </extensions>
      </trkpt>
      <trkpt lat="60.10772860608994960784912109375" lon="15.8840369246900081634521484375">
        <ele>139</ele>
        <time>2018-08-18T11:28:45.000Z</time>
        <extensions>
          <ns3:TrackPointExtension>
            <ns3:atemp>15.0</ns3:atemp>
          </ns3:TrackPointExtension>
        </extensions>
      </trkpt>
      <trkpt lat="60.1078807376325130462646484375" lon="15.88383785448968410491943359375">
        <ele>139.8000030517578125</ele>
        <time>2018-08-18T11:28:50.000Z</time>
        <extensions>
          <ns3:TrackPointExtension>
            <ns3:atemp>15.0</ns3:atemp>
          </ns3:TrackPointExtension>
        </extensions>
      </trkpt>
      <trkpt lat="60.1079997606575489044189453125" lon="15.883679687976837158203125">
        <ele>140.1999969482421875</ele>
        <time>2018-08-18T11:28:54.000Z</time>
        <extensions>
          <ns3:TrackPointExtension>
            <ns3:atemp>15.0</ns3:atemp>
          </ns3:TrackPointExtension>
        </extensions>
      </trkpt>
      <trkpt lat="60.10812272317707538604736328125" lon="15.88351137936115264892578125">
        <ele>141</ele>
        <time>2018-08-18T11:28:58.000Z</time>
        <extensions>
          <ns3:TrackPointExtension>
            <ns3:atemp>15.0</ns3:atemp>
          </ns3:TrackPointExtension>
        </extensions>
      </trkpt>
      <trkpt lat="60.1083625294268131256103515625" lon="15.88318943046033382415771484375">
        <ele>142</ele>
        <time>2018-08-18T11:29:05.000Z</time>
        <extensions>
          <ns3:TrackPointExtension>
            <ns3:atemp>15.0</ns3:atemp>
          </ns3:TrackPointExtension>
        </extensions>
      </trkpt>
      <trkpt lat="60.10851633735001087188720703125" lon="15.88297091424465179443359375">
        <ele>142.8000030517578125</ele>
        <time>2018-08-18T11:29:09.000Z</time>
        <extensions>
          <ns3:TrackPointExtension>
            <ns3:atemp>15.0</ns3:atemp>
          </ns3:TrackPointExtension>
        </extensions>
      </trkpt>
      <trkpt lat="60.10890156961977481842041015625" lon="15.88216801173985004425048828125">
        <ele>145.399993896484375</ele>
        <time>2018-08-18T11:29:22.000Z</time>
        <extensions>
          <ns3:TrackPointExtension>
            <ns3:atemp>15.0</ns3:atemp>
          </ns3:TrackPointExtension>
        </extensions>
      </trkpt>
      <trkpt lat="60.10906116105616092681884765625" lon="15.8817878924310207366943359375">
        <ele>146.399993896484375</ele>
        <time>2018-08-18T11:29:29.000Z</time>
        <extensions>
          <ns3:TrackPointExtension>
            <ns3:atemp>15.0</ns3:atemp>
          </ns3:TrackPointExtension>
        </extensions>
      </trkpt>
      <trkpt lat="60.10920189321041107177734375" lon="15.8814395405352115631103515625">
        <ele>147.399993896484375</ele>
        <time>2018-08-18T11:29:35.000Z</time>
        <extensions>
          <ns3:TrackPointExtension>
            <ns3:atemp>15.0</ns3:atemp>
          </ns3:TrackPointExtension>
        </extensions>
      </trkpt>
      <trkpt lat="60.1094622351229190826416015625" lon="15.88076471351087093353271484375">
        <ele>149.1999969482421875</ele>
        <time>2018-08-18T11:29:45.000Z</time>
        <extensions>
          <ns3:TrackPointExtension>
            <ns3:atemp>15.0</ns3:atemp>
          </ns3:TrackPointExtension>
        </extensions>
      </trkpt>
      <trkpt lat="60.10961587540805339813232421875" lon="15.88038861751556396484375">
        <ele>150.1999969482421875</ele>
        <time>2018-08-18T11:29:55.000Z</time>
        <extensions>
          <ns3:TrackPointExtension>
            <ns3:atemp>15.0</ns3:atemp>
          </ns3:TrackPointExtension>
        </extensions>
      </trkpt>
      <trkpt lat="60.10969466529786586761474609375" lon="15.88024486787617206573486328125">
        <ele>150.8000030517578125</ele>
        <time>2018-08-18T11:29:59.000Z</time>
        <extensions>
          <ns3:TrackPointExtension>
            <ns3:atemp>15.0</ns3:atemp>
          </ns3:TrackPointExtension>
        </extensions>
      </trkpt>
      <trkpt lat="60.1097512431442737579345703125" lon="15.88014093227684497833251953125">
        <ele>151.399993896484375</ele>
        <time>2018-08-18T11:30:01.000Z</time>
        <extensions>
          <ns3:TrackPointExtension>
            <ns3:atemp>15.0</ns3:atemp>
          </ns3:TrackPointExtension>
        </extensions>
      </trkpt>
      <trkpt lat="60.10989365167915821075439453125" lon="15.87981169112026691436767578125">
        <ele>152.600006103515625</ele>
        <time>2018-08-18T11:30:06.000Z</time>
        <extensions>
          <ns3:TrackPointExtension>
            <ns3:atemp>15.0</ns3:atemp>
          </ns3:TrackPointExtension>
        </extensions>
      </trkpt>
      <trkpt lat="60.1099292747676372528076171875" lon="15.8796391077339649200439453125">
        <ele>153.1999969482421875</ele>
        <time>2018-08-18T11:30:08.000Z</time>
        <extensions>
          <ns3:TrackPointExtension>
            <ns3:atemp>15.0</ns3:atemp>
          </ns3:TrackPointExtension>
        </extensions>
      </trkpt>
      <trkpt lat="60.1099669933319091796875" lon="15.87919193319976329803466796875">
        <ele>154.8000030517578125</ele>
        <time>2018-08-18T11:30:12.000Z</time>
        <extensions>
          <ns3:TrackPointExtension>
            <ns3:atemp>15.0</ns3:atemp>
          </ns3:TrackPointExtension>
        </extensions>
      </trkpt>
      <trkpt lat="60.11015265248715877532958984375" lon="15.8781476318836212158203125">
        <ele>158.399993896484375</ele>
        <time>2018-08-18T11:30:20.000Z</time>
        <extensions>
          <ns3:TrackPointExtension>
            <ns3:atemp>15.0</ns3:atemp>
          </ns3:TrackPointExtension>
        </extensions>
      </trkpt>
      <trkpt lat="60.11017343960702419281005859375" lon="15.87799114175140857696533203125">
        <ele>159</ele>
        <time>2018-08-18T11:30:21.000Z</time>
        <extensions>
          <ns3:TrackPointExtension>
            <ns3:atemp>15.0</ns3:atemp>
          </ns3:TrackPointExtension>
        </extensions>
      </trkpt>
      <trkpt lat="60.110198669135570526123046875" lon="15.877472721040248870849609375">
        <ele>160.8000030517578125</ele>
        <time>2018-08-18T11:30:24.000Z</time>
        <extensions>
          <ns3:TrackPointExtension>
            <ns3:atemp>15.0</ns3:atemp>
          </ns3:TrackPointExtension>
        </extensions>
      </trkpt>
      <trkpt lat="60.11021182872354984283447265625" lon="15.876598991453647613525390625">
        <ele>163.600006103515625</ele>
        <time>2018-08-18T11:30:29.000Z</time>
        <extensions>
          <ns3:TrackPointExtension>
            <ns3:atemp>15.0</ns3:atemp>
          </ns3:TrackPointExtension>
        </extensions>
      </trkpt>
      <trkpt lat="60.110232532024383544921875" lon="15.876282155513763427734375">
        <ele>164.600006103515625</ele>
        <time>2018-08-18T11:30:31.000Z</time>
        <extensions>
          <ns3:TrackPointExtension>
            <ns3:atemp>15.0</ns3:atemp>
          </ns3:TrackPointExtension>
        </extensions>
      </trkpt>
      <trkpt lat="60.1103357970714569091796875" lon="15.87593019939959049224853515625">
        <ele>166</ele>
        <time>2018-08-18T11:30:34.000Z</time>
        <extensions>
          <ns3:TrackPointExtension>
            <ns3:atemp>15.0</ns3:atemp>
          </ns3:TrackPointExtension>
        </extensions>
      </trkpt>
      <trkpt lat="60.11047133244574069976806640625" lon="15.8757602982223033905029296875">
        <ele>166.8000030517578125</ele>
        <time>2018-08-18T11:30:37.000Z</time>
        <extensions>
          <ns3:TrackPointExtension>
            <ns3:atemp>15.0</ns3:atemp>
          </ns3:TrackPointExtension>
        </extensions>
      </trkpt>
      <trkpt lat="60.11091138236224651336669921875" lon="15.87541513144969940185546875">
        <ele>168.600006103515625</ele>
        <time>2018-08-18T11:30:50.000Z</time>
        <extensions>
          <ns3:TrackPointExtension>
            <ns3:atemp>15.0</ns3:atemp>
          </ns3:TrackPointExtension>
        </extensions>
      </trkpt>
      <trkpt lat="60.11104918085038661956787109375" lon="15.875271968543529510498046875">
        <ele>169.1999969482421875</ele>
        <time>2018-08-18T11:30:54.000Z</time>
        <extensions>
          <ns3:TrackPointExtension>
            <ns3:atemp>15.0</ns3:atemp>
          </ns3:TrackPointExtension>
        </extensions>
      </trkpt>
      <trkpt lat="60.11124934069812297821044921875" lon="15.87511195801198482513427734375">
        <ele>170.1999969482421875</ele>
        <time>2018-08-18T11:30:59.000Z</time>
        <extensions>
          <ns3:TrackPointExtension>
            <ns3:atemp>15.0</ns3:atemp>
          </ns3:TrackPointExtension>
        </extensions>
      </trkpt>
      <trkpt lat="60.11151689104735851287841796875" lon="15.875003747642040252685546875">
        <ele>171</ele>
        <time>2018-08-18T11:31:06.000Z</time>
        <extensions>
          <ns3:TrackPointExtension>
            <ns3:atemp>15.0</ns3:atemp>
          </ns3:TrackPointExtension>
        </extensions>
      </trkpt>
      <trkpt lat="60.1116643287241458892822265625" lon="15.87498237378895282745361328125">
        <ele>171.1999969482421875</ele>
        <time>2018-08-18T11:31:10.000Z</time>
        <extensions>
          <ns3:TrackPointExtension>
            <ns3:atemp>15.0</ns3:atemp>
          </ns3:TrackPointExtension>
        </extensions>
      </trkpt>
      <trkpt lat="60.1118034683167934417724609375" lon="15.874984301626682281494140625">
        <ele>171.1999969482421875</ele>
        <time>2018-08-18T11:31:14.000Z</time>
        <extensions>
          <ns3:TrackPointExtension>
            <ns3:atemp>15.0</ns3:atemp>
          </ns3:TrackPointExtension>
        </extensions>
      </trkpt>
      <trkpt lat="60.11190296150743961334228515625" lon="15.8749925158917903900146484375">
        <ele>171</ele>
        <time>2018-08-18T11:31:17.000Z</time>
        <extensions>
          <ns3:TrackPointExtension>
            <ns3:atemp>15.0</ns3:atemp>
          </ns3:TrackPointExtension>
        </extensions>
      </trkpt>
      <trkpt lat="60.112035982310771942138671875" lon="15.87501305155456066131591796875">
        <ele>170.8000030517578125</ele>
        <time>2018-08-18T11:31:21.000Z</time>
        <extensions>
          <ns3:TrackPointExtension>
            <ns3:atemp>15.0</ns3:atemp>
          </ns3:TrackPointExtension>
        </extensions>
      </trkpt>
      <trkpt lat="60.11216850019991397857666015625" lon="15.87503400631248950958251953125">
        <ele>170.600006103515625</ele>
        <time>2018-08-18T11:31:25.000Z</time>
        <extensions>
          <ns3:TrackPointExtension>
            <ns3:atemp>15.0</ns3:atemp>
          </ns3:TrackPointExtension>
        </extensions>
      </trkpt>
      <trkpt lat="60.1123429276049137115478515625" lon="15.8750314079225063323974609375">
        <ele>170.600006103515625</ele>
        <time>2018-08-18T11:31:30.000Z</time>
        <extensions>
          <ns3:TrackPointExtension>
            <ns3:atemp>15.0</ns3:atemp>
          </ns3:TrackPointExtension>
        </extensions>
      </trkpt>
      <trkpt lat="60.1125202886760234832763671875" lon="15.87499804794788360595703125">
        <ele>170.600006103515625</ele>
        <time>2018-08-18T11:31:35.000Z</time>
        <extensions>
          <ns3:TrackPointExtension>
            <ns3:atemp>15.0</ns3:atemp>
          </ns3:TrackPointExtension>
        </extensions>
      </trkpt>
      <trkpt lat="60.11280988343060016632080078125" lon="15.8749264664947986602783203125">
        <ele>169.600006103515625</ele>
        <time>2018-08-18T11:31:43.000Z</time>
        <extensions>
          <ns3:TrackPointExtension>
            <ns3:atemp>15.0</ns3:atemp>
          </ns3:TrackPointExtension>
        </extensions>
      </trkpt>
      <trkpt lat="60.11314381845295429229736328125" lon="15.8746693097054958343505859375">
        <ele>168.8000030517578125</ele>
        <time>2018-08-18T11:31:55.000Z</time>
        <extensions>
          <ns3:TrackPointExtension>
            <ns3:atemp>15.0</ns3:atemp>
          </ns3:TrackPointExtension>
        </extensions>
      </trkpt>
      <trkpt lat="60.113312713801860809326171875" lon="15.87449203245341777801513671875">
        <ele>168.399993896484375</ele>
        <time>2018-08-18T11:32:01.000Z</time>
        <extensions>
          <ns3:TrackPointExtension>
            <ns3:atemp>15.0</ns3:atemp>
          </ns3:TrackPointExtension>
        </extensions>
      </trkpt>
      <trkpt lat="60.1134496740996837615966796875" lon="15.87433663196861743927001953125">
        <ele>168.1999969482421875</ele>
        <time>2018-08-18T11:32:06.000Z</time>
        <extensions>
          <ns3:TrackPointExtension>
            <ns3:atemp>15.0</ns3:atemp>
          </ns3:TrackPointExtension>
        </extensions>
      </trkpt>
      <trkpt lat="60.11353961192071437835693359375" lon="15.87425239384174346923828125">
        <ele>167.8000030517578125</ele>
        <time>2018-08-18T11:32:10.000Z</time>
        <extensions>
          <ns3:TrackPointExtension>
            <ns3:atemp>15.0</ns3:atemp>
          </ns3:TrackPointExtension>
        </extensions>
      </trkpt>
      <trkpt lat="60.11367958970367908477783203125" lon="15.8741435967385768890380859375">
        <ele>167.600006103515625</ele>
        <time>2018-08-18T11:32:15.000Z</time>
        <extensions>
          <ns3:TrackPointExtension>
            <ns3:atemp>15.0</ns3:atemp>
          </ns3:TrackPointExtension>
        </extensions>
      </trkpt>
      <trkpt lat="60.11382493190467357635498046875" lon="15.874038822948932647705078125">
        <ele>167.1999969482421875</ele>
        <time>2018-08-18T11:32:20.000Z</time>
        <extensions>
          <ns3:TrackPointExtension>
            <ns3:atemp>15.0</ns3:atemp>
          </ns3:TrackPointExtension>
        </extensions>
      </trkpt>
      <trkpt lat="60.114025510847568511962890625" lon="15.87388535030186176300048828125">
        <ele>166.600006103515625</ele>
        <time>2018-08-18T11:32:26.000Z</time>
        <extensions>
          <ns3:TrackPointExtension>
            <ns3:atemp>15.0</ns3:atemp>
          </ns3:TrackPointExtension>
        </extensions>
      </trkpt>
      <trkpt lat="60.11421301402151584625244140625" lon="15.87370782159268856048583984375">
        <ele>166.1999969482421875</ele>
        <time>2018-08-18T11:32:32.000Z</time>
        <extensions>
          <ns3:TrackPointExtension>
            <ns3:atemp>15.0</ns3:atemp>
          </ns3:TrackPointExtension>
        </extensions>
      </trkpt>
      <trkpt lat="60.1145222224295139312744140625" lon="15.8734683506190776824951171875">
        <ele>165.399993896484375</ele>
        <time>2018-08-18T11:32:42.000Z</time>
        <extensions>
          <ns3:TrackPointExtension>
            <ns3:atemp>15.0</ns3:atemp>
          </ns3:TrackPointExtension>
        </extensions>
      </trkpt>
      <trkpt lat="60.1146999187767505645751953125" lon="15.87330423295497894287109375">
        <ele>165</ele>
        <time>2018-08-18T11:32:48.000Z</time>
        <extensions>
          <ns3:TrackPointExtension>
            <ns3:atemp>15.0</ns3:atemp>
          </ns3:TrackPointExtension>
        </extensions>
      </trkpt>
      <trkpt lat="60.11478180997073650360107421875" lon="15.8732339926064014434814453125">
        <ele>164.8000030517578125</ele>
        <time>2018-08-18T11:32:51.000Z</time>
        <extensions>
          <ns3:TrackPointExtension>
            <ns3:atemp>15.0</ns3:atemp>
          </ns3:TrackPointExtension>
        </extensions>
      </trkpt>
      <trkpt lat="60.1148819737136363983154296875" lon="15.87313592433929443359375">
        <ele>164.399993896484375</ele>
        <time>2018-08-18T11:32:55.000Z</time>
        <extensions>
          <ns3:TrackPointExtension>
            <ns3:atemp>15.0</ns3:atemp>
          </ns3:TrackPointExtension>
        </extensions>
      </trkpt>
      <trkpt lat="60.11506528593599796295166015625" lon="15.87293266318738460540771484375">
        <ele>164</ele>
        <time>2018-08-18T11:33:01.000Z</time>
        <extensions>
          <ns3:TrackPointExtension>
            <ns3:atemp>15.0</ns3:atemp>
          </ns3:TrackPointExtension>
        </extensions>
      </trkpt>
      <trkpt lat="60.11533954180777072906494140625" lon="15.87264197878539562225341796875">
        <ele>163.399993896484375</ele>
        <time>2018-08-18T11:33:08.000Z</time>
        <extensions>
          <ns3:TrackPointExtension>
            <ns3:atemp>15.0</ns3:atemp>
          </ns3:TrackPointExtension>
        </extensions>
      </trkpt>
      <trkpt lat="60.11562787927687168121337890625" lon="15.87239471264183521270751953125">
        <ele>162.600006103515625</ele>
        <time>2018-08-18T11:33:15.000Z</time>
        <extensions>
          <ns3:TrackPointExtension>
            <ns3:atemp>15.0</ns3:atemp>
          </ns3:TrackPointExtension>
        </extensions>
      </trkpt>
      <trkpt lat="60.1161131076514720916748046875" lon="15.8725222013890743255615234375">
        <ele>161</ele>
        <time>2018-08-18T11:33:26.000Z</time>
        <extensions>
          <ns3:TrackPointExtension>
            <ns3:atemp>15.0</ns3:atemp>
          </ns3:TrackPointExtension>
        </extensions>
      </trkpt>
      <trkpt lat="60.1165734417736530303955078125" lon="15.87215348146855831146240234375">
        <ele>159.8000030517578125</ele>
        <time>2018-08-18T11:33:34.000Z</time>
        <extensions>
          <ns3:TrackPointExtension>
            <ns3:atemp>15.0</ns3:atemp>
          </ns3:TrackPointExtension>
        </extensions>
      </trkpt>
      <trkpt lat="60.11706537567079067230224609375" lon="15.8715445362031459808349609375">
        <ele>158.8000030517578125</ele>
        <time>2018-08-18T11:33:42.000Z</time>
        <extensions>
          <ns3:TrackPointExtension>
            <ns3:atemp>15.0</ns3:atemp>
          </ns3:TrackPointExtension>
        </extensions>
      </trkpt>
      <trkpt lat="60.117410123348236083984375" lon="15.870967693626880645751953125">
        <ele>158.600006103515625</ele>
        <time>2018-08-18T11:33:48.000Z</time>
        <extensions>
          <ns3:TrackPointExtension>
            <ns3:atemp>15.0</ns3:atemp>
          </ns3:TrackPointExtension>
        </extensions>
      </trkpt>
      <trkpt lat="60.117567367851734161376953125" lon="15.87064289487898349761962890625">
        <ele>158.8000030517578125</ele>
        <time>2018-08-18T11:33:51.000Z</time>
        <extensions>
          <ns3:TrackPointExtension>
            <ns3:atemp>15.0</ns3:atemp>
          </ns3:TrackPointExtension>
        </extensions>
      </trkpt>
      <trkpt lat="60.11767172254621982574462890625" lon="15.8703787811100482940673828125">
        <ele>159</ele>
        <time>2018-08-18T11:33:53.000Z</time>
        <extensions>
          <ns3:TrackPointExtension>
            <ns3:atemp>15.0</ns3:atemp>
          </ns3:TrackPointExtension>
        </extensions>
      </trkpt>
      <trkpt lat="60.11776593513786792755126953125" lon="15.8700991608202457427978515625">
        <ele>159.1999969482421875</ele>
        <time>2018-08-18T11:33:55.000Z</time>
        <extensions>
          <ns3:TrackPointExtension>
            <ns3:atemp>15.0</ns3:atemp>
          </ns3:TrackPointExtension>
        </extensions>
      </trkpt>
      <trkpt lat="60.117944888770580291748046875" lon="15.869646370410919189453125">
        <ele>159.600006103515625</ele>
        <time>2018-08-18T11:33:59.000Z</time>
        <extensions>
          <ns3:TrackPointExtension>
            <ns3:atemp>15.0</ns3:atemp>
          </ns3:TrackPointExtension>
        </extensions>
      </trkpt>
      <trkpt lat="60.1181126944720745086669921875" lon="15.86940840817987918853759765625">
        <ele>159.600006103515625</ele>
        <time>2018-08-18T11:34:02.000Z</time>
        <extensions>
          <ns3:TrackPointExtension>
            <ns3:atemp>15.0</ns3:atemp>
          </ns3:TrackPointExtension>
        </extensions>
      </trkpt>
      <trkpt lat="60.1182129420340061187744140625" lon="15.8691885508596897125244140625">
        <ele>159.600006103515625</ele>
        <time>2018-08-18T11:34:04.000Z</time>
        <extensions>
          <ns3:TrackPointExtension>
            <ns3:atemp>15.0</ns3:atemp>
          </ns3:TrackPointExtension>
        </extensions>
      </trkpt>
      <trkpt lat="60.11826314963400363922119140625" lon="15.86892686784267425537109375">
        <ele>160</ele>
        <time>2018-08-18T11:34:06.000Z</time>
        <extensions>
          <ns3:TrackPointExtension>
            <ns3:atemp>15.0</ns3:atemp>
          </ns3:TrackPointExtension>
        </extensions>
      </trkpt>
      <trkpt lat="60.11828678660094738006591796875" lon="15.8687821961939334869384765625">
        <ele>160.1999969482421875</ele>
        <time>2018-08-18T11:34:07.000Z</time>
        <extensions>
          <ns3:TrackPointExtension>
            <ns3:atemp>15.0</ns3:atemp>
          </ns3:TrackPointExtension>
        </extensions>
      </trkpt>
      <trkpt lat="60.11832048185169696807861328125" lon="15.86863987147808074951171875">
        <ele>160.399993896484375</ele>
        <time>2018-08-18T11:34:08.000Z</time>
        <extensions>
          <ns3:TrackPointExtension>
            <ns3:atemp>15.0</ns3:atemp>
          </ns3:TrackPointExtension>
        </extensions>
      </trkpt>
      <trkpt lat="60.1183611340820789337158203125" lon="15.86849578656256198883056640625">
        <ele>160.399993896484375</ele>
        <time>2018-08-18T11:34:09.000Z</time>
        <extensions>
          <ns3:TrackPointExtension>
            <ns3:atemp>15.0</ns3:atemp>
          </ns3:TrackPointExtension>
        </extensions>
      </trkpt>
      <trkpt lat="60.1184526644647121429443359375" lon="15.86821599863469600677490234375">
        <ele>160.8000030517578125</ele>
        <time>2018-08-18T11:34:11.000Z</time>
        <extensions>
          <ns3:TrackPointExtension>
            <ns3:atemp>15.0</ns3:atemp>
          </ns3:TrackPointExtension>
        </extensions>
      </trkpt>
      <trkpt lat="60.1185995154082775115966796875" lon="15.867834202945232391357421875">
        <ele>161</ele>
        <time>2018-08-18T11:34:14.000Z</time>
        <extensions>
          <ns3:TrackPointExtension>
            <ns3:atemp>15.0</ns3:atemp>
          </ns3:TrackPointExtension>
        </extensions>
      </trkpt>
      <trkpt lat="60.11869666166603565216064453125" lon="15.86761551909148693084716796875">
        <ele>161.1999969482421875</ele>
        <time>2018-08-18T11:34:16.000Z</time>
        <extensions>
          <ns3:TrackPointExtension>
            <ns3:atemp>15.0</ns3:atemp>
          </ns3:TrackPointExtension>
        </extensions>
      </trkpt>
      <trkpt lat="60.11878869496285915374755859375" lon="15.8674156107008457183837890625">
        <ele>161.1999969482421875</ele>
        <time>2018-08-18T11:34:18.000Z</time>
        <extensions>
          <ns3:TrackPointExtension>
            <ns3:atemp>15.0</ns3:atemp>
          </ns3:TrackPointExtension>
        </extensions>
      </trkpt>
      <trkpt lat="60.11883932165801525115966796875" lon="15.86733154021203517913818359375">
        <ele>161.1999969482421875</ele>
        <time>2018-08-18T11:34:19.000Z</time>
        <extensions>
          <ns3:TrackPointExtension>
            <ns3:atemp>15.0</ns3:atemp>
          </ns3:TrackPointExtension>
        </extensions>
      </trkpt>
      <trkpt lat="60.11897376738488674163818359375" lon="15.8672328852117061614990234375">
        <ele>161.1999969482421875</ele>
        <time>2018-08-18T11:34:21.000Z</time>
        <extensions>
          <ns3:TrackPointExtension>
            <ns3:atemp>15.0</ns3:atemp>
          </ns3:TrackPointExtension>
        </extensions>
      </trkpt>
      <trkpt lat="60.1191433332860469818115234375" lon="15.86722844280302524566650390625">
        <ele>160.8000030517578125</ele>
        <time>2018-08-18T11:34:23.000Z</time>
        <extensions>
          <ns3:TrackPointExtension>
            <ns3:atemp>15.0</ns3:atemp>
          </ns3:TrackPointExtension>
        </extensions>
      </trkpt>
      <trkpt lat="60.11933125555515289306640625" lon="15.8672499842941761016845703125">
        <ele>160.1999969482421875</ele>
        <time>2018-08-18T11:34:25.000Z</time>
        <extensions>
          <ns3:TrackPointExtension>
            <ns3:atemp>15.0</ns3:atemp>
          </ns3:TrackPointExtension>
        </extensions>
      </trkpt>
      <trkpt lat="60.11958782561123371124267578125" lon="15.86725543253123760223388671875">
        <ele>159.600006103515625</ele>
        <time>2018-08-18T11:34:28.000Z</time>
        <extensions>
          <ns3:TrackPointExtension>
            <ns3:atemp>15.0</ns3:atemp>
          </ns3:TrackPointExtension>
        </extensions>
      </trkpt>
      <trkpt lat="60.11966041289269924163818359375" lon="15.8672389201819896697998046875">
        <ele>159.399993896484375</ele>
        <time>2018-08-18T11:34:29.000Z</time>
        <extensions>
          <ns3:TrackPointExtension>
            <ns3:atemp>15.0</ns3:atemp>
          </ns3:TrackPointExtension>
        </extensions>
      </trkpt>
      <trkpt lat="60.11972394771873950958251953125" lon="15.867211259901523590087890625">
        <ele>159.399993896484375</ele>
        <time>2018-08-18T11:34:30.000Z</time>
        <extensions>
          <ns3:TrackPointExtension>
            <ns3:atemp>15.0</ns3:atemp>
          </ns3:TrackPointExtension>
        </extensions>
      </trkpt>
      <trkpt lat="60.11982989497482776641845703125" lon="15.86713121272623538970947265625">
        <ele>159.1999969482421875</ele>
        <time>2018-08-18T11:34:32.000Z</time>
        <extensions>
          <ns3:TrackPointExtension>
            <ns3:atemp>15.0</ns3:atemp>
          </ns3:TrackPointExtension>
        </extensions>
      </trkpt>
      <trkpt lat="60.11998613364994525909423828125" lon="15.8670005388557910919189453125">
        <ele>159</ele>
        <time>2018-08-18T11:34:35.000Z</time>
        <extensions>
          <ns3:TrackPointExtension>
            <ns3:atemp>15.0</ns3:atemp>
          </ns3:TrackPointExtension>
        </extensions>
      </trkpt>
      <trkpt lat="60.12013499625027179718017578125" lon="15.86681596934795379638671875">
        <ele>159</ele>
        <time>2018-08-18T11:34:38.000Z</time>
        <extensions>
          <ns3:TrackPointExtension>
            <ns3:atemp>15.0</ns3:atemp>
          </ns3:TrackPointExtension>
        </extensions>
      </trkpt>
      <trkpt lat="60.12035711668431758880615234375" lon="15.866567529737949371337890625">
        <ele>159</ele>
        <time>2018-08-18T11:34:42.000Z</time>
        <extensions>
          <ns3:TrackPointExtension>
            <ns3:atemp>15.0</ns3:atemp>
          </ns3:TrackPointExtension>
        </extensions>
      </trkpt>
      <trkpt lat="60.1204157061874866485595703125" lon="15.86652419529855251312255859375">
        <ele>158.8000030517578125</ele>
        <time>2018-08-18T11:34:43.000Z</time>
        <extensions>
          <ns3:TrackPointExtension>
            <ns3:atemp>15.0</ns3:atemp>
          </ns3:TrackPointExtension>
        </extensions>
      </trkpt>
      <trkpt lat="60.12047379277646541595458984375" lon="15.866492427885532379150390625">
        <ele>158.8000030517578125</ele>
        <time>2018-08-18T11:34:44.000Z</time>
        <extensions>
          <ns3:TrackPointExtension>
            <ns3:atemp>15.0</ns3:atemp>
          </ns3:TrackPointExtension>
        </extensions>
      </trkpt>
      <trkpt lat="60.1205877028405666351318359375" lon="15.86644104681909084320068359375">
        <ele>158.600006103515625</ele>
        <time>2018-08-18T11:34:46.000Z</time>
        <extensions>
          <ns3:TrackPointExtension>
            <ns3:atemp>15.0</ns3:atemp>
          </ns3:TrackPointExtension>
        </extensions>
      </trkpt>
      <trkpt lat="60.1206939853727817535400390625" lon="15.86637415923178195953369140625">
        <ele>158.399993896484375</ele>
        <time>2018-08-18T11:34:48.000Z</time>
        <extensions>
          <ns3:TrackPointExtension>
            <ns3:atemp>15.0</ns3:atemp>
          </ns3:TrackPointExtension>
        </extensions>
      </trkpt>
      <trkpt lat="60.1207472942769527435302734375" lon="15.86634867824614048004150390625">
        <ele>158.1999969482421875</ele>
        <time>2018-08-18T11:34:49.000Z</time>
        <extensions>
          <ns3:TrackPointExtension>
            <ns3:atemp>15.0</ns3:atemp>
          </ns3:TrackPointExtension>
        </extensions>
      </trkpt>
      <trkpt lat="60.12080303393304347991943359375" lon="15.86634901352226734161376953125">
        <ele>158</ele>
        <time>2018-08-18T11:34:50.000Z</time>
        <extensions>
          <ns3:TrackPointExtension>
            <ns3:atemp>15.0</ns3:atemp>
          </ns3:TrackPointExtension>
        </extensions>
      </trkpt>
      <trkpt lat="60.120916105806827545166015625" lon="15.86640198715031147003173828125">
        <ele>157.600006103515625</ele>
        <time>2018-08-18T11:34:52.000Z</time>
        <extensions>
          <ns3:TrackPointExtension>
            <ns3:atemp>15.0</ns3:atemp>
          </ns3:TrackPointExtension>
        </extensions>
      </trkpt>
      <trkpt lat="60.1209725998342037200927734375" lon="15.86644372902810573577880859375">
        <ele>157.399993896484375</ele>
        <time>2018-08-18T11:34:53.000Z</time>
        <extensions>
          <ns3:TrackPointExtension>
            <ns3:atemp>15.0</ns3:atemp>
          </ns3:TrackPointExtension>
        </extensions>
      </trkpt>
      <trkpt lat="60.12103387154638767242431640625" lon="15.8664800226688385009765625">
        <ele>157.1999969482421875</ele>
        <time>2018-08-18T11:34:54.000Z</time>
        <extensions>
          <ns3:TrackPointExtension>
            <ns3:atemp>15.0</ns3:atemp>
          </ns3:TrackPointExtension>
        </extensions>
      </trkpt>
      <trkpt lat="60.121100507676601409912109375" lon="15.8665016479790210723876953125">
        <ele>157</ele>
        <time>2018-08-18T11:34:55.000Z</time>
        <extensions>
          <ns3:TrackPointExtension>
            <ns3:atemp>15.0</ns3:atemp>
          </ns3:TrackPointExtension>
        </extensions>
      </trkpt>
      <trkpt lat="60.12117451988160610198974609375" lon="15.86650944314897060394287109375">
        <ele>156.8000030517578125</ele>
        <time>2018-08-18T11:34:56.000Z</time>
        <extensions>
          <ns3:TrackPointExtension>
            <ns3:atemp>15.0</ns3:atemp>
          </ns3:TrackPointExtension>
        </extensions>
      </trkpt>
      <trkpt lat="60.1212525554001331329345703125" lon="15.8665033243596553802490234375">
        <ele>156.600006103515625</ele>
        <time>2018-08-18T11:34:57.000Z</time>
        <extensions>
          <ns3:TrackPointExtension>
            <ns3:atemp>15.0</ns3:atemp>
          </ns3:TrackPointExtension>
        </extensions>
      </trkpt>
      <trkpt lat="60.12133084237575531005859375" lon="15.86649008095264434814453125">
        <ele>156.399993896484375</ele>
        <time>2018-08-18T11:34:58.000Z</time>
        <extensions>
          <ns3:TrackPointExtension>
            <ns3:atemp>15.0</ns3:atemp>
          </ns3:TrackPointExtension>
        </extensions>
      </trkpt>
      <trkpt lat="60.12140871025621891021728515625" lon="15.86647826246917247772216796875">
        <ele>156.1999969482421875</ele>
        <time>2018-08-18T11:34:59.000Z</time>
        <extensions>
          <ns3:TrackPointExtension>
            <ns3:atemp>15.0</ns3:atemp>
          </ns3:TrackPointExtension>
        </extensions>
      </trkpt>
      <trkpt lat="60.12155271135270595550537109375" lon="15.86648027412593364715576171875">
        <ele>155.600006103515625</ele>
        <time>2018-08-18T11:35:01.000Z</time>
        <extensions>
          <ns3:TrackPointExtension>
            <ns3:atemp>15.0</ns3:atemp>
          </ns3:TrackPointExtension>
        </extensions>
      </trkpt>
      <trkpt lat="60.1216817088425159454345703125" lon="15.86651556193828582763671875">
        <ele>155.1999969482421875</ele>
        <time>2018-08-18T11:35:03.000Z</time>
        <extensions>
          <ns3:TrackPointExtension>
            <ns3:atemp>15.0</ns3:atemp>
          </ns3:TrackPointExtension>
        </extensions>
      </trkpt>
      <trkpt lat="60.12180483900010585784912109375" lon="15.866561494767665863037109375">
        <ele>154.8000030517578125</ele>
        <time>2018-08-18T11:35:05.000Z</time>
        <extensions>
          <ns3:TrackPointExtension>
            <ns3:atemp>15.0</ns3:atemp>
          </ns3:TrackPointExtension>
        </extensions>
      </trkpt>
      <trkpt lat="60.12186485342681407928466796875" lon="15.86657834239304065704345703125">
        <ele>154.600006103515625</ele>
        <time>2018-08-18T11:35:06.000Z</time>
        <extensions>
          <ns3:TrackPointExtension>
            <ns3:atemp>15.0</ns3:atemp>
          </ns3:TrackPointExtension>
        </extensions>
      </trkpt>
      <trkpt lat="60.1219210959970951080322265625" lon="15.86659946478903293609619140625">
        <ele>154.399993896484375</ele>
        <time>2018-08-18T11:35:07.000Z</time>
        <extensions>
          <ns3:TrackPointExtension>
            <ns3:atemp>15.0</ns3:atemp>
          </ns3:TrackPointExtension>
        </extensions>
      </trkpt>
      <trkpt lat="60.12197230942547321319580078125" lon="15.8666324056684970855712890625">
        <ele>154.1999969482421875</ele>
        <time>2018-08-18T11:35:08.000Z</time>
        <extensions>
          <ns3:TrackPointExtension>
            <ns3:atemp>15.0</ns3:atemp>
          </ns3:TrackPointExtension>
        </extensions>
      </trkpt>
      <trkpt lat="60.12204707600176334381103515625" lon="15.86675100959837436676025390625">
        <ele>153.8000030517578125</ele>
        <time>2018-08-18T11:35:10.000Z</time>
        <extensions>
          <ns3:TrackPointExtension>
            <ns3:atemp>15.0</ns3:atemp>
          </ns3:TrackPointExtension>
        </extensions>
      </trkpt>
      <trkpt lat="60.12207004241645336151123046875" lon="15.866920910775661468505859375">
        <ele>153.600006103515625</ele>
        <time>2018-08-18T11:35:12.000Z</time>
        <extensions>
          <ns3:TrackPointExtension>
            <ns3:atemp>15.0</ns3:atemp>
          </ns3:TrackPointExtension>
        </extensions>
      </trkpt>
      <trkpt lat="60.12206568382680416107177734375" lon="15.86708645336329936981201171875">
        <ele>153.399993896484375</ele>
        <time>2018-08-18T11:35:14.000Z</time>
        <extensions>
          <ns3:TrackPointExtension>
            <ns3:atemp>15.0</ns3:atemp>
          </ns3:TrackPointExtension>
        </extensions>
      </trkpt>
      <trkpt lat="60.122058056294918060302734375" lon="15.867171026766300201416015625">
        <ele>153.399993896484375</ele>
        <time>2018-08-18T11:35:15.000Z</time>
        <extensions>
          <ns3:TrackPointExtension>
            <ns3:atemp>15.0</ns3:atemp>
          </ns3:TrackPointExtension>
        </extensions>
      </trkpt>
      <trkpt lat="60.1220360957086086273193359375" lon="15.8673401735723018646240234375">
        <ele>153.1999969482421875</ele>
        <time>2018-08-18T11:35:17.000Z</time>
        <extensions>
          <ns3:TrackPointExtension>
            <ns3:atemp>15.0</ns3:atemp>
          </ns3:TrackPointExtension>
        </extensions>
      </trkpt>
      <trkpt lat="60.12201480567455291748046875" lon="15.86761266924440860748291015625">
        <ele>153</ele>
        <time>2018-08-18T11:35:20.000Z</time>
        <extensions>
          <ns3:TrackPointExtension>
            <ns3:atemp>15.0</ns3:atemp>
          </ns3:TrackPointExtension>
        </extensions>
      </trkpt>
      <trkpt lat="60.12208043597638607025146484375" lon="15.86808155290782451629638671875">
        <ele>152.1999969482421875</ele>
        <time>2018-08-18T11:35:25.000Z</time>
        <extensions>
          <ns3:TrackPointExtension>
            <ns3:atemp>15.0</ns3:atemp>
          </ns3:TrackPointExtension>
        </extensions>
      </trkpt>
      <trkpt lat="60.12216308154165744781494140625" lon="15.86837391369044780731201171875">
        <ele>151.600006103515625</ele>
        <time>2018-08-18T11:35:28.000Z</time>
        <extensions>
          <ns3:TrackPointExtension>
            <ns3:atemp>15.0</ns3:atemp>
          </ns3:TrackPointExtension>
        </extensions>
      </trkpt>
      <trkpt lat="60.12220532633364200592041015625" lon="15.86858497001230716705322265625">
        <ele>151</ele>
        <time>2018-08-18T11:35:30.000Z</time>
        <extensions>
          <ns3:TrackPointExtension>
            <ns3:atemp>15.0</ns3:atemp>
          </ns3:TrackPointExtension>
        </extensions>
      </trkpt>
      <trkpt lat="60.122201554477214813232421875" lon="15.86930313147604465484619140625">
        <ele>149.8000030517578125</ele>
        <time>2018-08-18T11:35:36.000Z</time>
        <extensions>
          <ns3:TrackPointExtension>
            <ns3:atemp>15.0</ns3:atemp>
          </ns3:TrackPointExtension>
        </extensions>
      </trkpt>
      <trkpt lat="60.12217246927320957183837890625" lon="15.869645364582538604736328125">
        <ele>149.399993896484375</ele>
        <time>2018-08-18T11:35:39.000Z</time>
        <extensions>
          <ns3:TrackPointExtension>
            <ns3:atemp>15.0</ns3:atemp>
          </ns3:TrackPointExtension>
        </extensions>
      </trkpt>
      <trkpt lat="60.122269280254840850830078125" lon="15.87079712189733982086181640625">
        <ele>147.1999969482421875</ele>
        <time>2018-08-18T11:35:48.000Z</time>
        <extensions>
          <ns3:TrackPointExtension>
            <ns3:atemp>15.0</ns3:atemp>
          </ns3:TrackPointExtension>
        </extensions>
      </trkpt>
      <trkpt lat="60.12228528968989849090576171875" lon="15.87106148712337017059326171875">
        <ele>146.8000030517578125</ele>
        <time>2018-08-18T11:35:50.000Z</time>
        <extensions>
          <ns3:TrackPointExtension>
            <ns3:atemp>15.0</ns3:atemp>
          </ns3:TrackPointExtension>
        </extensions>
      </trkpt>
      <trkpt lat="60.122162662446498870849609375" lon="15.8719415031373500823974609375">
        <ele>145.600006103515625</ele>
        <time>2018-08-18T11:35:57.000Z</time>
        <extensions>
          <ns3:TrackPointExtension>
            <ns3:atemp>15.0</ns3:atemp>
          </ns3:TrackPointExtension>
        </extensions>
      </trkpt>
      <trkpt lat="60.12210038490593433380126953125" lon="15.87256486527621746063232421875">
        <ele>144.600006103515625</ele>
        <time>2018-08-18T11:36:01.000Z</time>
        <extensions>
          <ns3:TrackPointExtension>
            <ns3:atemp>15.0</ns3:atemp>
          </ns3:TrackPointExtension>
        </extensions>
      </trkpt>
      <trkpt lat="60.12214086949825286865234375" lon="15.8731967769563198089599609375">
        <ele>143.399993896484375</ele>
        <time>2018-08-18T11:36:05.000Z</time>
        <extensions>
          <ns3:TrackPointExtension>
            <ns3:atemp>15.0</ns3:atemp>
          </ns3:TrackPointExtension>
        </extensions>
      </trkpt>
      <trkpt lat="60.12216375209391117095947265625" lon="15.873336754739284515380859375">
        <ele>143.1999969482421875</ele>
        <time>2018-08-18T11:36:06.000Z</time>
        <extensions>
          <ns3:TrackPointExtension>
            <ns3:atemp>15.0</ns3:atemp>
          </ns3:TrackPointExtension>
        </extensions>
      </trkpt>
      <trkpt lat="60.12220792472362518310546875" lon="15.8735994435846805572509765625">
        <ele>142.600006103515625</ele>
        <time>2018-08-18T11:36:08.000Z</time>
        <extensions>
          <ns3:TrackPointExtension>
            <ns3:atemp>15.0</ns3:atemp>
          </ns3:TrackPointExtension>
        </extensions>
      </trkpt>
      <trkpt lat="60.12229870073497295379638671875" lon="15.8742381446063518524169921875">
        <ele>141.600006103515625</ele>
        <time>2018-08-18T11:36:13.000Z</time>
        <extensions>
          <ns3:TrackPointExtension>
            <ns3:atemp>15.0</ns3:atemp>
          </ns3:TrackPointExtension>
        </extensions>
      </trkpt>
      <trkpt lat="60.12229702435433864593505859375" lon="15.874383486807346343994140625">
        <ele>141.600006103515625</ele>
        <time>2018-08-18T11:36:14.000Z</time>
        <extensions>
          <ns3:TrackPointExtension>
            <ns3:atemp>15.0</ns3:atemp>
          </ns3:TrackPointExtension>
        </extensions>
      </trkpt>
      <trkpt lat="60.12226953171193599700927734375" lon="15.874679200351238250732421875">
        <ele>141.600006103515625</ele>
        <time>2018-08-18T11:36:16.000Z</time>
        <extensions>
          <ns3:TrackPointExtension>
            <ns3:atemp>15.0</ns3:atemp>
          </ns3:TrackPointExtension>
        </extensions>
      </trkpt>
      <trkpt lat="60.12214849703013896942138671875" lon="15.8752057515084743499755859375">
        <ele>141.8000030517578125</ele>
        <time>2018-08-18T11:36:20.000Z</time>
        <extensions>
          <ns3:TrackPointExtension>
            <ns3:atemp>15.0</ns3:atemp>
          </ns3:TrackPointExtension>
        </extensions>
      </trkpt>
      <trkpt lat="60.12204841710627079010009765625" lon="15.87558017112314701080322265625">
        <ele>142</ele>
        <time>2018-08-18T11:36:23.000Z</time>
        <extensions>
          <ns3:TrackPointExtension>
            <ns3:atemp>15.0</ns3:atemp>
          </ns3:TrackPointExtension>
        </extensions>
      </trkpt>
      <trkpt lat="60.1218724809587001800537109375" lon="15.87661676108837127685546875">
        <ele>141.8000030517578125</ele>
        <time>2018-08-18T11:36:31.000Z</time>
        <extensions>
          <ns3:TrackPointExtension>
            <ns3:atemp>15.0</ns3:atemp>
          </ns3:TrackPointExtension>
        </extensions>
      </trkpt>
      <trkpt lat="60.1215667091310024261474609375" lon="15.87749728001654148101806640625">
        <ele>141.600006103515625</ele>
        <time>2018-08-18T11:36:39.000Z</time>
        <extensions>
          <ns3:TrackPointExtension>
            <ns3:atemp>16.0</ns3:atemp>
          </ns3:TrackPointExtension>
        </extensions>
      </trkpt>
      <trkpt lat="60.1213916949927806854248046875" lon="15.8779167942702770233154296875">
        <ele>141.600006103515625</ele>
        <time>2018-08-18T11:36:43.000Z</time>
        <extensions>
          <ns3:TrackPointExtension>
            <ns3:atemp>16.0</ns3:atemp>
          </ns3:TrackPointExtension>
        </extensions>
      </trkpt>
      <trkpt lat="60.12129597365856170654296875" lon="15.8785593509674072265625">
        <ele>141.1999969482421875</ele>
        <time>2018-08-18T11:36:48.000Z</time>
        <extensions>
          <ns3:TrackPointExtension>
            <ns3:atemp>16.0</ns3:atemp>
          </ns3:TrackPointExtension>
        </extensions>
      </trkpt>
      <trkpt lat="60.121202766895294189453125" lon="15.87932604365050792694091796875">
        <ele>140.600006103515625</ele>
        <time>2018-08-18T11:36:54.000Z</time>
        <extensions>
          <ns3:TrackPointExtension>
            <ns3:atemp>16.0</ns3:atemp>
          </ns3:TrackPointExtension>
        </extensions>
      </trkpt>
      <trkpt lat="60.12102649547159671783447265625" lon="15.87983080185949802398681640625">
        <ele>140.600006103515625</ele>
        <time>2018-08-18T11:36:59.000Z</time>
        <extensions>
          <ns3:TrackPointExtension>
            <ns3:atemp>16.0</ns3:atemp>
          </ns3:TrackPointExtension>
        </extensions>
      </trkpt>
      <trkpt lat="60.12098240666091442108154296875" lon="15.8799170516431331634521484375">
        <ele>140.600006103515625</ele>
        <time>2018-08-18T11:37:00.000Z</time>
        <extensions>
          <ns3:TrackPointExtension>
            <ns3:atemp>16.0</ns3:atemp>
          </ns3:TrackPointExtension>
        </extensions>
      </trkpt>
      <trkpt lat="60.12055157683789730072021484375" lon="15.880611240863800048828125">
        <ele>140.600006103515625</ele>
        <time>2018-08-18T11:37:10.000Z</time>
        <extensions>
          <ns3:TrackPointExtension>
            <ns3:atemp>16.0</ns3:atemp>
          </ns3:TrackPointExtension>
        </extensions>
      </trkpt>
      <trkpt lat="60.12012577615678310394287109375" lon="15.88139922358095645904541015625">
        <ele>140.8000030517578125</ele>
        <time>2018-08-18T11:37:19.000Z</time>
        <extensions>
          <ns3:TrackPointExtension>
            <ns3:atemp>16.0</ns3:atemp>
          </ns3:TrackPointExtension>
        </extensions>
      </trkpt>
      <trkpt lat="60.119707770645618438720703125" lon="15.8822207339107990264892578125">
        <ele>141</ele>
        <time>2018-08-18T11:37:28.000Z</time>
        <extensions>
          <ns3:TrackPointExtension>
            <ns3:atemp>16.0</ns3:atemp>
          </ns3:TrackPointExtension>
        </extensions>
      </trkpt>
      <trkpt lat="60.119617246091365814208984375" lon="15.8824135176837444305419921875">
        <ele>140.600006103515625</ele>
        <time>2018-08-18T11:37:30.000Z</time>
        <extensions>
          <ns3:TrackPointExtension>
            <ns3:atemp>16.0</ns3:atemp>
          </ns3:TrackPointExtension>
        </extensions>
      </trkpt>
      <trkpt lat="60.1192154176533222198486328125" lon="15.88323645293712615966796875">
        <ele>139.399993896484375</ele>
        <time>2018-08-18T11:37:39.000Z</time>
        <extensions>
          <ns3:TrackPointExtension>
            <ns3:atemp>16.0</ns3:atemp>
          </ns3:TrackPointExtension>
        </extensions>
      </trkpt>
      <trkpt lat="60.11877327226102352142333984375" lon="15.88392955251038074493408203125">
        <ele>138.8000030517578125</ele>
        <time>2018-08-18T11:37:48.000Z</time>
        <extensions>
          <ns3:TrackPointExtension>
            <ns3:atemp>16.0</ns3:atemp>
          </ns3:TrackPointExtension>
        </extensions>
      </trkpt>
      <trkpt lat="60.118339173495769500732421875" lon="15.88470186106860637664794921875">
        <ele>138</ele>
        <time>2018-08-18T11:37:57.000Z</time>
        <extensions>
          <ns3:TrackPointExtension>
            <ns3:atemp>16.0</ns3:atemp>
          </ns3:TrackPointExtension>
        </extensions>
      </trkpt>
      <trkpt lat="60.11808427982032299041748046875" lon="15.88513956405222415924072265625">
        <ele>137.399993896484375</ele>
        <time>2018-08-18T11:38:02.000Z</time>
        <extensions>
          <ns3:TrackPointExtension>
            <ns3:atemp>16.0</ns3:atemp>
          </ns3:TrackPointExtension>
        </extensions>
      </trkpt>
      <trkpt lat="60.11780231259763240814208984375" lon="15.8857401274144649505615234375">
        <ele>136.8000030517578125</ele>
        <time>2018-08-18T11:38:08.000Z</time>
        <extensions>
          <ns3:TrackPointExtension>
            <ns3:atemp>16.0</ns3:atemp>
          </ns3:TrackPointExtension>
        </extensions>
      </trkpt>
      <trkpt lat="60.1174424774944782257080078125" lon="15.88654537685215473175048828125">
        <ele>135.8000030517578125</ele>
        <time>2018-08-18T11:38:16.000Z</time>
        <extensions>
          <ns3:TrackPointExtension>
            <ns3:atemp>16.0</ns3:atemp>
          </ns3:TrackPointExtension>
        </extensions>
      </trkpt>
      <trkpt lat="60.11739545501768589019775390625" lon="15.88663321919739246368408203125">
        <ele>135.8000030517578125</ele>
        <time>2018-08-18T11:38:17.000Z</time>
        <extensions>
          <ns3:TrackPointExtension>
            <ns3:atemp>16.0</ns3:atemp>
          </ns3:TrackPointExtension>
        </extensions>
      </trkpt>
      <trkpt lat="60.1169608533382415771484375" lon="15.88736278004944324493408203125">
        <ele>135</ele>
        <time>2018-08-18T11:38:26.000Z</time>
        <extensions>
          <ns3:TrackPointExtension>
            <ns3:atemp>16.0</ns3:atemp>
          </ns3:TrackPointExtension>
        </extensions>
      </trkpt>
      <trkpt lat="60.116735212504863739013671875" lon="15.8876988105475902557373046875">
        <ele>134.399993896484375</ele>
        <time>2018-08-18T11:38:30.000Z</time>
        <extensions>
          <ns3:TrackPointExtension>
            <ns3:atemp>16.0</ns3:atemp>
          </ns3:TrackPointExtension>
        </extensions>
      </trkpt>
      <trkpt lat="60.11636339128017425537109375" lon="15.8877430669963359832763671875">
        <ele>134</ele>
        <time>2018-08-18T11:38:36.000Z</time>
        <extensions>
          <ns3:TrackPointExtension>
            <ns3:atemp>16.0</ns3:atemp>
          </ns3:TrackPointExtension>
        </extensions>
      </trkpt>
      <trkpt lat="60.11623271740972995758056640625" lon="15.88769487105309963226318359375">
        <ele>134</ele>
        <time>2018-08-18T11:38:38.000Z</time>
        <extensions>
          <ns3:TrackPointExtension>
            <ns3:atemp>16.0</ns3:atemp>
          </ns3:TrackPointExtension>
        </extensions>
      </trkpt>
      <trkpt lat="60.11590716429054737091064453125" lon="15.88781297206878662109375">
        <ele>133.600006103515625</ele>
        <time>2018-08-18T11:38:43.000Z</time>
        <extensions>
          <ns3:TrackPointExtension>
            <ns3:atemp>16.0</ns3:atemp>
          </ns3:TrackPointExtension>
        </extensions>
      </trkpt>
      <trkpt lat="60.115642212331295013427734375" lon="15.8882999606430530548095703125">
        <ele>132</ele>
        <time>2018-08-18T11:38:48.000Z</time>
        <extensions>
          <ns3:TrackPointExtension>
            <ns3:atemp>16.0</ns3:atemp>
          </ns3:TrackPointExtension>
        </extensions>
      </trkpt>
      <trkpt lat="60.11545990593731403350830078125" lon="15.88884889148175716400146484375">
        <ele>130.1999969482421875</ele>
        <time>2018-08-18T11:38:53.000Z</time>
        <extensions>
          <ns3:TrackPointExtension>
            <ns3:atemp>16.0</ns3:atemp>
          </ns3:TrackPointExtension>
        </extensions>
      </trkpt>
      <trkpt lat="60.1151324249804019927978515625" lon="15.8896477706730365753173828125">
        <ele>127.59999847412109375</ele>
        <time>2018-08-18T11:39:01.000Z</time>
        <extensions>
          <ns3:TrackPointExtension>
            <ns3:atemp>16.0</ns3:atemp>
          </ns3:TrackPointExtension>
        </extensions>
      </trkpt>
      <trkpt lat="60.114789269864559173583984375" lon="15.89013115502893924713134765625">
        <ele>125.8000030517578125</ele>
        <time>2018-08-18T11:39:08.000Z</time>
        <extensions>
          <ns3:TrackPointExtension>
            <ns3:atemp>16.0</ns3:atemp>
          </ns3:TrackPointExtension>
        </extensions>
      </trkpt>
      <trkpt lat="60.11425928212702274322509765625" lon="15.89057841338217258453369140625">
        <ele>124.1999969482421875</ele>
        <time>2018-08-18T11:39:17.000Z</time>
        <extensions>
          <ns3:TrackPointExtension>
            <ns3:atemp>16.0</ns3:atemp>
          </ns3:TrackPointExtension>
        </extensions>
      </trkpt>
      <trkpt lat="60.11377380229532718658447265625" lon="15.8911977522075176239013671875">
        <ele>123.1999969482421875</ele>
        <time>2018-08-18T11:39:26.000Z</time>
        <extensions>
          <ns3:TrackPointExtension>
            <ns3:atemp>16.0</ns3:atemp>
          </ns3:TrackPointExtension>
        </extensions>
      </trkpt>
      <trkpt lat="60.1137286238372325897216796875" lon="15.89128911495208740234375">
        <ele>123.1999969482421875</ele>
        <time>2018-08-18T11:39:27.000Z</time>
        <extensions>
          <ns3:TrackPointExtension>
            <ns3:atemp>16.0</ns3:atemp>
          </ns3:TrackPointExtension>
        </extensions>
      </trkpt>
      <trkpt lat="60.1135700382292270660400390625" lon="15.89169823564589023590087890625">
        <ele>123</ele>
        <time>2018-08-18T11:39:31.000Z</time>
        <extensions>
          <ns3:TrackPointExtension>
            <ns3:atemp>16.0</ns3:atemp>
          </ns3:TrackPointExtension>
        </extensions>
      </trkpt>
      <trkpt lat="60.11350608430802822113037109375" lon="15.891926474869251251220703125">
        <ele>122.8000030517578125</ele>
        <time>2018-08-18T11:39:33.000Z</time>
        <extensions>
          <ns3:TrackPointExtension>
            <ns3:atemp>16.0</ns3:atemp>
          </ns3:TrackPointExtension>
        </extensions>
      </trkpt>
      <trkpt lat="60.11321120895445346832275390625" lon="15.89293934404850006103515625">
        <ele>122.59999847412109375</ele>
        <time>2018-08-18T11:39:42.000Z</time>
        <extensions>
          <ns3:TrackPointExtension>
            <ns3:atemp>16.0</ns3:atemp>
          </ns3:TrackPointExtension>
        </extensions>
      </trkpt>
      <trkpt lat="60.1130238734185695648193359375" lon="15.893630348145961761474609375">
        <ele>122.8000030517578125</ele>
        <time>2018-08-18T11:39:48.000Z</time>
        <extensions>
          <ns3:TrackPointExtension>
            <ns3:atemp>16.0</ns3:atemp>
          </ns3:TrackPointExtension>
        </extensions>
      </trkpt>
      <trkpt lat="60.11283083818852901458740234375" lon="15.89459736831486225128173828125">
        <ele>123</ele>
        <time>2018-08-18T11:39:56.000Z</time>
        <extensions>
          <ns3:TrackPointExtension>
            <ns3:atemp>16.0</ns3:atemp>
          </ns3:TrackPointExtension>
        </extensions>
      </trkpt>
      <trkpt lat="60.11241794563829898834228515625" lon="15.89503875933587551116943359375">
        <ele>123.1999969482421875</ele>
        <time>2018-08-18T11:40:04.000Z</time>
        <extensions>
          <ns3:TrackPointExtension>
            <ns3:atemp>16.0</ns3:atemp>
          </ns3:TrackPointExtension>
        </extensions>
      </trkpt>
      <trkpt lat="60.11187479831278324127197265625" lon="15.89522550813853740692138671875">
        <ele>123</ele>
        <time>2018-08-18T11:40:13.000Z</time>
        <extensions>
          <ns3:TrackPointExtension>
            <ns3:atemp>16.0</ns3:atemp>
          </ns3:TrackPointExtension>
        </extensions>
      </trkpt>
      <trkpt lat="60.11135545559227466583251953125" lon="15.89520581066608428955078125">
        <ele>123</ele>
        <time>2018-08-18T11:40:21.000Z</time>
        <extensions>
          <ns3:TrackPointExtension>
            <ns3:atemp>16.0</ns3:atemp>
          </ns3:TrackPointExtension>
        </extensions>
      </trkpt>
      <trkpt lat="60.11117021553218364715576171875" lon="15.8950882963836193084716796875">
        <ele>123</ele>
        <time>2018-08-18T11:40:24.000Z</time>
        <extensions>
          <ns3:TrackPointExtension>
            <ns3:atemp>16.0</ns3:atemp>
          </ns3:TrackPointExtension>
        </extensions>
      </trkpt>
      <trkpt lat="60.11086930520832538604736328125" lon="15.89450164698064327239990234375">
        <ele>123</ele>
        <time>2018-08-18T11:40:31.000Z</time>
        <extensions>
          <ns3:TrackPointExtension>
            <ns3:atemp>16.0</ns3:atemp>
          </ns3:TrackPointExtension>
        </extensions>
      </trkpt>
      <trkpt lat="60.11053889058530330657958984375" lon="15.89351174421608448028564453125">
        <ele>122.8000030517578125</ele>
        <time>2018-08-18T11:40:41.000Z</time>
        <extensions>
          <ns3:TrackPointExtension>
            <ns3:atemp>16.0</ns3:atemp>
          </ns3:TrackPointExtension>
        </extensions>
      </trkpt>
      <trkpt lat="60.1103778742253780364990234375" lon="15.89287270791828632354736328125">
        <ele>122.59999847412109375</ele>
        <time>2018-08-18T11:40:47.000Z</time>
        <extensions>
          <ns3:TrackPointExtension>
            <ns3:atemp>16.0</ns3:atemp>
          </ns3:TrackPointExtension>
        </extensions>
      </trkpt>
      <trkpt lat="60.11034174822270870208740234375" lon="15.89277883060276508331298828125">
        <ele>122.59999847412109375</ele>
        <time>2018-08-18T11:40:48.000Z</time>
        <extensions>
          <ns3:TrackPointExtension>
            <ns3:atemp>16.0</ns3:atemp>
          </ns3:TrackPointExtension>
        </extensions>
      </trkpt>
      <trkpt lat="60.10994377546012401580810546875" lon="15.89264220558106899261474609375">
        <ele>122.59999847412109375</ele>
        <time>2018-08-18T11:40:55.000Z</time>
        <extensions>
          <ns3:TrackPointExtension>
            <ns3:atemp>16.0</ns3:atemp>
          </ns3:TrackPointExtension>
        </extensions>
      </trkpt>
      <trkpt lat="60.1098256744444370269775390625" lon="15.89270590804517269134521484375">
        <ele>122.59999847412109375</ele>
        <time>2018-08-18T11:40:57.000Z</time>
        <extensions>
          <ns3:TrackPointExtension>
            <ns3:atemp>16.0</ns3:atemp>
          </ns3:TrackPointExtension>
        </extensions>
      </trkpt>
      <trkpt lat="60.1095899753272533416748046875" lon="15.89271646924316883087158203125">
        <ele>122.8000030517578125</ele>
        <time>2018-08-18T11:41:01.000Z</time>
        <extensions>
          <ns3:TrackPointExtension>
            <ns3:atemp>16.0</ns3:atemp>
          </ns3:TrackPointExtension>
        </extensions>
      </trkpt>
      <trkpt lat="60.109049342572689056396484375" lon="15.8925891481339931488037109375">
        <ele>122.8000030517578125</ele>
        <time>2018-08-18T11:41:11.000Z</time>
        <extensions>
          <ns3:TrackPointExtension>
            <ns3:atemp>16.0</ns3:atemp>
          </ns3:TrackPointExtension>
        </extensions>
      </trkpt>
      <trkpt lat="60.1088312454521656036376953125" lon="15.8925723843276500701904296875">
        <ele>122.8000030517578125</ele>
        <time>2018-08-18T11:41:15.000Z</time>
        <extensions>
          <ns3:TrackPointExtension>
            <ns3:atemp>16.0</ns3:atemp>
          </ns3:TrackPointExtension>
        </extensions>
      </trkpt>
      <trkpt lat="60.10844291187822818756103515625" lon="15.89257850311696529388427734375">
        <ele>122.8000030517578125</ele>
        <time>2018-08-18T11:41:22.000Z</time>
        <extensions>
          <ns3:TrackPointExtension>
            <ns3:atemp>16.0</ns3:atemp>
          </ns3:TrackPointExtension>
        </extensions>
      </trkpt>
      <trkpt lat="60.107856430113315582275390625" lon="15.89261504821479320526123046875">
        <ele>122.8000030517578125</ele>
        <time>2018-08-18T11:41:31.000Z</time>
        <extensions>
          <ns3:TrackPointExtension>
            <ns3:atemp>16.0</ns3:atemp>
          </ns3:TrackPointExtension>
        </extensions>
      </trkpt>
      <trkpt lat="60.10758929885923862457275390625" lon="15.8926380984485149383544921875">
        <ele>123</ele>
        <time>2018-08-18T11:41:35.000Z</time>
        <extensions>
          <ns3:TrackPointExtension>
            <ns3:atemp>16.0</ns3:atemp>
          </ns3:TrackPointExtension>
        </extensions>
      </trkpt>
      <trkpt lat="60.10701547376811504364013671875" lon="15.8926045708358287811279296875">
        <ele>123</ele>
        <time>2018-08-18T11:41:44.000Z</time>
        <extensions>
          <ns3:TrackPointExtension>
            <ns3:atemp>16.0</ns3:atemp>
          </ns3:TrackPointExtension>
        </extensions>
      </trkpt>
      <trkpt lat="60.1068990491330623626708984375" lon="15.89256492443382740020751953125">
        <ele>123</ele>
        <time>2018-08-18T11:41:46.000Z</time>
        <extensions>
          <ns3:TrackPointExtension>
            <ns3:atemp>16.0</ns3:atemp>
          </ns3:TrackPointExtension>
        </extensions>
      </trkpt>
      <trkpt lat="60.10654784739017486572265625" lon="15.89238789863884449005126953125">
        <ele>123</ele>
        <time>2018-08-18T11:41:52.000Z</time>
        <extensions>
          <ns3:TrackPointExtension>
            <ns3:atemp>16.0</ns3:atemp>
          </ns3:TrackPointExtension>
        </extensions>
      </trkpt>
      <trkpt lat="60.1060147583484649658203125" lon="15.8922480046749114990234375">
        <ele>123</ele>
        <time>2018-08-18T11:42:01.000Z</time>
        <extensions>
          <ns3:TrackPointExtension>
            <ns3:atemp>16.0</ns3:atemp>
          </ns3:TrackPointExtension>
        </extensions>
      </trkpt>
      <trkpt lat="60.10547420941293239593505859375" lon="15.892291255295276641845703125">
        <ele>123.1999969482421875</ele>
        <time>2018-08-18T11:42:10.000Z</time>
        <extensions>
          <ns3:TrackPointExtension>
            <ns3:atemp>16.0</ns3:atemp>
          </ns3:TrackPointExtension>
        </extensions>
      </trkpt>
      <trkpt lat="60.1051314733922481536865234375" lon="15.8922924287617206573486328125">
        <ele>123.1999969482421875</ele>
        <time>2018-08-18T11:42:16.000Z</time>
        <extensions>
          <ns3:TrackPointExtension>
            <ns3:atemp>16.0</ns3:atemp>
          </ns3:TrackPointExtension>
        </extensions>
      </trkpt>
      <trkpt lat="60.10485210455954074859619140625" lon="15.89204474352300167083740234375">
        <ele>123.1999969482421875</ele>
        <time>2018-08-18T11:42:21.000Z</time>
        <extensions>
          <ns3:TrackPointExtension>
            <ns3:atemp>16.0</ns3:atemp>
          </ns3:TrackPointExtension>
        </extensions>
      </trkpt>
      <trkpt lat="60.10475370101630687713623046875" lon="15.89189638383686542510986328125">
        <ele>123</ele>
        <time>2018-08-18T11:42:23.000Z</time>
        <extensions>
          <ns3:TrackPointExtension>
            <ns3:atemp>16.0</ns3:atemp>
          </ns3:TrackPointExtension>
        </extensions>
      </trkpt>
      <trkpt lat="60.10449034161865711212158203125" lon="15.89139439165592193603515625">
        <ele>123</ele>
        <time>2018-08-18T11:42:29.000Z</time>
        <extensions>
          <ns3:TrackPointExtension>
            <ns3:atemp>16.0</ns3:atemp>
          </ns3:TrackPointExtension>
        </extensions>
      </trkpt>
      <trkpt lat="60.10416948236525058746337890625" lon="15.89151467196643352508544921875">
        <ele>123</ele>
        <time>2018-08-18T11:42:35.000Z</time>
        <extensions>
          <ns3:TrackPointExtension>
            <ns3:atemp>16.0</ns3:atemp>
          </ns3:TrackPointExtension>
        </extensions>
      </trkpt>
      <trkpt lat="60.10401525534689426422119140625" lon="15.89168985374271869659423828125">
        <ele>123.1999969482421875</ele>
        <time>2018-08-18T11:42:38.000Z</time>
        <extensions>
          <ns3:TrackPointExtension>
            <ns3:atemp>16.0</ns3:atemp>
          </ns3:TrackPointExtension>
        </extensions>
      </trkpt>
      <trkpt lat="60.10378793813288211822509765625" lon="15.8918267302215099334716796875">
        <ele>123.59999847412109375</ele>
        <time>2018-08-18T11:42:42.000Z</time>
        <extensions>
          <ns3:TrackPointExtension>
            <ns3:atemp>16.0</ns3:atemp>
          </ns3:TrackPointExtension>
        </extensions>
      </trkpt>
      <trkpt lat="60.10350613854825496673583984375" lon="15.89236225001513957977294921875">
        <ele>124.40000152587890625</ele>
        <time>2018-08-18T11:42:49.000Z</time>
        <extensions>
          <ns3:TrackPointExtension>
            <ns3:atemp>16.0</ns3:atemp>
          </ns3:TrackPointExtension>
        </extensions>
      </trkpt>
      <trkpt lat="60.10334420017898082733154296875" lon="15.8928057365119457244873046875">
        <ele>125</ele>
        <time>2018-08-18T11:42:54.000Z</time>
        <extensions>
          <ns3:TrackPointExtension>
            <ns3:atemp>16.0</ns3:atemp>
          </ns3:TrackPointExtension>
        </extensions>
      </trkpt>
      <trkpt lat="60.1031281985342502593994140625" lon="15.8929639868438243865966796875">
        <ele>125.1999969482421875</ele>
        <time>2018-08-18T11:42:58.000Z</time>
        <extensions>
          <ns3:TrackPointExtension>
            <ns3:atemp>16.0</ns3:atemp>
          </ns3:TrackPointExtension>
        </extensions>
      </trkpt>
      <trkpt lat="60.103069357573986053466796875" lon="15.8929898031055927276611328125">
        <ele>125.40000152587890625</ele>
        <time>2018-08-18T11:42:59.000Z</time>
        <extensions>
          <ns3:TrackPointExtension>
            <ns3:atemp>16.0</ns3:atemp>
          </ns3:TrackPointExtension>
        </extensions>
      </trkpt>
      <trkpt lat="60.10252528823912143707275390625" lon="15.89327554218471050262451171875">
        <ele>126</ele>
        <time>2018-08-18T11:43:08.000Z</time>
        <extensions>
          <ns3:TrackPointExtension>
            <ns3:atemp>16.0</ns3:atemp>
          </ns3:TrackPointExtension>
        </extensions>
      </trkpt>
      <trkpt lat="60.101993791759014129638671875" lon="15.89380829595029354095458984375">
        <ele>127</ele>
        <time>2018-08-18T11:43:17.000Z</time>
        <extensions>
          <ns3:TrackPointExtension>
            <ns3:atemp>16.0</ns3:atemp>
          </ns3:TrackPointExtension>
        </extensions>
      </trkpt>
      <trkpt lat="60.10187217034399509429931640625" lon="15.89388155378401279449462890625">
        <ele>127.1999969482421875</ele>
        <time>2018-08-18T11:43:19.000Z</time>
        <extensions>
          <ns3:TrackPointExtension>
            <ns3:atemp>16.0</ns3:atemp>
          </ns3:TrackPointExtension>
        </extensions>
      </trkpt>
      <trkpt lat="60.10145508684217929840087890625" lon="15.89378667064011096954345703125">
        <ele>127.40000152587890625</ele>
        <time>2018-08-18T11:43:25.000Z</time>
        <extensions>
          <ns3:TrackPointExtension>
            <ns3:atemp>16.0</ns3:atemp>
          </ns3:TrackPointExtension>
        </extensions>
      </trkpt>
      <trkpt lat="60.1010146178305149078369140625" lon="15.89364618994295597076416015625">
        <ele>127.59999847412109375</ele>
        <time>2018-08-18T11:43:32.000Z</time>
        <extensions>
          <ns3:TrackPointExtension>
            <ns3:atemp>16.0</ns3:atemp>
          </ns3:TrackPointExtension>
        </extensions>
      </trkpt>
      <trkpt lat="60.1007078401744365692138671875" lon="15.89359606616199016571044921875">
        <ele>127.8000030517578125</ele>
        <time>2018-08-18T11:43:37.000Z</time>
        <extensions>
          <ns3:TrackPointExtension>
            <ns3:atemp>16.0</ns3:atemp>
          </ns3:TrackPointExtension>
        </extensions>
      </trkpt>
      <trkpt lat="60.10013326071202754974365234375" lon="15.89371810667216777801513671875">
        <ele>128.399993896484375</ele>
        <time>2018-08-18T11:43:47.000Z</time>
        <extensions>
          <ns3:TrackPointExtension>
            <ns3:atemp>16.0</ns3:atemp>
          </ns3:TrackPointExtension>
        </extensions>
      </trkpt>
      <trkpt lat="60.09970746003091335296630859375" lon="15.89377275668084621429443359375">
        <ele>129</ele>
        <time>2018-08-18T11:43:55.000Z</time>
        <extensions>
          <ns3:TrackPointExtension>
            <ns3:atemp>16.0</ns3:atemp>
          </ns3:TrackPointExtension>
        </extensions>
      </trkpt>
      <trkpt lat="60.09958776645362377166748046875" lon="15.893675275146961212158203125">
        <ele>129</ele>
        <time>2018-08-18T11:43:57.000Z</time>
        <extensions>
          <ns3:TrackPointExtension>
            <ns3:atemp>16.0</ns3:atemp>
          </ns3:TrackPointExtension>
        </extensions>
      </trkpt>
      <trkpt lat="60.0989935733377933502197265625" lon="15.8935664780437946319580078125">
        <ele>129.399993896484375</ele>
        <time>2018-08-18T11:44:06.000Z</time>
        <extensions>
          <ns3:TrackPointExtension>
            <ns3:atemp>16.0</ns3:atemp>
          </ns3:TrackPointExtension>
        </extensions>
      </trkpt>
      <trkpt lat="60.098736919462680816650390625" lon="15.89351342059671878814697265625">
        <ele>129.399993896484375</ele>
        <time>2018-08-18T11:44:10.000Z</time>
        <extensions>
          <ns3:TrackPointExtension>
            <ns3:atemp>16.0</ns3:atemp>
          </ns3:TrackPointExtension>
        </extensions>
      </trkpt>
      <trkpt lat="60.09862150065600872039794921875" lon="15.89345022104680538177490234375">
        <ele>129.600006103515625</ele>
        <time>2018-08-18T11:44:12.000Z</time>
        <extensions>
          <ns3:TrackPointExtension>
            <ns3:atemp>16.0</ns3:atemp>
          </ns3:TrackPointExtension>
        </extensions>
      </trkpt>
      <trkpt lat="60.09812663309276103973388671875" lon="15.8929780684411525726318359375">
        <ele>129.399993896484375</ele>
        <time>2018-08-18T11:44:21.000Z</time>
        <extensions>
          <ns3:TrackPointExtension>
            <ns3:atemp>16.0</ns3:atemp>
          </ns3:TrackPointExtension>
        </extensions>
      </trkpt>
      <trkpt lat="60.0976903550326824188232421875" lon="15.89246417395770549774169921875">
        <ele>129.399993896484375</ele>
        <time>2018-08-18T11:44:29.000Z</time>
        <extensions>
          <ns3:TrackPointExtension>
            <ns3:atemp>16.0</ns3:atemp>
          </ns3:TrackPointExtension>
        </extensions>
      </trkpt>
      <trkpt lat="60.0974697433412075042724609375" lon="15.89228756725788116455078125">
        <ele>129.399993896484375</ele>
        <time>2018-08-18T11:44:33.000Z</time>
        <extensions>
          <ns3:TrackPointExtension>
            <ns3:atemp>16.0</ns3:atemp>
          </ns3:TrackPointExtension>
        </extensions>
      </trkpt>
      <trkpt lat="60.097130946815013885498046875" lon="15.8916292525827884674072265625">
        <ele>129</ele>
        <time>2018-08-18T11:44:41.000Z</time>
        <extensions>
          <ns3:TrackPointExtension>
            <ns3:atemp>16.0</ns3:atemp>
          </ns3:TrackPointExtension>
        </extensions>
      </trkpt>
      <trkpt lat="60.09707638062536716461181640625" lon="15.89157083071768283843994140625">
        <ele>129</ele>
        <time>2018-08-18T11:44:42.000Z</time>
        <extensions>
          <ns3:TrackPointExtension>
            <ns3:atemp>16.0</ns3:atemp>
          </ns3:TrackPointExtension>
        </extensions>
      </trkpt>
      <trkpt lat="60.0965993665158748626708984375" lon="15.89119917713105678558349609375">
        <ele>129</ele>
        <time>2018-08-18T11:44:50.000Z</time>
        <extensions>
          <ns3:TrackPointExtension>
            <ns3:atemp>16.0</ns3:atemp>
          </ns3:TrackPointExtension>
        </extensions>
      </trkpt>
      <trkpt lat="60.0964813493192195892333984375" lon="15.89108451269567012786865234375">
        <ele>129</ele>
        <time>2018-08-18T11:44:52.000Z</time>
        <extensions>
          <ns3:TrackPointExtension>
            <ns3:atemp>16.0</ns3:atemp>
          </ns3:TrackPointExtension>
        </extensions>
      </trkpt>
      <trkpt lat="60.09601020254194736480712890625" lon="15.89044447056949138641357421875">
        <ele>129.399993896484375</ele>
        <time>2018-08-18T11:45:02.000Z</time>
        <extensions>
          <ns3:TrackPointExtension>
            <ns3:atemp>16.0</ns3:atemp>
          </ns3:TrackPointExtension>
        </extensions>
      </trkpt>
      <trkpt lat="60.095647685229778289794921875" lon="15.8901674486696720123291015625">
        <ele>129.8000030517578125</ele>
        <time>2018-08-18T11:45:10.000Z</time>
        <extensions>
          <ns3:TrackPointExtension>
            <ns3:atemp>16.0</ns3:atemp>
          </ns3:TrackPointExtension>
        </extensions>
      </trkpt>
      <trkpt lat="60.09560175240039825439453125" lon="15.8901630900800228118896484375">
        <ele>129.8000030517578125</ele>
        <time>2018-08-18T11:45:11.000Z</time>
        <extensions>
          <ns3:TrackPointExtension>
            <ns3:atemp>16.0</ns3:atemp>
          </ns3:TrackPointExtension>
        </extensions>
      </trkpt>
      <trkpt lat="60.09531299583613872528076171875" lon="15.890447236597537994384765625">
        <ele>130</ele>
        <time>2018-08-18T11:45:17.000Z</time>
        <extensions>
          <ns3:TrackPointExtension>
            <ns3:atemp>16.0</ns3:atemp>
          </ns3:TrackPointExtension>
        </extensions>
      </trkpt>
      <trkpt lat="60.09523772634565830230712890625" lon="15.89059987105429172515869140625">
        <ele>130</ele>
        <time>2018-08-18T11:45:19.000Z</time>
        <extensions>
          <ns3:TrackPointExtension>
            <ns3:atemp>16.0</ns3:atemp>
          </ns3:TrackPointExtension>
        </extensions>
      </trkpt>
      <trkpt lat="60.0950936414301395416259765625" lon="15.89086708612740039825439453125">
        <ele>130</ele>
        <time>2018-08-18T11:45:23.000Z</time>
        <extensions>
          <ns3:TrackPointExtension>
            <ns3:atemp>16.0</ns3:atemp>
          </ns3:TrackPointExtension>
        </extensions>
      </trkpt>
      <trkpt lat="60.09501828812062740325927734375" lon="15.89101494289934635162353515625">
        <ele>130</ele>
        <time>2018-08-18T11:45:25.000Z</time>
        <extensions>
          <ns3:TrackPointExtension>
            <ns3:atemp>16.0</ns3:atemp>
          </ns3:TrackPointExtension>
        </extensions>
      </trkpt>
      <trkpt lat="60.09493983350694179534912109375" lon="15.89117084629833698272705078125">
        <ele>130</ele>
        <time>2018-08-18T11:45:27.000Z</time>
        <extensions>
          <ns3:TrackPointExtension>
            <ns3:atemp>16.0</ns3:atemp>
          </ns3:TrackPointExtension>
        </extensions>
      </trkpt>
      <trkpt lat="60.09484930895268917083740234375" lon="15.89131032116711139678955078125">
        <ele>130</ele>
        <time>2018-08-18T11:45:29.000Z</time>
        <extensions>
          <ns3:TrackPointExtension>
            <ns3:atemp>16.0</ns3:atemp>
          </ns3:TrackPointExtension>
        </extensions>
      </trkpt>
      <trkpt lat="60.09466943331062793731689453125" lon="15.89158080518245697021484375">
        <ele>130</ele>
        <time>2018-08-18T11:45:33.000Z</time>
        <extensions>
          <ns3:TrackPointExtension>
            <ns3:atemp>16.0</ns3:atemp>
          </ns3:TrackPointExtension>
        </extensions>
      </trkpt>
      <trkpt lat="60.0941312313079833984375" lon="15.89174986816942691802978515625">
        <ele>129.1999969482421875</ele>
        <time>2018-08-18T11:45:44.000Z</time>
        <extensions>
          <ns3:TrackPointExtension>
            <ns3:atemp>16.0</ns3:atemp>
          </ns3:TrackPointExtension>
        </extensions>
      </trkpt>
      <trkpt lat="60.093941129744052886962890625" lon="15.892238281667232513427734375">
        <ele>129.1999969482421875</ele>
        <time>2018-08-18T11:45:50.000Z</time>
        <extensions>
          <ns3:TrackPointExtension>
            <ns3:atemp>16.0</ns3:atemp>
          </ns3:TrackPointExtension>
        </extensions>
      </trkpt>
      <trkpt lat="60.09381749667227268218994140625" lon="15.89269258081912994384765625">
        <ele>129.399993896484375</ele>
        <time>2018-08-18T11:45:55.000Z</time>
        <extensions>
          <ns3:TrackPointExtension>
            <ns3:atemp>16.0</ns3:atemp>
          </ns3:TrackPointExtension>
        </extensions>
      </trkpt>
      <trkpt lat="60.09376938454806804656982421875" lon="15.89286214672029018402099609375">
        <ele>129.399993896484375</ele>
        <time>2018-08-18T11:45:57.000Z</time>
        <extensions>
          <ns3:TrackPointExtension>
            <ns3:atemp>16.0</ns3:atemp>
          </ns3:TrackPointExtension>
        </extensions>
      </trkpt>
      <trkpt lat="60.09369797073304653167724609375" lon="15.8931108377873897552490234375">
        <ele>129.399993896484375</ele>
        <time>2018-08-18T11:46:00.000Z</time>
        <extensions>
          <ns3:TrackPointExtension>
            <ns3:atemp>16.0</ns3:atemp>
          </ns3:TrackPointExtension>
        </extensions>
      </trkpt>
      <trkpt lat="60.09364147670567035675048828125" lon="15.8934021927416324615478515625">
        <ele>129.399993896484375</ele>
        <time>2018-08-18T11:46:03.000Z</time>
        <extensions>
          <ns3:TrackPointExtension>
            <ns3:atemp>16.0</ns3:atemp>
          </ns3:TrackPointExtension>
        </extensions>
      </trkpt>
      <trkpt lat="60.0935215316712856292724609375" lon="15.89432948268949985504150390625">
        <ele>129.8000030517578125</ele>
        <time>2018-08-18T11:46:12.000Z</time>
        <extensions>
          <ns3:TrackPointExtension>
            <ns3:atemp>16.0</ns3:atemp>
          </ns3:TrackPointExtension>
        </extensions>
      </trkpt>
      <trkpt lat="60.0934186019003391265869140625" lon="15.8950463868677616119384765625">
        <ele>130</ele>
        <time>2018-08-18T11:46:19.000Z</time>
        <extensions>
          <ns3:TrackPointExtension>
            <ns3:atemp>16.0</ns3:atemp>
          </ns3:TrackPointExtension>
        </extensions>
      </trkpt>
      <trkpt lat="60.09293488226830959320068359375" lon="15.8956176973879337310791015625">
        <ele>129.600006103515625</ele>
        <time>2018-08-18T11:46:30.000Z</time>
        <extensions>
          <ns3:TrackPointExtension>
            <ns3:atemp>16.0</ns3:atemp>
          </ns3:TrackPointExtension>
        </extensions>
      </trkpt>
      <trkpt lat="60.09286330081522464752197265625" lon="15.89611868374049663543701171875">
        <ele>129.8000030517578125</ele>
        <time>2018-08-18T11:46:34.000Z</time>
        <extensions>
          <ns3:TrackPointExtension>
            <ns3:atemp>16.0</ns3:atemp>
          </ns3:TrackPointExtension>
        </extensions>
      </trkpt>
      <trkpt lat="60.09274654090404510498046875" lon="15.89691479690372943878173828125">
        <ele>130</ele>
        <time>2018-08-18T11:46:40.000Z</time>
        <extensions>
          <ns3:TrackPointExtension>
            <ns3:atemp>16.0</ns3:atemp>
          </ns3:TrackPointExtension>
        </extensions>
      </trkpt>
      <trkpt lat="60.09224890731275081634521484375" lon="15.89723783545196056365966796875">
        <ele>128.8000030517578125</ele>
        <time>2018-08-18T11:46:49.000Z</time>
        <extensions>
          <ns3:TrackPointExtension>
            <ns3:atemp>16.0</ns3:atemp>
          </ns3:TrackPointExtension>
        </extensions>
      </trkpt>
      <trkpt lat="60.09212167002260684967041015625" lon="15.89710540138185024261474609375">
        <ele>128.600006103515625</ele>
        <time>2018-08-18T11:46:51.000Z</time>
        <extensions>
          <ns3:TrackPointExtension>
            <ns3:atemp>16.0</ns3:atemp>
          </ns3:TrackPointExtension>
        </extensions>
      </trkpt>
      <trkpt lat="60.0915833003818988800048828125" lon="15.89665688574314117431640625">
        <ele>127.59999847412109375</ele>
        <time>2018-08-18T11:46:59.000Z</time>
        <extensions>
          <ns3:TrackPointExtension>
            <ns3:atemp>16.0</ns3:atemp>
          </ns3:TrackPointExtension>
        </extensions>
      </trkpt>
      <trkpt lat="60.09105012752115726470947265625" lon="15.896387659013271331787109375">
        <ele>126.59999847412109375</ele>
        <time>2018-08-18T11:47:08.000Z</time>
        <extensions>
          <ns3:TrackPointExtension>
            <ns3:atemp>16.0</ns3:atemp>
          </ns3:TrackPointExtension>
        </extensions>
      </trkpt>
      <trkpt lat="60.09062197990715503692626953125" lon="15.89615941978991031646728515625">
        <ele>125.8000030517578125</ele>
        <time>2018-08-18T11:47:16.000Z</time>
        <extensions>
          <ns3:TrackPointExtension>
            <ns3:atemp>16.0</ns3:atemp>
          </ns3:TrackPointExtension>
        </extensions>
      </trkpt>
      <trkpt lat="60.09060680866241455078125" lon="15.89571199379861354827880859375">
        <ele>125.8000030517578125</ele>
        <time>2018-08-18T11:47:22.000Z</time>
        <extensions>
          <ns3:TrackPointExtension>
            <ns3:atemp>16.0</ns3:atemp>
          </ns3:TrackPointExtension>
        </extensions>
      </trkpt>
      <trkpt lat="60.0906512327492237091064453125" lon="15.89534486643970012664794921875">
        <ele>126</ele>
        <time>2018-08-18T11:47:26.000Z</time>
        <extensions>
          <ns3:TrackPointExtension>
            <ns3:atemp>16.0</ns3:atemp>
          </ns3:TrackPointExtension>
        </extensions>
      </trkpt>
      <trkpt lat="60.0906683318316936492919921875" lon="15.89496298693120479583740234375">
        <ele>126.1999969482421875</ele>
        <time>2018-08-18T11:47:30.000Z</time>
        <extensions>
          <ns3:TrackPointExtension>
            <ns3:atemp>16.0</ns3:atemp>
          </ns3:TrackPointExtension>
        </extensions>
      </trkpt>
      <trkpt lat="60.0906703434884548187255859375" lon="15.89487078599631786346435546875">
        <ele>126.1999969482421875</ele>
        <time>2018-08-18T11:47:31.000Z</time>
        <extensions>
          <ns3:TrackPointExtension>
            <ns3:atemp>16.0</ns3:atemp>
          </ns3:TrackPointExtension>
        </extensions>
      </trkpt>
      <trkpt lat="60.09066246449947357177734375" lon="15.89430768974125385284423828125">
        <ele>126</ele>
        <time>2018-08-18T11:47:37.000Z</time>
        <extensions>
          <ns3:TrackPointExtension>
            <ns3:atemp>16.0</ns3:atemp>
          </ns3:TrackPointExtension>
        </extensions>
      </trkpt>
      <trkpt lat="60.09064494632184505462646484375" lon="15.8936239778995513916015625">
        <ele>125.59999847412109375</ele>
        <time>2018-08-18T11:47:44.000Z</time>
        <extensions>
          <ns3:TrackPointExtension>
            <ns3:atemp>16.0</ns3:atemp>
          </ns3:TrackPointExtension>
        </extensions>
      </trkpt>
      <trkpt lat="60.090611837804317474365234375" lon="15.89265092276036739349365234375">
        <ele>125</ele>
        <time>2018-08-18T11:47:54.000Z</time>
        <extensions>
          <ns3:TrackPointExtension>
            <ns3:atemp>16.0</ns3:atemp>
          </ns3:TrackPointExtension>
        </extensions>
      </trkpt>
      <trkpt lat="60.090600438416004180908203125" lon="15.8922716416418552398681640625">
        <ele>124.8000030517578125</ele>
        <time>2018-08-18T11:47:58.000Z</time>
        <extensions>
          <ns3:TrackPointExtension>
            <ns3:atemp>16.0</ns3:atemp>
          </ns3:TrackPointExtension>
        </extensions>
      </trkpt>
      <trkpt lat="60.09059918113052845001220703125" lon="15.89207961224019527435302734375">
        <ele>124.8000030517578125</ele>
        <time>2018-08-18T11:48:00.000Z</time>
        <extensions>
          <ns3:TrackPointExtension>
            <ns3:atemp>16.0</ns3:atemp>
          </ns3:TrackPointExtension>
        </extensions>
      </trkpt>
      <trkpt lat="60.0905734486877918243408203125" lon="15.8914314396679401397705078125">
        <ele>124.40000152587890625</ele>
        <time>2018-08-18T11:48:07.000Z</time>
        <extensions>
          <ns3:TrackPointExtension>
            <ns3:atemp>16.0</ns3:atemp>
          </ns3:TrackPointExtension>
        </extensions>
      </trkpt>
      <trkpt lat="60.09057168848812580108642578125" lon="15.89124209247529506683349609375">
        <ele>124.40000152587890625</ele>
        <time>2018-08-18T11:48:09.000Z</time>
        <extensions>
          <ns3:TrackPointExtension>
            <ns3:atemp>16.0</ns3:atemp>
          </ns3:TrackPointExtension>
        </extensions>
      </trkpt>
      <trkpt lat="60.0905647315084934234619140625" lon="15.89054874144494533538818359375">
        <ele>124.59999847412109375</ele>
        <time>2018-08-18T11:48:16.000Z</time>
        <extensions>
          <ns3:TrackPointExtension>
            <ns3:atemp>16.0</ns3:atemp>
          </ns3:TrackPointExtension>
        </extensions>
      </trkpt>
      <trkpt lat="60.0905607081949710845947265625" lon="15.8894182741641998291015625">
        <ele>126.1999969482421875</ele>
        <time>2018-08-18T11:48:27.000Z</time>
        <extensions>
          <ns3:TrackPointExtension>
            <ns3:atemp>16.0</ns3:atemp>
          </ns3:TrackPointExtension>
        </extensions>
      </trkpt>
      <trkpt lat="60.09055056609213352203369140625" lon="15.88886397890746593475341796875">
        <ele>127</ele>
        <time>2018-08-18T11:48:33.000Z</time>
        <extensions>
          <ns3:TrackPointExtension>
            <ns3:atemp>16.0</ns3:atemp>
          </ns3:TrackPointExtension>
        </extensions>
      </trkpt>
      <trkpt lat="60.09054587222635746002197265625" lon="15.888597853481769561767578125">
        <ele>127.1999969482421875</ele>
        <time>2018-08-18T11:48:36.000Z</time>
        <extensions>
          <ns3:TrackPointExtension>
            <ns3:atemp>16.0</ns3:atemp>
          </ns3:TrackPointExtension>
        </extensions>
      </trkpt>
      <trkpt lat="60.090539753437042236328125" lon="15.8884199894964694976806640625">
        <ele>127.59999847412109375</ele>
        <time>2018-08-18T11:48:38.000Z</time>
        <extensions>
          <ns3:TrackPointExtension>
            <ns3:atemp>16.0</ns3:atemp>
          </ns3:TrackPointExtension>
        </extensions>
      </trkpt>
      <trkpt lat="60.09053061716258525848388671875" lon="15.8880558796226978302001953125">
        <ele>128</ele>
        <time>2018-08-18T11:48:42.000Z</time>
        <extensions>
          <ns3:TrackPointExtension>
            <ns3:atemp>16.0</ns3:atemp>
          </ns3:TrackPointExtension>
        </extensions>
      </trkpt>
      <trkpt lat="60.09053011424839496612548828125" lon="15.8876089565455913543701171875">
        <ele>128.600006103515625</ele>
        <time>2018-08-18T11:48:47.000Z</time>
        <extensions>
          <ns3:TrackPointExtension>
            <ns3:atemp>16.0</ns3:atemp>
          </ns3:TrackPointExtension>
        </extensions>
      </trkpt>
      <trkpt lat="60.09051754139363765716552734375" lon="15.88725934736430644989013671875">
        <ele>129.1999969482421875</ele>
        <time>2018-08-18T11:48:51.000Z</time>
        <extensions>
          <ns3:TrackPointExtension>
            <ns3:atemp>16.0</ns3:atemp>
          </ns3:TrackPointExtension>
        </extensions>
      </trkpt>
      <trkpt lat="60.09051754139363765716552734375" lon="15.88689758442342281341552734375">
        <ele>129.600006103515625</ele>
        <time>2018-08-18T11:48:55.000Z</time>
        <extensions>
          <ns3:TrackPointExtension>
            <ns3:atemp>16.0</ns3:atemp>
          </ns3:TrackPointExtension>
        </extensions>
      </trkpt>
      <trkpt lat="60.09052843786776065826416015625" lon="15.88571238331496715545654296875">
        <ele>131</ele>
        <time>2018-08-18T11:49:06.000Z</time>
        <extensions>
          <ns3:TrackPointExtension>
            <ns3:atemp>16.0</ns3:atemp>
          </ns3:TrackPointExtension>
        </extensions>
      </trkpt>
      <trkpt lat="60.09050329215824604034423828125" lon="15.88458769954741001129150390625">
        <ele>131.600006103515625</ele>
        <time>2018-08-18T11:49:16.000Z</time>
        <extensions>
          <ns3:TrackPointExtension>
            <ns3:atemp>16.0</ns3:atemp>
          </ns3:TrackPointExtension>
        </extensions>
      </trkpt>
      <trkpt lat="60.0904721952974796295166015625" lon="15.8837078511714935302734375">
        <ele>132</ele>
        <time>2018-08-18T11:49:24.000Z</time>
        <extensions>
          <ns3:TrackPointExtension>
            <ns3:atemp>16.0</ns3:atemp>
          </ns3:TrackPointExtension>
        </extensions>
      </trkpt>
      <trkpt lat="60.09044587612152099609375" lon="15.88350693695247173309326171875">
        <ele>132.1999969482421875</ele>
        <time>2018-08-18T11:49:26.000Z</time>
        <extensions>
          <ns3:TrackPointExtension>
            <ns3:atemp>16.0</ns3:atemp>
          </ns3:TrackPointExtension>
        </extensions>
      </trkpt>
      <trkpt lat="60.090094171464443206787109375" lon="15.88399375788867473602294921875">
        <ele>131.8000030517578125</ele>
        <time>2018-08-18T11:49:37.000Z</time>
        <extensions>
          <ns3:TrackPointExtension>
            <ns3:atemp>16.0</ns3:atemp>
          </ns3:TrackPointExtension>
        </extensions>
      </trkpt>
      <trkpt lat="60.09005754254758358001708984375" lon="15.88410858996212482452392578125">
        <ele>131.600006103515625</ele>
        <time>2018-08-18T11:49:38.000Z</time>
        <extensions>
          <ns3:TrackPointExtension>
            <ns3:atemp>16.0</ns3:atemp>
          </ns3:TrackPointExtension>
        </extensions>
      </trkpt>
      <trkpt lat="60.0899759866297245025634765625" lon="15.88431964628398418426513671875">
        <ele>131.399993896484375</ele>
        <time>2018-08-18T11:49:40.000Z</time>
        <extensions>
          <ns3:TrackPointExtension>
            <ns3:atemp>16.0</ns3:atemp>
          </ns3:TrackPointExtension>
        </extensions>
      </trkpt>
      <trkpt lat="60.08957223035395145416259765625" lon="15.8850491233170032501220703125">
        <ele>130.8000030517578125</ele>
        <time>2018-08-18T11:49:48.000Z</time>
        <extensions>
          <ns3:TrackPointExtension>
            <ns3:atemp>16.0</ns3:atemp>
          </ns3:TrackPointExtension>
        </extensions>
      </trkpt>
      <trkpt lat="60.08951841853559017181396484375" lon="15.88515146635472774505615234375">
        <ele>130.8000030517578125</ele>
        <time>2018-08-18T11:49:49.000Z</time>
        <extensions>
          <ns3:TrackPointExtension>
            <ns3:atemp>16.0</ns3:atemp>
          </ns3:TrackPointExtension>
        </extensions>
      </trkpt>
      <trkpt lat="60.0894641876220703125" lon="15.88524819351732730865478515625">
        <ele>130.600006103515625</ele>
        <time>2018-08-18T11:49:50.000Z</time>
        <extensions>
          <ns3:TrackPointExtension>
            <ns3:atemp>16.0</ns3:atemp>
          </ns3:TrackPointExtension>
        </extensions>
      </trkpt>
      <trkpt lat="60.08916570805013179779052734375" lon="15.8855996467173099517822265625">
        <ele>129.8000030517578125</ele>
        <time>2018-08-18T11:49:55.000Z</time>
        <extensions>
          <ns3:TrackPointExtension>
            <ns3:atemp>16.0</ns3:atemp>
          </ns3:TrackPointExtension>
        </extensions>
      </trkpt>
      <trkpt lat="60.0889728404581546783447265625" lon="15.885836519300937652587890625">
        <ele>129.1999969482421875</ele>
        <time>2018-08-18T11:49:58.000Z</time>
        <extensions>
          <ns3:TrackPointExtension>
            <ns3:atemp>16.0</ns3:atemp>
          </ns3:TrackPointExtension>
        </extensions>
      </trkpt>
      <trkpt lat="60.08864879608154296875" lon="15.88678308762609958648681640625">
        <ele>127.40000152587890625</ele>
        <time>2018-08-18T11:50:07.000Z</time>
        <extensions>
          <ns3:TrackPointExtension>
            <ns3:atemp>16.0</ns3:atemp>
          </ns3:TrackPointExtension>
        </extensions>
      </trkpt>
      <trkpt lat="60.088576041162014007568359375" lon="15.88703571818768978118896484375">
        <ele>127</ele>
        <time>2018-08-18T11:50:09.000Z</time>
        <extensions>
          <ns3:TrackPointExtension>
            <ns3:atemp>16.0</ns3:atemp>
          </ns3:TrackPointExtension>
        </extensions>
      </trkpt>
      <trkpt lat="60.08843732066452503204345703125" lon="15.88773057796061038970947265625">
        <ele>125.8000030517578125</ele>
        <time>2018-08-18T11:50:15.000Z</time>
        <extensions>
          <ns3:TrackPointExtension>
            <ns3:atemp>16.0</ns3:atemp>
          </ns3:TrackPointExtension>
        </extensions>
      </trkpt>
      <trkpt lat="60.08822391740977764129638671875" lon="15.8881410397589206695556640625">
        <ele>124.8000030517578125</ele>
        <time>2018-08-18T11:50:20.000Z</time>
        <extensions>
          <ns3:TrackPointExtension>
            <ns3:atemp>16.0</ns3:atemp>
          </ns3:TrackPointExtension>
        </extensions>
      </trkpt>
      <trkpt lat="60.08818251080811023712158203125" lon="15.8882339112460613250732421875">
        <ele>124.59999847412109375</ele>
        <time>2018-08-18T11:50:21.000Z</time>
        <extensions>
          <ns3:TrackPointExtension>
            <ns3:atemp>16.0</ns3:atemp>
          </ns3:TrackPointExtension>
        </extensions>
      </trkpt>
      <trkpt lat="60.0880528427660465240478515625" lon="15.88866666890680789947509765625">
        <ele>123.8000030517578125</ele>
        <time>2018-08-18T11:50:25.000Z</time>
        <extensions>
          <ns3:TrackPointExtension>
            <ns3:atemp>16.0</ns3:atemp>
          </ns3:TrackPointExtension>
        </extensions>
      </trkpt>
      <trkpt lat="60.087953768670558929443359375" lon="15.8889963291585445404052734375">
        <ele>123.1999969482421875</ele>
        <time>2018-08-18T11:50:28.000Z</time>
        <extensions>
          <ns3:TrackPointExtension>
            <ns3:atemp>16.0</ns3:atemp>
          </ns3:TrackPointExtension>
        </extensions>
      </trkpt>
      <trkpt lat="60.08791320025920867919921875" lon="15.8890922181308269500732421875">
        <ele>123.1999969482421875</ele>
        <time>2018-08-18T11:50:29.000Z</time>
        <extensions>
          <ns3:TrackPointExtension>
            <ns3:atemp>16.0</ns3:atemp>
          </ns3:TrackPointExtension>
        </extensions>
      </trkpt>
      <trkpt lat="60.0877500884234905242919921875" lon="15.88943746872246265411376953125">
        <ele>122.40000152587890625</ele>
        <time>2018-08-18T11:50:33.000Z</time>
        <extensions>
          <ns3:TrackPointExtension>
            <ns3:atemp>16.0</ns3:atemp>
          </ns3:TrackPointExtension>
        </extensions>
      </trkpt>
      <trkpt lat="60.08766501210629940032958984375" lon="15.889556407928466796875">
        <ele>122.1999969482421875</ele>
        <time>2018-08-18T11:50:35.000Z</time>
        <extensions>
          <ns3:TrackPointExtension>
            <ns3:atemp>16.0</ns3:atemp>
          </ns3:TrackPointExtension>
        </extensions>
      </trkpt>
      <trkpt lat="60.0875764153897762298583984375" lon="15.8896655403077602386474609375">
        <ele>121.8000030517578125</ele>
        <time>2018-08-18T11:50:37.000Z</time>
        <extensions>
          <ns3:TrackPointExtension>
            <ns3:atemp>16.0</ns3:atemp>
          </ns3:TrackPointExtension>
        </extensions>
      </trkpt>
      <trkpt lat="60.08749821223318576812744140625" lon="15.8897966332733631134033203125">
        <ele>121.59999847412109375</ele>
        <time>2018-08-18T11:50:39.000Z</time>
        <extensions>
          <ns3:TrackPointExtension>
            <ns3:atemp>16.0</ns3:atemp>
          </ns3:TrackPointExtension>
        </extensions>
      </trkpt>
      <trkpt lat="60.08743886835873126983642578125" lon="15.8899810351431369781494140625">
        <ele>121.1999969482421875</ele>
        <time>2018-08-18T11:50:41.000Z</time>
        <extensions>
          <ns3:TrackPointExtension>
            <ns3:atemp>16.0</ns3:atemp>
          </ns3:TrackPointExtension>
        </extensions>
      </trkpt>
      <trkpt lat="60.0873427279293537139892578125" lon="15.89032175950706005096435546875">
        <ele>120.59999847412109375</ele>
        <time>2018-08-18T11:50:44.000Z</time>
        <extensions>
          <ns3:TrackPointExtension>
            <ns3:atemp>16.0</ns3:atemp>
          </ns3:TrackPointExtension>
        </extensions>
      </trkpt>
      <trkpt lat="60.0872498564422130584716796875" lon="15.89067555963993072509765625">
        <ele>120</ele>
        <time>2018-08-18T11:50:47.000Z</time>
        <extensions>
          <ns3:TrackPointExtension>
            <ns3:atemp>16.0</ns3:atemp>
          </ns3:TrackPointExtension>
        </extensions>
      </trkpt>
      <trkpt lat="60.08715069852769374847412109375" lon="15.890926681458950042724609375">
        <ele>119.59999847412109375</ele>
        <time>2018-08-18T11:50:50.000Z</time>
        <extensions>
          <ns3:TrackPointExtension>
            <ns3:atemp>16.0</ns3:atemp>
          </ns3:TrackPointExtension>
        </extensions>
      </trkpt>
      <trkpt lat="60.087116919457912445068359375" lon="15.890978313982486724853515625">
        <ele>119.59999847412109375</ele>
        <time>2018-08-18T11:50:51.000Z</time>
        <extensions>
          <ns3:TrackPointExtension>
            <ns3:atemp>16.0</ns3:atemp>
          </ns3:TrackPointExtension>
        </extensions>
      </trkpt>
      <trkpt lat="60.0869967229664325714111328125" lon="15.89082936756312847137451171875">
        <ele>119.40000152587890625</ele>
        <time>2018-08-18T11:50:56.000Z</time>
        <extensions>
          <ns3:TrackPointExtension>
            <ns3:atemp>16.0</ns3:atemp>
          </ns3:TrackPointExtension>
        </extensions>
      </trkpt>
      <trkpt lat="60.08688197471201419830322265625" lon="15.89044891297817230224609375">
        <ele>119.8000030517578125</ele>
        <time>2018-08-18T11:51:00.000Z</time>
        <extensions>
          <ns3:TrackPointExtension>
            <ns3:atemp>16.0</ns3:atemp>
          </ns3:TrackPointExtension>
        </extensions>
      </trkpt>
      <trkpt lat="60.086844675242900848388671875" lon="15.89034707285463809967041015625">
        <ele>119.8000030517578125</ele>
        <time>2018-08-18T11:51:01.000Z</time>
        <extensions>
          <ns3:TrackPointExtension>
            <ns3:atemp>16.0</ns3:atemp>
          </ns3:TrackPointExtension>
        </extensions>
      </trkpt>
      <trkpt lat="60.086533538997173309326171875" lon="15.88936119340360164642333984375">
        <ele>121.40000152587890625</ele>
        <time>2018-08-18T11:51:09.000Z</time>
        <extensions>
          <ns3:TrackPointExtension>
            <ns3:atemp>16.0</ns3:atemp>
          </ns3:TrackPointExtension>
        </extensions>
      </trkpt>
      <trkpt lat="60.0864575989544391632080078125" lon="15.8887807466089725494384765625">
        <ele>122.40000152587890625</ele>
        <time>2018-08-18T11:51:13.000Z</time>
        <extensions>
          <ns3:TrackPointExtension>
            <ns3:atemp>16.0</ns3:atemp>
          </ns3:TrackPointExtension>
        </extensions>
      </trkpt>
      <trkpt lat="60.08635106496512889862060546875" lon="15.88765363208949565887451171875">
        <ele>124.40000152587890625</ele>
        <time>2018-08-18T11:51:21.000Z</time>
        <extensions>
          <ns3:TrackPointExtension>
            <ns3:atemp>16.0</ns3:atemp>
          </ns3:TrackPointExtension>
        </extensions>
      </trkpt>
      <trkpt lat="60.08623774163424968719482421875" lon="15.8865451253950595855712890625">
        <ele>126.1999969482421875</ele>
        <time>2018-08-18T11:51:29.000Z</time>
        <extensions>
          <ns3:TrackPointExtension>
            <ns3:atemp>16.0</ns3:atemp>
          </ns3:TrackPointExtension>
        </extensions>
      </trkpt>
      <trkpt lat="60.08619952015578746795654296875" lon="15.88612326420843601226806640625">
        <ele>127</ele>
        <time>2018-08-18T11:51:32.000Z</time>
        <extensions>
          <ns3:TrackPointExtension>
            <ns3:atemp>16.0</ns3:atemp>
          </ns3:TrackPointExtension>
        </extensions>
      </trkpt>
      <trkpt lat="60.0861032120883464813232421875" lon="15.8857642672955989837646484375">
        <ele>127.59999847412109375</ele>
        <time>2018-08-18T11:51:35.000Z</time>
        <extensions>
          <ns3:TrackPointExtension>
            <ns3:atemp>16.0</ns3:atemp>
          </ns3:TrackPointExtension>
        </extensions>
      </trkpt>
      <trkpt lat="60.0860492326319217681884765625" lon="15.88554508052766323089599609375">
        <ele>128</ele>
        <time>2018-08-18T11:51:37.000Z</time>
        <extensions>
          <ns3:TrackPointExtension>
            <ns3:atemp>16.0</ns3:atemp>
          </ns3:TrackPointExtension>
        </extensions>
      </trkpt>
      <trkpt lat="60.08594177663326263427734375" lon="15.88499204255640506744384765625">
        <ele>129.1999969482421875</ele>
        <time>2018-08-18T11:51:42.000Z</time>
        <extensions>
          <ns3:TrackPointExtension>
            <ns3:atemp>16.0</ns3:atemp>
          </ns3:TrackPointExtension>
        </extensions>
      </trkpt>
      <trkpt lat="60.0859302096068859100341796875" lon="15.88486983440816402435302734375">
        <ele>129.399993896484375</ele>
        <time>2018-08-18T11:51:43.000Z</time>
        <extensions>
          <ns3:TrackPointExtension>
            <ns3:atemp>16.0</ns3:atemp>
          </ns3:TrackPointExtension>
        </extensions>
      </trkpt>
      <trkpt lat="60.0859057344496250152587890625" lon="15.8846467919647693634033203125">
        <ele>129.8000030517578125</ele>
        <time>2018-08-18T11:51:45.000Z</time>
        <extensions>
          <ns3:TrackPointExtension>
            <ns3:atemp>16.0</ns3:atemp>
          </ns3:TrackPointExtension>
        </extensions>
      </trkpt>
      <trkpt lat="60.085830129683017730712890625" lon="15.88420012034475803375244140625">
        <ele>130.600006103515625</ele>
        <time>2018-08-18T11:51:49.000Z</time>
        <extensions>
          <ns3:TrackPointExtension>
            <ns3:atemp>16.0</ns3:atemp>
          </ns3:TrackPointExtension>
        </extensions>
      </trkpt>
      <trkpt lat="60.08579534478485584259033203125" lon="15.8835437335073947906494140625">
        <ele>131.600006103515625</ele>
        <time>2018-08-18T11:51:56.000Z</time>
        <extensions>
          <ns3:TrackPointExtension>
            <ns3:atemp>16.0</ns3:atemp>
          </ns3:TrackPointExtension>
        </extensions>
      </trkpt>
      <trkpt lat="60.08580272085964679718017578125" lon="15.88328414596617221832275390625">
        <ele>132</ele>
        <time>2018-08-18T11:51:59.000Z</time>
        <extensions>
          <ns3:TrackPointExtension>
            <ns3:atemp>16.0</ns3:atemp>
          </ns3:TrackPointExtension>
        </extensions>
      </trkpt>
      <trkpt lat="60.08582375943660736083984375" lon="15.88310770690441131591796875">
        <ele>132.1999969482421875</ele>
        <time>2018-08-18T11:52:01.000Z</time>
        <extensions>
          <ns3:TrackPointExtension>
            <ns3:atemp>16.0</ns3:atemp>
          </ns3:TrackPointExtension>
        </extensions>
      </trkpt>
      <trkpt lat="60.085839517414569854736328125" lon="15.88283521123230457305908203125">
        <ele>132.600006103515625</ele>
        <time>2018-08-18T11:52:04.000Z</time>
        <extensions>
          <ns3:TrackPointExtension>
            <ns3:atemp>16.0</ns3:atemp>
          </ns3:TrackPointExtension>
        </extensions>
      </trkpt>
      <trkpt lat="60.0857836939394474029541015625" lon="15.88205359876155853271484375">
        <ele>133.600006103515625</ele>
        <time>2018-08-18T11:52:14.000Z</time>
        <extensions>
          <ns3:TrackPointExtension>
            <ns3:atemp>16.0</ns3:atemp>
          </ns3:TrackPointExtension>
        </extensions>
      </trkpt>
      <trkpt lat="60.0857679359614849090576171875" lon="15.88188118301331996917724609375">
        <ele>133.600006103515625</ele>
        <time>2018-08-18T11:52:16.000Z</time>
        <extensions>
          <ns3:TrackPointExtension>
            <ns3:atemp>16.0</ns3:atemp>
          </ns3:TrackPointExtension>
        </extensions>
      </trkpt>
      <trkpt lat="60.08575561456382274627685546875" lon="15.88163785636425018310546875">
        <ele>134</ele>
        <time>2018-08-18T11:52:19.000Z</time>
        <extensions>
          <ns3:TrackPointExtension>
            <ns3:atemp>16.0</ns3:atemp>
          </ns3:TrackPointExtension>
        </extensions>
      </trkpt>
      <trkpt lat="60.08566291071474552154541015625" lon="15.88121649809181690216064453125">
        <ele>134.600006103515625</ele>
        <time>2018-08-18T11:52:25.000Z</time>
        <extensions>
          <ns3:TrackPointExtension>
            <ns3:atemp>16.0</ns3:atemp>
          </ns3:TrackPointExtension>
        </extensions>
      </trkpt>
      <trkpt lat="60.0855334103107452392578125" lon="15.88099144399166107177734375">
        <ele>135</ele>
        <time>2018-08-18T11:52:28.000Z</time>
        <extensions>
          <ns3:TrackPointExtension>
            <ns3:atemp>16.0</ns3:atemp>
          </ns3:TrackPointExtension>
        </extensions>
      </trkpt>
      <trkpt lat="60.08539217524230480194091796875" lon="15.88062691502273082733154296875">
        <ele>135.600006103515625</ele>
        <time>2018-08-18T11:52:32.000Z</time>
        <extensions>
          <ns3:TrackPointExtension>
            <ns3:atemp>16.0</ns3:atemp>
          </ns3:TrackPointExtension>
        </extensions>
      </trkpt>
      <trkpt lat="60.08496168069541454315185546875" lon="15.879938341677188873291015625">
        <ele>137.1999969482421875</ele>
        <time>2018-08-18T11:52:41.000Z</time>
        <extensions>
          <ns3:TrackPointExtension>
            <ns3:atemp>16.0</ns3:atemp>
          </ns3:TrackPointExtension>
        </extensions>
      </trkpt>
      <trkpt lat="60.0849176757037639617919921875" lon="15.8798634074628353118896484375">
        <ele>137.399993896484375</ele>
        <time>2018-08-18T11:52:42.000Z</time>
        <extensions>
          <ns3:TrackPointExtension>
            <ns3:atemp>16.0</ns3:atemp>
          </ns3:TrackPointExtension>
        </extensions>
      </trkpt>
      <trkpt lat="60.0848432444036006927490234375" lon="15.87968143634498119354248046875">
        <ele>137.8000030517578125</ele>
        <time>2018-08-18T11:52:44.000Z</time>
        <extensions>
          <ns3:TrackPointExtension>
            <ns3:atemp>16.0</ns3:atemp>
          </ns3:TrackPointExtension>
        </extensions>
      </trkpt>
      <trkpt lat="60.0847688131034374237060546875" lon="15.8793437294661998748779296875">
        <ele>138.1999969482421875</ele>
        <time>2018-08-18T11:52:47.000Z</time>
        <extensions>
          <ns3:TrackPointExtension>
            <ns3:atemp>16.0</ns3:atemp>
          </ns3:TrackPointExtension>
        </extensions>
      </trkpt>
      <trkpt lat="60.08473117835819721221923828125" lon="15.8791172504425048828125">
        <ele>138.399993896484375</ele>
        <time>2018-08-18T11:52:49.000Z</time>
        <extensions>
          <ns3:TrackPointExtension>
            <ns3:atemp>16.0</ns3:atemp>
          </ns3:TrackPointExtension>
        </extensions>
      </trkpt>
      <trkpt lat="60.084659345448017120361328125" lon="15.87878935039043426513671875">
        <ele>139</ele>
        <time>2018-08-18T11:52:52.000Z</time>
        <extensions>
          <ns3:TrackPointExtension>
            <ns3:atemp>16.0</ns3:atemp>
          </ns3:TrackPointExtension>
        </extensions>
      </trkpt>
      <trkpt lat="60.08457091636955738067626953125" lon="15.87837972678244113922119140625">
        <ele>139.600006103515625</ele>
        <time>2018-08-18T11:52:56.000Z</time>
        <extensions>
          <ns3:TrackPointExtension>
            <ns3:atemp>16.0</ns3:atemp>
          </ns3:TrackPointExtension>
        </extensions>
      </trkpt>
      <trkpt lat="60.0844130851328372955322265625" lon="15.87752359919250011444091796875">
        <ele>140.600006103515625</ele>
        <time>2018-08-18T11:53:09.000Z</time>
        <extensions>
          <ns3:TrackPointExtension>
            <ns3:atemp>16.0</ns3:atemp>
          </ns3:TrackPointExtension>
        </extensions>
      </trkpt>
      <trkpt lat="60.0844006799161434173583984375" lon="15.8773295581340789794921875">
        <ele>140.8000030517578125</ele>
        <time>2018-08-18T11:53:12.000Z</time>
        <extensions>
          <ns3:TrackPointExtension>
            <ns3:atemp>16.0</ns3:atemp>
          </ns3:TrackPointExtension>
        </extensions>
      </trkpt>
      <trkpt lat="60.08433136157691478729248046875" lon="15.87716066278517246246337890625">
        <ele>141.1999969482421875</ele>
        <time>2018-08-18T11:53:15.000Z</time>
        <extensions>
          <ns3:TrackPointExtension>
            <ns3:atemp>16.0</ns3:atemp>
          </ns3:TrackPointExtension>
        </extensions>
      </trkpt>
      <trkpt lat="60.08417126722633838653564453125" lon="15.8769206888973712921142578125">
        <ele>141.600006103515625</ele>
        <time>2018-08-18T11:53:20.000Z</time>
        <extensions>
          <ns3:TrackPointExtension>
            <ns3:atemp>16.0</ns3:atemp>
          </ns3:TrackPointExtension>
        </extensions>
      </trkpt>
      <trkpt lat="60.08395635522902011871337890625" lon="15.87725403718650341033935546875">
        <ele>142</ele>
        <time>2018-08-18T11:53:26.000Z</time>
        <extensions>
          <ns3:TrackPointExtension>
            <ns3:atemp>16.0</ns3:atemp>
          </ns3:TrackPointExtension>
        </extensions>
      </trkpt>
      <trkpt lat="60.08367422036826610565185546875" lon="15.8779553510248661041259765625">
        <ele>142</ele>
        <time>2018-08-18T11:53:33.000Z</time>
        <extensions>
          <ns3:TrackPointExtension>
            <ns3:atemp>16.0</ns3:atemp>
          </ns3:TrackPointExtension>
        </extensions>
      </trkpt>
      <trkpt lat="60.08350498974323272705078125" lon="15.8782012760639190673828125">
        <ele>142.1999969482421875</ele>
        <time>2018-08-18T11:53:36.000Z</time>
        <extensions>
          <ns3:TrackPointExtension>
            <ns3:atemp>16.0</ns3:atemp>
          </ns3:TrackPointExtension>
        </extensions>
      </trkpt>
      <trkpt lat="60.083381272852420806884765625" lon="15.8783447742462158203125">
        <ele>142.399993896484375</ele>
        <time>2018-08-18T11:53:38.000Z</time>
        <extensions>
          <ns3:TrackPointExtension>
            <ns3:atemp>16.0</ns3:atemp>
          </ns3:TrackPointExtension>
        </extensions>
      </trkpt>
      <trkpt lat="60.08331547491252422332763671875" lon="15.87840068154036998748779296875">
        <ele>142.399993896484375</ele>
        <time>2018-08-18T11:53:39.000Z</time>
        <extensions>
          <ns3:TrackPointExtension>
            <ns3:atemp>16.0</ns3:atemp>
          </ns3:TrackPointExtension>
        </extensions>
      </trkpt>
      <trkpt lat="60.083107687532901763916015625" lon="15.8785343728959560394287109375">
        <ele>142.8000030517578125</ele>
        <time>2018-08-18T11:53:42.000Z</time>
        <extensions>
          <ns3:TrackPointExtension>
            <ns3:atemp>16.0</ns3:atemp>
          </ns3:TrackPointExtension>
        </extensions>
      </trkpt>
      <trkpt lat="60.082596056163311004638671875" lon="15.87899864651262760162353515625">
        <ele>143.8000030517578125</ele>
        <time>2018-08-18T11:53:50.000Z</time>
        <extensions>
          <ns3:TrackPointExtension>
            <ns3:atemp>16.0</ns3:atemp>
          </ns3:TrackPointExtension>
        </extensions>
      </trkpt>
      <trkpt lat="60.08236580528318881988525390625" lon="15.87931598536670207977294921875">
        <ele>144</ele>
        <time>2018-08-18T11:53:54.000Z</time>
        <extensions>
          <ns3:TrackPointExtension>
            <ns3:atemp>16.0</ns3:atemp>
          </ns3:TrackPointExtension>
        </extensions>
      </trkpt>
      <trkpt lat="60.081931538879871368408203125" lon="15.880055688321590423583984375">
        <ele>144.399993896484375</ele>
        <time>2018-08-18T11:54:01.000Z</time>
        <extensions>
          <ns3:TrackPointExtension>
            <ns3:atemp>16.0</ns3:atemp>
          </ns3:TrackPointExtension>
        </extensions>
      </trkpt>
      <trkpt lat="60.08176599629223346710205078125" lon="15.88067620061337947845458984375">
        <ele>144.399993896484375</ele>
        <time>2018-08-18T11:54:05.000Z</time>
        <extensions>
          <ns3:TrackPointExtension>
            <ns3:atemp>16.0</ns3:atemp>
          </ns3:TrackPointExtension>
        </extensions>
      </trkpt>
      <trkpt lat="60.0817385874688625335693359375" lon="15.8808494545519351959228515625">
        <ele>144.1999969482421875</ele>
        <time>2018-08-18T11:54:06.000Z</time>
        <extensions>
          <ns3:TrackPointExtension>
            <ns3:atemp>16.0</ns3:atemp>
          </ns3:TrackPointExtension>
        </extensions>
      </trkpt>
      <trkpt lat="60.08166574873030185699462890625" lon="15.88137441314756870269775390625">
        <ele>144</ele>
        <time>2018-08-18T11:54:09.000Z</time>
        <extensions>
          <ns3:TrackPointExtension>
            <ns3:atemp>16.0</ns3:atemp>
          </ns3:TrackPointExtension>
        </extensions>
      </trkpt>
      <trkpt lat="60.08160841651260852813720703125" lon="15.88169476948678493499755859375">
        <ele>143.8000030517578125</ele>
        <time>2018-08-18T11:54:11.000Z</time>
        <extensions>
          <ns3:TrackPointExtension>
            <ns3:atemp>16.0</ns3:atemp>
          </ns3:TrackPointExtension>
        </extensions>
      </trkpt>
      <trkpt lat="60.081466175615787506103515625" lon="15.88228904642164707183837890625">
        <ele>143.600006103515625</ele>
        <time>2018-08-18T11:54:15.000Z</time>
        <extensions>
          <ns3:TrackPointExtension>
            <ns3:atemp>16.0</ns3:atemp>
          </ns3:TrackPointExtension>
        </extensions>
      </trkpt>
      <trkpt lat="60.08129744790494441986083984375" lon="15.88311499916017055511474609375">
        <ele>143</ele>
        <time>2018-08-18T11:54:20.000Z</time>
        <extensions>
          <ns3:TrackPointExtension>
            <ns3:atemp>16.0</ns3:atemp>
          </ns3:TrackPointExtension>
        </extensions>
      </trkpt>
      <trkpt lat="60.08123123086988925933837890625" lon="15.88398613035678863525390625">
        <ele>142</ele>
        <time>2018-08-18T11:54:25.000Z</time>
        <extensions>
          <ns3:TrackPointExtension>
            <ns3:atemp>16.0</ns3:atemp>
          </ns3:TrackPointExtension>
        </extensions>
      </trkpt>
      <trkpt lat="60.08121245540678501129150390625" lon="15.8845929801464080810546875">
        <ele>141</ele>
        <time>2018-08-18T11:54:29.000Z</time>
        <extensions>
          <ns3:TrackPointExtension>
            <ns3:atemp>16.0</ns3:atemp>
          </ns3:TrackPointExtension>
        </extensions>
      </trkpt>
      <trkpt lat="60.0812859646975994110107421875" lon="15.88576066307723522186279296875">
        <ele>138.399993896484375</ele>
        <time>2018-08-18T11:54:38.000Z</time>
        <extensions>
          <ns3:TrackPointExtension>
            <ns3:atemp>16.0</ns3:atemp>
          </ns3:TrackPointExtension>
        </extensions>
      </trkpt>
      <trkpt lat="60.08132569491863250732421875" lon="15.8861406147480010986328125">
        <ele>137</ele>
        <time>2018-08-18T11:54:41.000Z</time>
        <extensions>
          <ns3:TrackPointExtension>
            <ns3:atemp>16.0</ns3:atemp>
          </ns3:TrackPointExtension>
        </extensions>
      </trkpt>
      <trkpt lat="60.08138244040310382843017578125" lon="15.88668602518737316131591796875">
        <ele>135</ele>
        <time>2018-08-18T11:54:45.000Z</time>
        <extensions>
          <ns3:TrackPointExtension>
            <ns3:atemp>16.0</ns3:atemp>
          </ns3:TrackPointExtension>
        </extensions>
      </trkpt>
      <trkpt lat="60.08141714148223400115966796875" lon="15.88778992183506488800048828125">
        <ele>130.8000030517578125</ele>
        <time>2018-08-18T11:54:53.000Z</time>
        <extensions>
          <ns3:TrackPointExtension>
            <ns3:atemp>16.0</ns3:atemp>
          </ns3:TrackPointExtension>
        </extensions>
      </trkpt>
      <trkpt lat="60.08141110651195049285888671875" lon="15.8888897113502025604248046875">
        <ele>126.8000030517578125</ele>
        <time>2018-08-18T11:55:01.000Z</time>
        <extensions>
          <ns3:TrackPointExtension>
            <ns3:atemp>16.0</ns3:atemp>
          </ns3:TrackPointExtension>
        </extensions>
      </trkpt>
      <trkpt lat="60.08136458694934844970703125" lon="15.89000106789171695709228515625">
        <ele>122.59999847412109375</ele>
        <time>2018-08-18T11:55:09.000Z</time>
        <extensions>
          <ns3:TrackPointExtension>
            <ns3:atemp>16.0</ns3:atemp>
          </ns3:TrackPointExtension>
        </extensions>
      </trkpt>
      <trkpt lat="60.081089325249195098876953125" lon="15.8910210616886615753173828125">
        <ele>119.59999847412109375</ele>
        <time>2018-08-18T11:55:18.000Z</time>
        <extensions>
          <ns3:TrackPointExtension>
            <ns3:atemp>16.0</ns3:atemp>
          </ns3:TrackPointExtension>
        </extensions>
      </trkpt>
      <trkpt lat="60.080660171806812286376953125" lon="15.8917415700852870941162109375">
        <ele>119.40000152587890625</ele>
        <time>2018-08-18T11:55:27.000Z</time>
        <extensions>
          <ns3:TrackPointExtension>
            <ns3:atemp>16.0</ns3:atemp>
          </ns3:TrackPointExtension>
        </extensions>
      </trkpt>
      <trkpt lat="60.08054492063820362091064453125" lon="15.8918448351323604583740234375">
        <ele>119.40000152587890625</ele>
        <time>2018-08-18T11:55:29.000Z</time>
        <extensions>
          <ns3:TrackPointExtension>
            <ns3:atemp>16.0</ns3:atemp>
          </ns3:TrackPointExtension>
        </extensions>
      </trkpt>
      <trkpt lat="60.08021132089197635650634765625" lon="15.89224071241915225982666015625">
        <ele>119.40000152587890625</ele>
        <time>2018-08-18T11:55:35.000Z</time>
        <extensions>
          <ns3:TrackPointExtension>
            <ns3:atemp>16.0</ns3:atemp>
          </ns3:TrackPointExtension>
        </extensions>
      </trkpt>
      <trkpt lat="60.0798804871737957000732421875" lon="15.89314042590558528900146484375">
        <ele>117.40000152587890625</ele>
        <time>2018-08-18T11:55:44.000Z</time>
        <extensions>
          <ns3:TrackPointExtension>
            <ns3:atemp>16.0</ns3:atemp>
          </ns3:TrackPointExtension>
        </extensions>
      </trkpt>
      <trkpt lat="60.079691223800182342529296875" lon="15.89359791018068790435791015625">
        <ele>115.8000030517578125</ele>
        <time>2018-08-18T11:55:49.000Z</time>
        <extensions>
          <ns3:TrackPointExtension>
            <ns3:atemp>16.0</ns3:atemp>
          </ns3:TrackPointExtension>
        </extensions>
      </trkpt>
      <trkpt lat="60.07944806478917598724365234375" lon="15.8939443342387676239013671875">
        <ele>114.40000152587890625</ele>
        <time>2018-08-18T11:55:54.000Z</time>
        <extensions>
          <ns3:TrackPointExtension>
            <ns3:atemp>16.0</ns3:atemp>
          </ns3:TrackPointExtension>
        </extensions>
      </trkpt>
      <trkpt lat="60.07891866378486156463623046875" lon="15.89429142884910106658935546875">
        <ele>112.40000152587890625</ele>
        <time>2018-08-18T11:56:03.000Z</time>
        <extensions>
          <ns3:TrackPointExtension>
            <ns3:atemp>16.0</ns3:atemp>
          </ns3:TrackPointExtension>
        </extensions>
      </trkpt>
      <trkpt lat="60.07844709791243076324462890625" lon="15.8949270285665988922119140625">
        <ele>109.8000030517578125</ele>
        <time>2018-08-18T11:56:13.000Z</time>
        <extensions>
          <ns3:TrackPointExtension>
            <ns3:atemp>16.0</ns3:atemp>
          </ns3:TrackPointExtension>
        </extensions>
      </trkpt>
      <trkpt lat="60.07835741154849529266357421875" lon="15.89504999108612537384033203125">
        <ele>109.40000152587890625</ele>
        <time>2018-08-18T11:56:15.000Z</time>
        <extensions>
          <ns3:TrackPointExtension>
            <ns3:atemp>16.0</ns3:atemp>
          </ns3:TrackPointExtension>
        </extensions>
      </trkpt>
      <trkpt lat="60.07825582288205623626708984375" lon="15.89514185674488544464111328125">
        <ele>109.1999969482421875</ele>
        <time>2018-08-18T11:56:17.000Z</time>
        <extensions>
          <ns3:TrackPointExtension>
            <ns3:atemp>16.0</ns3:atemp>
          </ns3:TrackPointExtension>
        </extensions>
      </trkpt>
      <trkpt lat="60.07801760919392108917236328125" lon="15.89522869326174259185791015625">
        <ele>109.1999969482421875</ele>
        <time>2018-08-18T11:56:21.000Z</time>
        <extensions>
          <ns3:TrackPointExtension>
            <ns3:atemp>16.0</ns3:atemp>
          </ns3:TrackPointExtension>
        </extensions>
      </trkpt>
      <trkpt lat="60.07783203385770320892333984375" lon="15.8952279388904571533203125">
        <ele>109.40000152587890625</ele>
        <time>2018-08-18T11:56:24.000Z</time>
        <extensions>
          <ns3:TrackPointExtension>
            <ns3:atemp>16.0</ns3:atemp>
          </ns3:TrackPointExtension>
        </extensions>
      </trkpt>
      <trkpt lat="60.0772753916680812835693359375" lon="15.89517421089112758636474609375">
        <ele>110.1999969482421875</ele>
        <time>2018-08-18T11:56:33.000Z</time>
        <extensions>
          <ns3:TrackPointExtension>
            <ns3:atemp>16.0</ns3:atemp>
          </ns3:TrackPointExtension>
        </extensions>
      </trkpt>
      <trkpt lat="60.07693282328546047210693359375" lon="15.8951908908784389495849609375">
        <ele>110.59999847412109375</ele>
        <time>2018-08-18T11:56:39.000Z</time>
        <extensions>
          <ns3:TrackPointExtension>
            <ns3:atemp>16.0</ns3:atemp>
          </ns3:TrackPointExtension>
        </extensions>
      </trkpt>
      <trkpt lat="60.0770390219986438751220703125" lon="15.89567326940596103668212890625">
        <ele>109.40000152587890625</ele>
        <time>2018-08-18T11:56:47.000Z</time>
        <extensions>
          <ns3:TrackPointExtension>
            <ns3:atemp>16.0</ns3:atemp>
          </ns3:TrackPointExtension>
        </extensions>
      </trkpt>
      <trkpt lat="60.0776277668774127960205078125" lon="15.89592774398624897003173828125">
        <ele>108</ele>
        <time>2018-08-18T11:56:56.000Z</time>
        <extensions>
          <ns3:TrackPointExtension>
            <ns3:atemp>16.0</ns3:atemp>
          </ns3:TrackPointExtension>
        </extensions>
      </trkpt>
      <trkpt lat="60.07817921228706836700439453125" lon="15.8961720764636993408203125">
        <ele>106.59999847412109375</ele>
        <time>2018-08-18T11:57:04.000Z</time>
        <extensions>
          <ns3:TrackPointExtension>
            <ns3:atemp>16.0</ns3:atemp>
          </ns3:TrackPointExtension>
        </extensions>
      </trkpt>
      <trkpt lat="60.07872755639255046844482421875" lon="15.896439962089061737060546875">
        <ele>106.59999847412109375</ele>
        <time>2018-08-18T11:57:12.000Z</time>
        <extensions>
          <ns3:TrackPointExtension>
            <ns3:atemp>16.0</ns3:atemp>
          </ns3:TrackPointExtension>
        </extensions>
      </trkpt>
      <trkpt lat="60.07931361906230449676513671875" lon="15.896706171333789825439453125">
        <ele>107.1999969482421875</ele>
        <time>2018-08-18T11:57:20.000Z</time>
        <extensions>
          <ns3:TrackPointExtension>
            <ns3:atemp>16.0</ns3:atemp>
          </ns3:TrackPointExtension>
        </extensions>
      </trkpt>
      <trkpt lat="60.07984109222888946533203125" lon="15.8969289623200893402099609375">
        <ele>107.8000030517578125</ele>
        <time>2018-08-18T11:57:27.000Z</time>
        <extensions>
          <ns3:TrackPointExtension>
            <ns3:atemp>16.0</ns3:atemp>
          </ns3:TrackPointExtension>
        </extensions>
      </trkpt>
      <trkpt lat="60.08006664924323558807373046875" lon="15.89702107943594455718994140625">
        <ele>108</ele>
        <time>2018-08-18T11:57:30.000Z</time>
        <extensions>
          <ns3:TrackPointExtension>
            <ns3:atemp>16.0</ns3:atemp>
          </ns3:TrackPointExtension>
        </extensions>
      </trkpt>
      <trkpt lat="60.08059655316174030303955078125" lon="15.89726884849369525909423828125">
        <ele>108.59999847412109375</ele>
        <time>2018-08-18T11:57:37.000Z</time>
        <extensions>
          <ns3:TrackPointExtension>
            <ns3:atemp>16.0</ns3:atemp>
          </ns3:TrackPointExtension>
        </extensions>
      </trkpt>
      <trkpt lat="60.080910958349704742431640625" lon="15.89740480296313762664794921875">
        <ele>109</ele>
        <time>2018-08-18T11:57:41.000Z</time>
        <extensions>
          <ns3:TrackPointExtension>
            <ns3:atemp>16.0</ns3:atemp>
          </ns3:TrackPointExtension>
        </extensions>
      </trkpt>
      <trkpt lat="60.08145888336002826690673828125" lon="15.8976528234779834747314453125">
        <ele>109.40000152587890625</ele>
        <time>2018-08-18T11:57:48.000Z</time>
        <extensions>
          <ns3:TrackPointExtension>
            <ns3:atemp>16.0</ns3:atemp>
          </ns3:TrackPointExtension>
        </extensions>
      </trkpt>
      <trkpt lat="60.08192558772861957550048828125" lon="15.89787670411169528961181640625">
        <ele>110</ele>
        <time>2018-08-18T11:57:54.000Z</time>
        <extensions>
          <ns3:TrackPointExtension>
            <ns3:atemp>16.0</ns3:atemp>
          </ns3:TrackPointExtension>
        </extensions>
      </trkpt>
      <trkpt lat="60.08246169425547122955322265625" lon="15.8981493674218654632568359375">
        <ele>110.40000152587890625</ele>
        <time>2018-08-18T11:58:01.000Z</time>
        <extensions>
          <ns3:TrackPointExtension>
            <ns3:atemp>16.0</ns3:atemp>
          </ns3:TrackPointExtension>
        </extensions>
      </trkpt>
      <trkpt lat="60.082990340888500213623046875" lon="15.89847450144588947296142578125">
        <ele>110.8000030517578125</ele>
        <time>2018-08-18T11:58:08.000Z</time>
        <extensions>
          <ns3:TrackPointExtension>
            <ns3:atemp>16.0</ns3:atemp>
          </ns3:TrackPointExtension>
        </extensions>
      </trkpt>
      <trkpt lat="60.0834847055375576019287109375" lon="15.89893735013902187347412109375">
        <ele>110.59999847412109375</ele>
        <time>2018-08-18T11:58:15.000Z</time>
        <extensions>
          <ns3:TrackPointExtension>
            <ns3:atemp>16.0</ns3:atemp>
          </ns3:TrackPointExtension>
        </extensions>
      </trkpt>
      <trkpt lat="60.08375619538128376007080078125" lon="15.89924865402281284332275390625">
        <ele>110.8000030517578125</ele>
        <time>2018-08-18T11:58:19.000Z</time>
        <extensions>
          <ns3:TrackPointExtension>
            <ns3:atemp>16.0</ns3:atemp>
          </ns3:TrackPointExtension>
        </extensions>
      </trkpt>
      <trkpt lat="60.08419565856456756591796875" lon="15.89992373250424861907958984375">
        <ele>112</ele>
        <time>2018-08-18T11:58:26.000Z</time>
        <extensions>
          <ns3:TrackPointExtension>
            <ns3:atemp>16.0</ns3:atemp>
          </ns3:TrackPointExtension>
        </extensions>
      </trkpt>
      <trkpt lat="60.08424921892583370208740234375" lon="15.90003320015966892242431640625">
        <ele>112</ele>
        <time>2018-08-18T11:58:27.000Z</time>
        <extensions>
          <ns3:TrackPointExtension>
            <ns3:atemp>16.0</ns3:atemp>
          </ns3:TrackPointExtension>
        </extensions>
      </trkpt>
      <trkpt lat="60.08435952477157115936279296875" lon="15.90025682933628559112548828125">
        <ele>112.40000152587890625</ele>
        <time>2018-08-18T11:58:29.000Z</time>
        <extensions>
          <ns3:TrackPointExtension>
            <ns3:atemp>16.0</ns3:atemp>
          </ns3:TrackPointExtension>
        </extensions>
      </trkpt>
      <trkpt lat="60.0846645422279834747314453125" lon="15.90097381733357906341552734375">
        <ele>113.40000152587890625</ele>
        <time>2018-08-18T11:58:35.000Z</time>
        <extensions>
          <ns3:TrackPointExtension>
            <ns3:atemp>16.0</ns3:atemp>
          </ns3:TrackPointExtension>
        </extensions>
      </trkpt>
      <trkpt lat="60.08498364128172397613525390625" lon="15.9019322879612445831298828125">
        <ele>114.40000152587890625</ele>
        <time>2018-08-18T11:58:42.000Z</time>
        <extensions>
          <ns3:TrackPointExtension>
            <ns3:atemp>16.0</ns3:atemp>
          </ns3:TrackPointExtension>
        </extensions>
      </trkpt>
      <trkpt lat="60.0850226171314716339111328125" lon="15.90207637287676334381103515625">
        <ele>114.40000152587890625</ele>
        <time>2018-08-18T11:58:43.000Z</time>
        <extensions>
          <ns3:TrackPointExtension>
            <ns3:atemp>16.0</ns3:atemp>
          </ns3:TrackPointExtension>
        </extensions>
      </trkpt>
      <trkpt lat="60.0852821208536624908447265625" lon="15.90317725203931331634521484375">
        <ele>115.40000152587890625</ele>
        <time>2018-08-18T11:58:51.000Z</time>
        <extensions>
          <ns3:TrackPointExtension>
            <ns3:atemp>16.0</ns3:atemp>
          </ns3:TrackPointExtension>
        </extensions>
      </trkpt>
      <trkpt lat="60.085325874388217926025390625" lon="15.90343952178955078125">
        <ele>115.59999847412109375</ele>
        <time>2018-08-18T11:58:53.000Z</time>
        <extensions>
          <ns3:TrackPointExtension>
            <ns3:atemp>16.0</ns3:atemp>
          </ns3:TrackPointExtension>
        </extensions>
      </trkpt>
      <trkpt lat="60.0854199193418025970458984375" lon="15.9040374867618083953857421875">
        <ele>116</ele>
        <time>2018-08-18T11:58:58.000Z</time>
        <extensions>
          <ns3:TrackPointExtension>
            <ns3:atemp>16.0</ns3:atemp>
          </ns3:TrackPointExtension>
        </extensions>
      </trkpt>
      <trkpt lat="60.085464678704738616943359375" lon="15.90450662188231945037841796875">
        <ele>116.40000152587890625</ele>
        <time>2018-08-18T11:59:02.000Z</time>
        <extensions>
          <ns3:TrackPointExtension>
            <ns3:atemp>16.0</ns3:atemp>
          </ns3:TrackPointExtension>
        </extensions>
      </trkpt>
      <trkpt lat="60.08558227680623531341552734375" lon="15.90563281439244747161865234375">
        <ele>117</ele>
        <time>2018-08-18T11:59:13.000Z</time>
        <extensions>
          <ns3:TrackPointExtension>
            <ns3:atemp>16.0</ns3:atemp>
          </ns3:TrackPointExtension>
        </extensions>
      </trkpt>
      <trkpt lat="60.08561044000089168548583984375" lon="15.90581771917641162872314453125">
        <ele>117</ele>
        <time>2018-08-18T11:59:15.000Z</time>
        <extensions>
          <ns3:TrackPointExtension>
            <ns3:atemp>16.0</ns3:atemp>
          </ns3:TrackPointExtension>
        </extensions>
      </trkpt>
      <trkpt lat="60.08574237115681171417236328125" lon="15.907008536159992218017578125">
        <ele>118</ele>
        <time>2018-08-18T11:59:24.000Z</time>
        <extensions>
          <ns3:TrackPointExtension>
            <ns3:atemp>16.0</ns3:atemp>
          </ns3:TrackPointExtension>
        </extensions>
      </trkpt>
      <trkpt lat="60.08586843498051166534423828125" lon="15.9081600420176982879638671875">
        <ele>119.1999969482421875</ele>
        <time>2018-08-18T11:59:32.000Z</time>
        <extensions>
          <ns3:TrackPointExtension>
            <ns3:atemp>16.0</ns3:atemp>
          </ns3:TrackPointExtension>
        </extensions>
      </trkpt>
      <trkpt lat="60.0859670899808406829833984375" lon="15.90936745516955852508544921875">
        <ele>120.59999847412109375</ele>
        <time>2018-08-18T11:59:40.000Z</time>
        <extensions>
          <ns3:TrackPointExtension>
            <ns3:atemp>16.0</ns3:atemp>
          </ns3:TrackPointExtension>
        </extensions>
      </trkpt>
      <trkpt lat="60.08598997257649898529052734375" lon="15.91022894717752933502197265625">
        <ele>121.40000152587890625</ele>
        <time>2018-08-18T11:59:46.000Z</time>
        <extensions>
          <ns3:TrackPointExtension>
            <ns3:atemp>16.0</ns3:atemp>
          </ns3:TrackPointExtension>
        </extensions>
      </trkpt>
      <trkpt lat="60.08594839833676815032958984375" lon="15.9109012596309185028076171875">
        <ele>122</ele>
        <time>2018-08-18T11:59:51.000Z</time>
        <extensions>
          <ns3:TrackPointExtension>
            <ns3:atemp>16.0</ns3:atemp>
          </ns3:TrackPointExtension>
        </extensions>
      </trkpt>
      <trkpt lat="60.08577858097851276397705078125" lon="15.91206056065857410430908203125">
        <ele>122.8000030517578125</ele>
        <time>2018-08-18T12:00:00.000Z</time>
        <extensions>
          <ns3:TrackPointExtension>
            <ns3:atemp>16.0</ns3:atemp>
          </ns3:TrackPointExtension>
        </extensions>
      </trkpt>
      <trkpt lat="60.08552628569304943084716796875" lon="15.9131504595279693603515625">
        <ele>123.59999847412109375</ele>
        <time>2018-08-18T12:00:09.000Z</time>
        <extensions>
          <ns3:TrackPointExtension>
            <ns3:atemp>16.0</ns3:atemp>
          </ns3:TrackPointExtension>
        </extensions>
      </trkpt>
      <trkpt lat="60.08518530987203121185302734375" lon="15.91411731205880641937255859375">
        <ele>123.8000030517578125</ele>
        <time>2018-08-18T12:00:18.000Z</time>
        <extensions>
          <ns3:TrackPointExtension>
            <ns3:atemp>16.0</ns3:atemp>
          </ns3:TrackPointExtension>
        </extensions>
      </trkpt>
      <trkpt lat="60.084783397614955902099609375" lon="15.91494561173021793365478515625">
        <ele>125</ele>
        <time>2018-08-18T12:00:27.000Z</time>
        <extensions>
          <ns3:TrackPointExtension>
            <ns3:atemp>16.0</ns3:atemp>
          </ns3:TrackPointExtension>
        </extensions>
      </trkpt>
      <trkpt lat="60.08463026024401187896728515625" lon="15.9151827357709407806396484375">
        <ele>125.40000152587890625</ele>
        <time>2018-08-18T12:00:30.000Z</time>
        <extensions>
          <ns3:TrackPointExtension>
            <ns3:atemp>16.0</ns3:atemp>
          </ns3:TrackPointExtension>
        </extensions>
      </trkpt>
      <trkpt lat="60.08417562581598758697509765625" lon="15.91578983701765537261962890625">
        <ele>126.40000152587890625</ele>
        <time>2018-08-18T12:00:39.000Z</time>
        <extensions>
          <ns3:TrackPointExtension>
            <ns3:atemp>16.0</ns3:atemp>
          </ns3:TrackPointExtension>
        </extensions>
      </trkpt>
      <trkpt lat="60.0836359150707721710205078125" lon="15.91633063741028308868408203125">
        <ele>127.59999847412109375</ele>
        <time>2018-08-18T12:00:48.000Z</time>
        <extensions>
          <ns3:TrackPointExtension>
            <ns3:atemp>16.0</ns3:atemp>
          </ns3:TrackPointExtension>
        </extensions>
      </trkpt>
      <trkpt lat="60.083092264831066131591796875" lon="15.916855596005916595458984375">
        <ele>128.8000030517578125</ele>
        <time>2018-08-18T12:00:57.000Z</time>
        <extensions>
          <ns3:TrackPointExtension>
            <ns3:atemp>16.0</ns3:atemp>
          </ns3:TrackPointExtension>
        </extensions>
      </trkpt>
      <trkpt lat="60.0828647799789905548095703125" lon="15.9170713461935520172119140625">
        <ele>129.1999969482421875</ele>
        <time>2018-08-18T12:01:01.000Z</time>
        <extensions>
          <ns3:TrackPointExtension>
            <ns3:atemp>16.0</ns3:atemp>
          </ns3:TrackPointExtension>
        </extensions>
      </trkpt>
      <trkpt lat="60.082565881311893463134765625" lon="15.91737619601190090179443359375">
        <ele>129.8000030517578125</ele>
        <time>2018-08-18T12:01:07.000Z</time>
        <extensions>
          <ns3:TrackPointExtension>
            <ns3:atemp>16.0</ns3:atemp>
          </ns3:TrackPointExtension>
        </extensions>
      </trkpt>
      <trkpt lat="60.08205450139939785003662109375" lon="15.91786284931004047393798828125">
        <ele>130.8000030517578125</ele>
        <time>2018-08-18T12:01:16.000Z</time>
        <extensions>
          <ns3:TrackPointExtension>
            <ns3:atemp>16.0</ns3:atemp>
          </ns3:TrackPointExtension>
        </extensions>
      </trkpt>
      <trkpt lat="60.081521831452846527099609375" lon="15.91838948428630828857421875">
        <ele>132</ele>
        <time>2018-08-18T12:01:25.000Z</time>
        <extensions>
          <ns3:TrackPointExtension>
            <ns3:atemp>16.0</ns3:atemp>
          </ns3:TrackPointExtension>
        </extensions>
      </trkpt>
      <trkpt lat="60.08102185092866420745849609375" lon="15.9188925661146640777587890625">
        <ele>133</ele>
        <time>2018-08-18T12:01:33.000Z</time>
        <extensions>
          <ns3:TrackPointExtension>
            <ns3:atemp>16.0</ns3:atemp>
          </ns3:TrackPointExtension>
        </extensions>
      </trkpt>
      <trkpt lat="60.08053620345890522003173828125" lon="15.91939128935337066650390625">
        <ele>133.600006103515625</ele>
        <time>2018-08-18T12:01:41.000Z</time>
        <extensions>
          <ns3:TrackPointExtension>
            <ns3:atemp>16.0</ns3:atemp>
          </ns3:TrackPointExtension>
        </extensions>
      </trkpt>
      <trkpt lat="60.08001132868230342864990234375" lon="15.91988070867955684661865234375">
        <ele>134</ele>
        <time>2018-08-18T12:01:50.000Z</time>
        <extensions>
          <ns3:TrackPointExtension>
            <ns3:atemp>16.0</ns3:atemp>
          </ns3:TrackPointExtension>
        </extensions>
      </trkpt>
      <trkpt lat="60.0795200653374195098876953125" lon="15.92033534310758113861083984375">
        <ele>134.600006103515625</ele>
        <time>2018-08-18T12:01:59.000Z</time>
        <extensions>
          <ns3:TrackPointExtension>
            <ns3:atemp>16.0</ns3:atemp>
          </ns3:TrackPointExtension>
        </extensions>
      </trkpt>
      <trkpt lat="60.0789601542055606842041015625" lon="15.9207473136484622955322265625">
        <ele>135</ele>
        <time>2018-08-18T12:02:08.000Z</time>
        <extensions>
          <ns3:TrackPointExtension>
            <ns3:atemp>16.0</ns3:atemp>
          </ns3:TrackPointExtension>
        </extensions>
      </trkpt>
      <trkpt lat="60.0784297473728656768798828125" lon="15.92105518095195293426513671875">
        <ele>135</ele>
        <time>2018-08-18T12:02:16.000Z</time>
        <extensions>
          <ns3:TrackPointExtension>
            <ns3:atemp>16.0</ns3:atemp>
          </ns3:TrackPointExtension>
        </extensions>
      </trkpt>
      <trkpt lat="60.077886097133159637451171875" lon="15.92121695168316364288330078125">
        <ele>135.399993896484375</ele>
        <time>2018-08-18T12:02:24.000Z</time>
        <extensions>
          <ns3:TrackPointExtension>
            <ns3:atemp>16.0</ns3:atemp>
          </ns3:TrackPointExtension>
        </extensions>
      </trkpt>
      <trkpt lat="60.077332556247711181640625" lon="15.92126674018800258636474609375">
        <ele>135.600006103515625</ele>
        <time>2018-08-18T12:02:32.000Z</time>
        <extensions>
          <ns3:TrackPointExtension>
            <ns3:atemp>16.0</ns3:atemp>
          </ns3:TrackPointExtension>
        </extensions>
      </trkpt>
      <trkpt lat="60.0767808593809604644775390625" lon="15.92125668190419673919677734375">
        <ele>135.600006103515625</ele>
        <time>2018-08-18T12:02:40.000Z</time>
        <extensions>
          <ns3:TrackPointExtension>
            <ns3:atemp>16.0</ns3:atemp>
          </ns3:TrackPointExtension>
        </extensions>
      </trkpt>
      <trkpt lat="60.07618448697030544281005859375" lon="15.92126690782606601715087890625">
        <ele>135.600006103515625</ele>
        <time>2018-08-18T12:02:49.000Z</time>
        <extensions>
          <ns3:TrackPointExtension>
            <ns3:atemp>16.0</ns3:atemp>
          </ns3:TrackPointExtension>
        </extensions>
      </trkpt>
      <trkpt lat="60.075586773455142974853515625" lon="15.92127981595695018768310546875">
        <ele>135.8000030517578125</ele>
        <time>2018-08-18T12:02:58.000Z</time>
        <extensions>
          <ns3:TrackPointExtension>
            <ns3:atemp>16.0</ns3:atemp>
          </ns3:TrackPointExtension>
        </extensions>
      </trkpt>
      <trkpt lat="60.0750126130878925323486328125" lon="15.9212951548397541046142578125">
        <ele>135.1999969482421875</ele>
        <time>2018-08-18T12:03:07.000Z</time>
        <extensions>
          <ns3:TrackPointExtension>
            <ns3:atemp>17.0</ns3:atemp>
          </ns3:TrackPointExtension>
        </extensions>
      </trkpt>
      <trkpt lat="60.074449516832828521728515625" lon="15.92131250537931919097900390625">
        <ele>134.600006103515625</ele>
        <time>2018-08-18T12:03:16.000Z</time>
        <extensions>
          <ns3:TrackPointExtension>
            <ns3:atemp>17.0</ns3:atemp>
          </ns3:TrackPointExtension>
        </extensions>
      </trkpt>
      <trkpt lat="60.0741777755320072174072265625" lon="15.9213169477880001068115234375">
        <ele>134.1999969482421875</ele>
        <time>2018-08-18T12:03:20.000Z</time>
        <extensions>
          <ns3:TrackPointExtension>
            <ns3:atemp>17.0</ns3:atemp>
          </ns3:TrackPointExtension>
        </extensions>
      </trkpt>
      <trkpt lat="60.0735759548842906951904296875" lon="15.92132918536663055419921875">
        <ele>133.600006103515625</ele>
        <time>2018-08-18T12:03:29.000Z</time>
        <extensions>
          <ns3:TrackPointExtension>
            <ns3:atemp>17.0</ns3:atemp>
          </ns3:TrackPointExtension>
        </extensions>
      </trkpt>
      <trkpt lat="60.07297807373106479644775390625" lon="15.92147729359567165374755859375">
        <ele>133</ele>
        <time>2018-08-18T12:03:38.000Z</time>
        <extensions>
          <ns3:TrackPointExtension>
            <ns3:atemp>17.0</ns3:atemp>
          </ns3:TrackPointExtension>
        </extensions>
      </trkpt>
      <trkpt lat="60.07245269604027271270751953125" lon="15.92181307263672351837158203125">
        <ele>132.600006103515625</ele>
        <time>2018-08-18T12:03:46.000Z</time>
        <extensions>
          <ns3:TrackPointExtension>
            <ns3:atemp>17.0</ns3:atemp>
          </ns3:TrackPointExtension>
        </extensions>
      </trkpt>
      <trkpt lat="60.07197140716016292572021484375" lon="15.922309197485446929931640625">
        <ele>132.600006103515625</ele>
        <time>2018-08-18T12:03:54.000Z</time>
        <extensions>
          <ns3:TrackPointExtension>
            <ns3:atemp>17.0</ns3:atemp>
          </ns3:TrackPointExtension>
        </extensions>
      </trkpt>
      <trkpt lat="60.0715002603828907012939453125" lon="15.9229888021945953369140625">
        <ele>132.600006103515625</ele>
        <time>2018-08-18T12:04:03.000Z</time>
        <extensions>
          <ns3:TrackPointExtension>
            <ns3:atemp>17.0</ns3:atemp>
          </ns3:TrackPointExtension>
        </extensions>
      </trkpt>
      <trkpt lat="60.07101838476955890655517578125" lon="15.92368005774915218353271484375">
        <ele>132.8000030517578125</ele>
        <time>2018-08-18T12:04:13.000Z</time>
        <extensions>
          <ns3:TrackPointExtension>
            <ns3:atemp>17.0</ns3:atemp>
          </ns3:TrackPointExtension>
        </extensions>
      </trkpt>
      <trkpt lat="60.07054128684103488922119140625" lon="15.92424432747066020965576171875">
        <ele>132.8000030517578125</ele>
        <time>2018-08-18T12:04:22.000Z</time>
        <extensions>
          <ns3:TrackPointExtension>
            <ns3:atemp>17.0</ns3:atemp>
          </ns3:TrackPointExtension>
        </extensions>
      </trkpt>
      <trkpt lat="60.0703145563602447509765625" lon="15.92445622198283672332763671875">
        <ele>132.8000030517578125</ele>
        <time>2018-08-18T12:04:26.000Z</time>
        <extensions>
          <ns3:TrackPointExtension>
            <ns3:atemp>17.0</ns3:atemp>
          </ns3:TrackPointExtension>
        </extensions>
      </trkpt>
      <trkpt lat="60.06979395635426044464111328125" lon="15.92482117004692554473876953125">
        <ele>132.8000030517578125</ele>
        <time>2018-08-18T12:04:35.000Z</time>
        <extensions>
          <ns3:TrackPointExtension>
            <ns3:atemp>17.0</ns3:atemp>
          </ns3:TrackPointExtension>
        </extensions>
      </trkpt>
      <trkpt lat="60.069668479263782501220703125" lon="15.9248782508075237274169921875">
        <ele>132.8000030517578125</ele>
        <time>2018-08-18T12:04:37.000Z</time>
        <extensions>
          <ns3:TrackPointExtension>
            <ns3:atemp>17.0</ns3:atemp>
          </ns3:TrackPointExtension>
        </extensions>
      </trkpt>
      <trkpt lat="60.0695459358394145965576171875" lon="15.92491018585860729217529296875">
        <ele>132.8000030517578125</ele>
        <time>2018-08-18T12:04:39.000Z</time>
        <extensions>
          <ns3:TrackPointExtension>
            <ns3:atemp>17.0</ns3:atemp>
          </ns3:TrackPointExtension>
        </extensions>
      </trkpt>
      <trkpt lat="60.0693316943943500518798828125" lon="15.92478328384459018707275390625">
        <ele>132.399993896484375</ele>
        <time>2018-08-18T12:04:43.000Z</time>
        <extensions>
          <ns3:TrackPointExtension>
            <ns3:atemp>17.0</ns3:atemp>
          </ns3:TrackPointExtension>
        </extensions>
      </trkpt>
      <trkpt lat="60.06897185929119586944580078125" lon="15.9244363568723201751708984375">
        <ele>131.600006103515625</ele>
        <time>2018-08-18T12:04:53.000Z</time>
        <extensions>
          <ns3:TrackPointExtension>
            <ns3:atemp>17.0</ns3:atemp>
          </ns3:TrackPointExtension>
        </extensions>
      </trkpt>
      <trkpt lat="60.0688904710114002227783203125" lon="15.924356393516063690185546875">
        <ele>131.600006103515625</ele>
        <time>2018-08-18T12:04:55.000Z</time>
        <extensions>
          <ns3:TrackPointExtension>
            <ns3:atemp>17.0</ns3:atemp>
          </ns3:TrackPointExtension>
        </extensions>
      </trkpt>
      <trkpt lat="60.0688079930841922760009765625" lon="15.92427282594144344329833984375">
        <ele>131.399993896484375</ele>
        <time>2018-08-18T12:04:57.000Z</time>
        <extensions>
          <ns3:TrackPointExtension>
            <ns3:atemp>17.0</ns3:atemp>
          </ns3:TrackPointExtension>
        </extensions>
      </trkpt>
      <trkpt lat="60.0687697716057300567626953125" lon="15.924214906990528106689453125">
        <ele>131.1999969482421875</ele>
        <time>2018-08-18T12:04:58.000Z</time>
        <extensions>
          <ns3:TrackPointExtension>
            <ns3:atemp>17.0</ns3:atemp>
          </ns3:TrackPointExtension>
        </extensions>
      </trkpt>
      <trkpt lat="60.0686515867710113525390625" lon="15.923894383013248443603515625">
        <ele>130.8000030517578125</ele>
        <time>2018-08-18T12:05:02.000Z</time>
        <extensions>
          <ns3:TrackPointExtension>
            <ns3:atemp>17.0</ns3:atemp>
          </ns3:TrackPointExtension>
        </extensions>
      </trkpt>
      <trkpt lat="60.0684204138815402984619140625" lon="15.9232300333678722381591796875">
        <ele>130.399993896484375</ele>
        <time>2018-08-18T12:05:10.000Z</time>
        <extensions>
          <ns3:TrackPointExtension>
            <ns3:atemp>17.0</ns3:atemp>
          </ns3:TrackPointExtension>
        </extensions>
      </trkpt>
      <trkpt lat="60.0681411288678646087646484375" lon="15.92287640087306499481201171875">
        <ele>129.8000030517578125</ele>
        <time>2018-08-18T12:05:17.000Z</time>
        <extensions>
          <ns3:TrackPointExtension>
            <ns3:atemp>17.0</ns3:atemp>
          </ns3:TrackPointExtension>
        </extensions>
      </trkpt>
      <trkpt lat="60.06802520714700222015380859375" lon="15.92279492877423763275146484375">
        <ele>129.8000030517578125</ele>
        <time>2018-08-18T12:05:20.000Z</time>
        <extensions>
          <ns3:TrackPointExtension>
            <ns3:atemp>17.0</ns3:atemp>
          </ns3:TrackPointExtension>
        </extensions>
      </trkpt>
    </trkseg>
  </trk>
</gpx>
